<?xml version='1.0' encoding='UTF-8'?><gpx version="1.1" creator="JPX - https://github.com/jenetics/jpx" xmlns="http://www.topografix.com/GPX/1/1"><trk><trkseg><trkpt lat="38.174185" lon="15.6709767"><ele>103.00000000000001</ele><time>2026-04-21T08:48:20.316Z</time></trkpt><trkpt lat="38.1741217" lon="15.670965"><ele>103.0</ele><time>2026-04-21T08:48:29.316Z</time></trkpt><trkpt lat="38.174045" lon="15.6708767"><ele>103.0</ele><time>2026-04-21T08:48:33.316Z</time></trkpt><trkpt lat="38.1739783" lon="15.67082"><ele>103.0</ele><time>2026-04-21T08:48:36.316Z</time></trkpt><trkpt lat="38.17387" lon="15.6707583"><ele>103.00000000000001</ele><time>2026-04-21T08:48:40.316Z</time></trkpt><trkpt lat="38.173825" lon="15.6706883"><ele>103.0</ele><time>2026-04-21T08:48:42.316Z</time></trkpt><trkpt lat="38.1737983" lon="15.6705717"><ele>103.0</ele><time>2026-04-21T08:48:44.316Z</time></trkpt><trkpt lat="38.173805" lon="15.6704467"><ele>103.0</ele><time>2026-04-21T08:48:46.316Z</time></trkpt><trkpt lat="38.1738183" lon="15.67032"><ele>103.0</ele><time>2026-04-21T08:48:48.316Z</time></trkpt><trkpt lat="38.1738983" lon="15.67028"><ele>103.0</ele><time>2026-04-21T08:48:50.315Z</time></trkpt><trkpt lat="38.1740483" lon="15.6702933"><ele>103.0</ele><time>2026-04-21T08:48:52.316Z</time></trkpt><trkpt lat="38.1741283" lon="15.6703067"><ele>103.00000000000001</ele><time>2026-04-21T08:48:53.316Z</time></trkpt><trkpt lat="38.1742067" lon="15.6703467"><ele>103.0</ele><time>2026-04-21T08:48:54.315Z</time></trkpt><trkpt lat="38.1742817" lon="15.6703667"><ele>103.0</ele><time>2026-04-21T08:48:55.316Z</time></trkpt><trkpt lat="38.174355" lon="15.67038"><ele>103.0</ele><time>2026-04-21T08:48:56.315Z</time></trkpt><trkpt lat="38.17445" lon="15.6703317"><ele>103.00000000000001</ele><time>2026-04-21T08:48:58.316Z</time></trkpt><trkpt lat="38.1745017" lon="15.670275"><ele>103.0</ele><time>2026-04-21T08:48:59.316Z</time></trkpt><trkpt lat="38.17458" lon="15.6701817"><ele>102.28571428571428</ele><time>2026-04-21T08:49:01.316Z</time></trkpt><trkpt lat="38.17463" lon="15.6701217"><ele>101.57142857142857</ele><time>2026-04-21T08:49:02.316Z</time></trkpt><trkpt lat="38.1746817" lon="15.67006"><ele>100.85714285714286</ele><time>2026-04-21T08:49:03.316Z</time></trkpt><trkpt lat="38.1747317" lon="15.6699933"><ele>100.14285714285714</ele><time>2026-04-21T08:49:04.316Z</time></trkpt><trkpt lat="38.1747767" lon="15.6699317"><ele>99.42857142857143</ele><time>2026-04-21T08:49:05.316Z</time></trkpt><trkpt lat="38.17482" lon="15.6698683"><ele>98.71428571428571</ele><time>2026-04-21T08:49:06.316Z</time></trkpt><trkpt lat="38.174865" lon="15.6698067"><ele>98.0</ele><time>2026-04-21T08:49:07.316Z</time></trkpt><trkpt lat="38.17495" lon="15.6697067"><ele>97.99999999999999</ele><time>2026-04-21T08:49:09.316Z</time></trkpt><trkpt lat="38.1750033" lon="15.6696583"><ele>98.0</ele><time>2026-04-21T08:49:10.316Z</time></trkpt><trkpt lat="38.1750617" lon="15.6695983"><ele>98.0</ele><time>2026-04-21T08:49:11.316Z</time></trkpt><trkpt lat="38.175115" lon="15.66953"><ele>98.0</ele><time>2026-04-21T08:49:12.316Z</time></trkpt><trkpt lat="38.1751733" lon="15.6694533"><ele>97.99999999999999</ele><time>2026-04-21T08:49:13.316Z</time></trkpt><trkpt lat="38.1752283" lon="15.6693733"><ele>98.0</ele><time>2026-04-21T08:49:14.316Z</time></trkpt><trkpt lat="38.1752783" lon="15.6692867"><ele>96.60000000000001</ele><time>2026-04-21T08:49:15.316Z</time></trkpt><trkpt lat="38.1753333" lon="15.6691983"><ele>95.2</ele><time>2026-04-21T08:49:16.316Z</time></trkpt><trkpt lat="38.1754" lon="15.669105"><ele>93.8</ele><time>2026-04-21T08:49:17.316Z</time></trkpt><trkpt lat="38.1754667" lon="15.6690033"><ele>92.4</ele><time>2026-04-21T08:49:18.316Z</time></trkpt><trkpt lat="38.1755317" lon="15.6688917"><ele>91.0</ele><time>2026-04-21T08:49:19.316Z</time></trkpt><trkpt lat="38.1755933" lon="15.66878"><ele>91.0</ele><time>2026-04-21T08:49:20.316Z</time></trkpt><trkpt lat="38.175665" lon="15.66867"><ele>91.0</ele><time>2026-04-21T08:49:21.316Z</time></trkpt><trkpt lat="38.17573" lon="15.6685583"><ele>91.0</ele><time>2026-04-21T08:49:22.316Z</time></trkpt><trkpt lat="38.1758033" lon="15.66843"><ele>91.0</ele><time>2026-04-21T08:49:23.316Z</time></trkpt><trkpt lat="38.1758767" lon="15.6683133"><ele>90.25</ele><time>2026-04-21T08:49:24.316Z</time></trkpt><trkpt lat="38.1759533" lon="15.668195"><ele>89.5</ele><time>2026-04-21T08:49:25.315Z</time></trkpt><trkpt lat="38.176035" lon="15.6680783"><ele>88.75</ele><time>2026-04-21T08:49:26.316Z</time></trkpt><trkpt lat="38.1761183" lon="15.66794"><ele>88.0</ele><time>2026-04-21T08:49:27.316Z</time></trkpt><trkpt lat="38.176195" lon="15.6678083"><ele>86.75</ele><time>2026-04-21T08:49:28.316Z</time></trkpt><trkpt lat="38.1762783" lon="15.6676733"><ele>85.5</ele><time>2026-04-21T08:49:29.316Z</time></trkpt><trkpt lat="38.1763583" lon="15.667545"><ele>84.25</ele><time>2026-04-21T08:49:30.316Z</time></trkpt><trkpt lat="38.1764367" lon="15.66742"><ele>83.0</ele><time>2026-04-21T08:49:31.316Z</time></trkpt><trkpt lat="38.1765183" lon="15.6672933"><ele>83.0</ele><time>2026-04-21T08:49:32.315Z</time></trkpt><trkpt lat="38.176585" lon="15.6671683"><ele>83.0</ele><time>2026-04-21T08:49:33.316Z</time></trkpt><trkpt lat="38.1766467" lon="15.6670433"><ele>83.0</ele><time>2026-04-21T08:49:34.316Z</time></trkpt><trkpt lat="38.1766983" lon="15.666935"><ele>83.0</ele><time>2026-04-21T08:49:35.316Z</time></trkpt><trkpt lat="38.176745" lon="15.666835"><ele>83.0</ele><time>2026-04-21T08:49:36.316Z</time></trkpt><trkpt lat="38.1767833" lon="15.6667567"><ele>83.0</ele><time>2026-04-21T08:49:37.316Z</time></trkpt><trkpt lat="38.1768233" lon="15.66669"><ele>83.0</ele><time>2026-04-21T08:49:38.316Z</time></trkpt><trkpt lat="38.1768967" lon="15.6666333"><ele>83.0</ele><time>2026-04-21T08:49:40.315Z</time></trkpt><trkpt lat="38.1769667" lon="15.66662"><ele>83.0</ele><time>2026-04-21T08:49:42.316Z</time></trkpt><trkpt lat="38.1770433" lon="15.6666533"><ele>83.0</ele><time>2026-04-21T08:49:44.316Z</time></trkpt><trkpt lat="38.1771367" lon="15.6667633"><ele>83.0</ele><time>2026-04-21T08:49:46.315Z</time></trkpt><trkpt lat="38.177185" lon="15.6668433"><ele>83.0</ele><time>2026-04-21T08:49:47.316Z</time></trkpt><trkpt lat="38.1772433" lon="15.6669117"><ele>83.0</ele><time>2026-04-21T08:49:48.316Z</time></trkpt><trkpt lat="38.1773133" lon="15.6669767"><ele>83.0</ele><time>2026-04-21T08:49:49.315Z</time></trkpt><trkpt lat="38.1773883" lon="15.667045"><ele>83.0</ele><time>2026-04-21T08:49:50.316Z</time></trkpt><trkpt lat="38.1774683" lon="15.6671217"><ele>83.0</ele><time>2026-04-21T08:49:51.316Z</time></trkpt><trkpt lat="38.17755" lon="15.667195"><ele>83.4</ele><time>2026-04-21T08:49:52.315Z</time></trkpt><trkpt lat="38.1776133" lon="15.6672567"><ele>83.80000000000001</ele><time>2026-04-21T08:49:53.316Z</time></trkpt><trkpt lat="38.177685" lon="15.6673733"><ele>84.2</ele><time>2026-04-21T08:49:55.316Z</time></trkpt><trkpt lat="38.1776967" lon="15.6675183"><ele>84.6</ele><time>2026-04-21T08:49:57.315Z</time></trkpt><trkpt lat="38.1776567" lon="15.667605"><ele>85.0</ele><time>2026-04-21T08:49:58.316Z</time></trkpt><trkpt lat="38.1775917" lon="15.6677033"><ele>85.33333333333333</ele><time>2026-04-21T08:49:59.316Z</time></trkpt><trkpt lat="38.177565" lon="15.667805"><ele>85.66666666666666</ele><time>2026-04-21T08:50:00.316Z</time></trkpt><trkpt lat="38.1775633" lon="15.6678883"><ele>86.0</ele><time>2026-04-21T08:50:01.316Z</time></trkpt><trkpt lat="38.177585" lon="15.667965"><ele>86.33333333333333</ele><time>2026-04-21T08:50:02.316Z</time></trkpt><trkpt lat="38.1776283" lon="15.6680567"><ele>86.66666666666667</ele><time>2026-04-21T08:50:03.316Z</time></trkpt><trkpt lat="38.177695" lon="15.66814"><ele>87.0</ele><time>2026-04-21T08:50:04.316Z</time></trkpt><trkpt lat="38.17778" lon="15.6682183"><ele>87.0</ele><time>2026-04-21T08:50:05.316Z</time></trkpt><trkpt lat="38.1778633" lon="15.6683017"><ele>87.0</ele><time>2026-04-21T08:50:06.315Z</time></trkpt><trkpt lat="38.17794" lon="15.6684133"><ele>87.0</ele><time>2026-04-21T08:50:07.315Z</time></trkpt><trkpt lat="38.1780083" lon="15.668515"><ele>87.0</ele><time>2026-04-21T08:50:08.316Z</time></trkpt><trkpt lat="38.1781033" lon="15.6686133"><ele>87.19999999999999</ele><time>2026-04-21T08:50:09.316Z</time></trkpt><trkpt lat="38.1781733" lon="15.6687183"><ele>87.4</ele><time>2026-04-21T08:50:10.316Z</time></trkpt><trkpt lat="38.1782517" lon="15.6688067"><ele>87.6</ele><time>2026-04-21T08:50:11.316Z</time></trkpt><trkpt lat="38.1783367" lon="15.6688867"><ele>87.80000000000001</ele><time>2026-04-21T08:50:12.316Z</time></trkpt><trkpt lat="38.178425" lon="15.6689567"><ele>88.0</ele><time>2026-04-21T08:50:13.316Z</time></trkpt><trkpt lat="38.1785233" lon="15.6690083"><ele>87.2</ele><time>2026-04-21T08:50:14.316Z</time></trkpt><trkpt lat="38.1786133" lon="15.6690483"><ele>86.4</ele><time>2026-04-21T08:50:15.316Z</time></trkpt><trkpt lat="38.17871" lon="15.66908"><ele>85.60000000000001</ele><time>2026-04-21T08:50:16.316Z</time></trkpt><trkpt lat="38.178815" lon="15.6691033"><ele>84.80000000000001</ele><time>2026-04-21T08:50:17.316Z</time></trkpt><trkpt lat="38.17891" lon="15.6691333"><ele>84.0</ele><time>2026-04-21T08:50:18.316Z</time></trkpt><trkpt lat="38.1790017" lon="15.66916"><ele>83.6</ele><time>2026-04-21T08:50:19.316Z</time></trkpt><trkpt lat="38.1790883" lon="15.6691867"><ele>83.2</ele><time>2026-04-21T08:50:20.315Z</time></trkpt><trkpt lat="38.1791833" lon="15.669215"><ele>82.8</ele><time>2026-04-21T08:50:21.316Z</time></trkpt><trkpt lat="38.1792883" lon="15.6692233"><ele>82.39999999999999</ele><time>2026-04-21T08:50:22.316Z</time></trkpt><trkpt lat="38.1794117" lon="15.6692183"><ele>82.0</ele><time>2026-04-21T08:50:23.316Z</time></trkpt><trkpt lat="38.1795317" lon="15.6692217"><ele>82.0</ele><time>2026-04-21T08:50:24.316Z</time></trkpt><trkpt lat="38.1796467" lon="15.66924"><ele>82.0</ele><time>2026-04-21T08:50:25.316Z</time></trkpt><trkpt lat="38.1797667" lon="15.6692667"><ele>82.0</ele><time>2026-04-21T08:50:26.316Z</time></trkpt><trkpt lat="38.1798867" lon="15.669285"><ele>82.0</ele><time>2026-04-21T08:50:27.316Z</time></trkpt><trkpt lat="38.18002" lon="15.6693"><ele>81.25</ele><time>2026-04-21T08:50:28.316Z</time></trkpt><trkpt lat="38.18018" lon="15.669305"><ele>80.5</ele><time>2026-04-21T08:50:29.316Z</time></trkpt><trkpt lat="38.180315" lon="15.6693283"><ele>79.75</ele><time>2026-04-21T08:50:30.316Z</time></trkpt><trkpt lat="38.1804533" lon="15.6693417"><ele>79.0</ele><time>2026-04-21T08:50:31.316Z</time></trkpt><trkpt lat="38.180595" lon="15.66937"><ele>79.0</ele><time>2026-04-21T08:50:32.316Z</time></trkpt><trkpt lat="38.180745" lon="15.66941"><ele>79.0</ele><time>2026-04-21T08:50:33.316Z</time></trkpt><trkpt lat="38.1808983" lon="15.6694367"><ele>79.0</ele><time>2026-04-21T08:50:34.316Z</time></trkpt><trkpt lat="38.1810433" lon="15.6694667"><ele>79.5</ele><time>2026-04-21T08:50:35.316Z</time></trkpt><trkpt lat="38.1811883" lon="15.669495"><ele>80.0</ele><time>2026-04-21T08:50:36.316Z</time></trkpt><trkpt lat="38.1813217" lon="15.6695217"><ele>80.5</ele><time>2026-04-21T08:50:37.315Z</time></trkpt><trkpt lat="38.1814517" lon="15.669535"><ele>81.0</ele><time>2026-04-21T08:50:38.316Z</time></trkpt><trkpt lat="38.181565" lon="15.6695317"><ele>81.4</ele><time>2026-04-21T08:50:39.316Z</time></trkpt><trkpt lat="38.1816617" lon="15.6695283"><ele>81.8</ele><time>2026-04-21T08:50:40.316Z</time></trkpt><trkpt lat="38.18175" lon="15.6695"><ele>82.2</ele><time>2026-04-21T08:50:41.316Z</time></trkpt><trkpt lat="38.1818267" lon="15.66948"><ele>82.60000000000001</ele><time>2026-04-21T08:50:42.316Z</time></trkpt><trkpt lat="38.1819283" lon="15.6694783"><ele>83.0</ele><time>2026-04-21T08:50:44.316Z</time></trkpt><trkpt lat="38.182005" lon="15.6695583"><ele>83.0</ele><time>2026-04-21T08:50:46.316Z</time></trkpt><trkpt lat="38.182075" lon="15.6695867"><ele>83.0</ele><time>2026-04-21T08:50:48.316Z</time></trkpt><trkpt lat="38.1820717" lon="15.66945"><ele>83.0</ele><time>2026-04-21T08:50:51.316Z</time></trkpt><trkpt lat="38.1820267" lon="15.66936"><ele>83.0</ele><time>2026-04-21T08:50:52.315Z</time></trkpt><trkpt lat="38.1819783" lon="15.669265"><ele>83.0</ele><time>2026-04-21T08:50:53.316Z</time></trkpt><trkpt lat="38.1819333" lon="15.6691767"><ele>83.0</ele><time>2026-04-21T08:50:54.316Z</time></trkpt><trkpt lat="38.18189" lon="15.6690883"><ele>82.83333333333334</ele><time>2026-04-21T08:50:55.316Z</time></trkpt><trkpt lat="38.18184" lon="15.6690083"><ele>82.66666666666667</ele><time>2026-04-21T08:50:56.316Z</time></trkpt><trkpt lat="38.1817967" lon="15.6689233"><ele>82.5</ele><time>2026-04-21T08:50:57.316Z</time></trkpt><trkpt lat="38.1817433" lon="15.66883"><ele>82.33333333333333</ele><time>2026-04-21T08:50:58.316Z</time></trkpt><trkpt lat="38.1816917" lon="15.6687333"><ele>82.16666666666666</ele><time>2026-04-21T08:50:59.316Z</time></trkpt><trkpt lat="38.1816383" lon="15.6686267"><ele>82.0</ele><time>2026-04-21T08:51:00.316Z</time></trkpt><trkpt lat="38.1815817" lon="15.6685133"><ele>81.75</ele><time>2026-04-21T08:51:01.316Z</time></trkpt><trkpt lat="38.18152" lon="15.66839"><ele>81.5</ele><time>2026-04-21T08:51:02.315Z</time></trkpt><trkpt lat="38.1814567" lon="15.6682717"><ele>81.25</ele><time>2026-04-21T08:51:03.316Z</time></trkpt><trkpt lat="38.1813883" lon="15.66815"><ele>81.0</ele><time>2026-04-21T08:51:04.316Z</time></trkpt><trkpt lat="38.1813233" lon="15.6680217"><ele>80.25</ele><time>2026-04-21T08:51:05.316Z</time></trkpt><trkpt lat="38.1812567" lon="15.667905"><ele>79.5</ele><time>2026-04-21T08:51:06.316Z</time></trkpt><trkpt lat="38.1811867" lon="15.66776"><ele>78.75</ele><time>2026-04-21T08:51:07.316Z</time></trkpt><trkpt lat="38.1811217" lon="15.66762"><ele>78.0</ele><time>2026-04-21T08:51:08.316Z</time></trkpt><trkpt lat="38.1810533" lon="15.6674817"><ele>77.5</ele><time>2026-04-21T08:51:09.316Z</time></trkpt><trkpt lat="38.1809817" lon="15.6673217"><ele>77.0</ele><time>2026-04-21T08:51:10.316Z</time></trkpt><trkpt lat="38.1809233" lon="15.667165"><ele>76.5</ele><time>2026-04-21T08:51:11.316Z</time></trkpt><trkpt lat="38.1808483" lon="15.6670133"><ele>76.0</ele><time>2026-04-21T08:51:12.316Z</time></trkpt><trkpt lat="38.1807733" lon="15.666855"><ele>75.75</ele><time>2026-04-21T08:51:13.316Z</time></trkpt><trkpt lat="38.1806917" lon="15.6667167"><ele>75.5</ele><time>2026-04-21T08:51:14.316Z</time></trkpt><trkpt lat="38.18061" lon="15.666565"><ele>75.25</ele><time>2026-04-21T08:51:15.316Z</time></trkpt><trkpt lat="38.1805217" lon="15.6664"><ele>75.0</ele><time>2026-04-21T08:51:16.316Z</time></trkpt><trkpt lat="38.180445" lon="15.6662283"><ele>74.66666666666667</ele><time>2026-04-21T08:51:17.316Z</time></trkpt><trkpt lat="38.180355" lon="15.6660517"><ele>74.33333333333334</ele><time>2026-04-21T08:51:18.316Z</time></trkpt><trkpt lat="38.1802583" lon="15.6658783"><ele>74.0</ele><time>2026-04-21T08:51:19.316Z</time></trkpt><trkpt lat="38.1801633" lon="15.6657017"><ele>74.0</ele><time>2026-04-21T08:51:20.315Z</time></trkpt><trkpt lat="38.180075" lon="15.6655283"><ele>74.0</ele><time>2026-04-21T08:51:21.316Z</time></trkpt><trkpt lat="38.1799883" lon="15.66535"><ele>74.0</ele><time>2026-04-21T08:51:22.315Z</time></trkpt><trkpt lat="38.1799083" lon="15.6651833"><ele>72.0</ele><time>2026-04-21T08:51:23.316Z</time></trkpt><trkpt lat="38.17983" lon="15.6650033"><ele>70.0</ele><time>2026-04-21T08:51:24.315Z</time></trkpt><trkpt lat="38.1797433" lon="15.6648267"><ele>68.0</ele><time>2026-04-21T08:51:25.316Z</time></trkpt><trkpt lat="38.1796583" lon="15.6646483"><ele>68.0</ele><time>2026-04-21T08:51:26.316Z</time></trkpt><trkpt lat="38.1795717" lon="15.6644683"><ele>68.0</ele><time>2026-04-21T08:51:27.316Z</time></trkpt><trkpt lat="38.1794767" lon="15.6642967"><ele>68.0</ele><time>2026-04-21T08:51:28.316Z</time></trkpt><trkpt lat="38.1793867" lon="15.6641183"><ele>68.0</ele><time>2026-04-21T08:51:29.316Z</time></trkpt><trkpt lat="38.1792983" lon="15.6639383"><ele>68.0</ele><time>2026-04-21T08:51:30.316Z</time></trkpt><trkpt lat="38.1792017" lon="15.6637633"><ele>68.0</ele><time>2026-04-21T08:51:31.316Z</time></trkpt><trkpt lat="38.1791017" lon="15.6635817"><ele>68.0</ele><time>2026-04-21T08:51:32.316Z</time></trkpt><trkpt lat="38.1789983" lon="15.6633983"><ele>68.0</ele><time>2026-04-21T08:51:33.316Z</time></trkpt><trkpt lat="38.178905" lon="15.6632167"><ele>68.0</ele><time>2026-04-21T08:51:34.316Z</time></trkpt><trkpt lat="38.1788" lon="15.6630517"><ele>68.0</ele><time>2026-04-21T08:51:35.316Z</time></trkpt><trkpt lat="38.1786933" lon="15.6628783"><ele>68.0</ele><time>2026-04-21T08:51:36.316Z</time></trkpt><trkpt lat="38.17857" lon="15.6627067"><ele>68.0</ele><time>2026-04-21T08:51:37.315Z</time></trkpt><trkpt lat="38.1784583" lon="15.6625333"><ele>67.0</ele><time>2026-04-21T08:51:38.315Z</time></trkpt><trkpt lat="38.17835" lon="15.662365"><ele>66.0</ele><time>2026-04-21T08:51:39.314Z</time></trkpt><trkpt lat="38.1782317" lon="15.6622"><ele>65.0</ele><time>2026-04-21T08:51:40.315Z</time></trkpt><trkpt lat="38.17812" lon="15.6620383"><ele>62.66666666666667</ele><time>2026-04-21T08:51:41.315Z</time></trkpt><trkpt lat="38.17801" lon="15.6618733"><ele>60.33333333333333</ele><time>2026-04-21T08:51:42.315Z</time></trkpt><trkpt lat="38.177895" lon="15.661705"><ele>58.0</ele><time>2026-04-21T08:51:43.315Z</time></trkpt><trkpt lat="38.1777933" lon="15.661555"><ele>58.0</ele><time>2026-04-21T08:51:44.315Z</time></trkpt><trkpt lat="38.17769" lon="15.66139"><ele>58.0</ele><time>2026-04-21T08:51:45.315Z</time></trkpt><trkpt lat="38.1775783" lon="15.6612283"><ele>58.0</ele><time>2026-04-21T08:51:46.315Z</time></trkpt><trkpt lat="38.1774683" lon="15.661075"><ele>57.666666666666664</ele><time>2026-04-21T08:51:47.314Z</time></trkpt><trkpt lat="38.1773617" lon="15.66092"><ele>57.33333333333333</ele><time>2026-04-21T08:51:48.315Z</time></trkpt><trkpt lat="38.1772517" lon="15.66077"><ele>57.0</ele><time>2026-04-21T08:51:49.315Z</time></trkpt><trkpt lat="38.177145" lon="15.6606133"><ele>56.66666666666667</ele><time>2026-04-21T08:51:50.315Z</time></trkpt><trkpt lat="38.17703" lon="15.6604517"><ele>56.333333333333336</ele><time>2026-04-21T08:51:51.315Z</time></trkpt><trkpt lat="38.176925" lon="15.6602817"><ele>56.0</ele><time>2026-04-21T08:51:52.315Z</time></trkpt><trkpt lat="38.1768217" lon="15.6601017"><ele>55.333333333333336</ele><time>2026-04-21T08:51:53.315Z</time></trkpt><trkpt lat="38.1767083" lon="15.6599333"><ele>54.66666666666667</ele><time>2026-04-21T08:51:54.315Z</time></trkpt><trkpt lat="38.17659" lon="15.6597533"><ele>54.0</ele><time>2026-04-21T08:51:55.314Z</time></trkpt><trkpt lat="38.1764717" lon="15.659575"><ele>52.66666666666667</ele><time>2026-04-21T08:51:56.315Z</time></trkpt><trkpt lat="38.1763483" lon="15.6593867"><ele>51.333333333333336</ele><time>2026-04-21T08:51:57.315Z</time></trkpt><trkpt lat="38.17622" lon="15.6592033"><ele>50.0</ele><time>2026-04-21T08:51:58.315Z</time></trkpt><trkpt lat="38.1760967" lon="15.6590183"><ele>50.0</ele><time>2026-04-21T08:51:59.314Z</time></trkpt><trkpt lat="38.1759667" lon="15.6588467"><ele>50.0</ele><time>2026-04-21T08:52:00.315Z</time></trkpt><trkpt lat="38.175845" lon="15.6586633"><ele>50.0</ele><time>2026-04-21T08:52:01.315Z</time></trkpt><trkpt lat="38.17572" lon="15.658475"><ele>49.0</ele><time>2026-04-21T08:52:02.315Z</time></trkpt><trkpt lat="38.175585" lon="15.658305"><ele>48.0</ele><time>2026-04-21T08:52:03.314Z</time></trkpt><trkpt lat="38.17545" lon="15.65814"><ele>47.0</ele><time>2026-04-21T08:52:04.315Z</time></trkpt><trkpt lat="38.1753" lon="15.6579817"><ele>47.0</ele><time>2026-04-21T08:52:05.315Z</time></trkpt><trkpt lat="38.1751417" lon="15.6578283"><ele>47.0</ele><time>2026-04-21T08:52:06.315Z</time></trkpt><trkpt lat="38.1749783" lon="15.65769"><ele>47.0</ele><time>2026-04-21T08:52:07.315Z</time></trkpt><trkpt lat="38.174805" lon="15.6575633"><ele>45.666666666666664</ele><time>2026-04-21T08:52:08.315Z</time></trkpt><trkpt lat="38.17463" lon="15.6574567"><ele>44.333333333333336</ele><time>2026-04-21T08:52:09.315Z</time></trkpt><trkpt lat="38.1744583" lon="15.6573583"><ele>43.0</ele><time>2026-04-21T08:52:10.315Z</time></trkpt><trkpt lat="38.17428" lon="15.65728"><ele>43.0</ele><time>2026-04-21T08:52:11.314Z</time></trkpt><trkpt lat="38.1741017" lon="15.6572117"><ele>43.0</ele><time>2026-04-21T08:52:12.315Z</time></trkpt><trkpt lat="38.173925" lon="15.6571567"><ele>43.0</ele><time>2026-04-21T08:52:13.315Z</time></trkpt><trkpt lat="38.1737567" lon="15.6570867"><ele>42.66666666666667</ele><time>2026-04-21T08:52:14.315Z</time></trkpt><trkpt lat="38.1735917" lon="15.65703"><ele>42.333333333333336</ele><time>2026-04-21T08:52:15.314Z</time></trkpt><trkpt lat="38.173435" lon="15.656985"><ele>42.0</ele><time>2026-04-21T08:52:16.315Z</time></trkpt><trkpt lat="38.1732817" lon="15.6569267"><ele>40.75</ele><time>2026-04-21T08:52:17.315Z</time></trkpt><trkpt lat="38.1731417" lon="15.6568733"><ele>39.5</ele><time>2026-04-21T08:52:18.314Z</time></trkpt><trkpt lat="38.1730017" lon="15.6568283"><ele>38.25</ele><time>2026-04-21T08:52:19.314Z</time></trkpt><trkpt lat="38.1728717" lon="15.6567867"><ele>37.0</ele><time>2026-04-21T08:52:20.315Z</time></trkpt><trkpt lat="38.1727333" lon="15.6567383"><ele>37.0</ele><time>2026-04-21T08:52:21.315Z</time></trkpt><trkpt lat="38.17259" lon="15.65669"><ele>37.0</ele><time>2026-04-21T08:52:22.315Z</time></trkpt><trkpt lat="38.172445" lon="15.6566333"><ele>37.0</ele><time>2026-04-21T08:52:23.315Z</time></trkpt><trkpt lat="38.1723033" lon="15.6565633"><ele>36.333333333333336</ele><time>2026-04-21T08:52:24.315Z</time></trkpt><trkpt lat="38.1721567" lon="15.6564783"><ele>35.666666666666664</ele><time>2026-04-21T08:52:25.315Z</time></trkpt><trkpt lat="38.1720067" lon="15.6563683"><ele>35.0</ele><time>2026-04-21T08:52:26.315Z</time></trkpt><trkpt lat="38.1718517" lon="15.6562383"><ele>35.0</ele><time>2026-04-21T08:52:27.315Z</time></trkpt><trkpt lat="38.1717017" lon="15.65607"><ele>35.0</ele><time>2026-04-21T08:52:28.315Z</time></trkpt><trkpt lat="38.171565" lon="15.6558817"><ele>35.0</ele><time>2026-04-21T08:52:29.315Z</time></trkpt><trkpt lat="38.1714483" lon="15.6556633"><ele>35.0</ele><time>2026-04-21T08:52:30.315Z</time></trkpt><trkpt lat="38.1713467" lon="15.65543"><ele>35.0</ele><time>2026-04-21T08:52:31.315Z</time></trkpt><trkpt lat="38.1712633" lon="15.6551783"><ele>35.0</ele><time>2026-04-21T08:52:32.315Z</time></trkpt><trkpt lat="38.1711867" lon="15.654915"><ele>33.5</ele><time>2026-04-21T08:52:33.314Z</time></trkpt><trkpt lat="38.1711083" lon="15.6546283"><ele>32.0</ele><time>2026-04-21T08:52:34.315Z</time></trkpt><trkpt lat="38.1710233" lon="15.6543383"><ele>30.5</ele><time>2026-04-21T08:52:35.315Z</time></trkpt><trkpt lat="38.1709467" lon="15.654025"><ele>29.0</ele><time>2026-04-21T08:52:36.315Z</time></trkpt><trkpt lat="38.17087" lon="15.6537167"><ele>28.666666666666664</ele><time>2026-04-21T08:52:37.315Z</time></trkpt><trkpt lat="38.1708017" lon="15.6534367"><ele>28.333333333333336</ele><time>2026-04-21T08:52:38.315Z</time></trkpt><trkpt lat="38.1707583" lon="15.6531867"><ele>28.0</ele><time>2026-04-21T08:52:39.315Z</time></trkpt><trkpt lat="38.1707183" lon="15.6529583"><ele>27.333333333333336</ele><time>2026-04-21T08:52:40.315Z</time></trkpt><trkpt lat="38.170705" lon="15.6527517"><ele>26.666666666666664</ele><time>2026-04-21T08:52:41.315Z</time></trkpt><trkpt lat="38.1706983" lon="15.65256"><ele>26.0</ele><time>2026-04-21T08:52:42.314Z</time></trkpt><trkpt lat="38.1707083" lon="15.652385"><ele>26.0</ele><time>2026-04-21T08:52:43.315Z</time></trkpt><trkpt lat="38.1707383" lon="15.6522483"><ele>26.0</ele><time>2026-04-21T08:52:44.315Z</time></trkpt><trkpt lat="38.1707733" lon="15.6521333"><ele>26.0</ele><time>2026-04-21T08:52:45.315Z</time></trkpt><trkpt lat="38.1708167" lon="15.652045"><ele>26.0</ele><time>2026-04-21T08:52:46.315Z</time></trkpt><trkpt lat="38.1708617" lon="15.651985"><ele>26.0</ele><time>2026-04-21T08:52:47.315Z</time></trkpt><trkpt lat="38.1709533" lon="15.6518767"><ele>25.833333333333332</ele><time>2026-04-21T08:52:49.315Z</time></trkpt><trkpt lat="38.171" lon="15.651785"><ele>25.666666666666664</ele><time>2026-04-21T08:52:50.314Z</time></trkpt><trkpt lat="38.171035" lon="15.6516717"><ele>25.5</ele><time>2026-04-21T08:52:51.315Z</time></trkpt><trkpt lat="38.17105" lon="15.651565"><ele>25.333333333333336</ele><time>2026-04-21T08:52:52.315Z</time></trkpt><trkpt lat="38.1710417" lon="15.6514583"><ele>25.166666666666668</ele><time>2026-04-21T08:52:53.315Z</time></trkpt><trkpt lat="38.1710233" lon="15.651375"><ele>25.0</ele><time>2026-04-21T08:52:54.315Z</time></trkpt><trkpt lat="38.17099" lon="15.6512583"><ele>25.0</ele><time>2026-04-21T08:52:56.315Z</time></trkpt><trkpt lat="38.1709283" lon="15.6512383"><ele>25.0</ele><time>2026-04-21T08:57:41.315Z</time></trkpt><trkpt lat="38.17086" lon="15.6512017"><ele>25.0</ele><time>2026-04-21T08:57:43.315Z</time></trkpt><trkpt lat="38.1707467" lon="15.65117"><ele>25.0</ele><time>2026-04-21T08:57:45.315Z</time></trkpt><trkpt lat="38.1706267" lon="15.65121"><ele>25.0</ele><time>2026-04-21T08:57:47.315Z</time></trkpt><trkpt lat="38.1705233" lon="15.6512517"><ele>24.6</ele><time>2026-04-21T08:57:49.314Z</time></trkpt><trkpt lat="38.1704267" lon="15.6513"><ele>24.2</ele><time>2026-04-21T08:57:51.315Z</time></trkpt><trkpt lat="38.17031" lon="15.651375"><ele>23.799999999999997</ele><time>2026-04-21T08:57:53.315Z</time></trkpt><trkpt lat="38.170245" lon="15.6514067"><ele>23.4</ele><time>2026-04-21T08:57:54.315Z</time></trkpt><trkpt lat="38.17015" lon="15.6514717"><ele>23.0</ele><time>2026-04-21T08:57:56.315Z</time></trkpt><trkpt lat="38.1700733" lon="15.6515283"><ele>23.0</ele><time>2026-04-21T08:57:58.315Z</time></trkpt><trkpt lat="38.1700033" lon="15.6515717"><ele>23.0</ele><time>2026-04-21T08:58:01.315Z</time></trkpt><trkpt lat="38.1699217" lon="15.65162"><ele>23.0</ele><time>2026-04-21T08:58:05.315Z</time></trkpt><trkpt lat="38.1698583" lon="15.6516533"><ele>23.0</ele><time>2026-04-21T08:58:08.315Z</time></trkpt><trkpt lat="38.1697983" lon="15.65169"><ele>23.0</ele><time>2026-04-21T08:58:11.315Z</time></trkpt><trkpt lat="38.1697267" lon="15.6517083"><ele>23.0</ele><time>2026-04-21T08:58:14.315Z</time></trkpt><trkpt lat="38.169665" lon="15.6516667"><ele>23.0</ele><time>2026-04-21T08:58:17.315Z</time></trkpt><trkpt lat="38.1696283" lon="15.6515717"><ele>23.142857142857142</ele><time>2026-04-21T08:58:20.315Z</time></trkpt><trkpt lat="38.169605" lon="15.65149"><ele>23.285714285714285</ele><time>2026-04-21T08:58:22.315Z</time></trkpt><trkpt lat="38.1695733" lon="15.6514133"><ele>23.428571428571427</ele><time>2026-04-21T08:58:24.315Z</time></trkpt><trkpt lat="38.1695467" lon="15.6513233"><ele>23.57142857142857</ele><time>2026-04-21T08:58:26.315Z</time></trkpt><trkpt lat="38.1695183" lon="15.6512383"><ele>23.714285714285715</ele><time>2026-04-21T08:58:28.314Z</time></trkpt><trkpt lat="38.1694867" lon="15.6511533"><ele>23.857142857142854</ele><time>2026-04-21T08:58:30.315Z</time></trkpt><trkpt lat="38.16947" lon="15.6510533"><ele>24.0</ele><time>2026-04-21T08:58:32.314Z</time></trkpt><trkpt lat="38.16947" lon="15.6509667"><ele>23.5</ele><time>2026-04-21T08:58:34.315Z</time></trkpt><trkpt lat="38.1695183" lon="15.65091"><ele>23.0</ele><time>2026-04-21T08:58:36.315Z</time></trkpt><trkpt lat="38.1696" lon="15.6508767"><ele>22.5</ele><time>2026-04-21T08:58:38.315Z</time></trkpt><trkpt lat="38.169695" lon="15.6508383"><ele>22.0</ele><time>2026-04-21T08:58:40.315Z</time></trkpt><trkpt lat="38.1697767" lon="15.6508033"><ele>21.5</ele><time>2026-04-21T08:58:42.315Z</time></trkpt><trkpt lat="38.1698367" lon="15.6507717"><ele>21.0</ele><time>2026-04-21T08:58:44.315Z</time></trkpt><trkpt lat="38.1698967" lon="15.6507383"><ele>20.833333333333332</ele><time>2026-04-21T08:58:46.315Z</time></trkpt><trkpt lat="38.1699417" lon="15.65068"><ele>20.666666666666668</ele><time>2026-04-21T08:58:49.315Z</time></trkpt><trkpt lat="38.169995" lon="15.6505983"><ele>20.5</ele><time>2026-04-21T08:58:52.315Z</time></trkpt><trkpt lat="38.170055" lon="15.65057"><ele>20.333333333333336</ele><time>2026-04-21T08:58:55.315Z</time></trkpt><trkpt lat="38.170125" lon="15.6505133"><ele>20.166666666666668</ele><time>2026-04-21T09:07:00.313Z</time></trkpt><trkpt lat="38.1700583" lon="15.65058"><ele>20.0</ele><time>2026-04-21T09:07:03.313Z</time></trkpt><trkpt lat="38.1699867" lon="15.6506483"><ele>20.0</ele><time>2026-04-21T09:07:06.313Z</time></trkpt><trkpt lat="38.16993" lon="15.6506867"><ele>20.0</ele><time>2026-04-21T09:07:08.313Z</time></trkpt><trkpt lat="38.1698617" lon="15.650725"><ele>20.0</ele><time>2026-04-21T09:07:10.313Z</time></trkpt><trkpt lat="38.1697817" lon="15.6507683"><ele>20.0</ele><time>2026-04-21T09:07:12.313Z</time></trkpt><trkpt lat="38.169715" lon="15.6507783"><ele>20.0</ele><time>2026-04-21T09:07:14.312Z</time></trkpt><trkpt lat="38.169645" lon="15.6508017"><ele>20.0</ele><time>2026-04-21T09:07:16.313Z</time></trkpt><trkpt lat="38.1695633" lon="15.6508433"><ele>20.166666666666668</ele><time>2026-04-21T09:07:19.313Z</time></trkpt><trkpt lat="38.1695017" lon="15.6508633"><ele>20.333333333333336</ele><time>2026-04-21T09:07:22.313Z</time></trkpt><trkpt lat="38.1694567" lon="15.650935"><ele>20.5</ele><time>2026-04-21T09:07:43.313Z</time></trkpt><trkpt lat="38.16945" lon="15.65103"><ele>20.666666666666668</ele><time>2026-04-21T09:07:45.313Z</time></trkpt><trkpt lat="38.169485" lon="15.651135"><ele>20.833333333333332</ele><time>2026-04-21T09:07:47.313Z</time></trkpt><trkpt lat="38.169525" lon="15.6512633"><ele>21.0</ele><time>2026-04-21T09:07:49.313Z</time></trkpt><trkpt lat="38.169545" lon="15.65141"><ele>21.6</ele><time>2026-04-21T09:07:51.313Z</time></trkpt><trkpt lat="38.1695783" lon="15.6515167"><ele>22.200000000000003</ele><time>2026-04-21T09:07:53.313Z</time></trkpt><trkpt lat="38.16959" lon="15.6516067"><ele>22.799999999999997</ele><time>2026-04-21T09:07:56.313Z</time></trkpt><trkpt lat="38.1696133" lon="15.6516917"><ele>23.4</ele><time>2026-04-21T09:07:59.313Z</time></trkpt><trkpt lat="38.1695767" lon="15.6518033"><ele>24.0</ele><time>2026-04-21T09:08:02.313Z</time></trkpt><trkpt lat="38.1694367" lon="15.6518883"><ele>24.0</ele><time>2026-04-21T09:08:04.313Z</time></trkpt><trkpt lat="38.1693267" lon="15.6519533"><ele>24.0</ele><time>2026-04-21T09:08:05.312Z</time></trkpt><trkpt lat="38.1692117" lon="15.652025"><ele>24.0</ele><time>2026-04-21T09:08:06.313Z</time></trkpt><trkpt lat="38.1691117" lon="15.652095"><ele>24.0</ele><time>2026-04-21T09:08:07.313Z</time></trkpt><trkpt lat="38.1690167" lon="15.6521583"><ele>24.0</ele><time>2026-04-21T09:08:08.313Z</time></trkpt><trkpt lat="38.1689283" lon="15.6522317"><ele>24.0</ele><time>2026-04-21T09:08:09.313Z</time></trkpt><trkpt lat="38.1688467" lon="15.6523033"><ele>24.0</ele><time>2026-04-21T09:08:10.313Z</time></trkpt><trkpt lat="38.1687733" lon="15.6523617"><ele>24.0</ele><time>2026-04-21T09:08:11.313Z</time></trkpt><trkpt lat="38.1686883" lon="15.6524417"><ele>24.0</ele><time>2026-04-21T09:08:13.313Z</time></trkpt><trkpt lat="38.16863" lon="15.652495"><ele>24.0</ele><time>2026-04-21T09:08:18.313Z</time></trkpt><trkpt lat="38.1685667" lon="15.65256"><ele>24.0</ele><time>2026-04-21T09:08:30.313Z</time></trkpt><trkpt lat="38.1685083" lon="15.6526417"><ele>24.0</ele><time>2026-04-21T09:08:33.313Z</time></trkpt><trkpt lat="38.1684933" lon="15.6527567"><ele>24.0</ele><time>2026-04-21T09:08:35.312Z</time></trkpt><trkpt lat="38.1685033" lon="15.6528483"><ele>24.0</ele><time>2026-04-21T09:08:36.312Z</time></trkpt><trkpt lat="38.168535" lon="15.6529683"><ele>24.0</ele><time>2026-04-21T09:08:37.311Z</time></trkpt><trkpt lat="38.1685817" lon="15.653095"><ele>24.4</ele><time>2026-04-21T09:08:38.312Z</time></trkpt><trkpt lat="38.16862" lon="15.65323"><ele>24.799999999999997</ele><time>2026-04-21T09:08:39.311Z</time></trkpt><trkpt lat="38.16865" lon="15.653355"><ele>25.200000000000003</ele><time>2026-04-21T09:08:40.312Z</time></trkpt><trkpt lat="38.16869" lon="15.6534683"><ele>25.6</ele><time>2026-04-21T09:08:41.312Z</time></trkpt><trkpt lat="38.1687483" lon="15.6535867"><ele>26.0</ele><time>2026-04-21T09:08:42.312Z</time></trkpt><trkpt lat="38.1687833" lon="15.6537267"><ele>26.0</ele><time>2026-04-21T09:08:43.312Z</time></trkpt><trkpt lat="38.1688333" lon="15.6538683"><ele>26.0</ele><time>2026-04-21T09:08:44.312Z</time></trkpt><trkpt lat="38.1688883" lon="15.654005"><ele>26.0</ele><time>2026-04-21T09:08:45.312Z</time></trkpt><trkpt lat="38.1689467" lon="15.65412"><ele>26.0</ele><time>2026-04-21T09:08:46.312Z</time></trkpt><trkpt lat="38.16901" lon="15.654215"><ele>26.0</ele><time>2026-04-21T09:08:47.312Z</time></trkpt><trkpt lat="38.169055" lon="15.6543117"><ele>26.6</ele><time>2026-04-21T09:08:48.312Z</time></trkpt><trkpt lat="38.1691083" lon="15.6543983"><ele>27.200000000000003</ele><time>2026-04-21T09:08:49.312Z</time></trkpt><trkpt lat="38.1691583" lon="15.6544917"><ele>27.799999999999997</ele><time>2026-04-21T09:08:50.312Z</time></trkpt><trkpt lat="38.169205" lon="15.6545967"><ele>28.4</ele><time>2026-04-21T09:08:51.312Z</time></trkpt><trkpt lat="38.1692567" lon="15.6547017"><ele>29.0</ele><time>2026-04-21T09:08:52.312Z</time></trkpt><trkpt lat="38.1693067" lon="15.6547983"><ele>29.2</ele><time>2026-04-21T09:08:53.312Z</time></trkpt><trkpt lat="38.169345" lon="15.654895"><ele>29.4</ele><time>2026-04-21T09:08:54.312Z</time></trkpt><trkpt lat="38.1693767" lon="15.6549933"><ele>29.6</ele><time>2026-04-21T09:08:55.312Z</time></trkpt><trkpt lat="38.1694" lon="15.6551"><ele>29.8</ele><time>2026-04-21T09:08:56.312Z</time></trkpt><trkpt lat="38.1694283" lon="15.6552133"><ele>30.0</ele><time>2026-04-21T09:08:57.312Z</time></trkpt><trkpt lat="38.16946" lon="15.65534"><ele>30.2</ele><time>2026-04-21T09:08:58.312Z</time></trkpt><trkpt lat="38.1694967" lon="15.6554633"><ele>30.4</ele><time>2026-04-21T09:08:59.312Z</time></trkpt><trkpt lat="38.1695367" lon="15.6555833"><ele>30.6</ele><time>2026-04-21T09:09:00.312Z</time></trkpt><trkpt lat="38.16957" lon="15.6556917"><ele>30.8</ele><time>2026-04-21T09:09:01.312Z</time></trkpt><trkpt lat="38.1696033" lon="15.655795"><ele>31.0</ele><time>2026-04-21T09:09:02.312Z</time></trkpt><trkpt lat="38.1696317" lon="15.6559017"><ele>31.0</ele><time>2026-04-21T09:09:03.312Z</time></trkpt><trkpt lat="38.16968" lon="15.6560167"><ele>31.0</ele><time>2026-04-21T09:09:04.312Z</time></trkpt><trkpt lat="38.1697067" lon="15.6561383"><ele>31.0</ele><time>2026-04-21T09:09:05.312Z</time></trkpt><trkpt lat="38.1697467" lon="15.6562667"><ele>31.0</ele><time>2026-04-21T09:09:06.312Z</time></trkpt><trkpt lat="38.1698033" lon="15.6563833"><ele>31.0</ele><time>2026-04-21T09:09:07.312Z</time></trkpt><trkpt lat="38.16986" lon="15.6565033"><ele>32.0</ele><time>2026-04-21T09:09:08.312Z</time></trkpt><trkpt lat="38.1699217" lon="15.6566167"><ele>33.0</ele><time>2026-04-21T09:09:09.312Z</time></trkpt><trkpt lat="38.1699733" lon="15.65672"><ele>34.0</ele><time>2026-04-21T09:09:10.312Z</time></trkpt><trkpt lat="38.1700117" lon="15.6568133"><ele>35.0</ele><time>2026-04-21T09:09:11.312Z</time></trkpt><trkpt lat="38.1700417" lon="15.6569017"><ele>36.0</ele><time>2026-04-21T09:09:12.312Z</time></trkpt><trkpt lat="38.170075" lon="15.6569933"><ele>37.0</ele><time>2026-04-21T09:09:13.312Z</time></trkpt><trkpt lat="38.1701067" lon="15.65709"><ele>37.4</ele><time>2026-04-21T09:09:14.312Z</time></trkpt><trkpt lat="38.17012" lon="15.6571933"><ele>37.800000000000004</ele><time>2026-04-21T09:09:15.312Z</time></trkpt><trkpt lat="38.170125" lon="15.6573133"><ele>38.2</ele><time>2026-04-21T09:09:16.312Z</time></trkpt><trkpt lat="38.1701217" lon="15.6574283"><ele>38.6</ele><time>2026-04-21T09:09:17.311Z</time></trkpt><trkpt lat="38.1701033" lon="15.6575483"><ele>39.0</ele><time>2026-04-21T09:09:18.312Z</time></trkpt><trkpt lat="38.1700817" lon="15.657665"><ele>39.0</ele><time>2026-04-21T09:09:19.312Z</time></trkpt><trkpt lat="38.1700733" lon="15.657775"><ele>39.0</ele><time>2026-04-21T09:09:20.312Z</time></trkpt><trkpt lat="38.17007" lon="15.6578817"><ele>39.0</ele><time>2026-04-21T09:09:21.312Z</time></trkpt><trkpt lat="38.170065" lon="15.65799"><ele>39.0</ele><time>2026-04-21T09:09:22.312Z</time></trkpt><trkpt lat="38.17008" lon="15.6580967"><ele>39.0</ele><time>2026-04-21T09:09:23.312Z</time></trkpt><trkpt lat="38.1701217" lon="15.6581933"><ele>39.0</ele><time>2026-04-21T09:09:24.312Z</time></trkpt><trkpt lat="38.17017" lon="15.6582967"><ele>39.166666666666664</ele><time>2026-04-21T09:09:25.312Z</time></trkpt><trkpt lat="38.170225" lon="15.6583917"><ele>39.333333333333336</ele><time>2026-04-21T09:09:26.312Z</time></trkpt><trkpt lat="38.1702767" lon="15.6584767"><ele>39.5</ele><time>2026-04-21T09:09:27.312Z</time></trkpt><trkpt lat="38.1703217" lon="15.6585533"><ele>39.66666666666667</ele><time>2026-04-21T09:09:28.312Z</time></trkpt><trkpt lat="38.17036" lon="15.6586333"><ele>39.833333333333336</ele><time>2026-04-21T09:09:29.312Z</time></trkpt><trkpt lat="38.1703967" lon="15.6587183"><ele>40.0</ele><time>2026-04-21T09:09:30.312Z</time></trkpt><trkpt lat="38.1704317" lon="15.658795"><ele>40.66666666666667</ele><time>2026-04-21T09:09:31.312Z</time></trkpt><trkpt lat="38.17046" lon="15.6588683"><ele>41.333333333333336</ele><time>2026-04-21T09:09:32.311Z</time></trkpt><trkpt lat="38.1704917" lon="15.6589383"><ele>42.0</ele><time>2026-04-21T09:09:33.312Z</time></trkpt><trkpt lat="38.1705567" lon="15.6590717"><ele>42.666666666666664</ele><time>2026-04-21T09:09:35.312Z</time></trkpt><trkpt lat="38.1705917" lon="15.6591483"><ele>43.33333333333333</ele><time>2026-04-21T09:09:36.312Z</time></trkpt><trkpt lat="38.1706267" lon="15.6592333"><ele>44.0</ele><time>2026-04-21T09:09:37.312Z</time></trkpt><trkpt lat="38.17067" lon="15.659325"><ele>44.2</ele><time>2026-04-21T09:09:38.312Z</time></trkpt><trkpt lat="38.1707067" lon="15.65942"><ele>44.400000000000006</ele><time>2026-04-21T09:09:39.312Z</time></trkpt><trkpt lat="38.1707483" lon="15.6595283"><ele>44.6</ele><time>2026-04-21T09:09:40.312Z</time></trkpt><trkpt lat="38.1707817" lon="15.65965"><ele>44.8</ele><time>2026-04-21T09:09:41.312Z</time></trkpt><trkpt lat="38.1708167" lon="15.6597683"><ele>45.0</ele><time>2026-04-21T09:09:42.312Z</time></trkpt><trkpt lat="38.170855" lon="15.6598867"><ele>46.4</ele><time>2026-04-21T09:09:43.312Z</time></trkpt><trkpt lat="38.1708833" lon="15.660005"><ele>47.8</ele><time>2026-04-21T09:09:44.312Z</time></trkpt><trkpt lat="38.1709183" lon="15.6601167"><ele>49.2</ele><time>2026-04-21T09:09:45.312Z</time></trkpt><trkpt lat="38.1709583" lon="15.6602267"><ele>50.6</ele><time>2026-04-21T09:09:46.312Z</time></trkpt><trkpt lat="38.171" lon="15.6603533"><ele>52.0</ele><time>2026-04-21T09:09:47.312Z</time></trkpt><trkpt lat="38.1710517" lon="15.6604667"><ele>53.0</ele><time>2026-04-21T09:09:48.312Z</time></trkpt><trkpt lat="38.1710933" lon="15.6605783"><ele>54.0</ele><time>2026-04-21T09:09:49.312Z</time></trkpt><trkpt lat="38.1711317" lon="15.6606917"><ele>55.0</ele><time>2026-04-21T09:09:50.312Z</time></trkpt><trkpt lat="38.1711583" lon="15.66081"><ele>56.0</ele><time>2026-04-21T09:09:51.312Z</time></trkpt><trkpt lat="38.1712017" lon="15.660925"><ele>57.0</ele><time>2026-04-21T09:09:52.312Z</time></trkpt><trkpt lat="38.1712367" lon="15.6610383"><ele>56.8</ele><time>2026-04-21T09:09:53.311Z</time></trkpt><trkpt lat="38.1712717" lon="15.6611533"><ele>56.6</ele><time>2026-04-21T09:09:54.311Z</time></trkpt><trkpt lat="38.171305" lon="15.6612683"><ele>56.39999999999999</ele><time>2026-04-21T09:09:55.312Z</time></trkpt><trkpt lat="38.1713183" lon="15.661375"><ele>56.199999999999996</ele><time>2026-04-21T09:09:56.311Z</time></trkpt><trkpt lat="38.17134" lon="15.6615117"><ele>56.0</ele><time>2026-04-21T09:09:58.312Z</time></trkpt><trkpt lat="38.1713617" lon="15.6616233"><ele>56.00000000000001</ele><time>2026-04-21T09:10:12.312Z</time></trkpt><trkpt lat="38.1713733" lon="15.6617417"><ele>56.0</ele><time>2026-04-21T09:10:14.312Z</time></trkpt><trkpt lat="38.1713783" lon="15.6618867"><ele>56.0</ele><time>2026-04-21T09:10:16.312Z</time></trkpt><trkpt lat="38.17138" lon="15.6619683"><ele>56.0</ele><time>2026-04-21T09:10:17.312Z</time></trkpt><trkpt lat="38.17138" lon="15.662055"><ele>56.00000000000001</ele><time>2026-04-21T09:10:18.312Z</time></trkpt><trkpt lat="38.17138" lon="15.6621467"><ele>56.0</ele><time>2026-04-21T09:10:19.312Z</time></trkpt><trkpt lat="38.1713867" lon="15.662245"><ele>56.50000000000001</ele><time>2026-04-21T09:10:20.312Z</time></trkpt><trkpt lat="38.1713867" lon="15.66235"><ele>57.0</ele><time>2026-04-21T09:10:21.311Z</time></trkpt><trkpt lat="38.1713967" lon="15.6624583"><ele>57.5</ele><time>2026-04-21T09:10:22.312Z</time></trkpt><trkpt lat="38.17141" lon="15.6625583"><ele>58.0</ele><time>2026-04-21T09:10:23.312Z</time></trkpt><trkpt lat="38.1714067" lon="15.6626617"><ele>58.50000000000001</ele><time>2026-04-21T09:10:24.312Z</time></trkpt><trkpt lat="38.1714267" lon="15.6627383"><ele>59.0</ele><time>2026-04-21T09:10:25.312Z</time></trkpt><trkpt lat="38.1714617" lon="15.6628483"><ele>59.50000000000001</ele><time>2026-04-21T09:10:27.312Z</time></trkpt><trkpt lat="38.17147" lon="15.663005"><ele>60.0</ele><time>2026-04-21T09:10:29.312Z</time></trkpt><trkpt lat="38.1714883" lon="15.663085"><ele>60.5</ele><time>2026-04-21T09:10:30.312Z</time></trkpt><trkpt lat="38.171515" lon="15.6631583"><ele>61.0</ele><time>2026-04-21T09:10:31.312Z</time></trkpt><trkpt lat="38.1715833" lon="15.6632867"><ele>61.50000000000001</ele><time>2026-04-21T09:10:33.312Z</time></trkpt><trkpt lat="38.1716233" lon="15.6633517"><ele>62.0</ele><time>2026-04-21T09:10:34.312Z</time></trkpt><trkpt lat="38.17167" lon="15.6634217"><ele>62.6</ele><time>2026-04-21T09:10:35.311Z</time></trkpt><trkpt lat="38.1717233" lon="15.6635083"><ele>63.2</ele><time>2026-04-21T09:10:36.312Z</time></trkpt><trkpt lat="38.1717767" lon="15.6636083"><ele>63.8</ele><time>2026-04-21T09:10:37.312Z</time></trkpt><trkpt lat="38.1718317" lon="15.6637133"><ele>64.4</ele><time>2026-04-21T09:10:38.312Z</time></trkpt><trkpt lat="38.171895" lon="15.6638067"><ele>65.0</ele><time>2026-04-21T09:10:39.312Z</time></trkpt><trkpt lat="38.17196" lon="15.663905"><ele>65.5</ele><time>2026-04-21T09:10:40.312Z</time></trkpt><trkpt lat="38.17203" lon="15.6639983"><ele>66.0</ele><time>2026-04-21T09:10:41.311Z</time></trkpt><trkpt lat="38.1720917" lon="15.6640767"><ele>66.5</ele><time>2026-04-21T09:10:42.312Z</time></trkpt><trkpt lat="38.17215" lon="15.6641483"><ele>67.0</ele><time>2026-04-21T09:10:43.312Z</time></trkpt><trkpt lat="38.1722133" lon="15.6642217"><ele>67.5</ele><time>2026-04-21T09:10:44.312Z</time></trkpt><trkpt lat="38.1722817" lon="15.6642933"><ele>68.0</ele><time>2026-04-21T09:10:45.312Z</time></trkpt><trkpt lat="38.172375" lon="15.66436"><ele>68.0</ele><time>2026-04-21T09:10:46.312Z</time></trkpt><trkpt lat="38.172475" lon="15.664445"><ele>68.0</ele><time>2026-04-21T09:10:47.312Z</time></trkpt><trkpt lat="38.1725783" lon="15.6645467"><ele>68.0</ele><time>2026-04-21T09:10:48.312Z</time></trkpt><trkpt lat="38.17269" lon="15.6646433"><ele>68.0</ele><time>2026-04-21T09:10:49.312Z</time></trkpt><trkpt lat="38.1727933" lon="15.6647367"><ele>68.5</ele><time>2026-04-21T09:10:50.312Z</time></trkpt><trkpt lat="38.1728933" lon="15.6648333"><ele>69.0</ele><time>2026-04-21T09:10:51.312Z</time></trkpt><trkpt lat="38.1729917" lon="15.664915"><ele>69.5</ele><time>2026-04-21T09:10:52.311Z</time></trkpt><trkpt lat="38.173095" lon="15.664995"><ele>70.0</ele><time>2026-04-21T09:10:53.312Z</time></trkpt><trkpt lat="38.173195" lon="15.665085"><ele>70.0</ele><time>2026-04-21T09:10:54.311Z</time></trkpt><trkpt lat="38.1732917" lon="15.6651783"><ele>70.0</ele><time>2026-04-21T09:10:55.312Z</time></trkpt><trkpt lat="38.17339" lon="15.665285"><ele>70.0</ele><time>2026-04-21T09:10:56.311Z</time></trkpt><trkpt lat="38.1734867" lon="15.6653733"><ele>70.0</ele><time>2026-04-21T09:10:57.312Z</time></trkpt><trkpt lat="38.173595" lon="15.66546"><ele>71.0</ele><time>2026-04-21T09:10:58.312Z</time></trkpt><trkpt lat="38.1736917" lon="15.6655433"><ele>72.0</ele><time>2026-04-21T09:10:59.312Z</time></trkpt><trkpt lat="38.1737917" lon="15.665635"><ele>73.0</ele><time>2026-04-21T09:11:00.312Z</time></trkpt><trkpt lat="38.173885" lon="15.6657183"><ele>74.0</ele><time>2026-04-21T09:11:01.312Z</time></trkpt><trkpt lat="38.173965" lon="15.6657867"><ele>74.33333333333334</ele><time>2026-04-21T09:11:02.312Z</time></trkpt><trkpt lat="38.1740367" lon="15.6658417"><ele>74.66666666666667</ele><time>2026-04-21T09:11:03.312Z</time></trkpt><trkpt lat="38.1740933" lon="15.6658917"><ele>75.0</ele><time>2026-04-21T09:11:04.312Z</time></trkpt><trkpt lat="38.1741767" lon="15.665985"><ele>75.33333333333333</ele><time>2026-04-21T09:11:06.312Z</time></trkpt><trkpt lat="38.1742383" lon="15.6660317"><ele>75.66666666666666</ele><time>2026-04-21T09:11:07.312Z</time></trkpt><trkpt lat="38.174315" lon="15.6660983"><ele>76.0</ele><time>2026-04-21T09:11:08.312Z</time></trkpt><trkpt lat="38.1744017" lon="15.666185"><ele>76.75</ele><time>2026-04-21T09:11:09.311Z</time></trkpt><trkpt lat="38.17451" lon="15.6662617"><ele>77.5</ele><time>2026-04-21T09:11:10.312Z</time></trkpt><trkpt lat="38.1746167" lon="15.6663433"><ele>78.25</ele><time>2026-04-21T09:11:11.312Z</time></trkpt><trkpt lat="38.1747167" lon="15.6664433"><ele>79.0</ele><time>2026-04-21T09:11:12.312Z</time></trkpt><trkpt lat="38.1748083" lon="15.6665267"><ele>79.2</ele><time>2026-04-21T09:11:13.312Z</time></trkpt><trkpt lat="38.174895" lon="15.6665983"><ele>79.4</ele><time>2026-04-21T09:11:14.311Z</time></trkpt><trkpt lat="38.17497" lon="15.6666617"><ele>79.6</ele><time>2026-04-21T09:11:15.312Z</time></trkpt><trkpt lat="38.1750267" lon="15.6667083"><ele>79.8</ele><time>2026-04-21T09:11:16.312Z</time></trkpt><trkpt lat="38.1750767" lon="15.6667717"><ele>80.0</ele><time>2026-04-21T09:11:18.312Z</time></trkpt><trkpt lat="38.1750617" lon="15.6669233"><ele>80.33333333333334</ele><time>2026-04-21T09:11:20.312Z</time></trkpt><trkpt lat="38.175005" lon="15.66705"><ele>80.66666666666667</ele><time>2026-04-21T09:11:21.312Z</time></trkpt><trkpt lat="38.1749033" lon="15.6672333"><ele>81.0</ele><time>2026-04-21T09:11:22.312Z</time></trkpt><trkpt lat="38.17478" lon="15.667425"><ele>81.33333333333333</ele><time>2026-04-21T09:11:23.311Z</time></trkpt><trkpt lat="38.1746817" lon="15.6676083"><ele>81.66666666666666</ele><time>2026-04-21T09:11:24.312Z</time></trkpt><trkpt lat="38.1746617" lon="15.6677817"><ele>82.0</ele><time>2026-04-21T09:11:25.312Z</time></trkpt><trkpt lat="38.1746767" lon="15.6679583"><ele>83.75</ele><time>2026-04-21T09:11:26.312Z</time></trkpt><trkpt lat="38.174705" lon="15.66813"><ele>85.5</ele><time>2026-04-21T09:11:27.312Z</time></trkpt><trkpt lat="38.1747183" lon="15.6683"><ele>87.25</ele><time>2026-04-21T09:11:28.312Z</time></trkpt><trkpt lat="38.17471" lon="15.66847"><ele>89.0</ele><time>2026-04-21T09:11:29.312Z</time></trkpt><trkpt lat="38.17469" lon="15.6686383"><ele>90.25</ele><time>2026-04-21T09:11:30.312Z</time></trkpt><trkpt lat="38.1746717" lon="15.668805"><ele>91.5</ele><time>2026-04-21T09:11:31.312Z</time></trkpt><trkpt lat="38.1746517" lon="15.6689767"><ele>92.75</ele><time>2026-04-21T09:11:32.312Z</time></trkpt><trkpt lat="38.17462" lon="15.66914"><ele>94.0</ele><time>2026-04-21T09:11:33.312Z</time></trkpt><trkpt lat="38.1745883" lon="15.6693067"><ele>95.0</ele><time>2026-04-21T09:11:34.312Z</time></trkpt><trkpt lat="38.174545" lon="15.66948"><ele>96.0</ele><time>2026-04-21T09:11:35.312Z</time></trkpt><trkpt lat="38.1745017" lon="15.6696367"><ele>97.0</ele><time>2026-04-21T09:11:36.312Z</time></trkpt><trkpt lat="38.17447" lon="15.669785"><ele>98.0</ele><time>2026-04-21T09:11:37.312Z</time></trkpt><trkpt lat="38.17445" lon="15.669915"><ele>97.99999999999999</ele><time>2026-04-21T09:11:38.312Z</time></trkpt><trkpt lat="38.1744383" lon="15.67003"><ele>98.0</ele><time>2026-04-21T09:11:39.312Z</time></trkpt><trkpt lat="38.1744283" lon="15.6701467"><ele>98.0</ele><time>2026-04-21T09:11:40.312Z</time></trkpt><trkpt lat="38.1744117" lon="15.6702483"><ele>98.0</ele><time>2026-04-21T09:11:41.312Z</time></trkpt><trkpt lat="38.1743783" lon="15.67032"><ele>97.99999999999999</ele><time>2026-04-21T09:11:42.312Z</time></trkpt><trkpt lat="38.174275" lon="15.6703483"><ele>98.0</ele><time>2026-04-21T09:11:44.312Z</time></trkpt><trkpt lat="38.1742017" lon="15.6703217"><ele>97.99999999999999</ele><time>2026-04-21T09:11:45.312Z</time></trkpt><trkpt lat="38.1741167" lon="15.6702933"><ele>98.0</ele><time>2026-04-21T09:11:46.312Z</time></trkpt><trkpt lat="38.1740467" lon="15.6702717"><ele>98.0</ele><time>2026-04-21T09:11:47.311Z</time></trkpt><trkpt lat="38.1739617" lon="15.6702583"><ele>98.0</ele><time>2026-04-21T09:11:49.312Z</time></trkpt><trkpt lat="38.1738917" lon="15.6703167"><ele>97.99999999999999</ele><time>2026-04-21T09:11:54.312Z</time></trkpt><trkpt lat="38.1738533" lon="15.670455"><ele>98.0</ele><time>2026-04-21T09:11:56.312Z</time></trkpt><trkpt lat="38.17383" lon="15.6705517"><ele>98.49999999999999</ele><time>2026-04-21T09:11:57.312Z</time></trkpt><trkpt lat="38.1738017" lon="15.67066"><ele>99.0</ele><time>2026-04-21T09:11:58.311Z</time></trkpt><trkpt lat="38.1737717" lon="15.6707683"><ele>99.5</ele><time>2026-04-21T09:11:59.312Z</time></trkpt><trkpt lat="38.1737533" lon="15.6708467"><ele>100.0</ele><time>2026-04-21T09:12:00.312Z</time></trkpt><trkpt lat="38.1737383" lon="15.6709317"><ele>100.49999999999999</ele><time>2026-04-21T09:12:02.312Z</time></trkpt><trkpt lat="38.1737933" lon="15.670825"><ele>101.0</ele><time>2026-04-21T09:18:35.311Z</time></trkpt><trkpt lat="38.1738317" lon="15.6706817"><ele>101.0</ele><time>2026-04-21T09:18:37.311Z</time></trkpt><trkpt lat="38.1738567" lon="15.6705717"><ele>101.0</ele><time>2026-04-21T09:18:38.311Z</time></trkpt><trkpt lat="38.1738817" lon="15.670455"><ele>101.0</ele><time>2026-04-21T09:18:39.311Z</time></trkpt><trkpt lat="38.1739033" lon="15.6703567"><ele>101.0</ele><time>2026-04-21T09:18:40.311Z</time></trkpt><trkpt lat="38.1739867" lon="15.6702483"><ele>101.0</ele><time>2026-04-21T09:18:42.311Z</time></trkpt><trkpt lat="38.1741317" lon="15.6702317"><ele>101.33333333333333</ele><time>2026-04-21T09:18:44.311Z</time></trkpt><trkpt lat="38.1742367" lon="15.6702767"><ele>101.66666666666666</ele><time>2026-04-21T09:18:45.31Z</time></trkpt><trkpt lat="38.1743167" lon="15.6703083"><ele>102.0</ele><time>2026-04-21T09:18:46.311Z</time></trkpt><trkpt lat="38.174385" lon="15.6703117"><ele>102.33333333333334</ele><time>2026-04-21T09:18:47.311Z</time></trkpt><trkpt lat="38.17444" lon="15.6702667"><ele>102.66666666666667</ele><time>2026-04-21T09:18:48.311Z</time></trkpt><trkpt lat="38.17447" lon="15.67019"><ele>103.0</ele><time>2026-04-21T09:18:49.311Z</time></trkpt><trkpt lat="38.1744983" lon="15.6700817"><ele>101.75</ele><time>2026-04-21T09:18:50.31Z</time></trkpt><trkpt lat="38.1745067" lon="15.6699333"><ele>100.5</ele><time>2026-04-21T09:18:51.311Z</time></trkpt><trkpt lat="38.1745183" lon="15.6697867"><ele>99.25</ele><time>2026-04-21T09:18:52.311Z</time></trkpt><trkpt lat="38.1745317" lon="15.6696367"><ele>98.0</ele><time>2026-04-21T09:18:53.311Z</time></trkpt><trkpt lat="38.1745633" lon="15.669495"><ele>97.0</ele><time>2026-04-21T09:18:54.311Z</time></trkpt><trkpt lat="38.174605" lon="15.6693533"><ele>96.0</ele><time>2026-04-21T09:18:55.311Z</time></trkpt><trkpt lat="38.1746333" lon="15.6692117"><ele>95.0</ele><time>2026-04-21T09:18:56.311Z</time></trkpt><trkpt lat="38.1746533" lon="15.6690717"><ele>94.0</ele><time>2026-04-21T09:18:57.311Z</time></trkpt><trkpt lat="38.1746767" lon="15.6689383"><ele>94.0</ele><time>2026-04-21T09:18:58.311Z</time></trkpt><trkpt lat="38.17469" lon="15.668805"><ele>94.0</ele><time>2026-04-21T09:18:59.311Z</time></trkpt><trkpt lat="38.1747067" lon="15.668685"><ele>94.0</ele><time>2026-04-21T09:19:00.311Z</time></trkpt><trkpt lat="38.1747117" lon="15.66855"><ele>94.0</ele><time>2026-04-21T09:19:01.311Z</time></trkpt><trkpt lat="38.1747217" lon="15.6684217"><ele>94.0</ele><time>2026-04-21T09:19:02.311Z</time></trkpt><trkpt lat="38.1747267" lon="15.6682867"><ele>93.0</ele><time>2026-04-21T09:19:03.311Z</time></trkpt><trkpt lat="38.17473" lon="15.6681433"><ele>92.0</ele><time>2026-04-21T09:19:04.311Z</time></trkpt><trkpt lat="38.174725" lon="15.6680117"><ele>91.0</ele><time>2026-04-21T09:19:05.311Z</time></trkpt><trkpt lat="38.1747133" lon="15.6678783"><ele>90.0</ele><time>2026-04-21T09:19:06.31Z</time></trkpt><trkpt lat="38.1746967" lon="15.6677583"><ele>89.0</ele><time>2026-04-21T09:19:07.311Z</time></trkpt><trkpt lat="38.1746833" lon="15.66765"><ele>87.6</ele><time>2026-04-21T09:19:08.311Z</time></trkpt><trkpt lat="38.1746983" lon="15.667545"><ele>86.2</ele><time>2026-04-21T09:19:09.311Z</time></trkpt><trkpt lat="38.17474" lon="15.6674433"><ele>84.8</ele><time>2026-04-21T09:19:10.311Z</time></trkpt><trkpt lat="38.1748017" lon="15.6673417"><ele>83.39999999999999</ele><time>2026-04-21T09:19:11.311Z</time></trkpt><trkpt lat="38.1748733" lon="15.6672367"><ele>82.0</ele><time>2026-04-21T09:19:12.311Z</time></trkpt><trkpt lat="38.1749367" lon="15.6671333"><ele>81.83333333333333</ele><time>2026-04-21T09:19:13.311Z</time></trkpt><trkpt lat="38.1749783" lon="15.6670167"><ele>81.66666666666666</ele><time>2026-04-21T09:19:14.311Z</time></trkpt><trkpt lat="38.1750183" lon="15.6669117"><ele>81.5</ele><time>2026-04-21T09:19:15.311Z</time></trkpt><trkpt lat="38.17506" lon="15.6668467"><ele>81.33333333333333</ele><time>2026-04-21T09:19:16.311Z</time></trkpt><trkpt lat="38.1751083" lon="15.6667883"><ele>81.16666666666667</ele><time>2026-04-21T09:19:18.311Z</time></trkpt><trkpt lat="38.1751967" lon="15.6667833"><ele>81.0</ele><time>2026-04-21T09:19:20.311Z</time></trkpt><trkpt lat="38.17526" lon="15.6668167"><ele>81.0</ele><time>2026-04-21T09:19:21.311Z</time></trkpt><trkpt lat="38.1753417" lon="15.6668767"><ele>81.0</ele><time>2026-04-21T09:19:22.311Z</time></trkpt><trkpt lat="38.1754283" lon="15.66695"><ele>81.0</ele><time>2026-04-21T09:19:23.31Z</time></trkpt><trkpt lat="38.175525" lon="15.66703"><ele>81.0</ele><time>2026-04-21T09:19:24.311Z</time></trkpt><trkpt lat="38.17564" lon="15.6670967"><ele>81.0</ele><time>2026-04-21T09:19:25.311Z</time></trkpt><trkpt lat="38.17575" lon="15.6671517"><ele>81.33333333333333</ele><time>2026-04-21T09:19:26.311Z</time></trkpt><trkpt lat="38.1758383" lon="15.6671983"><ele>81.66666666666667</ele><time>2026-04-21T09:19:27.311Z</time></trkpt><trkpt lat="38.1759183" lon="15.6672517"><ele>82.0</ele><time>2026-04-21T09:19:28.31Z</time></trkpt><trkpt lat="38.1759917" lon="15.6673033"><ele>82.33333333333334</ele><time>2026-04-21T09:19:29.311Z</time></trkpt><trkpt lat="38.1760583" lon="15.667355"><ele>82.66666666666667</ele><time>2026-04-21T09:19:30.311Z</time></trkpt><trkpt lat="38.1761283" lon="15.6673983"><ele>83.0</ele><time>2026-04-21T09:19:31.311Z</time></trkpt><trkpt lat="38.1761867" lon="15.6674283"><ele>83.0</ele><time>2026-04-21T09:19:32.311Z</time></trkpt><trkpt lat="38.1762917" lon="15.6673917"><ele>83.0</ele><time>2026-04-21T09:19:34.311Z</time></trkpt><trkpt lat="38.1763817" lon="15.6672717"><ele>83.0</ele><time>2026-04-21T09:19:36.311Z</time></trkpt><trkpt lat="38.1764117" lon="15.667175"><ele>83.0</ele><time>2026-04-21T09:19:37.311Z</time></trkpt><trkpt lat="38.176425" lon="15.6670883"><ele>83.0</ele><time>2026-04-21T09:19:38.31Z</time></trkpt><trkpt lat="38.1764417" lon="15.6669533"><ele>83.0</ele><time>2026-04-21T09:19:40.311Z</time></trkpt><trkpt lat="38.1764567" lon="15.6668333"><ele>83.0</ele><time>2026-04-21T09:19:42.31Z</time></trkpt><trkpt lat="38.1764883" lon="15.6666933"><ele>83.0</ele><time>2026-04-21T09:19:44.311Z</time></trkpt><trkpt lat="38.1765417" lon="15.6665667"><ele>83.0</ele><time>2026-04-21T09:19:46.311Z</time></trkpt><trkpt lat="38.176605" lon="15.6664517"><ele>83.0</ele><time>2026-04-21T09:19:48.311Z</time></trkpt><trkpt lat="38.1766767" lon="15.6663583"><ele>83.0</ele><time>2026-04-21T09:19:50.311Z</time></trkpt><trkpt lat="38.1767767" lon="15.6663583"><ele>83.0</ele><time>2026-04-21T09:19:52.311Z</time></trkpt><trkpt lat="38.176875" lon="15.6664517"><ele>83.0</ele><time>2026-04-21T09:19:54.311Z</time></trkpt><trkpt lat="38.1769617" lon="15.6665583"><ele>83.0</ele><time>2026-04-21T09:19:56.311Z</time></trkpt><trkpt lat="38.1770517" lon="15.6666483"><ele>83.0</ele><time>2026-04-21T09:19:58.311Z</time></trkpt><trkpt lat="38.177095" lon="15.6667067"><ele>83.0</ele><time>2026-04-21T09:19:59.311Z</time></trkpt><trkpt lat="38.177135" lon="15.66677"><ele>83.0</ele><time>2026-04-21T09:20:00.311Z</time></trkpt><trkpt lat="38.1771767" lon="15.666835"><ele>83.0</ele><time>2026-04-21T09:20:01.311Z</time></trkpt><trkpt lat="38.1772167" lon="15.6669"><ele>83.0</ele><time>2026-04-21T09:20:02.31Z</time></trkpt><trkpt lat="38.177275" lon="15.666955"><ele>83.0</ele><time>2026-04-21T09:20:03.311Z</time></trkpt><trkpt lat="38.17734" lon="15.6670033"><ele>83.0</ele><time>2026-04-21T09:20:04.311Z</time></trkpt><trkpt lat="38.1774017" lon="15.6670567"><ele>83.33333333333334</ele><time>2026-04-21T09:20:05.31Z</time></trkpt><trkpt lat="38.1774617" lon="15.6671017"><ele>83.66666666666667</ele><time>2026-04-21T09:20:06.311Z</time></trkpt><trkpt lat="38.177515" lon="15.6671467"><ele>84.0</ele><time>2026-04-21T09:20:07.31Z</time></trkpt><trkpt lat="38.1775983" lon="15.6672283"><ele>84.33333333333333</ele><time>2026-04-21T09:20:09.311Z</time></trkpt><trkpt lat="38.1776667" lon="15.6672933"><ele>84.66666666666666</ele><time>2026-04-21T09:20:11.311Z</time></trkpt><trkpt lat="38.1776967" lon="15.667405"><ele>85.0</ele><time>2026-04-21T09:20:13.311Z</time></trkpt><trkpt lat="38.177655" lon="15.6675367"><ele>85.0</ele><time>2026-04-21T09:20:15.31Z</time></trkpt><trkpt lat="38.1775917" lon="15.667675"><ele>85.0</ele><time>2026-04-21T09:20:17.311Z</time></trkpt><trkpt lat="38.1775617" lon="15.6678067"><ele>85.0</ele><time>2026-04-21T09:20:19.311Z</time></trkpt><trkpt lat="38.1776017" lon="15.6679517"><ele>85.0</ele><time>2026-04-21T09:20:21.311Z</time></trkpt><trkpt lat="38.177645" lon="15.6680283"><ele>85.0</ele><time>2026-04-21T09:20:22.31Z</time></trkpt><trkpt lat="38.1777083" lon="15.6681017"><ele>85.33333333333333</ele><time>2026-04-21T09:20:23.311Z</time></trkpt><trkpt lat="38.17778" lon="15.66817"><ele>85.66666666666666</ele><time>2026-04-21T09:20:24.311Z</time></trkpt><trkpt lat="38.1778533" lon="15.66824"><ele>86.0</ele><time>2026-04-21T09:20:25.311Z</time></trkpt><trkpt lat="38.177915" lon="15.66832"><ele>86.33333333333333</ele><time>2026-04-21T09:20:26.31Z</time></trkpt><trkpt lat="38.17797" lon="15.6683967"><ele>86.66666666666667</ele><time>2026-04-21T09:20:27.311Z</time></trkpt><trkpt lat="38.1780217" lon="15.6684683"><ele>87.0</ele><time>2026-04-21T09:20:28.311Z</time></trkpt><trkpt lat="38.1780667" lon="15.668535"><ele>87.0</ele><time>2026-04-21T09:20:29.311Z</time></trkpt><trkpt lat="38.178115" lon="15.668595"><ele>87.0</ele><time>2026-04-21T09:20:30.311Z</time></trkpt><trkpt lat="38.17819" lon="15.6686867"><ele>87.0</ele><time>2026-04-21T09:20:32.311Z</time></trkpt><trkpt lat="38.1782433" lon="15.6687617"><ele>87.0</ele><time>2026-04-21T09:20:34.311Z</time></trkpt><trkpt lat="38.1782983" lon="15.6688183"><ele>87.0</ele><time>2026-04-21T09:20:36.311Z</time></trkpt><trkpt lat="38.17836" lon="15.66885"><ele>87.0</ele><time>2026-04-21T09:20:38.311Z</time></trkpt><trkpt lat="38.1784433" lon="15.6688933"><ele>86.25</ele><time>2026-04-21T09:20:40.311Z</time></trkpt><trkpt lat="38.1785433" lon="15.6689517"><ele>85.5</ele><time>2026-04-21T09:20:42.311Z</time></trkpt><trkpt lat="38.1786483" lon="15.66899"><ele>84.75</ele><time>2026-04-21T09:20:44.31Z</time></trkpt><trkpt lat="38.1787583" lon="15.6690367"><ele>84.0</ele><time>2026-04-21T09:20:46.311Z</time></trkpt><trkpt lat="38.1788667" lon="15.669085"><ele>84.0</ele><time>2026-04-21T09:20:48.311Z</time></trkpt><trkpt lat="38.1789767" lon="15.6691217"><ele>84.0</ele><time>2026-04-21T09:20:50.311Z</time></trkpt><trkpt lat="38.1790867" lon="15.669165"><ele>84.0</ele><time>2026-04-21T09:20:52.311Z</time></trkpt><trkpt lat="38.17921" lon="15.66916"><ele>84.0</ele><time>2026-04-21T09:20:54.311Z</time></trkpt><trkpt lat="38.1792817" lon="15.6691467"><ele>84.0</ele><time>2026-04-21T09:20:55.311Z</time></trkpt><trkpt lat="38.1793617" lon="15.6691367"><ele>83.66666666666667</ele><time>2026-04-21T09:20:56.311Z</time></trkpt><trkpt lat="38.1794433" lon="15.669125"><ele>83.33333333333333</ele><time>2026-04-21T09:20:57.31Z</time></trkpt><trkpt lat="38.1795283" lon="15.6691267"><ele>83.0</ele><time>2026-04-21T09:20:58.311Z</time></trkpt><trkpt lat="38.1796067" lon="15.66913"><ele>82.66666666666666</ele><time>2026-04-21T09:20:59.311Z</time></trkpt><trkpt lat="38.1796817" lon="15.669145"><ele>82.33333333333333</ele><time>2026-04-21T09:21:00.311Z</time></trkpt><trkpt lat="38.1797717" lon="15.6691717"><ele>82.0</ele><time>2026-04-21T09:21:01.311Z</time></trkpt><trkpt lat="38.1798683" lon="15.669195"><ele>81.25</ele><time>2026-04-21T09:21:02.311Z</time></trkpt><trkpt lat="38.17998" lon="15.6692183"><ele>80.5</ele><time>2026-04-21T09:21:03.311Z</time></trkpt><trkpt lat="38.18011" lon="15.6692267"><ele>79.75</ele><time>2026-04-21T09:21:04.311Z</time></trkpt><trkpt lat="38.1802583" lon="15.6692433"><ele>79.0</ele><time>2026-04-21T09:21:05.311Z</time></trkpt><trkpt lat="38.1804083" lon="15.66927"><ele>79.0</ele><time>2026-04-21T09:21:06.311Z</time></trkpt><trkpt lat="38.1805667" lon="15.6692933"><ele>79.0</ele><time>2026-04-21T09:21:07.311Z</time></trkpt><trkpt lat="38.1807117" lon="15.6693233"><ele>79.0</ele><time>2026-04-21T09:21:08.311Z</time></trkpt><trkpt lat="38.180855" lon="15.66936"><ele>79.0</ele><time>2026-04-21T09:21:09.311Z</time></trkpt><trkpt lat="38.1810067" lon="15.66941"><ele>79.0</ele><time>2026-04-21T09:21:10.311Z</time></trkpt><trkpt lat="38.1811583" lon="15.6694567"><ele>79.0</ele><time>2026-04-21T09:21:11.311Z</time></trkpt><trkpt lat="38.1813017" lon="15.669495"><ele>79.5</ele><time>2026-04-21T09:21:12.311Z</time></trkpt><trkpt lat="38.1814517" lon="15.6695267"><ele>80.0</ele><time>2026-04-21T09:21:13.311Z</time></trkpt><trkpt lat="38.18158" lon="15.66954"><ele>80.5</ele><time>2026-04-21T09:21:14.311Z</time></trkpt><trkpt lat="38.1816933" lon="15.6695317"><ele>81.0</ele><time>2026-04-21T09:21:15.311Z</time></trkpt><trkpt lat="38.18179" lon="15.66951"><ele>81.33333333333333</ele><time>2026-04-21T09:21:16.31Z</time></trkpt><trkpt lat="38.1818717" lon="15.6694983"><ele>81.66666666666667</ele><time>2026-04-21T09:21:17.31Z</time></trkpt><trkpt lat="38.1819467" lon="15.66951"><ele>82.0</ele><time>2026-04-21T09:21:19.31Z</time></trkpt><trkpt lat="38.1819883" lon="15.6695717"><ele>82.33333333333334</ele><time>2026-04-21T09:21:21.31Z</time></trkpt><trkpt lat="38.1820517" lon="15.6696833"><ele>82.66666666666667</ele><time>2026-04-21T09:21:23.31Z</time></trkpt><trkpt lat="38.1820967" lon="15.6697667"><ele>83.0</ele><time>2026-04-21T09:21:24.31Z</time></trkpt><trkpt lat="38.182145" lon="15.66987"><ele>83.0</ele><time>2026-04-21T09:21:25.31Z</time></trkpt><trkpt lat="38.1822017" lon="15.6699733"><ele>83.0</ele><time>2026-04-21T09:21:26.31Z</time></trkpt><trkpt lat="38.182265" lon="15.6700767"><ele>83.0</ele><time>2026-04-21T09:21:27.31Z</time></trkpt><trkpt lat="38.182325" lon="15.6701767"><ele>83.0</ele><time>2026-04-21T09:21:28.31Z</time></trkpt><trkpt lat="38.1823817" lon="15.67029"><ele>83.0</ele><time>2026-04-21T09:21:29.31Z</time></trkpt><trkpt lat="38.1824433" lon="15.6704033"><ele>84.0</ele><time>2026-04-21T09:21:30.31Z</time></trkpt><trkpt lat="38.1825083" lon="15.6705217"><ele>85.0</ele><time>2026-04-21T09:21:31.31Z</time></trkpt><trkpt lat="38.1825683" lon="15.6706433"><ele>86.0</ele><time>2026-04-21T09:21:32.31Z</time></trkpt><trkpt lat="38.1826333" lon="15.6707617"><ele>87.0</ele><time>2026-04-21T09:21:33.31Z</time></trkpt><trkpt lat="38.1827017" lon="15.670885"><ele>87.0</ele><time>2026-04-21T09:21:34.31Z</time></trkpt><trkpt lat="38.1827683" lon="15.671005"><ele>87.0</ele><time>2026-04-21T09:21:35.309Z</time></trkpt><trkpt lat="38.1828333" lon="15.6711233"><ele>87.0</ele><time>2026-04-21T09:21:36.31Z</time></trkpt><trkpt lat="38.1829" lon="15.67125"><ele>87.0</ele><time>2026-04-21T09:21:37.31Z</time></trkpt><trkpt lat="38.1829767" lon="15.6713883"><ele>87.0</ele><time>2026-04-21T09:21:38.31Z</time></trkpt><trkpt lat="38.1830567" lon="15.6715433"><ele>87.0</ele><time>2026-04-21T09:21:39.31Z</time></trkpt><trkpt lat="38.1831467" lon="15.671725"><ele>87.0</ele><time>2026-04-21T09:21:40.31Z</time></trkpt><trkpt lat="38.1832483" lon="15.6719133"><ele>88.33333333333333</ele><time>2026-04-21T09:21:41.31Z</time></trkpt><trkpt lat="38.1833533" lon="15.67211"><ele>89.66666666666666</ele><time>2026-04-21T09:21:42.309Z</time></trkpt><trkpt lat="38.1834633" lon="15.672315"><ele>91.0</ele><time>2026-04-21T09:21:43.31Z</time></trkpt><trkpt lat="38.18357" lon="15.6725283"><ele>91.0</ele><time>2026-04-21T09:21:44.31Z</time></trkpt><trkpt lat="38.1836833" lon="15.6727433"><ele>91.0</ele><time>2026-04-21T09:21:45.31Z</time></trkpt><trkpt lat="38.183795" lon="15.672955"><ele>91.0</ele><time>2026-04-21T09:21:46.31Z</time></trkpt><trkpt lat="38.183905" lon="15.6731617"><ele>91.33333333333333</ele><time>2026-04-21T09:21:47.31Z</time></trkpt><trkpt lat="38.1840117" lon="15.6733683"><ele>91.66666666666667</ele><time>2026-04-21T09:21:48.31Z</time></trkpt><trkpt lat="38.1841267" lon="15.6735767"><ele>92.0</ele><time>2026-04-21T09:21:49.31Z</time></trkpt><trkpt lat="38.1842367" lon="15.6737917"><ele>92.66666666666667</ele><time>2026-04-21T09:21:50.31Z</time></trkpt><trkpt lat="38.1843483" lon="15.6740067"><ele>93.33333333333333</ele><time>2026-04-21T09:21:51.31Z</time></trkpt><trkpt lat="38.1844617" lon="15.6742183"><ele>94.0</ele><time>2026-04-21T09:21:52.31Z</time></trkpt><trkpt lat="38.1845767" lon="15.6744333"><ele>94.66666666666666</ele><time>2026-04-21T09:21:53.31Z</time></trkpt><trkpt lat="38.18469" lon="15.6746533"><ele>95.33333333333333</ele><time>2026-04-21T09:21:54.31Z</time></trkpt><trkpt lat="38.1848067" lon="15.6748717"><ele>96.0</ele><time>2026-04-21T09:21:55.31Z</time></trkpt><trkpt lat="38.1849133" lon="15.6750883"><ele>97.66666666666666</ele><time>2026-04-21T09:21:56.31Z</time></trkpt><trkpt lat="38.185015" lon="15.6753133"><ele>99.33333333333333</ele><time>2026-04-21T09:21:57.31Z</time></trkpt><trkpt lat="38.1851183" lon="15.6755433"><ele>101.0</ele><time>2026-04-21T09:21:58.31Z</time></trkpt><trkpt lat="38.18521" lon="15.6757817"><ele>101.0</ele><time>2026-04-21T09:21:59.31Z</time></trkpt><trkpt lat="38.1852917" lon="15.6760267"><ele>101.0</ele><time>2026-04-21T09:22:00.31Z</time></trkpt><trkpt lat="38.18536" lon="15.6762733"><ele>101.0</ele><time>2026-04-21T09:22:01.31Z</time></trkpt><trkpt lat="38.1854183" lon="15.6765217"><ele>101.66666666666666</ele><time>2026-04-21T09:22:02.31Z</time></trkpt><trkpt lat="38.185475" lon="15.6767717"><ele>102.33333333333334</ele><time>2026-04-21T09:22:03.31Z</time></trkpt><trkpt lat="38.185525" lon="15.67703"><ele>103.0</ele><time>2026-04-21T09:22:04.31Z</time></trkpt><trkpt lat="38.18557" lon="15.677285"><ele>104.0</ele><time>2026-04-21T09:22:05.31Z</time></trkpt><trkpt lat="38.1856067" lon="15.67755"><ele>105.0</ele><time>2026-04-21T09:22:06.31Z</time></trkpt><trkpt lat="38.18564" lon="15.677815"><ele>106.0</ele><time>2026-04-21T09:22:07.309Z</time></trkpt><trkpt lat="38.1856617" lon="15.678095"><ele>108.0</ele><time>2026-04-21T09:22:08.309Z</time></trkpt><trkpt lat="38.185675" lon="15.6783617"><ele>110.0</ele><time>2026-04-21T09:22:09.31Z</time></trkpt><trkpt lat="38.1856917" lon="15.678645"><ele>112.0</ele><time>2026-04-21T09:22:10.31Z</time></trkpt><trkpt lat="38.185695" lon="15.67892"><ele>112.0</ele><time>2026-04-21T09:22:11.31Z</time></trkpt><trkpt lat="38.1856983" lon="15.6791933"><ele>112.0</ele><time>2026-04-21T09:22:12.31Z</time></trkpt><trkpt lat="38.1857033" lon="15.6794633"><ele>112.0</ele><time>2026-04-21T09:22:13.31Z</time></trkpt><trkpt lat="38.1857117" lon="15.67974"><ele>113.0</ele><time>2026-04-21T09:22:14.31Z</time></trkpt><trkpt lat="38.1857217" lon="15.6800133"><ele>114.0</ele><time>2026-04-21T09:22:15.31Z</time></trkpt><trkpt lat="38.1857283" lon="15.6802833"><ele>115.0</ele><time>2026-04-21T09:22:16.31Z</time></trkpt><trkpt lat="38.18573" lon="15.680555"><ele>115.0</ele><time>2026-04-21T09:22:17.309Z</time></trkpt><trkpt lat="38.18573" lon="15.6808383"><ele>115.0</ele><time>2026-04-21T09:22:18.31Z</time></trkpt><trkpt lat="38.185725" lon="15.68111"><ele>115.0</ele><time>2026-04-21T09:22:19.31Z</time></trkpt><trkpt lat="38.18573" lon="15.6813783"><ele>115.0</ele><time>2026-04-21T09:22:20.309Z</time></trkpt><trkpt lat="38.1857383" lon="15.6816533"><ele>115.0</ele><time>2026-04-21T09:22:21.31Z</time></trkpt><trkpt lat="38.1857567" lon="15.6819267"><ele>115.0</ele><time>2026-04-21T09:22:22.31Z</time></trkpt><trkpt lat="38.1857667" lon="15.6821917"><ele>115.66666666666667</ele><time>2026-04-21T09:22:23.31Z</time></trkpt><trkpt lat="38.185775" lon="15.6824683"><ele>116.33333333333334</ele><time>2026-04-21T09:22:24.31Z</time></trkpt><trkpt lat="38.1857833" lon="15.6827517"><ele>117.0</ele><time>2026-04-21T09:22:25.309Z</time></trkpt><trkpt lat="38.1857917" lon="15.6830217"><ele>118.0</ele><time>2026-04-21T09:22:26.31Z</time></trkpt><trkpt lat="38.1857967" lon="15.6832933"><ele>119.0</ele><time>2026-04-21T09:22:27.31Z</time></trkpt><trkpt lat="38.1858017" lon="15.6835633"><ele>120.0</ele><time>2026-04-21T09:22:28.309Z</time></trkpt><trkpt lat="38.1858033" lon="15.6838283"><ele>120.66666666666666</ele><time>2026-04-21T09:22:29.31Z</time></trkpt><trkpt lat="38.1858117" lon="15.6840983"><ele>121.33333333333333</ele><time>2026-04-21T09:22:30.31Z</time></trkpt><trkpt lat="38.1858167" lon="15.68437"><ele>122.0</ele><time>2026-04-21T09:22:31.31Z</time></trkpt><trkpt lat="38.1858267" lon="15.6846417"><ele>122.33333333333333</ele><time>2026-04-21T09:22:32.31Z</time></trkpt><trkpt lat="38.185835" lon="15.6849217"><ele>122.66666666666666</ele><time>2026-04-21T09:22:33.31Z</time></trkpt><trkpt lat="38.18584" lon="15.68519"><ele>123.0</ele><time>2026-04-21T09:22:34.31Z</time></trkpt><trkpt lat="38.1858483" lon="15.68546"><ele>124.0</ele><time>2026-04-21T09:22:35.309Z</time></trkpt><trkpt lat="38.185855" lon="15.6857367"><ele>125.0</ele><time>2026-04-21T09:22:36.31Z</time></trkpt><trkpt lat="38.1858567" lon="15.686015"><ele>126.0</ele><time>2026-04-21T09:22:37.31Z</time></trkpt><trkpt lat="38.185865" lon="15.6862933"><ele>127.0</ele><time>2026-04-21T09:22:38.31Z</time></trkpt><trkpt lat="38.1858683" lon="15.6865633"><ele>128.0</ele><time>2026-04-21T09:22:39.31Z</time></trkpt><trkpt lat="38.185865" lon="15.6868383"><ele>129.0</ele><time>2026-04-21T09:22:40.31Z</time></trkpt><trkpt lat="38.1858567" lon="15.6871083"><ele>130.33333333333334</ele><time>2026-04-21T09:22:41.31Z</time></trkpt><trkpt lat="38.1858333" lon="15.6873733"><ele>131.66666666666669</ele><time>2026-04-21T09:22:42.31Z</time></trkpt><trkpt lat="38.185815" lon="15.68765"><ele>133.0</ele><time>2026-04-21T09:22:43.31Z</time></trkpt><trkpt lat="38.1857867" lon="15.687915"><ele>133.0</ele><time>2026-04-21T09:22:44.31Z</time></trkpt><trkpt lat="38.1857667" lon="15.6881833"><ele>133.0</ele><time>2026-04-21T09:22:45.31Z</time></trkpt><trkpt lat="38.18576" lon="15.6884517"><ele>133.0</ele><time>2026-04-21T09:22:46.31Z</time></trkpt><trkpt lat="38.1857483" lon="15.6887183"><ele>134.0</ele><time>2026-04-21T09:22:47.31Z</time></trkpt><trkpt lat="38.1857317" lon="15.6889917"><ele>135.0</ele><time>2026-04-21T09:22:48.31Z</time></trkpt><trkpt lat="38.1857167" lon="15.6892683"><ele>136.0</ele><time>2026-04-21T09:22:49.31Z</time></trkpt><trkpt lat="38.1857117" lon="15.6895417"><ele>136.66666666666669</ele><time>2026-04-21T09:22:50.31Z</time></trkpt><trkpt lat="38.1857117" lon="15.6898133"><ele>137.33333333333334</ele><time>2026-04-21T09:22:51.31Z</time></trkpt><trkpt lat="38.1857283" lon="15.6900867"><ele>138.0</ele><time>2026-04-21T09:22:52.31Z</time></trkpt><trkpt lat="38.1857417" lon="15.6903583"><ele>138.0</ele><time>2026-04-21T09:22:53.31Z</time></trkpt><trkpt lat="38.1857717" lon="15.6906317"><ele>138.0</ele><time>2026-04-21T09:22:54.309Z</time></trkpt><trkpt lat="38.1857983" lon="15.6909033"><ele>138.0</ele><time>2026-04-21T09:22:55.309Z</time></trkpt><trkpt lat="38.18583" lon="15.69118"><ele>138.66666666666666</ele><time>2026-04-21T09:22:56.31Z</time></trkpt><trkpt lat="38.1858633" lon="15.69145"><ele>139.33333333333331</ele><time>2026-04-21T09:22:57.31Z</time></trkpt><trkpt lat="38.1858933" lon="15.6917167"><ele>140.0</ele><time>2026-04-21T09:22:58.31Z</time></trkpt><trkpt lat="38.1859283" lon="15.6919967"><ele>141.33333333333331</ele><time>2026-04-21T09:22:59.31Z</time></trkpt><trkpt lat="38.1859517" lon="15.692275"><ele>142.66666666666666</ele><time>2026-04-21T09:23:00.31Z</time></trkpt><trkpt lat="38.1859717" lon="15.6925467"><ele>144.0</ele><time>2026-04-21T09:23:01.31Z</time></trkpt><trkpt lat="38.1859833" lon="15.69282"><ele>144.33333333333334</ele><time>2026-04-21T09:23:02.31Z</time></trkpt><trkpt lat="38.1859967" lon="15.6930983"><ele>144.66666666666669</ele><time>2026-04-21T09:23:03.31Z</time></trkpt><trkpt lat="38.18601" lon="15.693375"><ele>145.0</ele><time>2026-04-21T09:23:04.31Z</time></trkpt><trkpt lat="38.1859983" lon="15.69364"><ele>145.0</ele><time>2026-04-21T09:23:05.31Z</time></trkpt><trkpt lat="38.1859733" lon="15.6939067"><ele>145.0</ele><time>2026-04-21T09:23:06.31Z</time></trkpt><trkpt lat="38.1859483" lon="15.69419"><ele>145.0</ele><time>2026-04-21T09:23:07.31Z</time></trkpt><trkpt lat="38.1859133" lon="15.69445"><ele>146.66666666666669</ele><time>2026-04-21T09:23:08.309Z</time></trkpt><trkpt lat="38.185865" lon="15.6947133"><ele>148.33333333333334</ele><time>2026-04-21T09:23:09.31Z</time></trkpt><trkpt lat="38.1858067" lon="15.69497"><ele>150.0</ele><time>2026-04-21T09:23:10.309Z</time></trkpt><trkpt lat="38.1857367" lon="15.6952333"><ele>160.33333333333334</ele><time>2026-04-21T09:23:11.31Z</time></trkpt><trkpt lat="38.185665" lon="15.6954867"><ele>170.66666666666669</ele><time>2026-04-21T09:23:12.31Z</time></trkpt><trkpt lat="38.1855783" lon="15.69573"><ele>181.0</ele><time>2026-04-21T09:23:13.31Z</time></trkpt><trkpt lat="38.1854817" lon="15.69597"><ele>176.33333333333334</ele><time>2026-04-21T09:23:14.31Z</time></trkpt><trkpt lat="38.1853817" lon="15.6962017"><ele>171.66666666666666</ele><time>2026-04-21T09:23:15.309Z</time></trkpt><trkpt lat="38.1852833" lon="15.69644"><ele>167.0</ele><time>2026-04-21T09:23:16.31Z</time></trkpt><trkpt lat="38.1851833" lon="15.69668"><ele>164.0</ele><time>2026-04-21T09:23:17.31Z</time></trkpt><trkpt lat="38.1850833" lon="15.696925"><ele>161.0</ele><time>2026-04-21T09:23:18.31Z</time></trkpt><trkpt lat="38.184985" lon="15.69717"><ele>158.0</ele><time>2026-04-21T09:23:19.31Z</time></trkpt><trkpt lat="38.1848867" lon="15.6974117"><ele>163.66666666666666</ele><time>2026-04-21T09:23:20.309Z</time></trkpt><trkpt lat="38.1847883" lon="15.6976583"><ele>169.33333333333334</ele><time>2026-04-21T09:23:21.309Z</time></trkpt><trkpt lat="38.1846883" lon="15.6979033"><ele>175.0</ele><time>2026-04-21T09:23:22.31Z</time></trkpt><trkpt lat="38.1845883" lon="15.6981433"><ele>175.0</ele><time>2026-04-21T09:23:23.31Z</time></trkpt><trkpt lat="38.184485" lon="15.6983867"><ele>175.0</ele><time>2026-04-21T09:23:24.31Z</time></trkpt><trkpt lat="38.1843867" lon="15.698635"><ele>175.0</ele><time>2026-04-21T09:23:25.31Z</time></trkpt><trkpt lat="38.184295" lon="15.6988867"><ele>173.0</ele><time>2026-04-21T09:23:26.309Z</time></trkpt><trkpt lat="38.1842" lon="15.6991383"><ele>171.0</ele><time>2026-04-21T09:23:27.31Z</time></trkpt><trkpt lat="38.1840933" lon="15.6993767"><ele>169.0</ele><time>2026-04-21T09:23:28.31Z</time></trkpt><trkpt lat="38.184" lon="15.6996267"><ele>169.0</ele><time>2026-04-21T09:23:29.31Z</time></trkpt><trkpt lat="38.1839083" lon="15.6998733"><ele>169.0</ele><time>2026-04-21T09:23:30.31Z</time></trkpt><trkpt lat="38.1838183" lon="15.7001183"><ele>169.0</ele><time>2026-04-21T09:23:31.31Z</time></trkpt><trkpt lat="38.1837283" lon="15.7003483"><ele>169.0</ele><time>2026-04-21T09:23:32.31Z</time></trkpt><trkpt lat="38.1836417" lon="15.700575"><ele>169.0</ele><time>2026-04-21T09:23:33.309Z</time></trkpt><trkpt lat="38.18356" lon="15.700795"><ele>169.0</ele><time>2026-04-21T09:23:34.31Z</time></trkpt><trkpt lat="38.1834683" lon="15.7010083"><ele>168.66666666666669</ele><time>2026-04-21T09:23:35.31Z</time></trkpt><trkpt lat="38.1833733" lon="15.70123"><ele>168.33333333333334</ele><time>2026-04-21T09:23:36.31Z</time></trkpt><trkpt lat="38.1832767" lon="15.7014533"><ele>168.0</ele><time>2026-04-21T09:23:37.31Z</time></trkpt><trkpt lat="38.1831783" lon="15.7016783"><ele>172.33333333333334</ele><time>2026-04-21T09:23:38.31Z</time></trkpt><trkpt lat="38.1830733" lon="15.7019067"><ele>176.66666666666669</ele><time>2026-04-21T09:23:39.31Z</time></trkpt><trkpt lat="38.18296" lon="15.7021283"><ele>181.0</ele><time>2026-04-21T09:23:40.31Z</time></trkpt><trkpt lat="38.18284" lon="15.70235"><ele>181.0</ele><time>2026-04-21T09:23:41.31Z</time></trkpt><trkpt lat="38.1827167" lon="15.70257"><ele>181.0</ele><time>2026-04-21T09:23:42.31Z</time></trkpt><trkpt lat="38.182585" lon="15.70278"><ele>181.0</ele><time>2026-04-21T09:23:43.309Z</time></trkpt><trkpt lat="38.1824517" lon="15.7029933"><ele>185.33333333333334</ele><time>2026-04-21T09:23:44.309Z</time></trkpt><trkpt lat="38.1823167" lon="15.7032067"><ele>189.66666666666669</ele><time>2026-04-21T09:23:45.31Z</time></trkpt><trkpt lat="38.18219" lon="15.7034217"><ele>194.0</ele><time>2026-04-21T09:23:46.31Z</time></trkpt><trkpt lat="38.1820633" lon="15.7036333"><ele>194.0</ele><time>2026-04-21T09:23:47.309Z</time></trkpt><trkpt lat="38.1819367" lon="15.7038517"><ele>194.0</ele><time>2026-04-21T09:23:48.31Z</time></trkpt><trkpt lat="38.1818083" lon="15.7040733"><ele>194.0</ele><time>2026-04-21T09:23:49.31Z</time></trkpt><trkpt lat="38.1816983" lon="15.7043033"><ele>189.66666666666669</ele><time>2026-04-21T09:23:50.31Z</time></trkpt><trkpt lat="38.1815683" lon="15.7045717"><ele>185.33333333333334</ele><time>2026-04-21T09:23:51.309Z</time></trkpt><trkpt lat="38.18148" lon="15.7048017"><ele>181.0</ele><time>2026-04-21T09:23:52.31Z</time></trkpt><trkpt lat="38.1813867" lon="15.7050333"><ele>185.33333333333334</ele><time>2026-04-21T09:23:53.31Z</time></trkpt><trkpt lat="38.1813033" lon="15.7052683"><ele>189.66666666666669</ele><time>2026-04-21T09:23:54.309Z</time></trkpt><trkpt lat="38.1812183" lon="15.7055117"><ele>194.0</ele><time>2026-04-21T09:23:55.31Z</time></trkpt><trkpt lat="38.1811367" lon="15.70572"><ele>194.0</ele><time>2026-04-21T09:23:56.31Z</time></trkpt><trkpt lat="38.1810567" lon="15.70595"><ele>194.0</ele><time>2026-04-21T09:23:57.31Z</time></trkpt><trkpt lat="38.1809733" lon="15.7061767"><ele>194.0</ele><time>2026-04-21T09:23:58.31Z</time></trkpt><trkpt lat="38.1808933" lon="15.7064083"><ele>192.0</ele><time>2026-04-21T09:23:59.31Z</time></trkpt><trkpt lat="38.1808133" lon="15.70664"><ele>190.0</ele><time>2026-04-21T09:24:00.31Z</time></trkpt><trkpt lat="38.1807417" lon="15.7068833"><ele>188.0</ele><time>2026-04-21T09:24:01.309Z</time></trkpt><trkpt lat="38.18068" lon="15.7071267"><ele>193.33333333333331</ele><time>2026-04-21T09:24:02.31Z</time></trkpt><trkpt lat="38.1806233" lon="15.707375"><ele>198.66666666666666</ele><time>2026-04-21T09:24:03.31Z</time></trkpt><trkpt lat="38.1805667" lon="15.7076233"><ele>204.0</ele><time>2026-04-21T09:24:04.31Z</time></trkpt><trkpt lat="38.1805083" lon="15.7078767"><ele>204.66666666666669</ele><time>2026-04-21T09:24:05.31Z</time></trkpt><trkpt lat="38.1804533" lon="15.7081317"><ele>205.33333333333334</ele><time>2026-04-21T09:24:06.31Z</time></trkpt><trkpt lat="38.1804" lon="15.7083883"><ele>206.0</ele><time>2026-04-21T09:24:07.31Z</time></trkpt><trkpt lat="38.1803367" lon="15.7086383"><ele>206.66666666666669</ele><time>2026-04-21T09:24:08.31Z</time></trkpt><trkpt lat="38.1802617" lon="15.7088833"><ele>207.33333333333331</ele><time>2026-04-21T09:24:09.31Z</time></trkpt><trkpt lat="38.1801733" lon="15.7091183"><ele>208.0</ele><time>2026-04-21T09:24:10.31Z</time></trkpt><trkpt lat="38.180075" lon="15.7093433"><ele>206.33333333333331</ele><time>2026-04-21T09:24:11.31Z</time></trkpt><trkpt lat="38.1799617" lon="15.7095633"><ele>204.66666666666669</ele><time>2026-04-21T09:24:12.31Z</time></trkpt><trkpt lat="38.179835" lon="15.7097717"><ele>203.0</ele><time>2026-04-21T09:24:13.31Z</time></trkpt><trkpt lat="38.1797033" lon="15.7099833"><ele>203.0</ele><time>2026-04-21T09:24:14.31Z</time></trkpt><trkpt lat="38.1795683" lon="15.7101983"><ele>203.0</ele><time>2026-04-21T09:24:15.31Z</time></trkpt><trkpt lat="38.1794367" lon="15.710415"><ele>203.0</ele><time>2026-04-21T09:24:16.309Z</time></trkpt><trkpt lat="38.179305" lon="15.7106283"><ele>203.33333333333334</ele><time>2026-04-21T09:24:17.31Z</time></trkpt><trkpt lat="38.1791717" lon="15.71086"><ele>203.66666666666669</ele><time>2026-04-21T09:24:18.31Z</time></trkpt><trkpt lat="38.179035" lon="15.711085"><ele>204.0</ele><time>2026-04-21T09:24:19.31Z</time></trkpt><trkpt lat="38.1788933" lon="15.7113083"><ele>206.0</ele><time>2026-04-21T09:24:20.31Z</time></trkpt><trkpt lat="38.1787517" lon="15.7115333"><ele>208.0</ele><time>2026-04-21T09:24:21.31Z</time></trkpt><trkpt lat="38.178615" lon="15.71176"><ele>208.5</ele><time>2026-04-21T09:24:22.31Z</time></trkpt><trkpt lat="38.1784767" lon="15.7119783"><ele>209.0</ele><time>2026-04-21T09:24:23.31Z</time></trkpt><trkpt lat="38.1783267" lon="15.7122"><ele>221.0</ele><time>2026-04-21T09:24:24.31Z</time></trkpt><trkpt lat="38.1781633" lon="15.7124017"><ele>233.0</ele><time>2026-04-21T09:24:25.31Z</time></trkpt><trkpt lat="38.17799" lon="15.7125817"><ele>233.0</ele><time>2026-04-21T09:24:26.31Z</time></trkpt><trkpt lat="38.1778117" lon="15.7127383"><ele>233.0</ele><time>2026-04-21T09:24:27.31Z</time></trkpt><trkpt lat="38.1776183" lon="15.7128867"><ele>233.0</ele><time>2026-04-21T09:24:28.31Z</time></trkpt><trkpt lat="38.1774267" lon="15.7130317"><ele>231.66666666666669</ele><time>2026-04-21T09:24:29.31Z</time></trkpt><trkpt lat="38.1772367" lon="15.7131767"><ele>230.33333333333331</ele><time>2026-04-21T09:24:30.31Z</time></trkpt><trkpt lat="38.1770533" lon="15.7133283"><ele>229.0</ele><time>2026-04-21T09:24:31.31Z</time></trkpt><trkpt lat="38.1768733" lon="15.7134733"><ele>231.33333333333331</ele><time>2026-04-21T09:24:32.31Z</time></trkpt><trkpt lat="38.1767067" lon="15.71362"><ele>233.66666666666669</ele><time>2026-04-21T09:24:33.309Z</time></trkpt><trkpt lat="38.176535" lon="15.713775"><ele>236.0</ele><time>2026-04-21T09:24:34.31Z</time></trkpt><trkpt lat="38.176395" lon="15.7139467"><ele>236.0</ele><time>2026-04-21T09:24:35.31Z</time></trkpt><trkpt lat="38.17627" lon="15.7141383"><ele>236.0</ele><time>2026-04-21T09:24:36.31Z</time></trkpt><trkpt lat="38.1761583" lon="15.7143283"><ele>236.0</ele><time>2026-04-21T09:24:37.31Z</time></trkpt><trkpt lat="38.176055" lon="15.714545"><ele>238.0</ele><time>2026-04-21T09:24:38.31Z</time></trkpt><trkpt lat="38.1759583" lon="15.7147983"><ele>240.0</ele><time>2026-04-21T09:24:39.31Z</time></trkpt><trkpt lat="38.175875" lon="15.71505"><ele>242.0</ele><time>2026-04-21T09:24:40.31Z</time></trkpt><trkpt lat="38.1757917" lon="15.7152867"><ele>242.0</ele><time>2026-04-21T09:24:41.31Z</time></trkpt><trkpt lat="38.1757133" lon="15.7155267"><ele>242.0</ele><time>2026-04-21T09:24:42.31Z</time></trkpt><trkpt lat="38.1756283" lon="15.7157683"><ele>242.0</ele><time>2026-04-21T09:24:43.31Z</time></trkpt><trkpt lat="38.1756" lon="15.71603"><ele>248.66666666666669</ele><time>2026-04-21T09:24:44.31Z</time></trkpt><trkpt lat="38.1755333" lon="15.716285"><ele>255.33333333333331</ele><time>2026-04-21T09:24:45.31Z</time></trkpt><trkpt lat="38.1754517" lon="15.7165167"><ele>262.0</ele><time>2026-04-21T09:24:46.31Z</time></trkpt><trkpt lat="38.1753567" lon="15.7167367"><ele>257.0</ele><time>2026-04-21T09:24:47.31Z</time></trkpt><trkpt lat="38.1752433" lon="15.716945"><ele>252.0</ele><time>2026-04-21T09:24:48.31Z</time></trkpt><trkpt lat="38.1751383" lon="15.7171533"><ele>247.0</ele><time>2026-04-21T09:24:49.31Z</time></trkpt><trkpt lat="38.1750467" lon="15.71738"><ele>247.0</ele><time>2026-04-21T09:24:50.31Z</time></trkpt><trkpt lat="38.17498" lon="15.7176067"><ele>247.0</ele><time>2026-04-21T09:24:51.31Z</time></trkpt><trkpt lat="38.174925" lon="15.717835"><ele>247.0</ele><time>2026-04-21T09:24:52.31Z</time></trkpt><trkpt lat="38.1748767" lon="15.71806"><ele>249.33333333333331</ele><time>2026-04-21T09:24:53.31Z</time></trkpt><trkpt lat="38.1748433" lon="15.7182733"><ele>251.66666666666669</ele><time>2026-04-21T09:24:54.31Z</time></trkpt><trkpt lat="38.1748217" lon="15.7184733"><ele>254.0</ele><time>2026-04-21T09:24:55.31Z</time></trkpt><trkpt lat="38.1748017" lon="15.718665"><ele>254.0</ele><time>2026-04-21T09:24:56.31Z</time></trkpt><trkpt lat="38.1747967" lon="15.7188383"><ele>253.99999999999997</ele><time>2026-04-21T09:24:57.31Z</time></trkpt><trkpt lat="38.174785" lon="15.7189917"><ele>253.99999999999997</ele><time>2026-04-21T09:24:58.31Z</time></trkpt><trkpt lat="38.1747667" lon="15.719115"><ele>254.0</ele><time>2026-04-21T09:24:59.31Z</time></trkpt><trkpt lat="38.1747467" lon="15.7192033"><ele>254.0</ele><time>2026-04-21T09:25:00.31Z</time></trkpt><trkpt lat="38.1746667" lon="15.7193183"><ele>254.0</ele><time>2026-04-21T09:25:02.31Z</time></trkpt><trkpt lat="38.17455" lon="15.7193917"><ele>253.99999999999997</ele><time>2026-04-21T09:25:04.31Z</time></trkpt><trkpt lat="38.174485" lon="15.7194567"><ele>253.99999999999997</ele><time>2026-04-21T09:25:05.31Z</time></trkpt><trkpt lat="38.1744467" lon="15.719545"><ele>254.0</ele><time>2026-04-21T09:25:06.31Z</time></trkpt><trkpt lat="38.174435" lon="15.7196733"><ele>254.0</ele><time>2026-04-21T09:25:07.31Z</time></trkpt><trkpt lat="38.174415" lon="15.7198133"><ele>253.25</ele><time>2026-04-21T09:25:08.31Z</time></trkpt><trkpt lat="38.1743667" lon="15.71996"><ele>252.5</ele><time>2026-04-21T09:25:09.31Z</time></trkpt><trkpt lat="38.1742917" lon="15.7200867"><ele>251.75</ele><time>2026-04-21T09:25:10.31Z</time></trkpt><trkpt lat="38.1742083" lon="15.7202217"><ele>251.0</ele><time>2026-04-21T09:25:11.31Z</time></trkpt><trkpt lat="38.17413" lon="15.720365"><ele>251.0</ele><time>2026-04-21T09:25:12.31Z</time></trkpt><trkpt lat="38.1740667" lon="15.7205383"><ele>251.0</ele><time>2026-04-21T09:25:13.31Z</time></trkpt><trkpt lat="38.1740267" lon="15.7207317"><ele>251.0</ele><time>2026-04-21T09:25:14.309Z</time></trkpt><trkpt lat="38.174" lon="15.72093"><ele>251.66666666666669</ele><time>2026-04-21T09:25:15.31Z</time></trkpt><trkpt lat="38.1739917" lon="15.7211367"><ele>252.33333333333331</ele><time>2026-04-21T09:25:16.31Z</time></trkpt><trkpt lat="38.1739883" lon="15.7213567"><ele>253.0</ele><time>2026-04-21T09:25:17.31Z</time></trkpt><trkpt lat="38.1739833" lon="15.7215833"><ele>253.0</ele><time>2026-04-21T09:25:18.31Z</time></trkpt><trkpt lat="38.1739733" lon="15.7218083"><ele>253.0</ele><time>2026-04-21T09:25:19.31Z</time></trkpt><trkpt lat="38.1739433" lon="15.7220267"><ele>253.0</ele><time>2026-04-21T09:25:20.31Z</time></trkpt><trkpt lat="38.1739033" lon="15.7222417"><ele>254.66666666666666</ele><time>2026-04-21T09:25:21.31Z</time></trkpt><trkpt lat="38.1738383" lon="15.7224583"><ele>256.3333333333333</ele><time>2026-04-21T09:25:22.31Z</time></trkpt><trkpt lat="38.1737617" lon="15.7226633"><ele>258.0</ele><time>2026-04-21T09:25:23.31Z</time></trkpt><trkpt lat="38.173675" lon="15.722865"><ele>258.6666666666667</ele><time>2026-04-21T09:25:24.31Z</time></trkpt><trkpt lat="38.1735717" lon="15.72306"><ele>259.33333333333337</ele><time>2026-04-21T09:25:25.31Z</time></trkpt><trkpt lat="38.17345" lon="15.7232567"><ele>260.0</ele><time>2026-04-21T09:25:26.309Z</time></trkpt><trkpt lat="38.1733283" lon="15.7234467"><ele>259.6666666666667</ele><time>2026-04-21T09:25:27.31Z</time></trkpt><trkpt lat="38.1732067" lon="15.7236517"><ele>259.3333333333333</ele><time>2026-04-21T09:25:28.31Z</time></trkpt><trkpt lat="38.1730817" lon="15.7238483"><ele>259.0</ele><time>2026-04-21T09:25:29.31Z</time></trkpt><trkpt lat="38.1729633" lon="15.7240517"><ele>259.0</ele><time>2026-04-21T09:25:30.31Z</time></trkpt><trkpt lat="38.1728417" lon="15.7242417"><ele>259.0</ele><time>2026-04-21T09:25:31.31Z</time></trkpt><trkpt lat="38.172725" lon="15.724435"><ele>259.0</ele><time>2026-04-21T09:25:32.31Z</time></trkpt><trkpt lat="38.1726067" lon="15.7246267"><ele>262.0</ele><time>2026-04-21T09:25:33.309Z</time></trkpt><trkpt lat="38.1724917" lon="15.7248117"><ele>265.0</ele><time>2026-04-21T09:25:34.31Z</time></trkpt><trkpt lat="38.1723733" lon="15.7249933"><ele>268.0</ele><time>2026-04-21T09:25:35.31Z</time></trkpt><trkpt lat="38.17226" lon="15.7251733"><ele>269.66666666666663</ele><time>2026-04-21T09:25:36.31Z</time></trkpt><trkpt lat="38.17214" lon="15.725355"><ele>271.3333333333333</ele><time>2026-04-21T09:25:37.31Z</time></trkpt><trkpt lat="38.17203" lon="15.7255333"><ele>273.0</ele><time>2026-04-21T09:25:38.31Z</time></trkpt><trkpt lat="38.171905" lon="15.725705"><ele>273.0</ele><time>2026-04-21T09:25:39.31Z</time></trkpt><trkpt lat="38.171785" lon="15.725895"><ele>273.0</ele><time>2026-04-21T09:25:40.31Z</time></trkpt><trkpt lat="38.1716667" lon="15.726085"><ele>273.0</ele><time>2026-04-21T09:25:41.31Z</time></trkpt><trkpt lat="38.1715433" lon="15.726265"><ele>274.0</ele><time>2026-04-21T09:25:42.31Z</time></trkpt><trkpt lat="38.17141" lon="15.7264433"><ele>275.0</ele><time>2026-04-21T09:25:43.31Z</time></trkpt><trkpt lat="38.171255" lon="15.7266017"><ele>276.0</ele><time>2026-04-21T09:25:44.31Z</time></trkpt><trkpt lat="38.1710967" lon="15.726755"><ele>276.3333333333333</ele><time>2026-04-21T09:25:45.309Z</time></trkpt><trkpt lat="38.1709367" lon="15.726905"><ele>276.66666666666663</ele><time>2026-04-21T09:25:46.31Z</time></trkpt><trkpt lat="38.1707683" lon="15.7270383"><ele>277.0</ele><time>2026-04-21T09:25:47.31Z</time></trkpt><trkpt lat="38.1706067" lon="15.7271817"><ele>277.0</ele><time>2026-04-21T09:25:48.31Z</time></trkpt><trkpt lat="38.1704533" lon="15.727335"><ele>277.0</ele><time>2026-04-21T09:25:49.31Z</time></trkpt><trkpt lat="38.1703167" lon="15.727505"><ele>277.0</ele><time>2026-04-21T09:25:50.31Z</time></trkpt><trkpt lat="38.1701983" lon="15.727705"><ele>280.0</ele><time>2026-04-21T09:25:51.31Z</time></trkpt><trkpt lat="38.170095" lon="15.727915"><ele>283.0</ele><time>2026-04-21T09:25:52.31Z</time></trkpt><trkpt lat="38.1700117" lon="15.7281317"><ele>286.0</ele><time>2026-04-21T09:25:53.31Z</time></trkpt><trkpt lat="38.16995" lon="15.7283583"><ele>286.0</ele><time>2026-04-21T09:25:54.31Z</time></trkpt><trkpt lat="38.1698833" lon="15.7286033"><ele>286.0</ele><time>2026-04-21T09:25:55.31Z</time></trkpt><trkpt lat="38.1698133" lon="15.728815"><ele>286.0</ele><time>2026-04-21T09:25:56.31Z</time></trkpt><trkpt lat="38.169745" lon="15.7290483"><ele>285.66666666666663</ele><time>2026-04-21T09:25:57.31Z</time></trkpt><trkpt lat="38.169675" lon="15.7292867"><ele>285.3333333333333</ele><time>2026-04-21T09:25:58.31Z</time></trkpt><trkpt lat="38.1695833" lon="15.72955"><ele>285.0</ele><time>2026-04-21T09:25:59.31Z</time></trkpt><trkpt lat="38.1694983" lon="15.72983"><ele>285.0</ele><time>2026-04-21T09:26:00.31Z</time></trkpt><trkpt lat="38.1694067" lon="15.7301117"><ele>285.0</ele><time>2026-04-21T09:26:01.31Z</time></trkpt><trkpt lat="38.1693283" lon="15.7303867"><ele>286.6666666666667</ele><time>2026-04-21T09:26:02.31Z</time></trkpt><trkpt lat="38.16926" lon="15.7306517"><ele>288.33333333333337</ele><time>2026-04-21T09:26:03.31Z</time></trkpt><trkpt lat="38.169205" lon="15.730915"><ele>290.0</ele><time>2026-04-21T09:26:04.31Z</time></trkpt><trkpt lat="38.169185" lon="15.731185"><ele>293.0</ele><time>2026-04-21T09:26:05.31Z</time></trkpt><trkpt lat="38.1691983" lon="15.7314667"><ele>296.0</ele><time>2026-04-21T09:26:06.31Z</time></trkpt><trkpt lat="38.16924" lon="15.7317417"><ele>299.0</ele><time>2026-04-21T09:26:07.31Z</time></trkpt><trkpt lat="38.1692867" lon="15.73201"><ele>299.0</ele><time>2026-04-21T09:26:08.31Z</time></trkpt><trkpt lat="38.1693317" lon="15.732275"><ele>299.0</ele><time>2026-04-21T09:26:09.31Z</time></trkpt><trkpt lat="38.16936" lon="15.73254"><ele>299.0</ele><time>2026-04-21T09:26:10.31Z</time></trkpt><trkpt lat="38.1693617" lon="15.7327983"><ele>299.0</ele><time>2026-04-21T09:26:11.31Z</time></trkpt><trkpt lat="38.1693383" lon="15.733055"><ele>299.0</ele><time>2026-04-21T09:26:12.31Z</time></trkpt><trkpt lat="38.1692733" lon="15.7333017"><ele>299.0</ele><time>2026-04-21T09:26:13.31Z</time></trkpt><trkpt lat="38.16918" lon="15.7335267"><ele>299.33333333333337</ele><time>2026-04-21T09:26:14.31Z</time></trkpt><trkpt lat="38.169055" lon="15.7337367"><ele>299.6666666666667</ele><time>2026-04-21T09:26:15.31Z</time></trkpt><trkpt lat="38.16892" lon="15.73394"><ele>300.0</ele><time>2026-04-21T09:26:16.31Z</time></trkpt><trkpt lat="38.168785" lon="15.7341433"><ele>300.0</ele><time>2026-04-21T09:26:17.31Z</time></trkpt><trkpt lat="38.168645" lon="15.7343433"><ele>300.0</ele><time>2026-04-21T09:26:18.31Z</time></trkpt><trkpt lat="38.1685167" lon="15.7345583"><ele>300.0</ele><time>2026-04-21T09:26:19.31Z</time></trkpt><trkpt lat="38.1683983" lon="15.73479"><ele>302.6666666666667</ele><time>2026-04-21T09:26:20.31Z</time></trkpt><trkpt lat="38.1683033" lon="15.7350333"><ele>305.33333333333337</ele><time>2026-04-21T09:26:21.31Z</time></trkpt><trkpt lat="38.16823" lon="15.73529"><ele>308.0</ele><time>2026-04-21T09:26:22.31Z</time></trkpt><trkpt lat="38.1681767" lon="15.7355667"><ele>315.33333333333337</ele><time>2026-04-21T09:26:23.31Z</time></trkpt><trkpt lat="38.168155" lon="15.735845"><ele>322.6666666666667</ele><time>2026-04-21T09:26:24.31Z</time></trkpt><trkpt lat="38.1681683" lon="15.7361183"><ele>330.0</ele><time>2026-04-21T09:26:25.31Z</time></trkpt><trkpt lat="38.1681867" lon="15.7363883"><ele>328.3333333333333</ele><time>2026-04-21T09:26:26.31Z</time></trkpt><trkpt lat="38.168215" lon="15.73666"><ele>326.66666666666663</ele><time>2026-04-21T09:26:27.31Z</time></trkpt><trkpt lat="38.1682433" lon="15.7369333"><ele>325.0</ele><time>2026-04-21T09:26:28.31Z</time></trkpt><trkpt lat="38.1682783" lon="15.7372067"><ele>324.3333333333333</ele><time>2026-04-21T09:26:29.31Z</time></trkpt><trkpt lat="38.168315" lon="15.7374783"><ele>323.6666666666667</ele><time>2026-04-21T09:26:30.31Z</time></trkpt><trkpt lat="38.168345" lon="15.73774"><ele>323.0</ele><time>2026-04-21T09:26:31.31Z</time></trkpt><trkpt lat="38.1683717" lon="15.7380083"><ele>322.33333333333337</ele><time>2026-04-21T09:26:32.31Z</time></trkpt><trkpt lat="38.168405" lon="15.7382817"><ele>321.6666666666667</ele><time>2026-04-21T09:26:33.31Z</time></trkpt><trkpt lat="38.1684383" lon="15.738545"><ele>321.0</ele><time>2026-04-21T09:26:34.31Z</time></trkpt><trkpt lat="38.168475" lon="15.738815"><ele>321.0</ele><time>2026-04-21T09:26:35.31Z</time></trkpt><trkpt lat="38.1684983" lon="15.7390817"><ele>321.0</ele><time>2026-04-21T09:26:36.31Z</time></trkpt><trkpt lat="38.1685283" lon="15.7393467"><ele>321.0</ele><time>2026-04-21T09:26:37.309Z</time></trkpt><trkpt lat="38.1685617" lon="15.73962"><ele>323.6666666666667</ele><time>2026-04-21T09:26:38.31Z</time></trkpt><trkpt lat="38.1685967" lon="15.7398867"><ele>326.33333333333337</ele><time>2026-04-21T09:26:39.31Z</time></trkpt><trkpt lat="38.168625" lon="15.7401517"><ele>329.0</ele><time>2026-04-21T09:26:40.31Z</time></trkpt><trkpt lat="38.1686583" lon="15.7404183"><ele>330.0</ele><time>2026-04-21T09:26:41.31Z</time></trkpt><trkpt lat="38.1686883" lon="15.7406867"><ele>331.0</ele><time>2026-04-21T09:26:42.309Z</time></trkpt><trkpt lat="38.16871" lon="15.740955"><ele>332.0</ele><time>2026-04-21T09:26:43.31Z</time></trkpt><trkpt lat="38.1687217" lon="15.7412333"><ele>332.0</ele><time>2026-04-21T09:26:44.309Z</time></trkpt><trkpt lat="38.1687233" lon="15.74151"><ele>332.0</ele><time>2026-04-21T09:26:45.31Z</time></trkpt><trkpt lat="38.1687217" lon="15.7417783"><ele>332.0</ele><time>2026-04-21T09:26:46.31Z</time></trkpt><trkpt lat="38.1687133" lon="15.74205"><ele>336.0</ele><time>2026-04-21T09:26:47.31Z</time></trkpt><trkpt lat="38.1686717" lon="15.7423067"><ele>340.0</ele><time>2026-04-21T09:26:48.31Z</time></trkpt><trkpt lat="38.1686117" lon="15.742565"><ele>344.0</ele><time>2026-04-21T09:26:49.31Z</time></trkpt><trkpt lat="38.16853" lon="15.7428117"><ele>346.0</ele><time>2026-04-21T09:26:50.309Z</time></trkpt><trkpt lat="38.1684333" lon="15.7430583"><ele>348.0</ele><time>2026-04-21T09:26:51.31Z</time></trkpt><trkpt lat="38.16832" lon="15.743305"><ele>350.0</ele><time>2026-04-21T09:26:52.31Z</time></trkpt><trkpt lat="38.1681933" lon="15.743555"><ele>362.5</ele><time>2026-04-21T09:26:53.31Z</time></trkpt><trkpt lat="38.1680733" lon="15.7438"><ele>375.0</ele><time>2026-04-21T09:26:54.31Z</time></trkpt><trkpt lat="38.1679517" lon="15.744055"><ele>375.0</ele><time>2026-04-21T09:26:55.31Z</time></trkpt><trkpt lat="38.167835" lon="15.7443"><ele>375.0</ele><time>2026-04-21T09:26:56.31Z</time></trkpt><trkpt lat="38.16772" lon="15.7445333"><ele>375.0</ele><time>2026-04-21T09:26:57.31Z</time></trkpt><trkpt lat="38.167605" lon="15.744785"><ele>373.5</ele><time>2026-04-21T09:26:58.31Z</time></trkpt><trkpt lat="38.1674983" lon="15.7450417"><ele>372.0</ele><time>2026-04-21T09:26:59.31Z</time></trkpt><trkpt lat="38.1674083" lon="15.7453167"><ele>375.0</ele><time>2026-04-21T09:27:00.31Z</time></trkpt><trkpt lat="38.1673333" lon="15.7455917"><ele>378.0</ele><time>2026-04-21T09:27:01.31Z</time></trkpt><trkpt lat="38.1672817" lon="15.7458767"><ele>381.0</ele><time>2026-04-21T09:27:02.31Z</time></trkpt><trkpt lat="38.1672417" lon="15.7461683"><ele>384.0</ele><time>2026-04-21T09:27:03.31Z</time></trkpt><trkpt lat="38.167215" lon="15.74646"><ele>384.0</ele><time>2026-04-21T09:27:04.31Z</time></trkpt><trkpt lat="38.167195" lon="15.7467567"><ele>384.0</ele><time>2026-04-21T09:27:05.31Z</time></trkpt><trkpt lat="38.1671717" lon="15.74707"><ele>385.5</ele><time>2026-04-21T09:27:06.31Z</time></trkpt><trkpt lat="38.1671533" lon="15.7474067"><ele>387.0</ele><time>2026-04-21T09:27:07.31Z</time></trkpt><trkpt lat="38.1671383" lon="15.7477517"><ele>384.0</ele><time>2026-04-21T09:27:08.31Z</time></trkpt><trkpt lat="38.1671133" lon="15.7481117"><ele>381.0</ele><time>2026-04-21T09:27:09.31Z</time></trkpt><trkpt lat="38.167095" lon="15.7484867"><ele>379.0</ele><time>2026-04-21T09:27:10.31Z</time></trkpt><trkpt lat="38.1670717" lon="15.7488667"><ele>377.0</ele><time>2026-04-21T09:27:11.31Z</time></trkpt><trkpt lat="38.16705" lon="15.7492433"><ele>381.0</ele><time>2026-04-21T09:27:12.309Z</time></trkpt><trkpt lat="38.1670333" lon="15.749605"><ele>385.0</ele><time>2026-04-21T09:27:13.31Z</time></trkpt><trkpt lat="38.1670233" lon="15.74996"><ele>389.0</ele><time>2026-04-21T09:27:14.31Z</time></trkpt><trkpt lat="38.167" lon="15.7503"><ele>393.0</ele><time>2026-04-21T09:27:15.31Z</time></trkpt><trkpt lat="38.1669667" lon="15.750615"><ele>393.0</ele><time>2026-04-21T09:27:16.31Z</time></trkpt><trkpt lat="38.1669483" lon="15.750915"><ele>393.0</ele><time>2026-04-21T09:27:17.31Z</time></trkpt><trkpt lat="38.166935" lon="15.7511917"><ele>391.66666666666663</ele><time>2026-04-21T09:27:18.31Z</time></trkpt><trkpt lat="38.1669083" lon="15.751455"><ele>390.3333333333333</ele><time>2026-04-21T09:27:19.31Z</time></trkpt><trkpt lat="38.1668683" lon="15.7517167"><ele>389.0</ele><time>2026-04-21T09:27:20.31Z</time></trkpt><trkpt lat="38.1668217" lon="15.7519783"><ele>391.66666666666663</ele><time>2026-04-21T09:27:21.31Z</time></trkpt><trkpt lat="38.1667567" lon="15.75222"><ele>394.33333333333337</ele><time>2026-04-21T09:27:22.31Z</time></trkpt><trkpt lat="38.1666733" lon="15.7524533"><ele>397.0</ele><time>2026-04-21T09:27:23.31Z</time></trkpt><trkpt lat="38.166575" lon="15.7526833"><ele>406.6666666666667</ele><time>2026-04-21T09:27:24.31Z</time></trkpt><trkpt lat="38.1664717" lon="15.75291"><ele>416.33333333333337</ele><time>2026-04-21T09:27:25.31Z</time></trkpt><trkpt lat="38.166375" lon="15.7531533"><ele>426.0</ele><time>2026-04-21T09:27:26.31Z</time></trkpt><trkpt lat="38.1662867" lon="15.75342"><ele>424.5</ele><time>2026-04-21T09:27:27.31Z</time></trkpt><trkpt lat="38.1662183" lon="15.7537067"><ele>423.0</ele><time>2026-04-21T09:27:28.31Z</time></trkpt><trkpt lat="38.1661717" lon="15.75402"><ele>423.0</ele><time>2026-04-21T09:27:29.309Z</time></trkpt><trkpt lat="38.166155" lon="15.7543467"><ele>423.0</ele><time>2026-04-21T09:27:30.31Z</time></trkpt><trkpt lat="38.166145" lon="15.7546683"><ele>418.33333333333337</ele><time>2026-04-21T09:27:31.31Z</time></trkpt><trkpt lat="38.16613" lon="15.7549583"><ele>413.6666666666667</ele><time>2026-04-21T09:27:32.31Z</time></trkpt><trkpt lat="38.166095" lon="15.7552267"><ele>409.0</ele><time>2026-04-21T09:27:33.309Z</time></trkpt><trkpt lat="38.1660483" lon="15.7554783"><ele>408.33333333333337</ele><time>2026-04-21T09:27:34.31Z</time></trkpt><trkpt lat="38.1659817" lon="15.7557283"><ele>407.66666666666663</ele><time>2026-04-21T09:27:35.31Z</time></trkpt><trkpt lat="38.1659167" lon="15.755995"><ele>407.0</ele><time>2026-04-21T09:27:36.31Z</time></trkpt><trkpt lat="38.1658467" lon="15.7562783"><ele>411.0</ele><time>2026-04-21T09:27:37.31Z</time></trkpt><trkpt lat="38.1657767" lon="15.7565783"><ele>415.0</ele><time>2026-04-21T09:27:38.31Z</time></trkpt><trkpt lat="38.1657017" lon="15.75687"><ele>424.5</ele><time>2026-04-21T09:27:39.31Z</time></trkpt><trkpt lat="38.1656267" lon="15.7571533"><ele>434.0</ele><time>2026-04-21T09:27:40.31Z</time></trkpt><trkpt lat="38.1655733" lon="15.7574267"><ele>434.0</ele><time>2026-04-21T09:27:41.31Z</time></trkpt><trkpt lat="38.1655183" lon="15.75767"><ele>434.0</ele><time>2026-04-21T09:27:42.31Z</time></trkpt><trkpt lat="38.16547" lon="15.7579133"><ele>434.0</ele><time>2026-04-21T09:27:43.31Z</time></trkpt><trkpt lat="38.1654383" lon="15.7581683"><ele>437.66666666666663</ele><time>2026-04-21T09:27:44.31Z</time></trkpt><trkpt lat="38.165415" lon="15.7584317"><ele>441.33333333333337</ele><time>2026-04-21T09:27:45.31Z</time></trkpt><trkpt lat="38.1653983" lon="15.7587133"><ele>445.0</ele><time>2026-04-21T09:27:46.31Z</time></trkpt><trkpt lat="38.1653933" lon="15.7590033"><ele>449.5</ele><time>2026-04-21T09:27:47.31Z</time></trkpt><trkpt lat="38.1654083" lon="15.7593083"><ele>454.0</ele><time>2026-04-21T09:27:48.309Z</time></trkpt><trkpt lat="38.165435" lon="15.7596217"><ele>457.0</ele><time>2026-04-21T09:27:49.31Z</time></trkpt><trkpt lat="38.1654617" lon="15.7599367"><ele>460.0</ele><time>2026-04-21T09:27:50.31Z</time></trkpt><trkpt lat="38.1654917" lon="15.7602583"><ele>461.0</ele><time>2026-04-21T09:27:51.31Z</time></trkpt><trkpt lat="38.1655217" lon="15.76056"><ele>462.0</ele><time>2026-04-21T09:27:52.31Z</time></trkpt><trkpt lat="38.165555" lon="15.7608417"><ele>464.0</ele><time>2026-04-21T09:27:53.31Z</time></trkpt><trkpt lat="38.1655883" lon="15.7611033"><ele>466.0</ele><time>2026-04-21T09:27:54.31Z</time></trkpt><trkpt lat="38.165615" lon="15.761345"><ele>468.0</ele><time>2026-04-21T09:27:55.31Z</time></trkpt><trkpt lat="38.1656367" lon="15.7615833"><ele>468.0</ele><time>2026-04-21T09:27:56.31Z</time></trkpt><trkpt lat="38.1656617" lon="15.76182"><ele>468.0</ele><time>2026-04-21T09:27:57.31Z</time></trkpt><trkpt lat="38.1656817" lon="15.7620567"><ele>468.0</ele><time>2026-04-21T09:27:58.31Z</time></trkpt><trkpt lat="38.165705" lon="15.7622667"><ele>463.25</ele><time>2026-04-21T09:27:59.309Z</time></trkpt><trkpt lat="38.1657233" lon="15.76245"><ele>458.5</ele><time>2026-04-21T09:28:00.31Z</time></trkpt><trkpt lat="38.1657417" lon="15.762625"><ele>453.75</ele><time>2026-04-21T09:28:01.31Z</time></trkpt><trkpt lat="38.1657583" lon="15.7627917"><ele>449.0</ele><time>2026-04-21T09:28:02.31Z</time></trkpt><trkpt lat="38.1657717" lon="15.7629467"><ele>449.0</ele><time>2026-04-21T09:28:03.31Z</time></trkpt><trkpt lat="38.1657683" lon="15.76309"><ele>449.0</ele><time>2026-04-21T09:28:04.31Z</time></trkpt><trkpt lat="38.1657617" lon="15.7632117"><ele>449.0</ele><time>2026-04-21T09:28:05.31Z</time></trkpt><trkpt lat="38.1657767" lon="15.76334"><ele>449.0</ele><time>2026-04-21T09:28:06.31Z</time></trkpt><trkpt lat="38.16581" lon="15.7634833"><ele>449.0</ele><time>2026-04-21T09:28:07.31Z</time></trkpt><trkpt lat="38.1658583" lon="15.7636367"><ele>453.5</ele><time>2026-04-21T09:28:08.31Z</time></trkpt><trkpt lat="38.1659033" lon="15.7638"><ele>458.0</ele><time>2026-04-21T09:28:09.31Z</time></trkpt><trkpt lat="38.1659517" lon="15.7639717"><ele>462.5</ele><time>2026-04-21T09:28:10.31Z</time></trkpt><trkpt lat="38.166005" lon="15.764135"><ele>467.0</ele><time>2026-04-21T09:28:11.31Z</time></trkpt><trkpt lat="38.1660867" lon="15.7642867"><ele>476.0</ele><time>2026-04-21T09:28:12.31Z</time></trkpt><trkpt lat="38.1661917" lon="15.7644133"><ele>485.0</ele><time>2026-04-21T09:28:13.31Z</time></trkpt><trkpt lat="38.1663333" lon="15.76451"><ele>494.0</ele><time>2026-04-21T09:28:14.31Z</time></trkpt><trkpt lat="38.1664867" lon="15.7645583"><ele>484.66666666666663</ele><time>2026-04-21T09:28:15.31Z</time></trkpt><trkpt lat="38.1666383" lon="15.7645733"><ele>475.33333333333337</ele><time>2026-04-21T09:28:16.31Z</time></trkpt><trkpt lat="38.1667967" lon="15.7645767"><ele>466.0</ele><time>2026-04-21T09:28:17.309Z</time></trkpt><trkpt lat="38.1669617" lon="15.7645683"><ele>466.0</ele><time>2026-04-21T09:28:18.31Z</time></trkpt><trkpt lat="38.16711" lon="15.7645667"><ele>466.0</ele><time>2026-04-21T09:28:19.31Z</time></trkpt><trkpt lat="38.1672583" lon="15.7645683"><ele>466.0</ele><time>2026-04-21T09:28:20.31Z</time></trkpt><trkpt lat="38.1674133" lon="15.7645917"><ele>465.0</ele><time>2026-04-21T09:28:21.31Z</time></trkpt><trkpt lat="38.1675483" lon="15.7646383"><ele>464.0</ele><time>2026-04-21T09:28:22.31Z</time></trkpt><trkpt lat="38.1676733" lon="15.76473"><ele>463.0</ele><time>2026-04-21T09:28:23.31Z</time></trkpt><trkpt lat="38.16778" lon="15.764875"><ele>462.0</ele><time>2026-04-21T09:28:24.31Z</time></trkpt><trkpt lat="38.1678667" lon="15.7650633"><ele>464.66666666666663</ele><time>2026-04-21T09:28:25.309Z</time></trkpt><trkpt lat="38.167935" lon="15.7652733"><ele>467.3333333333333</ele><time>2026-04-21T09:28:26.31Z</time></trkpt><trkpt lat="38.1680017" lon="15.7654683"><ele>470.0</ele><time>2026-04-21T09:28:27.31Z</time></trkpt><trkpt lat="38.1680933" lon="15.7656433"><ele>472.66666666666663</ele><time>2026-04-21T09:28:28.31Z</time></trkpt><trkpt lat="38.1682183" lon="15.7657783"><ele>475.33333333333337</ele><time>2026-04-21T09:28:29.31Z</time></trkpt><trkpt lat="38.1683617" lon="15.7658733"><ele>478.0</ele><time>2026-04-21T09:28:30.31Z</time></trkpt><trkpt lat="38.16852" lon="15.7659367"><ele>478.0</ele><time>2026-04-21T09:28:31.31Z</time></trkpt><trkpt lat="38.168665" lon="15.76599"><ele>478.0</ele><time>2026-04-21T09:28:32.31Z</time></trkpt><trkpt lat="38.1687883" lon="15.76607"><ele>478.0</ele><time>2026-04-21T09:28:33.309Z</time></trkpt><trkpt lat="38.1688883" lon="15.7661683"><ele>478.0</ele><time>2026-04-21T09:28:34.309Z</time></trkpt><trkpt lat="38.1689567" lon="15.766295"><ele>479.25</ele><time>2026-04-21T09:28:35.31Z</time></trkpt><trkpt lat="38.16902" lon="15.7664383"><ele>480.5</ele><time>2026-04-21T09:28:36.31Z</time></trkpt><trkpt lat="38.169085" lon="15.76659"><ele>481.75</ele><time>2026-04-21T09:28:37.309Z</time></trkpt><trkpt lat="38.16916" lon="15.7667433"><ele>483.0</ele><time>2026-04-21T09:28:38.31Z</time></trkpt><trkpt lat="38.1692367" lon="15.7669117"><ele>487.0</ele><time>2026-04-21T09:28:39.31Z</time></trkpt><trkpt lat="38.1693167" lon="15.7670867"><ele>491.0</ele><time>2026-04-21T09:28:40.31Z</time></trkpt><trkpt lat="38.1694067" lon="15.76727"><ele>495.0</ele><time>2026-04-21T09:28:41.31Z</time></trkpt><trkpt lat="38.1694667" lon="15.7674517"><ele>495.0</ele><time>2026-04-21T09:28:42.31Z</time></trkpt><trkpt lat="38.1695283" lon="15.7676333"><ele>495.0</ele><time>2026-04-21T09:28:43.31Z</time></trkpt><trkpt lat="38.1695633" lon="15.7678283"><ele>495.0</ele><time>2026-04-21T09:28:44.31Z</time></trkpt><trkpt lat="38.16957" lon="15.7680367"><ele>498.0</ele><time>2026-04-21T09:28:45.31Z</time></trkpt><trkpt lat="38.169545" lon="15.7682567"><ele>501.0</ele><time>2026-04-21T09:28:46.31Z</time></trkpt><trkpt lat="38.16951" lon="15.7684733"><ele>504.0</ele><time>2026-04-21T09:28:47.31Z</time></trkpt><trkpt lat="38.1694467" lon="15.76869"><ele>508.33333333333337</ele><time>2026-04-21T09:28:48.31Z</time></trkpt><trkpt lat="38.169355" lon="15.7688617"><ele>512.6666666666667</ele><time>2026-04-21T09:28:49.31Z</time></trkpt><trkpt lat="38.16927" lon="15.76904"><ele>517.0</ele><time>2026-04-21T09:28:50.31Z</time></trkpt><trkpt lat="38.16921" lon="15.7692233"><ele>519.6666666666667</ele><time>2026-04-21T09:28:51.31Z</time></trkpt><trkpt lat="38.1691683" lon="15.7694033"><ele>522.3333333333334</ele><time>2026-04-21T09:28:52.309Z</time></trkpt><trkpt lat="38.1691617" lon="15.7695933"><ele>525.0</ele><time>2026-04-21T09:28:53.31Z</time></trkpt><trkpt lat="38.1691933" lon="15.7697967"><ele>525.0</ele><time>2026-04-21T09:28:54.31Z</time></trkpt><trkpt lat="38.1692517" lon="15.7699817"><ele>525.0</ele><time>2026-04-21T09:28:55.31Z</time></trkpt><trkpt lat="38.16932" lon="15.770165"><ele>525.0</ele><time>2026-04-21T09:28:56.31Z</time></trkpt><trkpt lat="38.1693917" lon="15.770335"><ele>526.0</ele><time>2026-04-21T09:28:57.31Z</time></trkpt><trkpt lat="38.169445" lon="15.7705033"><ele>527.0</ele><time>2026-04-21T09:28:58.31Z</time></trkpt><trkpt lat="38.16947" lon="15.770665"><ele>528.0</ele><time>2026-04-21T09:28:59.31Z</time></trkpt><trkpt lat="38.16947" lon="15.7708133"><ele>529.0</ele><time>2026-04-21T09:29:00.31Z</time></trkpt><trkpt lat="38.1694567" lon="15.770945"><ele>531.6</ele><time>2026-04-21T09:29:01.31Z</time></trkpt><trkpt lat="38.16943" lon="15.77105"><ele>534.2</ele><time>2026-04-21T09:29:02.31Z</time></trkpt><trkpt lat="38.169395" lon="15.7711533"><ele>536.8000000000001</ele><time>2026-04-21T09:29:03.31Z</time></trkpt><trkpt lat="38.169355" lon="15.7712617"><ele>539.4</ele><time>2026-04-21T09:29:04.31Z</time></trkpt><trkpt lat="38.16933" lon="15.77139"><ele>542.0</ele><time>2026-04-21T09:29:05.31Z</time></trkpt><trkpt lat="38.16931" lon="15.77155"><ele>542.0</ele><time>2026-04-21T09:29:06.31Z</time></trkpt><trkpt lat="38.1692817" lon="15.77171"><ele>542.0</ele><time>2026-04-21T09:29:07.309Z</time></trkpt><trkpt lat="38.1692383" lon="15.7718733"><ele>542.0</ele><time>2026-04-21T09:29:08.31Z</time></trkpt><trkpt lat="38.1691833" lon="15.77205"><ele>542.0</ele><time>2026-04-21T09:29:09.31Z</time></trkpt><trkpt lat="38.1691" lon="15.772205"><ele>537.6666666666666</ele><time>2026-04-21T09:29:10.309Z</time></trkpt><trkpt lat="38.1689767" lon="15.7723517"><ele>533.3333333333334</ele><time>2026-04-21T09:29:11.31Z</time></trkpt><trkpt lat="38.1688567" lon="15.772495"><ele>529.0</ele><time>2026-04-21T09:29:12.31Z</time></trkpt><trkpt lat="38.16873" lon="15.7726383"><ele>535.3333333333334</ele><time>2026-04-21T09:29:13.31Z</time></trkpt><trkpt lat="38.1686133" lon="15.7727883"><ele>541.6666666666666</ele><time>2026-04-21T09:29:14.309Z</time></trkpt><trkpt lat="38.1685117" lon="15.7729583"><ele>548.0</ele><time>2026-04-21T09:29:15.309Z</time></trkpt><trkpt lat="38.168415" lon="15.7731283"><ele>548.0</ele><time>2026-04-21T09:29:16.31Z</time></trkpt><trkpt lat="38.1683333" lon="15.7733117"><ele>548.0</ele><time>2026-04-21T09:29:17.31Z</time></trkpt><trkpt lat="38.16826" lon="15.77351"><ele>548.0</ele><time>2026-04-21T09:29:18.309Z</time></trkpt><trkpt lat="38.1681983" lon="15.773715"><ele>545.0</ele><time>2026-04-21T09:29:19.31Z</time></trkpt><trkpt lat="38.1681383" lon="15.77394"><ele>542.0</ele><time>2026-04-21T09:29:20.31Z</time></trkpt><trkpt lat="38.1680767" lon="15.77416"><ele>539.0</ele><time>2026-04-21T09:29:21.31Z</time></trkpt><trkpt lat="38.1680133" lon="15.7743883"><ele>539.0</ele><time>2026-04-21T09:29:22.309Z</time></trkpt><trkpt lat="38.1679583" lon="15.77462"><ele>539.0</ele><time>2026-04-21T09:29:23.309Z</time></trkpt><trkpt lat="38.1679" lon="15.7748567"><ele>539.0</ele><time>2026-04-21T09:29:24.31Z</time></trkpt><trkpt lat="38.16784" lon="15.7751"><ele>541.3333333333333</ele><time>2026-04-21T09:29:25.31Z</time></trkpt><trkpt lat="38.167775" lon="15.77535"><ele>543.6666666666666</ele><time>2026-04-21T09:29:26.31Z</time></trkpt><trkpt lat="38.1677133" lon="15.7755933"><ele>546.0</ele><time>2026-04-21T09:29:27.31Z</time></trkpt><trkpt lat="38.16765" lon="15.775815"><ele>546.0</ele><time>2026-04-21T09:29:28.31Z</time></trkpt><trkpt lat="38.1675967" lon="15.7760167"><ele>546.0</ele><time>2026-04-21T09:29:29.31Z</time></trkpt><trkpt lat="38.1675467" lon="15.7762"><ele>546.0</ele><time>2026-04-21T09:29:30.31Z</time></trkpt><trkpt lat="38.1675067" lon="15.7763667"><ele>547.5</ele><time>2026-04-21T09:29:31.31Z</time></trkpt><trkpt lat="38.1674717" lon="15.776515"><ele>549.0</ele><time>2026-04-21T09:29:32.31Z</time></trkpt><trkpt lat="38.1674417" lon="15.776655"><ele>550.5</ele><time>2026-04-21T09:29:33.31Z</time></trkpt><trkpt lat="38.1673983" lon="15.7767767"><ele>552.0</ele><time>2026-04-21T09:29:34.309Z</time></trkpt><trkpt lat="38.1673417" lon="15.776905"><ele>552.0</ele><time>2026-04-21T09:29:35.31Z</time></trkpt><trkpt lat="38.1672733" lon="15.7770317"><ele>552.0</ele><time>2026-04-21T09:29:36.31Z</time></trkpt><trkpt lat="38.1671983" lon="15.77717"><ele>552.0</ele><time>2026-04-21T09:29:37.31Z</time></trkpt><trkpt lat="38.167115" lon="15.7773117"><ele>552.0</ele><time>2026-04-21T09:29:38.31Z</time></trkpt><trkpt lat="38.1670417" lon="15.77745"><ele>552.0</ele><time>2026-04-21T09:29:39.309Z</time></trkpt><trkpt lat="38.1669683" lon="15.7775717"><ele>552.0</ele><time>2026-04-21T09:29:40.31Z</time></trkpt><trkpt lat="38.1669083" lon="15.777695"><ele>552.0</ele><time>2026-04-21T09:29:41.31Z</time></trkpt><trkpt lat="38.1668683" lon="15.7778267"><ele>552.0</ele><time>2026-04-21T09:29:42.31Z</time></trkpt><trkpt lat="38.166855" lon="15.77797"><ele>553.75</ele><time>2026-04-21T09:29:43.31Z</time></trkpt><trkpt lat="38.1668783" lon="15.7781233"><ele>555.5</ele><time>2026-04-21T09:29:44.31Z</time></trkpt><trkpt lat="38.1669267" lon="15.7782733"><ele>557.25</ele><time>2026-04-21T09:29:45.31Z</time></trkpt><trkpt lat="38.1669833" lon="15.7784183"><ele>559.0</ele><time>2026-04-21T09:29:46.31Z</time></trkpt><trkpt lat="38.167045" lon="15.77855"><ele>561.25</ele><time>2026-04-21T09:29:47.31Z</time></trkpt><trkpt lat="38.1671017" lon="15.7786817"><ele>563.5</ele><time>2026-04-21T09:29:48.31Z</time></trkpt><trkpt lat="38.167165" lon="15.7788"><ele>565.75</ele><time>2026-04-21T09:29:49.31Z</time></trkpt><trkpt lat="38.167245" lon="15.7789067"><ele>568.0</ele><time>2026-04-21T09:29:50.31Z</time></trkpt><trkpt lat="38.16733" lon="15.7789933"><ele>571.8</ele><time>2026-04-21T09:29:51.31Z</time></trkpt><trkpt lat="38.167425" lon="15.7790733"><ele>575.5999999999999</ele><time>2026-04-21T09:29:52.31Z</time></trkpt><trkpt lat="38.1675117" lon="15.7791683"><ele>579.4000000000001</ele><time>2026-04-21T09:29:53.31Z</time></trkpt><trkpt lat="38.167585" lon="15.7792783"><ele>583.2</ele><time>2026-04-21T09:29:54.31Z</time></trkpt><trkpt lat="38.1676267" lon="15.7793917"><ele>587.0</ele><time>2026-04-21T09:29:55.309Z</time></trkpt><trkpt lat="38.1676583" lon="15.7794933"><ele>586.5</ele><time>2026-04-21T09:29:56.31Z</time></trkpt><trkpt lat="38.1676567" lon="15.7796317"><ele>586.0</ele><time>2026-04-21T09:29:58.31Z</time></trkpt><trkpt lat="38.1675383" lon="15.7797117"><ele>585.5</ele><time>2026-04-21T09:30:00.31Z</time></trkpt><trkpt lat="38.1674633" lon="15.7797383"><ele>585.0</ele><time>2026-04-21T09:30:01.309Z</time></trkpt><trkpt lat="38.167335" lon="15.7797083"><ele>585.0</ele><time>2026-04-21T09:30:03.308Z</time></trkpt><trkpt lat="38.1672467" lon="15.7796567"><ele>585.0</ele><time>2026-04-21T09:30:04.309Z</time></trkpt><trkpt lat="38.16716" lon="15.7796"><ele>585.0</ele><time>2026-04-21T09:30:05.309Z</time></trkpt><trkpt lat="38.1670617" lon="15.77957"><ele>585.0</ele><time>2026-04-21T09:30:06.309Z</time></trkpt><trkpt lat="38.166955" lon="15.7795767"><ele>585.0</ele><time>2026-04-21T09:30:07.309Z</time></trkpt><trkpt lat="38.16684" lon="15.7796333"><ele>585.0</ele><time>2026-04-21T09:30:08.309Z</time></trkpt><trkpt lat="38.166725" lon="15.7797233"><ele>585.0</ele><time>2026-04-21T09:30:09.309Z</time></trkpt><trkpt lat="38.1666117" lon="15.779835"><ele>585.0</ele><time>2026-04-21T09:30:10.308Z</time></trkpt><trkpt lat="38.1665067" lon="15.7799483"><ele>585.0</ele><time>2026-04-21T09:30:11.309Z</time></trkpt><trkpt lat="38.1664267" lon="15.7800667"><ele>580.25</ele><time>2026-04-21T09:30:12.309Z</time></trkpt><trkpt lat="38.1663717" lon="15.7801967"><ele>575.5</ele><time>2026-04-21T09:30:13.309Z</time></trkpt><trkpt lat="38.1663317" lon="15.7803417"><ele>570.75</ele><time>2026-04-21T09:30:14.309Z</time></trkpt><trkpt lat="38.1662983" lon="15.7805267"><ele>566.0</ele><time>2026-04-21T09:30:15.309Z</time></trkpt><trkpt lat="38.1662517" lon="15.7807183"><ele>566.0</ele><time>2026-04-21T09:30:16.309Z</time></trkpt><trkpt lat="38.166215" lon="15.780925"><ele>566.0</ele><time>2026-04-21T09:30:17.309Z</time></trkpt><trkpt lat="38.16618" lon="15.7811317"><ele>566.0</ele><time>2026-04-21T09:30:18.309Z</time></trkpt><trkpt lat="38.1661417" lon="15.7813383"><ele>569.3333333333333</ele><time>2026-04-21T09:30:19.309Z</time></trkpt><trkpt lat="38.1661167" lon="15.781555"><ele>572.6666666666666</ele><time>2026-04-21T09:30:20.309Z</time></trkpt><trkpt lat="38.1661133" lon="15.781775"><ele>576.0</ele><time>2026-04-21T09:30:21.309Z</time></trkpt><trkpt lat="38.1661217" lon="15.7819883"><ele>578.0</ele><time>2026-04-21T09:30:22.308Z</time></trkpt><trkpt lat="38.1661383" lon="15.7821733"><ele>580.0</ele><time>2026-04-21T09:30:23.309Z</time></trkpt><trkpt lat="38.1661483" lon="15.7823233"><ele>582.0</ele><time>2026-04-21T09:30:24.308Z</time></trkpt><trkpt lat="38.1661583" lon="15.7824567"><ele>584.0</ele><time>2026-04-21T09:30:25.309Z</time></trkpt><trkpt lat="38.16615" lon="15.782575"><ele>584.0</ele><time>2026-04-21T09:30:26.309Z</time></trkpt><trkpt lat="38.1661433" lon="15.782675"><ele>584.0</ele><time>2026-04-21T09:30:27.309Z</time></trkpt><trkpt lat="38.1661567" lon="15.7828233"><ele>584.0</ele><time>2026-04-21T09:30:29.309Z</time></trkpt><trkpt lat="38.1662467" lon="15.7829117"><ele>584.0</ele><time>2026-04-21T09:30:31.309Z</time></trkpt><trkpt lat="38.1663567" lon="15.7828533"><ele>584.0</ele><time>2026-04-21T09:30:33.309Z</time></trkpt><trkpt lat="38.1663867" lon="15.7827367"><ele>584.0</ele><time>2026-04-21T09:30:34.309Z</time></trkpt><trkpt lat="38.1663933" lon="15.7825667"><ele>584.0</ele><time>2026-04-21T09:30:35.309Z</time></trkpt><trkpt lat="38.1664033" lon="15.7823633"><ele>584.0</ele><time>2026-04-21T09:30:36.308Z</time></trkpt><trkpt lat="38.16642" lon="15.7821517"><ele>584.0</ele><time>2026-04-21T09:30:37.309Z</time></trkpt><trkpt lat="38.1664467" lon="15.7819717"><ele>584.0</ele><time>2026-04-21T09:30:38.308Z</time></trkpt><trkpt lat="38.16647" lon="15.781815"><ele>584.0</ele><time>2026-04-21T09:30:39.309Z</time></trkpt><trkpt lat="38.1664967" lon="15.7816633"><ele>584.0</ele><time>2026-04-21T09:30:40.309Z</time></trkpt><trkpt lat="38.1665517" lon="15.7815033"><ele>587.5</ele><time>2026-04-21T09:30:41.309Z</time></trkpt><trkpt lat="38.16662" lon="15.7813583"><ele>591.0</ele><time>2026-04-21T09:30:42.309Z</time></trkpt><trkpt lat="38.1666883" lon="15.781225"><ele>594.5</ele><time>2026-04-21T09:30:43.309Z</time></trkpt><trkpt lat="38.1667533" lon="15.7811083"><ele>598.0</ele><time>2026-04-21T09:30:44.309Z</time></trkpt><trkpt lat="38.1668283" lon="15.781005"><ele>598.0</ele><time>2026-04-21T09:30:45.309Z</time></trkpt><trkpt lat="38.1669033" lon="15.7809283"><ele>598.0</ele><time>2026-04-21T09:30:46.309Z</time></trkpt><trkpt lat="38.166965" lon="15.78086"><ele>598.0</ele><time>2026-04-21T09:30:47.308Z</time></trkpt><trkpt lat="38.1670233" lon="15.7808217"><ele>598.0</ele><time>2026-04-21T09:30:48.309Z</time></trkpt><trkpt lat="38.1670867" lon="15.7808183"><ele>598.0</ele><time>2026-04-21T09:30:49.309Z</time></trkpt><trkpt lat="38.1671467" lon="15.780925"><ele>598.0</ele><time>2026-04-21T09:30:51.309Z</time></trkpt><trkpt lat="38.16712" lon="15.7810133"><ele>601.0</ele><time>2026-04-21T09:30:52.309Z</time></trkpt><trkpt lat="38.1670533" lon="15.78112"><ele>604.0</ele><time>2026-04-21T09:30:53.309Z</time></trkpt><trkpt lat="38.16696" lon="15.78125"><ele>607.0</ele><time>2026-04-21T09:30:54.309Z</time></trkpt><trkpt lat="38.1668683" lon="15.7813867"><ele>610.0</ele><time>2026-04-21T09:30:55.309Z</time></trkpt><trkpt lat="38.1668" lon="15.781535"><ele>610.0</ele><time>2026-04-21T09:30:56.309Z</time></trkpt><trkpt lat="38.166765" lon="15.781695"><ele>610.0</ele><time>2026-04-21T09:30:57.309Z</time></trkpt><trkpt lat="38.166765" lon="15.7818533"><ele>610.0</ele><time>2026-04-21T09:30:58.309Z</time></trkpt><trkpt lat="38.1667733" lon="15.78202"><ele>610.0</ele><time>2026-04-21T09:30:59.309Z</time></trkpt><trkpt lat="38.1667833" lon="15.7821783"><ele>610.25</ele><time>2026-04-21T09:31:00.309Z</time></trkpt><trkpt lat="38.16678" lon="15.7823333"><ele>610.5</ele><time>2026-04-21T09:31:01.309Z</time></trkpt><trkpt lat="38.1667817" lon="15.7824717"><ele>610.75</ele><time>2026-04-21T09:31:02.309Z</time></trkpt><trkpt lat="38.1667867" lon="15.7826183"><ele>611.0</ele><time>2026-04-21T09:31:03.309Z</time></trkpt><trkpt lat="38.1667917" lon="15.782765"><ele>611.0</ele><time>2026-04-21T09:31:04.309Z</time></trkpt><trkpt lat="38.1667867" lon="15.7828917"><ele>611.0</ele><time>2026-04-21T09:31:05.309Z</time></trkpt><trkpt lat="38.1667883" lon="15.78301"><ele>611.0</ele><time>2026-04-21T09:31:06.309Z</time></trkpt><trkpt lat="38.1668017" lon="15.78312"><ele>611.0</ele><time>2026-04-21T09:31:07.309Z</time></trkpt><trkpt lat="38.1668267" lon="15.7832117"><ele>611.0</ele><time>2026-04-21T09:31:08.309Z</time></trkpt><trkpt lat="38.1668833" lon="15.7832983"><ele>611.0</ele><time>2026-04-21T09:31:09.309Z</time></trkpt><trkpt lat="38.1669633" lon="15.7833767"><ele>611.0</ele><time>2026-04-21T09:31:10.309Z</time></trkpt><trkpt lat="38.1670667" lon="15.78345"><ele>611.0</ele><time>2026-04-21T09:31:11.309Z</time></trkpt><trkpt lat="38.167185" lon="15.7835233"><ele>611.0</ele><time>2026-04-21T09:31:12.309Z</time></trkpt><trkpt lat="38.1673167" lon="15.7836017"><ele>611.0</ele><time>2026-04-21T09:31:13.309Z</time></trkpt><trkpt lat="38.1674583" lon="15.7836667"><ele>614.2</ele><time>2026-04-21T09:31:14.309Z</time></trkpt><trkpt lat="38.1675917" lon="15.78372"><ele>617.4000000000001</ele><time>2026-04-21T09:31:15.309Z</time></trkpt><trkpt lat="38.1677133" lon="15.7837667"><ele>620.6</ele><time>2026-04-21T09:31:16.309Z</time></trkpt><trkpt lat="38.167805" lon="15.7838233"><ele>623.8000000000001</ele><time>2026-04-21T09:31:17.309Z</time></trkpt><trkpt lat="38.167865" lon="15.7838817"><ele>627.0</ele><time>2026-04-21T09:31:18.309Z</time></trkpt><trkpt lat="38.167895" lon="15.783955"><ele>627.0</ele><time>2026-04-21T09:31:19.309Z</time></trkpt><trkpt lat="38.1679033" lon="15.7840433"><ele>627.0</ele><time>2026-04-21T09:31:20.309Z</time></trkpt><trkpt lat="38.167885" lon="15.7841367"><ele>627.0</ele><time>2026-04-21T09:31:21.309Z</time></trkpt><trkpt lat="38.1678233" lon="15.7842367"><ele>627.0</ele><time>2026-04-21T09:31:22.309Z</time></trkpt><trkpt lat="38.1677383" lon="15.7843483"><ele>627.0</ele><time>2026-04-21T09:31:23.309Z</time></trkpt><trkpt lat="38.167625" lon="15.7844567"><ele>628.0</ele><time>2026-04-21T09:31:24.309Z</time></trkpt><trkpt lat="38.1675183" lon="15.784555"><ele>629.0</ele><time>2026-04-21T09:31:25.309Z</time></trkpt><trkpt lat="38.1674167" lon="15.7846433"><ele>630.0</ele><time>2026-04-21T09:31:26.309Z</time></trkpt><trkpt lat="38.167345" lon="15.7847217"><ele>631.0</ele><time>2026-04-21T09:31:27.309Z</time></trkpt><trkpt lat="38.1672983" lon="15.7848067"><ele>632.0</ele><time>2026-04-21T09:31:28.309Z</time></trkpt><trkpt lat="38.1672833" lon="15.78489"><ele>632.0</ele><time>2026-04-21T09:31:29.308Z</time></trkpt><trkpt lat="38.1673283" lon="15.78499"><ele>632.0</ele><time>2026-04-21T09:31:31.309Z</time></trkpt><trkpt lat="38.1673967" lon="15.78496"><ele>632.0</ele><time>2026-04-21T09:31:32.308Z</time></trkpt><trkpt lat="38.1674817" lon="15.784855"><ele>632.0</ele><time>2026-04-21T09:31:33.309Z</time></trkpt><trkpt lat="38.16759" lon="15.784725"><ele>632.0</ele><time>2026-04-21T09:31:34.309Z</time></trkpt><trkpt lat="38.16771" lon="15.784605"><ele>632.0</ele><time>2026-04-21T09:31:35.309Z</time></trkpt><trkpt lat="38.1678167" lon="15.7845117"><ele>632.0</ele><time>2026-04-21T09:31:36.308Z</time></trkpt><trkpt lat="38.1679167" lon="15.78442"><ele>632.0</ele><time>2026-04-21T09:31:37.309Z</time></trkpt><trkpt lat="38.168015" lon="15.7843333"><ele>632.0</ele><time>2026-04-21T09:31:38.309Z</time></trkpt><trkpt lat="38.1681067" lon="15.78425"><ele>631.0</ele><time>2026-04-21T09:31:39.309Z</time></trkpt><trkpt lat="38.1681817" lon="15.7841717"><ele>630.0</ele><time>2026-04-21T09:31:40.309Z</time></trkpt><trkpt lat="38.1682417" lon="15.7840733"><ele>629.0</ele><time>2026-04-21T09:31:41.309Z</time></trkpt><trkpt lat="38.1682783" lon="15.7839567"><ele>628.0</ele><time>2026-04-21T09:31:42.309Z</time></trkpt><trkpt lat="38.1682917" lon="15.78383"><ele>627.0</ele><time>2026-04-21T09:31:43.309Z</time></trkpt><trkpt lat="38.1682883" lon="15.7836883"><ele>633.0</ele><time>2026-04-21T09:31:44.309Z</time></trkpt><trkpt lat="38.168285" lon="15.78354"><ele>639.0</ele><time>2026-04-21T09:31:45.309Z</time></trkpt><trkpt lat="38.168265" lon="15.7833783"><ele>645.0</ele><time>2026-04-21T09:31:46.309Z</time></trkpt><trkpt lat="38.16825" lon="15.7832033"><ele>651.0</ele><time>2026-04-21T09:31:47.308Z</time></trkpt><trkpt lat="38.1682383" lon="15.7830233"><ele>652.0</ele><time>2026-04-21T09:31:48.309Z</time></trkpt><trkpt lat="38.1682267" lon="15.782835"><ele>653.0</ele><time>2026-04-21T09:31:49.309Z</time></trkpt><trkpt lat="38.1682183" lon="15.782655"><ele>654.0</ele><time>2026-04-21T09:31:50.309Z</time></trkpt><trkpt lat="38.16821" lon="15.7824933"><ele>655.0</ele><time>2026-04-21T09:31:51.309Z</time></trkpt><trkpt lat="38.168205" lon="15.7823467"><ele>655.3333333333334</ele><time>2026-04-21T09:31:52.309Z</time></trkpt><trkpt lat="38.168195" lon="15.7822183"><ele>655.6666666666667</ele><time>2026-04-21T09:31:53.309Z</time></trkpt><trkpt lat="38.1681833" lon="15.7820983"><ele>656.0</ele><time>2026-04-21T09:31:54.309Z</time></trkpt><trkpt lat="38.1681683" lon="15.7819983"><ele>656.3333333333334</ele><time>2026-04-21T09:31:55.308Z</time></trkpt><trkpt lat="38.16816" lon="15.7819083"><ele>656.6666666666666</ele><time>2026-04-21T09:31:56.309Z</time></trkpt><trkpt lat="38.1681767" lon="15.7817833"><ele>657.0</ele><time>2026-04-21T09:31:58.309Z</time></trkpt><trkpt lat="38.16824" lon="15.78181"><ele>657.0</ele><time>2026-04-21T09:32:00.309Z</time></trkpt><trkpt lat="38.1682683" lon="15.7819733"><ele>657.0</ele><time>2026-04-21T09:32:02.309Z</time></trkpt><trkpt lat="38.16826" lon="15.7821"><ele>657.0</ele><time>2026-04-21T09:32:03.309Z</time></trkpt><trkpt lat="38.168265" lon="15.7822433"><ele>657.0</ele><time>2026-04-21T09:32:04.309Z</time></trkpt><trkpt lat="38.1682833" lon="15.7823983"><ele>657.0</ele><time>2026-04-21T09:32:05.308Z</time></trkpt><trkpt lat="38.1683033" lon="15.7825333"><ele>657.0</ele><time>2026-04-21T09:32:06.309Z</time></trkpt><trkpt lat="38.168325" lon="15.78266"><ele>657.0</ele><time>2026-04-21T09:32:07.308Z</time></trkpt><trkpt lat="38.1683517" lon="15.782785"><ele>657.0</ele><time>2026-04-21T09:32:08.308Z</time></trkpt><trkpt lat="38.1683783" lon="15.782905"><ele>657.0</ele><time>2026-04-21T09:32:09.309Z</time></trkpt><trkpt lat="38.1684033" lon="15.7830317"><ele>656.6</ele><time>2026-04-21T09:32:10.309Z</time></trkpt><trkpt lat="38.1684233" lon="15.7831583"><ele>656.2</ele><time>2026-04-21T09:32:11.309Z</time></trkpt><trkpt lat="38.16845" lon="15.78329"><ele>655.8</ele><time>2026-04-21T09:32:12.309Z</time></trkpt><trkpt lat="38.1684783" lon="15.7834283"><ele>655.4</ele><time>2026-04-21T09:32:13.309Z</time></trkpt><trkpt lat="38.1685267" lon="15.783565"><ele>655.0</ele><time>2026-04-21T09:32:14.309Z</time></trkpt><trkpt lat="38.1685833" lon="15.7837017"><ele>654.2</ele><time>2026-04-21T09:32:15.309Z</time></trkpt><trkpt lat="38.1686417" lon="15.7838117"><ele>653.4</ele><time>2026-04-21T09:32:16.309Z</time></trkpt><trkpt lat="38.1686917" lon="15.783925"><ele>652.5999999999999</ele><time>2026-04-21T09:32:17.309Z</time></trkpt><trkpt lat="38.1687483" lon="15.7840183"><ele>651.8</ele><time>2026-04-21T09:32:18.309Z</time></trkpt><trkpt lat="38.1687933" lon="15.78409"><ele>651.0</ele><time>2026-04-21T09:32:19.309Z</time></trkpt><trkpt lat="38.1688683" lon="15.784175"><ele>651.0</ele><time>2026-04-21T09:32:21.309Z</time></trkpt><trkpt lat="38.1689117" lon="15.7842367"><ele>651.0</ele><time>2026-04-21T09:32:24.309Z</time></trkpt><trkpt lat="38.1689083" lon="15.7843517"><ele>651.0</ele><time>2026-04-21T09:37:04.309Z</time></trkpt><trkpt lat="38.168835" lon="15.7844417"><ele>651.0</ele><time>2026-04-21T09:37:06.309Z</time></trkpt><trkpt lat="38.1687767" lon="15.78448"><ele>651.0</ele><time>2026-04-21T09:37:07.308Z</time></trkpt><trkpt lat="38.1687167" lon="15.7845067"><ele>651.0</ele><time>2026-04-21T09:37:08.309Z</time></trkpt><trkpt lat="38.1686517" lon="15.7845383"><ele>653.6666666666666</ele><time>2026-04-21T09:37:09.309Z</time></trkpt><trkpt lat="38.16858" lon="15.78456"><ele>656.3333333333334</ele><time>2026-04-21T09:37:10.309Z</time></trkpt><trkpt lat="38.168515" lon="15.7845983"><ele>659.0</ele><time>2026-04-21T09:37:11.309Z</time></trkpt><trkpt lat="38.1684567" lon="15.7846483"><ele>661.6666666666667</ele><time>2026-04-21T09:37:12.309Z</time></trkpt><trkpt lat="38.1684017" lon="15.78472"><ele>664.3333333333334</ele><time>2026-04-21T09:37:13.309Z</time></trkpt><trkpt lat="38.1683533" lon="15.7848167"><ele>667.0</ele><time>2026-04-21T09:37:14.309Z</time></trkpt><trkpt lat="38.16832" lon="15.78492"><ele>667.0</ele><time>2026-04-21T09:37:15.309Z</time></trkpt><trkpt lat="38.168295" lon="15.7850333"><ele>667.0</ele><time>2026-04-21T09:37:16.308Z</time></trkpt><trkpt lat="38.168275" lon="15.7851567"><ele>667.0</ele><time>2026-04-21T09:37:17.309Z</time></trkpt><trkpt lat="38.1682617" lon="15.7852767"><ele>667.0</ele><time>2026-04-21T09:37:18.309Z</time></trkpt><trkpt lat="38.1682517" lon="15.7854017"><ele>667.0</ele><time>2026-04-21T09:37:19.309Z</time></trkpt><trkpt lat="38.16826" lon="15.785525"><ele>666.4000000000001</ele><time>2026-04-21T09:37:20.309Z</time></trkpt><trkpt lat="38.1682767" lon="15.7856517"><ele>665.8000000000001</ele><time>2026-04-21T09:37:21.309Z</time></trkpt><trkpt lat="38.1683083" lon="15.7857867"><ele>665.2</ele><time>2026-04-21T09:37:22.308Z</time></trkpt><trkpt lat="38.1683383" lon="15.7859283"><ele>664.6</ele><time>2026-04-21T09:37:23.309Z</time></trkpt><trkpt lat="38.1683767" lon="15.7860633"><ele>664.0</ele><time>2026-04-21T09:37:24.309Z</time></trkpt><trkpt lat="38.1684317" lon="15.786185"><ele>664.0</ele><time>2026-04-21T09:37:25.309Z</time></trkpt><trkpt lat="38.1685083" lon="15.7862917"><ele>664.0</ele><time>2026-04-21T09:37:26.309Z</time></trkpt><trkpt lat="38.1685933" lon="15.7863883"><ele>664.0</ele><time>2026-04-21T09:37:27.309Z</time></trkpt><trkpt lat="38.1686833" lon="15.7864917"><ele>664.0</ele><time>2026-04-21T09:37:28.309Z</time></trkpt><trkpt lat="38.16878" lon="15.7865983"><ele>664.0</ele><time>2026-04-21T09:37:29.309Z</time></trkpt><trkpt lat="38.1688767" lon="15.78671"><ele>664.0</ele><time>2026-04-21T09:37:30.309Z</time></trkpt><trkpt lat="38.1689683" lon="15.7868317"><ele>664.0</ele><time>2026-04-21T09:37:31.309Z</time></trkpt><trkpt lat="38.1690333" lon="15.7869633"><ele>664.0</ele><time>2026-04-21T09:37:32.309Z</time></trkpt><trkpt lat="38.1690917" lon="15.787095"><ele>669.0</ele><time>2026-04-21T09:37:33.309Z</time></trkpt><trkpt lat="38.1691533" lon="15.7872183"><ele>674.0</ele><time>2026-04-21T09:37:34.309Z</time></trkpt><trkpt lat="38.1692117" lon="15.787325"><ele>679.0</ele><time>2026-04-21T09:37:35.308Z</time></trkpt><trkpt lat="38.1692717" lon="15.787415"><ele>684.0</ele><time>2026-04-21T09:37:36.308Z</time></trkpt><trkpt lat="38.1693467" lon="15.7875"><ele>689.0</ele><time>2026-04-21T09:37:37.309Z</time></trkpt><trkpt lat="38.1694383" lon="15.787555"><ele>689.0</ele><time>2026-04-21T09:37:38.309Z</time></trkpt><trkpt lat="38.16954" lon="15.7875817"><ele>689.0</ele><time>2026-04-21T09:37:39.309Z</time></trkpt><trkpt lat="38.169645" lon="15.7876"><ele>689.0</ele><time>2026-04-21T09:37:40.309Z</time></trkpt><trkpt lat="38.16975" lon="15.7876117"><ele>689.0</ele><time>2026-04-21T09:37:41.309Z</time></trkpt><trkpt lat="38.1698333" lon="15.787645"><ele>689.0</ele><time>2026-04-21T09:37:42.309Z</time></trkpt><trkpt lat="38.16991" lon="15.78768"><ele>691.0</ele><time>2026-04-21T09:37:43.309Z</time></trkpt><trkpt lat="38.1699583" lon="15.7877417"><ele>693.0</ele><time>2026-04-21T09:37:44.309Z</time></trkpt><trkpt lat="38.1699517" lon="15.787875"><ele>695.0</ele><time>2026-04-21T09:37:46.309Z</time></trkpt><trkpt lat="38.1698833" lon="15.78793"><ele>697.0</ele><time>2026-04-21T09:37:47.309Z</time></trkpt><trkpt lat="38.1697883" lon="15.7879833"><ele>699.0</ele><time>2026-04-21T09:37:48.309Z</time></trkpt><trkpt lat="38.1696767" lon="15.7880383"><ele>699.0</ele><time>2026-04-21T09:37:49.309Z</time></trkpt><trkpt lat="38.16957" lon="15.7880883"><ele>699.0</ele><time>2026-04-21T09:37:50.309Z</time></trkpt><trkpt lat="38.16948" lon="15.7881367"><ele>699.0</ele><time>2026-04-21T09:37:51.309Z</time></trkpt><trkpt lat="38.1693933" lon="15.788195"><ele>699.0</ele><time>2026-04-21T09:37:52.309Z</time></trkpt><trkpt lat="38.1693133" lon="15.7882517"><ele>699.0</ele><time>2026-04-21T09:37:53.309Z</time></trkpt><trkpt lat="38.1692533" lon="15.7883283"><ele>699.0</ele><time>2026-04-21T09:37:54.309Z</time></trkpt><trkpt lat="38.1691917" lon="15.7884283"><ele>699.0</ele><time>2026-04-21T09:37:55.308Z</time></trkpt><trkpt lat="38.169135" lon="15.7885317"><ele>699.0</ele><time>2026-04-21T09:37:56.309Z</time></trkpt><trkpt lat="38.1690633" lon="15.7886083"><ele>699.0</ele><time>2026-04-21T09:37:57.308Z</time></trkpt><trkpt lat="38.1689833" lon="15.7886567"><ele>699.0</ele><time>2026-04-21T09:37:58.309Z</time></trkpt><trkpt lat="38.1689067" lon="15.7886767"><ele>701.1666666666666</ele><time>2026-04-21T09:37:59.309Z</time></trkpt><trkpt lat="38.168815" lon="15.7886733"><ele>703.3333333333334</ele><time>2026-04-21T09:38:00.309Z</time></trkpt><trkpt lat="38.1687283" lon="15.7886533"><ele>705.5</ele><time>2026-04-21T09:38:01.309Z</time></trkpt><trkpt lat="38.1686483" lon="15.7886517"><ele>707.6666666666667</ele><time>2026-04-21T09:38:02.309Z</time></trkpt><trkpt lat="38.1685667" lon="15.7886583"><ele>709.8333333333334</ele><time>2026-04-21T09:38:03.309Z</time></trkpt><trkpt lat="38.168495" lon="15.7886833"><ele>712.0</ele><time>2026-04-21T09:38:04.308Z</time></trkpt><trkpt lat="38.16843" lon="15.7887383"><ele>712.0</ele><time>2026-04-21T09:38:05.309Z</time></trkpt><trkpt lat="38.1683717" lon="15.7888083"><ele>712.0</ele><time>2026-04-21T09:38:06.309Z</time></trkpt><trkpt lat="38.16831" lon="15.7888917"><ele>712.0</ele><time>2026-04-21T09:38:07.309Z</time></trkpt><trkpt lat="38.1682467" lon="15.7889767"><ele>712.0</ele><time>2026-04-21T09:38:08.309Z</time></trkpt><trkpt lat="38.16819" lon="15.7890633"><ele>712.0</ele><time>2026-04-21T09:38:09.309Z</time></trkpt><trkpt lat="38.1681183" lon="15.789135"><ele>712.0</ele><time>2026-04-21T09:38:10.309Z</time></trkpt><trkpt lat="38.1680567" lon="15.7892083"><ele>712.6</ele><time>2026-04-21T09:38:11.309Z</time></trkpt><trkpt lat="38.16799" lon="15.7892567"><ele>713.2</ele><time>2026-04-21T09:38:12.308Z</time></trkpt><trkpt lat="38.1679367" lon="15.78931"><ele>713.8</ele><time>2026-04-21T09:38:13.309Z</time></trkpt><trkpt lat="38.1678533" lon="15.789415"><ele>714.4</ele><time>2026-04-21T09:38:15.309Z</time></trkpt><trkpt lat="38.1677517" lon="15.7895017"><ele>715.0</ele><time>2026-04-21T09:38:17.309Z</time></trkpt><trkpt lat="38.1676633" lon="15.78958"><ele>715.0</ele><time>2026-04-21T09:38:19.309Z</time></trkpt><trkpt lat="38.1675867" lon="15.78965"><ele>715.0</ele><time>2026-04-21T09:38:21.309Z</time></trkpt><trkpt lat="38.1675217" lon="15.7896883"><ele>715.0</ele><time>2026-04-21T09:38:23.309Z</time></trkpt><trkpt lat="38.16746" lon="15.78974"><ele>715.0</ele><time>2026-04-21T09:38:25.309Z</time></trkpt><trkpt lat="38.1673967" lon="15.7898033"><ele>715.0</ele><time>2026-04-21T09:38:27.308Z</time></trkpt><trkpt lat="38.167315" lon="15.78991"><ele>715.0</ele><time>2026-04-21T09:38:29.309Z</time></trkpt><trkpt lat="38.16733" lon="15.79006"><ele>715.0</ele><time>2026-04-21T09:38:31.309Z</time></trkpt><trkpt lat="38.1673883" lon="15.7901083"><ele>715.0</ele><time>2026-04-21T09:38:32.309Z</time></trkpt><trkpt lat="38.1674533" lon="15.790125"><ele>715.0</ele><time>2026-04-21T09:38:33.309Z</time></trkpt><trkpt lat="38.1675317" lon="15.7901267"><ele>715.0</ele><time>2026-04-21T09:38:34.309Z</time></trkpt><trkpt lat="38.167605" lon="15.7901117"><ele>715.0</ele><time>2026-04-21T09:38:35.309Z</time></trkpt><trkpt lat="38.1676717" lon="15.790085"><ele>715.0</ele><time>2026-04-21T09:38:36.309Z</time></trkpt><trkpt lat="38.167735" lon="15.7900817"><ele>715.0</ele><time>2026-04-21T09:38:37.309Z</time></trkpt><trkpt lat="38.1678583" lon="15.7900383"><ele>715.0</ele><time>2026-04-21T09:38:39.309Z</time></trkpt><trkpt lat="38.1679317" lon="15.79003"><ele>715.0</ele><time>2026-04-21T09:38:40.309Z</time></trkpt><trkpt lat="38.1680167" lon="15.7900117"><ele>715.0</ele><time>2026-04-21T09:38:41.309Z</time></trkpt><trkpt lat="38.1681033" lon="15.78999"><ele>715.0</ele><time>2026-04-21T09:38:42.309Z</time></trkpt><trkpt lat="38.16818" lon="15.7899683"><ele>715.0</ele><time>2026-04-21T09:38:43.308Z</time></trkpt><trkpt lat="38.1682633" lon="15.7899367"><ele>715.0</ele><time>2026-04-21T09:38:44.309Z</time></trkpt><trkpt lat="38.1683483" lon="15.7898933"><ele>717.4</ele><time>2026-04-21T09:38:45.309Z</time></trkpt><trkpt lat="38.1684367" lon="15.78986"><ele>719.8</ele><time>2026-04-21T09:38:46.309Z</time></trkpt><trkpt lat="38.1685317" lon="15.7898233"><ele>722.2</ele><time>2026-04-21T09:38:47.309Z</time></trkpt><trkpt lat="38.1686283" lon="15.7897783"><ele>724.6</ele><time>2026-04-21T09:38:48.309Z</time></trkpt><trkpt lat="38.1687233" lon="15.78975"><ele>727.0</ele><time>2026-04-21T09:38:49.309Z</time></trkpt><trkpt lat="38.1688033" lon="15.7897083"><ele>727.0</ele><time>2026-04-21T09:38:50.309Z</time></trkpt><trkpt lat="38.1688917" lon="15.7896733"><ele>727.0</ele><time>2026-04-21T09:38:51.309Z</time></trkpt><trkpt lat="38.1689667" lon="15.7896117"><ele>727.0</ele><time>2026-04-21T09:38:52.309Z</time></trkpt><trkpt lat="38.16904" lon="15.78953"><ele>727.0</ele><time>2026-04-21T09:38:53.309Z</time></trkpt><trkpt lat="38.1691067" lon="15.78944"><ele>727.0</ele><time>2026-04-21T09:38:54.309Z</time></trkpt><trkpt lat="38.1691667" lon="15.7893433"><ele>726.6666666666667</ele><time>2026-04-21T09:38:55.309Z</time></trkpt><trkpt lat="38.169215" lon="15.7892733"><ele>726.3333333333334</ele><time>2026-04-21T09:38:56.309Z</time></trkpt><trkpt lat="38.1693117" lon="15.7892217"><ele>726.0</ele><time>2026-04-21T09:38:58.308Z</time></trkpt><trkpt lat="38.1693767" lon="15.78924"><ele>725.6666666666666</ele><time>2026-04-21T09:38:59.308Z</time></trkpt><trkpt lat="38.1694617" lon="15.7892783"><ele>725.3333333333333</ele><time>2026-04-21T09:39:00.308Z</time></trkpt><trkpt lat="38.169555" lon="15.7893217"><ele>725.0</ele><time>2026-04-21T09:39:01.307Z</time></trkpt><trkpt lat="38.169645" lon="15.789365"><ele>727.5</ele><time>2026-04-21T09:39:02.307Z</time></trkpt><trkpt lat="38.1697267" lon="15.7894133"><ele>730.0</ele><time>2026-04-21T09:39:03.308Z</time></trkpt><trkpt lat="38.1697967" lon="15.7894817"><ele>732.5</ele><time>2026-04-21T09:39:04.308Z</time></trkpt><trkpt lat="38.16985" lon="15.7895517"><ele>735.0</ele><time>2026-04-21T09:39:05.308Z</time></trkpt><trkpt lat="38.16991" lon="15.7896067"><ele>737.5</ele><time>2026-04-21T09:39:06.308Z</time></trkpt><trkpt lat="38.169975" lon="15.789625"><ele>740.0</ele><time>2026-04-21T09:39:07.308Z</time></trkpt><trkpt lat="38.1700717" lon="15.7895283"><ele>740.6</ele><time>2026-04-21T09:39:09.308Z</time></trkpt><trkpt lat="38.170095" lon="15.7894167"><ele>741.2</ele><time>2026-04-21T09:39:10.308Z</time></trkpt><trkpt lat="38.170095" lon="15.7893017"><ele>741.8</ele><time>2026-04-21T09:39:11.308Z</time></trkpt><trkpt lat="38.1700483" lon="15.789155"><ele>742.4</ele><time>2026-04-21T09:39:12.308Z</time></trkpt><trkpt lat="38.169985" lon="15.7890417"><ele>743.0</ele><time>2026-04-21T09:39:13.308Z</time></trkpt><trkpt lat="38.1699367" lon="15.7889533"><ele>743.0</ele><time>2026-04-21T09:39:14.308Z</time></trkpt><trkpt lat="38.1698933" lon="15.788875"><ele>743.0</ele><time>2026-04-21T09:39:15.308Z</time></trkpt><trkpt lat="38.1698767" lon="15.7887467"><ele>743.0</ele><time>2026-04-21T09:39:17.308Z</time></trkpt><trkpt lat="38.169955" lon="15.7887283"><ele>743.0</ele><time>2026-04-21T09:39:19.308Z</time></trkpt><trkpt lat="38.1700383" lon="15.7888583"><ele>743.0</ele><time>2026-04-21T09:39:21.307Z</time></trkpt><trkpt lat="38.17008" lon="15.7889467"><ele>743.0</ele><time>2026-04-21T09:39:22.308Z</time></trkpt><trkpt lat="38.1701333" lon="15.789065"><ele>743.0</ele><time>2026-04-21T09:39:23.308Z</time></trkpt><trkpt lat="38.1701717" lon="15.7891683"><ele>743.0</ele><time>2026-04-21T09:39:24.308Z</time></trkpt><trkpt lat="38.1702233" lon="15.789265"><ele>743.0</ele><time>2026-04-21T09:39:25.308Z</time></trkpt><trkpt lat="38.1702817" lon="15.789365"><ele>743.0</ele><time>2026-04-21T09:39:26.308Z</time></trkpt><trkpt lat="38.1703267" lon="15.7894633"><ele>744.1666666666666</ele><time>2026-04-21T09:39:27.308Z</time></trkpt><trkpt lat="38.1703733" lon="15.78956"><ele>745.3333333333333</ele><time>2026-04-21T09:39:28.308Z</time></trkpt><trkpt lat="38.1704217" lon="15.7896533"><ele>746.5</ele><time>2026-04-21T09:39:29.308Z</time></trkpt><trkpt lat="38.17048" lon="15.789735"><ele>747.6666666666666</ele><time>2026-04-21T09:39:30.308Z</time></trkpt><trkpt lat="38.170515" lon="15.7898133"><ele>748.8333333333334</ele><time>2026-04-21T09:39:31.308Z</time></trkpt><trkpt lat="38.1705433" lon="15.7898867"><ele>750.0</ele><time>2026-04-21T09:39:32.308Z</time></trkpt><trkpt lat="38.1705467" lon="15.79003"><ele>750.0</ele><time>2026-04-21T09:39:34.308Z</time></trkpt><trkpt lat="38.1704667" lon="15.790155"><ele>750.0</ele><time>2026-04-21T09:39:36.308Z</time></trkpt><trkpt lat="38.1704067" lon="15.7902067"><ele>750.0</ele><time>2026-04-21T09:39:37.308Z</time></trkpt><trkpt lat="38.170335" lon="15.7902533"><ele>750.0</ele><time>2026-04-21T09:39:38.308Z</time></trkpt><trkpt lat="38.1702617" lon="15.790315"><ele>750.0</ele><time>2026-04-21T09:39:39.308Z</time></trkpt><trkpt lat="38.1701733" lon="15.7903517"><ele>750.0</ele><time>2026-04-21T09:39:40.308Z</time></trkpt><trkpt lat="38.17008" lon="15.7903983"><ele>750.0</ele><time>2026-04-21T09:39:41.308Z</time></trkpt><trkpt lat="38.17" lon="15.7904533"><ele>750.0</ele><time>2026-04-21T09:39:42.308Z</time></trkpt><trkpt lat="38.1699133" lon="15.7904967"><ele>750.0</ele><time>2026-04-21T09:39:43.308Z</time></trkpt><trkpt lat="38.1698283" lon="15.7905483"><ele>750.0</ele><time>2026-04-21T09:39:44.308Z</time></trkpt><trkpt lat="38.169755" lon="15.79062"><ele>750.0</ele><time>2026-04-21T09:39:45.308Z</time></trkpt><trkpt lat="38.1696917" lon="15.7907017"><ele>750.0</ele><time>2026-04-21T09:39:46.308Z</time></trkpt><trkpt lat="38.16963" lon="15.7907933"><ele>750.0</ele><time>2026-04-21T09:39:47.308Z</time></trkpt><trkpt lat="38.169585" lon="15.79088"><ele>750.0</ele><time>2026-04-21T09:39:48.308Z</time></trkpt><trkpt lat="38.1695633" lon="15.7909633"><ele>750.0</ele><time>2026-04-21T09:39:49.307Z</time></trkpt><trkpt lat="38.169565" lon="15.7910567"><ele>750.0</ele><time>2026-04-21T09:39:50.308Z</time></trkpt><trkpt lat="38.1695767" lon="15.7911417"><ele>752.8333333333334</ele><time>2026-04-21T09:39:51.308Z</time></trkpt><trkpt lat="38.16964" lon="15.7912133"><ele>755.6666666666666</ele><time>2026-04-21T09:39:52.308Z</time></trkpt><trkpt lat="38.1697183" lon="15.791255"><ele>758.5</ele><time>2026-04-21T09:39:53.308Z</time></trkpt><trkpt lat="38.169805" lon="15.7912983"><ele>761.3333333333333</ele><time>2026-04-21T09:39:54.308Z</time></trkpt><trkpt lat="38.1698883" lon="15.7913367"><ele>764.1666666666666</ele><time>2026-04-21T09:39:55.308Z</time></trkpt><trkpt lat="38.1699633" lon="15.791385"><ele>767.0</ele><time>2026-04-21T09:39:56.308Z</time></trkpt><trkpt lat="38.1700283" lon="15.79146"><ele>767.0</ele><time>2026-04-21T09:39:57.308Z</time></trkpt><trkpt lat="38.1700467" lon="15.791545"><ele>767.0</ele><time>2026-04-21T09:39:58.308Z</time></trkpt><trkpt lat="38.17" lon="15.7916833"><ele>767.0</ele><time>2026-04-21T09:40:00.308Z</time></trkpt><trkpt lat="38.1699367" lon="15.7917217"><ele>767.0</ele><time>2026-04-21T09:40:01.308Z</time></trkpt><trkpt lat="38.1698617" lon="15.7917217"><ele>767.0</ele><time>2026-04-21T09:40:02.307Z</time></trkpt><trkpt lat="38.1697983" lon="15.7917067"><ele>767.0</ele><time>2026-04-21T09:40:03.308Z</time></trkpt><trkpt lat="38.16973" lon="15.7916983"><ele>767.0</ele><time>2026-04-21T09:40:05.308Z</time></trkpt><trkpt lat="38.1696417" lon="15.7917083"><ele>767.0</ele><time>2026-04-21T09:40:25.308Z</time></trkpt><trkpt lat="38.1695333" lon="15.79169"><ele>767.0</ele><time>2026-04-21T09:40:27.308Z</time></trkpt><trkpt lat="38.1694717" lon="15.7916717"><ele>767.0</ele><time>2026-04-21T09:40:28.308Z</time></trkpt><trkpt lat="38.169405" lon="15.7916583"><ele>767.0</ele><time>2026-04-21T09:40:29.307Z</time></trkpt><trkpt lat="38.16933" lon="15.7916633"><ele>767.0</ele><time>2026-04-21T09:40:30.308Z</time></trkpt><trkpt lat="38.1692467" lon="15.7917017"><ele>767.0</ele><time>2026-04-21T09:40:31.308Z</time></trkpt><trkpt lat="38.169165" lon="15.7917617"><ele>767.0</ele><time>2026-04-21T09:40:32.308Z</time></trkpt><trkpt lat="38.169095" lon="15.7918367"><ele>767.0</ele><time>2026-04-21T09:40:33.308Z</time></trkpt><trkpt lat="38.1690417" lon="15.7919033"><ele>767.0</ele><time>2026-04-21T09:40:34.308Z</time></trkpt><trkpt lat="38.169005" lon="15.7919783"><ele>767.0</ele><time>2026-04-21T09:40:35.308Z</time></trkpt><trkpt lat="38.1689933" lon="15.7920633"><ele>767.0</ele><time>2026-04-21T09:40:36.308Z</time></trkpt><trkpt lat="38.169055" lon="15.79217"><ele>769.6</ele><time>2026-04-21T09:40:38.308Z</time></trkpt><trkpt lat="38.1691817" lon="15.7921267"><ele>772.2</ele><time>2026-04-21T09:40:40.308Z</time></trkpt><trkpt lat="38.1692567" lon="15.792045"><ele>774.8</ele><time>2026-04-21T09:40:41.308Z</time></trkpt><trkpt lat="38.169345" lon="15.7919817"><ele>777.4</ele><time>2026-04-21T09:40:42.307Z</time></trkpt><trkpt lat="38.169445" lon="15.7919433"><ele>780.0</ele><time>2026-04-21T09:40:43.308Z</time></trkpt><trkpt lat="38.169565" lon="15.7919167"><ele>780.0</ele><time>2026-04-21T09:40:44.308Z</time></trkpt><trkpt lat="38.1696833" lon="15.7919"><ele>780.0</ele><time>2026-04-21T09:40:45.308Z</time></trkpt><trkpt lat="38.1698" lon="15.791885"><ele>780.0</ele><time>2026-04-21T09:40:46.308Z</time></trkpt><trkpt lat="38.16992" lon="15.7918783"><ele>780.0</ele><time>2026-04-21T09:40:47.308Z</time></trkpt><trkpt lat="38.17003" lon="15.791875"><ele>784.0</ele><time>2026-04-21T09:40:48.308Z</time></trkpt><trkpt lat="38.1701367" lon="15.7918867"><ele>788.0</ele><time>2026-04-21T09:40:49.308Z</time></trkpt><trkpt lat="38.1702333" lon="15.791925"><ele>792.0</ele><time>2026-04-21T09:40:50.308Z</time></trkpt><trkpt lat="38.1703383" lon="15.7919583"><ele>796.0</ele><time>2026-04-21T09:40:51.308Z</time></trkpt><trkpt lat="38.17043" lon="15.791935"><ele>800.0</ele><time>2026-04-21T09:40:52.307Z</time></trkpt><trkpt lat="38.1705083" lon="15.791855"><ele>800.2</ele><time>2026-04-21T09:40:53.308Z</time></trkpt><trkpt lat="38.17056" lon="15.7917517"><ele>800.4</ele><time>2026-04-21T09:40:54.308Z</time></trkpt><trkpt lat="38.1706383" lon="15.7916567"><ele>800.5999999999999</ele><time>2026-04-21T09:40:55.308Z</time></trkpt><trkpt lat="38.1706983" lon="15.7915633"><ele>800.8</ele><time>2026-04-21T09:40:56.308Z</time></trkpt><trkpt lat="38.1707583" lon="15.7914633"><ele>801.0</ele><time>2026-04-21T09:40:57.308Z</time></trkpt><trkpt lat="38.1708067" lon="15.79134"><ele>801.0</ele><time>2026-04-21T09:40:58.308Z</time></trkpt><trkpt lat="38.1708467" lon="15.791205"><ele>801.0</ele><time>2026-04-21T09:40:59.308Z</time></trkpt><trkpt lat="38.170895" lon="15.7910883"><ele>801.0</ele><time>2026-04-21T09:41:00.308Z</time></trkpt><trkpt lat="38.1709633" lon="15.7910033"><ele>801.0</ele><time>2026-04-21T09:41:01.308Z</time></trkpt><trkpt lat="38.1710483" lon="15.7909483"><ele>801.0</ele><time>2026-04-21T09:41:02.308Z</time></trkpt><trkpt lat="38.17115" lon="15.7909067"><ele>803.25</ele><time>2026-04-21T09:41:03.308Z</time></trkpt><trkpt lat="38.1712583" lon="15.7908667"><ele>805.5</ele><time>2026-04-21T09:41:04.308Z</time></trkpt><trkpt lat="38.171365" lon="15.7908233"><ele>807.75</ele><time>2026-04-21T09:41:05.308Z</time></trkpt><trkpt lat="38.1714767" lon="15.7907633"><ele>810.0</ele><time>2026-04-21T09:41:06.308Z</time></trkpt><trkpt lat="38.1715833" lon="15.7907083"><ele>810.0</ele><time>2026-04-21T09:41:07.308Z</time></trkpt><trkpt lat="38.1716767" lon="15.7906317"><ele>810.0</ele><time>2026-04-21T09:41:08.308Z</time></trkpt><trkpt lat="38.171755" lon="15.7905117"><ele>810.0</ele><time>2026-04-21T09:41:09.308Z</time></trkpt><trkpt lat="38.1718033" lon="15.7903783"><ele>810.0</ele><time>2026-04-21T09:41:10.308Z</time></trkpt><trkpt lat="38.1718583" lon="15.790265"><ele>807.2</ele><time>2026-04-21T09:41:11.308Z</time></trkpt><trkpt lat="38.1719167" lon="15.79016"><ele>804.4</ele><time>2026-04-21T09:41:12.308Z</time></trkpt><trkpt lat="38.1719833" lon="15.7900867"><ele>801.5999999999999</ele><time>2026-04-21T09:41:13.308Z</time></trkpt><trkpt lat="38.17206" lon="15.7900233"><ele>798.8</ele><time>2026-04-21T09:41:14.308Z</time></trkpt><trkpt lat="38.1721483" lon="15.78997"><ele>796.0</ele><time>2026-04-21T09:41:15.308Z</time></trkpt><trkpt lat="38.17225" lon="15.789925"><ele>795.9999999999999</ele><time>2026-04-21T09:41:16.308Z</time></trkpt><trkpt lat="38.1723517" lon="15.7898833"><ele>796.0</ele><time>2026-04-21T09:41:17.308Z</time></trkpt><trkpt lat="38.17245" lon="15.7898417"><ele>796.0</ele><time>2026-04-21T09:41:18.308Z</time></trkpt><trkpt lat="38.1725333" lon="15.789805"><ele>796.0</ele><time>2026-04-21T09:41:19.307Z</time></trkpt><trkpt lat="38.1726083" lon="15.789785"><ele>795.9999999999999</ele><time>2026-04-21T09:41:20.308Z</time></trkpt><trkpt lat="38.172675" lon="15.789775"><ele>796.0</ele><time>2026-04-21T09:41:21.308Z</time></trkpt><trkpt lat="38.1727467" lon="15.7897817"><ele>799.4999999999999</ele><time>2026-04-21T09:41:22.308Z</time></trkpt><trkpt lat="38.172825" lon="15.78979"><ele>803.0</ele><time>2026-04-21T09:41:23.308Z</time></trkpt><trkpt lat="38.1729067" lon="15.7898067"><ele>806.5</ele><time>2026-04-21T09:41:24.307Z</time></trkpt><trkpt lat="38.1729883" lon="15.7898133"><ele>810.0</ele><time>2026-04-21T09:41:25.307Z</time></trkpt><trkpt lat="38.1730683" lon="15.789805"><ele>813.4999999999999</ele><time>2026-04-21T09:41:26.307Z</time></trkpt><trkpt lat="38.1731483" lon="15.7898083"><ele>817.0</ele><time>2026-04-21T09:41:27.308Z</time></trkpt><trkpt lat="38.173225" lon="15.7898183"><ele>820.4999999999999</ele><time>2026-04-21T09:41:28.308Z</time></trkpt><trkpt lat="38.1733" lon="15.78984"><ele>824.0</ele><time>2026-04-21T09:41:29.308Z</time></trkpt><trkpt lat="38.1733733" lon="15.7898933"><ele>827.5</ele><time>2026-04-21T09:41:30.308Z</time></trkpt><trkpt lat="38.1734483" lon="15.78995"><ele>831.0</ele><time>2026-04-21T09:41:31.308Z</time></trkpt><trkpt lat="38.17352" lon="15.7899867"><ele>834.4999999999999</ele><time>2026-04-21T09:41:32.307Z</time></trkpt><trkpt lat="38.173595" lon="15.7899783"><ele>838.0</ele><time>2026-04-21T09:41:33.308Z</time></trkpt><trkpt lat="38.17366" lon="15.78993"><ele>838.0</ele><time>2026-04-21T09:41:34.307Z</time></trkpt><trkpt lat="38.1737017" lon="15.7898383"><ele>838.0</ele><time>2026-04-21T09:41:35.307Z</time></trkpt><trkpt lat="38.1737283" lon="15.7897167"><ele>838.0</ele><time>2026-04-21T09:41:36.308Z</time></trkpt><trkpt lat="38.1737467" lon="15.7895567"><ele>838.0</ele><time>2026-04-21T09:41:37.307Z</time></trkpt><trkpt lat="38.17377" lon="15.78943"><ele>838.0</ele><time>2026-04-21T09:41:38.308Z</time></trkpt><trkpt lat="38.173805" lon="15.7893"><ele>839.4</ele><time>2026-04-21T09:41:39.308Z</time></trkpt><trkpt lat="38.173835" lon="15.7891683"><ele>840.8</ele><time>2026-04-21T09:41:40.308Z</time></trkpt><trkpt lat="38.17387" lon="15.789045"><ele>842.2</ele><time>2026-04-21T09:41:41.308Z</time></trkpt><trkpt lat="38.17391" lon="15.7889267"><ele>843.6</ele><time>2026-04-21T09:41:42.308Z</time></trkpt><trkpt lat="38.173965" lon="15.788815"><ele>845.0</ele><time>2026-04-21T09:41:43.308Z</time></trkpt><trkpt lat="38.1740233" lon="15.788705"><ele>845.0</ele><time>2026-04-21T09:41:44.308Z</time></trkpt><trkpt lat="38.1740883" lon="15.788585"><ele>845.0</ele><time>2026-04-21T09:41:45.308Z</time></trkpt><trkpt lat="38.17415" lon="15.78847"><ele>845.0</ele><time>2026-04-21T09:41:46.308Z</time></trkpt><trkpt lat="38.1742233" lon="15.7883433"><ele>845.0</ele><time>2026-04-21T09:41:47.308Z</time></trkpt><trkpt lat="38.174285" lon="15.7882"><ele>843.25</ele><time>2026-04-21T09:41:48.308Z</time></trkpt><trkpt lat="38.1743533" lon="15.7880483"><ele>841.5</ele><time>2026-04-21T09:41:49.308Z</time></trkpt><trkpt lat="38.1744067" lon="15.78789"><ele>839.75</ele><time>2026-04-21T09:41:50.308Z</time></trkpt><trkpt lat="38.174465" lon="15.7877417"><ele>838.0</ele><time>2026-04-21T09:41:51.307Z</time></trkpt><trkpt lat="38.17453" lon="15.7875883"><ele>835.5</ele><time>2026-04-21T09:41:52.308Z</time></trkpt><trkpt lat="38.174605" lon="15.7874517"><ele>833.0</ele><time>2026-04-21T09:41:53.308Z</time></trkpt><trkpt lat="38.1746717" lon="15.7873067"><ele>830.5</ele><time>2026-04-21T09:41:54.308Z</time></trkpt><trkpt lat="38.1747333" lon="15.78716"><ele>828.0</ele><time>2026-04-21T09:41:55.307Z</time></trkpt><trkpt lat="38.1748033" lon="15.7870217"><ele>832.75</ele><time>2026-04-21T09:41:56.308Z</time></trkpt><trkpt lat="38.1748817" lon="15.78689"><ele>837.5</ele><time>2026-04-21T09:41:57.308Z</time></trkpt><trkpt lat="38.174975" lon="15.7867633"><ele>842.25</ele><time>2026-04-21T09:41:58.308Z</time></trkpt><trkpt lat="38.1750683" lon="15.78664"><ele>847.0</ele><time>2026-04-21T09:41:59.308Z</time></trkpt><trkpt lat="38.1751617" lon="15.7865133"><ele>847.0</ele><time>2026-04-21T09:42:00.308Z</time></trkpt><trkpt lat="38.1752583" lon="15.7863867"><ele>847.0</ele><time>2026-04-21T09:42:01.308Z</time></trkpt><trkpt lat="38.17535" lon="15.7862567"><ele>847.0</ele><time>2026-04-21T09:42:02.308Z</time></trkpt><trkpt lat="38.1754367" lon="15.7861417"><ele>847.0</ele><time>2026-04-21T09:42:03.308Z</time></trkpt><trkpt lat="38.1755233" lon="15.7860283"><ele>845.6</ele><time>2026-04-21T09:42:04.308Z</time></trkpt><trkpt lat="38.1756083" lon="15.78592"><ele>844.2</ele><time>2026-04-21T09:42:05.308Z</time></trkpt><trkpt lat="38.1757083" lon="15.78584"><ele>842.8</ele><time>2026-04-21T09:42:06.308Z</time></trkpt><trkpt lat="38.1757967" lon="15.785775"><ele>841.4</ele><time>2026-04-21T09:42:07.308Z</time></trkpt><trkpt lat="38.17588" lon="15.7857367"><ele>840.0</ele><time>2026-04-21T09:42:08.308Z</time></trkpt><trkpt lat="38.1759533" lon="15.7857233"><ele>843.0</ele><time>2026-04-21T09:42:09.308Z</time></trkpt><trkpt lat="38.1760133" lon="15.7857517"><ele>846.0</ele><time>2026-04-21T09:42:10.308Z</time></trkpt><trkpt lat="38.17606" lon="15.78581"><ele>849.0</ele><time>2026-04-21T09:42:11.308Z</time></trkpt><trkpt lat="38.17606" lon="15.7859633"><ele>852.0</ele><time>2026-04-21T09:42:13.308Z</time></trkpt><trkpt lat="38.176025" lon="15.7860383"><ele>855.0</ele><time>2026-04-21T09:42:14.308Z</time></trkpt><trkpt lat="38.1760017" lon="15.786115"><ele>858.0</ele><time>2026-04-21T09:42:15.308Z</time></trkpt><trkpt lat="38.1759517" lon="15.786215"><ele>860.0</ele><time>2026-04-21T09:42:16.308Z</time></trkpt><trkpt lat="38.175905" lon="15.7863283"><ele>862.0</ele><time>2026-04-21T09:42:17.307Z</time></trkpt><trkpt lat="38.1758533" lon="15.7864617"><ele>864.0</ele><time>2026-04-21T09:42:18.308Z</time></trkpt><trkpt lat="38.17579" lon="15.7866217"><ele>866.0</ele><time>2026-04-21T09:42:19.308Z</time></trkpt><trkpt lat="38.17573" lon="15.7867867"><ele>864.25</ele><time>2026-04-21T09:42:20.307Z</time></trkpt><trkpt lat="38.17568" lon="15.78695"><ele>862.5</ele><time>2026-04-21T09:42:21.308Z</time></trkpt><trkpt lat="38.1756333" lon="15.7870933"><ele>860.75</ele><time>2026-04-21T09:42:22.308Z</time></trkpt><trkpt lat="38.175595" lon="15.7872333"><ele>859.0</ele><time>2026-04-21T09:42:23.308Z</time></trkpt><trkpt lat="38.175555" lon="15.7873733"><ele>859.0</ele><time>2026-04-21T09:42:24.308Z</time></trkpt><trkpt lat="38.1755233" lon="15.7875133"><ele>859.0</ele><time>2026-04-21T09:42:25.308Z</time></trkpt><trkpt lat="38.1754833" lon="15.787655"><ele>859.0</ele><time>2026-04-21T09:42:26.308Z</time></trkpt><trkpt lat="38.1754333" lon="15.7878017"><ele>859.0</ele><time>2026-04-21T09:42:27.307Z</time></trkpt><trkpt lat="38.1753983" lon="15.78795"><ele>861.25</ele><time>2026-04-21T09:42:28.307Z</time></trkpt><trkpt lat="38.1753683" lon="15.7881167"><ele>863.5</ele><time>2026-04-21T09:42:29.308Z</time></trkpt><trkpt lat="38.1753317" lon="15.7882667"><ele>865.75</ele><time>2026-04-21T09:42:30.308Z</time></trkpt><trkpt lat="38.1753" lon="15.7884367"><ele>868.0</ele><time>2026-04-21T09:42:31.308Z</time></trkpt><trkpt lat="38.1752617" lon="15.7885867"><ele>870.75</ele><time>2026-04-21T09:42:32.308Z</time></trkpt><trkpt lat="38.1752183" lon="15.7887433"><ele>873.5</ele><time>2026-04-21T09:42:33.308Z</time></trkpt><trkpt lat="38.17518" lon="15.7888983"><ele>876.25</ele><time>2026-04-21T09:42:34.308Z</time></trkpt><trkpt lat="38.1751483" lon="15.789065"><ele>879.0</ele><time>2026-04-21T09:42:35.308Z</time></trkpt><trkpt lat="38.1751267" lon="15.789225"><ele>882.25</ele><time>2026-04-21T09:42:36.308Z</time></trkpt><trkpt lat="38.1750983" lon="15.7893817"><ele>885.5</ele><time>2026-04-21T09:42:37.308Z</time></trkpt><trkpt lat="38.1750717" lon="15.7895267"><ele>888.75</ele><time>2026-04-21T09:42:38.308Z</time></trkpt><trkpt lat="38.1750267" lon="15.789645"><ele>892.0</ele><time>2026-04-21T09:42:39.308Z</time></trkpt><trkpt lat="38.174955" lon="15.78975"><ele>892.0</ele><time>2026-04-21T09:42:40.308Z</time></trkpt><trkpt lat="38.1748883" lon="15.7898433"><ele>892.0</ele><time>2026-04-21T09:42:41.308Z</time></trkpt><trkpt lat="38.1748333" lon="15.78996"><ele>892.0</ele><time>2026-04-21T09:42:42.308Z</time></trkpt><trkpt lat="38.174795" lon="15.7900917"><ele>892.0</ele><time>2026-04-21T09:42:43.308Z</time></trkpt><trkpt lat="38.1747833" lon="15.7902233"><ele>892.0</ele><time>2026-04-21T09:42:44.308Z</time></trkpt><trkpt lat="38.1747767" lon="15.7903683"><ele>889.2</ele><time>2026-04-21T09:42:45.308Z</time></trkpt><trkpt lat="38.17478" lon="15.790515"><ele>886.4000000000001</ele><time>2026-04-21T09:42:46.308Z</time></trkpt><trkpt lat="38.17478" lon="15.7906467"><ele>883.5999999999999</ele><time>2026-04-21T09:42:47.308Z</time></trkpt><trkpt lat="38.17477" lon="15.7907667"><ele>880.8</ele><time>2026-04-21T09:42:48.308Z</time></trkpt><trkpt lat="38.1747467" lon="15.7908667"><ele>878.0</ele><time>2026-04-21T09:42:49.308Z</time></trkpt><trkpt lat="38.1747067" lon="15.790965"><ele>881.0000000000001</ele><time>2026-04-21T09:42:50.308Z</time></trkpt><trkpt lat="38.174655" lon="15.7910533"><ele>884.0</ele><time>2026-04-21T09:42:51.308Z</time></trkpt><trkpt lat="38.1745833" lon="15.7911283"><ele>887.0</ele><time>2026-04-21T09:42:52.307Z</time></trkpt><trkpt lat="38.1745067" lon="15.7912"><ele>890.0</ele><time>2026-04-21T09:42:53.308Z</time></trkpt><trkpt lat="38.174455" lon="15.7912867"><ele>893.0000000000001</ele><time>2026-04-21T09:42:54.308Z</time></trkpt><trkpt lat="38.1744267" lon="15.7913783"><ele>896.0</ele><time>2026-04-21T09:42:55.308Z</time></trkpt><trkpt lat="38.17441" lon="15.7914833"><ele>896.0</ele><time>2026-04-21T09:42:56.308Z</time></trkpt><trkpt lat="38.1744033" lon="15.7916033"><ele>895.9999999999999</ele><time>2026-04-21T09:42:57.308Z</time></trkpt><trkpt lat="38.1743867" lon="15.7917283"><ele>895.9999999999999</ele><time>2026-04-21T09:42:58.308Z</time></trkpt><trkpt lat="38.1743683" lon="15.7918583"><ele>896.0</ele><time>2026-04-21T09:42:59.308Z</time></trkpt><trkpt lat="38.1743583" lon="15.791995"><ele>896.0</ele><time>2026-04-21T09:43:00.308Z</time></trkpt><trkpt lat="38.1743467" lon="15.7921417"><ele>898.5</ele><time>2026-04-21T09:43:01.308Z</time></trkpt><trkpt lat="38.1743317" lon="15.7922933"><ele>901.0</ele><time>2026-04-21T09:43:02.308Z</time></trkpt><trkpt lat="38.1743117" lon="15.79245"><ele>903.5</ele><time>2026-04-21T09:43:03.308Z</time></trkpt><trkpt lat="38.1742817" lon="15.792595"><ele>906.0</ele><time>2026-04-21T09:43:04.308Z</time></trkpt><trkpt lat="38.17422" lon="15.7927367"><ele>903.0</ele><time>2026-04-21T09:43:05.308Z</time></trkpt><trkpt lat="38.1741417" lon="15.7928633"><ele>900.0</ele><time>2026-04-21T09:43:06.308Z</time></trkpt><trkpt lat="38.1740633" lon="15.7929617"><ele>897.0</ele><time>2026-04-21T09:43:07.308Z</time></trkpt><trkpt lat="38.1739767" lon="15.7930583"><ele>894.0</ele><time>2026-04-21T09:43:08.308Z</time></trkpt><trkpt lat="38.1739017" lon="15.79317"><ele>894.0</ele><time>2026-04-21T09:43:09.308Z</time></trkpt><trkpt lat="38.1738417" lon="15.7933067"><ele>894.0</ele><time>2026-04-21T09:43:10.307Z</time></trkpt><trkpt lat="38.1737967" lon="15.793455"><ele>894.0</ele><time>2026-04-21T09:43:11.308Z</time></trkpt><trkpt lat="38.1737417" lon="15.7936017"><ele>894.0</ele><time>2026-04-21T09:43:12.308Z</time></trkpt><trkpt lat="38.1736883" lon="15.7937567"><ele>898.25</ele><time>2026-04-21T09:43:13.308Z</time></trkpt><trkpt lat="38.17363" lon="15.7939167"><ele>902.5</ele><time>2026-04-21T09:43:14.308Z</time></trkpt><trkpt lat="38.1735767" lon="15.7940683"><ele>906.75</ele><time>2026-04-21T09:43:15.308Z</time></trkpt><trkpt lat="38.1735133" lon="15.7942167"><ele>911.0</ele><time>2026-04-21T09:43:16.308Z</time></trkpt><trkpt lat="38.1734533" lon="15.79437"><ele>915.25</ele><time>2026-04-21T09:43:17.308Z</time></trkpt><trkpt lat="38.1733967" lon="15.7945333"><ele>919.5</ele><time>2026-04-21T09:43:18.308Z</time></trkpt><trkpt lat="38.1733417" lon="15.7947"><ele>923.75</ele><time>2026-04-21T09:43:19.308Z</time></trkpt><trkpt lat="38.173285" lon="15.794865"><ele>928.0</ele><time>2026-04-21T09:43:20.308Z</time></trkpt><trkpt lat="38.1732267" lon="15.7950383"><ele>923.25</ele><time>2026-04-21T09:43:21.308Z</time></trkpt><trkpt lat="38.173165" lon="15.795205"><ele>918.5</ele><time>2026-04-21T09:43:22.308Z</time></trkpt><trkpt lat="38.1731133" lon="15.795355"><ele>913.75</ele><time>2026-04-21T09:43:23.308Z</time></trkpt><trkpt lat="38.1730667" lon="15.7954883"><ele>909.0</ele><time>2026-04-21T09:43:24.308Z</time></trkpt><trkpt lat="38.1730267" lon="15.7956217"><ele>909.0</ele><time>2026-04-21T09:43:25.307Z</time></trkpt><trkpt lat="38.173" lon="15.79576"><ele>909.0000000000001</ele><time>2026-04-21T09:43:26.308Z</time></trkpt><trkpt lat="38.1730033" lon="15.79589"><ele>909.0000000000001</ele><time>2026-04-21T09:43:27.308Z</time></trkpt><trkpt lat="38.1730317" lon="15.7960133"><ele>909.0</ele><time>2026-04-21T09:43:28.308Z</time></trkpt><trkpt lat="38.1730733" lon="15.7961367"><ele>909.0</ele><time>2026-04-21T09:43:29.308Z</time></trkpt><trkpt lat="38.1731133" lon="15.7962667"><ele>910.5</ele><time>2026-04-21T09:43:30.308Z</time></trkpt><trkpt lat="38.1731317" lon="15.7964067"><ele>912.0</ele><time>2026-04-21T09:43:31.308Z</time></trkpt><trkpt lat="38.1731383" lon="15.7965583"><ele>913.5</ele><time>2026-04-21T09:43:32.308Z</time></trkpt><trkpt lat="38.1731317" lon="15.7967083"><ele>915.0</ele><time>2026-04-21T09:43:33.308Z</time></trkpt><trkpt lat="38.1731167" lon="15.7968583"><ele>917.0</ele><time>2026-04-21T09:43:34.308Z</time></trkpt><trkpt lat="38.1730833" lon="15.797015"><ele>919.0</ele><time>2026-04-21T09:43:35.307Z</time></trkpt><trkpt lat="38.173045" lon="15.7971817"><ele>921.0</ele><time>2026-04-21T09:43:36.308Z</time></trkpt><trkpt lat="38.1730033" lon="15.797335"><ele>923.0</ele><time>2026-04-21T09:43:37.308Z</time></trkpt><trkpt lat="38.1729333" lon="15.7974817"><ele>923.0</ele><time>2026-04-21T09:43:38.308Z</time></trkpt><trkpt lat="38.1728517" lon="15.7976067"><ele>923.0</ele><time>2026-04-21T09:43:39.308Z</time></trkpt><trkpt lat="38.17278" lon="15.7977083"><ele>923.0</ele><time>2026-04-21T09:43:40.308Z</time></trkpt><trkpt lat="38.17272" lon="15.7977967"><ele>923.0</ele><time>2026-04-21T09:43:41.308Z</time></trkpt><trkpt lat="38.172715" lon="15.7978883"><ele>923.0</ele><time>2026-04-21T09:43:42.308Z</time></trkpt><trkpt lat="38.172795" lon="15.7979983"><ele>923.0</ele><time>2026-04-21T09:43:44.308Z</time></trkpt><trkpt lat="38.1728633" lon="15.798"><ele>923.0</ele><time>2026-04-21T09:43:45.308Z</time></trkpt><trkpt lat="38.1729267" lon="15.7979417"><ele>923.0</ele><time>2026-04-21T09:43:46.308Z</time></trkpt><trkpt lat="38.1729983" lon="15.7978383"><ele>923.0</ele><time>2026-04-21T09:43:47.308Z</time></trkpt><trkpt lat="38.1730733" lon="15.7977033"><ele>923.0</ele><time>2026-04-21T09:43:48.308Z</time></trkpt><trkpt lat="38.17316" lon="15.7975733"><ele>929.75</ele><time>2026-04-21T09:43:49.308Z</time></trkpt><trkpt lat="38.1732383" lon="15.7974517"><ele>936.5</ele><time>2026-04-21T09:43:50.308Z</time></trkpt><trkpt lat="38.1733183" lon="15.797335"><ele>943.25</ele><time>2026-04-21T09:43:51.308Z</time></trkpt><trkpt lat="38.1733983" lon="15.7972217"><ele>950.0</ele><time>2026-04-21T09:43:52.308Z</time></trkpt><trkpt lat="38.1734783" lon="15.7971017"><ele>950.0</ele><time>2026-04-21T09:43:53.307Z</time></trkpt><trkpt lat="38.1735483" lon="15.796985"><ele>950.0</ele><time>2026-04-21T09:43:54.308Z</time></trkpt><trkpt lat="38.1735983" lon="15.7968617"><ele>950.0</ele><time>2026-04-21T09:43:55.308Z</time></trkpt><trkpt lat="38.17364" lon="15.7967233"><ele>950.0</ele><time>2026-04-21T09:43:56.308Z</time></trkpt><trkpt lat="38.17367" lon="15.7965833"><ele>948.5</ele><time>2026-04-21T09:43:57.308Z</time></trkpt><trkpt lat="38.1737083" lon="15.7964233"><ele>947.0</ele><time>2026-04-21T09:43:58.308Z</time></trkpt><trkpt lat="38.1737433" lon="15.796275"><ele>945.5</ele><time>2026-04-21T09:43:59.308Z</time></trkpt><trkpt lat="38.1737867" lon="15.7961267"><ele>944.0</ele><time>2026-04-21T09:44:00.308Z</time></trkpt><trkpt lat="38.17383" lon="15.79598"><ele>943.5</ele><time>2026-04-21T09:44:01.308Z</time></trkpt><trkpt lat="38.1738833" lon="15.79582"><ele>943.0</ele><time>2026-04-21T09:44:02.307Z</time></trkpt><trkpt lat="38.17394" lon="15.79567"><ele>942.5</ele><time>2026-04-21T09:44:03.308Z</time></trkpt><trkpt lat="38.1739883" lon="15.7955267"><ele>942.0</ele><time>2026-04-21T09:44:04.307Z</time></trkpt><trkpt lat="38.1740333" lon="15.7953967"><ele>947.4000000000001</ele><time>2026-04-21T09:44:05.308Z</time></trkpt><trkpt lat="38.17408" lon="15.7952867"><ele>952.8000000000001</ele><time>2026-04-21T09:44:06.308Z</time></trkpt><trkpt lat="38.17412" lon="15.795195"><ele>958.2</ele><time>2026-04-21T09:44:07.308Z</time></trkpt><trkpt lat="38.1741733" lon="15.7951517"><ele>963.6</ele><time>2026-04-21T09:44:08.307Z</time></trkpt><trkpt lat="38.174255" lon="15.795195"><ele>969.0</ele><time>2026-04-21T09:44:10.308Z</time></trkpt><trkpt lat="38.1742433" lon="15.7953783"><ele>969.4000000000001</ele><time>2026-04-21T09:44:12.308Z</time></trkpt><trkpt lat="38.174205" lon="15.7955033"><ele>969.8000000000001</ele><time>2026-04-21T09:44:13.308Z</time></trkpt><trkpt lat="38.17418" lon="15.795635"><ele>970.1999999999999</ele><time>2026-04-21T09:44:14.308Z</time></trkpt><trkpt lat="38.1741633" lon="15.79578"><ele>970.5999999999999</ele><time>2026-04-21T09:44:15.308Z</time></trkpt><trkpt lat="38.1741533" lon="15.7959083"><ele>971.0</ele><time>2026-04-21T09:44:16.308Z</time></trkpt><trkpt lat="38.1741533" lon="15.796055"><ele>971.25</ele><time>2026-04-21T09:44:17.307Z</time></trkpt><trkpt lat="38.1741533" lon="15.7962117"><ele>971.5</ele><time>2026-04-21T09:44:18.308Z</time></trkpt><trkpt lat="38.174145" lon="15.796365"><ele>971.75</ele><time>2026-04-21T09:44:19.308Z</time></trkpt><trkpt lat="38.17414" lon="15.79652"><ele>972.0</ele><time>2026-04-21T09:44:20.307Z</time></trkpt><trkpt lat="38.1741433" lon="15.79666"><ele>972.0</ele><time>2026-04-21T09:44:21.308Z</time></trkpt><trkpt lat="38.1741583" lon="15.7967817"><ele>972.0</ele><time>2026-04-21T09:44:22.308Z</time></trkpt><trkpt lat="38.1741933" lon="15.7969083"><ele>972.0</ele><time>2026-04-21T09:44:23.308Z</time></trkpt><trkpt lat="38.1742483" lon="15.79703"><ele>972.0</ele><time>2026-04-21T09:44:24.308Z</time></trkpt><trkpt lat="38.17433" lon="15.7971333"><ele>972.0</ele><time>2026-04-21T09:44:25.308Z</time></trkpt><trkpt lat="38.1744233" lon="15.7972383"><ele>972.75</ele><time>2026-04-21T09:44:26.308Z</time></trkpt><trkpt lat="38.1744933" lon="15.7973633"><ele>973.5</ele><time>2026-04-21T09:44:27.308Z</time></trkpt><trkpt lat="38.1745483" lon="15.7975033"><ele>974.25</ele><time>2026-04-21T09:44:28.308Z</time></trkpt><trkpt lat="38.1745733" lon="15.797655"><ele>975.0</ele><time>2026-04-21T09:44:29.308Z</time></trkpt><trkpt lat="38.174575" lon="15.7978183"><ele>975.75</ele><time>2026-04-21T09:44:30.308Z</time></trkpt><trkpt lat="38.1745583" lon="15.79798"><ele>976.5</ele><time>2026-04-21T09:44:31.308Z</time></trkpt><trkpt lat="38.1745317" lon="15.7981517"><ele>977.25</ele><time>2026-04-21T09:44:32.308Z</time></trkpt><trkpt lat="38.1745117" lon="15.7983133"><ele>978.0</ele><time>2026-04-21T09:44:33.308Z</time></trkpt><trkpt lat="38.1744967" lon="15.7984917"><ele>979.0</ele><time>2026-04-21T09:44:34.308Z</time></trkpt><trkpt lat="38.1744883" lon="15.7986617"><ele>980.0</ele><time>2026-04-21T09:44:35.308Z</time></trkpt><trkpt lat="38.1744867" lon="15.7988517"><ele>981.0</ele><time>2026-04-21T09:44:36.308Z</time></trkpt><trkpt lat="38.1744983" lon="15.7990467"><ele>982.0</ele><time>2026-04-21T09:44:37.308Z</time></trkpt><trkpt lat="38.1745233" lon="15.7992467"><ele>983.75</ele><time>2026-04-21T09:44:38.308Z</time></trkpt><trkpt lat="38.1745617" lon="15.799435"><ele>985.5</ele><time>2026-04-21T09:44:39.308Z</time></trkpt><trkpt lat="38.1745983" lon="15.7996083"><ele>987.25</ele><time>2026-04-21T09:44:40.308Z</time></trkpt><trkpt lat="38.1746367" lon="15.799765"><ele>989.0</ele><time>2026-04-21T09:44:41.308Z</time></trkpt><trkpt lat="38.1746633" lon="15.7999217"><ele>989.0</ele><time>2026-04-21T09:44:42.308Z</time></trkpt><trkpt lat="38.174675" lon="15.80009"><ele>989.0</ele><time>2026-04-21T09:44:43.308Z</time></trkpt><trkpt lat="38.17468" lon="15.8002583"><ele>989.0</ele><time>2026-04-21T09:44:44.308Z</time></trkpt><trkpt lat="38.17466" lon="15.8004183"><ele>989.0</ele><time>2026-04-21T09:44:45.308Z</time></trkpt><trkpt lat="38.1746467" lon="15.8005867"><ele>990.75</ele><time>2026-04-21T09:44:46.307Z</time></trkpt><trkpt lat="38.1746333" lon="15.8007617"><ele>992.5</ele><time>2026-04-21T09:44:47.308Z</time></trkpt><trkpt lat="38.1746133" lon="15.8009283"><ele>994.25</ele><time>2026-04-21T09:44:48.308Z</time></trkpt><trkpt lat="38.1745967" lon="15.8010933"><ele>996.0</ele><time>2026-04-21T09:44:49.308Z</time></trkpt><trkpt lat="38.1745833" lon="15.8012567"><ele>997.5</ele><time>2026-04-21T09:44:50.308Z</time></trkpt><trkpt lat="38.1745683" lon="15.8014217"><ele>999.0</ele><time>2026-04-21T09:44:51.308Z</time></trkpt><trkpt lat="38.17455" lon="15.8015967"><ele>1000.5</ele><time>2026-04-21T09:44:52.308Z</time></trkpt><trkpt lat="38.17452" lon="15.8017667"><ele>1002.0</ele><time>2026-04-21T09:44:53.307Z</time></trkpt><trkpt lat="38.1744733" lon="15.8019133"><ele>1003.2</ele><time>2026-04-21T09:44:54.308Z</time></trkpt><trkpt lat="38.1744133" lon="15.802065"><ele>1004.4000000000001</ele><time>2026-04-21T09:44:55.308Z</time></trkpt><trkpt lat="38.1743533" lon="15.8021883"><ele>1005.5999999999999</ele><time>2026-04-21T09:44:56.308Z</time></trkpt><trkpt lat="38.1743" lon="15.8022833"><ele>1006.8</ele><time>2026-04-21T09:44:57.308Z</time></trkpt><trkpt lat="38.1742433" lon="15.8023733"><ele>1008.0</ele><time>2026-04-21T09:44:58.308Z</time></trkpt><trkpt lat="38.174205" lon="15.8024683"><ele>1008.0</ele><time>2026-04-21T09:44:59.308Z</time></trkpt><trkpt lat="38.17418" lon="15.8025517"><ele>1008.0</ele><time>2026-04-21T09:45:00.308Z</time></trkpt><trkpt lat="38.1741567" lon="15.8026733"><ele>1008.0</ele><time>2026-04-21T09:45:02.308Z</time></trkpt><trkpt lat="38.1741817" lon="15.8027667"><ele>1008.0</ele><time>2026-04-21T09:45:04.308Z</time></trkpt><trkpt lat="38.174225" lon="15.8028767"><ele>1008.0</ele><time>2026-04-21T09:45:06.308Z</time></trkpt><trkpt lat="38.17427" lon="15.8029733"><ele>1008.0</ele><time>2026-04-21T09:45:08.308Z</time></trkpt><trkpt lat="38.1743433" lon="15.8030483"><ele>1008.5</ele><time>2026-04-21T09:45:10.308Z</time></trkpt><trkpt lat="38.17441" lon="15.8030767"><ele>1009.0</ele><time>2026-04-21T09:45:11.308Z</time></trkpt><trkpt lat="38.1744917" lon="15.8030883"><ele>1009.5</ele><time>2026-04-21T09:45:12.307Z</time></trkpt><trkpt lat="38.17458" lon="15.80308"><ele>1010.0</ele><time>2026-04-21T09:45:13.308Z</time></trkpt><trkpt lat="38.1746733" lon="15.80306"><ele>1010.5</ele><time>2026-04-21T09:45:14.308Z</time></trkpt><trkpt lat="38.1747517" lon="15.8029933"><ele>1011.0</ele><time>2026-04-21T09:45:15.308Z</time></trkpt><trkpt lat="38.174815" lon="15.8029083"><ele>1013.4</ele><time>2026-04-21T09:45:16.308Z</time></trkpt><trkpt lat="38.1748817" lon="15.8027967"><ele>1015.8</ele><time>2026-04-21T09:45:17.308Z</time></trkpt><trkpt lat="38.1749417" lon="15.8026833"><ele>1018.1999999999999</ele><time>2026-04-21T09:45:18.308Z</time></trkpt><trkpt lat="38.1750017" lon="15.8025833"><ele>1020.5999999999999</ele><time>2026-04-21T09:45:19.308Z</time></trkpt><trkpt lat="38.175065" lon="15.8024783"><ele>1023.0</ele><time>2026-04-21T09:45:20.308Z</time></trkpt><trkpt lat="38.175125" lon="15.8023733"><ele>1023.0</ele><time>2026-04-21T09:45:21.308Z</time></trkpt><trkpt lat="38.17518" lon="15.802265"><ele>1023.0</ele><time>2026-04-21T09:45:22.307Z</time></trkpt><trkpt lat="38.1752267" lon="15.8021217"><ele>1023.0</ele><time>2026-04-21T09:45:23.308Z</time></trkpt><trkpt lat="38.175255" lon="15.8019667"><ele>1023.0</ele><time>2026-04-21T09:45:24.308Z</time></trkpt><trkpt lat="38.1752733" lon="15.8017983"><ele>1023.0</ele><time>2026-04-21T09:45:25.308Z</time></trkpt><trkpt lat="38.1752833" lon="15.80163"><ele>1023.0</ele><time>2026-04-21T09:45:26.307Z</time></trkpt><trkpt lat="38.1752867" lon="15.8014633"><ele>1023.0</ele><time>2026-04-21T09:45:27.308Z</time></trkpt><trkpt lat="38.1752617" lon="15.8012967"><ele>1023.0</ele><time>2026-04-21T09:45:28.308Z</time></trkpt><trkpt lat="38.17523" lon="15.8011433"><ele>1023.0</ele><time>2026-04-21T09:45:29.308Z</time></trkpt><trkpt lat="38.175225" lon="15.8010117"><ele>1023.0</ele><time>2026-04-21T09:45:30.308Z</time></trkpt><trkpt lat="38.175215" lon="15.8008867"><ele>1023.0</ele><time>2026-04-21T09:45:31.308Z</time></trkpt><trkpt lat="38.1752333" lon="15.8007533"><ele>1023.0</ele><time>2026-04-21T09:45:32.308Z</time></trkpt><trkpt lat="38.1752667" lon="15.800635"><ele>1023.0</ele><time>2026-04-21T09:45:33.308Z</time></trkpt><trkpt lat="38.1753117" lon="15.8005267"><ele>1023.0</ele><time>2026-04-21T09:45:34.308Z</time></trkpt><trkpt lat="38.1753583" lon="15.80042"><ele>1023.0</ele><time>2026-04-21T09:45:35.307Z</time></trkpt><trkpt lat="38.175415" lon="15.80032"><ele>1023.0</ele><time>2026-04-21T09:45:36.308Z</time></trkpt><trkpt lat="38.175465" lon="15.8002233"><ele>1023.0</ele><time>2026-04-21T09:45:37.308Z</time></trkpt><trkpt lat="38.1755133" lon="15.8001383"><ele>1023.0</ele><time>2026-04-21T09:45:38.308Z</time></trkpt><trkpt lat="38.1755717" lon="15.8000717"><ele>1023.0</ele><time>2026-04-21T09:45:39.308Z</time></trkpt><trkpt lat="38.1756683" lon="15.8000417"><ele>1028.4</ele><time>2026-04-21T09:45:41.308Z</time></trkpt><trkpt lat="38.17573" lon="15.800145"><ele>1033.8</ele><time>2026-04-21T09:45:43.308Z</time></trkpt><trkpt lat="38.1757233" lon="15.8002267"><ele>1039.2</ele><time>2026-04-21T09:45:44.308Z</time></trkpt><trkpt lat="38.1757217" lon="15.8003267"><ele>1044.6</ele><time>2026-04-21T09:45:45.308Z</time></trkpt><trkpt lat="38.1757167" lon="15.8004533"><ele>1050.0</ele><time>2026-04-21T09:45:46.308Z</time></trkpt><trkpt lat="38.17571" lon="15.8006067"><ele>1050.0</ele><time>2026-04-21T09:45:47.308Z</time></trkpt><trkpt lat="38.1756983" lon="15.8008"><ele>1050.0</ele><time>2026-04-21T09:45:48.308Z</time></trkpt><trkpt lat="38.1757" lon="15.8009967"><ele>1050.0</ele><time>2026-04-21T09:45:49.308Z</time></trkpt><trkpt lat="38.1756883" lon="15.8012017"><ele>1049.75</ele><time>2026-04-21T09:45:50.308Z</time></trkpt><trkpt lat="38.1756867" lon="15.8013883"><ele>1049.5</ele><time>2026-04-21T09:45:51.308Z</time></trkpt><trkpt lat="38.1756933" lon="15.8015683"><ele>1049.25</ele><time>2026-04-21T09:45:52.307Z</time></trkpt><trkpt lat="38.175705" lon="15.801745"><ele>1049.0</ele><time>2026-04-21T09:45:53.308Z</time></trkpt><trkpt lat="38.175715" lon="15.8018883"><ele>1049.0</ele><time>2026-04-21T09:45:54.308Z</time></trkpt><trkpt lat="38.1757433" lon="15.8020217"><ele>1049.0</ele><time>2026-04-21T09:45:55.308Z</time></trkpt><trkpt lat="38.1757917" lon="15.802155"><ele>1049.0</ele><time>2026-04-21T09:45:56.308Z</time></trkpt><trkpt lat="38.1758683" lon="15.8022783"><ele>1049.0</ele><time>2026-04-21T09:45:57.308Z</time></trkpt><trkpt lat="38.1759683" lon="15.8023683"><ele>1049.0</ele><time>2026-04-21T09:45:58.308Z</time></trkpt><trkpt lat="38.1760733" lon="15.80245"><ele>1049.0</ele><time>2026-04-21T09:45:59.307Z</time></trkpt><trkpt lat="38.1761783" lon="15.8025367"><ele>1049.0</ele><time>2026-04-21T09:46:00.308Z</time></trkpt><trkpt lat="38.1762517" lon="15.80264"><ele>1049.0</ele><time>2026-04-21T09:46:01.308Z</time></trkpt><trkpt lat="38.1763067" lon="15.8027683"><ele>1049.25</ele><time>2026-04-21T09:46:02.308Z</time></trkpt><trkpt lat="38.1763183" lon="15.802915"><ele>1049.5</ele><time>2026-04-21T09:46:03.308Z</time></trkpt><trkpt lat="38.1762933" lon="15.8030583"><ele>1049.75</ele><time>2026-04-21T09:46:04.308Z</time></trkpt><trkpt lat="38.17624" lon="15.80321"><ele>1050.0</ele><time>2026-04-21T09:46:05.308Z</time></trkpt><trkpt lat="38.17618" lon="15.8033683"><ele>1053.25</ele><time>2026-04-21T09:46:06.308Z</time></trkpt><trkpt lat="38.1761233" lon="15.8035233"><ele>1056.5</ele><time>2026-04-21T09:46:07.308Z</time></trkpt><trkpt lat="38.1760667" lon="15.8036833"><ele>1059.75</ele><time>2026-04-21T09:46:08.308Z</time></trkpt><trkpt lat="38.1760233" lon="15.8038483"><ele>1063.0</ele><time>2026-04-21T09:46:09.308Z</time></trkpt><trkpt lat="38.175975" lon="15.8040117"><ele>1063.0</ele><time>2026-04-21T09:46:10.308Z</time></trkpt><trkpt lat="38.1759217" lon="15.8041733"><ele>1063.0</ele><time>2026-04-21T09:46:11.308Z</time></trkpt><trkpt lat="38.1758683" lon="15.8043417"><ele>1063.0</ele><time>2026-04-21T09:46:12.307Z</time></trkpt><trkpt lat="38.1758217" lon="15.8045183"><ele>1063.0</ele><time>2026-04-21T09:46:13.308Z</time></trkpt><trkpt lat="38.1757717" lon="15.8046783"><ele>1064.25</ele><time>2026-04-21T09:46:14.308Z</time></trkpt><trkpt lat="38.1757233" lon="15.804835"><ele>1065.5</ele><time>2026-04-21T09:46:15.308Z</time></trkpt><trkpt lat="38.175675" lon="15.8049783"><ele>1066.75</ele><time>2026-04-21T09:46:16.308Z</time></trkpt><trkpt lat="38.175625" lon="15.8051217"><ele>1068.0</ele><time>2026-04-21T09:46:17.308Z</time></trkpt><trkpt lat="38.17557" lon="15.8052567"><ele>1068.0</ele><time>2026-04-21T09:46:18.308Z</time></trkpt><trkpt lat="38.1755067" lon="15.805395"><ele>1068.0</ele><time>2026-04-21T09:46:19.308Z</time></trkpt><trkpt lat="38.175435" lon="15.805545"><ele>1068.0</ele><time>2026-04-21T09:46:20.308Z</time></trkpt><trkpt lat="38.1753783" lon="15.8057033"><ele>1068.0</ele><time>2026-04-21T09:46:21.308Z</time></trkpt><trkpt lat="38.1753367" lon="15.8058617"><ele>1071.0</ele><time>2026-04-21T09:46:22.307Z</time></trkpt><trkpt lat="38.1753133" lon="15.806035"><ele>1074.0</ele><time>2026-04-21T09:46:23.308Z</time></trkpt><trkpt lat="38.175315" lon="15.8062167"><ele>1077.0</ele><time>2026-04-21T09:46:24.308Z</time></trkpt><trkpt lat="38.1753233" lon="15.8064033"><ele>1080.0</ele><time>2026-04-21T09:46:25.308Z</time></trkpt><trkpt lat="38.1753283" lon="15.8065783"><ele>1080.0</ele><time>2026-04-21T09:46:26.308Z</time></trkpt><trkpt lat="38.175315" lon="15.806755"><ele>1080.0</ele><time>2026-04-21T09:46:27.308Z</time></trkpt><trkpt lat="38.17528" lon="15.8069483"><ele>1080.0</ele><time>2026-04-21T09:46:28.308Z</time></trkpt><trkpt lat="38.175235" lon="15.8071383"><ele>1081.5</ele><time>2026-04-21T09:46:29.308Z</time></trkpt><trkpt lat="38.1752" lon="15.8073267"><ele>1083.0</ele><time>2026-04-21T09:46:30.308Z</time></trkpt><trkpt lat="38.175175" lon="15.80751"><ele>1084.5</ele><time>2026-04-21T09:46:31.307Z</time></trkpt><trkpt lat="38.1751567" lon="15.80769"><ele>1086.0</ele><time>2026-04-21T09:46:32.308Z</time></trkpt><trkpt lat="38.175155" lon="15.8078767"><ele>1087.3333333333333</ele><time>2026-04-21T09:46:33.308Z</time></trkpt><trkpt lat="38.17515" lon="15.8080617"><ele>1088.6666666666665</ele><time>2026-04-21T09:46:34.308Z</time></trkpt><trkpt lat="38.1751417" lon="15.80825"><ele>1090.0</ele><time>2026-04-21T09:46:35.308Z</time></trkpt><trkpt lat="38.1751133" lon="15.80845"><ele>1091.5</ele><time>2026-04-21T09:46:36.308Z</time></trkpt><trkpt lat="38.1750783" lon="15.80864"><ele>1093.0</ele><time>2026-04-21T09:46:37.308Z</time></trkpt><trkpt lat="38.175045" lon="15.80882"><ele>1094.5</ele><time>2026-04-21T09:46:38.308Z</time></trkpt><trkpt lat="38.175015" lon="15.808995"><ele>1096.0</ele><time>2026-04-21T09:46:39.308Z</time></trkpt><trkpt lat="38.1749917" lon="15.8091383"><ele>1096.0</ele><time>2026-04-21T09:46:40.308Z</time></trkpt><trkpt lat="38.1749883" lon="15.8092767"><ele>1096.0</ele><time>2026-04-21T09:46:41.308Z</time></trkpt><trkpt lat="38.1750033" lon="15.8094083"><ele>1096.0</ele><time>2026-04-21T09:46:42.308Z</time></trkpt><trkpt lat="38.1750417" lon="15.8095433"><ele>1096.0</ele><time>2026-04-21T09:46:43.308Z</time></trkpt><trkpt lat="38.1750917" lon="15.80969"><ele>1095.8</ele><time>2026-04-21T09:46:44.308Z</time></trkpt><trkpt lat="38.175135" lon="15.8098133"><ele>1095.6</ele><time>2026-04-21T09:46:45.308Z</time></trkpt><trkpt lat="38.1751717" lon="15.809935"><ele>1095.4</ele><time>2026-04-21T09:46:46.308Z</time></trkpt><trkpt lat="38.175205" lon="15.8100683"><ele>1095.2</ele><time>2026-04-21T09:46:47.308Z</time></trkpt><trkpt lat="38.17521" lon="15.81022"><ele>1095.0</ele><time>2026-04-21T09:46:48.308Z</time></trkpt><trkpt lat="38.175205" lon="15.81038"><ele>1095.5</ele><time>2026-04-21T09:46:49.308Z</time></trkpt><trkpt lat="38.1752133" lon="15.8105517"><ele>1096.0</ele><time>2026-04-21T09:46:50.308Z</time></trkpt><trkpt lat="38.175235" lon="15.8107217"><ele>1096.5</ele><time>2026-04-21T09:46:51.308Z</time></trkpt><trkpt lat="38.175265" lon="15.8108783"><ele>1097.0</ele><time>2026-04-21T09:46:52.308Z</time></trkpt><trkpt lat="38.1753" lon="15.8110317"><ele>1099.4</ele><time>2026-04-21T09:46:53.308Z</time></trkpt><trkpt lat="38.175335" lon="15.8111783"><ele>1101.8000000000002</ele><time>2026-04-21T09:46:54.308Z</time></trkpt><trkpt lat="38.175365" lon="15.81131"><ele>1104.2</ele><time>2026-04-21T09:46:55.308Z</time></trkpt><trkpt lat="38.17538" lon="15.8114167"><ele>1106.6000000000001</ele><time>2026-04-21T09:46:56.308Z</time></trkpt><trkpt lat="38.1753683" lon="15.8115217"><ele>1109.0</ele><time>2026-04-21T09:46:57.308Z</time></trkpt><trkpt lat="38.1753533" lon="15.811615"><ele>1109.0</ele><time>2026-04-21T09:46:58.308Z</time></trkpt><trkpt lat="38.175295" lon="15.8116883"><ele>1109.0</ele><time>2026-04-21T09:46:59.308Z</time></trkpt><trkpt lat="38.17521" lon="15.81174"><ele>1109.0</ele><time>2026-04-21T09:47:00.308Z</time></trkpt><trkpt lat="38.1750967" lon="15.81178"><ele>1109.0</ele><time>2026-04-21T09:47:01.308Z</time></trkpt><trkpt lat="38.1749667" lon="15.8118317"><ele>1109.0</ele><time>2026-04-21T09:47:02.308Z</time></trkpt><trkpt lat="38.1748383" lon="15.8118883"><ele>1111.0</ele><time>2026-04-21T09:47:03.308Z</time></trkpt><trkpt lat="38.1747067" lon="15.811965"><ele>1113.0</ele><time>2026-04-21T09:47:04.307Z</time></trkpt><trkpt lat="38.174585" lon="15.8120417"><ele>1115.0</ele><time>2026-04-21T09:47:05.308Z</time></trkpt><trkpt lat="38.17448" lon="15.812135"><ele>1117.0</ele><time>2026-04-21T09:47:06.308Z</time></trkpt><trkpt lat="38.1743933" lon="15.812245"><ele>1117.0</ele><time>2026-04-21T09:47:07.308Z</time></trkpt><trkpt lat="38.1743117" lon="15.8123583"><ele>1117.0</ele><time>2026-04-21T09:47:08.308Z</time></trkpt><trkpt lat="38.174225" lon="15.81247"><ele>1117.0</ele><time>2026-04-21T09:47:09.307Z</time></trkpt><trkpt lat="38.174135" lon="15.8125817"><ele>1117.0</ele><time>2026-04-21T09:47:10.308Z</time></trkpt><trkpt lat="38.17405" lon="15.8126883"><ele>1118.2</ele><time>2026-04-21T09:47:11.308Z</time></trkpt><trkpt lat="38.173975" lon="15.8127883"><ele>1119.4</ele><time>2026-04-21T09:47:12.308Z</time></trkpt><trkpt lat="38.1739117" lon="15.8128867"><ele>1120.6</ele><time>2026-04-21T09:47:13.308Z</time></trkpt><trkpt lat="38.1738533" lon="15.8129833"><ele>1121.8</ele><time>2026-04-21T09:47:14.308Z</time></trkpt><trkpt lat="38.1737983" lon="15.813085"><ele>1123.0</ele><time>2026-04-21T09:47:15.307Z</time></trkpt><trkpt lat="38.1737417" lon="15.813185"><ele>1123.0</ele><time>2026-04-21T09:47:16.308Z</time></trkpt><trkpt lat="38.173685" lon="15.813265"><ele>1123.0</ele><time>2026-04-21T09:47:17.308Z</time></trkpt><trkpt lat="38.17361" lon="15.8133267"><ele>1123.0</ele><time>2026-04-21T09:47:18.308Z</time></trkpt><trkpt lat="38.1735183" lon="15.8133783"><ele>1123.0</ele><time>2026-04-21T09:47:19.308Z</time></trkpt><trkpt lat="38.1734167" lon="15.8134383"><ele>1123.0</ele><time>2026-04-21T09:47:20.308Z</time></trkpt><trkpt lat="38.1733" lon="15.8135"><ele>1128.5</ele><time>2026-04-21T09:47:21.308Z</time></trkpt><trkpt lat="38.1731817" lon="15.8135533"><ele>1134.0</ele><time>2026-04-21T09:47:22.308Z</time></trkpt><trkpt lat="38.173055" lon="15.8135983"><ele>1139.5</ele><time>2026-04-21T09:47:23.308Z</time></trkpt><trkpt lat="38.1729267" lon="15.813635"><ele>1145.0</ele><time>2026-04-21T09:47:24.308Z</time></trkpt><trkpt lat="38.1727983" lon="15.81367"><ele>1145.0</ele><time>2026-04-21T09:47:25.308Z</time></trkpt><trkpt lat="38.1726683" lon="15.81371"><ele>1145.0</ele><time>2026-04-21T09:47:26.308Z</time></trkpt><trkpt lat="38.1725333" lon="15.8137483"><ele>1145.0</ele><time>2026-04-21T09:47:27.308Z</time></trkpt><trkpt lat="38.1724" lon="15.8137983"><ele>1145.0</ele><time>2026-04-21T09:47:28.308Z</time></trkpt><trkpt lat="38.172255" lon="15.813835"><ele>1145.0</ele><time>2026-04-21T09:47:29.307Z</time></trkpt><trkpt lat="38.1721217" lon="15.8138733"><ele>1145.0</ele><time>2026-04-21T09:47:30.307Z</time></trkpt><trkpt lat="38.1719933" lon="15.8139067"><ele>1145.0</ele><time>2026-04-21T09:47:31.308Z</time></trkpt><trkpt lat="38.1718583" lon="15.813945"><ele>1145.0</ele><time>2026-04-21T09:47:32.308Z</time></trkpt><trkpt lat="38.1717433" lon="15.814"><ele>1145.0</ele><time>2026-04-21T09:47:33.308Z</time></trkpt><trkpt lat="38.1716333" lon="15.8140783"><ele>1145.0</ele><time>2026-04-21T09:47:34.307Z</time></trkpt><trkpt lat="38.1715433" lon="15.8141633"><ele>1145.0</ele><time>2026-04-21T09:47:35.308Z</time></trkpt><trkpt lat="38.1714717" lon="15.8142683"><ele>1145.0</ele><time>2026-04-21T09:47:36.308Z</time></trkpt><trkpt lat="38.1714233" lon="15.8143683"><ele>1145.0</ele><time>2026-04-21T09:47:37.307Z</time></trkpt><trkpt lat="38.1714183" lon="15.81451"><ele>1146.75</ele><time>2026-04-21T09:47:38.308Z</time></trkpt><trkpt lat="38.1714417" lon="15.8146583"><ele>1148.5</ele><time>2026-04-21T09:47:39.308Z</time></trkpt><trkpt lat="38.1715" lon="15.8148317"><ele>1150.25</ele><time>2026-04-21T09:47:40.308Z</time></trkpt><trkpt lat="38.1715483" lon="15.8149933"><ele>1152.0</ele><time>2026-04-21T09:47:41.307Z</time></trkpt><trkpt lat="38.1715767" lon="15.81515"><ele>1154.0</ele><time>2026-04-21T09:47:42.308Z</time></trkpt><trkpt lat="38.1715833" lon="15.815315"><ele>1156.0</ele><time>2026-04-21T09:47:43.308Z</time></trkpt><trkpt lat="38.171585" lon="15.8154783"><ele>1158.0</ele><time>2026-04-21T09:47:44.308Z</time></trkpt><trkpt lat="38.1715733" lon="15.8156433"><ele>1160.0</ele><time>2026-04-21T09:47:45.308Z</time></trkpt><trkpt lat="38.1715567" lon="15.815795"><ele>1160.0</ele><time>2026-04-21T09:47:46.308Z</time></trkpt><trkpt lat="38.17154" lon="15.81595"><ele>1160.0</ele><time>2026-04-21T09:47:47.308Z</time></trkpt><trkpt lat="38.171525" lon="15.8161167"><ele>1160.0</ele><time>2026-04-21T09:47:48.308Z</time></trkpt><trkpt lat="38.1715167" lon="15.8162883"><ele>1160.0</ele><time>2026-04-21T09:47:49.308Z</time></trkpt><trkpt lat="38.17152" lon="15.8164683"><ele>1161.5</ele><time>2026-04-21T09:47:50.308Z</time></trkpt><trkpt lat="38.171535" lon="15.81664"><ele>1163.0</ele><time>2026-04-21T09:47:51.308Z</time></trkpt><trkpt lat="38.1715817" lon="15.8167967"><ele>1164.5</ele><time>2026-04-21T09:47:52.308Z</time></trkpt><trkpt lat="38.1716367" lon="15.81695"><ele>1166.0</ele><time>2026-04-21T09:47:53.307Z</time></trkpt><trkpt lat="38.1717033" lon="15.8170967"><ele>1166.0</ele><time>2026-04-21T09:47:54.307Z</time></trkpt><trkpt lat="38.1717783" lon="15.8172317"><ele>1166.0</ele><time>2026-04-21T09:47:55.306Z</time></trkpt><trkpt lat="38.17186" lon="15.8173733"><ele>1166.0</ele><time>2026-04-21T09:47:56.307Z</time></trkpt><trkpt lat="38.1719267" lon="15.8175267"><ele>1166.0</ele><time>2026-04-21T09:47:57.307Z</time></trkpt><trkpt lat="38.1719883" lon="15.8176767"><ele>1167.25</ele><time>2026-04-21T09:47:58.307Z</time></trkpt><trkpt lat="38.17203" lon="15.81784"><ele>1168.5</ele><time>2026-04-21T09:47:59.307Z</time></trkpt><trkpt lat="38.17206" lon="15.81801"><ele>1169.75</ele><time>2026-04-21T09:48:00.307Z</time></trkpt><trkpt lat="38.1720783" lon="15.8181817"><ele>1171.0</ele><time>2026-04-21T09:48:01.306Z</time></trkpt><trkpt lat="38.1720933" lon="15.81836"><ele>1170.75</ele><time>2026-04-21T09:48:02.307Z</time></trkpt><trkpt lat="38.1720967" lon="15.8185433"><ele>1170.5</ele><time>2026-04-21T09:48:03.307Z</time></trkpt><trkpt lat="38.172095" lon="15.818715"><ele>1170.25</ele><time>2026-04-21T09:48:04.307Z</time></trkpt><trkpt lat="38.17209" lon="15.8188717"><ele>1170.0</ele><time>2026-04-21T09:48:05.307Z</time></trkpt><trkpt lat="38.1720767" lon="15.819015"><ele>1170.0</ele><time>2026-04-21T09:48:06.307Z</time></trkpt><trkpt lat="38.17206" lon="15.8191517"><ele>1170.0</ele><time>2026-04-21T09:48:07.307Z</time></trkpt><trkpt lat="38.1720283" lon="15.8192883"><ele>1170.0</ele><time>2026-04-21T09:48:08.307Z</time></trkpt><trkpt lat="38.1720017" lon="15.819415"><ele>1170.0</ele><time>2026-04-21T09:48:09.307Z</time></trkpt><trkpt lat="38.171975" lon="15.8195433"><ele>1170.0</ele><time>2026-04-21T09:48:10.307Z</time></trkpt><trkpt lat="38.1719483" lon="15.8196533"><ele>1169.5</ele><time>2026-04-21T09:48:11.306Z</time></trkpt><trkpt lat="38.1719217" lon="15.8197517"><ele>1169.0</ele><time>2026-04-21T09:48:12.307Z</time></trkpt><trkpt lat="38.1719033" lon="15.8198333"><ele>1168.5</ele><time>2026-04-21T09:48:13.307Z</time></trkpt><trkpt lat="38.17189" lon="15.8199683"><ele>1168.0</ele><time>2026-04-21T09:48:15.306Z</time></trkpt><trkpt lat="38.171895" lon="15.8200733"><ele>1167.5</ele><time>2026-04-21T09:48:17.307Z</time></trkpt><trkpt lat="38.1719417" lon="15.8201367"><ele>1167.0</ele><time>2026-04-21T09:48:20.307Z</time></trkpt><trkpt lat="38.1718733" lon="15.8201633"><ele>1167.0</ele><time>2026-04-21T10:12:24.303Z</time></trkpt><trkpt lat="38.1718117" lon="15.82025"><ele>1167.0</ele><time>2026-04-21T10:12:27.303Z</time></trkpt><trkpt lat="38.1717683" lon="15.8203983"><ele>1167.0</ele><time>2026-04-21T10:12:29.303Z</time></trkpt><trkpt lat="38.171745" lon="15.82048"><ele>1167.0</ele><time>2026-04-21T10:12:30.303Z</time></trkpt><trkpt lat="38.1717233" lon="15.8205633"><ele>1167.0</ele><time>2026-04-21T10:12:31.303Z</time></trkpt><trkpt lat="38.1717017" lon="15.82065"><ele>1167.0</ele><time>2026-04-21T10:12:32.303Z</time></trkpt><trkpt lat="38.171685" lon="15.8207383"><ele>1167.0</ele><time>2026-04-21T10:12:33.303Z</time></trkpt><trkpt lat="38.1716667" lon="15.8208317"><ele>1167.0</ele><time>2026-04-21T10:12:34.303Z</time></trkpt><trkpt lat="38.1716433" lon="15.8209283"><ele>1167.0</ele><time>2026-04-21T10:12:35.303Z</time></trkpt><trkpt lat="38.1716133" lon="15.8210283"><ele>1167.0</ele><time>2026-04-21T10:12:36.303Z</time></trkpt><trkpt lat="38.17159" lon="15.8211283"><ele>1167.0</ele><time>2026-04-21T10:12:37.303Z</time></trkpt><trkpt lat="38.1715633" lon="15.8212417"><ele>1167.0</ele><time>2026-04-21T10:12:38.302Z</time></trkpt><trkpt lat="38.1715333" lon="15.8213567"><ele>1165.0</ele><time>2026-04-21T10:12:39.303Z</time></trkpt><trkpt lat="38.1715" lon="15.821475"><ele>1163.0</ele><time>2026-04-21T10:12:40.303Z</time></trkpt><trkpt lat="38.1714683" lon="15.8215983"><ele>1161.0</ele><time>2026-04-21T10:12:41.303Z</time></trkpt><trkpt lat="38.1714433" lon="15.8217317"><ele>1159.0</ele><time>2026-04-21T10:12:42.303Z</time></trkpt><trkpt lat="38.171415" lon="15.8218667"><ele>1157.0</ele><time>2026-04-21T10:12:43.303Z</time></trkpt><trkpt lat="38.171385" lon="15.8220033"><ele>1157.0</ele><time>2026-04-21T10:12:44.303Z</time></trkpt><trkpt lat="38.1713517" lon="15.822145"><ele>1157.0</ele><time>2026-04-21T10:12:45.303Z</time></trkpt><trkpt lat="38.1713167" lon="15.8222883"><ele>1157.0</ele><time>2026-04-21T10:12:46.303Z</time></trkpt><trkpt lat="38.1712833" lon="15.82244"><ele>1157.0</ele><time>2026-04-21T10:12:47.303Z</time></trkpt><trkpt lat="38.17125" lon="15.8226"><ele>1163.3333333333335</ele><time>2026-04-21T10:12:48.303Z</time></trkpt><trkpt lat="38.1712217" lon="15.8227817"><ele>1169.6666666666667</ele><time>2026-04-21T10:12:49.302Z</time></trkpt><trkpt lat="38.171195" lon="15.82298"><ele>1176.0</ele><time>2026-04-21T10:12:50.303Z</time></trkpt><trkpt lat="38.1711733" lon="15.8231767"><ele>1176.0</ele><time>2026-04-21T10:12:51.303Z</time></trkpt><trkpt lat="38.1711483" lon="15.82341"><ele>1176.0</ele><time>2026-04-21T10:12:52.303Z</time></trkpt><trkpt lat="38.1711267" lon="15.82364"><ele>1176.0</ele><time>2026-04-21T10:12:53.303Z</time></trkpt><trkpt lat="38.17111" lon="15.8238567"><ele>1180.3333333333333</ele><time>2026-04-21T10:12:54.303Z</time></trkpt><trkpt lat="38.1710967" lon="15.8240467"><ele>1184.6666666666665</ele><time>2026-04-21T10:12:55.303Z</time></trkpt><trkpt lat="38.1710783" lon="15.8242517"><ele>1189.0</ele><time>2026-04-21T10:12:56.303Z</time></trkpt><trkpt lat="38.1710567" lon="15.8244383"><ele>1191.5</ele><time>2026-04-21T10:12:57.303Z</time></trkpt><trkpt lat="38.1710417" lon="15.8246233"><ele>1194.0</ele><time>2026-04-21T10:12:58.303Z</time></trkpt><trkpt lat="38.1710367" lon="15.8247733"><ele>1196.5</ele><time>2026-04-21T10:12:59.303Z</time></trkpt><trkpt lat="38.1710333" lon="15.8249317"><ele>1199.0</ele><time>2026-04-21T10:13:00.303Z</time></trkpt><trkpt lat="38.1710367" lon="15.8250717"><ele>1201.75</ele><time>2026-04-21T10:13:01.303Z</time></trkpt><trkpt lat="38.17103" lon="15.8252217"><ele>1204.5</ele><time>2026-04-21T10:13:02.303Z</time></trkpt><trkpt lat="38.1710233" lon="15.82537"><ele>1207.25</ele><time>2026-04-21T10:13:03.303Z</time></trkpt><trkpt lat="38.1710083" lon="15.8255217"><ele>1210.0</ele><time>2026-04-21T10:13:04.303Z</time></trkpt><trkpt lat="38.17099" lon="15.8256733"><ele>1210.0</ele><time>2026-04-21T10:13:05.303Z</time></trkpt><trkpt lat="38.17096" lon="15.82582"><ele>1210.0</ele><time>2026-04-21T10:13:06.303Z</time></trkpt><trkpt lat="38.1709183" lon="15.8259733"><ele>1210.0</ele><time>2026-04-21T10:13:07.303Z</time></trkpt><trkpt lat="38.1708667" lon="15.8261217"><ele>1210.0</ele><time>2026-04-21T10:13:08.303Z</time></trkpt><trkpt lat="38.170805" lon="15.82627"><ele>1211.5</ele><time>2026-04-21T10:13:09.303Z</time></trkpt><trkpt lat="38.1707317" lon="15.8264283"><ele>1213.0</ele><time>2026-04-21T10:13:10.303Z</time></trkpt><trkpt lat="38.17066" lon="15.8265683"><ele>1214.5</ele><time>2026-04-21T10:13:11.303Z</time></trkpt><trkpt lat="38.170595" lon="15.8267017"><ele>1216.0</ele><time>2026-04-21T10:13:12.303Z</time></trkpt><trkpt lat="38.1705367" lon="15.82684"><ele>1216.0</ele><time>2026-04-21T10:13:13.303Z</time></trkpt><trkpt lat="38.1704667" lon="15.8269667"><ele>1216.0</ele><time>2026-04-21T10:13:14.303Z</time></trkpt><trkpt lat="38.170415" lon="15.8271"><ele>1216.0</ele><time>2026-04-21T10:13:15.303Z</time></trkpt><trkpt lat="38.1703867" lon="15.82725"><ele>1216.0</ele><time>2026-04-21T10:13:16.303Z</time></trkpt><trkpt lat="38.1704017" lon="15.82738"><ele>1216.0</ele><time>2026-04-21T10:13:17.303Z</time></trkpt><trkpt lat="38.1704483" lon="15.8274883"><ele>1216.0</ele><time>2026-04-21T10:13:18.303Z</time></trkpt><trkpt lat="38.1705133" lon="15.8275883"><ele>1216.0</ele><time>2026-04-21T10:13:19.303Z</time></trkpt><trkpt lat="38.1705817" lon="15.8276683"><ele>1216.0</ele><time>2026-04-21T10:13:20.303Z</time></trkpt><trkpt lat="38.170645" lon="15.8277333"><ele>1216.0</ele><time>2026-04-21T10:13:21.303Z</time></trkpt><trkpt lat="38.1706967" lon="15.8278483"><ele>1219.8</ele><time>2026-04-21T10:13:23.303Z</time></trkpt><trkpt lat="38.170655" lon="15.8279333"><ele>1223.6</ele><time>2026-04-21T10:13:25.303Z</time></trkpt><trkpt lat="38.1705883" lon="15.8279567"><ele>1227.4</ele><time>2026-04-21T10:13:26.303Z</time></trkpt><trkpt lat="38.1704833" lon="15.8279833"><ele>1231.2</ele><time>2026-04-21T10:13:27.303Z</time></trkpt><trkpt lat="38.170375" lon="15.828015"><ele>1235.0</ele><time>2026-04-21T10:13:28.303Z</time></trkpt><trkpt lat="38.1702617" lon="15.8280683"><ele>1235.0</ele><time>2026-04-21T10:13:29.303Z</time></trkpt><trkpt lat="38.1701517" lon="15.8281117"><ele>1235.0</ele><time>2026-04-21T10:13:30.303Z</time></trkpt><trkpt lat="38.170045" lon="15.828155"><ele>1235.0</ele><time>2026-04-21T10:13:31.303Z</time></trkpt><trkpt lat="38.16995" lon="15.8281917"><ele>1235.0</ele><time>2026-04-21T10:13:32.303Z</time></trkpt><trkpt lat="38.1698683" lon="15.82822"><ele>1235.0</ele><time>2026-04-21T10:13:33.303Z</time></trkpt><trkpt lat="38.1697833" lon="15.8282433"><ele>1236.8333333333335</ele><time>2026-04-21T10:13:34.302Z</time></trkpt><trkpt lat="38.1697033" lon="15.8282567"><ele>1238.6666666666667</ele><time>2026-04-21T10:13:35.303Z</time></trkpt><trkpt lat="38.1696417" lon="15.8282767"><ele>1240.5</ele><time>2026-04-21T10:13:36.303Z</time></trkpt><trkpt lat="38.1695817" lon="15.82837"><ele>1242.3333333333333</ele><time>2026-04-21T10:13:38.303Z</time></trkpt><trkpt lat="38.16962" lon="15.8284917"><ele>1244.1666666666665</ele><time>2026-04-21T10:13:40.303Z</time></trkpt><trkpt lat="38.1696733" lon="15.8285367"><ele>1246.0</ele><time>2026-04-21T10:13:41.302Z</time></trkpt><trkpt lat="38.169735" lon="15.8285667"><ele>1247.2</ele><time>2026-04-21T10:13:42.303Z</time></trkpt><trkpt lat="38.1698117" lon="15.828575"><ele>1248.3999999999999</ele><time>2026-04-21T10:13:43.303Z</time></trkpt><trkpt lat="38.1699067" lon="15.8285433"><ele>1249.6</ele><time>2026-04-21T10:13:44.303Z</time></trkpt><trkpt lat="38.17001" lon="15.8285"><ele>1250.8</ele><time>2026-04-21T10:13:45.303Z</time></trkpt><trkpt lat="38.1700983" lon="15.8284767"><ele>1252.0</ele><time>2026-04-21T10:13:46.303Z</time></trkpt><trkpt lat="38.17018" lon="15.8284783"><ele>1252.0</ele><time>2026-04-21T10:13:47.303Z</time></trkpt><trkpt lat="38.1702483" lon="15.8285083"><ele>1252.0</ele><time>2026-04-21T10:13:48.303Z</time></trkpt><trkpt lat="38.1702933" lon="15.8285867"><ele>1252.0</ele><time>2026-04-21T10:13:50.303Z</time></trkpt><trkpt lat="38.170205" lon="15.8286583"><ele>1252.0</ele><time>2026-04-21T10:13:52.303Z</time></trkpt><trkpt lat="38.1701217" lon="15.8287067"><ele>1252.0</ele><time>2026-04-21T10:13:53.303Z</time></trkpt><trkpt lat="38.1700533" lon="15.82874"><ele>1252.0</ele><time>2026-04-21T10:13:54.303Z</time></trkpt><trkpt lat="38.1699883" lon="15.82877"><ele>1252.0</ele><time>2026-04-21T10:13:55.303Z</time></trkpt><trkpt lat="38.1699217" lon="15.8288033"><ele>1252.0</ele><time>2026-04-21T10:13:56.303Z</time></trkpt><trkpt lat="38.169855" lon="15.8288417"><ele>1252.0</ele><time>2026-04-21T10:13:57.303Z</time></trkpt><trkpt lat="38.1697783" lon="15.828895"><ele>1252.0</ele><time>2026-04-21T10:13:58.303Z</time></trkpt><trkpt lat="38.1697017" lon="15.8289767"><ele>1252.0</ele><time>2026-04-21T10:13:59.303Z</time></trkpt><trkpt lat="38.1696367" lon="15.829075"><ele>1252.0</ele><time>2026-04-21T10:14:00.303Z</time></trkpt><trkpt lat="38.1695767" lon="15.8291833"><ele>1255.4</ele><time>2026-04-21T10:14:01.303Z</time></trkpt><trkpt lat="38.1695283" lon="15.8292917"><ele>1258.8000000000002</ele><time>2026-04-21T10:14:02.302Z</time></trkpt><trkpt lat="38.1694917" lon="15.829415"><ele>1262.2</ele><time>2026-04-21T10:14:03.302Z</time></trkpt><trkpt lat="38.1694517" lon="15.829545"><ele>1265.6000000000001</ele><time>2026-04-21T10:14:04.302Z</time></trkpt><trkpt lat="38.1694133" lon="15.829665"><ele>1269.0</ele><time>2026-04-21T10:14:05.303Z</time></trkpt><trkpt lat="38.1693783" lon="15.8297683"><ele>1269.0</ele><time>2026-04-21T10:14:06.303Z</time></trkpt><trkpt lat="38.1693467" lon="15.8298583"><ele>1269.0</ele><time>2026-04-21T10:14:07.303Z</time></trkpt><trkpt lat="38.1693067" lon="15.829945"><ele>1269.0</ele><time>2026-04-21T10:14:08.303Z</time></trkpt><trkpt lat="38.1692633" lon="15.830005"><ele>1269.0</ele><time>2026-04-21T10:14:09.303Z</time></trkpt><trkpt lat="38.1691933" lon="15.8299267"><ele>1269.0</ele><time>2026-04-21T10:14:11.303Z</time></trkpt><trkpt lat="38.169175" lon="15.8298333"><ele>1269.0</ele><time>2026-04-21T10:14:12.303Z</time></trkpt><trkpt lat="38.16917" lon="15.8296967"><ele>1269.0</ele><time>2026-04-21T10:14:13.302Z</time></trkpt><trkpt lat="38.1691567" lon="15.829545"><ele>1269.0</ele><time>2026-04-21T10:14:14.303Z</time></trkpt><trkpt lat="38.169135" lon="15.8294017"><ele>1269.0</ele><time>2026-04-21T10:14:15.302Z</time></trkpt><trkpt lat="38.1690733" lon="15.82931"><ele>1269.0</ele><time>2026-04-21T10:14:16.301Z</time></trkpt><trkpt lat="38.169" lon="15.829285"><ele>1269.0</ele><time>2026-04-21T10:14:17.302Z</time></trkpt><trkpt lat="38.168925" lon="15.829315"><ele>1268.6666666666667</ele><time>2026-04-21T10:14:18.301Z</time></trkpt><trkpt lat="38.168835" lon="15.8294217"><ele>1268.3333333333335</ele><time>2026-04-21T10:14:19.302Z</time></trkpt><trkpt lat="38.1687417" lon="15.8296"><ele>1268.0</ele><time>2026-04-21T10:14:20.302Z</time></trkpt><trkpt lat="38.1686283" lon="15.8298367"><ele>1268.0</ele><time>2026-04-21T10:14:21.302Z</time></trkpt><trkpt lat="38.168485" lon="15.830115"><ele>1268.0</ele><time>2026-04-21T10:14:22.302Z</time></trkpt><trkpt lat="38.1683583" lon="15.8303667"><ele>1269.6666666666667</ele><time>2026-04-21T10:14:23.302Z</time></trkpt><trkpt lat="38.1682533" lon="15.8305933"><ele>1271.3333333333333</ele><time>2026-04-21T10:14:24.302Z</time></trkpt><trkpt lat="38.1681667" lon="15.830755"><ele>1273.0</ele><time>2026-04-21T10:14:25.302Z</time></trkpt><trkpt lat="38.1680933" lon="15.8308783"><ele>1276.6</ele><time>2026-04-21T10:14:26.302Z</time></trkpt><trkpt lat="38.1680117" lon="15.830975"><ele>1280.1999999999998</ele><time>2026-04-21T10:14:27.301Z</time></trkpt><trkpt lat="38.1679283" lon="15.83105"><ele>1283.8</ele><time>2026-04-21T10:14:28.302Z</time></trkpt><trkpt lat="38.1678383" lon="15.8310983"><ele>1287.3999999999999</ele><time>2026-04-21T10:14:29.302Z</time></trkpt><trkpt lat="38.1677483" lon="15.8311117"><ele>1291.0</ele><time>2026-04-21T10:14:30.302Z</time></trkpt><trkpt lat="38.1676617" lon="15.83112"><ele>1291.0</ele><time>2026-04-21T10:14:31.302Z</time></trkpt><trkpt lat="38.1675833" lon="15.831125"><ele>1291.0</ele><time>2026-04-21T10:14:32.302Z</time></trkpt><trkpt lat="38.1675117" lon="15.8311433"><ele>1291.0</ele><time>2026-04-21T10:14:33.302Z</time></trkpt><trkpt lat="38.16742" lon="15.8311883"><ele>1291.0</ele><time>2026-04-21T10:14:35.301Z</time></trkpt><trkpt lat="38.16737" lon="15.8312517"><ele>1291.0</ele><time>2026-04-21T10:14:37.302Z</time></trkpt><trkpt lat="38.1673267" lon="15.8313233"><ele>1291.0</ele><time>2026-04-21T10:14:39.301Z</time></trkpt><trkpt lat="38.1672933" lon="15.83142"><ele>1292.0</ele><time>2026-04-21T10:14:41.302Z</time></trkpt><trkpt lat="38.1672517" lon="15.8315117"><ele>1293.0</ele><time>2026-04-21T10:14:43.302Z</time></trkpt><trkpt lat="38.1671983" lon="15.831625"><ele>1294.0</ele><time>2026-04-21T10:14:45.302Z</time></trkpt><trkpt lat="38.1671367" lon="15.83176"><ele>1295.0</ele><time>2026-04-21T10:14:47.302Z</time></trkpt><trkpt lat="38.16711" lon="15.8318333"><ele>1296.0</ele><time>2026-04-21T10:14:48.302Z</time></trkpt><trkpt lat="38.167075" lon="15.8319133"><ele>1297.0</ele><time>2026-04-21T10:14:49.302Z</time></trkpt><trkpt lat="38.16704" lon="15.8319917"><ele>1297.0</ele><time>2026-04-21T10:14:50.302Z</time></trkpt><trkpt lat="38.167" lon="15.8320767"><ele>1297.0</ele><time>2026-04-21T10:14:51.302Z</time></trkpt><trkpt lat="38.16696" lon="15.832155"><ele>1297.0</ele><time>2026-04-21T10:14:52.302Z</time></trkpt><trkpt lat="38.1668717" lon="15.83226"><ele>1297.0</ele><time>2026-04-21T10:14:54.302Z</time></trkpt><trkpt lat="38.166815" lon="15.8323067"><ele>1297.0</ele><time>2026-04-21T10:14:55.302Z</time></trkpt><trkpt lat="38.1667467" lon="15.8323467"><ele>1297.0</ele><time>2026-04-21T10:14:56.302Z</time></trkpt><trkpt lat="38.16668" lon="15.8323833"><ele>1297.0</ele><time>2026-04-21T10:14:57.302Z</time></trkpt><trkpt lat="38.1666133" lon="15.8324167"><ele>1297.0</ele><time>2026-04-21T10:14:58.302Z</time></trkpt><trkpt lat="38.1665417" lon="15.8324517"><ele>1297.0</ele><time>2026-04-21T10:14:59.302Z</time></trkpt><trkpt lat="38.1664717" lon="15.83251"><ele>1297.0</ele><time>2026-04-21T10:15:00.302Z</time></trkpt><trkpt lat="38.1664017" lon="15.8325667"><ele>1297.0</ele><time>2026-04-21T10:15:01.302Z</time></trkpt><trkpt lat="38.166335" lon="15.8326267"><ele>1297.0</ele><time>2026-04-21T10:15:02.302Z</time></trkpt><trkpt lat="38.1662667" lon="15.8326917"><ele>1299.8333333333333</ele><time>2026-04-21T10:15:03.302Z</time></trkpt><trkpt lat="38.1662033" lon="15.8327583"><ele>1302.6666666666665</ele><time>2026-04-21T10:15:04.302Z</time></trkpt><trkpt lat="38.1661383" lon="15.83282"><ele>1305.5</ele><time>2026-04-21T10:15:05.301Z</time></trkpt><trkpt lat="38.1660667" lon="15.8328817"><ele>1308.3333333333333</ele><time>2026-04-21T10:15:06.302Z</time></trkpt><trkpt lat="38.1659967" lon="15.8329233"><ele>1311.1666666666667</ele><time>2026-04-21T10:15:07.302Z</time></trkpt><trkpt lat="38.1659183" lon="15.8329517"><ele>1314.0</ele><time>2026-04-21T10:15:08.302Z</time></trkpt><trkpt lat="38.1658233" lon="15.8329633"><ele>1314.0</ele><time>2026-04-21T10:15:09.302Z</time></trkpt><trkpt lat="38.1657283" lon="15.83297"><ele>1314.0</ele><time>2026-04-21T10:15:10.302Z</time></trkpt><trkpt lat="38.165625" lon="15.8329783"><ele>1314.0</ele><time>2026-04-21T10:15:11.302Z</time></trkpt><trkpt lat="38.165525" lon="15.8329917"><ele>1314.0</ele><time>2026-04-21T10:15:12.302Z</time></trkpt><trkpt lat="38.16542" lon="15.8330067"><ele>1314.0</ele><time>2026-04-21T10:15:13.302Z</time></trkpt><trkpt lat="38.16531" lon="15.833035"><ele>1315.0</ele><time>2026-04-21T10:15:14.302Z</time></trkpt><trkpt lat="38.165205" lon="15.8330667"><ele>1316.0</ele><time>2026-04-21T10:15:15.302Z</time></trkpt><trkpt lat="38.1650883" lon="15.8331083"><ele>1317.0</ele><time>2026-04-21T10:15:16.302Z</time></trkpt><trkpt lat="38.1649717" lon="15.833165"><ele>1318.0</ele><time>2026-04-21T10:15:17.301Z</time></trkpt><trkpt lat="38.1648533" lon="15.83323"><ele>1319.75</ele><time>2026-04-21T10:15:18.302Z</time></trkpt><trkpt lat="38.16475" lon="15.833305"><ele>1321.5</ele><time>2026-04-21T10:15:19.302Z</time></trkpt><trkpt lat="38.1646533" lon="15.8333933"><ele>1323.25</ele><time>2026-04-21T10:15:20.302Z</time></trkpt><trkpt lat="38.1645667" lon="15.8334967"><ele>1325.0</ele><time>2026-04-21T10:15:21.302Z</time></trkpt><trkpt lat="38.164505" lon="15.83361"><ele>1325.0</ele><time>2026-04-21T10:15:22.302Z</time></trkpt><trkpt lat="38.1644567" lon="15.8337183"><ele>1325.0</ele><time>2026-04-21T10:15:23.302Z</time></trkpt><trkpt lat="38.1644183" lon="15.83383"><ele>1325.0</ele><time>2026-04-21T10:15:24.302Z</time></trkpt><trkpt lat="38.1643933" lon="15.83395"><ele>1325.0</ele><time>2026-04-21T10:15:25.302Z</time></trkpt><trkpt lat="38.1643533" lon="15.8340583"><ele>1325.0</ele><time>2026-04-21T10:15:26.302Z</time></trkpt><trkpt lat="38.1643083" lon="15.8341667"><ele>1325.0</ele><time>2026-04-21T10:15:27.302Z</time></trkpt><trkpt lat="38.1642533" lon="15.834255"><ele>1325.0</ele><time>2026-04-21T10:15:28.301Z</time></trkpt><trkpt lat="38.1641883" lon="15.8343217"><ele>1325.0</ele><time>2026-04-21T10:15:29.302Z</time></trkpt><trkpt lat="38.1641" lon="15.83436"><ele>1325.0</ele><time>2026-04-21T10:15:30.302Z</time></trkpt><trkpt lat="38.1640017" lon="15.834385"><ele>1325.0</ele><time>2026-04-21T10:15:31.302Z</time></trkpt><trkpt lat="38.1639" lon="15.8344167"><ele>1326.2</ele><time>2026-04-21T10:15:32.302Z</time></trkpt><trkpt lat="38.1637933" lon="15.8344417"><ele>1327.4</ele><time>2026-04-21T10:15:33.302Z</time></trkpt><trkpt lat="38.1636967" lon="15.83447"><ele>1328.6</ele><time>2026-04-21T10:15:34.301Z</time></trkpt><trkpt lat="38.16361" lon="15.834505"><ele>1329.8</ele><time>2026-04-21T10:15:35.302Z</time></trkpt><trkpt lat="38.1635133" lon="15.8345483"><ele>1331.0</ele><time>2026-04-21T10:15:36.302Z</time></trkpt><trkpt lat="38.1634283" lon="15.8346083"><ele>1331.0</ele><time>2026-04-21T10:15:37.302Z</time></trkpt><trkpt lat="38.1633433" lon="15.83468"><ele>1331.0</ele><time>2026-04-21T10:15:38.302Z</time></trkpt><trkpt lat="38.1632667" lon="15.8347617"><ele>1331.0</ele><time>2026-04-21T10:15:39.302Z</time></trkpt><trkpt lat="38.1631833" lon="15.834855"><ele>1331.0</ele><time>2026-04-21T10:15:40.302Z</time></trkpt><trkpt lat="38.16312" lon="15.834955"><ele>1331.0</ele><time>2026-04-21T10:15:41.302Z</time></trkpt><trkpt lat="38.163065" lon="15.8350817"><ele>1330.25</ele><time>2026-04-21T10:15:42.302Z</time></trkpt><trkpt lat="38.1629967" lon="15.83521"><ele>1329.5</ele><time>2026-04-21T10:15:43.302Z</time></trkpt><trkpt lat="38.1629367" lon="15.8353333"><ele>1328.75</ele><time>2026-04-21T10:15:44.302Z</time></trkpt><trkpt lat="38.16288" lon="15.8354567"><ele>1328.0</ele><time>2026-04-21T10:15:45.302Z</time></trkpt><trkpt lat="38.1628217" lon="15.835565"><ele>1328.0</ele><time>2026-04-21T10:15:46.302Z</time></trkpt><trkpt lat="38.1627533" lon="15.8356717"><ele>1328.0</ele><time>2026-04-21T10:15:47.302Z</time></trkpt><trkpt lat="38.1626833" lon="15.8357717"><ele>1328.0</ele><time>2026-04-21T10:15:48.302Z</time></trkpt><trkpt lat="38.162605" lon="15.83586"><ele>1328.0</ele><time>2026-04-21T10:15:49.302Z</time></trkpt><trkpt lat="38.1625183" lon="15.8359517"><ele>1328.0</ele><time>2026-04-21T10:15:50.302Z</time></trkpt><trkpt lat="38.162425" lon="15.83605"><ele>1331.0</ele><time>2026-04-21T10:15:51.302Z</time></trkpt><trkpt lat="38.1623433" lon="15.8361667"><ele>1334.0</ele><time>2026-04-21T10:15:52.302Z</time></trkpt><trkpt lat="38.1622717" lon="15.836285"><ele>1337.0</ele><time>2026-04-21T10:15:53.302Z</time></trkpt><trkpt lat="38.16221" lon="15.8364133"><ele>1340.0</ele><time>2026-04-21T10:15:54.302Z</time></trkpt><trkpt lat="38.1621383" lon="15.8365267"><ele>1340.0</ele><time>2026-04-21T10:15:55.302Z</time></trkpt><trkpt lat="38.1620583" lon="15.8366067"><ele>1340.0</ele><time>2026-04-21T10:15:56.302Z</time></trkpt><trkpt lat="38.1619717" lon="15.8366633"><ele>1340.0</ele><time>2026-04-21T10:15:57.302Z</time></trkpt><trkpt lat="38.16188" lon="15.836705"><ele>1340.0</ele><time>2026-04-21T10:15:58.301Z</time></trkpt><trkpt lat="38.1618" lon="15.836725"><ele>1340.0</ele><time>2026-04-21T10:15:59.302Z</time></trkpt><trkpt lat="38.1617183" lon="15.8367417"><ele>1340.0</ele><time>2026-04-21T10:16:00.301Z</time></trkpt><trkpt lat="38.1616433" lon="15.8367483"><ele>1340.0</ele><time>2026-04-21T10:16:01.302Z</time></trkpt><trkpt lat="38.1615433" lon="15.8367333"><ele>1340.0</ele><time>2026-04-21T10:16:03.302Z</time></trkpt><trkpt lat="38.1615383" lon="15.8366083"><ele>1340.0</ele><time>2026-04-21T10:16:06.302Z</time></trkpt><trkpt lat="38.1615583" lon="15.8364717"><ele>1340.0</ele><time>2026-04-21T10:16:08.302Z</time></trkpt><trkpt lat="38.1615717" lon="15.83638"><ele>1340.0</ele><time>2026-04-21T10:16:09.301Z</time></trkpt><trkpt lat="38.161585" lon="15.83628"><ele>1340.0</ele><time>2026-04-21T10:16:10.302Z</time></trkpt><trkpt lat="38.1616033" lon="15.8361733"><ele>1340.0</ele><time>2026-04-21T10:16:11.302Z</time></trkpt><trkpt lat="38.1616167" lon="15.8360517"><ele>1340.0</ele><time>2026-04-21T10:16:12.302Z</time></trkpt><trkpt lat="38.16165" lon="15.8359017"><ele>1340.0</ele><time>2026-04-21T10:16:13.302Z</time></trkpt><trkpt lat="38.161685" lon="15.8357433"><ele>1340.6666666666667</ele><time>2026-04-21T10:16:14.301Z</time></trkpt><trkpt lat="38.1617367" lon="15.8355183"><ele>1341.3333333333333</ele><time>2026-04-21T10:16:15.302Z</time></trkpt><trkpt lat="38.16177" lon="15.8353333"><ele>1342.0</ele><time>2026-04-21T10:16:16.301Z</time></trkpt><trkpt lat="38.161785" lon="15.8351717"><ele>1342.3999999999999</ele><time>2026-04-21T10:16:17.301Z</time></trkpt><trkpt lat="38.1617767" lon="15.83504"><ele>1342.8</ele><time>2026-04-21T10:16:18.302Z</time></trkpt><trkpt lat="38.1617317" lon="15.8349367"><ele>1343.2</ele><time>2026-04-21T10:16:19.301Z</time></trkpt><trkpt lat="38.1616867" lon="15.834855"><ele>1343.6</ele><time>2026-04-21T10:16:20.302Z</time></trkpt><trkpt lat="38.161645" lon="15.834785"><ele>1344.0</ele><time>2026-04-21T10:16:21.302Z</time></trkpt><trkpt lat="38.1615483" lon="15.83469"><ele>1344.8333333333333</ele><time>2026-04-21T10:16:23.302Z</time></trkpt><trkpt lat="38.16147" lon="15.8346267"><ele>1345.6666666666667</ele><time>2026-04-21T10:16:25.302Z</time></trkpt><trkpt lat="38.16142" lon="15.8345333"><ele>1346.5</ele><time>2026-04-21T10:16:27.302Z</time></trkpt><trkpt lat="38.1613867" lon="15.8344217"><ele>1347.3333333333335</ele><time>2026-04-21T10:16:29.302Z</time></trkpt><trkpt lat="38.1613633" lon="15.8342983"><ele>1348.1666666666667</ele><time>2026-04-21T10:16:31.302Z</time></trkpt><trkpt lat="38.16135" lon="15.83422"><ele>1349.0</ele><time>2026-04-21T10:16:32.301Z</time></trkpt><trkpt lat="38.1613267" lon="15.83414"><ele>1349.0</ele><time>2026-04-21T10:16:33.301Z</time></trkpt><trkpt lat="38.1613067" lon="15.834045"><ele>1349.0</ele><time>2026-04-21T10:16:34.302Z</time></trkpt><trkpt lat="38.1612733" lon="15.8339517"><ele>1349.0</ele><time>2026-04-21T10:16:35.302Z</time></trkpt><trkpt lat="38.161215" lon="15.8338367"><ele>1349.0</ele><time>2026-04-21T10:16:36.301Z</time></trkpt><trkpt lat="38.1611417" lon="15.833735"><ele>1349.0</ele><time>2026-04-21T10:16:37.302Z</time></trkpt><trkpt lat="38.1610367" lon="15.83364"><ele>1349.0</ele><time>2026-04-21T10:16:38.302Z</time></trkpt><trkpt lat="38.1609" lon="15.83357"><ele>1349.0</ele><time>2026-04-21T10:16:39.302Z</time></trkpt><trkpt lat="38.1607433" lon="15.8335267"><ele>1349.0</ele><time>2026-04-21T10:16:40.302Z</time></trkpt><trkpt lat="38.1605417" lon="15.83349"><ele>1346.5</ele><time>2026-04-21T10:16:41.302Z</time></trkpt><trkpt lat="38.1603183" lon="15.8334717"><ele>1344.0</ele><time>2026-04-21T10:16:42.302Z</time></trkpt><trkpt lat="38.1600833" lon="15.833465"><ele>1346.5</ele><time>2026-04-21T10:16:43.302Z</time></trkpt><trkpt lat="38.1598417" lon="15.83347"><ele>1349.0</ele><time>2026-04-21T10:16:44.302Z</time></trkpt><trkpt lat="38.1596233" lon="15.83347"><ele>1349.0</ele><time>2026-04-21T10:16:45.302Z</time></trkpt><trkpt lat="38.1594217" lon="15.833475"><ele>1349.0</ele><time>2026-04-21T10:16:46.302Z</time></trkpt><trkpt lat="38.159215" lon="15.833455"><ele>1349.0</ele><time>2026-04-21T10:16:47.302Z</time></trkpt><trkpt lat="38.1590267" lon="15.8334517"><ele>1349.6666666666667</ele><time>2026-04-21T10:16:48.302Z</time></trkpt><trkpt lat="38.1588567" lon="15.8334333"><ele>1350.3333333333333</ele><time>2026-04-21T10:16:49.302Z</time></trkpt><trkpt lat="38.1586883" lon="15.83342"><ele>1351.0</ele><time>2026-04-21T10:16:50.302Z</time></trkpt><trkpt lat="38.158515" lon="15.8334"><ele>1351.0</ele><time>2026-04-21T10:16:51.302Z</time></trkpt><trkpt lat="38.1583433" lon="15.833375"><ele>1351.0</ele><time>2026-04-21T10:16:52.302Z</time></trkpt><trkpt lat="38.15818" lon="15.83336"><ele>1351.0</ele><time>2026-04-21T10:16:53.302Z</time></trkpt><trkpt lat="38.1580317" lon="15.8333317"><ele>1351.75</ele><time>2026-04-21T10:16:54.302Z</time></trkpt><trkpt lat="38.1578833" lon="15.833315"><ele>1352.5</ele><time>2026-04-21T10:16:55.302Z</time></trkpt><trkpt lat="38.1577417" lon="15.8332883"><ele>1353.25</ele><time>2026-04-21T10:16:56.302Z</time></trkpt><trkpt lat="38.1575983" lon="15.833265"><ele>1354.0</ele><time>2026-04-21T10:16:57.302Z</time></trkpt><trkpt lat="38.1574367" lon="15.833245"><ele>1354.6666666666665</ele><time>2026-04-21T10:16:58.302Z</time></trkpt><trkpt lat="38.15728" lon="15.8332333"><ele>1355.3333333333333</ele><time>2026-04-21T10:16:59.302Z</time></trkpt><trkpt lat="38.1571333" lon="15.8332183"><ele>1356.0</ele><time>2026-04-21T10:17:00.302Z</time></trkpt><trkpt lat="38.1569767" lon="15.83321"><ele>1356.0</ele><time>2026-04-21T10:17:01.302Z</time></trkpt><trkpt lat="38.1568183" lon="15.833205"><ele>1356.0</ele><time>2026-04-21T10:17:02.302Z</time></trkpt><trkpt lat="38.1566517" lon="15.83319"><ele>1356.0</ele><time>2026-04-21T10:17:03.302Z</time></trkpt><trkpt lat="38.1564967" lon="15.8331733"><ele>1356.3333333333333</ele><time>2026-04-21T10:17:04.302Z</time></trkpt><trkpt lat="38.1563517" lon="15.8331667"><ele>1356.6666666666665</ele><time>2026-04-21T10:17:05.301Z</time></trkpt><trkpt lat="38.1561917" lon="15.833145"><ele>1357.0</ele><time>2026-04-21T10:17:06.302Z</time></trkpt><trkpt lat="38.1560417" lon="15.8331167"><ele>1357.0</ele><time>2026-04-21T10:17:07.301Z</time></trkpt><trkpt lat="38.1559083" lon="15.833095"><ele>1357.0</ele><time>2026-04-21T10:17:08.302Z</time></trkpt><trkpt lat="38.1558083" lon="15.8330667"><ele>1357.0</ele><time>2026-04-21T10:17:09.302Z</time></trkpt><trkpt lat="38.1557367" lon="15.833045"><ele>1357.0</ele><time>2026-04-21T10:17:10.302Z</time></trkpt><trkpt lat="38.1556717" lon="15.83299"><ele>1357.0</ele><time>2026-04-21T10:17:12.302Z</time></trkpt><trkpt lat="38.15559" lon="15.8329133"><ele>1357.6</ele><time>2026-04-21T10:17:14.302Z</time></trkpt><trkpt lat="38.155475" lon="15.83284"><ele>1358.1999999999998</ele><time>2026-04-21T10:17:16.302Z</time></trkpt><trkpt lat="38.155405" lon="15.832795"><ele>1358.8</ele><time>2026-04-21T10:17:17.302Z</time></trkpt><trkpt lat="38.155315" lon="15.8327417"><ele>1359.4</ele><time>2026-04-21T10:17:18.302Z</time></trkpt><trkpt lat="38.1552067" lon="15.8326817"><ele>1360.0</ele><time>2026-04-21T10:17:19.302Z</time></trkpt><trkpt lat="38.1550667" lon="15.8326333"><ele>1357.6666666666665</ele><time>2026-04-21T10:17:20.302Z</time></trkpt><trkpt lat="38.15492" lon="15.83259"><ele>1355.3333333333333</ele><time>2026-04-21T10:17:21.302Z</time></trkpt><trkpt lat="38.1547783" lon="15.832555"><ele>1353.0</ele><time>2026-04-21T10:17:22.302Z</time></trkpt><trkpt lat="38.1546083" lon="15.8324967"><ele>1353.0</ele><time>2026-04-21T10:17:23.302Z</time></trkpt><trkpt lat="38.15442" lon="15.83243"><ele>1353.0</ele><time>2026-04-21T10:17:24.302Z</time></trkpt><trkpt lat="38.1542317" lon="15.8323683"><ele>1353.0</ele><time>2026-04-21T10:17:25.302Z</time></trkpt><trkpt lat="38.1540317" lon="15.8323133"><ele>1352.3333333333333</ele><time>2026-04-21T10:17:26.302Z</time></trkpt><trkpt lat="38.1538317" lon="15.8322583"><ele>1351.6666666666665</ele><time>2026-04-21T10:17:27.302Z</time></trkpt><trkpt lat="38.1536333" lon="15.8322017"><ele>1351.0</ele><time>2026-04-21T10:17:28.302Z</time></trkpt><trkpt lat="38.153445" lon="15.8321433"><ele>1351.0</ele><time>2026-04-21T10:17:29.301Z</time></trkpt><trkpt lat="38.153265" lon="15.832085"><ele>1351.0</ele><time>2026-04-21T10:17:30.302Z</time></trkpt><trkpt lat="38.153105" lon="15.832035"><ele>1351.0</ele><time>2026-04-21T10:17:31.302Z</time></trkpt><trkpt lat="38.1529583" lon="15.8319917"><ele>1353.0</ele><time>2026-04-21T10:17:32.302Z</time></trkpt><trkpt lat="38.1528167" lon="15.831955"><ele>1355.0</ele><time>2026-04-21T10:17:33.302Z</time></trkpt><trkpt lat="38.15269" lon="15.8319167"><ele>1357.0</ele><time>2026-04-21T10:17:34.302Z</time></trkpt><trkpt lat="38.1525817" lon="15.831875"><ele>1359.0</ele><time>2026-04-21T10:17:35.302Z</time></trkpt><trkpt lat="38.152475" lon="15.8318383"><ele>1359.0</ele><time>2026-04-21T10:17:36.302Z</time></trkpt><trkpt lat="38.152375" lon="15.8318083"><ele>1359.0</ele><time>2026-04-21T10:17:37.302Z</time></trkpt><trkpt lat="38.1522783" lon="15.8317733"><ele>1359.0</ele><time>2026-04-21T10:17:38.302Z</time></trkpt><trkpt lat="38.1521767" lon="15.8317367"><ele>1359.0</ele><time>2026-04-21T10:17:39.302Z</time></trkpt><trkpt lat="38.1520617" lon="15.831695"><ele>1359.0</ele><time>2026-04-21T10:17:40.302Z</time></trkpt><trkpt lat="38.1519467" lon="15.8316633"><ele>1357.5</ele><time>2026-04-21T10:17:41.302Z</time></trkpt><trkpt lat="38.151835" lon="15.8316533"><ele>1356.0</ele><time>2026-04-21T10:17:42.301Z</time></trkpt><trkpt lat="38.1517483" lon="15.8316617"><ele>1354.5</ele><time>2026-04-21T10:17:43.301Z</time></trkpt><trkpt lat="38.15167" lon="15.8316817"><ele>1353.0</ele><time>2026-04-21T10:17:44.301Z</time></trkpt><trkpt lat="38.1516067" lon="15.831705"><ele>1351.5</ele><time>2026-04-21T10:17:45.302Z</time></trkpt><trkpt lat="38.15152" lon="15.8317567"><ele>1350.0</ele><time>2026-04-21T10:17:47.302Z</time></trkpt><trkpt lat="38.1514333" lon="15.8318017"><ele>1349.5</ele><time>2026-04-21T10:17:49.302Z</time></trkpt><trkpt lat="38.1513717" lon="15.83183"><ele>1349.0</ele><time>2026-04-21T10:17:50.302Z</time></trkpt><trkpt lat="38.15125" lon="15.8318667"><ele>1348.5</ele><time>2026-04-21T10:17:52.302Z</time></trkpt><trkpt lat="38.1511833" lon="15.831875"><ele>1348.0</ele><time>2026-04-21T10:17:53.302Z</time></trkpt><trkpt lat="38.1510917" lon="15.8318567"><ele>1347.5</ele><time>2026-04-21T10:17:54.302Z</time></trkpt><trkpt lat="38.1510167" lon="15.831825"><ele>1347.0</ele><time>2026-04-21T10:17:55.302Z</time></trkpt><trkpt lat="38.15095" lon="15.8317783"><ele>1347.0</ele><time>2026-04-21T10:17:56.302Z</time></trkpt><trkpt lat="38.1508767" lon="15.8317183"><ele>1347.0</ele><time>2026-04-21T10:17:57.302Z</time></trkpt><trkpt lat="38.15079" lon="15.8316833"><ele>1347.0</ele><time>2026-04-21T10:17:58.302Z</time></trkpt><trkpt lat="38.1507017" lon="15.8316683"><ele>1347.0</ele><time>2026-04-21T10:17:59.302Z</time></trkpt><trkpt lat="38.1506033" lon="15.8316567"><ele>1347.0</ele><time>2026-04-21T10:18:00.302Z</time></trkpt><trkpt lat="38.1505067" lon="15.8316783"><ele>1345.75</ele><time>2026-04-21T10:18:01.302Z</time></trkpt><trkpt lat="38.1504017" lon="15.83172"><ele>1344.5</ele><time>2026-04-21T10:18:02.301Z</time></trkpt><trkpt lat="38.1502817" lon="15.8318033"><ele>1343.25</ele><time>2026-04-21T10:18:03.302Z</time></trkpt><trkpt lat="38.1501683" lon="15.8318883"><ele>1342.0</ele><time>2026-04-21T10:18:04.302Z</time></trkpt><trkpt lat="38.1500467" lon="15.8319433"><ele>1344.75</ele><time>2026-04-21T10:18:05.302Z</time></trkpt><trkpt lat="38.1499167" lon="15.8319733"><ele>1347.5</ele><time>2026-04-21T10:18:06.302Z</time></trkpt><trkpt lat="38.1497917" lon="15.831965"><ele>1350.25</ele><time>2026-04-21T10:18:07.302Z</time></trkpt><trkpt lat="38.1496767" lon="15.8319217"><ele>1353.0</ele><time>2026-04-21T10:18:08.302Z</time></trkpt><trkpt lat="38.1495783" lon="15.8318617"><ele>1350.0</ele><time>2026-04-21T10:18:09.302Z</time></trkpt><trkpt lat="38.149485" lon="15.8317733"><ele>1347.0</ele><time>2026-04-21T10:18:10.301Z</time></trkpt><trkpt lat="38.1493983" lon="15.831675"><ele>1344.0</ele><time>2026-04-21T10:18:11.301Z</time></trkpt><trkpt lat="38.149325" lon="15.831575"><ele>1341.0</ele><time>2026-04-21T10:18:12.302Z</time></trkpt><trkpt lat="38.1492383" lon="15.8314783"><ele>1341.0</ele><time>2026-04-21T10:18:13.302Z</time></trkpt><trkpt lat="38.1491483" lon="15.8314133"><ele>1341.0</ele><time>2026-04-21T10:18:14.302Z</time></trkpt><trkpt lat="38.1490717" lon="15.8313733"><ele>1341.0</ele><time>2026-04-21T10:18:15.302Z</time></trkpt><trkpt lat="38.148995" lon="15.831355"><ele>1341.0</ele><time>2026-04-21T10:18:16.302Z</time></trkpt><trkpt lat="38.14887" lon="15.831355"><ele>1341.0</ele><time>2026-04-21T10:18:18.302Z</time></trkpt><trkpt lat="38.1487583" lon="15.83139"><ele>1342.3333333333333</ele><time>2026-04-21T10:18:20.302Z</time></trkpt><trkpt lat="38.1486783" lon="15.831465"><ele>1343.6666666666667</ele><time>2026-04-21T10:18:22.302Z</time></trkpt><trkpt lat="38.148645" lon="15.8315467"><ele>1345.0</ele><time>2026-04-21T10:18:24.302Z</time></trkpt><trkpt lat="38.1486117" lon="15.8316317"><ele>1346.3333333333335</ele><time>2026-04-21T10:18:26.302Z</time></trkpt><trkpt lat="38.1485717" lon="15.8317217"><ele>1347.6666666666667</ele><time>2026-04-21T10:18:28.302Z</time></trkpt><trkpt lat="38.148535" lon="15.8318033"><ele>1349.0</ele><time>2026-04-21T10:18:30.302Z</time></trkpt><trkpt lat="38.1485017" lon="15.8318767"><ele>1350.0</ele><time>2026-04-21T10:18:32.302Z</time></trkpt><trkpt lat="38.1484867" lon="15.8319633"><ele>1351.0</ele><time>2026-04-21T10:18:34.302Z</time></trkpt><trkpt lat="38.1484533" lon="15.832075"><ele>1352.0</ele><time>2026-04-21T10:18:37.301Z</time></trkpt><trkpt lat="38.14841" lon="15.8321467"><ele>1353.0</ele><time>2026-04-21T10:18:39.301Z</time></trkpt><trkpt lat="38.14834" lon="15.8322267"><ele>1354.0</ele><time>2026-04-21T10:18:42.301Z</time></trkpt><trkpt lat="38.1482683" lon="15.83226"><ele>1355.0</ele><time>2026-04-21T10:18:44.301Z</time></trkpt><trkpt lat="38.148175" lon="15.8323117"><ele>1355.0</ele><time>2026-04-21T10:18:46.302Z</time></trkpt><trkpt lat="38.1480733" lon="15.8323767"><ele>1355.0</ele><time>2026-04-21T10:18:48.302Z</time></trkpt><trkpt lat="38.1479733" lon="15.83245"><ele>1355.0</ele><time>2026-04-21T10:18:50.302Z</time></trkpt><trkpt lat="38.1479167" lon="15.832495"><ele>1355.0</ele><time>2026-04-21T10:18:51.302Z</time></trkpt><trkpt lat="38.1478617" lon="15.8325483"><ele>1355.0</ele><time>2026-04-21T10:18:52.302Z</time></trkpt><trkpt lat="38.1478033" lon="15.8326083"><ele>1355.0</ele><time>2026-04-21T10:18:53.302Z</time></trkpt><trkpt lat="38.1477417" lon="15.8326717"><ele>1357.8</ele><time>2026-04-21T10:18:54.302Z</time></trkpt><trkpt lat="38.1476733" lon="15.832745"><ele>1360.6</ele><time>2026-04-21T10:18:55.302Z</time></trkpt><trkpt lat="38.1476067" lon="15.8328283"><ele>1363.4</ele><time>2026-04-21T10:18:56.301Z</time></trkpt><trkpt lat="38.147545" lon="15.83292"><ele>1366.2</ele><time>2026-04-21T10:18:57.302Z</time></trkpt><trkpt lat="38.147485" lon="15.8330183"><ele>1369.0</ele><time>2026-04-21T10:18:58.302Z</time></trkpt><trkpt lat="38.1474383" lon="15.8331133"><ele>1369.0</ele><time>2026-04-21T10:18:59.302Z</time></trkpt><trkpt lat="38.147385" lon="15.8332283"><ele>1369.0</ele><time>2026-04-21T10:19:00.302Z</time></trkpt><trkpt lat="38.1473533" lon="15.8333233"><ele>1369.0</ele><time>2026-04-21T10:19:01.302Z</time></trkpt><trkpt lat="38.14733" lon="15.8334233"><ele>1369.0</ele><time>2026-04-21T10:19:02.302Z</time></trkpt><trkpt lat="38.1473117" lon="15.8335167"><ele>1369.0</ele><time>2026-04-21T10:19:03.302Z</time></trkpt><trkpt lat="38.1472883" lon="15.8336567"><ele>1366.8000000000002</ele><time>2026-04-21T10:19:05.302Z</time></trkpt><trkpt lat="38.1472483" lon="15.83378"><ele>1364.6000000000001</ele><time>2026-04-21T10:19:07.302Z</time></trkpt><trkpt lat="38.147215" lon="15.833885"><ele>1362.4</ele><time>2026-04-21T10:19:09.302Z</time></trkpt><trkpt lat="38.1471683" lon="15.8339817"><ele>1360.2</ele><time>2026-04-21T10:19:11.302Z</time></trkpt><trkpt lat="38.1470967" lon="15.834065"><ele>1358.0</ele><time>2026-04-21T10:19:13.302Z</time></trkpt><trkpt lat="38.147025" lon="15.8341567"><ele>1358.0</ele><time>2026-04-21T10:19:15.302Z</time></trkpt><trkpt lat="38.1469117" lon="15.8342433"><ele>1358.0</ele><time>2026-04-21T10:19:17.302Z</time></trkpt><trkpt lat="38.14685" lon="15.8343"><ele>1358.0</ele><time>2026-04-21T10:19:18.302Z</time></trkpt><trkpt lat="38.1467883" lon="15.8343617"><ele>1358.0</ele><time>2026-04-21T10:19:19.302Z</time></trkpt><trkpt lat="38.1467333" lon="15.8344333"><ele>1358.0</ele><time>2026-04-21T10:19:20.302Z</time></trkpt><trkpt lat="38.1466817" lon="15.83452"><ele>1357.2857142857142</ele><time>2026-04-21T10:19:21.302Z</time></trkpt><trkpt lat="38.1466417" lon="15.8346083"><ele>1356.5714285714284</ele><time>2026-04-21T10:19:22.302Z</time></trkpt><trkpt lat="38.1466083" lon="15.83469"><ele>1355.857142857143</ele><time>2026-04-21T10:19:23.302Z</time></trkpt><trkpt lat="38.1465867" lon="15.83477"><ele>1355.142857142857</ele><time>2026-04-21T10:19:24.302Z</time></trkpt><trkpt lat="38.1465667" lon="15.8348533"><ele>1354.4285714285713</ele><time>2026-04-21T10:19:25.302Z</time></trkpt><trkpt lat="38.14655" lon="15.8349333"><ele>1353.7142857142858</ele><time>2026-04-21T10:19:26.302Z</time></trkpt><trkpt lat="38.1465267" lon="15.8350317"><ele>1353.0</ele><time>2026-04-21T10:19:27.302Z</time></trkpt><trkpt lat="38.1465067" lon="15.8351267"><ele>1356.0</ele><time>2026-04-21T10:19:28.302Z</time></trkpt><trkpt lat="38.1464783" lon="15.8352183"><ele>1359.0</ele><time>2026-04-21T10:19:29.302Z</time></trkpt><trkpt lat="38.1464467" lon="15.8353133"><ele>1362.0</ele><time>2026-04-21T10:19:30.302Z</time></trkpt><trkpt lat="38.14641" lon="15.8353967"><ele>1365.0</ele><time>2026-04-21T10:19:31.302Z</time></trkpt><trkpt lat="38.146365" lon="15.8354783"><ele>1368.0</ele><time>2026-04-21T10:19:32.302Z</time></trkpt><trkpt lat="38.1463133" lon="15.83555"><ele>1371.0</ele><time>2026-04-21T10:19:33.302Z</time></trkpt><trkpt lat="38.1462583" lon="15.8356183"><ele>1371.0</ele><time>2026-04-21T10:19:34.302Z</time></trkpt><trkpt lat="38.1461917" lon="15.835675"><ele>1371.0</ele><time>2026-04-21T10:19:35.302Z</time></trkpt><trkpt lat="38.1461167" lon="15.8357383"><ele>1371.0</ele><time>2026-04-21T10:19:36.302Z</time></trkpt><trkpt lat="38.1460433" lon="15.8358083"><ele>1371.0</ele><time>2026-04-21T10:19:37.302Z</time></trkpt><trkpt lat="38.145975" lon="15.8359133"><ele>1371.0</ele><time>2026-04-21T10:19:38.302Z</time></trkpt><trkpt lat="38.1459133" lon="15.836015"><ele>1368.5</ele><time>2026-04-21T10:19:39.302Z</time></trkpt><trkpt lat="38.1458467" lon="15.83614"><ele>1366.0</ele><time>2026-04-21T10:19:40.302Z</time></trkpt><trkpt lat="38.145785" lon="15.8362583"><ele>1363.5</ele><time>2026-04-21T10:19:41.302Z</time></trkpt><trkpt lat="38.14572" lon="15.8363817"><ele>1361.0</ele><time>2026-04-21T10:19:42.302Z</time></trkpt><trkpt lat="38.1456683" lon="15.8365033"><ele>1361.0</ele><time>2026-04-21T10:19:43.302Z</time></trkpt><trkpt lat="38.1456283" lon="15.8366367"><ele>1361.0</ele><time>2026-04-21T10:19:44.302Z</time></trkpt><trkpt lat="38.14559" lon="15.8367483"><ele>1361.0</ele><time>2026-04-21T10:19:45.302Z</time></trkpt><trkpt lat="38.1455767" lon="15.836875"><ele>1361.0</ele><time>2026-04-21T10:19:46.302Z</time></trkpt><trkpt lat="38.1455867" lon="15.8369967"><ele>1361.0</ele><time>2026-04-21T10:19:47.302Z</time></trkpt><trkpt lat="38.1456067" lon="15.8371133"><ele>1362.8333333333335</ele><time>2026-04-21T10:19:48.302Z</time></trkpt><trkpt lat="38.145635" lon="15.8372317"><ele>1364.6666666666667</ele><time>2026-04-21T10:19:49.302Z</time></trkpt><trkpt lat="38.1456583" lon="15.8373183"><ele>1366.5</ele><time>2026-04-21T10:19:50.302Z</time></trkpt><trkpt lat="38.1456783" lon="15.837395"><ele>1368.3333333333333</ele><time>2026-04-21T10:19:51.302Z</time></trkpt><trkpt lat="38.1456883" lon="15.83751"><ele>1370.1666666666665</ele><time>2026-04-21T10:19:53.302Z</time></trkpt><trkpt lat="38.1456267" lon="15.8376017"><ele>1372.0</ele><time>2026-04-21T10:19:55.302Z</time></trkpt><trkpt lat="38.1455667" lon="15.8376617"><ele>1374.1666666666665</ele><time>2026-04-21T10:19:56.302Z</time></trkpt><trkpt lat="38.1454983" lon="15.837745"><ele>1376.3333333333333</ele><time>2026-04-21T10:19:57.302Z</time></trkpt><trkpt lat="38.145435" lon="15.83783"><ele>1378.5</ele><time>2026-04-21T10:19:58.302Z</time></trkpt><trkpt lat="38.1453833" lon="15.8379117"><ele>1380.6666666666667</ele><time>2026-04-21T10:19:59.302Z</time></trkpt><trkpt lat="38.1453383" lon="15.8379883"><ele>1382.8333333333335</ele><time>2026-04-21T10:20:00.302Z</time></trkpt><trkpt lat="38.1452917" lon="15.838045"><ele>1385.0</ele><time>2026-04-21T10:20:01.302Z</time></trkpt><trkpt lat="38.1452217" lon="15.8382"><ele>1385.0</ele><time>2026-04-21T10:20:03.302Z</time></trkpt><trkpt lat="38.1451917" lon="15.8382967"><ele>1385.0</ele><time>2026-04-21T10:20:04.302Z</time></trkpt><trkpt lat="38.145165" lon="15.838405"><ele>1385.0</ele><time>2026-04-21T10:20:05.302Z</time></trkpt><trkpt lat="38.1451517" lon="15.83851"><ele>1385.0</ele><time>2026-04-21T10:20:06.302Z</time></trkpt><trkpt lat="38.1451483" lon="15.838615"><ele>1385.0</ele><time>2026-04-21T10:20:07.302Z</time></trkpt><trkpt lat="38.14515" lon="15.83871"><ele>1385.0</ele><time>2026-04-21T10:20:08.301Z</time></trkpt><trkpt lat="38.14516" lon="15.83884"><ele>1385.1666666666667</ele><time>2026-04-21T10:20:10.302Z</time></trkpt><trkpt lat="38.14513" lon="15.8389333"><ele>1385.3333333333335</ele><time>2026-04-21T10:20:12.302Z</time></trkpt><trkpt lat="38.1450733" lon="15.8390467"><ele>1385.5</ele><time>2026-04-21T10:20:14.302Z</time></trkpt><trkpt lat="38.14503" lon="15.8391233"><ele>1385.6666666666667</ele><time>2026-04-21T10:20:15.302Z</time></trkpt><trkpt lat="38.1449767" lon="15.8392"><ele>1385.8333333333333</ele><time>2026-04-21T10:20:16.302Z</time></trkpt><trkpt lat="38.14492" lon="15.8392967"><ele>1386.0</ele><time>2026-04-21T10:20:17.302Z</time></trkpt><trkpt lat="38.144855" lon="15.8393883"><ele>1386.0</ele><time>2026-04-21T10:20:18.302Z</time></trkpt><trkpt lat="38.144815" lon="15.83952"><ele>1386.0</ele><time>2026-04-21T10:20:19.302Z</time></trkpt><trkpt lat="38.1447967" lon="15.8396467"><ele>1386.0</ele><time>2026-04-21T10:20:20.302Z</time></trkpt><trkpt lat="38.1447867" lon="15.8397767"><ele>1386.0</ele><time>2026-04-21T10:20:21.302Z</time></trkpt><trkpt lat="38.1448133" lon="15.8398983"><ele>1386.0</ele><time>2026-04-21T10:20:22.302Z</time></trkpt><trkpt lat="38.144845" lon="15.84002"><ele>1392.6</ele><time>2026-04-21T10:20:23.302Z</time></trkpt><trkpt lat="38.144905" lon="15.8401417"><ele>1399.1999999999998</ele><time>2026-04-21T10:20:24.302Z</time></trkpt><trkpt lat="38.1449533" lon="15.8402583"><ele>1405.8000000000002</ele><time>2026-04-21T10:20:25.302Z</time></trkpt><trkpt lat="38.1449833" lon="15.8403667"><ele>1412.4</ele><time>2026-04-21T10:20:26.302Z</time></trkpt><trkpt lat="38.145" lon="15.8404883"><ele>1419.0</ele><time>2026-04-21T10:20:27.301Z</time></trkpt><trkpt lat="38.1449983" lon="15.8406083"><ele>1419.0</ele><time>2026-04-21T10:20:28.302Z</time></trkpt><trkpt lat="38.1449567" lon="15.840715"><ele>1419.0</ele><time>2026-04-21T10:20:29.302Z</time></trkpt><trkpt lat="38.1449083" lon="15.8408167"><ele>1419.0</ele><time>2026-04-21T10:20:30.302Z</time></trkpt><trkpt lat="38.144855" lon="15.8409017"><ele>1419.0</ele><time>2026-04-21T10:20:31.301Z</time></trkpt><trkpt lat="38.1448033" lon="15.8409933"><ele>1419.0</ele><time>2026-04-21T10:20:32.302Z</time></trkpt><trkpt lat="38.1447833" lon="15.84108"><ele>1419.0</ele><time>2026-04-21T10:20:33.302Z</time></trkpt><trkpt lat="38.1447733" lon="15.8411617"><ele>1415.2</ele><time>2026-04-21T10:20:34.302Z</time></trkpt><trkpt lat="38.1447583" lon="15.8413067"><ele>1411.4</ele><time>2026-04-21T10:20:36.302Z</time></trkpt><trkpt lat="38.1446783" lon="15.8414267"><ele>1407.6</ele><time>2026-04-21T10:20:38.302Z</time></trkpt><trkpt lat="38.1445733" lon="15.84149"><ele>1403.8</ele><time>2026-04-21T10:20:40.302Z</time></trkpt><trkpt lat="38.1445083" lon="15.8415667"><ele>1400.0</ele><time>2026-04-21T10:20:41.302Z</time></trkpt><trkpt lat="38.1444383" lon="15.841665"><ele>1400.0</ele><time>2026-04-21T10:20:42.302Z</time></trkpt><trkpt lat="38.1443867" lon="15.8417717"><ele>1400.0</ele><time>2026-04-21T10:20:43.302Z</time></trkpt><trkpt lat="38.1443467" lon="15.8419033"><ele>1400.0</ele><time>2026-04-21T10:20:44.302Z</time></trkpt><trkpt lat="38.144305" lon="15.8420467"><ele>1400.0</ele><time>2026-04-21T10:20:45.302Z</time></trkpt><trkpt lat="38.144265" lon="15.8422183"><ele>1403.5</ele><time>2026-04-21T10:20:46.302Z</time></trkpt><trkpt lat="38.1442233" lon="15.842405"><ele>1407.0</ele><time>2026-04-21T10:20:47.302Z</time></trkpt><trkpt lat="38.1441817" lon="15.8425583"><ele>1410.5</ele><time>2026-04-21T10:20:48.302Z</time></trkpt><trkpt lat="38.1441317" lon="15.8427167"><ele>1414.0</ele><time>2026-04-21T10:20:49.302Z</time></trkpt><trkpt lat="38.1440883" lon="15.8428583"><ele>1413.75</ele><time>2026-04-21T10:20:50.302Z</time></trkpt><trkpt lat="38.1440417" lon="15.8430033"><ele>1413.5</ele><time>2026-04-21T10:20:51.301Z</time></trkpt><trkpt lat="38.14399" lon="15.8431333"><ele>1413.25</ele><time>2026-04-21T10:20:52.302Z</time></trkpt><trkpt lat="38.1439383" lon="15.8432617"><ele>1413.0</ele><time>2026-04-21T10:20:53.302Z</time></trkpt><trkpt lat="38.1438733" lon="15.8433833"><ele>1414.5</ele><time>2026-04-21T10:20:54.302Z</time></trkpt><trkpt lat="38.1437967" lon="15.8434967"><ele>1416.0</ele><time>2026-04-21T10:20:55.302Z</time></trkpt><trkpt lat="38.1437233" lon="15.8436183"><ele>1417.5</ele><time>2026-04-21T10:20:56.302Z</time></trkpt><trkpt lat="38.1436517" lon="15.8437283"><ele>1419.0</ele><time>2026-04-21T10:20:57.301Z</time></trkpt><trkpt lat="38.1435933" lon="15.8438433"><ele>1419.0</ele><time>2026-04-21T10:20:58.302Z</time></trkpt><trkpt lat="38.1435667" lon="15.8439533"><ele>1419.0</ele><time>2026-04-21T10:20:59.302Z</time></trkpt><trkpt lat="38.143545" lon="15.84406"><ele>1419.0</ele><time>2026-04-21T10:21:00.301Z</time></trkpt><trkpt lat="38.1435367" lon="15.84416"><ele>1419.0</ele><time>2026-04-21T10:21:01.301Z</time></trkpt><trkpt lat="38.14356" lon="15.8442617"><ele>1419.0</ele><time>2026-04-21T10:21:02.302Z</time></trkpt><trkpt lat="38.143595" lon="15.844365"><ele>1419.0</ele><time>2026-04-21T10:21:03.302Z</time></trkpt><trkpt lat="38.143645" lon="15.8444733"><ele>1419.8000000000002</ele><time>2026-04-21T10:21:04.302Z</time></trkpt><trkpt lat="38.1437033" lon="15.84458"><ele>1420.6000000000001</ele><time>2026-04-21T10:21:05.302Z</time></trkpt><trkpt lat="38.1437667" lon="15.8447067"><ele>1421.4</ele><time>2026-04-21T10:21:06.302Z</time></trkpt><trkpt lat="38.14382" lon="15.8448333"><ele>1422.2</ele><time>2026-04-21T10:21:07.302Z</time></trkpt><trkpt lat="38.1438783" lon="15.8449517"><ele>1423.0</ele><time>2026-04-21T10:21:08.302Z</time></trkpt><trkpt lat="38.1439433" lon="15.845055"><ele>1426.5</ele><time>2026-04-21T10:21:09.302Z</time></trkpt><trkpt lat="38.1439917" lon="15.845165"><ele>1430.0</ele><time>2026-04-21T10:21:10.302Z</time></trkpt><trkpt lat="38.144035" lon="15.8452717"><ele>1433.5</ele><time>2026-04-21T10:21:11.302Z</time></trkpt><trkpt lat="38.14407" lon="15.8453667"><ele>1437.0</ele><time>2026-04-21T10:21:12.302Z</time></trkpt><trkpt lat="38.144085" lon="15.8454517"><ele>1440.5</ele><time>2026-04-21T10:21:13.302Z</time></trkpt><trkpt lat="38.144085" lon="15.845565"><ele>1444.0</ele><time>2026-04-21T10:21:15.302Z</time></trkpt><trkpt lat="38.1440433" lon="15.845645"><ele>1444.0</ele><time>2026-04-21T10:21:17.302Z</time></trkpt><trkpt lat="38.14397" lon="15.845615"><ele>1444.0</ele><time>2026-04-21T10:21:19.302Z</time></trkpt><trkpt lat="38.1438833" lon="15.845505"><ele>1444.0</ele><time>2026-04-21T10:21:21.302Z</time></trkpt><trkpt lat="38.1438083" lon="15.8454417"><ele>1444.0</ele><time>2026-04-21T10:21:22.302Z</time></trkpt><trkpt lat="38.1437233" lon="15.8453567"><ele>1444.0</ele><time>2026-04-21T10:21:23.302Z</time></trkpt><trkpt lat="38.1436283" lon="15.8452583"><ele>1444.0</ele><time>2026-04-21T10:21:24.302Z</time></trkpt><trkpt lat="38.1435017" lon="15.8452"><ele>1444.0</ele><time>2026-04-21T10:21:25.302Z</time></trkpt><trkpt lat="38.1434083" lon="15.8451517"><ele>1444.0</ele><time>2026-04-21T10:21:26.301Z</time></trkpt><trkpt lat="38.1433233" lon="15.8451383"><ele>1444.0</ele><time>2026-04-21T10:21:27.302Z</time></trkpt><trkpt lat="38.1432317" lon="15.84516"><ele>1444.0</ele><time>2026-04-21T10:21:28.302Z</time></trkpt><trkpt lat="38.14315" lon="15.84521"><ele>1443.2</ele><time>2026-04-21T10:21:29.302Z</time></trkpt><trkpt lat="38.1430717" lon="15.845285"><ele>1442.4</ele><time>2026-04-21T10:21:30.301Z</time></trkpt><trkpt lat="38.143" lon="15.8454"><ele>1441.6</ele><time>2026-04-21T10:21:31.301Z</time></trkpt><trkpt lat="38.14295" lon="15.84552"><ele>1440.8</ele><time>2026-04-21T10:21:32.302Z</time></trkpt><trkpt lat="38.1429267" lon="15.8456467"><ele>1440.0</ele><time>2026-04-21T10:21:33.302Z</time></trkpt><trkpt lat="38.1429317" lon="15.84577"><ele>1440.0</ele><time>2026-04-21T10:21:34.302Z</time></trkpt><trkpt lat="38.142945" lon="15.8459017"><ele>1440.0</ele><time>2026-04-21T10:21:35.302Z</time></trkpt><trkpt lat="38.1429383" lon="15.846015"><ele>1440.0</ele><time>2026-04-21T10:21:36.302Z</time></trkpt><trkpt lat="38.1429183" lon="15.846125"><ele>1440.0</ele><time>2026-04-21T10:21:37.302Z</time></trkpt><trkpt lat="38.142905" lon="15.8462283"><ele>1440.0</ele><time>2026-04-21T10:21:38.302Z</time></trkpt><trkpt lat="38.14291" lon="15.846355"><ele>1441.0</ele><time>2026-04-21T10:21:39.302Z</time></trkpt><trkpt lat="38.14291" lon="15.8464767"><ele>1442.0</ele><time>2026-04-21T10:21:40.302Z</time></trkpt><trkpt lat="38.1429167" lon="15.8466133"><ele>1443.0</ele><time>2026-04-21T10:21:41.302Z</time></trkpt><trkpt lat="38.1429467" lon="15.84674"><ele>1444.0</ele><time>2026-04-21T10:21:42.302Z</time></trkpt><trkpt lat="38.1429767" lon="15.8468633"><ele>1445.0</ele><time>2026-04-21T10:21:43.302Z</time></trkpt><trkpt lat="38.143005" lon="15.846975"><ele>1446.1666666666667</ele><time>2026-04-21T10:21:44.302Z</time></trkpt><trkpt lat="38.1430233" lon="15.8470967"><ele>1447.3333333333335</ele><time>2026-04-21T10:21:45.302Z</time></trkpt><trkpt lat="38.1430467" lon="15.8472083"><ele>1448.5</ele><time>2026-04-21T10:21:46.301Z</time></trkpt><trkpt lat="38.143075" lon="15.8473133"><ele>1449.6666666666667</ele><time>2026-04-21T10:21:47.301Z</time></trkpt><trkpt lat="38.1431133" lon="15.8474"><ele>1450.8333333333333</ele><time>2026-04-21T10:21:48.301Z</time></trkpt><trkpt lat="38.1431667" lon="15.8474783"><ele>1452.0</ele><time>2026-04-21T10:21:49.301Z</time></trkpt><trkpt lat="38.14322" lon="15.8475633"><ele>1452.0</ele><time>2026-04-21T10:21:50.301Z</time></trkpt><trkpt lat="38.1432783" lon="15.8476417"><ele>1452.0</ele><time>2026-04-21T10:21:51.301Z</time></trkpt><trkpt lat="38.143325" lon="15.8477367"><ele>1452.0</ele><time>2026-04-21T10:21:52.3Z</time></trkpt><trkpt lat="38.1433817" lon="15.8478183"><ele>1452.0</ele><time>2026-04-21T10:21:53.301Z</time></trkpt><trkpt lat="38.1434283" lon="15.8479167"><ele>1452.0</ele><time>2026-04-21T10:21:54.301Z</time></trkpt><trkpt lat="38.14346" lon="15.8480367"><ele>1452.0</ele><time>2026-04-21T10:21:55.301Z</time></trkpt><trkpt lat="38.1434883" lon="15.84815"><ele>1452.0</ele><time>2026-04-21T10:21:56.301Z</time></trkpt><trkpt lat="38.1435" lon="15.8482767"><ele>1452.0</ele><time>2026-04-21T10:21:57.3Z</time></trkpt><trkpt lat="38.1435083" lon="15.8483967"><ele>1452.0</ele><time>2026-04-21T10:21:58.301Z</time></trkpt><trkpt lat="38.1435133" lon="15.848515"><ele>1452.0</ele><time>2026-04-21T10:21:59.301Z</time></trkpt><trkpt lat="38.1435217" lon="15.848625"><ele>1452.0</ele><time>2026-04-21T10:22:00.301Z</time></trkpt><trkpt lat="38.1435467" lon="15.8487133"><ele>1452.0</ele><time>2026-04-21T10:22:01.3Z</time></trkpt><trkpt lat="38.143575" lon="15.8488533"><ele>1454.1999999999998</ele><time>2026-04-21T10:22:03.301Z</time></trkpt><trkpt lat="38.1435717" lon="15.8489367"><ele>1456.4</ele><time>2026-04-21T10:22:04.301Z</time></trkpt><trkpt lat="38.1435483" lon="15.8490133"><ele>1458.6</ele><time>2026-04-21T10:22:05.301Z</time></trkpt><trkpt lat="38.1434567" lon="15.8490733"><ele>1460.8000000000002</ele><time>2026-04-21T10:22:07.301Z</time></trkpt><trkpt lat="38.1433817" lon="15.8490633"><ele>1463.0</ele><time>2026-04-21T10:22:08.3Z</time></trkpt><trkpt lat="38.1432383" lon="15.8490133"><ele>1462.6000000000001</ele><time>2026-04-21T10:22:10.301Z</time></trkpt><trkpt lat="38.14314" lon="15.84896"><ele>1462.2</ele><time>2026-04-21T10:22:11.301Z</time></trkpt><trkpt lat="38.143035" lon="15.848905"><ele>1461.8</ele><time>2026-04-21T10:22:12.3Z</time></trkpt><trkpt lat="38.14293" lon="15.848845"><ele>1461.4</ele><time>2026-04-21T10:22:13.301Z</time></trkpt><trkpt lat="38.14283" lon="15.8487867"><ele>1461.0</ele><time>2026-04-21T10:22:14.301Z</time></trkpt><trkpt lat="38.1427217" lon="15.8487583"><ele>1461.0</ele><time>2026-04-21T10:22:15.301Z</time></trkpt><trkpt lat="38.1426" lon="15.8487883"><ele>1461.0</ele><time>2026-04-21T10:22:16.301Z</time></trkpt><trkpt lat="38.1425067" lon="15.8488267"><ele>1461.0</ele><time>2026-04-21T10:22:17.301Z</time></trkpt><trkpt lat="38.1424117" lon="15.8488967"><ele>1461.0</ele><time>2026-04-21T10:22:18.301Z</time></trkpt><trkpt lat="38.1423417" lon="15.848995"><ele>1461.0</ele><time>2026-04-21T10:22:19.301Z</time></trkpt><trkpt lat="38.1422867" lon="15.8491117"><ele>1463.0</ele><time>2026-04-21T10:22:20.301Z</time></trkpt><trkpt lat="38.1422367" lon="15.8492233"><ele>1465.0</ele><time>2026-04-21T10:22:21.301Z</time></trkpt><trkpt lat="38.1421967" lon="15.8493417"><ele>1467.0</ele><time>2026-04-21T10:22:22.3Z</time></trkpt><trkpt lat="38.1421717" lon="15.8494667"><ele>1469.0</ele><time>2026-04-21T10:22:23.301Z</time></trkpt><trkpt lat="38.14216" lon="15.8495833"><ele>1471.0</ele><time>2026-04-21T10:22:24.301Z</time></trkpt><trkpt lat="38.1421633" lon="15.849685"><ele>1471.0</ele><time>2026-04-21T10:22:25.301Z</time></trkpt><trkpt lat="38.142185" lon="15.8498133"><ele>1471.0</ele><time>2026-04-21T10:22:26.301Z</time></trkpt><trkpt lat="38.142195" lon="15.8499367"><ele>1471.0</ele><time>2026-04-21T10:22:27.301Z</time></trkpt><trkpt lat="38.1422083" lon="15.850055"><ele>1471.0</ele><time>2026-04-21T10:22:28.3Z</time></trkpt><trkpt lat="38.14222" lon="15.8501733"><ele>1471.0</ele><time>2026-04-21T10:22:29.301Z</time></trkpt><trkpt lat="38.1422217" lon="15.8502817"><ele>1470.0</ele><time>2026-04-21T10:22:30.301Z</time></trkpt><trkpt lat="38.14222" lon="15.8504017"><ele>1469.0</ele><time>2026-04-21T10:22:31.301Z</time></trkpt><trkpt lat="38.14221" lon="15.8505267"><ele>1468.0</ele><time>2026-04-21T10:22:32.301Z</time></trkpt><trkpt lat="38.1422083" lon="15.8506467"><ele>1467.0</ele><time>2026-04-21T10:22:33.301Z</time></trkpt><trkpt lat="38.1422" lon="15.8507567"><ele>1466.0</ele><time>2026-04-21T10:22:34.301Z</time></trkpt><trkpt lat="38.142185" lon="15.8508633"><ele>1466.0</ele><time>2026-04-21T10:22:35.301Z</time></trkpt><trkpt lat="38.1421733" lon="15.8509517"><ele>1466.0</ele><time>2026-04-21T10:22:36.3Z</time></trkpt><trkpt lat="38.14217" lon="15.8510467"><ele>1466.0</ele><time>2026-04-21T10:22:37.301Z</time></trkpt><trkpt lat="38.1421533" lon="15.851175"><ele>1466.0</ele><time>2026-04-21T10:22:39.3Z</time></trkpt><trkpt lat="38.1421033" lon="15.8512433"><ele>1466.0</ele><time>2026-04-21T10:22:41.301Z</time></trkpt><trkpt lat="38.1420317" lon="15.8512617"><ele>1466.0</ele><time>2026-04-21T10:22:43.301Z</time></trkpt><trkpt lat="38.1419317" lon="15.8511867"><ele>1466.0</ele><time>2026-04-21T10:22:45.301Z</time></trkpt><trkpt lat="38.1418617" lon="15.8511183"><ele>1466.0</ele><time>2026-04-21T10:22:46.301Z</time></trkpt><trkpt lat="38.14179" lon="15.8510317"><ele>1466.0</ele><time>2026-04-21T10:22:47.301Z</time></trkpt><trkpt lat="38.1416883" lon="15.85095"><ele>1466.0</ele><time>2026-04-21T10:22:48.301Z</time></trkpt><trkpt lat="38.1415783" lon="15.8508933"><ele>1466.0</ele><time>2026-04-21T10:22:49.301Z</time></trkpt><trkpt lat="38.1414583" lon="15.8508683"><ele>1468.5</ele><time>2026-04-21T10:22:50.3Z</time></trkpt><trkpt lat="38.1413383" lon="15.8508633"><ele>1471.0</ele><time>2026-04-21T10:22:51.301Z</time></trkpt><trkpt lat="38.1412017" lon="15.8508817"><ele>1473.5</ele><time>2026-04-21T10:22:52.301Z</time></trkpt><trkpt lat="38.141065" lon="15.8508933"><ele>1476.0</ele><time>2026-04-21T10:22:53.301Z</time></trkpt><trkpt lat="38.1409333" lon="15.850915"><ele>1476.0</ele><time>2026-04-21T10:22:54.301Z</time></trkpt><trkpt lat="38.1408183" lon="15.850935"><ele>1476.0</ele><time>2026-04-21T10:22:55.301Z</time></trkpt><trkpt lat="38.1407133" lon="15.8509867"><ele>1476.0</ele><time>2026-04-21T10:22:56.301Z</time></trkpt><trkpt lat="38.14063" lon="15.8510583"><ele>1476.0</ele><time>2026-04-21T10:22:57.301Z</time></trkpt><trkpt lat="38.1405533" lon="15.85115"><ele>1476.0</ele><time>2026-04-21T10:22:58.301Z</time></trkpt><trkpt lat="38.1404833" lon="15.8512467"><ele>1479.4</ele><time>2026-04-21T10:22:59.301Z</time></trkpt><trkpt lat="38.1404233" lon="15.8513433"><ele>1482.8</ele><time>2026-04-21T10:23:00.301Z</time></trkpt><trkpt lat="38.1403583" lon="15.85144"><ele>1486.2</ele><time>2026-04-21T10:23:01.301Z</time></trkpt><trkpt lat="38.1403017" lon="15.85153"><ele>1489.6000000000001</ele><time>2026-04-21T10:23:02.301Z</time></trkpt><trkpt lat="38.140235" lon="15.8516217"><ele>1493.0</ele><time>2026-04-21T10:23:03.301Z</time></trkpt><trkpt lat="38.1401617" lon="15.851705"><ele>1493.0</ele><time>2026-04-21T10:23:04.301Z</time></trkpt><trkpt lat="38.1401033" lon="15.851785"><ele>1493.0</ele><time>2026-04-21T10:23:05.301Z</time></trkpt><trkpt lat="38.140045" lon="15.851855"><ele>1493.0</ele><time>2026-04-21T10:23:06.301Z</time></trkpt><trkpt lat="38.14" lon="15.8519367"><ele>1493.0</ele><time>2026-04-21T10:23:07.301Z</time></trkpt><trkpt lat="38.139955" lon="15.8520333"><ele>1493.0</ele><time>2026-04-21T10:23:08.3Z</time></trkpt><trkpt lat="38.1399117" lon="15.852145"><ele>1493.0</ele><time>2026-04-21T10:23:09.301Z</time></trkpt><trkpt lat="38.139865" lon="15.8522433"><ele>1496.6666666666667</ele><time>2026-04-21T10:23:10.301Z</time></trkpt><trkpt lat="38.1398117" lon="15.8523383"><ele>1500.3333333333335</ele><time>2026-04-21T10:23:11.3Z</time></trkpt><trkpt lat="38.1397683" lon="15.8524133"><ele>1504.0</ele><time>2026-04-21T10:23:12.301Z</time></trkpt><trkpt lat="38.1397117" lon="15.852495"><ele>1507.6666666666667</ele><time>2026-04-21T10:23:13.301Z</time></trkpt><trkpt lat="38.1396733" lon="15.8525783"><ele>1511.3333333333333</ele><time>2026-04-21T10:23:14.3Z</time></trkpt><trkpt lat="38.1396517" lon="15.852665"><ele>1515.0</ele><time>2026-04-21T10:23:15.301Z</time></trkpt><trkpt lat="38.1396583" lon="15.8527617"><ele>1515.2</ele><time>2026-04-21T10:23:16.301Z</time></trkpt><trkpt lat="38.1396983" lon="15.8528267"><ele>1515.4</ele><time>2026-04-21T10:23:17.301Z</time></trkpt><trkpt lat="38.139835" lon="15.852795"><ele>1515.6</ele><time>2026-04-21T10:23:19.301Z</time></trkpt><trkpt lat="38.1399083" lon="15.852725"><ele>1515.8</ele><time>2026-04-21T10:23:20.301Z</time></trkpt><trkpt lat="38.139975" lon="15.852635"><ele>1516.0</ele><time>2026-04-21T10:23:21.301Z</time></trkpt><trkpt lat="38.14003" lon="15.8525183"><ele>1513.7142857142858</ele><time>2026-04-21T10:23:22.301Z</time></trkpt><trkpt lat="38.1400883" lon="15.8524167"><ele>1511.4285714285716</ele><time>2026-04-21T10:23:23.301Z</time></trkpt><trkpt lat="38.1401367" lon="15.8523367"><ele>1509.1428571428573</ele><time>2026-04-21T10:23:24.301Z</time></trkpt><trkpt lat="38.1401917" lon="15.85228"><ele>1506.857142857143</ele><time>2026-04-21T10:23:25.301Z</time></trkpt><trkpt lat="38.1402483" lon="15.8522417"><ele>1504.5714285714284</ele><time>2026-04-21T10:23:26.301Z</time></trkpt><trkpt lat="38.1403167" lon="15.8522233"><ele>1502.2857142857144</ele><time>2026-04-21T10:23:27.301Z</time></trkpt><trkpt lat="38.14038" lon="15.8522283"><ele>1500.0</ele><time>2026-04-21T10:23:28.301Z</time></trkpt><trkpt lat="38.1404467" lon="15.8522533"><ele>1500.0</ele><time>2026-04-21T10:23:29.301Z</time></trkpt><trkpt lat="38.1405217" lon="15.8522933"><ele>1500.0</ele><time>2026-04-21T10:23:30.301Z</time></trkpt><trkpt lat="38.1405967" lon="15.85233"><ele>1500.0</ele><time>2026-04-21T10:23:31.301Z</time></trkpt><trkpt lat="38.1406733" lon="15.8523717"><ele>1500.0</ele><time>2026-04-21T10:23:32.301Z</time></trkpt><trkpt lat="38.140735" lon="15.8523917"><ele>1500.0</ele><time>2026-04-21T10:23:33.301Z</time></trkpt><trkpt lat="38.1408" lon="15.8523883"><ele>1500.0</ele><time>2026-04-21T10:23:34.3Z</time></trkpt><trkpt lat="38.1408617" lon="15.852355"><ele>1500.0</ele><time>2026-04-21T10:23:35.301Z</time></trkpt><trkpt lat="38.140915" lon="15.8523067"><ele>1502.8333333333333</ele><time>2026-04-21T10:23:36.3Z</time></trkpt><trkpt lat="38.1409483" lon="15.8522333"><ele>1505.6666666666667</ele><time>2026-04-21T10:23:37.301Z</time></trkpt><trkpt lat="38.1409933" lon="15.8521767"><ele>1508.5</ele><time>2026-04-21T10:23:38.301Z</time></trkpt><trkpt lat="38.14108" lon="15.852115"><ele>1511.3333333333335</ele><time>2026-04-21T10:23:40.3Z</time></trkpt><trkpt lat="38.14111" lon="15.85219"><ele>1514.1666666666667</ele><time>2026-04-21T10:23:42.301Z</time></trkpt><trkpt lat="38.1410617" lon="15.8523433"><ele>1517.0</ele><time>2026-04-21T10:23:44.301Z</time></trkpt><trkpt lat="38.141005" lon="15.85243"><ele>1517.0</ele><time>2026-04-21T10:23:45.301Z</time></trkpt><trkpt lat="38.1409383" lon="15.8525117"><ele>1517.0</ele><time>2026-04-21T10:23:46.301Z</time></trkpt><trkpt lat="38.140865" lon="15.8525717"><ele>1517.0</ele><time>2026-04-21T10:23:47.301Z</time></trkpt><trkpt lat="38.14078" lon="15.8526283"><ele>1517.0</ele><time>2026-04-21T10:23:48.301Z</time></trkpt><trkpt lat="38.140705" lon="15.8526617"><ele>1517.0</ele><time>2026-04-21T10:23:49.301Z</time></trkpt><trkpt lat="38.140645" lon="15.8527083"><ele>1517.0</ele><time>2026-04-21T10:23:50.301Z</time></trkpt><trkpt lat="38.1406017" lon="15.8527667"><ele>1516.8</ele><time>2026-04-21T10:23:51.301Z</time></trkpt><trkpt lat="38.1405667" lon="15.8528833"><ele>1516.6</ele><time>2026-04-21T10:23:53.301Z</time></trkpt><trkpt lat="38.140565" lon="15.85302"><ele>1516.3999999999999</ele><time>2026-04-21T10:23:55.301Z</time></trkpt><trkpt lat="38.1405733" lon="15.8531617"><ele>1516.1999999999998</ele><time>2026-04-21T10:23:57.301Z</time></trkpt><trkpt lat="38.1405583" lon="15.8532683"><ele>1516.0</ele><time>2026-04-21T10:23:59.301Z</time></trkpt><trkpt lat="38.1404833" lon="15.853355"><ele>1516.0</ele><time>2026-04-21T10:24:01.3Z</time></trkpt><trkpt lat="38.14042" lon="15.85341"><ele>1516.0</ele><time>2026-04-21T10:24:02.301Z</time></trkpt><trkpt lat="38.140375" lon="15.85348"><ele>1516.0</ele><time>2026-04-21T10:24:03.301Z</time></trkpt><trkpt lat="38.1403467" lon="15.8535517"><ele>1516.0</ele><time>2026-04-21T10:24:04.301Z</time></trkpt><trkpt lat="38.1403383" lon="15.8536833"><ele>1516.0</ele><time>2026-04-21T10:24:06.301Z</time></trkpt><trkpt lat="38.1403633" lon="15.8537917"><ele>1516.0</ele><time>2026-04-21T10:24:08.301Z</time></trkpt><trkpt lat="38.1403767" lon="15.8538833"><ele>1520.1666666666665</ele><time>2026-04-21T10:24:10.301Z</time></trkpt><trkpt lat="38.1403417" lon="15.8539717"><ele>1524.3333333333333</ele><time>2026-04-21T10:24:12.301Z</time></trkpt><trkpt lat="38.14028" lon="15.8540083"><ele>1528.5</ele><time>2026-04-21T10:24:14.301Z</time></trkpt><trkpt lat="38.14018" lon="15.8539933"><ele>1532.6666666666665</ele><time>2026-04-21T10:24:16.301Z</time></trkpt><trkpt lat="38.1401167" lon="15.8539867"><ele>1536.8333333333333</ele><time>2026-04-21T10:24:17.3Z</time></trkpt><trkpt lat="38.14002" lon="15.85399"><ele>1541.0</ele><time>2026-04-21T10:24:18.301Z</time></trkpt><trkpt lat="38.1399117" lon="15.8540233"><ele>1539.5</ele><time>2026-04-21T10:24:19.301Z</time></trkpt><trkpt lat="38.1398083" lon="15.854085"><ele>1538.0</ele><time>2026-04-21T10:24:20.301Z</time></trkpt><trkpt lat="38.1397083" lon="15.8541617"><ele>1536.5</ele><time>2026-04-21T10:24:21.301Z</time></trkpt><trkpt lat="38.1396067" lon="15.854245"><ele>1535.0</ele><time>2026-04-21T10:24:22.301Z</time></trkpt><trkpt lat="38.1395067" lon="15.8543333"><ele>1540.25</ele><time>2026-04-21T10:24:23.301Z</time></trkpt><trkpt lat="38.139415" lon="15.8544433"><ele>1545.5</ele><time>2026-04-21T10:24:24.301Z</time></trkpt><trkpt lat="38.1393367" lon="15.85456"><ele>1550.75</ele><time>2026-04-21T10:24:25.301Z</time></trkpt><trkpt lat="38.1392683" lon="15.85467"><ele>1556.0</ele><time>2026-04-21T10:24:26.3Z</time></trkpt><trkpt lat="38.1392183" lon="15.85478"><ele>1556.0</ele><time>2026-04-21T10:24:27.301Z</time></trkpt><trkpt lat="38.13918" lon="15.85489"><ele>1556.0</ele><time>2026-04-21T10:24:28.301Z</time></trkpt><trkpt lat="38.1391533" lon="15.8550083"><ele>1556.0</ele><time>2026-04-21T10:24:29.301Z</time></trkpt><trkpt lat="38.1391367" lon="15.8551267"><ele>1556.0</ele><time>2026-04-21T10:24:30.3Z</time></trkpt><trkpt lat="38.139125" lon="15.8552383"><ele>1556.0</ele><time>2026-04-21T10:24:31.301Z</time></trkpt><trkpt lat="38.1391233" lon="15.8553433"><ele>1560.1999999999998</ele><time>2026-04-21T10:24:32.301Z</time></trkpt><trkpt lat="38.139115" lon="15.8554717"><ele>1564.3999999999999</ele><time>2026-04-21T10:24:34.301Z</time></trkpt><trkpt lat="38.1390833" lon="15.85556"><ele>1568.6</ele><time>2026-04-21T10:24:36.301Z</time></trkpt><trkpt lat="38.13904" lon="15.8556283"><ele>1572.8</ele><time>2026-04-21T10:24:38.301Z</time></trkpt><trkpt lat="38.13895" lon="15.8556267"><ele>1577.0</ele><time>2026-04-21T10:24:41.301Z</time></trkpt><trkpt lat="38.13883" lon="15.85558"><ele>1578.1999999999998</ele><time>2026-04-21T10:24:43.301Z</time></trkpt><trkpt lat="38.1387083" lon="15.8555733"><ele>1579.4</ele><time>2026-04-21T10:24:45.301Z</time></trkpt><trkpt lat="38.1386467" lon="15.8555517"><ele>1580.6</ele><time>2026-04-21T10:24:46.3Z</time></trkpt><trkpt lat="38.1385367" lon="15.855485"><ele>1581.8000000000002</ele><time>2026-04-21T10:24:48.301Z</time></trkpt><trkpt lat="38.1384517" lon="15.85536"><ele>1583.0</ele><time>2026-04-21T10:24:50.301Z</time></trkpt><trkpt lat="38.1384217" lon="15.8552767"><ele>1582.9999999999998</ele><time>2026-04-21T10:24:51.301Z</time></trkpt><trkpt lat="38.1383717" lon="15.85519"><ele>1583.0</ele><time>2026-04-21T10:24:52.301Z</time></trkpt><trkpt lat="38.138315" lon="15.8551133"><ele>1583.0</ele><time>2026-04-21T10:24:53.301Z</time></trkpt><trkpt lat="38.1382617" lon="15.8550583"><ele>1583.0</ele><time>2026-04-21T10:24:54.301Z</time></trkpt><trkpt lat="38.1382067" lon="15.854945"><ele>1582.9999999999998</ele><time>2026-04-21T10:24:56.301Z</time></trkpt><trkpt lat="38.1382133" lon="15.8548217"><ele>1583.0</ele><time>2026-04-21T10:24:58.301Z</time></trkpt><trkpt lat="38.138215" lon="15.8546783"><ele>1585.4</ele><time>2026-04-21T10:25:00.301Z</time></trkpt><trkpt lat="38.1382083" lon="15.8545317"><ele>1587.8000000000002</ele><time>2026-04-21T10:25:02.301Z</time></trkpt><trkpt lat="38.1381683" lon="15.8543883"><ele>1590.2</ele><time>2026-04-21T10:25:04.301Z</time></trkpt><trkpt lat="38.1381233" lon="15.8543233"><ele>1592.6</ele><time>2026-04-21T10:25:05.301Z</time></trkpt><trkpt lat="38.138025" lon="15.854225"><ele>1595.0</ele><time>2026-04-21T10:25:07.3Z</time></trkpt><trkpt lat="38.13797" lon="15.8541717"><ele>1594.9999999999998</ele><time>2026-04-21T10:25:08.301Z</time></trkpt><trkpt lat="38.137925" lon="15.85411"><ele>1595.0</ele><time>2026-04-21T10:25:09.301Z</time></trkpt><trkpt lat="38.1378483" lon="15.8539867"><ele>1595.0</ele><time>2026-04-21T10:25:11.301Z</time></trkpt><trkpt lat="38.1378017" lon="15.8539267"><ele>1595.0</ele><time>2026-04-21T10:25:12.301Z</time></trkpt><trkpt lat="38.13775" lon="15.8538567"><ele>1594.9999999999998</ele><time>2026-04-21T10:25:13.3Z</time></trkpt><trkpt lat="38.1376967" lon="15.8537833"><ele>1595.0</ele><time>2026-04-21T10:25:14.3Z</time></trkpt><trkpt lat="38.1376533" lon="15.85372"><ele>1595.0</ele><time>2026-04-21T10:25:15.301Z</time></trkpt><trkpt lat="38.1376217" lon="15.8535867"><ele>1595.0</ele><time>2026-04-21T10:25:17.301Z</time></trkpt><trkpt lat="38.13767" lon="15.8534333"><ele>1595.0</ele><time>2026-04-21T10:25:19.301Z</time></trkpt><trkpt lat="38.1377183" lon="15.8533633"><ele>1595.0</ele><time>2026-04-21T10:25:20.3Z</time></trkpt><trkpt lat="38.137765" lon="15.853275"><ele>1595.0</ele><time>2026-04-21T10:25:21.301Z</time></trkpt><trkpt lat="38.1378067" lon="15.85317"><ele>1594.4</ele><time>2026-04-21T10:25:22.301Z</time></trkpt><trkpt lat="38.1378433" lon="15.85304"><ele>1593.8</ele><time>2026-04-21T10:25:23.3Z</time></trkpt><trkpt lat="38.1378767" lon="15.852915"><ele>1593.1999999999998</ele><time>2026-04-21T10:25:24.301Z</time></trkpt><trkpt lat="38.1378617" lon="15.8527867"><ele>1592.6</ele><time>2026-04-21T10:25:25.301Z</time></trkpt><trkpt lat="38.1378117" lon="15.8526717"><ele>1592.0</ele><time>2026-04-21T10:25:26.301Z</time></trkpt><trkpt lat="38.1377317" lon="15.8525767"><ele>1591.3999999999999</ele><time>2026-04-21T10:25:27.301Z</time></trkpt><trkpt lat="38.13764" lon="15.8525033"><ele>1590.8</ele><time>2026-04-21T10:25:28.301Z</time></trkpt><trkpt lat="38.1375483" lon="15.8524433"><ele>1590.2</ele><time>2026-04-21T10:25:29.301Z</time></trkpt><trkpt lat="38.13746" lon="15.8523983"><ele>1589.6</ele><time>2026-04-21T10:25:30.301Z</time></trkpt><trkpt lat="38.1373733" lon="15.8523817"><ele>1589.0</ele><time>2026-04-21T10:25:31.301Z</time></trkpt><trkpt lat="38.1372917" lon="15.85239"><ele>1590.8333333333333</ele><time>2026-04-21T10:25:32.301Z</time></trkpt><trkpt lat="38.1372233" lon="15.8523883"><ele>1592.6666666666665</ele><time>2026-04-21T10:25:33.301Z</time></trkpt><trkpt lat="38.1371633" lon="15.8523617"><ele>1594.5</ele><time>2026-04-21T10:25:34.301Z</time></trkpt><trkpt lat="38.1371" lon="15.8523333"><ele>1596.3333333333335</ele><time>2026-04-21T10:25:35.301Z</time></trkpt><trkpt lat="38.1370233" lon="15.85222"><ele>1598.1666666666667</ele><time>2026-04-21T10:25:37.301Z</time></trkpt><trkpt lat="38.1369917" lon="15.85215"><ele>1600.0</ele><time>2026-04-21T10:25:38.301Z</time></trkpt><trkpt lat="38.136905" lon="15.8520967"><ele>1600.0</ele><time>2026-04-21T10:25:40.301Z</time></trkpt><trkpt lat="38.13682" lon="15.8521117"><ele>1600.0</ele><time>2026-04-21T10:25:42.301Z</time></trkpt><trkpt lat="38.13673" lon="15.8522117"><ele>1600.0</ele><time>2026-04-21T10:25:44.301Z</time></trkpt><trkpt lat="38.1366933" lon="15.8522933"><ele>1600.0</ele><time>2026-04-21T10:25:45.301Z</time></trkpt><trkpt lat="38.136665" lon="15.8523983"><ele>1600.0</ele><time>2026-04-21T10:25:46.301Z</time></trkpt><trkpt lat="38.1366467" lon="15.852515"><ele>1600.2</ele><time>2026-04-21T10:25:47.301Z</time></trkpt><trkpt lat="38.1366283" lon="15.8526417"><ele>1600.4</ele><time>2026-04-21T10:25:48.301Z</time></trkpt><trkpt lat="38.1366133" lon="15.8527617"><ele>1600.6</ele><time>2026-04-21T10:25:49.301Z</time></trkpt><trkpt lat="38.13661" lon="15.8528733"><ele>1600.8</ele><time>2026-04-21T10:25:50.301Z</time></trkpt><trkpt lat="38.1366133" lon="15.8529917"><ele>1601.0</ele><time>2026-04-21T10:25:51.301Z</time></trkpt><trkpt lat="38.1366233" lon="15.8531133"><ele>1601.0</ele><time>2026-04-21T10:25:52.3Z</time></trkpt><trkpt lat="38.1366333" lon="15.853235"><ele>1601.0</ele><time>2026-04-21T10:25:53.301Z</time></trkpt><trkpt lat="38.13663" lon="15.853345"><ele>1601.0</ele><time>2026-04-21T10:25:54.301Z</time></trkpt><trkpt lat="38.1366267" lon="15.8534933"><ele>1601.0</ele><time>2026-04-21T10:25:55.301Z</time></trkpt><trkpt lat="38.13663" lon="15.8536033"><ele>1601.0</ele><time>2026-04-21T10:25:56.301Z</time></trkpt><trkpt lat="38.1366483" lon="15.85371"><ele>1600.8333333333333</ele><time>2026-04-21T10:25:57.3Z</time></trkpt><trkpt lat="38.1366933" lon="15.8537967"><ele>1600.6666666666665</ele><time>2026-04-21T10:25:58.301Z</time></trkpt><trkpt lat="38.1367517" lon="15.8538683"><ele>1600.5</ele><time>2026-04-21T10:25:59.301Z</time></trkpt><trkpt lat="38.1368133" lon="15.8539383"><ele>1600.3333333333335</ele><time>2026-04-21T10:26:00.3Z</time></trkpt><trkpt lat="38.1368717" lon="15.8540067"><ele>1600.1666666666667</ele><time>2026-04-21T10:26:01.301Z</time></trkpt><trkpt lat="38.1369367" lon="15.854085"><ele>1600.0</ele><time>2026-04-21T10:26:02.3Z</time></trkpt><trkpt lat="38.136995" lon="15.8541633"><ele>1600.0000000000002</ele><time>2026-04-21T10:26:03.301Z</time></trkpt><trkpt lat="38.1370467" lon="15.8542467"><ele>1600.0</ele><time>2026-04-21T10:26:04.301Z</time></trkpt><trkpt lat="38.1370883" lon="15.8543367"><ele>1600.0</ele><time>2026-04-21T10:26:05.301Z</time></trkpt><trkpt lat="38.137125" lon="15.8544267"><ele>1600.0</ele><time>2026-04-21T10:26:06.301Z</time></trkpt><trkpt lat="38.1371583" lon="15.8545283"><ele>1600.0000000000002</ele><time>2026-04-21T10:26:07.301Z</time></trkpt><trkpt lat="38.13719" lon="15.8546333"><ele>1600.0</ele><time>2026-04-21T10:26:08.301Z</time></trkpt><trkpt lat="38.137215" lon="15.854735"><ele>1600.1666666666667</ele><time>2026-04-21T10:26:09.301Z</time></trkpt><trkpt lat="38.13724" lon="15.8548233"><ele>1600.3333333333335</ele><time>2026-04-21T10:26:10.3Z</time></trkpt><trkpt lat="38.1372733" lon="15.8549533"><ele>1600.5</ele><time>2026-04-21T10:26:12.3Z</time></trkpt><trkpt lat="38.1372767" lon="15.8550433"><ele>1600.6666666666665</ele><time>2026-04-21T10:26:14.301Z</time></trkpt><trkpt lat="38.1371967" lon="15.8551267"><ele>1600.8333333333333</ele><time>2026-04-21T10:26:16.301Z</time></trkpt><trkpt lat="38.13714" lon="15.8551767"><ele>1601.0</ele><time>2026-04-21T10:26:17.3Z</time></trkpt><trkpt lat="38.1370783" lon="15.85522"><ele>1601.8333333333333</ele><time>2026-04-21T10:26:18.301Z</time></trkpt><trkpt lat="38.1369767" lon="15.85528"><ele>1602.6666666666665</ele><time>2026-04-21T10:26:20.301Z</time></trkpt><trkpt lat="38.136905" lon="15.8553033"><ele>1603.5</ele><time>2026-04-21T10:26:23.301Z</time></trkpt><trkpt lat="38.1368283" lon="15.8553683"><ele>1604.3333333333335</ele><time>2026-04-21T10:26:26.301Z</time></trkpt><trkpt lat="38.136765" lon="15.855445"><ele>1605.1666666666667</ele><time>2026-04-21T10:26:29.301Z</time></trkpt><trkpt lat="38.1368217" lon="15.8554083"><ele>1606.0</ele><time>2026-04-21T10:27:41.301Z</time></trkpt><trkpt lat="38.1369083" lon="15.8553867"><ele>1606.0000000000002</ele><time>2026-04-21T10:28:43.301Z</time></trkpt><trkpt lat="38.136975" lon="15.85536"><ele>1606.0</ele><time>2026-04-21T10:28:46.301Z</time></trkpt><trkpt lat="38.1370233" lon="15.8553083"><ele>1606.0</ele><time>2026-04-21T10:28:48.3Z</time></trkpt><trkpt lat="38.1369083" lon="15.8553667"><ele>1606.0</ele><time>2026-04-21T10:29:43.301Z</time></trkpt><trkpt lat="38.1368383" lon="15.8553933"><ele>1606.0000000000002</ele><time>2026-04-21T10:29:45.301Z</time></trkpt><trkpt lat="38.1367517" lon="15.8554717"><ele>1606.0</ele><time>2026-04-21T10:29:47.301Z</time></trkpt><trkpt lat="38.1366467" lon="15.8555683"><ele>1606.0</ele><time>2026-04-21T10:29:49.301Z</time></trkpt><trkpt lat="38.1365917" lon="15.8556183"><ele>1606.0</ele><time>2026-04-21T10:29:50.301Z</time></trkpt><trkpt lat="38.1365367" lon="15.8556583"><ele>1606.0</ele><time>2026-04-21T10:29:51.301Z</time></trkpt><trkpt lat="38.1364533" lon="15.8557467"><ele>1606.0</ele><time>2026-04-21T10:29:53.3Z</time></trkpt><trkpt lat="38.1363933" lon="15.8558667"><ele>1606.0</ele><time>2026-04-21T10:29:55.301Z</time></trkpt><trkpt lat="38.136375" lon="15.8560233"><ele>1604.0</ele><time>2026-04-21T10:29:57.301Z</time></trkpt><trkpt lat="38.1363733" lon="15.85615"><ele>1602.0</ele><time>2026-04-21T10:29:59.301Z</time></trkpt><trkpt lat="38.1363783" lon="15.8562833"><ele>1600.0</ele><time>2026-04-21T10:30:01.3Z</time></trkpt><trkpt lat="38.1363833" lon="15.85643"><ele>1598.0</ele><time>2026-04-21T10:30:03.301Z</time></trkpt><trkpt lat="38.136365" lon="15.8565767"><ele>1596.0</ele><time>2026-04-21T10:30:05.301Z</time></trkpt><trkpt lat="38.136345" lon="15.8566567"><ele>1596.0</ele><time>2026-04-21T10:30:06.301Z</time></trkpt><trkpt lat="38.1363233" lon="15.8567417"><ele>1596.0</ele><time>2026-04-21T10:30:07.301Z</time></trkpt><trkpt lat="38.1363083" lon="15.8568367"><ele>1596.0</ele><time>2026-04-21T10:30:08.3Z</time></trkpt><trkpt lat="38.1362917" lon="15.8569267"><ele>1596.0</ele><time>2026-04-21T10:30:09.3Z</time></trkpt><trkpt lat="38.1362783" lon="15.8570133"><ele>1596.0</ele><time>2026-04-21T10:30:10.301Z</time></trkpt><trkpt lat="38.1362683" lon="15.8571033"><ele>1596.0</ele><time>2026-04-21T10:30:11.301Z</time></trkpt><trkpt lat="38.136255" lon="15.857195"><ele>1596.0</ele><time>2026-04-21T10:30:12.301Z</time></trkpt><trkpt lat="38.136225" lon="15.8572767"><ele>1597.5</ele><time>2026-04-21T10:30:13.301Z</time></trkpt><trkpt lat="38.1361767" lon="15.8573433"><ele>1599.0</ele><time>2026-04-21T10:30:14.301Z</time></trkpt><trkpt lat="38.1361167" lon="15.8573917"><ele>1600.5</ele><time>2026-04-21T10:30:15.301Z</time></trkpt><trkpt lat="38.136055" lon="15.8574317"><ele>1602.0</ele><time>2026-04-21T10:30:16.301Z</time></trkpt><trkpt lat="38.1359867" lon="15.857455"><ele>1603.5</ele><time>2026-04-21T10:30:17.301Z</time></trkpt><trkpt lat="38.1358767" lon="15.8574917"><ele>1605.0</ele><time>2026-04-21T10:30:19.3Z</time></trkpt><trkpt lat="38.135805" lon="15.85752"><ele>1606.4</ele><time>2026-04-21T10:30:21.301Z</time></trkpt><trkpt lat="38.13575" lon="15.8576467"><ele>1607.8</ele><time>2026-04-21T10:31:52.301Z</time></trkpt><trkpt lat="38.135705" lon="15.85774"><ele>1609.1999999999998</ele><time>2026-04-21T10:31:54.301Z</time></trkpt><trkpt lat="38.1356217" lon="15.8578483"><ele>1610.6</ele><time>2026-04-21T10:31:56.3Z</time></trkpt><trkpt lat="38.1355483" lon="15.8579183"><ele>1612.0</ele><time>2026-04-21T10:31:57.301Z</time></trkpt><trkpt lat="38.1354833" lon="15.8579883"><ele>1610.1666666666667</ele><time>2026-04-21T10:31:58.301Z</time></trkpt><trkpt lat="38.135445" lon="15.8580933"><ele>1608.3333333333335</ele><time>2026-04-21T10:31:59.301Z</time></trkpt><trkpt lat="38.1354217" lon="15.85817"><ele>1606.5</ele><time>2026-04-21T10:32:00.301Z</time></trkpt><trkpt lat="38.1354117" lon="15.8583017"><ele>1604.6666666666665</ele><time>2026-04-21T10:32:02.301Z</time></trkpt><trkpt lat="38.1354217" lon="15.85839"><ele>1602.8333333333333</ele><time>2026-04-21T10:32:04.301Z</time></trkpt><trkpt lat="38.1354417" lon="15.8584767"><ele>1601.0</ele><time>2026-04-21T10:32:06.301Z</time></trkpt><trkpt lat="38.1354683" lon="15.8585683"><ele>1601.0</ele><time>2026-04-21T10:32:08.301Z</time></trkpt><trkpt lat="38.1354767" lon="15.8586867"><ele>1601.0</ele><time>2026-04-21T10:32:10.301Z</time></trkpt><trkpt lat="38.1354467" lon="15.85878"><ele>1601.0</ele><time>2026-04-21T10:32:12.3Z</time></trkpt><trkpt lat="38.13539" lon="15.8588533"><ele>1601.0</ele><time>2026-04-21T10:32:14.301Z</time></trkpt><trkpt lat="38.1353183" lon="15.858955"><ele>1601.0</ele><time>2026-04-21T10:32:16.301Z</time></trkpt><trkpt lat="38.1352767" lon="15.85909"><ele>1601.0</ele><time>2026-04-21T10:32:18.301Z</time></trkpt><trkpt lat="38.1352667" lon="15.8592367"><ele>1601.0</ele><time>2026-04-21T10:32:20.301Z</time></trkpt><trkpt lat="38.1352833" lon="15.8594067"><ele>1601.0</ele><time>2026-04-21T10:32:22.301Z</time></trkpt><trkpt lat="38.135295" lon="15.859495"><ele>1601.0</ele><time>2026-04-21T10:32:23.301Z</time></trkpt><trkpt lat="38.1353017" lon="15.85959"><ele>1601.0</ele><time>2026-04-21T10:32:24.301Z</time></trkpt><trkpt lat="38.135295" lon="15.859675"><ele>1600.6</ele><time>2026-04-21T10:32:25.301Z</time></trkpt><trkpt lat="38.1352783" lon="15.8597533"><ele>1600.1999999999998</ele><time>2026-04-21T10:32:26.301Z</time></trkpt><trkpt lat="38.1352017" lon="15.8598617"><ele>1599.8000000000002</ele><time>2026-04-21T10:32:28.301Z</time></trkpt><trkpt lat="38.1350883" lon="15.8599283"><ele>1599.4</ele><time>2026-04-21T10:32:30.301Z</time></trkpt><trkpt lat="38.1350183" lon="15.8599767"><ele>1599.0</ele><time>2026-04-21T10:32:31.301Z</time></trkpt><trkpt lat="38.1349583" lon="15.8600317"><ele>1599.0</ele><time>2026-04-21T10:32:32.301Z</time></trkpt><trkpt lat="38.1349033" lon="15.8600917"><ele>1599.0</ele><time>2026-04-21T10:32:33.301Z</time></trkpt><trkpt lat="38.1348567" lon="15.8601583"><ele>1599.0</ele><time>2026-04-21T10:32:34.301Z</time></trkpt><trkpt lat="38.134805" lon="15.860235"><ele>1599.0</ele><time>2026-04-21T10:32:35.301Z</time></trkpt><trkpt lat="38.1347517" lon="15.86031"><ele>1599.0</ele><time>2026-04-21T10:32:36.301Z</time></trkpt><trkpt lat="38.1346767" lon="15.860395"><ele>1599.0</ele><time>2026-04-21T10:32:37.301Z</time></trkpt><trkpt lat="38.1346033" lon="15.8604533"><ele>1598.3333333333333</ele><time>2026-04-21T10:32:38.301Z</time></trkpt><trkpt lat="38.1345283" lon="15.8605033"><ele>1597.6666666666665</ele><time>2026-04-21T10:32:39.301Z</time></trkpt><trkpt lat="38.134455" lon="15.860535"><ele>1597.0</ele><time>2026-04-21T10:32:40.301Z</time></trkpt><trkpt lat="38.1343833" lon="15.8605717"><ele>1596.3333333333333</ele><time>2026-04-21T10:32:41.3Z</time></trkpt><trkpt lat="38.134305" lon="15.8605883"><ele>1595.6666666666665</ele><time>2026-04-21T10:32:42.301Z</time></trkpt><trkpt lat="38.1342283" lon="15.8605983"><ele>1595.0</ele><time>2026-04-21T10:32:43.301Z</time></trkpt><trkpt lat="38.13415" lon="15.8606"><ele>1594.9999999999998</ele><time>2026-04-21T10:32:44.301Z</time></trkpt><trkpt lat="38.13407" lon="15.860595"><ele>1595.0</ele><time>2026-04-21T10:32:45.301Z</time></trkpt><trkpt lat="38.1339867" lon="15.860585"><ele>1595.0</ele><time>2026-04-21T10:32:46.3Z</time></trkpt><trkpt lat="38.1339067" lon="15.8605733"><ele>1595.0</ele><time>2026-04-21T10:32:47.301Z</time></trkpt><trkpt lat="38.133825" lon="15.8605583"><ele>1594.9999999999998</ele><time>2026-04-21T10:32:48.301Z</time></trkpt><trkpt lat="38.1337533" lon="15.8605483"><ele>1595.0</ele><time>2026-04-21T10:32:49.301Z</time></trkpt><trkpt lat="38.1336833" lon="15.86054"><ele>1595.8333333333333</ele><time>2026-04-21T10:32:50.301Z</time></trkpt><trkpt lat="38.1336083" lon="15.8605283"><ele>1596.6666666666665</ele><time>2026-04-21T10:32:51.301Z</time></trkpt><trkpt lat="38.1335333" lon="15.860515"><ele>1597.5</ele><time>2026-04-21T10:32:52.301Z</time></trkpt><trkpt lat="38.133455" lon="15.8605"><ele>1598.3333333333335</ele><time>2026-04-21T10:32:53.3Z</time></trkpt><trkpt lat="38.1333883" lon="15.8604867"><ele>1599.1666666666667</ele><time>2026-04-21T10:32:54.301Z</time></trkpt><trkpt lat="38.13331" lon="15.8604683"><ele>1600.0</ele><time>2026-04-21T10:32:55.301Z</time></trkpt><trkpt lat="38.1332367" lon="15.8604617"><ele>1601.3333333333335</ele><time>2026-04-21T10:32:56.301Z</time></trkpt><trkpt lat="38.13316" lon="15.8604617"><ele>1602.6666666666667</ele><time>2026-04-21T10:32:57.301Z</time></trkpt><trkpt lat="38.1330767" lon="15.8604833"><ele>1604.0</ele><time>2026-04-21T10:32:58.301Z</time></trkpt><trkpt lat="38.1329933" lon="15.8605017"><ele>1605.3333333333335</ele><time>2026-04-21T10:32:59.301Z</time></trkpt><trkpt lat="38.1329117" lon="15.8605233"><ele>1606.6666666666667</ele><time>2026-04-21T10:33:00.301Z</time></trkpt><trkpt lat="38.13282" lon="15.860535"><ele>1608.0</ele><time>2026-04-21T10:33:01.301Z</time></trkpt><trkpt lat="38.132735" lon="15.8605267"><ele>1608.0</ele><time>2026-04-21T10:33:02.301Z</time></trkpt><trkpt lat="38.1326483" lon="15.8605117"><ele>1608.0</ele><time>2026-04-21T10:33:03.301Z</time></trkpt><trkpt lat="38.1325683" lon="15.8604767"><ele>1608.0</ele><time>2026-04-21T10:33:04.301Z</time></trkpt><trkpt lat="38.1324917" lon="15.8604383"><ele>1608.0</ele><time>2026-04-21T10:33:05.301Z</time></trkpt><trkpt lat="38.1324083" lon="15.8604233"><ele>1608.0</ele><time>2026-04-21T10:33:06.301Z</time></trkpt><trkpt lat="38.1323233" lon="15.8604217"><ele>1608.0</ele><time>2026-04-21T10:33:07.301Z</time></trkpt><trkpt lat="38.13224" lon="15.8604417"><ele>1609.0</ele><time>2026-04-21T10:33:08.301Z</time></trkpt><trkpt lat="38.1321517" lon="15.8604683"><ele>1610.0</ele><time>2026-04-21T10:33:09.301Z</time></trkpt><trkpt lat="38.13207" lon="15.8604883"><ele>1611.0</ele><time>2026-04-21T10:33:10.301Z</time></trkpt><trkpt lat="38.13199" lon="15.860505"><ele>1612.0</ele><time>2026-04-21T10:33:11.301Z</time></trkpt><trkpt lat="38.1319133" lon="15.860505"><ele>1613.0</ele><time>2026-04-21T10:33:12.301Z</time></trkpt><trkpt lat="38.1318433" lon="15.8604783"><ele>1614.0</ele><time>2026-04-21T10:33:13.301Z</time></trkpt><trkpt lat="38.1317767" lon="15.8604483"><ele>1614.0</ele><time>2026-04-21T10:33:14.301Z</time></trkpt><trkpt lat="38.1317" lon="15.8604033"><ele>1614.0</ele><time>2026-04-21T10:33:15.301Z</time></trkpt><trkpt lat="38.1316233" lon="15.8603383"><ele>1614.0</ele><time>2026-04-21T10:33:16.301Z</time></trkpt><trkpt lat="38.1315517" lon="15.8602733"><ele>1614.0</ele><time>2026-04-21T10:33:17.301Z</time></trkpt><trkpt lat="38.1314767" lon="15.8602033"><ele>1614.0</ele><time>2026-04-21T10:33:18.301Z</time></trkpt><trkpt lat="38.1314017" lon="15.860145"><ele>1614.0</ele><time>2026-04-21T10:33:19.3Z</time></trkpt><trkpt lat="38.1313217" lon="15.86009"><ele>1616.6</ele><time>2026-04-21T10:33:20.301Z</time></trkpt><trkpt lat="38.13126" lon="15.86005"><ele>1619.2</ele><time>2026-04-21T10:33:21.301Z</time></trkpt><trkpt lat="38.1311767" lon="15.8599967"><ele>1621.8</ele><time>2026-04-21T10:33:23.301Z</time></trkpt><trkpt lat="38.1310833" lon="15.8599617"><ele>1624.3999999999999</ele><time>2026-04-21T10:37:53.3Z</time></trkpt><trkpt lat="38.1309667" lon="15.8599"><ele>1627.0</ele><time>2026-04-21T10:37:55.3Z</time></trkpt><trkpt lat="38.1309083" lon="15.859845"><ele>1626.9999999999998</ele><time>2026-04-21T10:37:56.3Z</time></trkpt><trkpt lat="38.13085" lon="15.859785"><ele>1627.0</ele><time>2026-04-21T10:37:57.3Z</time></trkpt><trkpt lat="38.1308083" lon="15.85971"><ele>1627.0</ele><time>2026-04-21T10:37:58.3Z</time></trkpt><trkpt lat="38.1307767" lon="15.8596383"><ele>1627.0</ele><time>2026-04-21T10:37:59.3Z</time></trkpt><trkpt lat="38.1307683" lon="15.8595567"><ele>1627.0</ele><time>2026-04-21T10:38:00.3Z</time></trkpt><trkpt lat="38.1307867" lon="15.8594633"><ele>1626.9999999999998</ele><time>2026-04-21T10:38:01.299Z</time></trkpt><trkpt lat="38.1308217" lon="15.859375"><ele>1627.0</ele><time>2026-04-21T10:38:02.3Z</time></trkpt><trkpt lat="38.130855" lon="15.8592833"><ele>1627.8</ele><time>2026-04-21T10:38:03.3Z</time></trkpt><trkpt lat="38.1308733" lon="15.8591883"><ele>1628.6</ele><time>2026-04-21T10:38:04.3Z</time></trkpt><trkpt lat="38.1308717" lon="15.859095"><ele>1629.3999999999999</ele><time>2026-04-21T10:38:05.3Z</time></trkpt><trkpt lat="38.130805" lon="15.85896"><ele>1630.1999999999998</ele><time>2026-04-21T10:38:07.299Z</time></trkpt><trkpt lat="38.130745" lon="15.8589133"><ele>1631.0</ele><time>2026-04-21T10:38:08.3Z</time></trkpt><trkpt lat="38.1306183" lon="15.8588817"><ele>1632.9999999999998</ele><time>2026-04-21T10:38:10.3Z</time></trkpt><trkpt lat="38.1305467" lon="15.8588783"><ele>1635.0</ele><time>2026-04-21T10:38:11.3Z</time></trkpt><trkpt lat="38.1304667" lon="15.8588817"><ele>1637.0</ele><time>2026-04-21T10:38:12.3Z</time></trkpt><trkpt lat="38.1303833" lon="15.858885"><ele>1639.0</ele><time>2026-04-21T10:38:13.3Z</time></trkpt><trkpt lat="38.130305" lon="15.8588833"><ele>1640.9999999999998</ele><time>2026-04-21T10:38:14.3Z</time></trkpt><trkpt lat="38.1302183" lon="15.8588717"><ele>1643.0</ele><time>2026-04-21T10:38:15.3Z</time></trkpt><trkpt lat="38.1301417" lon="15.8588467"><ele>1642.9999999999998</ele><time>2026-04-21T10:38:16.3Z</time></trkpt><trkpt lat="38.1300767" lon="15.85882"><ele>1643.0</ele><time>2026-04-21T10:38:17.3Z</time></trkpt><trkpt lat="38.1299717" lon="15.858785"><ele>1643.0</ele><time>2026-04-21T10:38:19.3Z</time></trkpt><trkpt lat="38.1298767" lon="15.85875"><ele>1643.0</ele><time>2026-04-21T10:38:21.3Z</time></trkpt><trkpt lat="38.1298" lon="15.8587167"><ele>1642.9999999999998</ele><time>2026-04-21T10:38:23.3Z</time></trkpt><trkpt lat="38.1297333" lon="15.8586733"><ele>1643.0</ele><time>2026-04-21T10:38:26.3Z</time></trkpt><trkpt lat="38.1296617" lon="15.8586533"><ele>1645.2</ele><time>2026-04-21T10:38:29.3Z</time></trkpt><trkpt lat="38.1295833" lon="15.8586533"><ele>1647.4</ele><time>2026-04-21T10:38:41.3Z</time></trkpt><trkpt lat="38.1295" lon="15.8586717"><ele>1649.6000000000001</ele><time>2026-04-21T10:38:43.3Z</time></trkpt><trkpt lat="38.1293867" lon="15.8587083"><ele>1651.8000000000002</ele><time>2026-04-21T10:38:45.299Z</time></trkpt><trkpt lat="38.1292617" lon="15.8587667"><ele>1654.0</ele><time>2026-04-21T10:38:47.3Z</time></trkpt><trkpt lat="38.1291983" lon="15.8588017"><ele>1654.0</ele><time>2026-04-21T10:38:48.3Z</time></trkpt><trkpt lat="38.1291383" lon="15.85884"><ele>1654.0</ele><time>2026-04-21T10:38:49.3Z</time></trkpt><trkpt lat="38.1290783" lon="15.8588783"><ele>1654.0</ele><time>2026-04-21T10:38:50.3Z</time></trkpt><trkpt lat="38.1290183" lon="15.8589183"><ele>1654.0</ele><time>2026-04-21T10:38:51.3Z</time></trkpt><trkpt lat="38.12895" lon="15.85896"><ele>1654.0</ele><time>2026-04-21T10:38:52.3Z</time></trkpt><trkpt lat="38.1288783" lon="15.859"><ele>1654.0</ele><time>2026-04-21T10:38:53.3Z</time></trkpt><trkpt lat="38.12881" lon="15.8590383"><ele>1654.0</ele><time>2026-04-21T10:38:54.3Z</time></trkpt><trkpt lat="38.1287383" lon="15.85907"><ele>1654.5000000000002</ele><time>2026-04-21T10:38:55.3Z</time></trkpt><trkpt lat="38.1286683" lon="15.8591233"><ele>1655.0</ele><time>2026-04-21T10:38:56.3Z</time></trkpt><trkpt lat="38.1286033" lon="15.8591917"><ele>1655.5</ele><time>2026-04-21T10:38:57.3Z</time></trkpt><trkpt lat="38.1285483" lon="15.8592767"><ele>1656.0</ele><time>2026-04-21T10:38:58.299Z</time></trkpt><trkpt lat="38.12851" lon="15.8593717"><ele>1656.5000000000002</ele><time>2026-04-21T10:38:59.3Z</time></trkpt><trkpt lat="38.1284733" lon="15.859465"><ele>1657.0</ele><time>2026-04-21T10:39:00.3Z</time></trkpt><trkpt lat="38.1284383" lon="15.8595617"><ele>1657.0</ele><time>2026-04-21T10:39:01.3Z</time></trkpt><trkpt lat="38.1284" lon="15.8596467"><ele>1657.0</ele><time>2026-04-21T10:39:02.3Z</time></trkpt><trkpt lat="38.12836" lon="15.8597267"><ele>1657.0</ele><time>2026-04-21T10:39:03.3Z</time></trkpt><trkpt lat="38.1283183" lon="15.8597983"><ele>1657.0</ele><time>2026-04-21T10:39:04.3Z</time></trkpt><trkpt lat="38.1282717" lon="15.8598533"><ele>1657.0</ele><time>2026-04-21T10:39:05.3Z</time></trkpt><trkpt lat="38.1282233" lon="15.8599167"><ele>1657.0</ele><time>2026-04-21T10:39:06.3Z</time></trkpt><trkpt lat="38.1281767" lon="15.8599833"><ele>1657.0</ele><time>2026-04-21T10:39:07.3Z</time></trkpt><trkpt lat="38.128135" lon="15.8600433"><ele>1655.8333333333335</ele><time>2026-04-21T10:39:08.3Z</time></trkpt><trkpt lat="38.1280583" lon="15.8601633"><ele>1654.6666666666667</ele><time>2026-04-21T10:39:10.3Z</time></trkpt><trkpt lat="38.1280217" lon="15.8602383"><ele>1653.5</ele><time>2026-04-21T10:39:11.3Z</time></trkpt><trkpt lat="38.127985" lon="15.8603233"><ele>1652.3333333333335</ele><time>2026-04-21T10:39:12.3Z</time></trkpt><trkpt lat="38.12795" lon="15.8604067"><ele>1651.1666666666667</ele><time>2026-04-21T10:39:13.3Z</time></trkpt><trkpt lat="38.1279167" lon="15.860495"><ele>1650.0</ele><time>2026-04-21T10:39:14.3Z</time></trkpt><trkpt lat="38.12788" lon="15.8605833"><ele>1650.0</ele><time>2026-04-21T10:39:15.299Z</time></trkpt><trkpt lat="38.127845" lon="15.860665"><ele>1650.0</ele><time>2026-04-21T10:39:16.3Z</time></trkpt><trkpt lat="38.1278133" lon="15.8607433"><ele>1650.0</ele><time>2026-04-21T10:39:17.3Z</time></trkpt><trkpt lat="38.127785" lon="15.8608167"><ele>1650.0</ele><time>2026-04-21T10:39:18.3Z</time></trkpt><trkpt lat="38.1277517" lon="15.8609467"><ele>1650.0</ele><time>2026-04-21T10:39:20.3Z</time></trkpt><trkpt lat="38.1277233" lon="15.86109"><ele>1650.0</ele><time>2026-04-21T10:39:22.3Z</time></trkpt><trkpt lat="38.1276833" lon="15.8612333"><ele>1651.4</ele><time>2026-04-21T10:39:24.3Z</time></trkpt><trkpt lat="38.1276483" lon="15.8613617"><ele>1652.8</ele><time>2026-04-21T10:39:26.3Z</time></trkpt><trkpt lat="38.127605" lon="15.8614833"><ele>1654.1999999999998</ele><time>2026-04-21T10:39:28.3Z</time></trkpt><trkpt lat="38.1275517" lon="15.861595"><ele>1655.6</ele><time>2026-04-21T10:39:30.3Z</time></trkpt><trkpt lat="38.1274633" lon="15.8617133"><ele>1657.0</ele><time>2026-04-21T10:39:32.3Z</time></trkpt><trkpt lat="38.1274083" lon="15.8617683"><ele>1657.8</ele><time>2026-04-21T10:39:33.3Z</time></trkpt><trkpt lat="38.1272983" lon="15.86185"><ele>1658.6</ele><time>2026-04-21T10:39:35.3Z</time></trkpt><trkpt lat="38.12723" lon="15.8619"><ele>1659.3999999999999</ele><time>2026-04-21T10:39:36.3Z</time></trkpt><trkpt lat="38.1271583" lon="15.8619517"><ele>1660.1999999999998</ele><time>2026-04-21T10:39:37.3Z</time></trkpt><trkpt lat="38.1270633" lon="15.8620167"><ele>1661.0</ele><time>2026-04-21T10:39:38.299Z</time></trkpt><trkpt lat="38.1269867" lon="15.86207"><ele>1661.0</ele><time>2026-04-21T10:39:39.3Z</time></trkpt><trkpt lat="38.1269117" lon="15.8621317"><ele>1661.0</ele><time>2026-04-21T10:39:40.3Z</time></trkpt><trkpt lat="38.126835" lon="15.8622017"><ele>1661.0</ele><time>2026-04-21T10:39:41.3Z</time></trkpt><trkpt lat="38.1267617" lon="15.8622817"><ele>1661.0</ele><time>2026-04-21T10:39:42.3Z</time></trkpt><trkpt lat="38.1267017" lon="15.86236"><ele>1661.0</ele><time>2026-04-21T10:39:43.3Z</time></trkpt><trkpt lat="38.12665" lon="15.86245"><ele>1660.9999999999998</ele><time>2026-04-21T10:39:44.3Z</time></trkpt><trkpt lat="38.1266033" lon="15.86254"><ele>1661.0</ele><time>2026-04-21T10:39:45.3Z</time></trkpt><trkpt lat="38.1265633" lon="15.862645"><ele>1661.0</ele><time>2026-04-21T10:39:46.3Z</time></trkpt><trkpt lat="38.126535" lon="15.8627533"><ele>1661.0</ele><time>2026-04-21T10:39:47.3Z</time></trkpt><trkpt lat="38.1265067" lon="15.8628417"><ele>1660.9999999999998</ele><time>2026-04-21T10:39:48.3Z</time></trkpt><trkpt lat="38.1264817" lon="15.86297"><ele>1661.0</ele><time>2026-04-21T10:39:50.3Z</time></trkpt><trkpt lat="38.1264817" lon="15.8630833"><ele>1664.0</ele><time>2026-04-21T10:39:53.3Z</time></trkpt><trkpt lat="38.1264817" lon="15.863195"><ele>1667.0</ele><time>2026-04-21T10:39:56.299Z</time></trkpt><trkpt lat="38.1264667" lon="15.8633067"><ele>1670.0</ele><time>2026-04-21T10:39:58.3Z</time></trkpt><trkpt lat="38.126445" lon="15.8634367"><ele>1673.0</ele><time>2026-04-21T10:40:00.3Z</time></trkpt><trkpt lat="38.126425" lon="15.8635867"><ele>1676.0</ele><time>2026-04-21T10:40:02.3Z</time></trkpt><trkpt lat="38.1263883" lon="15.86374"><ele>1675.9999999999998</ele><time>2026-04-21T10:40:04.3Z</time></trkpt><trkpt lat="38.126355" lon="15.863815"><ele>1676.0</ele><time>2026-04-21T10:40:05.3Z</time></trkpt><trkpt lat="38.126305" lon="15.8638933"><ele>1676.0</ele><time>2026-04-21T10:40:06.3Z</time></trkpt><trkpt lat="38.1262433" lon="15.8639583"><ele>1676.0</ele><time>2026-04-21T10:40:07.3Z</time></trkpt><trkpt lat="38.12617" lon="15.8640183"><ele>1675.9999999999998</ele><time>2026-04-21T10:40:08.3Z</time></trkpt><trkpt lat="38.12609" lon="15.8640717"><ele>1676.0</ele><time>2026-04-21T10:40:09.3Z</time></trkpt><trkpt lat="38.1260017" lon="15.8641217"><ele>1675.9999999999998</ele><time>2026-04-21T10:40:10.3Z</time></trkpt><trkpt lat="38.125925" lon="15.8641633"><ele>1676.0</ele><time>2026-04-21T10:40:11.299Z</time></trkpt><trkpt lat="38.1258533" lon="15.8642117"><ele>1676.0</ele><time>2026-04-21T10:40:12.3Z</time></trkpt><trkpt lat="38.12579" lon="15.8642617"><ele>1676.0</ele><time>2026-04-21T10:40:13.299Z</time></trkpt><trkpt lat="38.12573" lon="15.8643283"><ele>1675.9999999999998</ele><time>2026-04-21T10:40:14.3Z</time></trkpt><trkpt lat="38.12568" lon="15.864405"><ele>1676.0</ele><time>2026-04-21T10:40:15.3Z</time></trkpt><trkpt lat="38.1256317" lon="15.86449"><ele>1675.8333333333333</ele><time>2026-04-21T10:40:16.299Z</time></trkpt><trkpt lat="38.1255783" lon="15.86458"><ele>1675.6666666666665</ele><time>2026-04-21T10:40:17.3Z</time></trkpt><trkpt lat="38.12552" lon="15.864665"><ele>1675.5</ele><time>2026-04-21T10:40:18.3Z</time></trkpt><trkpt lat="38.1254583" lon="15.8647383"><ele>1675.3333333333335</ele><time>2026-04-21T10:40:19.3Z</time></trkpt><trkpt lat="38.1253967" lon="15.8647983"><ele>1675.1666666666667</ele><time>2026-04-21T10:40:20.299Z</time></trkpt><trkpt lat="38.1253267" lon="15.8648367"><ele>1675.0</ele><time>2026-04-21T10:40:21.3Z</time></trkpt><trkpt lat="38.12525" lon="15.8648667"><ele>1675.0000000000002</ele><time>2026-04-21T10:40:22.299Z</time></trkpt><trkpt lat="38.1251717" lon="15.8648867"><ele>1675.0</ele><time>2026-04-21T10:40:23.3Z</time></trkpt><trkpt lat="38.12509" lon="15.8649017"><ele>1675.0</ele><time>2026-04-21T10:40:24.299Z</time></trkpt><trkpt lat="38.125005" lon="15.8649083"><ele>1675.0</ele><time>2026-04-21T10:40:25.3Z</time></trkpt><trkpt lat="38.1249233" lon="15.8649233"><ele>1675.0000000000002</ele><time>2026-04-21T10:40:26.3Z</time></trkpt><trkpt lat="38.1248467" lon="15.8649333"><ele>1675.0</ele><time>2026-04-21T10:40:27.3Z</time></trkpt><trkpt lat="38.1247733" lon="15.8649417"><ele>1674.4285714285716</ele><time>2026-04-21T10:40:28.3Z</time></trkpt><trkpt lat="38.1246967" lon="15.8649483"><ele>1673.8571428571427</ele><time>2026-04-21T10:40:29.3Z</time></trkpt><trkpt lat="38.124625" lon="15.8649583"><ele>1673.2857142857142</ele><time>2026-04-21T10:40:30.3Z</time></trkpt><trkpt lat="38.124555" lon="15.8649767"><ele>1672.7142857142858</ele><time>2026-04-21T10:40:31.3Z</time></trkpt><trkpt lat="38.1244767" lon="15.8649983"><ele>1672.1428571428573</ele><time>2026-04-21T10:40:32.3Z</time></trkpt><trkpt lat="38.12441" lon="15.86503"><ele>1671.5714285714284</ele><time>2026-04-21T10:40:33.3Z</time></trkpt><trkpt lat="38.1243533" lon="15.8650767"><ele>1671.0</ele><time>2026-04-21T10:40:34.3Z</time></trkpt><trkpt lat="38.1242717" lon="15.8651767"><ele>1671.0</ele><time>2026-04-21T10:40:36.3Z</time></trkpt><trkpt lat="38.1241967" lon="15.8652633"><ele>1671.0</ele><time>2026-04-21T10:40:38.3Z</time></trkpt><trkpt lat="38.1241117" lon="15.865315"><ele>1671.0</ele><time>2026-04-21T10:40:40.3Z</time></trkpt><trkpt lat="38.12399" lon="15.865335"><ele>1671.0</ele><time>2026-04-21T10:40:42.3Z</time></trkpt><trkpt lat="38.12391" lon="15.865345"><ele>1671.0</ele><time>2026-04-21T10:40:43.3Z</time></trkpt><trkpt lat="38.1238283" lon="15.8653583"><ele>1667.6666666666667</ele><time>2026-04-21T10:40:44.3Z</time></trkpt><trkpt lat="38.1237467" lon="15.8653783"><ele>1664.3333333333335</ele><time>2026-04-21T10:40:45.3Z</time></trkpt><trkpt lat="38.12366" lon="15.8654"><ele>1661.0</ele><time>2026-04-21T10:40:46.3Z</time></trkpt><trkpt lat="38.123575" lon="15.865435"><ele>1657.6666666666667</ele><time>2026-04-21T10:40:47.3Z</time></trkpt><trkpt lat="38.1234933" lon="15.86548"><ele>1654.3333333333335</ele><time>2026-04-21T10:40:48.3Z</time></trkpt><trkpt lat="38.1234133" lon="15.86553"><ele>1651.0</ele><time>2026-04-21T10:40:49.3Z</time></trkpt><trkpt lat="38.123345" lon="15.865585"><ele>1651.0000000000002</ele><time>2026-04-21T10:40:50.3Z</time></trkpt><trkpt lat="38.12328" lon="15.8656483"><ele>1651.0</ele><time>2026-04-21T10:40:51.3Z</time></trkpt><trkpt lat="38.123215" lon="15.8657067"><ele>1651.0</ele><time>2026-04-21T10:40:52.3Z</time></trkpt><trkpt lat="38.12315" lon="15.8657617"><ele>1651.0</ele><time>2026-04-21T10:40:53.3Z</time></trkpt><trkpt lat="38.123085" lon="15.8658167"><ele>1651.0000000000002</ele><time>2026-04-21T10:40:54.3Z</time></trkpt><trkpt lat="38.12301" lon="15.8658767"><ele>1651.0</ele><time>2026-04-21T10:40:55.3Z</time></trkpt><trkpt lat="38.122935" lon="15.86594"><ele>1649.0000000000002</ele><time>2026-04-21T10:40:56.3Z</time></trkpt><trkpt lat="38.1228617" lon="15.8660017"><ele>1647.0</ele><time>2026-04-21T10:40:57.3Z</time></trkpt><trkpt lat="38.12279" lon="15.8660617"><ele>1645.0</ele><time>2026-04-21T10:40:58.3Z</time></trkpt><trkpt lat="38.1227167" lon="15.8661117"><ele>1643.0</ele><time>2026-04-21T10:40:59.3Z</time></trkpt><trkpt lat="38.1226383" lon="15.8661517"><ele>1641.0000000000002</ele><time>2026-04-21T10:41:00.3Z</time></trkpt><trkpt lat="38.1225517" lon="15.8661917"><ele>1639.0</ele><time>2026-04-21T10:41:01.3Z</time></trkpt><trkpt lat="38.1224567" lon="15.8662283"><ele>1639.6</ele><time>2026-04-21T10:41:02.3Z</time></trkpt><trkpt lat="38.122365" lon="15.8662717"><ele>1640.2</ele><time>2026-04-21T10:41:03.3Z</time></trkpt><trkpt lat="38.1222667" lon="15.8663133"><ele>1640.8</ele><time>2026-04-21T10:41:04.3Z</time></trkpt><trkpt lat="38.1221783" lon="15.8663617"><ele>1641.3999999999999</ele><time>2026-04-21T10:41:05.3Z</time></trkpt><trkpt lat="38.122095" lon="15.8664017"><ele>1642.0</ele><time>2026-04-21T10:41:06.3Z</time></trkpt><trkpt lat="38.1220133" lon="15.8664417"><ele>1642.0000000000002</ele><time>2026-04-21T10:41:07.3Z</time></trkpt><trkpt lat="38.1219317" lon="15.8664767"><ele>1642.0</ele><time>2026-04-21T10:41:08.299Z</time></trkpt><trkpt lat="38.1218517" lon="15.866515"><ele>1642.0</ele><time>2026-04-21T10:41:09.3Z</time></trkpt><trkpt lat="38.1217717" lon="15.8665617"><ele>1642.0</ele><time>2026-04-21T10:41:10.3Z</time></trkpt><trkpt lat="38.121695" lon="15.8666033"><ele>1642.0000000000002</ele><time>2026-04-21T10:41:11.3Z</time></trkpt><trkpt lat="38.1216233" lon="15.8666417"><ele>1642.0</ele><time>2026-04-21T10:41:12.3Z</time></trkpt><trkpt lat="38.121545" lon="15.86668"><ele>1641.8333333333335</ele><time>2026-04-21T10:41:13.3Z</time></trkpt><trkpt lat="38.121465" lon="15.8667233"><ele>1641.6666666666667</ele><time>2026-04-21T10:41:14.3Z</time></trkpt><trkpt lat="38.1213917" lon="15.866775"><ele>1641.5</ele><time>2026-04-21T10:41:15.3Z</time></trkpt><trkpt lat="38.1213217" lon="15.86683"><ele>1641.3333333333335</ele><time>2026-04-21T10:41:16.3Z</time></trkpt><trkpt lat="38.1212633" lon="15.8668817"><ele>1641.1666666666667</ele><time>2026-04-21T10:41:17.3Z</time></trkpt><trkpt lat="38.1212083" lon="15.8669283"><ele>1641.0</ele><time>2026-04-21T10:41:18.3Z</time></trkpt><trkpt lat="38.12115" lon="15.8669867"><ele>1641.0</ele><time>2026-04-21T10:41:19.3Z</time></trkpt><trkpt lat="38.1210967" lon="15.86706"><ele>1641.0</ele><time>2026-04-21T10:41:20.3Z</time></trkpt><trkpt lat="38.1210333" lon="15.8671383"><ele>1641.0</ele><time>2026-04-21T10:41:21.299Z</time></trkpt><trkpt lat="38.12099" lon="15.8671967"><ele>1641.0</ele><time>2026-04-21T10:41:22.299Z</time></trkpt><trkpt lat="38.120935" lon="15.8672633"><ele>1641.0</ele><time>2026-04-21T10:41:23.3Z</time></trkpt><trkpt lat="38.12087" lon="15.86732"><ele>1641.0</ele><time>2026-04-21T10:41:24.3Z</time></trkpt><trkpt lat="38.12079" lon="15.867355"><ele>1642.4</ele><time>2026-04-21T10:41:25.3Z</time></trkpt><trkpt lat="38.1207217" lon="15.8673667"><ele>1643.8</ele><time>2026-04-21T10:41:26.3Z</time></trkpt><trkpt lat="38.120615" lon="15.8673617"><ele>1645.2</ele><time>2026-04-21T10:41:28.299Z</time></trkpt><trkpt lat="38.1205067" lon="15.867345"><ele>1646.6000000000001</ele><time>2026-04-21T10:41:30.3Z</time></trkpt><trkpt lat="38.1204033" lon="15.8673183"><ele>1648.0</ele><time>2026-04-21T10:41:32.299Z</time></trkpt><trkpt lat="38.12031" lon="15.867315"><ele>1648.0000000000002</ele><time>2026-04-21T10:41:34.3Z</time></trkpt><trkpt lat="38.12021" lon="15.8673467"><ele>1648.0</ele><time>2026-04-21T10:41:59.3Z</time></trkpt><trkpt lat="38.12014" lon="15.8673833"><ele>1648.0</ele><time>2026-04-21T10:42:01.299Z</time></trkpt><trkpt lat="38.120055" lon="15.867405"><ele>1648.0</ele><time>2026-04-21T10:42:03.299Z</time></trkpt><trkpt lat="38.1199833" lon="15.8674183"><ele>1648.0000000000002</ele><time>2026-04-21T10:42:05.3Z</time></trkpt><trkpt lat="38.119905" lon="15.86742"><ele>1648.0</ele><time>2026-04-21T10:42:07.3Z</time></trkpt><trkpt lat="38.1198183" lon="15.8673967"><ele>1650.0000000000002</ele><time>2026-04-21T10:42:09.3Z</time></trkpt><trkpt lat="38.1197183" lon="15.867345"><ele>1652.0</ele><time>2026-04-21T10:42:11.3Z</time></trkpt><trkpt lat="38.119605" lon="15.86727"><ele>1654.0</ele><time>2026-04-21T10:42:13.3Z</time></trkpt><trkpt lat="38.11955" lon="15.867225"><ele>1656.0</ele><time>2026-04-21T10:42:14.3Z</time></trkpt><trkpt lat="38.1194933" lon="15.86718"><ele>1658.0000000000002</ele><time>2026-04-21T10:42:15.3Z</time></trkpt><trkpt lat="38.1194333" lon="15.86714"><ele>1660.0</ele><time>2026-04-21T10:42:16.299Z</time></trkpt><trkpt lat="38.1193217" lon="15.86706"><ele>1660.0</ele><time>2026-04-21T10:42:18.3Z</time></trkpt><trkpt lat="38.1192583" lon="15.867035"><ele>1660.0</ele><time>2026-04-21T10:42:19.3Z</time></trkpt><trkpt lat="38.1191417" lon="15.8669867"><ele>1660.0</ele><time>2026-04-21T10:42:21.3Z</time></trkpt><trkpt lat="38.1190267" lon="15.86692"><ele>1660.0</ele><time>2026-04-21T10:42:23.3Z</time></trkpt><trkpt lat="38.1189683" lon="15.86688"><ele>1660.0</ele><time>2026-04-21T10:42:24.3Z</time></trkpt><trkpt lat="38.1189117" lon="15.8668317"><ele>1663.2</ele><time>2026-04-21T10:42:25.3Z</time></trkpt><trkpt lat="38.11886" lon="15.8667833"><ele>1666.4</ele><time>2026-04-21T10:42:26.3Z</time></trkpt><trkpt lat="38.1187933" lon="15.8666617"><ele>1669.6</ele><time>2026-04-21T10:42:28.3Z</time></trkpt><trkpt lat="38.1187367" lon="15.8665383"><ele>1672.8</ele><time>2026-04-21T10:42:30.3Z</time></trkpt><trkpt lat="38.1186717" lon="15.866405"><ele>1676.0</ele><time>2026-04-21T10:42:32.3Z</time></trkpt><trkpt lat="38.1186267" lon="15.8662567"><ele>1675.9999999999998</ele><time>2026-04-21T10:42:34.3Z</time></trkpt><trkpt lat="38.1186167" lon="15.8661717"><ele>1676.0</ele><time>2026-04-21T10:42:35.3Z</time></trkpt><trkpt lat="38.1185917" lon="15.866075"><ele>1676.0</ele><time>2026-04-21T10:42:36.3Z</time></trkpt><trkpt lat="38.11856" lon="15.8659783"><ele>1676.0</ele><time>2026-04-21T10:42:37.3Z</time></trkpt><trkpt lat="38.1185283" lon="15.8658717"><ele>1675.9999999999998</ele><time>2026-04-21T10:42:38.3Z</time></trkpt><trkpt lat="38.1184933" lon="15.8657667"><ele>1676.0</ele><time>2026-04-21T10:42:39.3Z</time></trkpt><trkpt lat="38.11846" lon="15.8656633"><ele>1675.3333333333333</ele><time>2026-04-21T10:42:40.3Z</time></trkpt><trkpt lat="38.1184283" lon="15.865565"><ele>1674.6666666666665</ele><time>2026-04-21T10:42:41.3Z</time></trkpt><trkpt lat="38.1184" lon="15.8654767"><ele>1674.0</ele><time>2026-04-21T10:42:42.3Z</time></trkpt><trkpt lat="38.118375" lon="15.8653817"><ele>1673.3333333333335</ele><time>2026-04-21T10:42:43.299Z</time></trkpt><trkpt lat="38.1183433" lon="15.86529"><ele>1672.6666666666667</ele><time>2026-04-21T10:42:44.3Z</time></trkpt><trkpt lat="38.1183067" lon="15.8652017"><ele>1672.0</ele><time>2026-04-21T10:42:45.3Z</time></trkpt><trkpt lat="38.1182633" lon="15.8651233"><ele>1672.0000000000002</ele><time>2026-04-21T10:42:46.299Z</time></trkpt><trkpt lat="38.1182083" lon="15.86506"><ele>1672.0</ele><time>2026-04-21T10:42:47.299Z</time></trkpt><trkpt lat="38.1181117" lon="15.864985"><ele>1672.0</ele><time>2026-04-21T10:42:49.3Z</time></trkpt><trkpt lat="38.1180483" lon="15.8649683"><ele>1672.0</ele><time>2026-04-21T10:42:50.3Z</time></trkpt><trkpt lat="38.1179767" lon="15.864965"><ele>1672.0000000000002</ele><time>2026-04-21T10:42:51.3Z</time></trkpt><trkpt lat="38.11791" lon="15.8649767"><ele>1672.0</ele><time>2026-04-21T10:42:52.3Z</time></trkpt><trkpt lat="38.1178467" lon="15.8649917"><ele>1672.0</ele><time>2026-04-21T10:42:53.3Z</time></trkpt><trkpt lat="38.1177867" lon="15.86502"><ele>1672.0</ele><time>2026-04-21T10:42:54.3Z</time></trkpt><trkpt lat="38.1176933" lon="15.8650883"><ele>1672.0</ele><time>2026-04-21T10:42:56.3Z</time></trkpt><trkpt lat="38.1176033" lon="15.8651983"><ele>1672.0</ele><time>2026-04-21T10:42:58.3Z</time></trkpt><trkpt lat="38.1175617" lon="15.8652617"><ele>1672.0</ele><time>2026-04-21T10:42:59.3Z</time></trkpt><trkpt lat="38.1174967" lon="15.8653783"><ele>1672.6</ele><time>2026-04-21T10:43:01.3Z</time></trkpt><trkpt lat="38.1174433" lon="15.865505"><ele>1673.1999999999998</ele><time>2026-04-21T10:43:03.3Z</time></trkpt><trkpt lat="38.1173917" lon="15.86563"><ele>1673.8</ele><time>2026-04-21T10:43:05.3Z</time></trkpt><trkpt lat="38.11736" lon="15.8657183"><ele>1674.4</ele><time>2026-04-21T10:43:06.299Z</time></trkpt><trkpt lat="38.1173367" lon="15.8658167"><ele>1675.0</ele><time>2026-04-21T10:43:07.3Z</time></trkpt><trkpt lat="38.1173217" lon="15.86592"><ele>1672.6666666666667</ele><time>2026-04-21T10:43:08.3Z</time></trkpt><trkpt lat="38.117315" lon="15.8660267"><ele>1670.3333333333335</ele><time>2026-04-21T10:43:09.3Z</time></trkpt><trkpt lat="38.1173167" lon="15.8661317"><ele>1668.0</ele><time>2026-04-21T10:43:10.3Z</time></trkpt><trkpt lat="38.1173233" lon="15.8662383"><ele>1665.6666666666665</ele><time>2026-04-21T10:43:11.3Z</time></trkpt><trkpt lat="38.1173367" lon="15.8663483"><ele>1663.3333333333333</ele><time>2026-04-21T10:43:12.3Z</time></trkpt><trkpt lat="38.1173483" lon="15.86645"><ele>1661.0</ele><time>2026-04-21T10:43:13.3Z</time></trkpt><trkpt lat="38.1173567" lon="15.866545"><ele>1660.9999999999998</ele><time>2026-04-21T10:43:14.3Z</time></trkpt><trkpt lat="38.1173583" lon="15.8666417"><ele>1661.0</ele><time>2026-04-21T10:43:15.3Z</time></trkpt><trkpt lat="38.1173517" lon="15.8667233"><ele>1661.0</ele><time>2026-04-21T10:43:16.3Z</time></trkpt><trkpt lat="38.1173183" lon="15.8668533"><ele>1661.0</ele><time>2026-04-21T10:43:18.3Z</time></trkpt><trkpt lat="38.11728" lon="15.8669517"><ele>1660.9999999999998</ele><time>2026-04-21T10:43:20.3Z</time></trkpt><trkpt lat="38.1172567" lon="15.8670417"><ele>1661.0</ele><time>2026-04-21T10:43:22.3Z</time></trkpt><trkpt lat="38.1172333" lon="15.8671267"><ele>1661.6</ele><time>2026-04-21T10:43:24.3Z</time></trkpt><trkpt lat="38.1171967" lon="15.8672067"><ele>1662.1999999999998</ele><time>2026-04-21T10:44:25.3Z</time></trkpt><trkpt lat="38.1171817" lon="15.8673183"><ele>1662.8000000000002</ele><time>2026-04-21T10:44:27.3Z</time></trkpt><trkpt lat="38.1171683" lon="15.8674483"><ele>1663.4</ele><time>2026-04-21T10:44:29.3Z</time></trkpt><trkpt lat="38.1171517" lon="15.86762"><ele>1664.0</ele><time>2026-04-21T10:44:31.3Z</time></trkpt><trkpt lat="38.1171433" lon="15.8677333"><ele>1664.0</ele><time>2026-04-21T10:44:32.3Z</time></trkpt><trkpt lat="38.11714" lon="15.8678633"><ele>1664.0</ele><time>2026-04-21T10:44:33.3Z</time></trkpt><trkpt lat="38.1171517" lon="15.868025"><ele>1664.0</ele><time>2026-04-21T10:44:34.3Z</time></trkpt><trkpt lat="38.1171717" lon="15.8681917"><ele>1664.0</ele><time>2026-04-21T10:44:35.3Z</time></trkpt><trkpt lat="38.11719" lon="15.86836"><ele>1664.6</ele><time>2026-04-21T10:44:36.3Z</time></trkpt><trkpt lat="38.1172" lon="15.8685217"><ele>1665.2</ele><time>2026-04-21T10:44:37.3Z</time></trkpt><trkpt lat="38.1172067" lon="15.8686667"><ele>1665.8</ele><time>2026-04-21T10:44:38.3Z</time></trkpt><trkpt lat="38.117215" lon="15.8687983"><ele>1666.3999999999999</ele><time>2026-04-21T10:44:39.3Z</time></trkpt><trkpt lat="38.1171967" lon="15.8689167"><ele>1667.0</ele><time>2026-04-21T10:44:40.3Z</time></trkpt><trkpt lat="38.11715" lon="15.8690533"><ele>1667.0</ele><time>2026-04-21T10:44:41.3Z</time></trkpt><trkpt lat="38.1170667" lon="15.8692083"><ele>1667.0</ele><time>2026-04-21T10:44:42.3Z</time></trkpt><trkpt lat="38.1169617" lon="15.8693783"><ele>1667.0</ele><time>2026-04-21T10:44:43.3Z</time></trkpt><trkpt lat="38.1168567" lon="15.869535"><ele>1668.3333333333333</ele><time>2026-04-21T10:44:44.3Z</time></trkpt><trkpt lat="38.1167617" lon="15.869695"><ele>1669.6666666666665</ele><time>2026-04-21T10:44:45.3Z</time></trkpt><trkpt lat="38.116675" lon="15.86986"><ele>1671.0</ele><time>2026-04-21T10:44:46.3Z</time></trkpt><trkpt lat="38.1165983" lon="15.8700383"><ele>1672.3333333333335</ele><time>2026-04-21T10:44:47.3Z</time></trkpt><trkpt lat="38.116545" lon="15.8702333"><ele>1673.6666666666667</ele><time>2026-04-21T10:44:48.3Z</time></trkpt><trkpt lat="38.1164967" lon="15.87041"><ele>1675.0</ele><time>2026-04-21T10:44:49.3Z</time></trkpt><trkpt lat="38.1164383" lon="15.8705733"><ele>1675.0</ele><time>2026-04-21T10:44:50.299Z</time></trkpt><trkpt lat="38.116355" lon="15.8707217"><ele>1675.0</ele><time>2026-04-21T10:44:51.3Z</time></trkpt><trkpt lat="38.1162633" lon="15.8708633"><ele>1675.0</ele><time>2026-04-21T10:44:52.3Z</time></trkpt><trkpt lat="38.1161717" lon="15.870975"><ele>1675.0</ele><time>2026-04-21T10:44:53.3Z</time></trkpt><trkpt lat="38.1160833" lon="15.8710517"><ele>1674.6666666666667</ele><time>2026-04-21T10:44:54.3Z</time></trkpt><trkpt lat="38.1160217" lon="15.8711017"><ele>1674.3333333333335</ele><time>2026-04-21T10:44:55.3Z</time></trkpt><trkpt lat="38.115955" lon="15.8711617"><ele>1674.0</ele><time>2026-04-21T10:44:57.3Z</time></trkpt><trkpt lat="38.1158983" lon="15.8712233"><ele>1673.6666666666665</ele><time>2026-04-21T10:44:59.3Z</time></trkpt><trkpt lat="38.115825" lon="15.8713183"><ele>1673.3333333333333</ele><time>2026-04-21T10:45:01.3Z</time></trkpt><trkpt lat="38.1157783" lon="15.8713867"><ele>1673.0</ele><time>2026-04-21T10:45:02.3Z</time></trkpt><trkpt lat="38.1157283" lon="15.8714733"><ele>1673.0</ele><time>2026-04-21T10:45:03.3Z</time></trkpt><trkpt lat="38.115675" lon="15.8715733"><ele>1673.0</ele><time>2026-04-21T10:45:04.3Z</time></trkpt><trkpt lat="38.11561" lon="15.8716867"><ele>1673.0</ele><time>2026-04-21T10:45:05.3Z</time></trkpt><trkpt lat="38.1155317" lon="15.87181"><ele>1673.0</ele><time>2026-04-21T10:45:06.3Z</time></trkpt><trkpt lat="38.11544" lon="15.87193"><ele>1672.5</ele><time>2026-04-21T10:45:07.3Z</time></trkpt><trkpt lat="38.115335" lon="15.87206"><ele>1672.0</ele><time>2026-04-21T10:45:08.3Z</time></trkpt><trkpt lat="38.1152283" lon="15.8721883"><ele>1671.5</ele><time>2026-04-21T10:45:09.299Z</time></trkpt><trkpt lat="38.1151133" lon="15.8722983"><ele>1671.0</ele><time>2026-04-21T10:45:10.3Z</time></trkpt><trkpt lat="38.11502" lon="15.87239"><ele>1671.0</ele><time>2026-04-21T10:45:11.3Z</time></trkpt><trkpt lat="38.1149417" lon="15.8724667"><ele>1671.0</ele><time>2026-04-21T10:45:12.3Z</time></trkpt><trkpt lat="38.11487" lon="15.8725483"><ele>1671.0</ele><time>2026-04-21T10:45:13.3Z</time></trkpt><trkpt lat="38.1148067" lon="15.8726283"><ele>1671.0</ele><time>2026-04-21T10:45:14.3Z</time></trkpt><trkpt lat="38.11476" lon="15.87273"><ele>1671.0</ele><time>2026-04-21T10:45:15.3Z</time></trkpt><trkpt lat="38.114735" lon="15.8728467"><ele>1668.0</ele><time>2026-04-21T10:45:16.3Z</time></trkpt><trkpt lat="38.1147283" lon="15.8729783"><ele>1665.0</ele><time>2026-04-21T10:45:17.3Z</time></trkpt><trkpt lat="38.11474" lon="15.873125"><ele>1662.0</ele><time>2026-04-21T10:45:18.3Z</time></trkpt><trkpt lat="38.1147917" lon="15.873275"><ele>1659.0</ele><time>2026-04-21T10:45:19.3Z</time></trkpt><trkpt lat="38.1148567" lon="15.8734083"><ele>1660.8000000000002</ele><time>2026-04-21T10:45:20.3Z</time></trkpt><trkpt lat="38.114915" lon="15.8735467"><ele>1662.6000000000001</ele><time>2026-04-21T10:45:21.3Z</time></trkpt><trkpt lat="38.1149533" lon="15.8736783"><ele>1664.4</ele><time>2026-04-21T10:45:22.3Z</time></trkpt><trkpt lat="38.114965" lon="15.87379"><ele>1666.2</ele><time>2026-04-21T10:45:23.3Z</time></trkpt><trkpt lat="38.1149417" lon="15.8739083"><ele>1668.0</ele><time>2026-04-21T10:45:24.3Z</time></trkpt><trkpt lat="38.114895" lon="15.8740367"><ele>1663.5</ele><time>2026-04-21T10:45:25.3Z</time></trkpt><trkpt lat="38.1148333" lon="15.8741717"><ele>1659.0</ele><time>2026-04-21T10:45:26.3Z</time></trkpt><trkpt lat="38.1147717" lon="15.8743167"><ele>1654.5</ele><time>2026-04-21T10:45:27.3Z</time></trkpt><trkpt lat="38.11471" lon="15.8744883"><ele>1650.0</ele><time>2026-04-21T10:45:28.3Z</time></trkpt><trkpt lat="38.11465" lon="15.8746667"><ele>1649.3333333333335</ele><time>2026-04-21T10:45:29.3Z</time></trkpt><trkpt lat="38.1145917" lon="15.87484"><ele>1648.6666666666667</ele><time>2026-04-21T10:45:30.3Z</time></trkpt><trkpt lat="38.114515" lon="15.8750067"><ele>1648.0</ele><time>2026-04-21T10:45:31.3Z</time></trkpt><trkpt lat="38.1144233" lon="15.875175"><ele>1651.0</ele><time>2026-04-21T10:45:32.3Z</time></trkpt><trkpt lat="38.1143183" lon="15.8753517"><ele>1654.0</ele><time>2026-04-21T10:45:33.3Z</time></trkpt><trkpt lat="38.11421" lon="15.8755167"><ele>1657.0</ele><time>2026-04-21T10:45:34.3Z</time></trkpt><trkpt lat="38.1141133" lon="15.8756717"><ele>1654.75</ele><time>2026-04-21T10:45:35.3Z</time></trkpt><trkpt lat="38.114025" lon="15.87581"><ele>1652.5</ele><time>2026-04-21T10:45:36.3Z</time></trkpt><trkpt lat="38.11394" lon="15.8759233"><ele>1650.25</ele><time>2026-04-21T10:45:37.3Z</time></trkpt><trkpt lat="38.1138483" lon="15.87603"><ele>1648.0</ele><time>2026-04-21T10:45:38.3Z</time></trkpt><trkpt lat="38.1137533" lon="15.8761183"><ele>1648.0</ele><time>2026-04-21T10:45:39.3Z</time></trkpt><trkpt lat="38.1136583" lon="15.8761817"><ele>1648.0</ele><time>2026-04-21T10:45:40.3Z</time></trkpt><trkpt lat="38.1135517" lon="15.8762133"><ele>1648.0</ele><time>2026-04-21T10:45:41.3Z</time></trkpt><trkpt lat="38.1134483" lon="15.8762283"><ele>1648.0</ele><time>2026-04-21T10:45:42.3Z</time></trkpt><trkpt lat="38.1133367" lon="15.876225"><ele>1648.0</ele><time>2026-04-21T10:45:43.3Z</time></trkpt><trkpt lat="38.1132117" lon="15.8762083"><ele>1644.25</ele><time>2026-04-21T10:45:44.3Z</time></trkpt><trkpt lat="38.1130817" lon="15.8761717"><ele>1640.5</ele><time>2026-04-21T10:45:45.3Z</time></trkpt><trkpt lat="38.11296" lon="15.8761183"><ele>1636.75</ele><time>2026-04-21T10:45:46.3Z</time></trkpt><trkpt lat="38.1128383" lon="15.876085"><ele>1633.0</ele><time>2026-04-21T10:45:47.299Z</time></trkpt><trkpt lat="38.11273" lon="15.876065"><ele>1633.0000000000002</ele><time>2026-04-21T10:45:48.3Z</time></trkpt><trkpt lat="38.112635" lon="15.8760667"><ele>1633.0</ele><time>2026-04-21T10:45:49.3Z</time></trkpt><trkpt lat="38.11256" lon="15.8760783"><ele>1633.0</ele><time>2026-04-21T10:45:50.3Z</time></trkpt><trkpt lat="38.1124633" lon="15.8760933"><ele>1633.0</ele><time>2026-04-21T10:45:52.3Z</time></trkpt><trkpt lat="38.1123783" lon="15.8761367"><ele>1633.0000000000002</ele><time>2026-04-21T10:46:26.3Z</time></trkpt><trkpt lat="38.1122933" lon="15.8761033"><ele>1633.0</ele><time>2026-04-21T10:46:28.3Z</time></trkpt><trkpt lat="38.1122333" lon="15.876075"><ele>1631.3333333333335</ele><time>2026-04-21T10:46:30.3Z</time></trkpt><trkpt lat="38.1121517" lon="15.876045"><ele>1629.6666666666667</ele><time>2026-04-21T10:46:33.299Z</time></trkpt><trkpt lat="38.112075" lon="15.8760583"><ele>1628.0</ele><time>2026-04-21T10:46:35.3Z</time></trkpt><trkpt lat="38.1120083" lon="15.8760967"><ele>1626.3333333333335</ele><time>2026-04-21T10:46:37.3Z</time></trkpt><trkpt lat="38.1119317" lon="15.8761483"><ele>1624.6666666666667</ele><time>2026-04-21T10:46:39.3Z</time></trkpt><trkpt lat="38.11187" lon="15.8762233"><ele>1623.0</ele><time>2026-04-21T10:46:41.3Z</time></trkpt><trkpt lat="38.1118283" lon="15.8763117"><ele>1623.0</ele><time>2026-04-21T10:46:43.3Z</time></trkpt><trkpt lat="38.1118017" lon="15.876385"><ele>1623.0</ele><time>2026-04-21T10:46:45.3Z</time></trkpt><trkpt lat="38.1117733" lon="15.8764717"><ele>1623.0</ele><time>2026-04-21T10:46:47.299Z</time></trkpt><trkpt lat="38.1116817" lon="15.8765"><ele>1623.0</ele><time>2026-04-21T10:46:50.3Z</time></trkpt><trkpt lat="38.1115867" lon="15.8764583"><ele>1623.0</ele><time>2026-04-21T10:46:52.299Z</time></trkpt><trkpt lat="38.111505" lon="15.8764133"><ele>1623.0</ele><time>2026-04-21T10:46:54.3Z</time></trkpt><trkpt lat="38.1114117" lon="15.8763933"><ele>1622.2</ele><time>2026-04-21T10:46:56.3Z</time></trkpt><trkpt lat="38.1113033" lon="15.8764"><ele>1621.4</ele><time>2026-04-21T10:46:58.3Z</time></trkpt><trkpt lat="38.1112133" lon="15.8764267"><ele>1620.6000000000001</ele><time>2026-04-21T10:47:00.3Z</time></trkpt><trkpt lat="38.11112" lon="15.87645"><ele>1619.8000000000002</ele><time>2026-04-21T10:47:02.3Z</time></trkpt><trkpt lat="38.11103" lon="15.8764917"><ele>1619.0</ele><time>2026-04-21T10:47:04.3Z</time></trkpt><trkpt lat="38.1109483" lon="15.87656"><ele>1619.0</ele><time>2026-04-21T10:47:06.3Z</time></trkpt><trkpt lat="38.1108633" lon="15.8766317"><ele>1619.0</ele><time>2026-04-21T10:47:08.3Z</time></trkpt><trkpt lat="38.1107667" lon="15.8767217"><ele>1619.0</ele><time>2026-04-21T10:47:10.3Z</time></trkpt><trkpt lat="38.110665" lon="15.8768017"><ele>1619.0</ele><time>2026-04-21T10:47:12.3Z</time></trkpt><trkpt lat="38.1106067" lon="15.8768417"><ele>1619.0</ele><time>2026-04-21T10:47:13.3Z</time></trkpt><trkpt lat="38.1105467" lon="15.87689"><ele>1617.8333333333333</ele><time>2026-04-21T10:47:14.3Z</time></trkpt><trkpt lat="38.1104917" lon="15.87694"><ele>1616.6666666666665</ele><time>2026-04-21T10:47:15.3Z</time></trkpt><trkpt lat="38.1103933" lon="15.8770267"><ele>1615.5</ele><time>2026-04-21T10:47:17.3Z</time></trkpt><trkpt lat="38.1103367" lon="15.8770633"><ele>1614.3333333333335</ele><time>2026-04-21T10:47:18.3Z</time></trkpt><trkpt lat="38.1102433" lon="15.87712"><ele>1613.1666666666667</ele><time>2026-04-21T10:47:20.3Z</time></trkpt><trkpt lat="38.110165" lon="15.877175"><ele>1612.0</ele><time>2026-04-21T10:47:22.3Z</time></trkpt><trkpt lat="38.1100833" lon="15.877235"><ele>1612.0</ele><time>2026-04-21T10:47:24.3Z</time></trkpt><trkpt lat="38.1100167" lon="15.877295"><ele>1612.0</ele><time>2026-04-21T10:47:26.3Z</time></trkpt><trkpt lat="38.1099483" lon="15.8773317"><ele>1612.0</ele><time>2026-04-21T10:47:28.299Z</time></trkpt><trkpt lat="38.1098717" lon="15.877355"><ele>1612.0</ele><time>2026-04-21T10:47:30.3Z</time></trkpt><trkpt lat="38.109775" lon="15.877395"><ele>1612.0</ele><time>2026-04-21T10:47:32.3Z</time></trkpt><trkpt lat="38.10966" lon="15.8774267"><ele>1611.3999999999999</ele><time>2026-04-21T10:47:34.3Z</time></trkpt><trkpt lat="38.109555" lon="15.8774517"><ele>1610.8</ele><time>2026-04-21T10:47:36.3Z</time></trkpt><trkpt lat="38.1094533" lon="15.8774733"><ele>1610.2</ele><time>2026-04-21T10:47:38.3Z</time></trkpt><trkpt lat="38.10933" lon="15.8775083"><ele>1609.6</ele><time>2026-04-21T10:47:40.3Z</time></trkpt><trkpt lat="38.1092667" lon="15.87753"><ele>1609.0</ele><time>2026-04-21T10:47:41.3Z</time></trkpt><trkpt lat="38.109195" lon="15.8775583"><ele>1609.0</ele><time>2026-04-21T10:47:42.3Z</time></trkpt><trkpt lat="38.109125" lon="15.8775733"><ele>1609.0</ele><time>2026-04-21T10:47:43.3Z</time></trkpt><trkpt lat="38.10906" lon="15.8775867"><ele>1609.0</ele><time>2026-04-21T10:47:44.3Z</time></trkpt><trkpt lat="38.1089933" lon="15.877585"><ele>1609.0</ele><time>2026-04-21T10:47:45.3Z</time></trkpt><trkpt lat="38.10893" lon="15.8775733"><ele>1609.0</ele><time>2026-04-21T10:47:46.3Z</time></trkpt><trkpt lat="38.108855" lon="15.8775633"><ele>1609.0</ele><time>2026-04-21T10:47:47.3Z</time></trkpt><trkpt lat="38.108785" lon="15.87756"><ele>1609.0</ele><time>2026-04-21T10:47:48.3Z</time></trkpt><trkpt lat="38.1087117" lon="15.87755"><ele>1608.1666666666667</ele><time>2026-04-21T10:47:49.3Z</time></trkpt><trkpt lat="38.108625" lon="15.8775283"><ele>1607.3333333333335</ele><time>2026-04-21T10:47:50.3Z</time></trkpt><trkpt lat="38.1085367" lon="15.8774883"><ele>1606.5</ele><time>2026-04-21T10:47:51.3Z</time></trkpt><trkpt lat="38.1084583" lon="15.8774383"><ele>1605.6666666666665</ele><time>2026-04-21T10:47:52.3Z</time></trkpt><trkpt lat="38.1083783" lon="15.87738"><ele>1604.8333333333333</ele><time>2026-04-21T10:47:53.3Z</time></trkpt><trkpt lat="38.1083133" lon="15.8773183"><ele>1604.0</ele><time>2026-04-21T10:47:54.3Z</time></trkpt><trkpt lat="38.1082517" lon="15.8772533"><ele>1603.4285714285716</ele><time>2026-04-21T10:47:55.3Z</time></trkpt><trkpt lat="38.108195" lon="15.8772033"><ele>1602.857142857143</ele><time>2026-04-21T10:47:56.3Z</time></trkpt><trkpt lat="38.1081383" lon="15.8771617"><ele>1602.2857142857142</ele><time>2026-04-21T10:47:57.3Z</time></trkpt><trkpt lat="38.1080733" lon="15.877135"><ele>1601.7142857142858</ele><time>2026-04-21T10:47:58.3Z</time></trkpt><trkpt lat="38.108" lon="15.8771233"><ele>1601.142857142857</ele><time>2026-04-21T10:47:59.3Z</time></trkpt><trkpt lat="38.1079217" lon="15.8771133"><ele>1600.5714285714287</ele><time>2026-04-21T10:48:00.3Z</time></trkpt><trkpt lat="38.10785" lon="15.8771133"><ele>1600.0</ele><time>2026-04-21T10:48:01.3Z</time></trkpt><trkpt lat="38.107785" lon="15.87711"><ele>1600.0</ele><time>2026-04-21T10:48:02.3Z</time></trkpt><trkpt lat="38.1076617" lon="15.87707"><ele>1600.0</ele><time>2026-04-21T10:48:04.3Z</time></trkpt><trkpt lat="38.1075467" lon="15.8769983"><ele>1600.0</ele><time>2026-04-21T10:48:06.3Z</time></trkpt><trkpt lat="38.1074533" lon="15.8769333"><ele>1600.0</ele><time>2026-04-21T10:48:08.3Z</time></trkpt><trkpt lat="38.1073467" lon="15.8768833"><ele>1599.2</ele><time>2026-04-21T10:48:10.299Z</time></trkpt><trkpt lat="38.1072183" lon="15.8768433"><ele>1598.4</ele><time>2026-04-21T10:48:12.3Z</time></trkpt><trkpt lat="38.107135" lon="15.8768067"><ele>1597.6</ele><time>2026-04-21T10:48:13.3Z</time></trkpt><trkpt lat="38.107045" lon="15.8767617"><ele>1596.8</ele><time>2026-04-21T10:48:14.3Z</time></trkpt><trkpt lat="38.1069417" lon="15.8767083"><ele>1596.0</ele><time>2026-04-21T10:48:15.3Z</time></trkpt><trkpt lat="38.1068467" lon="15.8766583"><ele>1596.0</ele><time>2026-04-21T10:48:16.3Z</time></trkpt><trkpt lat="38.106755" lon="15.8766183"><ele>1596.0</ele><time>2026-04-21T10:48:17.3Z</time></trkpt><trkpt lat="38.10666" lon="15.8765933"><ele>1596.0</ele><time>2026-04-21T10:48:18.3Z</time></trkpt><trkpt lat="38.1065617" lon="15.876575"><ele>1596.0</ele><time>2026-04-21T10:48:19.3Z</time></trkpt><trkpt lat="38.10645" lon="15.8765667"><ele>1596.0</ele><time>2026-04-21T10:48:20.3Z</time></trkpt><trkpt lat="38.106355" lon="15.87658"><ele>1595.857142857143</ele><time>2026-04-21T10:48:21.3Z</time></trkpt><trkpt lat="38.1062783" lon="15.8766067"><ele>1595.7142857142858</ele><time>2026-04-21T10:48:22.3Z</time></trkpt><trkpt lat="38.10622" lon="15.8766467"><ele>1595.5714285714284</ele><time>2026-04-21T10:48:23.3Z</time></trkpt><trkpt lat="38.1061633" lon="15.876715"><ele>1595.4285714285716</ele><time>2026-04-21T10:48:24.299Z</time></trkpt><trkpt lat="38.1061" lon="15.8767617"><ele>1595.2857142857142</ele><time>2026-04-21T10:48:25.3Z</time></trkpt><trkpt lat="38.1060333" lon="15.8767967"><ele>1595.142857142857</ele><time>2026-04-21T10:48:26.3Z</time></trkpt><trkpt lat="38.1059717" lon="15.8768133"><ele>1595.0</ele><time>2026-04-21T10:48:27.3Z</time></trkpt><trkpt lat="38.10585" lon="15.87682"><ele>1594.9999999999998</ele><time>2026-04-21T10:48:29.3Z</time></trkpt><trkpt lat="38.10578" lon="15.87681"><ele>1595.0</ele><time>2026-04-21T10:48:30.3Z</time></trkpt><trkpt lat="38.1057033" lon="15.8768017"><ele>1595.0</ele><time>2026-04-21T10:48:31.3Z</time></trkpt><trkpt lat="38.105625" lon="15.8767933"><ele>1595.0</ele><time>2026-04-21T10:48:32.3Z</time></trkpt><trkpt lat="38.1055417" lon="15.8767917"><ele>1594.9999999999998</ele><time>2026-04-21T10:48:33.3Z</time></trkpt><trkpt lat="38.105455" lon="15.8767883"><ele>1595.0</ele><time>2026-04-21T10:48:34.3Z</time></trkpt><trkpt lat="38.1053667" lon="15.8767983"><ele>1595.4999999999998</ele><time>2026-04-21T10:48:35.299Z</time></trkpt><trkpt lat="38.1052767" lon="15.8768133"><ele>1596.0</ele><time>2026-04-21T10:48:36.3Z</time></trkpt><trkpt lat="38.10519" lon="15.8768283"><ele>1596.5</ele><time>2026-04-21T10:48:37.3Z</time></trkpt><trkpt lat="38.105105" lon="15.8768383"><ele>1597.0</ele><time>2026-04-21T10:48:38.3Z</time></trkpt><trkpt lat="38.1050183" lon="15.8768467"><ele>1597.4999999999998</ele><time>2026-04-21T10:48:39.3Z</time></trkpt><trkpt lat="38.1049417" lon="15.876845"><ele>1598.0</ele><time>2026-04-21T10:48:40.3Z</time></trkpt><trkpt lat="38.1048633" lon="15.8768217"><ele>1596.6000000000001</ele><time>2026-04-21T10:48:41.3Z</time></trkpt><trkpt lat="38.1048133" lon="15.8767717"><ele>1595.2</ele><time>2026-04-21T10:48:42.3Z</time></trkpt><trkpt lat="38.10478" lon="15.8766417"><ele>1593.8</ele><time>2026-04-21T10:48:44.3Z</time></trkpt><trkpt lat="38.1048133" lon="15.8764983"><ele>1592.4</ele><time>2026-04-21T10:48:46.3Z</time></trkpt><trkpt lat="38.1047667" lon="15.8763883"><ele>1591.0</ele><time>2026-04-21T10:48:48.3Z</time></trkpt><trkpt lat="38.1046683" lon="15.8763833"><ele>1589.8</ele><time>2026-04-21T10:48:50.3Z</time></trkpt><trkpt lat="38.1045783" lon="15.8764267"><ele>1588.6</ele><time>2026-04-21T10:48:52.3Z</time></trkpt><trkpt lat="38.1044733" lon="15.8764933"><ele>1587.4</ele><time>2026-04-21T10:48:54.3Z</time></trkpt><trkpt lat="38.10437" lon="15.876575"><ele>1586.2</ele><time>2026-04-21T10:48:56.3Z</time></trkpt><trkpt lat="38.1043117" lon="15.8766217"><ele>1585.0</ele><time>2026-04-21T10:48:57.3Z</time></trkpt><trkpt lat="38.1042583" lon="15.8766683"><ele>1585.0000000000002</ele><time>2026-04-21T10:48:58.3Z</time></trkpt><trkpt lat="38.104205" lon="15.87672"><ele>1585.0</ele><time>2026-04-21T10:48:59.299Z</time></trkpt><trkpt lat="38.104155" lon="15.876775"><ele>1585.0</ele><time>2026-04-21T10:49:00.3Z</time></trkpt><trkpt lat="38.1041" lon="15.87684"><ele>1585.0</ele><time>2026-04-21T10:49:01.299Z</time></trkpt><trkpt lat="38.1040417" lon="15.876905"><ele>1585.0000000000002</ele><time>2026-04-21T10:49:02.3Z</time></trkpt><trkpt lat="38.103975" lon="15.8769717"><ele>1585.0</ele><time>2026-04-21T10:49:03.3Z</time></trkpt><trkpt lat="38.1038983" lon="15.877035"><ele>1584.3333333333335</ele><time>2026-04-21T10:49:04.299Z</time></trkpt><trkpt lat="38.1038283" lon="15.87709"><ele>1583.6666666666667</ele><time>2026-04-21T10:49:05.3Z</time></trkpt><trkpt lat="38.10376" lon="15.87713"><ele>1583.0</ele><time>2026-04-21T10:49:06.3Z</time></trkpt><trkpt lat="38.103685" lon="15.8771667"><ele>1582.3333333333335</ele><time>2026-04-21T10:49:07.3Z</time></trkpt><trkpt lat="38.1036033" lon="15.8771967"><ele>1581.6666666666667</ele><time>2026-04-21T10:49:08.3Z</time></trkpt><trkpt lat="38.1035283" lon="15.877215"><ele>1581.0</ele><time>2026-04-21T10:49:09.3Z</time></trkpt><trkpt lat="38.1034517" lon="15.87722"><ele>1581.0</ele><time>2026-04-21T10:49:10.3Z</time></trkpt><trkpt lat="38.1033483" lon="15.87721"><ele>1581.0</ele><time>2026-04-21T10:49:11.3Z</time></trkpt><trkpt lat="38.1032617" lon="15.877195"><ele>1581.0</ele><time>2026-04-21T10:49:12.3Z</time></trkpt><trkpt lat="38.103185" lon="15.877175"><ele>1581.0</ele><time>2026-04-21T10:49:13.3Z</time></trkpt><trkpt lat="38.1031217" lon="15.8771533"><ele>1581.0</ele><time>2026-04-21T10:49:14.3Z</time></trkpt><trkpt lat="38.1030167" lon="15.8771367"><ele>1581.0</ele><time>2026-04-21T10:49:16.3Z</time></trkpt><trkpt lat="38.1029033" lon="15.8771683"><ele>1579.857142857143</ele><time>2026-04-21T10:49:18.3Z</time></trkpt><trkpt lat="38.1028367" lon="15.877195"><ele>1578.7142857142858</ele><time>2026-04-21T10:49:19.3Z</time></trkpt><trkpt lat="38.10277" lon="15.87723"><ele>1577.5714285714284</ele><time>2026-04-21T10:49:20.3Z</time></trkpt><trkpt lat="38.1027033" lon="15.877275"><ele>1576.4285714285716</ele><time>2026-04-21T10:49:21.3Z</time></trkpt><trkpt lat="38.1026433" lon="15.8773267"><ele>1575.2857142857144</ele><time>2026-04-21T10:49:22.3Z</time></trkpt><trkpt lat="38.1025817" lon="15.8773817"><ele>1574.142857142857</ele><time>2026-04-21T10:49:23.3Z</time></trkpt><trkpt lat="38.1025217" lon="15.8774333"><ele>1573.0</ele><time>2026-04-21T10:49:24.3Z</time></trkpt><trkpt lat="38.10245" lon="15.8774917"><ele>1572.1666666666667</ele><time>2026-04-21T10:49:25.3Z</time></trkpt><trkpt lat="38.1023817" lon="15.8775583"><ele>1571.3333333333335</ele><time>2026-04-21T10:49:26.299Z</time></trkpt><trkpt lat="38.1023167" lon="15.877625"><ele>1570.5</ele><time>2026-04-21T10:49:27.3Z</time></trkpt><trkpt lat="38.1022633" lon="15.8776817"><ele>1569.6666666666665</ele><time>2026-04-21T10:49:28.3Z</time></trkpt><trkpt lat="38.10221" lon="15.8777433"><ele>1568.8333333333333</ele><time>2026-04-21T10:49:29.3Z</time></trkpt><trkpt lat="38.1021417" lon="15.877855"><ele>1568.0</ele><time>2026-04-21T10:49:31.3Z</time></trkpt><trkpt lat="38.1021083" lon="15.8779283"><ele>1567.6666666666665</ele><time>2026-04-21T10:49:32.3Z</time></trkpt><trkpt lat="38.10208" lon="15.878"><ele>1567.3333333333333</ele><time>2026-04-21T10:49:33.299Z</time></trkpt><trkpt lat="38.1020517" lon="15.8780867"><ele>1567.0</ele><time>2026-04-21T10:49:34.3Z</time></trkpt><trkpt lat="38.1020083" lon="15.8781983"><ele>1566.6666666666665</ele><time>2026-04-21T10:49:36.299Z</time></trkpt><trkpt lat="38.101955" lon="15.87825"><ele>1566.3333333333333</ele><time>2026-04-21T10:49:38.3Z</time></trkpt><trkpt lat="38.1018833" lon="15.87823"><ele>1566.0</ele><time>2026-04-21T10:49:40.3Z</time></trkpt><trkpt lat="38.101785" lon="15.8781467"><ele>1566.0</ele><time>2026-04-21T10:49:42.299Z</time></trkpt><trkpt lat="38.1017233" lon="15.8781"><ele>1566.0</ele><time>2026-04-21T10:49:43.3Z</time></trkpt><trkpt lat="38.1016517" lon="15.8780367"><ele>1566.0</ele><time>2026-04-21T10:49:44.3Z</time></trkpt><trkpt lat="38.1016" lon="15.877985"><ele>1566.0</ele><time>2026-04-21T10:49:45.3Z</time></trkpt><trkpt lat="38.1015083" lon="15.8778683"><ele>1566.0</ele><time>2026-04-21T10:49:47.3Z</time></trkpt><trkpt lat="38.1014733" lon="15.8777933"><ele>1566.0</ele><time>2026-04-21T10:49:48.3Z</time></trkpt><trkpt lat="38.1014517" lon="15.8777067"><ele>1562.5</ele><time>2026-04-21T10:49:49.3Z</time></trkpt><trkpt lat="38.10144" lon="15.8776117"><ele>1559.0</ele><time>2026-04-21T10:49:50.3Z</time></trkpt><trkpt lat="38.1014383" lon="15.87753"><ele>1555.5</ele><time>2026-04-21T10:49:51.3Z</time></trkpt><trkpt lat="38.1014317" lon="15.877385"><ele>1552.0</ele><time>2026-04-21T10:49:53.3Z</time></trkpt><trkpt lat="38.1014367" lon="15.877285"><ele>1548.5</ele><time>2026-04-21T10:49:55.299Z</time></trkpt><trkpt lat="38.10142" lon="15.8772"><ele>1545.0</ele><time>2026-04-21T10:49:58.3Z</time></trkpt><trkpt lat="38.1013583" lon="15.8772483"><ele>1544.6666666666667</ele><time>2026-04-21T10:50:03.3Z</time></trkpt><trkpt lat="38.1012917" lon="15.8773267"><ele>1544.3333333333335</ele><time>2026-04-21T10:50:06.299Z</time></trkpt><trkpt lat="38.101225" lon="15.877335"><ele>1544.0</ele><time>2026-04-21T10:50:08.3Z</time></trkpt><trkpt lat="38.1011633" lon="15.8772983"><ele>1543.6666666666667</ele><time>2026-04-21T10:50:10.3Z</time></trkpt><trkpt lat="38.1011333" lon="15.8771967"><ele>1543.3333333333335</ele><time>2026-04-21T10:50:12.3Z</time></trkpt><trkpt lat="38.101135" lon="15.8770567"><ele>1543.0</ele><time>2026-04-21T10:50:14.3Z</time></trkpt><trkpt lat="38.101155" lon="15.8769717"><ele>1543.0</ele><time>2026-04-21T10:50:15.3Z</time></trkpt><trkpt lat="38.1011833" lon="15.8768917"><ele>1543.0</ele><time>2026-04-21T10:50:16.3Z</time></trkpt><trkpt lat="38.1012433" lon="15.8767583"><ele>1543.0</ele><time>2026-04-21T10:50:18.299Z</time></trkpt><trkpt lat="38.1013067" lon="15.8766317"><ele>1543.0</ele><time>2026-04-21T10:50:20.299Z</time></trkpt><trkpt lat="38.101345" lon="15.8764833"><ele>1543.0</ele><time>2026-04-21T10:50:22.3Z</time></trkpt><trkpt lat="38.1013617" lon="15.8764017"><ele>1541.9999999999998</ele><time>2026-04-21T10:50:23.3Z</time></trkpt><trkpt lat="38.10136" lon="15.8763183"><ele>1541.0</ele><time>2026-04-21T10:50:24.3Z</time></trkpt><trkpt lat="38.1013567" lon="15.8762317"><ele>1540.0</ele><time>2026-04-21T10:50:25.3Z</time></trkpt><trkpt lat="38.1013383" lon="15.876145"><ele>1539.0</ele><time>2026-04-21T10:50:26.3Z</time></trkpt><trkpt lat="38.1013133" lon="15.8760683"><ele>1538.0</ele><time>2026-04-21T10:50:27.3Z</time></trkpt><trkpt lat="38.1012783" lon="15.87599"><ele>1536.9999999999998</ele><time>2026-04-21T10:50:28.3Z</time></trkpt><trkpt lat="38.1012333" lon="15.8759167"><ele>1536.0</ele><time>2026-04-21T10:50:29.3Z</time></trkpt><trkpt lat="38.1011617" lon="15.8758217"><ele>1535.1999999999998</ele><time>2026-04-21T10:50:30.3Z</time></trkpt><trkpt lat="38.101065" lon="15.87571"><ele>1534.3999999999999</ele><time>2026-04-21T10:50:31.3Z</time></trkpt><trkpt lat="38.1009767" lon="15.87561"><ele>1533.6</ele><time>2026-04-21T10:50:32.3Z</time></trkpt><trkpt lat="38.1008983" lon="15.87553"><ele>1532.8</ele><time>2026-04-21T10:50:33.3Z</time></trkpt><trkpt lat="38.10082" lon="15.8754633"><ele>1532.0</ele><time>2026-04-21T10:50:34.3Z</time></trkpt><trkpt lat="38.10073" lon="15.8753767"><ele>1532.0</ele><time>2026-04-21T10:50:35.3Z</time></trkpt><trkpt lat="38.1006333" lon="15.875315"><ele>1532.0</ele><time>2026-04-21T10:50:36.3Z</time></trkpt><trkpt lat="38.1005417" lon="15.875255"><ele>1532.0</ele><time>2026-04-21T10:50:37.3Z</time></trkpt><trkpt lat="38.10045" lon="15.8752033"><ele>1532.0</ele><time>2026-04-21T10:50:38.3Z</time></trkpt><trkpt lat="38.1003567" lon="15.8751467"><ele>1532.0</ele><time>2026-04-21T10:50:39.3Z</time></trkpt><trkpt lat="38.10026" lon="15.8750917"><ele>1532.6</ele><time>2026-04-21T10:50:40.3Z</time></trkpt><trkpt lat="38.1001617" lon="15.8750417"><ele>1533.1999999999998</ele><time>2026-04-21T10:50:41.3Z</time></trkpt><trkpt lat="38.1000733" lon="15.8749883"><ele>1533.8</ele><time>2026-04-21T10:50:42.299Z</time></trkpt><trkpt lat="38.0999833" lon="15.8749267"><ele>1534.4</ele><time>2026-04-21T10:50:43.3Z</time></trkpt><trkpt lat="38.099885" lon="15.8748617"><ele>1535.0</ele><time>2026-04-21T10:50:44.3Z</time></trkpt><trkpt lat="38.099785" lon="15.874785"><ele>1536.4</ele><time>2026-04-21T10:50:45.3Z</time></trkpt><trkpt lat="38.0996917" lon="15.8747"><ele>1537.8</ele><time>2026-04-21T10:50:46.3Z</time></trkpt><trkpt lat="38.0996083" lon="15.874615"><ele>1539.1999999999998</ele><time>2026-04-21T10:50:47.3Z</time></trkpt><trkpt lat="38.0995333" lon="15.87452"><ele>1540.6</ele><time>2026-04-21T10:50:48.3Z</time></trkpt><trkpt lat="38.0994683" lon="15.87443"><ele>1542.0</ele><time>2026-04-21T10:50:49.3Z</time></trkpt><trkpt lat="38.099415" lon="15.8743333"><ele>1541.3999999999999</ele><time>2026-04-21T10:50:50.3Z</time></trkpt><trkpt lat="38.0993483" lon="15.874235"><ele>1540.8</ele><time>2026-04-21T10:50:51.3Z</time></trkpt><trkpt lat="38.0992683" lon="15.8741617"><ele>1540.2</ele><time>2026-04-21T10:50:52.3Z</time></trkpt><trkpt lat="38.0991767" lon="15.87411"><ele>1539.6</ele><time>2026-04-21T10:50:53.3Z</time></trkpt><trkpt lat="38.099085" lon="15.8740583"><ele>1539.0</ele><time>2026-04-21T10:50:54.299Z</time></trkpt><trkpt lat="38.0989933" lon="15.874045"><ele>1538.6666666666667</ele><time>2026-04-21T10:50:55.3Z</time></trkpt><trkpt lat="38.0989117" lon="15.8740467"><ele>1538.3333333333335</ele><time>2026-04-21T10:50:56.3Z</time></trkpt><trkpt lat="38.0988317" lon="15.874085"><ele>1538.0</ele><time>2026-04-21T10:50:57.3Z</time></trkpt><trkpt lat="38.09876" lon="15.8741217"><ele>1537.6666666666667</ele><time>2026-04-21T10:50:58.3Z</time></trkpt><trkpt lat="38.098695" lon="15.874135"><ele>1537.3333333333335</ele><time>2026-04-21T10:50:59.3Z</time></trkpt><trkpt lat="38.0986117" lon="15.8741167"><ele>1537.0</ele><time>2026-04-21T10:51:00.3Z</time></trkpt><trkpt lat="38.0985283" lon="15.8740683"><ele>1537.0</ele><time>2026-04-21T10:51:01.3Z</time></trkpt><trkpt lat="38.098445" lon="15.8740067"><ele>1537.0</ele><time>2026-04-21T10:51:02.3Z</time></trkpt><trkpt lat="38.0983633" lon="15.873935"><ele>1537.0</ele><time>2026-04-21T10:51:03.299Z</time></trkpt><trkpt lat="38.0982683" lon="15.8738833"><ele>1537.0</ele><time>2026-04-21T10:51:04.3Z</time></trkpt><trkpt lat="38.0981567" lon="15.873855"><ele>1537.0</ele><time>2026-04-21T10:51:05.3Z</time></trkpt><trkpt lat="38.0980417" lon="15.8738333"><ele>1536.0</ele><time>2026-04-21T10:51:06.3Z</time></trkpt><trkpt lat="38.0979433" lon="15.873815"><ele>1535.0</ele><time>2026-04-21T10:51:07.3Z</time></trkpt><trkpt lat="38.09784" lon="15.873795"><ele>1534.0</ele><time>2026-04-21T10:51:08.3Z</time></trkpt><trkpt lat="38.0977383" lon="15.873775"><ele>1533.0</ele><time>2026-04-21T10:51:09.3Z</time></trkpt><trkpt lat="38.09764" lon="15.873745"><ele>1532.0</ele><time>2026-04-21T10:51:10.3Z</time></trkpt><trkpt lat="38.0975617" lon="15.8737317"><ele>1532.0</ele><time>2026-04-21T10:51:11.3Z</time></trkpt><trkpt lat="38.0974683" lon="15.8737317"><ele>1532.0</ele><time>2026-04-21T10:51:12.3Z</time></trkpt><trkpt lat="38.0973733" lon="15.8737383"><ele>1532.0</ele><time>2026-04-21T10:51:13.3Z</time></trkpt><trkpt lat="38.0972817" lon="15.8737433"><ele>1532.0</ele><time>2026-04-21T10:51:14.3Z</time></trkpt><trkpt lat="38.0971983" lon="15.8737417"><ele>1532.0</ele><time>2026-04-21T10:51:15.3Z</time></trkpt><trkpt lat="38.0971167" lon="15.8737333"><ele>1532.0</ele><time>2026-04-21T10:51:16.3Z</time></trkpt><trkpt lat="38.0970333" lon="15.8737117"><ele>1531.1666666666667</ele><time>2026-04-21T10:51:17.3Z</time></trkpt><trkpt lat="38.09695" lon="15.87367"><ele>1530.3333333333335</ele><time>2026-04-21T10:51:18.3Z</time></trkpt><trkpt lat="38.096875" lon="15.873615"><ele>1529.5</ele><time>2026-04-21T10:51:19.3Z</time></trkpt><trkpt lat="38.0968033" lon="15.8735517"><ele>1528.6666666666667</ele><time>2026-04-21T10:51:20.3Z</time></trkpt><trkpt lat="38.0967533" lon="15.8734767"><ele>1527.8333333333333</ele><time>2026-04-21T10:51:21.3Z</time></trkpt><trkpt lat="38.096705" lon="15.8734067"><ele>1527.0</ele><time>2026-04-21T10:51:22.3Z</time></trkpt><trkpt lat="38.096665" lon="15.8733283"><ele>1527.0</ele><time>2026-04-21T10:51:23.3Z</time></trkpt><trkpt lat="38.096615" lon="15.87325"><ele>1527.0</ele><time>2026-04-21T10:51:24.299Z</time></trkpt><trkpt lat="38.09656" lon="15.8731717"><ele>1527.0</ele><time>2026-04-21T10:51:25.3Z</time></trkpt><trkpt lat="38.0965033" lon="15.87311"><ele>1527.0</ele><time>2026-04-21T10:51:26.3Z</time></trkpt><trkpt lat="38.0964367" lon="15.8730433"><ele>1527.0</ele><time>2026-04-21T10:51:27.3Z</time></trkpt><trkpt lat="38.09637" lon="15.8729833"><ele>1527.0</ele><time>2026-04-21T10:51:28.3Z</time></trkpt><trkpt lat="38.096305" lon="15.8729017"><ele>1526.6666666666667</ele><time>2026-04-21T10:51:29.3Z</time></trkpt><trkpt lat="38.09625" lon="15.8728167"><ele>1526.3333333333333</ele><time>2026-04-21T10:51:30.3Z</time></trkpt><trkpt lat="38.0962033" lon="15.8727217"><ele>1526.0</ele><time>2026-04-21T10:51:31.3Z</time></trkpt><trkpt lat="38.09617" lon="15.8726333"><ele>1525.6666666666665</ele><time>2026-04-21T10:51:32.3Z</time></trkpt><trkpt lat="38.096135" lon="15.8725483"><ele>1525.3333333333333</ele><time>2026-04-21T10:51:33.3Z</time></trkpt><trkpt lat="38.0960917" lon="15.8724633"><ele>1525.0</ele><time>2026-04-21T10:51:34.3Z</time></trkpt><trkpt lat="38.0960417" lon="15.8723817"><ele>1523.8</ele><time>2026-04-21T10:51:35.3Z</time></trkpt><trkpt lat="38.095985" lon="15.8722983"><ele>1522.6</ele><time>2026-04-21T10:51:36.3Z</time></trkpt><trkpt lat="38.095925" lon="15.8722117"><ele>1521.4</ele><time>2026-04-21T10:51:37.3Z</time></trkpt><trkpt lat="38.0958633" lon="15.872135"><ele>1520.2</ele><time>2026-04-21T10:51:38.3Z</time></trkpt><trkpt lat="38.0957967" lon="15.872065"><ele>1519.0</ele><time>2026-04-21T10:51:39.3Z</time></trkpt><trkpt lat="38.09572" lon="15.8719833"><ele>1518.0</ele><time>2026-04-21T10:51:40.3Z</time></trkpt><trkpt lat="38.09565" lon="15.871915"><ele>1517.0</ele><time>2026-04-21T10:51:41.3Z</time></trkpt><trkpt lat="38.0955917" lon="15.871855"><ele>1516.0</ele><time>2026-04-21T10:51:42.3Z</time></trkpt><trkpt lat="38.095545" lon="15.8717867"><ele>1515.0</ele><time>2026-04-21T10:51:43.3Z</time></trkpt><trkpt lat="38.0955167" lon="15.8717117"><ele>1514.0</ele><time>2026-04-21T10:51:44.3Z</time></trkpt><trkpt lat="38.0954967" lon="15.8716183"><ele>1513.0</ele><time>2026-04-21T10:51:45.3Z</time></trkpt><trkpt lat="38.0955067" lon="15.871525"><ele>1512.3333333333333</ele><time>2026-04-21T10:51:46.3Z</time></trkpt><trkpt lat="38.0955567" lon="15.87147"><ele>1511.6666666666665</ele><time>2026-04-21T10:51:47.3Z</time></trkpt><trkpt lat="38.0956417" lon="15.8714333"><ele>1511.0</ele><time>2026-04-21T10:51:48.3Z</time></trkpt><trkpt lat="38.095725" lon="15.87138"><ele>1510.3333333333333</ele><time>2026-04-21T10:51:49.3Z</time></trkpt><trkpt lat="38.09578" lon="15.8713067"><ele>1509.6666666666667</ele><time>2026-04-21T10:51:50.3Z</time></trkpt><trkpt lat="38.095815" lon="15.8712167"><ele>1509.0</ele><time>2026-04-21T10:51:51.299Z</time></trkpt><trkpt lat="38.09582" lon="15.871115"><ele>1509.0</ele><time>2026-04-21T10:51:52.3Z</time></trkpt><trkpt lat="38.09583" lon="15.87102"><ele>1509.0</ele><time>2026-04-21T10:51:53.299Z</time></trkpt><trkpt lat="38.0958417" lon="15.8709233"><ele>1509.0</ele><time>2026-04-21T10:51:54.3Z</time></trkpt><trkpt lat="38.0958483" lon="15.87083"><ele>1509.0</ele><time>2026-04-21T10:51:55.3Z</time></trkpt><trkpt lat="38.09585" lon="15.8707217"><ele>1509.0</ele><time>2026-04-21T10:51:56.3Z</time></trkpt><trkpt lat="38.0958533" lon="15.8706183"><ele>1509.0</ele><time>2026-04-21T10:51:57.3Z</time></trkpt><trkpt lat="38.0958583" lon="15.870525"><ele>1507.4</ele><time>2026-04-21T10:51:58.299Z</time></trkpt><trkpt lat="38.0958633" lon="15.870435"><ele>1505.8000000000002</ele><time>2026-04-21T10:51:59.3Z</time></trkpt><trkpt lat="38.09586" lon="15.8703517"><ele>1504.1999999999998</ele><time>2026-04-21T10:52:00.3Z</time></trkpt><trkpt lat="38.095845" lon="15.8702317"><ele>1502.6</ele><time>2026-04-21T10:52:02.3Z</time></trkpt><trkpt lat="38.0957683" lon="15.870165"><ele>1501.0</ele><time>2026-04-21T10:52:04.299Z</time></trkpt><trkpt lat="38.0956367" lon="15.8701783"><ele>1498.8333333333333</ele><time>2026-04-21T10:52:06.299Z</time></trkpt><trkpt lat="38.0955583" lon="15.8702"><ele>1496.6666666666665</ele><time>2026-04-21T10:52:07.3Z</time></trkpt><trkpt lat="38.0954917" lon="15.8702333"><ele>1494.5</ele><time>2026-04-21T10:52:08.3Z</time></trkpt><trkpt lat="38.095425" lon="15.8702567"><ele>1492.3333333333333</ele><time>2026-04-21T10:52:09.3Z</time></trkpt><trkpt lat="38.095335" lon="15.8702533"><ele>1490.1666666666667</ele><time>2026-04-21T10:52:11.3Z</time></trkpt><trkpt lat="38.0952917" lon="15.8701933"><ele>1488.0</ele><time>2026-04-21T10:52:13.299Z</time></trkpt><trkpt lat="38.095315" lon="15.870095"><ele>1487.0</ele><time>2026-04-21T10:52:15.3Z</time></trkpt><trkpt lat="38.0953483" lon="15.869985"><ele>1486.0</ele><time>2026-04-21T10:52:17.3Z</time></trkpt><trkpt lat="38.0953767" lon="15.8698633"><ele>1485.0</ele><time>2026-04-21T10:52:19.3Z</time></trkpt><trkpt lat="38.095405" lon="15.869745"><ele>1484.0</ele><time>2026-04-21T10:52:21.3Z</time></trkpt><trkpt lat="38.0954" lon="15.8696533"><ele>1483.0</ele><time>2026-04-21T10:52:23.3Z</time></trkpt><trkpt lat="38.0953417" lon="15.8695867"><ele>1482.0</ele><time>2026-04-21T10:52:25.3Z</time></trkpt><trkpt lat="38.09526" lon="15.8695617"><ele>1482.0</ele><time>2026-04-21T10:52:27.3Z</time></trkpt><trkpt lat="38.0951567" lon="15.86957"><ele>1482.0</ele><time>2026-04-21T10:52:29.3Z</time></trkpt><trkpt lat="38.095025" lon="15.8695867"><ele>1482.0</ele><time>2026-04-21T10:52:31.3Z</time></trkpt><trkpt lat="38.094945" lon="15.8695783"><ele>1482.0</ele><time>2026-04-21T10:52:32.299Z</time></trkpt><trkpt lat="38.0948633" lon="15.86957"><ele>1482.0</ele><time>2026-04-21T10:52:33.3Z</time></trkpt><trkpt lat="38.0947817" lon="15.8695583"><ele>1480.0</ele><time>2026-04-21T10:52:34.3Z</time></trkpt><trkpt lat="38.0947" lon="15.8695283"><ele>1478.0</ele><time>2026-04-21T10:52:35.3Z</time></trkpt><trkpt lat="38.0946067" lon="15.8694833"><ele>1476.0</ele><time>2026-04-21T10:52:36.3Z</time></trkpt><trkpt lat="38.094515" lon="15.8694383"><ele>1474.0</ele><time>2026-04-21T10:52:37.3Z</time></trkpt><trkpt lat="38.0944267" lon="15.8693817"><ele>1472.0</ele><time>2026-04-21T10:52:38.3Z</time></trkpt><trkpt lat="38.094345" lon="15.86933"><ele>1472.0</ele><time>2026-04-21T10:52:39.3Z</time></trkpt><trkpt lat="38.0942717" lon="15.8692817"><ele>1472.0</ele><time>2026-04-21T10:52:40.3Z</time></trkpt><trkpt lat="38.0941933" lon="15.8692367"><ele>1472.0</ele><time>2026-04-21T10:52:41.3Z</time></trkpt><trkpt lat="38.094115" lon="15.869205"><ele>1472.0</ele><time>2026-04-21T10:52:42.3Z</time></trkpt><trkpt lat="38.0940333" lon="15.8691867"><ele>1472.0</ele><time>2026-04-21T10:52:43.3Z</time></trkpt><trkpt lat="38.0939467" lon="15.869185"><ele>1472.0</ele><time>2026-04-21T10:52:44.3Z</time></trkpt><trkpt lat="38.093865" lon="15.869185"><ele>1471.0</ele><time>2026-04-21T10:52:45.3Z</time></trkpt><trkpt lat="38.09379" lon="15.8691817"><ele>1470.0</ele><time>2026-04-21T10:52:46.3Z</time></trkpt><trkpt lat="38.09372" lon="15.8691833"><ele>1469.0</ele><time>2026-04-21T10:52:47.3Z</time></trkpt><trkpt lat="38.093655" lon="15.8691917"><ele>1468.0</ele><time>2026-04-21T10:52:48.3Z</time></trkpt><trkpt lat="38.0935883" lon="15.869215"><ele>1467.0</ele><time>2026-04-21T10:52:49.3Z</time></trkpt><trkpt lat="38.0935233" lon="15.8692417"><ele>1466.0</ele><time>2026-04-21T10:52:50.3Z</time></trkpt><trkpt lat="38.0934583" lon="15.8692783"><ele>1465.0</ele><time>2026-04-21T10:52:51.3Z</time></trkpt><trkpt lat="38.0933933" lon="15.8693033"><ele>1463.5</ele><time>2026-04-21T10:52:52.3Z</time></trkpt><trkpt lat="38.0933233" lon="15.8693183"><ele>1462.0</ele><time>2026-04-21T10:52:53.3Z</time></trkpt><trkpt lat="38.0932317" lon="15.8693167"><ele>1460.5</ele><time>2026-04-21T10:52:55.3Z</time></trkpt><trkpt lat="38.0931667" lon="15.869245"><ele>1459.0</ele><time>2026-04-21T10:52:58.3Z</time></trkpt><trkpt lat="38.093105" lon="15.8691717"><ele>1457.5</ele><time>2026-04-21T10:53:01.3Z</time></trkpt><trkpt lat="38.0930417" lon="15.869165"><ele>1456.0</ele><time>2026-04-21T10:53:03.3Z</time></trkpt><trkpt lat="38.092945" lon="15.8691967"><ele>1456.0</ele><time>2026-04-21T10:53:05.299Z</time></trkpt><trkpt lat="38.0928317" lon="15.869275"><ele>1456.0</ele><time>2026-04-21T10:53:07.3Z</time></trkpt><trkpt lat="38.0927733" lon="15.86932"><ele>1456.0</ele><time>2026-04-21T10:53:08.3Z</time></trkpt><trkpt lat="38.0927167" lon="15.8693767"><ele>1456.0</ele><time>2026-04-21T10:53:09.3Z</time></trkpt><trkpt lat="38.09266" lon="15.869435"><ele>1456.0</ele><time>2026-04-21T10:53:10.3Z</time></trkpt><trkpt lat="38.09261" lon="15.8694983"><ele>1456.0</ele><time>2026-04-21T10:53:11.3Z</time></trkpt><trkpt lat="38.0925633" lon="15.8695617"><ele>1454.6</ele><time>2026-04-21T10:53:12.3Z</time></trkpt><trkpt lat="38.0924883" lon="15.8696767"><ele>1453.1999999999998</ele><time>2026-04-21T10:53:14.3Z</time></trkpt><trkpt lat="38.0924267" lon="15.8697817"><ele>1451.8000000000002</ele><time>2026-04-21T10:53:16.3Z</time></trkpt><trkpt lat="38.09237" lon="15.8698467"><ele>1450.4</ele><time>2026-04-21T10:53:17.3Z</time></trkpt><trkpt lat="38.09228" lon="15.8699517"><ele>1449.0</ele><time>2026-04-21T10:53:19.3Z</time></trkpt><trkpt lat="38.0921883" lon="15.870035"><ele>1443.8000000000002</ele><time>2026-04-21T10:53:21.3Z</time></trkpt><trkpt lat="38.0921" lon="15.8701167"><ele>1438.6000000000001</ele><time>2026-04-21T10:53:23.3Z</time></trkpt><trkpt lat="38.0920567" lon="15.870175"><ele>1433.4</ele><time>2026-04-21T10:53:24.3Z</time></trkpt><trkpt lat="38.09198" lon="15.870285"><ele>1428.2</ele><time>2026-04-21T10:53:26.3Z</time></trkpt><trkpt lat="38.0918817" lon="15.8703717"><ele>1423.0</ele><time>2026-04-21T10:53:28.3Z</time></trkpt><trkpt lat="38.0917833" lon="15.8703833"><ele>1423.0</ele><time>2026-04-21T10:53:30.299Z</time></trkpt><trkpt lat="38.0916833" lon="15.870345"><ele>1423.0</ele><time>2026-04-21T10:53:32.3Z</time></trkpt><trkpt lat="38.0916167" lon="15.8702633"><ele>1423.0</ele><time>2026-04-21T10:53:34.3Z</time></trkpt><trkpt lat="38.091545" lon="15.8701633"><ele>1423.0</ele><time>2026-04-21T10:53:36.3Z</time></trkpt><trkpt lat="38.0914783" lon="15.870105"><ele>1423.0</ele><time>2026-04-21T10:53:38.3Z</time></trkpt><trkpt lat="38.0914183" lon="15.87008"><ele>1423.0</ele><time>2026-04-21T10:53:40.299Z</time></trkpt><trkpt lat="38.0913367" lon="15.8701"><ele>1419.8000000000002</ele><time>2026-04-21T10:53:42.3Z</time></trkpt><trkpt lat="38.0912367" lon="15.8701417"><ele>1416.6</ele><time>2026-04-21T10:53:44.3Z</time></trkpt><trkpt lat="38.0911717" lon="15.870185"><ele>1413.4</ele><time>2026-04-21T10:53:45.3Z</time></trkpt><trkpt lat="38.0910683" lon="15.8702683"><ele>1410.1999999999998</ele><time>2026-04-21T10:53:46.3Z</time></trkpt><trkpt lat="38.0909533" lon="15.8703867"><ele>1407.0</ele><time>2026-04-21T10:53:47.3Z</time></trkpt><trkpt lat="38.0908567" lon="15.8705017"><ele>1407.0</ele><time>2026-04-21T10:53:48.3Z</time></trkpt><trkpt lat="38.0907717" lon="15.8706033"><ele>1407.0</ele><time>2026-04-21T10:53:49.3Z</time></trkpt><trkpt lat="38.0907" lon="15.8706717"><ele>1407.0</ele><time>2026-04-21T10:53:50.299Z</time></trkpt><trkpt lat="38.0906417" lon="15.870725"><ele>1407.0</ele><time>2026-04-21T10:53:51.3Z</time></trkpt><trkpt lat="38.09058" lon="15.8707533"><ele>1407.0</ele><time>2026-04-21T10:53:53.3Z</time></trkpt><trkpt lat="38.0905717" lon="15.870665"><ele>1407.0</ele><time>2026-04-21T10:54:10.3Z</time></trkpt><trkpt lat="38.0905533" lon="15.87058"><ele>1406.0</ele><time>2026-04-21T10:54:12.3Z</time></trkpt><trkpt lat="38.0905217" lon="15.87048"><ele>1405.0</ele><time>2026-04-21T10:54:14.299Z</time></trkpt><trkpt lat="38.0904967" lon="15.8703767"><ele>1404.0</ele><time>2026-04-21T10:54:16.299Z</time></trkpt><trkpt lat="38.0904717" lon="15.870235"><ele>1403.0</ele><time>2026-04-21T10:54:18.3Z</time></trkpt><trkpt lat="38.0904633" lon="15.8701533"><ele>1402.0</ele><time>2026-04-21T10:54:19.3Z</time></trkpt><trkpt lat="38.0904583" lon="15.8700583"><ele>1401.0</ele><time>2026-04-21T10:54:20.3Z</time></trkpt><trkpt lat="38.0904533" lon="15.8699583"><ele>1400.1666666666667</ele><time>2026-04-21T10:54:21.3Z</time></trkpt><trkpt lat="38.09045" lon="15.8698333"><ele>1399.3333333333333</ele><time>2026-04-21T10:54:22.3Z</time></trkpt><trkpt lat="38.0904467" lon="15.8697083"><ele>1398.5</ele><time>2026-04-21T10:54:23.3Z</time></trkpt><trkpt lat="38.0904433" lon="15.8695933"><ele>1397.6666666666665</ele><time>2026-04-21T10:54:24.3Z</time></trkpt><trkpt lat="38.0904483" lon="15.869495"><ele>1396.8333333333333</ele><time>2026-04-21T10:54:25.3Z</time></trkpt><trkpt lat="38.09046" lon="15.869405"><ele>1396.0</ele><time>2026-04-21T10:54:26.3Z</time></trkpt><trkpt lat="38.0904667" lon="15.869295"><ele>1395.0</ele><time>2026-04-21T10:54:27.3Z</time></trkpt><trkpt lat="38.0904817" lon="15.8691917"><ele>1394.0</ele><time>2026-04-21T10:54:28.299Z</time></trkpt><trkpt lat="38.0905" lon="15.869095"><ele>1393.0</ele><time>2026-04-21T10:54:29.3Z</time></trkpt><trkpt lat="38.0905167" lon="15.86901"><ele>1392.0</ele><time>2026-04-21T10:54:30.3Z</time></trkpt><trkpt lat="38.0905317" lon="15.868875"><ele>1391.0</ele><time>2026-04-21T10:54:32.3Z</time></trkpt><trkpt lat="38.0905133" lon="15.8687633"><ele>1390.0</ele><time>2026-04-21T10:54:34.3Z</time></trkpt><trkpt lat="38.0904467" lon="15.8686533"><ele>1390.0</ele><time>2026-04-21T10:54:36.3Z</time></trkpt><trkpt lat="38.0903933" lon="15.868595"><ele>1390.0</ele><time>2026-04-21T10:54:37.3Z</time></trkpt><trkpt lat="38.09033" lon="15.86853"><ele>1390.0</ele><time>2026-04-21T10:54:38.3Z</time></trkpt><trkpt lat="38.09027" lon="15.868465"><ele>1390.0</ele><time>2026-04-21T10:54:39.3Z</time></trkpt><trkpt lat="38.0902133" lon="15.8683967"><ele>1390.0</ele><time>2026-04-21T10:54:40.3Z</time></trkpt><trkpt lat="38.0901533" lon="15.8683317"><ele>1390.0</ele><time>2026-04-21T10:54:41.3Z</time></trkpt><trkpt lat="38.09009" lon="15.868265"><ele>1390.4285714285716</ele><time>2026-04-21T10:54:42.299Z</time></trkpt><trkpt lat="38.0900217" lon="15.868195"><ele>1390.857142857143</ele><time>2026-04-21T10:54:43.3Z</time></trkpt><trkpt lat="38.0899567" lon="15.8681267"><ele>1391.2857142857142</ele><time>2026-04-21T10:54:44.3Z</time></trkpt><trkpt lat="38.0898983" lon="15.86806"><ele>1391.7142857142858</ele><time>2026-04-21T10:54:45.3Z</time></trkpt><trkpt lat="38.0898417" lon="15.8680083"><ele>1392.142857142857</ele><time>2026-04-21T10:54:46.3Z</time></trkpt><trkpt lat="38.0897917" lon="15.867955"><ele>1392.5714285714287</ele><time>2026-04-21T10:54:47.3Z</time></trkpt><trkpt lat="38.0897367" lon="15.867915"><ele>1393.0</ele><time>2026-04-21T10:54:48.299Z</time></trkpt><trkpt lat="38.0896767" lon="15.8678683"><ele>1392.0</ele><time>2026-04-21T10:54:49.3Z</time></trkpt><trkpt lat="38.08961" lon="15.8678117"><ele>1391.0</ele><time>2026-04-21T10:54:50.3Z</time></trkpt><trkpt lat="38.089545" lon="15.8677533"><ele>1390.0</ele><time>2026-04-21T10:54:51.3Z</time></trkpt><trkpt lat="38.0894733" lon="15.8676967"><ele>1389.0</ele><time>2026-04-21T10:54:52.3Z</time></trkpt><trkpt lat="38.0894117" lon="15.8676483"><ele>1388.0</ele><time>2026-04-21T10:54:53.3Z</time></trkpt><trkpt lat="38.089355" lon="15.8676067"><ele>1387.0</ele><time>2026-04-21T10:54:54.3Z</time></trkpt><trkpt lat="38.0892517" lon="15.8675283"><ele>1387.0</ele><time>2026-04-21T10:54:56.3Z</time></trkpt><trkpt lat="38.08913" lon="15.867445"><ele>1387.0</ele><time>2026-04-21T10:54:58.3Z</time></trkpt><trkpt lat="38.089055" lon="15.8673933"><ele>1387.0</ele><time>2026-04-21T10:54:59.3Z</time></trkpt><trkpt lat="38.088975" lon="15.8673333"><ele>1387.0</ele><time>2026-04-21T10:55:00.3Z</time></trkpt><trkpt lat="38.0888917" lon="15.8672783"><ele>1387.0</ele><time>2026-04-21T10:55:01.3Z</time></trkpt><trkpt lat="38.0888067" lon="15.8672333"><ele>1387.1999999999998</ele><time>2026-04-21T10:55:02.3Z</time></trkpt><trkpt lat="38.08871" lon="15.8671967"><ele>1387.4</ele><time>2026-04-21T10:55:03.3Z</time></trkpt><trkpt lat="38.0886083" lon="15.867175"><ele>1387.6</ele><time>2026-04-21T10:55:04.3Z</time></trkpt><trkpt lat="38.0885033" lon="15.8671667"><ele>1387.8000000000002</ele><time>2026-04-21T10:55:05.3Z</time></trkpt><trkpt lat="38.0883883" lon="15.867145"><ele>1388.0</ele><time>2026-04-21T10:55:06.3Z</time></trkpt><trkpt lat="38.0882683" lon="15.8670967"><ele>1388.0</ele><time>2026-04-21T10:55:07.3Z</time></trkpt><trkpt lat="38.0881567" lon="15.8670417"><ele>1388.0</ele><time>2026-04-21T10:55:08.3Z</time></trkpt><trkpt lat="38.08807" lon="15.86698"><ele>1388.0</ele><time>2026-04-21T10:55:09.3Z</time></trkpt><trkpt lat="38.0879933" lon="15.8669183"><ele>1388.0</ele><time>2026-04-21T10:55:10.3Z</time></trkpt><trkpt lat="38.0879333" lon="15.86684"><ele>1388.0</ele><time>2026-04-21T10:55:11.3Z</time></trkpt><trkpt lat="38.0878867" lon="15.8667567"><ele>1388.0</ele><time>2026-04-21T10:55:12.3Z</time></trkpt><trkpt lat="38.0878633" lon="15.8666567"><ele>1388.0</ele><time>2026-04-21T10:55:13.3Z</time></trkpt><trkpt lat="38.08785" lon="15.8665533"><ele>1388.0</ele><time>2026-04-21T10:55:14.3Z</time></trkpt><trkpt lat="38.0878433" lon="15.86645"><ele>1388.0</ele><time>2026-04-21T10:55:15.3Z</time></trkpt><trkpt lat="38.08785" lon="15.8663433"><ele>1388.0</ele><time>2026-04-21T10:55:16.3Z</time></trkpt><trkpt lat="38.087845" lon="15.8662567"><ele>1388.0</ele><time>2026-04-21T10:55:17.3Z</time></trkpt><trkpt lat="38.0878517" lon="15.8661617"><ele>1388.0</ele><time>2026-04-21T10:55:18.299Z</time></trkpt><trkpt lat="38.0878467" lon="15.8660683"><ele>1388.0</ele><time>2026-04-21T10:55:19.3Z</time></trkpt><trkpt lat="38.0878283" lon="15.8659733"><ele>1388.0</ele><time>2026-04-21T10:55:20.299Z</time></trkpt><trkpt lat="38.0877983" lon="15.8658767"><ele>1388.0</ele><time>2026-04-21T10:55:21.3Z</time></trkpt><trkpt lat="38.0877667" lon="15.8657833"><ele>1388.0</ele><time>2026-04-21T10:55:22.3Z</time></trkpt><trkpt lat="38.0877367" lon="15.8656933"><ele>1388.0</ele><time>2026-04-21T10:55:23.3Z</time></trkpt><trkpt lat="38.0876967" lon="15.86553"><ele>1388.0</ele><time>2026-04-21T10:55:25.3Z</time></trkpt><trkpt lat="38.0876867" lon="15.865435"><ele>1388.0</ele><time>2026-04-21T10:55:26.3Z</time></trkpt><trkpt lat="38.0876883" lon="15.865335"><ele>1388.0</ele><time>2026-04-21T10:55:27.3Z</time></trkpt><trkpt lat="38.0877033" lon="15.8652267"><ele>1388.0</ele><time>2026-04-21T10:55:28.3Z</time></trkpt><trkpt lat="38.0877183" lon="15.865125"><ele>1388.0</ele><time>2026-04-21T10:55:29.3Z</time></trkpt><trkpt lat="38.0877333" lon="15.8650267"><ele>1388.0</ele><time>2026-04-21T10:55:30.3Z</time></trkpt><trkpt lat="38.0877517" lon="15.8649317"><ele>1388.8333333333335</ele><time>2026-04-21T10:55:31.3Z</time></trkpt><trkpt lat="38.08777" lon="15.8648433"><ele>1389.6666666666667</ele><time>2026-04-21T10:55:32.299Z</time></trkpt><trkpt lat="38.0877967" lon="15.8647533"><ele>1390.5</ele><time>2026-04-21T10:55:33.3Z</time></trkpt><trkpt lat="38.0878217" lon="15.8646583"><ele>1391.3333333333333</ele><time>2026-04-21T10:55:34.3Z</time></trkpt><trkpt lat="38.08785" lon="15.8645667"><ele>1392.1666666666665</ele><time>2026-04-21T10:55:35.3Z</time></trkpt><trkpt lat="38.0878817" lon="15.864475"><ele>1393.0</ele><time>2026-04-21T10:55:36.3Z</time></trkpt><trkpt lat="38.0879017" lon="15.8643933"><ele>1393.0</ele><time>2026-04-21T10:55:37.3Z</time></trkpt><trkpt lat="38.08791" lon="15.8643083"><ele>1393.0</ele><time>2026-04-21T10:55:38.3Z</time></trkpt><trkpt lat="38.0879" lon="15.8641617"><ele>1393.0</ele><time>2026-04-21T10:55:40.3Z</time></trkpt><trkpt lat="38.0878817" lon="15.8640683"><ele>1393.0</ele><time>2026-04-21T10:55:41.3Z</time></trkpt><trkpt lat="38.0878483" lon="15.86397"><ele>1393.0</ele><time>2026-04-21T10:55:42.3Z</time></trkpt><trkpt lat="38.0877917" lon="15.8638583"><ele>1393.0</ele><time>2026-04-21T10:55:43.299Z</time></trkpt><trkpt lat="38.0877267" lon="15.8637483"><ele>1394.4</ele><time>2026-04-21T10:55:44.3Z</time></trkpt><trkpt lat="38.0876667" lon="15.8636417"><ele>1395.8000000000002</ele><time>2026-04-21T10:55:45.299Z</time></trkpt><trkpt lat="38.0876067" lon="15.863535"><ele>1397.2</ele><time>2026-04-21T10:55:46.3Z</time></trkpt><trkpt lat="38.08754" lon="15.86344"><ele>1398.6</ele><time>2026-04-21T10:55:47.3Z</time></trkpt><trkpt lat="38.087465" lon="15.8633517"><ele>1400.0</ele><time>2026-04-21T10:55:48.3Z</time></trkpt><trkpt lat="38.0873817" lon="15.8632583"><ele>1401.8</ele><time>2026-04-21T10:55:49.299Z</time></trkpt><trkpt lat="38.087295" lon="15.8631717"><ele>1403.6</ele><time>2026-04-21T10:55:50.299Z</time></trkpt><trkpt lat="38.087215" lon="15.8630967"><ele>1405.4</ele><time>2026-04-21T10:55:51.3Z</time></trkpt><trkpt lat="38.0871317" lon="15.863035"><ele>1407.2</ele><time>2026-04-21T10:55:52.3Z</time></trkpt><trkpt lat="38.0870467" lon="15.8629683"><ele>1409.0</ele><time>2026-04-21T10:55:53.3Z</time></trkpt><trkpt lat="38.0869533" lon="15.862915"><ele>1409.0</ele><time>2026-04-21T10:55:54.3Z</time></trkpt><trkpt lat="38.0868583" lon="15.8628667"><ele>1409.0</ele><time>2026-04-21T10:55:55.299Z</time></trkpt><trkpt lat="38.0867667" lon="15.86282"><ele>1409.0</ele><time>2026-04-21T10:55:56.3Z</time></trkpt><trkpt lat="38.0866667" lon="15.86277"><ele>1409.0</ele><time>2026-04-21T10:55:57.3Z</time></trkpt><trkpt lat="38.0865633" lon="15.8627133"><ele>1409.0</ele><time>2026-04-21T10:55:58.299Z</time></trkpt><trkpt lat="38.0864617" lon="15.8626533"><ele>1409.6</ele><time>2026-04-21T10:55:59.3Z</time></trkpt><trkpt lat="38.0863633" lon="15.862595"><ele>1410.2</ele><time>2026-04-21T10:56:00.3Z</time></trkpt><trkpt lat="38.0862717" lon="15.86253"><ele>1410.8</ele><time>2026-04-21T10:56:01.299Z</time></trkpt><trkpt lat="38.0861833" lon="15.8624617"><ele>1411.3999999999999</ele><time>2026-04-21T10:56:02.3Z</time></trkpt><trkpt lat="38.0861" lon="15.86239"><ele>1412.0</ele><time>2026-04-21T10:56:03.3Z</time></trkpt><trkpt lat="38.0860167" lon="15.8623133"><ele>1412.0</ele><time>2026-04-21T10:56:04.3Z</time></trkpt><trkpt lat="38.08594" lon="15.8622333"><ele>1412.0</ele><time>2026-04-21T10:56:05.299Z</time></trkpt><trkpt lat="38.0858667" lon="15.8621517"><ele>1412.0</ele><time>2026-04-21T10:56:06.3Z</time></trkpt><trkpt lat="38.0857983" lon="15.8620617"><ele>1412.0</ele><time>2026-04-21T10:56:07.3Z</time></trkpt><trkpt lat="38.085735" lon="15.8619733"><ele>1412.0</ele><time>2026-04-21T10:56:08.3Z</time></trkpt><trkpt lat="38.0856783" lon="15.8618817"><ele>1411.8</ele><time>2026-04-21T10:56:09.3Z</time></trkpt><trkpt lat="38.0856283" lon="15.8617933"><ele>1411.6</ele><time>2026-04-21T10:56:10.3Z</time></trkpt><trkpt lat="38.085585" lon="15.8616883"><ele>1411.3999999999999</ele><time>2026-04-21T10:56:11.3Z</time></trkpt><trkpt lat="38.0855517" lon="15.8615733"><ele>1411.1999999999998</ele><time>2026-04-21T10:56:12.3Z</time></trkpt><trkpt lat="38.0855367" lon="15.86146"><ele>1411.0</ele><time>2026-04-21T10:56:13.3Z</time></trkpt><trkpt lat="38.0855267" lon="15.8613467"><ele>1411.0</ele><time>2026-04-21T10:56:14.3Z</time></trkpt><trkpt lat="38.0855217" lon="15.8612317"><ele>1411.0</ele><time>2026-04-21T10:56:15.299Z</time></trkpt><trkpt lat="38.0855133" lon="15.8611167"><ele>1411.0</ele><time>2026-04-21T10:56:16.3Z</time></trkpt><trkpt lat="38.0854983" lon="15.861"><ele>1411.0</ele><time>2026-04-21T10:56:17.3Z</time></trkpt><trkpt lat="38.0854683" lon="15.8608733"><ele>1411.0</ele><time>2026-04-21T10:56:18.3Z</time></trkpt><trkpt lat="38.0854317" lon="15.8607567"><ele>1411.7142857142858</ele><time>2026-04-21T10:56:19.3Z</time></trkpt><trkpt lat="38.08539" lon="15.8606567"><ele>1412.4285714285716</ele><time>2026-04-21T10:56:20.3Z</time></trkpt><trkpt lat="38.0853517" lon="15.86057"><ele>1413.1428571428573</ele><time>2026-04-21T10:56:21.3Z</time></trkpt><trkpt lat="38.0853083" lon="15.8604883"><ele>1413.857142857143</ele><time>2026-04-21T10:56:22.3Z</time></trkpt><trkpt lat="38.08526" lon="15.8604317"><ele>1414.5714285714284</ele><time>2026-04-21T10:56:23.3Z</time></trkpt><trkpt lat="38.0852083" lon="15.8603817"><ele>1415.2857142857144</ele><time>2026-04-21T10:56:24.3Z</time></trkpt><trkpt lat="38.08516" lon="15.86033"><ele>1416.0</ele><time>2026-04-21T10:56:25.3Z</time></trkpt><trkpt lat="38.0851067" lon="15.8602717"><ele>1416.0</ele><time>2026-04-21T10:56:26.299Z</time></trkpt><trkpt lat="38.0850483" lon="15.860205"><ele>1416.0</ele><time>2026-04-21T10:56:27.3Z</time></trkpt><trkpt lat="38.0849883" lon="15.8601367"><ele>1416.0</ele><time>2026-04-21T10:56:28.3Z</time></trkpt><trkpt lat="38.0849267" lon="15.860075"><ele>1416.0</ele><time>2026-04-21T10:56:29.3Z</time></trkpt><trkpt lat="38.0848683" lon="15.8600167"><ele>1416.0</ele><time>2026-04-21T10:56:30.3Z</time></trkpt><trkpt lat="38.0848217" lon="15.8599583"><ele>1416.0</ele><time>2026-04-21T10:56:31.3Z</time></trkpt><trkpt lat="38.08478" lon="15.85989"><ele>1416.0</ele><time>2026-04-21T10:56:32.3Z</time></trkpt><trkpt lat="38.0847417" lon="15.8598233"><ele>1416.4</ele><time>2026-04-21T10:56:33.3Z</time></trkpt><trkpt lat="38.0846633" lon="15.859745"><ele>1416.8</ele><time>2026-04-21T10:56:35.299Z</time></trkpt><trkpt lat="38.0845783" lon="15.8597733"><ele>1417.2</ele><time>2026-04-21T10:56:37.299Z</time></trkpt><trkpt lat="38.08448" lon="15.8598917"><ele>1417.6000000000001</ele><time>2026-04-21T10:56:39.3Z</time></trkpt><trkpt lat="38.08442" lon="15.859965"><ele>1418.0</ele><time>2026-04-21T10:56:40.3Z</time></trkpt><trkpt lat="38.0843533" lon="15.860025"><ele>1418.0</ele><time>2026-04-21T10:56:41.299Z</time></trkpt><trkpt lat="38.084295" lon="15.8600733"><ele>1418.0</ele><time>2026-04-21T10:56:42.3Z</time></trkpt><trkpt lat="38.0842317" lon="15.8601167"><ele>1418.0</ele><time>2026-04-21T10:56:43.3Z</time></trkpt><trkpt lat="38.0841583" lon="15.86017"><ele>1418.0</ele><time>2026-04-21T10:56:44.3Z</time></trkpt><trkpt lat="38.0840833" lon="15.860215"><ele>1418.0</ele><time>2026-04-21T10:56:45.3Z</time></trkpt><trkpt lat="38.0840067" lon="15.8602433"><ele>1418.0</ele><time>2026-04-21T10:56:46.3Z</time></trkpt><trkpt lat="38.0839333" lon="15.8602617"><ele>1418.0</ele><time>2026-04-21T10:56:47.3Z</time></trkpt><trkpt lat="38.0838217" lon="15.860235"><ele>1418.0</ele><time>2026-04-21T10:56:49.3Z</time></trkpt><trkpt lat="38.083715" lon="15.8601583"><ele>1418.0</ele><time>2026-04-21T10:56:51.3Z</time></trkpt><trkpt lat="38.0836217" lon="15.8600867"><ele>1418.0</ele><time>2026-04-21T10:56:53.299Z</time></trkpt><trkpt lat="38.0835517" lon="15.86"><ele>1418.0</ele><time>2026-04-21T10:56:55.3Z</time></trkpt><trkpt lat="38.0835067" lon="15.8599233"><ele>1418.0</ele><time>2026-04-21T10:56:57.3Z</time></trkpt><trkpt lat="38.0834233" lon="15.8598833"><ele>1418.0</ele><time>2026-04-21T10:57:00.3Z</time></trkpt><trkpt lat="38.0833433" lon="15.8599017"><ele>1418.0</ele><time>2026-04-21T10:57:02.299Z</time></trkpt><trkpt lat="38.0832317" lon="15.8599533"><ele>1418.0</ele><time>2026-04-21T10:57:04.3Z</time></trkpt><trkpt lat="38.0831683" lon="15.8599833"><ele>1418.0</ele><time>2026-04-21T10:57:05.299Z</time></trkpt><trkpt lat="38.083105" lon="15.8600067"><ele>1418.0</ele><time>2026-04-21T10:57:06.3Z</time></trkpt><trkpt lat="38.0830383" lon="15.8600383"><ele>1416.6666666666667</ele><time>2026-04-21T10:57:07.3Z</time></trkpt><trkpt lat="38.0829733" lon="15.8600633"><ele>1415.3333333333335</ele><time>2026-04-21T10:57:08.3Z</time></trkpt><trkpt lat="38.0829067" lon="15.86009"><ele>1414.0</ele><time>2026-04-21T10:57:09.3Z</time></trkpt><trkpt lat="38.0828383" lon="15.860115"><ele>1412.6666666666667</ele><time>2026-04-21T10:57:10.3Z</time></trkpt><trkpt lat="38.0827667" lon="15.8601467"><ele>1411.3333333333333</ele><time>2026-04-21T10:57:11.3Z</time></trkpt><trkpt lat="38.0827017" lon="15.8601817"><ele>1410.0</ele><time>2026-04-21T10:57:12.3Z</time></trkpt><trkpt lat="38.0826017" lon="15.8602383"><ele>1408.6666666666667</ele><time>2026-04-21T10:57:14.3Z</time></trkpt><trkpt lat="38.0825183" lon="15.86028"><ele>1407.3333333333333</ele><time>2026-04-21T10:57:16.3Z</time></trkpt><trkpt lat="38.0824567" lon="15.8603267"><ele>1406.0</ele><time>2026-04-21T10:57:18.3Z</time></trkpt><trkpt lat="38.0823617" lon="15.8604017"><ele>1404.6666666666665</ele><time>2026-04-21T10:57:29.3Z</time></trkpt><trkpt lat="38.08228" lon="15.860445"><ele>1403.3333333333333</ele><time>2026-04-21T10:57:31.3Z</time></trkpt><trkpt lat="38.0822217" lon="15.8604883"><ele>1402.0</ele><time>2026-04-21T10:57:32.3Z</time></trkpt><trkpt lat="38.0821583" lon="15.8605217"><ele>1402.0</ele><time>2026-04-21T10:57:33.3Z</time></trkpt><trkpt lat="38.0820983" lon="15.8605617"><ele>1402.0</ele><time>2026-04-21T10:57:34.3Z</time></trkpt><trkpt lat="38.0820383" lon="15.860595"><ele>1402.0</ele><time>2026-04-21T10:57:35.3Z</time></trkpt><trkpt lat="38.081935" lon="15.8606467"><ele>1402.0</ele><time>2026-04-21T10:57:37.3Z</time></trkpt><trkpt lat="38.0818233" lon="15.8607017"><ele>1402.0</ele><time>2026-04-21T10:57:39.3Z</time></trkpt><trkpt lat="38.0817167" lon="15.860765"><ele>1402.0</ele><time>2026-04-21T10:57:41.3Z</time></trkpt><trkpt lat="38.0815867" lon="15.86086"><ele>1402.0</ele><time>2026-04-21T10:57:43.3Z</time></trkpt><trkpt lat="38.08153" lon="15.8609133"><ele>1402.0</ele><time>2026-04-21T10:57:44.3Z</time></trkpt><trkpt lat="38.0814267" lon="15.8610033"><ele>1402.0</ele><time>2026-04-21T10:57:46.3Z</time></trkpt><trkpt lat="38.0813583" lon="15.8610417"><ele>1402.0</ele><time>2026-04-21T10:57:47.3Z</time></trkpt><trkpt lat="38.0812833" lon="15.8610733"><ele>1402.0</ele><time>2026-04-21T10:57:48.3Z</time></trkpt><trkpt lat="38.0812083" lon="15.8610983"><ele>1402.0</ele><time>2026-04-21T10:57:49.3Z</time></trkpt><trkpt lat="38.0811317" lon="15.861125"><ele>1402.0</ele><time>2026-04-21T10:57:50.3Z</time></trkpt><trkpt lat="38.0810467" lon="15.86115"><ele>1402.0</ele><time>2026-04-21T10:57:51.3Z</time></trkpt><trkpt lat="38.0809517" lon="15.8611833"><ele>1402.0</ele><time>2026-04-21T10:57:52.3Z</time></trkpt><trkpt lat="38.080855" lon="15.861205"><ele>1402.0</ele><time>2026-04-21T10:57:53.3Z</time></trkpt><trkpt lat="38.0807583" lon="15.8612183"><ele>1404.1666666666665</ele><time>2026-04-21T10:57:54.3Z</time></trkpt><trkpt lat="38.0806567" lon="15.861205"><ele>1406.3333333333333</ele><time>2026-04-21T10:57:55.3Z</time></trkpt><trkpt lat="38.0805683" lon="15.861185"><ele>1408.5</ele><time>2026-04-21T10:57:56.299Z</time></trkpt><trkpt lat="38.08049" lon="15.86114"><ele>1410.6666666666667</ele><time>2026-04-21T10:57:57.299Z</time></trkpt><trkpt lat="38.0804217" lon="15.8610867"><ele>1412.8333333333335</ele><time>2026-04-21T10:57:58.3Z</time></trkpt><trkpt lat="38.080355" lon="15.8610533"><ele>1415.0</ele><time>2026-04-21T10:57:59.3Z</time></trkpt><trkpt lat="38.0802933" lon="15.8610267"><ele>1415.0</ele><time>2026-04-21T10:58:00.3Z</time></trkpt><trkpt lat="38.0801817" lon="15.8610383"><ele>1415.0</ele><time>2026-04-21T10:58:02.3Z</time></trkpt><trkpt lat="38.0800883" lon="15.8610983"><ele>1415.0</ele><time>2026-04-21T10:58:04.3Z</time></trkpt><trkpt lat="38.0799883" lon="15.8611733"><ele>1415.0</ele><time>2026-04-21T10:58:06.3Z</time></trkpt><trkpt lat="38.0798767" lon="15.861185"><ele>1415.0</ele><time>2026-04-21T10:58:08.3Z</time></trkpt><trkpt lat="38.07977" lon="15.8611483"><ele>1415.0</ele><time>2026-04-21T10:58:10.3Z</time></trkpt><trkpt lat="38.0796617" lon="15.861155"><ele>1415.0</ele><time>2026-04-21T10:58:12.3Z</time></trkpt><trkpt lat="38.079555" lon="15.8612133"><ele>1415.0</ele><time>2026-04-21T10:58:14.3Z</time></trkpt><trkpt lat="38.0795017" lon="15.8612583"><ele>1415.0</ele><time>2026-04-21T10:58:15.3Z</time></trkpt><trkpt lat="38.0793917" lon="15.8613367"><ele>1415.0</ele><time>2026-04-21T10:58:17.3Z</time></trkpt><trkpt lat="38.07933" lon="15.8613617"><ele>1415.0</ele><time>2026-04-21T10:58:18.3Z</time></trkpt><trkpt lat="38.0792117" lon="15.86139"><ele>1415.0</ele><time>2026-04-21T10:58:20.3Z</time></trkpt><trkpt lat="38.0790933" lon="15.8613667"><ele>1415.0</ele><time>2026-04-21T10:58:22.3Z</time></trkpt><trkpt lat="38.07903" lon="15.8613467"><ele>1415.0</ele><time>2026-04-21T10:58:23.3Z</time></trkpt><trkpt lat="38.0789517" lon="15.8613283"><ele>1415.0</ele><time>2026-04-21T10:58:24.3Z</time></trkpt><trkpt lat="38.0788683" lon="15.861315"><ele>1415.8</ele><time>2026-04-21T10:58:25.3Z</time></trkpt><trkpt lat="38.0787717" lon="15.8613133"><ele>1416.6</ele><time>2026-04-21T10:58:26.3Z</time></trkpt><trkpt lat="38.0786667" lon="15.86131"><ele>1417.4</ele><time>2026-04-21T10:58:27.3Z</time></trkpt><trkpt lat="38.0785633" lon="15.8613133"><ele>1418.2</ele><time>2026-04-21T10:58:28.3Z</time></trkpt><trkpt lat="38.07846" lon="15.86131"><ele>1419.0</ele><time>2026-04-21T10:58:29.3Z</time></trkpt><trkpt lat="38.0783683" lon="15.86131"><ele>1419.0</ele><time>2026-04-21T10:58:30.3Z</time></trkpt><trkpt lat="38.0782817" lon="15.861315"><ele>1419.0</ele><time>2026-04-21T10:58:31.3Z</time></trkpt><trkpt lat="38.0782067" lon="15.861325"><ele>1419.0</ele><time>2026-04-21T10:58:32.3Z</time></trkpt><trkpt lat="38.078135" lon="15.86134"><ele>1419.0</ele><time>2026-04-21T10:58:33.3Z</time></trkpt><trkpt lat="38.07807" lon="15.86137"><ele>1419.0</ele><time>2026-04-21T10:58:34.3Z</time></trkpt><trkpt lat="38.0780017" lon="15.861415"><ele>1419.0</ele><time>2026-04-21T10:58:35.3Z</time></trkpt><trkpt lat="38.0779283" lon="15.8614733"><ele>1417.5</ele><time>2026-04-21T10:58:36.3Z</time></trkpt><trkpt lat="38.07786" lon="15.8615317"><ele>1416.0</ele><time>2026-04-21T10:58:37.3Z</time></trkpt><trkpt lat="38.0777933" lon="15.8615883"><ele>1414.5</ele><time>2026-04-21T10:58:38.3Z</time></trkpt><trkpt lat="38.0777317" lon="15.8616433"><ele>1413.0</ele><time>2026-04-21T10:58:39.3Z</time></trkpt><trkpt lat="38.0776683" lon="15.8616883"><ele>1411.5</ele><time>2026-04-21T10:58:40.3Z</time></trkpt><trkpt lat="38.0775833" lon="15.8617883"><ele>1410.0</ele><time>2026-04-21T10:58:42.3Z</time></trkpt><trkpt lat="38.07753" lon="15.8619167"><ele>1410.0</ele><time>2026-04-21T10:58:44.3Z</time></trkpt><trkpt lat="38.0775217" lon="15.8620083"><ele>1410.0</ele><time>2026-04-21T10:58:45.3Z</time></trkpt><trkpt lat="38.0775117" lon="15.862115"><ele>1410.0</ele><time>2026-04-21T10:58:46.3Z</time></trkpt><trkpt lat="38.077505" lon="15.8622017"><ele>1410.0</ele><time>2026-04-21T10:58:47.3Z</time></trkpt><trkpt lat="38.0774667" lon="15.8623267"><ele>1410.0</ele><time>2026-04-21T10:58:49.3Z</time></trkpt><trkpt lat="38.0773817" lon="15.86237"><ele>1410.0</ele><time>2026-04-21T10:58:51.3Z</time></trkpt><trkpt lat="38.0772883" lon="15.8623467"><ele>1406.6</ele><time>2026-04-21T10:58:53.3Z</time></trkpt><trkpt lat="38.077185" lon="15.8623767"><ele>1403.2</ele><time>2026-04-21T10:58:55.3Z</time></trkpt><trkpt lat="38.0770967" lon="15.86245"><ele>1399.8000000000002</ele><time>2026-04-21T10:58:57.3Z</time></trkpt><trkpt lat="38.0769983" lon="15.86253"><ele>1396.4</ele><time>2026-04-21T10:58:59.3Z</time></trkpt><trkpt lat="38.0768967" lon="15.86259"><ele>1393.0</ele><time>2026-04-21T10:59:01.3Z</time></trkpt><trkpt lat="38.0768133" lon="15.8626033"><ele>1393.0</ele><time>2026-04-21T10:59:03.3Z</time></trkpt><trkpt lat="38.076745" lon="15.8625783"><ele>1393.0</ele><time>2026-04-21T10:59:13.3Z</time></trkpt><trkpt lat="38.0766967" lon="15.8625083"><ele>1393.0</ele><time>2026-04-21T10:59:15.3Z</time></trkpt><trkpt lat="38.0766217" lon="15.8624167"><ele>1393.0</ele><time>2026-04-21T10:59:17.3Z</time></trkpt><trkpt lat="38.0765667" lon="15.8623667"><ele>1393.0</ele><time>2026-04-21T10:59:18.3Z</time></trkpt><trkpt lat="38.0764983" lon="15.8623183"><ele>1393.0</ele><time>2026-04-21T10:59:19.3Z</time></trkpt><trkpt lat="38.0764333" lon="15.862295"><ele>1391.8333333333333</ele><time>2026-04-21T10:59:20.3Z</time></trkpt><trkpt lat="38.0763717" lon="15.8622733"><ele>1390.6666666666665</ele><time>2026-04-21T10:59:21.3Z</time></trkpt><trkpt lat="38.07631" lon="15.8622533"><ele>1389.5</ele><time>2026-04-21T10:59:22.3Z</time></trkpt><trkpt lat="38.076245" lon="15.862235"><ele>1388.3333333333333</ele><time>2026-04-21T10:59:23.3Z</time></trkpt><trkpt lat="38.076185" lon="15.86221"><ele>1387.1666666666667</ele><time>2026-04-21T10:59:24.3Z</time></trkpt><trkpt lat="38.0760733" lon="15.8621517"><ele>1386.0</ele><time>2026-04-21T10:59:26.3Z</time></trkpt><trkpt lat="38.075985" lon="15.862105"><ele>1386.0</ele><time>2026-04-21T10:59:28.3Z</time></trkpt><trkpt lat="38.075885" lon="15.86207"><ele>1386.0</ele><time>2026-04-21T10:59:30.3Z</time></trkpt><trkpt lat="38.0757833" lon="15.86206"><ele>1386.0</ele><time>2026-04-21T10:59:32.3Z</time></trkpt><trkpt lat="38.0757167" lon="15.8620617"><ele>1386.0</ele><time>2026-04-21T10:59:34.3Z</time></trkpt><trkpt lat="38.0756283" lon="15.8621083"><ele>1386.0</ele><time>2026-04-21T11:00:12.3Z</time></trkpt><trkpt lat="38.07551" lon="15.8622067"><ele>1386.0</ele><time>2026-04-21T11:00:14.299Z</time></trkpt><trkpt lat="38.0754433" lon="15.862285"><ele>1386.0</ele><time>2026-04-21T11:00:15.3Z</time></trkpt><trkpt lat="38.0753983" lon="15.8624117"><ele>1386.0</ele><time>2026-04-21T11:00:16.3Z</time></trkpt><trkpt lat="38.0753667" lon="15.862535"><ele>1386.0</ele><time>2026-04-21T11:00:17.3Z</time></trkpt><trkpt lat="38.075335" lon="15.8626217"><ele>1386.0</ele><time>2026-04-21T11:00:18.3Z</time></trkpt><trkpt lat="38.0752883" lon="15.862695"><ele>1386.0</ele><time>2026-04-21T11:00:19.3Z</time></trkpt><trkpt lat="38.0752317" lon="15.8627467"><ele>1386.0</ele><time>2026-04-21T11:00:20.299Z</time></trkpt><trkpt lat="38.0751483" lon="15.86277"><ele>1386.0</ele><time>2026-04-21T11:00:21.3Z</time></trkpt><trkpt lat="38.0750533" lon="15.8627567"><ele>1386.0</ele><time>2026-04-21T11:00:22.3Z</time></trkpt><trkpt lat="38.0749583" lon="15.8627267"><ele>1386.0</ele><time>2026-04-21T11:00:23.3Z</time></trkpt><trkpt lat="38.07485" lon="15.8627183"><ele>1382.6</ele><time>2026-04-21T11:00:24.3Z</time></trkpt><trkpt lat="38.0747417" lon="15.8627183"><ele>1379.1999999999998</ele><time>2026-04-21T11:00:25.3Z</time></trkpt><trkpt lat="38.0746283" lon="15.8627367"><ele>1375.8000000000002</ele><time>2026-04-21T11:00:26.3Z</time></trkpt><trkpt lat="38.0745183" lon="15.8627717"><ele>1372.4</ele><time>2026-04-21T11:00:27.3Z</time></trkpt><trkpt lat="38.074425" lon="15.8628183"><ele>1369.0</ele><time>2026-04-21T11:00:28.299Z</time></trkpt><trkpt lat="38.07434" lon="15.8628767"><ele>1369.0</ele><time>2026-04-21T11:00:29.3Z</time></trkpt><trkpt lat="38.0742683" lon="15.862925"><ele>1369.0</ele><time>2026-04-21T11:00:30.3Z</time></trkpt><trkpt lat="38.0742033" lon="15.8629417"><ele>1369.0</ele><time>2026-04-21T11:00:31.3Z</time></trkpt><trkpt lat="38.0741133" lon="15.8629083"><ele>1369.0</ele><time>2026-04-21T11:00:33.3Z</time></trkpt><trkpt lat="38.074115" lon="15.8628233"><ele>1369.0</ele><time>2026-04-21T11:00:35.299Z</time></trkpt><trkpt lat="38.0741933" lon="15.8627417"><ele>1369.0</ele><time>2026-04-21T11:00:37.3Z</time></trkpt><trkpt lat="38.0742467" lon="15.862645"><ele>1367.2</ele><time>2026-04-21T11:00:39.3Z</time></trkpt><trkpt lat="38.07418" lon="15.8626117"><ele>1365.4</ele><time>2026-04-21T11:00:41.3Z</time></trkpt><trkpt lat="38.0740483" lon="15.8626917"><ele>1363.6</ele><time>2026-04-21T11:00:43.3Z</time></trkpt><trkpt lat="38.073965" lon="15.86276"><ele>1361.8</ele><time>2026-04-21T11:00:44.299Z</time></trkpt><trkpt lat="38.0738867" lon="15.8628483"><ele>1360.0</ele><time>2026-04-21T11:00:45.3Z</time></trkpt><trkpt lat="38.07381" lon="15.86293"><ele>1359.0</ele><time>2026-04-21T11:00:46.3Z</time></trkpt><trkpt lat="38.0737283" lon="15.8629883"><ele>1358.0</ele><time>2026-04-21T11:00:47.3Z</time></trkpt><trkpt lat="38.0736467" lon="15.8630317"><ele>1357.0</ele><time>2026-04-21T11:00:48.299Z</time></trkpt><trkpt lat="38.0735717" lon="15.86304"><ele>1356.0</ele><time>2026-04-21T11:00:49.3Z</time></trkpt><trkpt lat="38.0735" lon="15.8630233"><ele>1355.0</ele><time>2026-04-21T11:00:50.3Z</time></trkpt><trkpt lat="38.0734433" lon="15.8629317"><ele>1354.0</ele><time>2026-04-21T11:00:52.3Z</time></trkpt><trkpt lat="38.073475" lon="15.86281"><ele>1354.0</ele><time>2026-04-21T11:00:54.3Z</time></trkpt><trkpt lat="38.07353" lon="15.8626967"><ele>1354.0</ele><time>2026-04-21T11:00:56.299Z</time></trkpt><trkpt lat="38.07352" lon="15.8625883"><ele>1354.0</ele><time>2026-04-21T11:00:58.3Z</time></trkpt><trkpt lat="38.07343" lon="15.8624883"><ele>1354.0</ele><time>2026-04-21T11:01:00.3Z</time></trkpt><trkpt lat="38.0733517" lon="15.8624733"><ele>1354.0</ele><time>2026-04-21T11:01:01.3Z</time></trkpt><trkpt lat="38.07327" lon="15.8624617"><ele>1351.8333333333333</ele><time>2026-04-21T11:01:02.299Z</time></trkpt><trkpt lat="38.0731817" lon="15.862455"><ele>1349.6666666666665</ele><time>2026-04-21T11:01:03.3Z</time></trkpt><trkpt lat="38.073085" lon="15.862445"><ele>1347.5</ele><time>2026-04-21T11:01:04.3Z</time></trkpt><trkpt lat="38.0729917" lon="15.8624317"><ele>1345.3333333333333</ele><time>2026-04-21T11:01:05.299Z</time></trkpt><trkpt lat="38.0729133" lon="15.8624283"><ele>1343.1666666666667</ele><time>2026-04-21T11:01:06.3Z</time></trkpt><trkpt lat="38.07284" lon="15.8624333"><ele>1341.0</ele><time>2026-04-21T11:01:07.3Z</time></trkpt><trkpt lat="38.072715" lon="15.862465"><ele>1341.0</ele><time>2026-04-21T11:01:09.3Z</time></trkpt><trkpt lat="38.0726383" lon="15.86249"><ele>1341.0</ele><time>2026-04-21T11:01:10.299Z</time></trkpt><trkpt lat="38.0725583" lon="15.8625167"><ele>1341.0</ele><time>2026-04-21T11:01:11.299Z</time></trkpt><trkpt lat="38.07248" lon="15.8625583"><ele>1341.0</ele><time>2026-04-21T11:01:12.3Z</time></trkpt><trkpt lat="38.0724217" lon="15.8626067"><ele>1341.0</ele><time>2026-04-21T11:01:13.3Z</time></trkpt><trkpt lat="38.072355" lon="15.8627483"><ele>1341.0</ele><time>2026-04-21T11:01:15.299Z</time></trkpt><trkpt lat="38.0723333" lon="15.862825"><ele>1336.8</ele><time>2026-04-21T11:01:16.3Z</time></trkpt><trkpt lat="38.0722867" lon="15.8629567"><ele>1332.6</ele><time>2026-04-21T11:01:18.3Z</time></trkpt><trkpt lat="38.0722483" lon="15.8630483"><ele>1328.4</ele><time>2026-04-21T11:01:20.3Z</time></trkpt><trkpt lat="38.072235" lon="15.8631733"><ele>1324.2</ele><time>2026-04-21T11:02:02.3Z</time></trkpt><trkpt lat="38.0722533" lon="15.863265"><ele>1320.0</ele><time>2026-04-21T11:02:03.3Z</time></trkpt><trkpt lat="38.0722783" lon="15.8633833"><ele>1322.0</ele><time>2026-04-21T11:02:04.299Z</time></trkpt><trkpt lat="38.0723133" lon="15.86351"><ele>1324.0</ele><time>2026-04-21T11:02:05.299Z</time></trkpt><trkpt lat="38.0723483" lon="15.8636117"><ele>1326.0</ele><time>2026-04-21T11:02:06.3Z</time></trkpt><trkpt lat="38.0724117" lon="15.8636983"><ele>1328.0</ele><time>2026-04-21T11:02:07.3Z</time></trkpt><trkpt lat="38.0724783" lon="15.8637717"><ele>1330.0</ele><time>2026-04-21T11:02:08.3Z</time></trkpt><trkpt lat="38.0725283" lon="15.8638367"><ele>1332.0</ele><time>2026-04-21T11:02:09.3Z</time></trkpt><trkpt lat="38.072535" lon="15.8639783"><ele>1332.4285714285716</ele><time>2026-04-21T11:02:11.3Z</time></trkpt><trkpt lat="38.0725233" lon="15.8640633"><ele>1332.8571428571427</ele><time>2026-04-21T11:02:12.299Z</time></trkpt><trkpt lat="38.0725267" lon="15.864155"><ele>1333.2857142857142</ele><time>2026-04-21T11:02:13.3Z</time></trkpt><trkpt lat="38.0725533" lon="15.8642417"><ele>1333.7142857142858</ele><time>2026-04-21T11:02:14.299Z</time></trkpt><trkpt lat="38.0725917" lon="15.8643317"><ele>1334.1428571428573</ele><time>2026-04-21T11:02:15.299Z</time></trkpt><trkpt lat="38.072625" lon="15.8644117"><ele>1334.5714285714284</ele><time>2026-04-21T11:02:16.3Z</time></trkpt><trkpt lat="38.0726167" lon="15.8645033"><ele>1335.0</ele><time>2026-04-21T11:02:18.3Z</time></trkpt><trkpt lat="38.0725233" lon="15.8645083"><ele>1333.4</ele><time>2026-04-21T11:02:20.3Z</time></trkpt><trkpt lat="38.07245" lon="15.8644783"><ele>1331.8</ele><time>2026-04-21T11:02:21.3Z</time></trkpt><trkpt lat="38.0723567" lon="15.8644433"><ele>1330.1999999999998</ele><time>2026-04-21T11:02:22.299Z</time></trkpt><trkpt lat="38.07224" lon="15.8644183"><ele>1328.6</ele><time>2026-04-21T11:02:23.3Z</time></trkpt><trkpt lat="38.0721067" lon="15.8643917"><ele>1327.0</ele><time>2026-04-21T11:02:24.3Z</time></trkpt><trkpt lat="38.0719717" lon="15.8643533"><ele>1328.25</ele><time>2026-04-21T11:02:25.3Z</time></trkpt><trkpt lat="38.071845" lon="15.8643083"><ele>1329.5</ele><time>2026-04-21T11:02:26.3Z</time></trkpt><trkpt lat="38.0717133" lon="15.8642767"><ele>1330.75</ele><time>2026-04-21T11:02:27.3Z</time></trkpt><trkpt lat="38.0716083" lon="15.8642467"><ele>1332.0</ele><time>2026-04-21T11:02:28.3Z</time></trkpt><trkpt lat="38.071525" lon="15.8642333"><ele>1331.6666666666667</ele><time>2026-04-21T11:02:29.3Z</time></trkpt><trkpt lat="38.0714517" lon="15.86425"><ele>1331.3333333333333</ele><time>2026-04-21T11:02:30.3Z</time></trkpt><trkpt lat="38.0713817" lon="15.8643"><ele>1331.0</ele><time>2026-04-21T11:02:31.3Z</time></trkpt><trkpt lat="38.0713117" lon="15.8643783"><ele>1330.6666666666665</ele><time>2026-04-21T11:02:32.3Z</time></trkpt><trkpt lat="38.07124" lon="15.864465"><ele>1330.3333333333333</ele><time>2026-04-21T11:02:33.3Z</time></trkpt><trkpt lat="38.071185" lon="15.864535"><ele>1330.0</ele><time>2026-04-21T11:02:34.3Z</time></trkpt><trkpt lat="38.0711117" lon="15.864645"><ele>1330.0</ele><time>2026-04-21T11:02:36.3Z</time></trkpt><trkpt lat="38.0710683" lon="15.8647067"><ele>1330.0</ele><time>2026-04-21T11:02:37.3Z</time></trkpt><trkpt lat="38.07101" lon="15.86476"><ele>1330.0</ele><time>2026-04-21T11:02:38.3Z</time></trkpt><trkpt lat="38.07095" lon="15.864805"><ele>1330.0</ele><time>2026-04-21T11:02:39.299Z</time></trkpt><trkpt lat="38.0708883" lon="15.8648567"><ele>1330.0</ele><time>2026-04-21T11:02:40.3Z</time></trkpt><trkpt lat="38.0708217" lon="15.86491"><ele>1330.0</ele><time>2026-04-21T11:02:41.3Z</time></trkpt><trkpt lat="38.070725" lon="15.86496"><ele>1329.2</ele><time>2026-04-21T11:02:43.3Z</time></trkpt><trkpt lat="38.0706417" lon="15.8649517"><ele>1328.4</ele><time>2026-04-21T11:02:45.299Z</time></trkpt><trkpt lat="38.0705567" lon="15.86498"><ele>1327.6</ele><time>2026-04-21T11:02:47.3Z</time></trkpt><trkpt lat="38.0704683" lon="15.865055"><ele>1326.8</ele><time>2026-04-21T11:02:49.3Z</time></trkpt><trkpt lat="38.0703533" lon="15.8651233"><ele>1326.0</ele><time>2026-04-21T11:02:51.3Z</time></trkpt><trkpt lat="38.07023" lon="15.86516"><ele>1328.6</ele><time>2026-04-21T11:02:53.3Z</time></trkpt><trkpt lat="38.0701183" lon="15.8651717"><ele>1331.1999999999998</ele><time>2026-04-21T11:02:55.3Z</time></trkpt><trkpt lat="38.0700183" lon="15.865185"><ele>1333.8000000000002</ele><time>2026-04-21T11:02:57.3Z</time></trkpt><trkpt lat="38.06991" lon="15.8652183"><ele>1336.4</ele><time>2026-04-21T11:02:59.299Z</time></trkpt><trkpt lat="38.069845" lon="15.8652417"><ele>1339.0</ele><time>2026-04-21T11:03:00.3Z</time></trkpt><trkpt lat="38.0697717" lon="15.8652667"><ele>1339.0</ele><time>2026-04-21T11:03:01.3Z</time></trkpt><trkpt lat="38.0696867" lon="15.8652883"><ele>1339.0</ele><time>2026-04-21T11:03:02.3Z</time></trkpt><trkpt lat="38.069595" lon="15.8653167"><ele>1339.0</ele><time>2026-04-21T11:03:03.3Z</time></trkpt><trkpt lat="38.0695117" lon="15.86534"><ele>1339.0</ele><time>2026-04-21T11:03:04.3Z</time></trkpt><trkpt lat="38.06944" lon="15.865365"><ele>1339.0</ele><time>2026-04-21T11:03:05.3Z</time></trkpt><trkpt lat="38.0693833" lon="15.8654067"><ele>1339.0</ele><time>2026-04-21T11:03:06.3Z</time></trkpt><trkpt lat="38.0693183" lon="15.8655283"><ele>1339.0</ele><time>2026-04-21T11:03:08.3Z</time></trkpt><trkpt lat="38.0693017" lon="15.8656117"><ele>1339.0</ele><time>2026-04-21T11:03:09.299Z</time></trkpt><trkpt lat="38.0692417" lon="15.865745"><ele>1339.0</ele><time>2026-04-21T11:03:11.3Z</time></trkpt><trkpt lat="38.069185" lon="15.8657983"><ele>1339.0</ele><time>2026-04-21T11:03:12.3Z</time></trkpt><trkpt lat="38.0691117" lon="15.8658417"><ele>1339.0</ele><time>2026-04-21T11:03:13.3Z</time></trkpt><trkpt lat="38.06903" lon="15.8658783"><ele>1339.0</ele><time>2026-04-21T11:03:14.3Z</time></trkpt><trkpt lat="38.0689383" lon="15.865915"><ele>1337.6666666666665</ele><time>2026-04-21T11:03:15.3Z</time></trkpt><trkpt lat="38.0688533" lon="15.8659367"><ele>1336.3333333333333</ele><time>2026-04-21T11:03:16.3Z</time></trkpt><trkpt lat="38.0687733" lon="15.8659617"><ele>1335.0</ele><time>2026-04-21T11:03:17.3Z</time></trkpt><trkpt lat="38.0687017" lon="15.86598"><ele>1333.6666666666667</ele><time>2026-04-21T11:03:18.3Z</time></trkpt><trkpt lat="38.0686267" lon="15.8659983"><ele>1332.3333333333335</ele><time>2026-04-21T11:03:19.3Z</time></trkpt><trkpt lat="38.068555" lon="15.8660167"><ele>1331.0</ele><time>2026-04-21T11:03:20.3Z</time></trkpt><trkpt lat="38.0684833" lon="15.86604"><ele>1331.0</ele><time>2026-04-21T11:03:21.3Z</time></trkpt><trkpt lat="38.06843" lon="15.866085"><ele>1331.0</ele><time>2026-04-21T11:03:22.3Z</time></trkpt><trkpt lat="38.0683533" lon="15.866195"><ele>1331.0</ele><time>2026-04-21T11:03:24.3Z</time></trkpt><trkpt lat="38.0683167" lon="15.8662667"><ele>1331.0</ele><time>2026-04-21T11:03:25.3Z</time></trkpt><trkpt lat="38.0682833" lon="15.86635"><ele>1331.0</ele><time>2026-04-21T11:03:26.3Z</time></trkpt><trkpt lat="38.0682683" lon="15.8664467"><ele>1331.0</ele><time>2026-04-21T11:03:27.299Z</time></trkpt><trkpt lat="38.0682783" lon="15.8665433"><ele>1331.0</ele><time>2026-04-21T11:03:28.3Z</time></trkpt><trkpt lat="38.0682983" lon="15.86667"><ele>1331.0</ele><time>2026-04-21T11:03:30.3Z</time></trkpt><trkpt lat="38.0682417" lon="15.8667483"><ele>1331.0</ele><time>2026-04-21T11:03:32.3Z</time></trkpt><trkpt lat="38.0681233" lon="15.866795"><ele>1331.0</ele><time>2026-04-21T11:03:34.3Z</time></trkpt><trkpt lat="38.068065" lon="15.8668417"><ele>1331.0</ele><time>2026-04-21T11:03:35.3Z</time></trkpt><trkpt lat="38.0680217" lon="15.8669067"><ele>1331.0</ele><time>2026-04-21T11:03:36.3Z</time></trkpt><trkpt lat="38.0679683" lon="15.8669683"><ele>1331.0</ele><time>2026-04-21T11:03:37.3Z</time></trkpt><trkpt lat="38.0679033" lon="15.867005"><ele>1331.0</ele><time>2026-04-21T11:03:38.3Z</time></trkpt><trkpt lat="38.0678267" lon="15.8670333"><ele>1331.0</ele><time>2026-04-21T11:03:39.3Z</time></trkpt><trkpt lat="38.06776" lon="15.8670617"><ele>1331.0</ele><time>2026-04-21T11:03:40.299Z</time></trkpt><trkpt lat="38.0677" lon="15.8670917"><ele>1331.0</ele><time>2026-04-21T11:03:41.3Z</time></trkpt><trkpt lat="38.06761" lon="15.8671933"><ele>1331.0</ele><time>2026-04-21T11:03:43.3Z</time></trkpt><trkpt lat="38.0675567" lon="15.8672567"><ele>1331.0</ele><time>2026-04-21T11:03:44.3Z</time></trkpt><trkpt lat="38.0675" lon="15.8673283"><ele>1331.0</ele><time>2026-04-21T11:03:45.3Z</time></trkpt><trkpt lat="38.067445" lon="15.8673917"><ele>1331.0</ele><time>2026-04-21T11:03:46.3Z</time></trkpt><trkpt lat="38.0673817" lon="15.8674383"><ele>1331.0</ele><time>2026-04-21T11:03:47.3Z</time></trkpt><trkpt lat="38.0673167" lon="15.8674683"><ele>1331.0</ele><time>2026-04-21T11:03:48.3Z</time></trkpt><trkpt lat="38.0672383" lon="15.8674917"><ele>1331.0</ele><time>2026-04-21T11:03:49.299Z</time></trkpt><trkpt lat="38.06716" lon="15.8675133"><ele>1330.8333333333335</ele><time>2026-04-21T11:03:50.3Z</time></trkpt><trkpt lat="38.067075" lon="15.8675417"><ele>1330.6666666666667</ele><time>2026-04-21T11:03:51.3Z</time></trkpt><trkpt lat="38.0669967" lon="15.8675583"><ele>1330.5</ele><time>2026-04-21T11:03:52.3Z</time></trkpt><trkpt lat="38.06693" lon="15.8675683"><ele>1330.3333333333333</ele><time>2026-04-21T11:03:53.3Z</time></trkpt><trkpt lat="38.0668317" lon="15.86756"><ele>1330.1666666666665</ele><time>2026-04-21T11:03:55.3Z</time></trkpt><trkpt lat="38.066765" lon="15.8675567"><ele>1330.0</ele><time>2026-04-21T11:03:58.3Z</time></trkpt><trkpt lat="38.0666983" lon="15.86759"><ele>1330.0</ele><time>2026-04-21T11:04:02.3Z</time></trkpt><trkpt lat="38.06666" lon="15.8676817"><ele>1330.0</ele><time>2026-04-21T11:04:07.3Z</time></trkpt><trkpt lat="38.0667333" lon="15.8676667"><ele>1330.0</ele><time>2026-04-21T11:04:13.3Z</time></trkpt><trkpt lat="38.066795" lon="15.8676167"><ele>1330.0</ele><time>2026-04-21T11:04:16.3Z</time></trkpt><trkpt lat="38.0667567" lon="15.8675283"><ele>1330.0</ele><time>2026-04-21T11:05:25.3Z</time></trkpt><trkpt lat="38.0667283" lon="15.867395"><ele>1330.0</ele><time>2026-04-21T11:05:28.3Z</time></trkpt><trkpt lat="38.0667233" lon="15.8672983"><ele>1330.0</ele><time>2026-04-21T11:05:29.3Z</time></trkpt><trkpt lat="38.0667133" lon="15.8671633"><ele>1330.0</ele><time>2026-04-21T11:05:31.3Z</time></trkpt><trkpt lat="38.066705" lon="15.8670817"><ele>1330.0</ele><time>2026-04-21T11:05:34.3Z</time></trkpt><trkpt lat="38.0666467" lon="15.8670417"><ele>1330.0</ele><time>2026-04-21T11:05:37.3Z</time></trkpt><trkpt lat="38.0665783" lon="15.8670617"><ele>1330.0</ele><time>2026-04-21T11:05:41.3Z</time></trkpt><trkpt lat="38.0665383" lon="15.8671417"><ele>1330.0</ele><time>2026-04-21T11:28:55.3Z</time></trkpt><trkpt lat="38.06646" lon="15.867175"><ele>1330.0</ele><time>2026-04-21T11:28:57.3Z</time></trkpt><trkpt lat="38.0664183" lon="15.8672367"><ele>1330.0</ele><time>2026-04-21T11:29:00.299Z</time></trkpt><trkpt lat="38.0665" lon="15.8673017"><ele>1330.0</ele><time>2026-04-21T11:29:03.3Z</time></trkpt><trkpt lat="38.066555" lon="15.8673483"><ele>1330.0</ele><time>2026-04-21T11:29:04.3Z</time></trkpt><trkpt lat="38.0666283" lon="15.8674"><ele>1330.0</ele><time>2026-04-21T11:29:05.3Z</time></trkpt><trkpt lat="38.0666933" lon="15.8674567"><ele>1330.0</ele><time>2026-04-21T11:29:06.3Z</time></trkpt><trkpt lat="38.0667467" lon="15.86753"><ele>1330.0</ele><time>2026-04-21T11:29:08.3Z</time></trkpt><trkpt lat="38.0667917" lon="15.867625"><ele>1330.0</ele><time>2026-04-21T11:29:57.3Z</time></trkpt><trkpt lat="38.0667417" lon="15.8675733"><ele>1330.0</ele><time>2026-04-21T11:30:32.3Z</time></trkpt><trkpt lat="38.06669" lon="15.8676333"><ele>1330.0</ele><time>2026-04-21T11:30:34.3Z</time></trkpt><trkpt lat="38.0666367" lon="15.8677133"><ele>1330.0</ele><time>2026-04-21T11:30:36.3Z</time></trkpt><trkpt lat="38.0665817" lon="15.8677833"><ele>1330.0</ele><time>2026-04-21T11:30:38.3Z</time></trkpt><trkpt lat="38.0665183" lon="15.8678283"><ele>1330.8</ele><time>2026-04-21T11:30:40.3Z</time></trkpt><trkpt lat="38.0664433" lon="15.8679083"><ele>1331.6</ele><time>2026-04-21T11:30:52.3Z</time></trkpt><trkpt lat="38.066355" lon="15.86797"><ele>1332.4</ele><time>2026-04-21T11:30:55.3Z</time></trkpt><trkpt lat="38.066265" lon="15.8680283"><ele>1333.2</ele><time>2026-04-21T11:30:57.3Z</time></trkpt><trkpt lat="38.06615" lon="15.86813"><ele>1334.0</ele><time>2026-04-21T11:30:59.3Z</time></trkpt><trkpt lat="38.066085" lon="15.8681933"><ele>1334.0</ele><time>2026-04-21T11:31:00.3Z</time></trkpt><trkpt lat="38.066025" lon="15.8682517"><ele>1334.0</ele><time>2026-04-21T11:31:01.3Z</time></trkpt><trkpt lat="38.0659683" lon="15.868305"><ele>1334.0</ele><time>2026-04-21T11:31:02.3Z</time></trkpt><trkpt lat="38.0659067" lon="15.8683617"><ele>1334.0</ele><time>2026-04-21T11:31:03.3Z</time></trkpt><trkpt lat="38.0658533" lon="15.86841"><ele>1334.0</ele><time>2026-04-21T11:31:04.299Z</time></trkpt><trkpt lat="38.0658017" lon="15.8684617"><ele>1334.0</ele><time>2026-04-21T11:31:05.3Z</time></trkpt><trkpt lat="38.0657083" lon="15.8685717"><ele>1332.2</ele><time>2026-04-21T11:31:07.3Z</time></trkpt><trkpt lat="38.06566" lon="15.8686317"><ele>1330.4</ele><time>2026-04-21T11:31:08.3Z</time></trkpt><trkpt lat="38.0656133" lon="15.8686883"><ele>1328.6</ele><time>2026-04-21T11:31:09.3Z</time></trkpt><trkpt lat="38.0655317" lon="15.86879"><ele>1326.8</ele><time>2026-04-21T11:31:11.3Z</time></trkpt><trkpt lat="38.0654567" lon="15.868885"><ele>1325.0</ele><time>2026-04-21T11:31:13.3Z</time></trkpt><trkpt lat="38.06538" lon="15.86898"><ele>1325.0</ele><time>2026-04-21T11:31:15.3Z</time></trkpt><trkpt lat="38.0653067" lon="15.869075"><ele>1325.0</ele><time>2026-04-21T11:31:17.3Z</time></trkpt><trkpt lat="38.06524" lon="15.8691717"><ele>1325.0</ele><time>2026-04-21T11:31:19.3Z</time></trkpt><trkpt lat="38.0651733" lon="15.869255"><ele>1325.0</ele><time>2026-04-21T11:31:21.299Z</time></trkpt><trkpt lat="38.0651" lon="15.8693467"><ele>1325.0</ele><time>2026-04-21T11:31:23.3Z</time></trkpt><trkpt lat="38.0650267" lon="15.8694467"><ele>1323.8</ele><time>2026-04-21T11:31:25.299Z</time></trkpt><trkpt lat="38.0649583" lon="15.8695617"><ele>1322.6</ele><time>2026-04-21T11:31:27.3Z</time></trkpt><trkpt lat="38.0648917" lon="15.8696867"><ele>1321.4</ele><time>2026-04-21T11:31:29.3Z</time></trkpt><trkpt lat="38.0648517" lon="15.8697583"><ele>1320.2</ele><time>2026-04-21T11:31:30.3Z</time></trkpt><trkpt lat="38.064785" lon="15.86989"><ele>1319.0</ele><time>2026-04-21T11:31:32.3Z</time></trkpt><trkpt lat="38.0647417" lon="15.8699717"><ele>1317.8333333333335</ele><time>2026-04-21T11:31:33.3Z</time></trkpt><trkpt lat="38.0646967" lon="15.8700583"><ele>1316.6666666666667</ele><time>2026-04-21T11:31:34.3Z</time></trkpt><trkpt lat="38.064655" lon="15.8701433"><ele>1315.5</ele><time>2026-04-21T11:31:35.3Z</time></trkpt><trkpt lat="38.0646133" lon="15.8702333"><ele>1314.3333333333333</ele><time>2026-04-21T11:31:36.3Z</time></trkpt><trkpt lat="38.064565" lon="15.8703233"><ele>1313.1666666666665</ele><time>2026-04-21T11:31:37.3Z</time></trkpt><trkpt lat="38.0645183" lon="15.8704117"><ele>1312.0</ele><time>2026-04-21T11:31:38.299Z</time></trkpt><trkpt lat="38.0644717" lon="15.8705017"><ele>1310.8</ele><time>2026-04-21T11:31:39.3Z</time></trkpt><trkpt lat="38.06443" lon="15.8705883"><ele>1309.6</ele><time>2026-04-21T11:31:40.3Z</time></trkpt><trkpt lat="38.06436" lon="15.8707233"><ele>1308.3999999999999</ele><time>2026-04-21T11:31:42.3Z</time></trkpt><trkpt lat="38.0642867" lon="15.8708383"><ele>1307.1999999999998</ele><time>2026-04-21T11:31:44.3Z</time></trkpt><trkpt lat="38.0642217" lon="15.8709133"><ele>1306.0</ele><time>2026-04-21T11:31:46.3Z</time></trkpt><trkpt lat="38.064155" lon="15.870975"><ele>1303.8333333333333</ele><time>2026-04-21T11:31:48.299Z</time></trkpt><trkpt lat="38.0641" lon="15.87103"><ele>1301.6666666666665</ele><time>2026-04-21T11:31:50.3Z</time></trkpt><trkpt lat="38.0640433" lon="15.871085"><ele>1299.5</ele><time>2026-04-21T11:31:52.3Z</time></trkpt><trkpt lat="38.0639767" lon="15.8711617"><ele>1297.3333333333333</ele><time>2026-04-21T11:31:54.3Z</time></trkpt><trkpt lat="38.0639033" lon="15.8712483"><ele>1295.1666666666667</ele><time>2026-04-21T11:31:56.3Z</time></trkpt><trkpt lat="38.06384" lon="15.871345"><ele>1293.0</ele><time>2026-04-21T11:31:58.3Z</time></trkpt><trkpt lat="38.0637917" lon="15.87145"><ele>1293.0</ele><time>2026-04-21T11:32:00.3Z</time></trkpt><trkpt lat="38.0637717" lon="15.8715383"><ele>1293.0</ele><time>2026-04-21T11:32:02.3Z</time></trkpt><trkpt lat="38.0637733" lon="15.8716217"><ele>1293.0</ele><time>2026-04-21T11:32:04.3Z</time></trkpt><trkpt lat="38.0637833" lon="15.8717067"><ele>1293.0</ele><time>2026-04-21T11:32:06.3Z</time></trkpt><trkpt lat="38.0637833" lon="15.8717983"><ele>1293.0</ele><time>2026-04-21T11:32:08.3Z</time></trkpt><trkpt lat="38.0637783" lon="15.8718783"><ele>1293.0</ele><time>2026-04-21T11:32:10.3Z</time></trkpt><trkpt lat="38.0637467" lon="15.8719517"><ele>1293.0</ele><time>2026-04-21T11:32:12.3Z</time></trkpt><trkpt lat="38.0637083" lon="15.872045"><ele>1291.6000000000001</ele><time>2026-04-21T11:32:14.3Z</time></trkpt><trkpt lat="38.063665" lon="15.8721333"><ele>1290.2</ele><time>2026-04-21T11:32:16.3Z</time></trkpt><trkpt lat="38.0635933" lon="15.87224"><ele>1288.8</ele><time>2026-04-21T11:32:18.3Z</time></trkpt><trkpt lat="38.0635117" lon="15.8723417"><ele>1287.4</ele><time>2026-04-21T11:32:20.3Z</time></trkpt><trkpt lat="38.0634283" lon="15.8724483"><ele>1286.0</ele><time>2026-04-21T11:32:22.3Z</time></trkpt><trkpt lat="38.0633467" lon="15.8725517"><ele>1289.0</ele><time>2026-04-21T11:32:24.301Z</time></trkpt><trkpt lat="38.0632683" lon="15.8726617"><ele>1292.0</ele><time>2026-04-21T11:32:26.301Z</time></trkpt><trkpt lat="38.063215" lon="15.8727883"><ele>1295.0</ele><time>2026-04-21T11:32:28.3Z</time></trkpt><trkpt lat="38.0631983" lon="15.8729283"><ele>1298.0</ele><time>2026-04-21T11:32:30.301Z</time></trkpt><trkpt lat="38.0632117" lon="15.873075"><ele>1298.0</ele><time>2026-04-21T11:32:32.301Z</time></trkpt><trkpt lat="38.06324" lon="15.8732317"><ele>1298.0</ele><time>2026-04-21T11:32:34.301Z</time></trkpt><trkpt lat="38.0632583" lon="15.873315"><ele>1298.0</ele><time>2026-04-21T11:32:35.301Z</time></trkpt><trkpt lat="38.0632767" lon="15.8733983"><ele>1298.0</ele><time>2026-04-21T11:32:36.3Z</time></trkpt><trkpt lat="38.063295" lon="15.8734867"><ele>1298.0</ele><time>2026-04-21T11:32:37.301Z</time></trkpt><trkpt lat="38.063305" lon="15.8735817"><ele>1298.0</ele><time>2026-04-21T11:32:38.301Z</time></trkpt><trkpt lat="38.0633067" lon="15.8736683"><ele>1295.6666666666667</ele><time>2026-04-21T11:32:39.301Z</time></trkpt><trkpt lat="38.0633017" lon="15.87376"><ele>1293.3333333333335</ele><time>2026-04-21T11:32:40.301Z</time></trkpt><trkpt lat="38.0632883" lon="15.8738433"><ele>1291.0</ele><time>2026-04-21T11:32:41.301Z</time></trkpt><trkpt lat="38.0632617" lon="15.8739933"><ele>1288.6666666666667</ele><time>2026-04-21T11:32:43.301Z</time></trkpt><trkpt lat="38.06325" lon="15.8740733"><ele>1286.3333333333333</ele><time>2026-04-21T11:32:44.301Z</time></trkpt><trkpt lat="38.06323" lon="15.87416"><ele>1284.0</ele><time>2026-04-21T11:32:45.301Z</time></trkpt><trkpt lat="38.0632133" lon="15.8742483"><ele>1280.1666666666667</ele><time>2026-04-21T11:32:46.301Z</time></trkpt><trkpt lat="38.0632033" lon="15.8743367"><ele>1276.3333333333333</ele><time>2026-04-21T11:32:47.301Z</time></trkpt><trkpt lat="38.0631917" lon="15.8744267"><ele>1272.5</ele><time>2026-04-21T11:32:48.301Z</time></trkpt><trkpt lat="38.0631733" lon="15.87452"><ele>1268.6666666666665</ele><time>2026-04-21T11:32:49.301Z</time></trkpt><trkpt lat="38.0631583" lon="15.8746233"><ele>1264.8333333333333</ele><time>2026-04-21T11:32:50.301Z</time></trkpt><trkpt lat="38.063145" lon="15.8747333"><ele>1261.0</ele><time>2026-04-21T11:32:51.301Z</time></trkpt><trkpt lat="38.0631333" lon="15.8748467"><ele>1261.0</ele><time>2026-04-21T11:32:52.301Z</time></trkpt><trkpt lat="38.0631167" lon="15.8749583"><ele>1261.0</ele><time>2026-04-21T11:32:53.301Z</time></trkpt><trkpt lat="38.063115" lon="15.8750733"><ele>1261.0</ele><time>2026-04-21T11:32:54.301Z</time></trkpt><trkpt lat="38.0631133" lon="15.8751917"><ele>1261.0</ele><time>2026-04-21T11:32:55.301Z</time></trkpt><trkpt lat="38.0631083" lon="15.8753"><ele>1261.0</ele><time>2026-04-21T11:32:56.3Z</time></trkpt><trkpt lat="38.0630933" lon="15.8753983"><ele>1261.0</ele><time>2026-04-21T11:32:57.301Z</time></trkpt><trkpt lat="38.0630733" lon="15.8754917"><ele>1259.0</ele><time>2026-04-21T11:32:58.301Z</time></trkpt><trkpt lat="38.063055" lon="15.87558"><ele>1257.0</ele><time>2026-04-21T11:32:59.301Z</time></trkpt><trkpt lat="38.063025" lon="15.8756583"><ele>1255.0</ele><time>2026-04-21T11:33:00.301Z</time></trkpt><trkpt lat="38.06296" lon="15.8757717"><ele>1253.0</ele><time>2026-04-21T11:33:02.301Z</time></trkpt><trkpt lat="38.0629067" lon="15.8759"><ele>1251.0</ele><time>2026-04-21T11:33:04.301Z</time></trkpt><trkpt lat="38.0628617" lon="15.8760533"><ele>1251.0</ele><time>2026-04-21T11:33:06.301Z</time></trkpt><trkpt lat="38.0628417" lon="15.87613"><ele>1251.0</ele><time>2026-04-21T11:33:07.301Z</time></trkpt><trkpt lat="38.062815" lon="15.8762633"><ele>1251.0</ele><time>2026-04-21T11:33:09.301Z</time></trkpt><trkpt lat="38.06277" lon="15.8764133"><ele>1251.0</ele><time>2026-04-21T11:33:11.301Z</time></trkpt><trkpt lat="38.0626867" lon="15.8765067"><ele>1251.0</ele><time>2026-04-21T11:33:13.301Z</time></trkpt><trkpt lat="38.0625783" lon="15.8765767"><ele>1251.0</ele><time>2026-04-21T11:33:15.301Z</time></trkpt><trkpt lat="38.0624667" lon="15.8766267"><ele>1251.0</ele><time>2026-04-21T11:33:17.301Z</time></trkpt><trkpt lat="38.062355" lon="15.8766683"><ele>1251.0</ele><time>2026-04-21T11:33:19.301Z</time></trkpt><trkpt lat="38.0622367" lon="15.8767283"><ele>1251.0</ele><time>2026-04-21T11:33:21.301Z</time></trkpt><trkpt lat="38.06213" lon="15.8768117"><ele>1251.8333333333333</ele><time>2026-04-21T11:33:23.301Z</time></trkpt><trkpt lat="38.06204" lon="15.8769033"><ele>1252.6666666666667</ele><time>2026-04-21T11:33:25.301Z</time></trkpt><trkpt lat="38.0619483" lon="15.8769317"><ele>1253.5</ele><time>2026-04-21T11:33:27.301Z</time></trkpt><trkpt lat="38.0618633" lon="15.8769333"><ele>1254.3333333333335</ele><time>2026-04-21T11:33:29.301Z</time></trkpt><trkpt lat="38.0618" lon="15.876935"><ele>1255.1666666666667</ele><time>2026-04-21T11:33:31.301Z</time></trkpt><trkpt lat="38.0617217" lon="15.87694"><ele>1256.0</ele><time>2026-04-21T11:33:34.301Z</time></trkpt><trkpt lat="38.0616517" lon="15.876955"><ele>1253.3999999999999</ele><time>2026-04-21T11:33:38.301Z</time></trkpt><trkpt lat="38.0615717" lon="15.8769933"><ele>1250.8</ele><time>2026-04-21T11:33:40.3Z</time></trkpt><trkpt lat="38.0614767" lon="15.8770583"><ele>1248.1999999999998</ele><time>2026-04-21T11:33:42.301Z</time></trkpt><trkpt lat="38.0613833" lon="15.8771067"><ele>1245.6</ele><time>2026-04-21T11:33:44.301Z</time></trkpt><trkpt lat="38.061295" lon="15.8771483"><ele>1243.0</ele><time>2026-04-21T11:33:46.301Z</time></trkpt><trkpt lat="38.0612283" lon="15.8771833"><ele>1243.0</ele><time>2026-04-21T11:33:48.301Z</time></trkpt><trkpt lat="38.0611667" lon="15.8772117"><ele>1243.0</ele><time>2026-04-21T11:33:50.301Z</time></trkpt><trkpt lat="38.0611" lon="15.877235"><ele>1243.0</ele><time>2026-04-21T11:33:52.301Z</time></trkpt><trkpt lat="38.06101" lon="15.8772783"><ele>1243.0</ele><time>2026-04-21T11:33:54.301Z</time></trkpt><trkpt lat="38.0609" lon="15.877355"><ele>1243.0</ele><time>2026-04-21T11:33:56.301Z</time></trkpt><trkpt lat="38.0608283" lon="15.8774483"><ele>1243.0</ele><time>2026-04-21T11:33:58.301Z</time></trkpt><trkpt lat="38.0608183" lon="15.8775633"><ele>1243.0</ele><time>2026-04-21T11:34:00.301Z</time></trkpt><trkpt lat="38.0608667" lon="15.8777067"><ele>1243.0</ele><time>2026-04-21T11:34:02.301Z</time></trkpt><trkpt lat="38.0609233" lon="15.8778267"><ele>1243.0</ele><time>2026-04-21T11:34:04.301Z</time></trkpt><trkpt lat="38.0609733" lon="15.8779267"><ele>1243.0</ele><time>2026-04-21T11:34:06.301Z</time></trkpt><trkpt lat="38.061025" lon="15.8779933"><ele>1239.5</ele><time>2026-04-21T11:34:08.301Z</time></trkpt><trkpt lat="38.06108" lon="15.878055"><ele>1236.0</ele><time>2026-04-21T11:34:10.301Z</time></trkpt><trkpt lat="38.06115" lon="15.878115"><ele>1232.5</ele><time>2026-04-21T11:34:12.301Z</time></trkpt><trkpt lat="38.0612267" lon="15.8781717"><ele>1229.0</ele><time>2026-04-21T11:34:14.301Z</time></trkpt><trkpt lat="38.0613017" lon="15.87824"><ele>1225.5</ele><time>2026-04-21T11:34:16.301Z</time></trkpt><trkpt lat="38.0613633" lon="15.8783217"><ele>1222.0</ele><time>2026-04-21T11:34:18.301Z</time></trkpt><trkpt lat="38.0614283" lon="15.8783967"><ele>1217.6666666666665</ele><time>2026-04-21T11:34:20.301Z</time></trkpt><trkpt lat="38.0614817" lon="15.878485"><ele>1213.3333333333333</ele><time>2026-04-21T11:34:22.301Z</time></trkpt><trkpt lat="38.0615117" lon="15.8785767"><ele>1209.0</ele><time>2026-04-21T11:34:24.301Z</time></trkpt><trkpt lat="38.0615267" lon="15.8786717"><ele>1204.6666666666667</ele><time>2026-04-21T11:34:26.301Z</time></trkpt><trkpt lat="38.0615267" lon="15.87877"><ele>1200.3333333333335</ele><time>2026-04-21T11:34:28.301Z</time></trkpt><trkpt lat="38.0615233" lon="15.87888"><ele>1196.0</ele><time>2026-04-21T11:34:30.301Z</time></trkpt><trkpt lat="38.0614983" lon="15.87901"><ele>1196.0</ele><time>2026-04-21T11:34:32.3Z</time></trkpt><trkpt lat="38.0614867" lon="15.8791717"><ele>1196.0</ele><time>2026-04-21T11:34:34.301Z</time></trkpt><trkpt lat="38.061485" lon="15.87926"><ele>1196.0</ele><time>2026-04-21T11:34:35.301Z</time></trkpt><trkpt lat="38.06148" lon="15.8793417"><ele>1196.0</ele><time>2026-04-21T11:34:36.3Z</time></trkpt><trkpt lat="38.06148" lon="15.8794217"><ele>1196.0</ele><time>2026-04-21T11:34:37.301Z</time></trkpt><trkpt lat="38.06148" lon="15.8795067"><ele>1196.0</ele><time>2026-04-21T11:34:38.301Z</time></trkpt><trkpt lat="38.06149" lon="15.8796683"><ele>1195.8</ele><time>2026-04-21T11:34:40.301Z</time></trkpt><trkpt lat="38.06149" lon="15.8797917"><ele>1195.6</ele><time>2026-04-21T11:34:42.301Z</time></trkpt><trkpt lat="38.0614417" lon="15.8798933"><ele>1195.4</ele><time>2026-04-21T11:34:44.301Z</time></trkpt><trkpt lat="38.0613417" lon="15.8799767"><ele>1195.2</ele><time>2026-04-21T11:34:46.301Z</time></trkpt><trkpt lat="38.0612883" lon="15.8800383"><ele>1195.0</ele><time>2026-04-21T11:34:47.301Z</time></trkpt><trkpt lat="38.06124" lon="15.8801017"><ele>1196.2857142857142</ele><time>2026-04-21T11:34:48.301Z</time></trkpt><trkpt lat="38.0611983" lon="15.8801883"><ele>1197.5714285714287</ele><time>2026-04-21T11:34:49.3Z</time></trkpt><trkpt lat="38.0611617" lon="15.8802717"><ele>1198.857142857143</ele><time>2026-04-21T11:34:50.301Z</time></trkpt><trkpt lat="38.0611283" lon="15.88035"><ele>1200.142857142857</ele><time>2026-04-21T11:34:51.301Z</time></trkpt><trkpt lat="38.0610967" lon="15.88042"><ele>1201.4285714285716</ele><time>2026-04-21T11:34:52.301Z</time></trkpt><trkpt lat="38.0610567" lon="15.8804883"><ele>1202.7142857142858</ele><time>2026-04-21T11:34:53.301Z</time></trkpt><trkpt lat="38.061015" lon="15.8805583"><ele>1204.0</ele><time>2026-04-21T11:34:54.301Z</time></trkpt><trkpt lat="38.0609717" lon="15.8806233"><ele>1204.0</ele><time>2026-04-21T11:34:55.301Z</time></trkpt><trkpt lat="38.0609167" lon="15.8806667"><ele>1204.0</ele><time>2026-04-21T11:34:56.301Z</time></trkpt><trkpt lat="38.0607967" lon="15.8807383"><ele>1204.0</ele><time>2026-04-21T11:34:58.3Z</time></trkpt><trkpt lat="38.0606883" lon="15.8807867"><ele>1204.0</ele><time>2026-04-21T11:35:00.301Z</time></trkpt><trkpt lat="38.0605733" lon="15.8808217"><ele>1204.0</ele><time>2026-04-21T11:35:02.301Z</time></trkpt><trkpt lat="38.0604517" lon="15.8808817"><ele>1202.7142857142858</ele><time>2026-04-21T11:35:04.301Z</time></trkpt><trkpt lat="38.0603883" lon="15.8809167"><ele>1201.4285714285716</ele><time>2026-04-21T11:35:05.301Z</time></trkpt><trkpt lat="38.06033" lon="15.8809517"><ele>1200.142857142857</ele><time>2026-04-21T11:35:06.301Z</time></trkpt><trkpt lat="38.0602733" lon="15.881"><ele>1198.857142857143</ele><time>2026-04-21T11:35:07.301Z</time></trkpt><trkpt lat="38.060225" lon="15.88106"><ele>1197.5714285714287</ele><time>2026-04-21T11:35:08.301Z</time></trkpt><trkpt lat="38.0601767" lon="15.8811317"><ele>1196.2857142857142</ele><time>2026-04-21T11:35:09.3Z</time></trkpt><trkpt lat="38.06013" lon="15.8812067"><ele>1195.0</ele><time>2026-04-21T11:35:10.301Z</time></trkpt><trkpt lat="38.0600933" lon="15.8812883"><ele>1195.0</ele><time>2026-04-21T11:35:11.301Z</time></trkpt><trkpt lat="38.0600533" lon="15.881375"><ele>1195.0</ele><time>2026-04-21T11:35:12.301Z</time></trkpt><trkpt lat="38.06001" lon="15.8814517"><ele>1195.0</ele><time>2026-04-21T11:35:13.301Z</time></trkpt><trkpt lat="38.0599617" lon="15.8815317"><ele>1195.0</ele><time>2026-04-21T11:35:14.301Z</time></trkpt><trkpt lat="38.0599017" lon="15.88161"><ele>1195.0</ele><time>2026-04-21T11:35:15.3Z</time></trkpt><trkpt lat="38.0598467" lon="15.8816917"><ele>1195.0</ele><time>2026-04-21T11:35:16.301Z</time></trkpt><trkpt lat="38.059795" lon="15.88177"><ele>1193.6666666666665</ele><time>2026-04-21T11:35:17.301Z</time></trkpt><trkpt lat="38.05975" lon="15.881855"><ele>1192.3333333333333</ele><time>2026-04-21T11:35:18.3Z</time></trkpt><trkpt lat="38.0597083" lon="15.881935"><ele>1191.0</ele><time>2026-04-21T11:35:19.301Z</time></trkpt><trkpt lat="38.05966" lon="15.8820117"><ele>1189.6666666666667</ele><time>2026-04-21T11:35:20.301Z</time></trkpt><trkpt lat="38.0596" lon="15.882095"><ele>1188.3333333333335</ele><time>2026-04-21T11:35:21.301Z</time></trkpt><trkpt lat="38.0595333" lon="15.8821567"><ele>1187.0</ele><time>2026-04-21T11:35:22.301Z</time></trkpt><trkpt lat="38.0594633" lon="15.8821983"><ele>1187.0</ele><time>2026-04-21T11:35:23.301Z</time></trkpt><trkpt lat="38.05939" lon="15.88223"><ele>1187.0</ele><time>2026-04-21T11:35:24.301Z</time></trkpt><trkpt lat="38.05931" lon="15.8822433"><ele>1187.0</ele><time>2026-04-21T11:35:25.301Z</time></trkpt><trkpt lat="38.0592283" lon="15.8822367"><ele>1187.0</ele><time>2026-04-21T11:35:26.301Z</time></trkpt><trkpt lat="38.0591517" lon="15.88223"><ele>1187.0</ele><time>2026-04-21T11:35:27.301Z</time></trkpt><trkpt lat="38.059075" lon="15.8822267"><ele>1187.0</ele><time>2026-04-21T11:35:28.301Z</time></trkpt><trkpt lat="38.0589983" lon="15.88224"><ele>1182.4</ele><time>2026-04-21T11:35:29.301Z</time></trkpt><trkpt lat="38.0589083" lon="15.8822783"><ele>1177.8000000000002</ele><time>2026-04-21T11:35:30.301Z</time></trkpt><trkpt lat="38.0588217" lon="15.8823317"><ele>1173.2</ele><time>2026-04-21T11:35:31.301Z</time></trkpt><trkpt lat="38.058735" lon="15.8823833"><ele>1168.6000000000001</ele><time>2026-04-21T11:35:32.301Z</time></trkpt><trkpt lat="38.0586467" lon="15.8824267"><ele>1164.0</ele><time>2026-04-21T11:35:33.301Z</time></trkpt><trkpt lat="38.0585617" lon="15.8824683"><ele>1164.0</ele><time>2026-04-21T11:35:34.301Z</time></trkpt><trkpt lat="38.0584783" lon="15.8824983"><ele>1164.0</ele><time>2026-04-21T11:35:35.301Z</time></trkpt><trkpt lat="38.0584017" lon="15.8825483"><ele>1164.0</ele><time>2026-04-21T11:35:36.301Z</time></trkpt><trkpt lat="38.0583333" lon="15.882615"><ele>1164.0</ele><time>2026-04-21T11:35:37.3Z</time></trkpt><trkpt lat="38.0582633" lon="15.88268"><ele>1164.0</ele><time>2026-04-21T11:35:38.301Z</time></trkpt><trkpt lat="38.05819" lon="15.882745"><ele>1164.0</ele><time>2026-04-21T11:35:39.3Z</time></trkpt><trkpt lat="38.0581183" lon="15.8828067"><ele>1164.1666666666667</ele><time>2026-04-21T11:35:40.301Z</time></trkpt><trkpt lat="38.0580417" lon="15.8828517"><ele>1164.3333333333333</ele><time>2026-04-21T11:35:41.301Z</time></trkpt><trkpt lat="38.0579633" lon="15.8829"><ele>1164.5</ele><time>2026-04-21T11:35:42.301Z</time></trkpt><trkpt lat="38.057885" lon="15.8829417"><ele>1164.6666666666665</ele><time>2026-04-21T11:35:43.301Z</time></trkpt><trkpt lat="38.0578" lon="15.882955"><ele>1164.8333333333333</ele><time>2026-04-21T11:35:44.301Z</time></trkpt><trkpt lat="38.0577217" lon="15.8829667"><ele>1165.0</ele><time>2026-04-21T11:35:45.301Z</time></trkpt><trkpt lat="38.0576483" lon="15.882975"><ele>1164.9999999999998</ele><time>2026-04-21T11:35:46.301Z</time></trkpt><trkpt lat="38.0575733" lon="15.8829833"><ele>1165.0</ele><time>2026-04-21T11:35:47.301Z</time></trkpt><trkpt lat="38.0575033" lon="15.8830117"><ele>1165.0</ele><time>2026-04-21T11:35:48.301Z</time></trkpt><trkpt lat="38.05743" lon="15.8830267"><ele>1165.0</ele><time>2026-04-21T11:35:49.301Z</time></trkpt><trkpt lat="38.0573567" lon="15.883045"><ele>1165.0</ele><time>2026-04-21T11:35:50.301Z</time></trkpt><trkpt lat="38.0572833" lon="15.8830733"><ele>1164.9999999999998</ele><time>2026-04-21T11:35:51.301Z</time></trkpt><trkpt lat="38.0572217" lon="15.8831017"><ele>1165.0</ele><time>2026-04-21T11:35:52.301Z</time></trkpt><trkpt lat="38.05715" lon="15.8831267"><ele>1162.5</ele><time>2026-04-21T11:35:53.301Z</time></trkpt><trkpt lat="38.0570767" lon="15.883145"><ele>1160.0</ele><time>2026-04-21T11:35:54.301Z</time></trkpt><trkpt lat="38.0570033" lon="15.883175"><ele>1157.5</ele><time>2026-04-21T11:35:55.301Z</time></trkpt><trkpt lat="38.0569333" lon="15.883195"><ele>1155.0</ele><time>2026-04-21T11:35:56.301Z</time></trkpt><trkpt lat="38.0568417" lon="15.8831783"><ele>1152.5</ele><time>2026-04-21T11:35:58.301Z</time></trkpt><trkpt lat="38.0568017" lon="15.8830833"><ele>1150.0</ele><time>2026-04-21T11:36:00.301Z</time></trkpt><trkpt lat="38.0567967" lon="15.8829117"><ele>1150.0</ele><time>2026-04-21T11:36:02.301Z</time></trkpt><trkpt lat="38.056795" lon="15.8828133"><ele>1150.0</ele><time>2026-04-21T11:36:03.301Z</time></trkpt><trkpt lat="38.0567917" lon="15.8827117"><ele>1150.0</ele><time>2026-04-21T11:36:04.301Z</time></trkpt><trkpt lat="38.0567817" lon="15.8826183"><ele>1150.0</ele><time>2026-04-21T11:36:05.301Z</time></trkpt><trkpt lat="38.0567683" lon="15.8825333"><ele>1150.0</ele><time>2026-04-21T11:36:06.301Z</time></trkpt><trkpt lat="38.05674" lon="15.8824567"><ele>1150.0</ele><time>2026-04-21T11:36:07.301Z</time></trkpt><trkpt lat="38.0566633" lon="15.882425"><ele>1150.0</ele><time>2026-04-21T11:36:09.3Z</time></trkpt><trkpt lat="38.0565933" lon="15.8825267"><ele>1144.4285714285713</ele><time>2026-04-21T11:36:11.3Z</time></trkpt><trkpt lat="38.0565783" lon="15.882605"><ele>1138.8571428571427</ele><time>2026-04-21T11:36:12.301Z</time></trkpt><trkpt lat="38.0565683" lon="15.88269"><ele>1133.2857142857142</ele><time>2026-04-21T11:36:13.3Z</time></trkpt><trkpt lat="38.05656" lon="15.8827783"><ele>1127.7142857142858</ele><time>2026-04-21T11:36:14.301Z</time></trkpt><trkpt lat="38.0565533" lon="15.8828683"><ele>1122.1428571428573</ele><time>2026-04-21T11:36:15.301Z</time></trkpt><trkpt lat="38.0565383" lon="15.88297"><ele>1116.5714285714287</ele><time>2026-04-21T11:36:16.301Z</time></trkpt><trkpt lat="38.056515" lon="15.8830633"><ele>1111.0</ele><time>2026-04-21T11:36:17.301Z</time></trkpt><trkpt lat="38.0564783" lon="15.8831533"><ele>1111.0</ele><time>2026-04-21T11:36:18.301Z</time></trkpt><trkpt lat="38.0564417" lon="15.883255"><ele>1111.0</ele><time>2026-04-21T11:36:19.301Z</time></trkpt><trkpt lat="38.056405" lon="15.8833517"><ele>1111.0</ele><time>2026-04-21T11:36:20.301Z</time></trkpt><trkpt lat="38.0563567" lon="15.8834417"><ele>1111.0</ele><time>2026-04-21T11:36:21.301Z</time></trkpt><trkpt lat="38.0563083" lon="15.8835233"><ele>1111.0</ele><time>2026-04-21T11:36:22.301Z</time></trkpt><trkpt lat="38.0562567" lon="15.8836017"><ele>1111.0</ele><time>2026-04-21T11:36:23.301Z</time></trkpt><trkpt lat="38.0562067" lon="15.8836733"><ele>1111.3999999999999</ele><time>2026-04-21T11:36:24.301Z</time></trkpt><trkpt lat="38.0561483" lon="15.88374"><ele>1111.8</ele><time>2026-04-21T11:36:25.301Z</time></trkpt><trkpt lat="38.0560967" lon="15.8838"><ele>1112.1999999999998</ele><time>2026-04-21T11:36:26.301Z</time></trkpt><trkpt lat="38.0560433" lon="15.8839167"><ele>1112.6</ele><time>2026-04-21T11:36:28.301Z</time></trkpt><trkpt lat="38.0560533" lon="15.8840333"><ele>1113.0</ele><time>2026-04-21T11:36:30.301Z</time></trkpt><trkpt lat="38.0560933" lon="15.88416"><ele>1113.0</ele><time>2026-04-21T11:36:32.301Z</time></trkpt><trkpt lat="38.0561333" lon="15.8842283"><ele>1113.0</ele><time>2026-04-21T11:36:33.301Z</time></trkpt><trkpt lat="38.05618" lon="15.8842933"><ele>1113.0</ele><time>2026-04-21T11:36:34.301Z</time></trkpt><trkpt lat="38.05623" lon="15.8843517"><ele>1113.0</ele><time>2026-04-21T11:36:35.301Z</time></trkpt><trkpt lat="38.0562867" lon="15.884415"><ele>1113.0</ele><time>2026-04-21T11:36:36.301Z</time></trkpt><trkpt lat="38.0563467" lon="15.884465"><ele>1113.0</ele><time>2026-04-21T11:36:37.301Z</time></trkpt><trkpt lat="38.0563983" lon="15.8845233"><ele>1113.0</ele><time>2026-04-21T11:36:38.301Z</time></trkpt><trkpt lat="38.0564633" lon="15.8846183"><ele>1110.0</ele><time>2026-04-21T11:36:40.301Z</time></trkpt><trkpt lat="38.0564633" lon="15.884705"><ele>1107.0</ele><time>2026-04-21T11:36:42.301Z</time></trkpt><trkpt lat="38.0563883" lon="15.8847517"><ele>1104.0</ele><time>2026-04-21T11:37:42.301Z</time></trkpt><trkpt lat="38.0562833" lon="15.8846733"><ele>1101.0</ele><time>2026-04-21T11:37:44.301Z</time></trkpt><trkpt lat="38.0561867" lon="15.8846067"><ele>1098.0</ele><time>2026-04-21T11:37:45.301Z</time></trkpt><trkpt lat="38.056065" lon="15.8845533"><ele>1098.0</ele><time>2026-04-21T11:37:46.301Z</time></trkpt><trkpt lat="38.05594" lon="15.884535"><ele>1098.0</ele><time>2026-04-21T11:37:47.301Z</time></trkpt><trkpt lat="38.05582" lon="15.8845083"><ele>1098.0</ele><time>2026-04-21T11:37:48.301Z</time></trkpt><trkpt lat="38.0557133" lon="15.8844833"><ele>1098.0</ele><time>2026-04-21T11:37:49.301Z</time></trkpt><trkpt lat="38.0556267" lon="15.8844367"><ele>1095.6666666666667</ele><time>2026-04-21T11:37:50.301Z</time></trkpt><trkpt lat="38.0555483" lon="15.884385"><ele>1093.3333333333333</ele><time>2026-04-21T11:37:51.301Z</time></trkpt><trkpt lat="38.0554833" lon="15.8843167"><ele>1091.0</ele><time>2026-04-21T11:37:52.301Z</time></trkpt><trkpt lat="38.0554383" lon="15.8842417"><ele>1088.6666666666665</ele><time>2026-04-21T11:37:53.3Z</time></trkpt><trkpt lat="38.055355" lon="15.88418"><ele>1086.3333333333333</ele><time>2026-04-21T11:37:55.301Z</time></trkpt><trkpt lat="38.0552917" lon="15.8842617"><ele>1084.0</ele><time>2026-04-21T11:37:57.301Z</time></trkpt><trkpt lat="38.0552567" lon="15.8843283"><ele>1084.0</ele><time>2026-04-21T11:37:58.3Z</time></trkpt><trkpt lat="38.055155" lon="15.8844083"><ele>1084.0</ele><time>2026-04-21T11:38:00.301Z</time></trkpt><trkpt lat="38.0550467" lon="15.8843333"><ele>1084.0</ele><time>2026-04-21T11:38:02.301Z</time></trkpt><trkpt lat="38.0550333" lon="15.88417"><ele>1084.0</ele><time>2026-04-21T11:38:04.301Z</time></trkpt><trkpt lat="38.0550833" lon="15.88405"><ele>1084.0</ele><time>2026-04-21T11:38:06.301Z</time></trkpt><trkpt lat="38.0551183" lon="15.88398"><ele>1084.0</ele><time>2026-04-21T11:38:09.3Z</time></trkpt><trkpt lat="38.05515" lon="15.883885"><ele>1084.0</ele><time>2026-04-21T11:38:12.301Z</time></trkpt><trkpt lat="38.0551783" lon="15.88379"><ele>1084.0</ele><time>2026-04-21T11:38:16.301Z</time></trkpt><trkpt lat="38.0551933" lon="15.8837033"><ele>1084.0</ele><time>2026-04-21T11:38:18.301Z</time></trkpt><trkpt lat="38.0552233" lon="15.88358"><ele>1084.0</ele><time>2026-04-21T11:38:20.301Z</time></trkpt><trkpt lat="38.0552433" lon="15.8834917"><ele>1083.142857142857</ele><time>2026-04-21T11:38:21.301Z</time></trkpt><trkpt lat="38.0552617" lon="15.8834017"><ele>1082.2857142857142</ele><time>2026-04-21T11:38:22.301Z</time></trkpt><trkpt lat="38.05528" lon="15.8833033"><ele>1081.4285714285716</ele><time>2026-04-21T11:38:23.301Z</time></trkpt><trkpt lat="38.055305" lon="15.883215"><ele>1080.5714285714284</ele><time>2026-04-21T11:38:24.301Z</time></trkpt><trkpt lat="38.0553333" lon="15.8831267"><ele>1079.7142857142858</ele><time>2026-04-21T11:38:25.301Z</time></trkpt><trkpt lat="38.05535" lon="15.8830383"><ele>1078.857142857143</ele><time>2026-04-21T11:38:26.301Z</time></trkpt><trkpt lat="38.0553467" lon="15.8829583"><ele>1078.0</ele><time>2026-04-21T11:38:27.301Z</time></trkpt><trkpt lat="38.0552933" lon="15.88286"><ele>1078.0</ele><time>2026-04-21T11:38:29.301Z</time></trkpt><trkpt lat="38.0552267" lon="15.8828717"><ele>1078.0</ele><time>2026-04-21T11:38:31.301Z</time></trkpt><trkpt lat="38.0551567" lon="15.88302"><ele>1078.0</ele><time>2026-04-21T11:38:33.301Z</time></trkpt><trkpt lat="38.05511" lon="15.8831133"><ele>1078.0</ele><time>2026-04-21T11:38:34.301Z</time></trkpt><trkpt lat="38.05506" lon="15.88321"><ele>1078.0</ele><time>2026-04-21T11:38:35.301Z</time></trkpt><trkpt lat="38.05501" lon="15.883305"><ele>1078.0</ele><time>2026-04-21T11:38:36.301Z</time></trkpt><trkpt lat="38.0549583" lon="15.8833917"><ele>1078.0</ele><time>2026-04-21T11:38:37.301Z</time></trkpt><trkpt lat="38.0549" lon="15.8834817"><ele>1078.0</ele><time>2026-04-21T11:38:38.301Z</time></trkpt><trkpt lat="38.0548283" lon="15.883575"><ele>1078.0</ele><time>2026-04-21T11:38:39.301Z</time></trkpt><trkpt lat="38.054745" lon="15.8836617"><ele>1078.0</ele><time>2026-04-21T11:38:40.301Z</time></trkpt><trkpt lat="38.0546667" lon="15.8837367"><ele>1072.4</ele><time>2026-04-21T11:38:41.301Z</time></trkpt><trkpt lat="38.0545917" lon="15.88381"><ele>1066.8</ele><time>2026-04-21T11:38:42.301Z</time></trkpt><trkpt lat="38.0545283" lon="15.88389"><ele>1061.2</ele><time>2026-04-21T11:38:43.3Z</time></trkpt><trkpt lat="38.0544717" lon="15.883985"><ele>1055.6</ele><time>2026-04-21T11:38:44.301Z</time></trkpt><trkpt lat="38.0544233" lon="15.8840867"><ele>1050.0</ele><time>2026-04-21T11:38:45.301Z</time></trkpt><trkpt lat="38.054385" lon="15.8841917"><ele>1049.8333333333333</ele><time>2026-04-21T11:38:46.301Z</time></trkpt><trkpt lat="38.0543533" lon="15.8843033"><ele>1049.6666666666667</ele><time>2026-04-21T11:38:47.3Z</time></trkpt><trkpt lat="38.0543283" lon="15.8844183"><ele>1049.5</ele><time>2026-04-21T11:38:48.301Z</time></trkpt><trkpt lat="38.0543067" lon="15.88453"><ele>1049.3333333333335</ele><time>2026-04-21T11:38:49.301Z</time></trkpt><trkpt lat="38.0542917" lon="15.8846283"><ele>1049.1666666666667</ele><time>2026-04-21T11:38:50.301Z</time></trkpt><trkpt lat="38.0542733" lon="15.8847117"><ele>1049.0</ele><time>2026-04-21T11:38:51.301Z</time></trkpt><trkpt lat="38.054235" lon="15.8848317"><ele>1049.0</ele><time>2026-04-21T11:38:53.301Z</time></trkpt><trkpt lat="38.0541633" lon="15.8848767"><ele>1049.0</ele><time>2026-04-21T11:38:55.301Z</time></trkpt><trkpt lat="38.0540967" lon="15.8848"><ele>1049.0</ele><time>2026-04-21T11:38:57.301Z</time></trkpt><trkpt lat="38.0541" lon="15.8846583"><ele>1049.0</ele><time>2026-04-21T11:38:59.301Z</time></trkpt><trkpt lat="38.054115" lon="15.884575"><ele>1049.0</ele><time>2026-04-21T11:39:00.301Z</time></trkpt><trkpt lat="38.0541367" lon="15.8844917"><ele>1049.0</ele><time>2026-04-21T11:39:01.301Z</time></trkpt><trkpt lat="38.0541617" lon="15.8844133"><ele>1049.0</ele><time>2026-04-21T11:39:02.301Z</time></trkpt><trkpt lat="38.054175" lon="15.8842817"><ele>1049.0</ele><time>2026-04-21T11:39:04.301Z</time></trkpt><trkpt lat="38.054125" lon="15.884175"><ele>1049.0</ele><time>2026-04-21T11:39:06.301Z</time></trkpt><trkpt lat="38.0540033" lon="15.8841217"><ele>1049.0</ele><time>2026-04-21T11:39:08.301Z</time></trkpt><trkpt lat="38.0539183" lon="15.8840967"><ele>1049.0</ele><time>2026-04-21T11:39:09.301Z</time></trkpt><trkpt lat="38.0538317" lon="15.88406"><ele>1044.0</ele><time>2026-04-21T11:39:10.301Z</time></trkpt><trkpt lat="38.05375" lon="15.88403"><ele>1039.0</ele><time>2026-04-21T11:39:11.301Z</time></trkpt><trkpt lat="38.053635" lon="15.8839933"><ele>1034.0</ele><time>2026-04-21T11:39:13.301Z</time></trkpt><trkpt lat="38.0535683" lon="15.884025"><ele>1029.0</ele><time>2026-04-21T11:39:15.301Z</time></trkpt><trkpt lat="38.0535567" lon="15.8841067"><ele>1024.0</ele><time>2026-04-21T11:40:03.301Z</time></trkpt><trkpt lat="38.0535867" lon="15.8842367"><ele>1019.0</ele><time>2026-04-21T11:40:05.301Z</time></trkpt><trkpt lat="38.0536067" lon="15.8843417"><ele>1017.6666666666667</ele><time>2026-04-21T11:40:06.301Z</time></trkpt><trkpt lat="38.05363" lon="15.884465"><ele>1016.3333333333334</ele><time>2026-04-21T11:40:07.301Z</time></trkpt><trkpt lat="38.05365" lon="15.8845867"><ele>1015.0</ele><time>2026-04-21T11:40:08.301Z</time></trkpt><trkpt lat="38.0536433" lon="15.8846933"><ele>1013.6666666666667</ele><time>2026-04-21T11:40:09.301Z</time></trkpt><trkpt lat="38.05363" lon="15.8847783"><ele>1012.3333333333334</ele><time>2026-04-21T11:40:10.301Z</time></trkpt><trkpt lat="38.0536" lon="15.884895"><ele>1011.0</ele><time>2026-04-21T11:40:12.301Z</time></trkpt><trkpt lat="38.05364" lon="15.8850217"><ele>1009.0</ele><time>2026-04-21T11:40:14.301Z</time></trkpt><trkpt lat="38.053675" lon="15.885105"><ele>1007.0</ele><time>2026-04-21T11:40:15.3Z</time></trkpt><trkpt lat="38.0536967" lon="15.8852033"><ele>1005.0</ele><time>2026-04-21T11:40:16.301Z</time></trkpt><trkpt lat="38.0537" lon="15.885305"><ele>1003.0</ele><time>2026-04-21T11:40:17.301Z</time></trkpt><trkpt lat="38.05369" lon="15.88542"><ele>1001.0</ele><time>2026-04-21T11:40:18.301Z</time></trkpt><trkpt lat="38.0536583" lon="15.8855583"><ele>999.0</ele><time>2026-04-21T11:40:19.301Z</time></trkpt><trkpt lat="38.0536283" lon="15.8856933"><ele>999.0</ele><time>2026-04-21T11:40:20.301Z</time></trkpt><trkpt lat="38.0536033" lon="15.8858233"><ele>999.0</ele><time>2026-04-21T11:40:21.301Z</time></trkpt><trkpt lat="38.0535783" lon="15.8859383"><ele>999.0</ele><time>2026-04-21T11:40:22.301Z</time></trkpt><trkpt lat="38.05355" lon="15.88604"><ele>999.0</ele><time>2026-04-21T11:40:23.3Z</time></trkpt><trkpt lat="38.053515" lon="15.8861333"><ele>999.0</ele><time>2026-04-21T11:40:24.301Z</time></trkpt><trkpt lat="38.053475" lon="15.88622"><ele>999.0</ele><time>2026-04-21T11:40:25.301Z</time></trkpt><trkpt lat="38.05344" lon="15.8863083"><ele>997.5</ele><time>2026-04-21T11:40:26.3Z</time></trkpt><trkpt lat="38.05341" lon="15.886395"><ele>996.0</ele><time>2026-04-21T11:40:27.301Z</time></trkpt><trkpt lat="38.0533817" lon="15.8864717"><ele>994.5</ele><time>2026-04-21T11:40:28.301Z</time></trkpt><trkpt lat="38.053305" lon="15.88658"><ele>993.0</ele><time>2026-04-21T11:40:30.301Z</time></trkpt><trkpt lat="38.053195" lon="15.886625"><ele>991.5</ele><time>2026-04-21T11:40:32.301Z</time></trkpt><trkpt lat="38.0531317" lon="15.8866117"><ele>990.0</ele><time>2026-04-21T11:40:33.301Z</time></trkpt><trkpt lat="38.0530583" lon="15.88652"><ele>984.4</ele><time>2026-04-21T11:40:35.301Z</time></trkpt><trkpt lat="38.053075" lon="15.886365"><ele>978.8</ele><time>2026-04-21T11:40:37.301Z</time></trkpt><trkpt lat="38.0531117" lon="15.8862533"><ele>973.2</ele><time>2026-04-21T11:40:39.301Z</time></trkpt><trkpt lat="38.0531483" lon="15.88616"><ele>967.6</ele><time>2026-04-21T11:40:41.301Z</time></trkpt><trkpt lat="38.0531867" lon="15.886055"><ele>962.0</ele><time>2026-04-21T11:40:43.3Z</time></trkpt><trkpt lat="38.053225" lon="15.8859433"><ele>962.0000000000001</ele><time>2026-04-21T11:40:45.301Z</time></trkpt><trkpt lat="38.0532617" lon="15.8858333"><ele>962.0</ele><time>2026-04-21T11:40:47.301Z</time></trkpt><trkpt lat="38.0532633" lon="15.8857533"><ele>962.0</ele><time>2026-04-21T11:40:49.301Z</time></trkpt><trkpt lat="38.05317" lon="15.885775"><ele>962.0</ele><time>2026-04-21T11:40:53.301Z</time></trkpt><trkpt lat="38.0530917" lon="15.885885"><ele>962.0000000000001</ele><time>2026-04-21T11:40:55.301Z</time></trkpt><trkpt lat="38.0530533" lon="15.885955"><ele>962.0</ele><time>2026-04-21T11:40:56.301Z</time></trkpt><trkpt lat="38.053015" lon="15.8860333"><ele>962.0</ele><time>2026-04-21T11:40:57.301Z</time></trkpt><trkpt lat="38.0529817" lon="15.8861017"><ele>962.0</ele><time>2026-04-21T11:40:58.301Z</time></trkpt><trkpt lat="38.0529483" lon="15.88617"><ele>962.0</ele><time>2026-04-21T11:40:59.301Z</time></trkpt><trkpt lat="38.0528917" lon="15.8862933"><ele>962.0</ele><time>2026-04-21T11:41:01.301Z</time></trkpt><trkpt lat="38.0528283" lon="15.886405"><ele>962.0</ele><time>2026-04-21T11:41:03.301Z</time></trkpt><trkpt lat="38.0527617" lon="15.88651"><ele>962.0</ele><time>2026-04-21T11:41:05.301Z</time></trkpt><trkpt lat="38.052685" lon="15.8866083"><ele>962.0</ele><time>2026-04-21T11:41:07.301Z</time></trkpt><trkpt lat="38.0526267" lon="15.886735"><ele>962.0</ele><time>2026-04-21T11:41:09.301Z</time></trkpt><trkpt lat="38.0526333" lon="15.88688"><ele>962.0</ele><time>2026-04-21T11:41:11.301Z</time></trkpt><trkpt lat="38.0526817" lon="15.887025"><ele>960.5000000000001</ele><time>2026-04-21T11:41:13.301Z</time></trkpt><trkpt lat="38.0527067" lon="15.8871"><ele>959.0</ele><time>2026-04-21T11:41:14.301Z</time></trkpt><trkpt lat="38.0527333" lon="15.8871767"><ele>957.5</ele><time>2026-04-21T11:41:15.301Z</time></trkpt><trkpt lat="38.05277" lon="15.8873017"><ele>956.0</ele><time>2026-04-21T11:41:17.301Z</time></trkpt><trkpt lat="38.052745" lon="15.8873883"><ele>954.5000000000001</ele><time>2026-04-21T11:41:19.301Z</time></trkpt><trkpt lat="38.0526283" lon="15.887375"><ele>953.0</ele><time>2026-04-21T11:41:21.301Z</time></trkpt><trkpt lat="38.0525467" lon="15.88736"><ele>953.0000000000001</ele><time>2026-04-21T11:41:22.301Z</time></trkpt><trkpt lat="38.0524617" lon="15.8873667"><ele>953.0</ele><time>2026-04-21T11:41:23.301Z</time></trkpt><trkpt lat="38.0523733" lon="15.88739"><ele>953.0</ele><time>2026-04-21T11:41:24.301Z</time></trkpt><trkpt lat="38.0522917" lon="15.88743"><ele>953.0</ele><time>2026-04-21T11:41:25.301Z</time></trkpt><trkpt lat="38.05221" lon="15.8874783"><ele>953.0000000000001</ele><time>2026-04-21T11:41:26.301Z</time></trkpt><trkpt lat="38.0521267" lon="15.8875217"><ele>953.0</ele><time>2026-04-21T11:41:27.301Z</time></trkpt><trkpt lat="38.05204" lon="15.887565"><ele>950.0000000000001</ele><time>2026-04-21T11:41:28.301Z</time></trkpt><trkpt lat="38.0519567" lon="15.887595"><ele>947.0</ele><time>2026-04-21T11:41:29.301Z</time></trkpt><trkpt lat="38.0518733" lon="15.8876067"><ele>944.0</ele><time>2026-04-21T11:41:30.301Z</time></trkpt><trkpt lat="38.0517933" lon="15.8876083"><ele>941.0</ele><time>2026-04-21T11:41:31.301Z</time></trkpt><trkpt lat="38.0517233" lon="15.8876133"><ele>938.0000000000001</ele><time>2026-04-21T11:41:32.301Z</time></trkpt><trkpt lat="38.0516017" lon="15.8876133"><ele>935.0</ele><time>2026-04-21T11:41:34.301Z</time></trkpt><trkpt lat="38.0514917" lon="15.8876917"><ele>935.0000000000001</ele><time>2026-04-21T11:41:36.301Z</time></trkpt><trkpt lat="38.051455" lon="15.887765"><ele>935.0</ele><time>2026-04-21T11:41:37.301Z</time></trkpt><trkpt lat="38.0514233" lon="15.8878433"><ele>935.0000000000001</ele><time>2026-04-21T11:41:38.301Z</time></trkpt><trkpt lat="38.0513833" lon="15.8879183"><ele>935.0000000000001</ele><time>2026-04-21T11:41:39.301Z</time></trkpt><trkpt lat="38.05133" lon="15.887985"><ele>935.0</ele><time>2026-04-21T11:41:40.301Z</time></trkpt><trkpt lat="38.0512683" lon="15.8880433"><ele>935.0000000000001</ele><time>2026-04-21T11:41:41.301Z</time></trkpt><trkpt lat="38.0511933" lon="15.888095"><ele>935.0000000000001</ele><time>2026-04-21T11:41:42.301Z</time></trkpt><trkpt lat="38.0511183" lon="15.8881383"><ele>935.0000000000001</ele><time>2026-04-21T11:41:43.301Z</time></trkpt><trkpt lat="38.0510467" lon="15.8881967"><ele>935.0</ele><time>2026-04-21T11:41:44.301Z</time></trkpt><trkpt lat="38.0509783" lon="15.8882617"><ele>935.0</ele><time>2026-04-21T11:41:45.301Z</time></trkpt><trkpt lat="38.050905" lon="15.888325"><ele>935.0</ele><time>2026-04-21T11:41:46.301Z</time></trkpt><trkpt lat="38.05082" lon="15.8883817"><ele>935.0000000000001</ele><time>2026-04-21T11:41:47.301Z</time></trkpt><trkpt lat="38.050735" lon="15.8884317"><ele>935.0</ele><time>2026-04-21T11:41:48.301Z</time></trkpt><trkpt lat="38.0506433" lon="15.888465"><ele>940.0</ele><time>2026-04-21T11:41:49.301Z</time></trkpt><trkpt lat="38.0505483" lon="15.88849"><ele>945.0</ele><time>2026-04-21T11:41:50.301Z</time></trkpt><trkpt lat="38.050455" lon="15.8885133"><ele>950.0</ele><time>2026-04-21T11:41:51.301Z</time></trkpt><trkpt lat="38.0503633" lon="15.8885383"><ele>955.0</ele><time>2026-04-21T11:41:52.301Z</time></trkpt><trkpt lat="38.0502767" lon="15.8885617"><ele>960.0</ele><time>2026-04-21T11:41:53.301Z</time></trkpt><trkpt lat="38.05019" lon="15.88857"><ele>960.0</ele><time>2026-04-21T11:41:54.301Z</time></trkpt><trkpt lat="38.0501017" lon="15.8885867"><ele>960.0</ele><time>2026-04-21T11:41:55.301Z</time></trkpt><trkpt lat="38.05001" lon="15.8886067"><ele>960.0</ele><time>2026-04-21T11:41:56.301Z</time></trkpt><trkpt lat="38.049915" lon="15.8886233"><ele>960.0</ele><time>2026-04-21T11:41:57.301Z</time></trkpt><trkpt lat="38.0498217" lon="15.88863"><ele>960.0</ele><time>2026-04-21T11:41:58.301Z</time></trkpt><trkpt lat="38.0497367" lon="15.8886217"><ele>960.1428571428571</ele><time>2026-04-21T11:41:59.301Z</time></trkpt><trkpt lat="38.0496617" lon="15.8886117"><ele>960.2857142857142</ele><time>2026-04-21T11:42:00.301Z</time></trkpt><trkpt lat="38.0495883" lon="15.8886"><ele>960.4285714285713</ele><time>2026-04-21T11:42:01.301Z</time></trkpt><trkpt lat="38.0495233" lon="15.8885817"><ele>960.5714285714286</ele><time>2026-04-21T11:42:02.301Z</time></trkpt><trkpt lat="38.0494583" lon="15.8885667"><ele>960.7142857142856</ele><time>2026-04-21T11:42:03.3Z</time></trkpt><trkpt lat="38.0493867" lon="15.88856"><ele>960.8571428571428</ele><time>2026-04-21T11:42:04.301Z</time></trkpt><trkpt lat="38.0493183" lon="15.8885567"><ele>961.0</ele><time>2026-04-21T11:42:05.301Z</time></trkpt><trkpt lat="38.0492467" lon="15.8885733"><ele>961.0</ele><time>2026-04-21T11:42:06.301Z</time></trkpt><trkpt lat="38.049165" lon="15.8886083"><ele>960.9999999999999</ele><time>2026-04-21T11:42:07.301Z</time></trkpt><trkpt lat="38.0490817" lon="15.8886633"><ele>960.9999999999999</ele><time>2026-04-21T11:42:08.301Z</time></trkpt><trkpt lat="38.0489967" lon="15.8887267"><ele>961.0</ele><time>2026-04-21T11:42:09.301Z</time></trkpt><trkpt lat="38.0489117" lon="15.8887967"><ele>961.0</ele><time>2026-04-21T11:42:10.301Z</time></trkpt><trkpt lat="38.0488267" lon="15.88886"><ele>956.8</ele><time>2026-04-21T11:42:11.301Z</time></trkpt><trkpt lat="38.0487467" lon="15.8889167"><ele>952.5999999999999</ele><time>2026-04-21T11:42:12.301Z</time></trkpt><trkpt lat="38.0486667" lon="15.88897"><ele>948.4</ele><time>2026-04-21T11:42:13.301Z</time></trkpt><trkpt lat="38.0485967" lon="15.88902"><ele>944.2</ele><time>2026-04-21T11:42:14.3Z</time></trkpt><trkpt lat="38.0485383" lon="15.88907"><ele>940.0</ele><time>2026-04-21T11:42:15.301Z</time></trkpt><trkpt lat="38.04844" lon="15.8891533"><ele>940.0</ele><time>2026-04-21T11:42:17.301Z</time></trkpt><trkpt lat="38.0483567" lon="15.8892317"><ele>940.0</ele><time>2026-04-21T11:42:19.301Z</time></trkpt><trkpt lat="38.0482767" lon="15.8893233"><ele>940.0</ele><time>2026-04-21T11:42:21.301Z</time></trkpt><trkpt lat="38.0481917" lon="15.889445"><ele>940.0</ele><time>2026-04-21T11:42:23.301Z</time></trkpt><trkpt lat="38.04815" lon="15.8895317"><ele>940.0</ele><time>2026-04-21T11:42:24.301Z</time></trkpt><trkpt lat="38.048105" lon="15.88962"><ele>938.9999999999999</ele><time>2026-04-21T11:42:25.3Z</time></trkpt><trkpt lat="38.0480683" lon="15.8897133"><ele>938.0</ele><time>2026-04-21T11:42:26.301Z</time></trkpt><trkpt lat="38.0480433" lon="15.8898167"><ele>937.0</ele><time>2026-04-21T11:42:27.301Z</time></trkpt><trkpt lat="38.04802" lon="15.8899217"><ele>936.0</ele><time>2026-04-21T11:42:28.301Z</time></trkpt><trkpt lat="38.0479933" lon="15.8900267"><ele>934.9999999999999</ele><time>2026-04-21T11:42:29.3Z</time></trkpt><trkpt lat="38.04796" lon="15.8901317"><ele>934.0</ele><time>2026-04-21T11:42:30.301Z</time></trkpt><trkpt lat="38.0479283" lon="15.8902333"><ele>933.9999999999999</ele><time>2026-04-21T11:42:31.301Z</time></trkpt><trkpt lat="38.0478983" lon="15.8903317"><ele>934.0</ele><time>2026-04-21T11:42:32.301Z</time></trkpt><trkpt lat="38.0478733" lon="15.8904233"><ele>933.9999999999999</ele><time>2026-04-21T11:42:33.301Z</time></trkpt><trkpt lat="38.0478467" lon="15.8905083"><ele>933.9999999999999</ele><time>2026-04-21T11:42:34.301Z</time></trkpt><trkpt lat="38.0478133" lon="15.8905817"><ele>934.0</ele><time>2026-04-21T11:42:35.301Z</time></trkpt><trkpt lat="38.0477767" lon="15.8906633"><ele>933.9999999999999</ele><time>2026-04-21T11:42:36.301Z</time></trkpt><trkpt lat="38.0477467" lon="15.89074"><ele>933.9999999999999</ele><time>2026-04-21T11:42:37.301Z</time></trkpt><trkpt lat="38.04772" lon="15.890825"><ele>933.9999999999999</ele><time>2026-04-21T11:42:38.301Z</time></trkpt><trkpt lat="38.0477117" lon="15.890915"><ele>934.0</ele><time>2026-04-21T11:42:39.301Z</time></trkpt><trkpt lat="38.047715" lon="15.8910067"><ele>933.9999999999999</ele><time>2026-04-21T11:42:40.301Z</time></trkpt><trkpt lat="38.0477183" lon="15.891095"><ele>933.9999999999999</ele><time>2026-04-21T11:42:41.301Z</time></trkpt><trkpt lat="38.0477283" lon="15.891185"><ele>934.0</ele><time>2026-04-21T11:42:42.301Z</time></trkpt><trkpt lat="38.047735" lon="15.89128"><ele>933.9999999999999</ele><time>2026-04-21T11:42:43.301Z</time></trkpt><trkpt lat="38.0477417" lon="15.8913767"><ele>933.9999999999999</ele><time>2026-04-21T11:42:44.301Z</time></trkpt><trkpt lat="38.04775" lon="15.8914783"><ele>933.4999999999999</ele><time>2026-04-21T11:42:45.301Z</time></trkpt><trkpt lat="38.0477633" lon="15.8915817"><ele>933.0</ele><time>2026-04-21T11:42:46.301Z</time></trkpt><trkpt lat="38.0477667" lon="15.89167"><ele>932.5</ele><time>2026-04-21T11:42:47.301Z</time></trkpt><trkpt lat="38.0478067" lon="15.8918083"><ele>932.0</ele><time>2026-04-21T11:42:49.301Z</time></trkpt><trkpt lat="38.0478" lon="15.891895"><ele>931.4999999999999</ele><time>2026-04-21T11:43:00.301Z</time></trkpt><trkpt lat="38.047805" lon="15.8920067"><ele>931.0</ele><time>2026-04-21T11:43:03.301Z</time></trkpt><trkpt lat="38.0477983" lon="15.8921433"><ele>930.1666666666666</ele><time>2026-04-21T11:43:05.301Z</time></trkpt><trkpt lat="38.0477517" lon="15.8922667"><ele>929.3333333333333</ele><time>2026-04-21T11:43:07.301Z</time></trkpt><trkpt lat="38.04769" lon="15.8923917"><ele>928.5</ele><time>2026-04-21T11:43:09.3Z</time></trkpt><trkpt lat="38.047665" lon="15.8924717"><ele>927.6666666666667</ele><time>2026-04-21T11:43:10.301Z</time></trkpt><trkpt lat="38.047635" lon="15.8925533"><ele>926.8333333333334</ele><time>2026-04-21T11:43:11.301Z</time></trkpt><trkpt lat="38.047615" lon="15.89264"><ele>926.0</ele><time>2026-04-21T11:43:12.301Z</time></trkpt><trkpt lat="38.0476" lon="15.8927217"><ele>924.1666666666667</ele><time>2026-04-21T11:43:13.3Z</time></trkpt><trkpt lat="38.0476083" lon="15.8928667"><ele>922.3333333333334</ele><time>2026-04-21T11:43:15.301Z</time></trkpt><trkpt lat="38.0476867" lon="15.8929583"><ele>920.5</ele><time>2026-04-21T11:43:17.301Z</time></trkpt><trkpt lat="38.0476933" lon="15.893045"><ele>918.6666666666667</ele><time>2026-04-21T11:43:20.301Z</time></trkpt><trkpt lat="38.047615" lon="15.89301"><ele>916.8333333333334</ele><time>2026-04-21T11:43:22.301Z</time></trkpt><trkpt lat="38.0475617" lon="15.89295"><ele>915.0</ele><time>2026-04-21T11:43:23.301Z</time></trkpt><trkpt lat="38.04751" lon="15.8928833"><ele>915.0</ele><time>2026-04-21T11:43:24.301Z</time></trkpt><trkpt lat="38.047465" lon="15.89282"><ele>915.0000000000001</ele><time>2026-04-21T11:43:25.301Z</time></trkpt><trkpt lat="38.04744" lon="15.892745"><ele>915.0</ele><time>2026-04-21T11:43:26.301Z</time></trkpt><trkpt lat="38.047425" lon="15.8926667"><ele>915.0</ele><time>2026-04-21T11:43:27.3Z</time></trkpt><trkpt lat="38.0474133" lon="15.8925833"><ele>915.0000000000001</ele><time>2026-04-21T11:43:28.301Z</time></trkpt><trkpt lat="38.0473883" lon="15.89249"><ele>915.0</ele><time>2026-04-21T11:43:29.301Z</time></trkpt><trkpt lat="38.04736" lon="15.8923983"><ele>915.0</ele><time>2026-04-21T11:43:30.3Z</time></trkpt><trkpt lat="38.0473333" lon="15.8923067"><ele>913.6666666666666</ele><time>2026-04-21T11:43:31.301Z</time></trkpt><trkpt lat="38.04731" lon="15.8922133"><ele>912.3333333333333</ele><time>2026-04-21T11:43:32.301Z</time></trkpt><trkpt lat="38.0472867" lon="15.89212"><ele>911.0</ele><time>2026-04-21T11:43:33.3Z</time></trkpt><trkpt lat="38.0472617" lon="15.8920283"><ele>909.6666666666666</ele><time>2026-04-21T11:43:34.301Z</time></trkpt><trkpt lat="38.0472433" lon="15.8919433"><ele>908.3333333333333</ele><time>2026-04-21T11:43:35.301Z</time></trkpt><trkpt lat="38.0472383" lon="15.8918017"><ele>907.0</ele><time>2026-04-21T11:43:37.301Z</time></trkpt><trkpt lat="38.0471883" lon="15.8917367"><ele>905.6</ele><time>2026-04-21T11:43:39.301Z</time></trkpt><trkpt lat="38.0471267" lon="15.8918183"><ele>904.2</ele><time>2026-04-21T11:43:41.301Z</time></trkpt><trkpt lat="38.047115" lon="15.8919"><ele>902.8</ele><time>2026-04-21T11:43:42.3Z</time></trkpt><trkpt lat="38.0470517" lon="15.892025"><ele>901.4</ele><time>2026-04-21T11:43:44.301Z</time></trkpt><trkpt lat="38.0469733" lon="15.8921117"><ele>900.0</ele><time>2026-04-21T11:43:46.301Z</time></trkpt><trkpt lat="38.0469283" lon="15.8922217"><ele>900.0</ele><time>2026-04-21T11:43:48.301Z</time></trkpt><trkpt lat="38.0469117" lon="15.89234"><ele>900.0</ele><time>2026-04-21T11:43:50.301Z</time></trkpt><trkpt lat="38.046915" lon="15.8924583"><ele>900.0</ele><time>2026-04-21T11:43:52.301Z</time></trkpt><trkpt lat="38.0469267" lon="15.8926067"><ele>900.0</ele><time>2026-04-21T11:43:54.301Z</time></trkpt><trkpt lat="38.0469383" lon="15.89276"><ele>900.0</ele><time>2026-04-21T11:43:56.301Z</time></trkpt><trkpt lat="38.0469417" lon="15.892915"><ele>899.1666666666666</ele><time>2026-04-21T11:43:58.301Z</time></trkpt><trkpt lat="38.0469483" lon="15.8929967"><ele>898.3333333333333</ele><time>2026-04-21T11:43:59.3Z</time></trkpt><trkpt lat="38.04697" lon="15.8931367"><ele>897.5</ele><time>2026-04-21T11:44:01.301Z</time></trkpt><trkpt lat="38.0469833" lon="15.893235"><ele>896.6666666666666</ele><time>2026-04-21T11:44:03.301Z</time></trkpt><trkpt lat="38.046895" lon="15.8931933"><ele>895.8333333333333</ele><time>2026-04-21T11:44:06.301Z</time></trkpt><trkpt lat="38.04688" lon="15.89311"><ele>895.0</ele><time>2026-04-21T11:44:07.3Z</time></trkpt><trkpt lat="38.04688" lon="15.8930167"><ele>895.0</ele><time>2026-04-21T11:44:08.301Z</time></trkpt><trkpt lat="38.0468783" lon="15.8929183"><ele>895.0</ele><time>2026-04-21T11:44:09.301Z</time></trkpt><trkpt lat="38.04687" lon="15.8928217"><ele>895.0</ele><time>2026-04-21T11:44:10.301Z</time></trkpt><trkpt lat="38.0468583" lon="15.8927333"><ele>895.0</ele><time>2026-04-21T11:44:11.301Z</time></trkpt><trkpt lat="38.04685" lon="15.892645"><ele>895.0</ele><time>2026-04-21T11:44:12.301Z</time></trkpt><trkpt lat="38.04684" lon="15.8925583"><ele>895.0</ele><time>2026-04-21T11:44:13.301Z</time></trkpt><trkpt lat="38.046825" lon="15.89248"><ele>895.0</ele><time>2026-04-21T11:44:14.301Z</time></trkpt><trkpt lat="38.0468133" lon="15.8923983"><ele>895.7142857142857</ele><time>2026-04-21T11:44:15.301Z</time></trkpt><trkpt lat="38.0468033" lon="15.8923183"><ele>896.4285714285716</ele><time>2026-04-21T11:44:16.301Z</time></trkpt><trkpt lat="38.0467917" lon="15.8922367"><ele>897.1428571428572</ele><time>2026-04-21T11:44:17.301Z</time></trkpt><trkpt lat="38.04678" lon="15.8921533"><ele>897.8571428571429</ele><time>2026-04-21T11:44:18.301Z</time></trkpt><trkpt lat="38.046765" lon="15.892065"><ele>898.5714285714287</ele><time>2026-04-21T11:44:19.301Z</time></trkpt><trkpt lat="38.04676" lon="15.8919767"><ele>899.2857142857144</ele><time>2026-04-21T11:44:20.301Z</time></trkpt><trkpt lat="38.0467567" lon="15.89189"><ele>900.0000000000001</ele><time>2026-04-21T11:44:21.301Z</time></trkpt><trkpt lat="38.04675" lon="15.8918083"><ele>901.1666666666666</ele><time>2026-04-21T11:44:22.301Z</time></trkpt><trkpt lat="38.0467083" lon="15.891665"><ele>902.3333333333333</ele><time>2026-04-21T11:44:24.3Z</time></trkpt><trkpt lat="38.0466617" lon="15.891595"><ele>903.5</ele><time>2026-04-21T11:44:25.301Z</time></trkpt><trkpt lat="38.0466117" lon="15.8915283"><ele>904.6666666666666</ele><time>2026-04-21T11:44:26.301Z</time></trkpt><trkpt lat="38.04656" lon="15.8914583"><ele>905.8333333333333</ele><time>2026-04-21T11:44:27.301Z</time></trkpt><trkpt lat="38.0465133" lon="15.8913867"><ele>907.0</ele><time>2026-04-21T11:44:28.301Z</time></trkpt><trkpt lat="38.04647" lon="15.8913217"><ele>902.8333333333333</ele><time>2026-04-21T11:44:29.3Z</time></trkpt><trkpt lat="38.0463983" lon="15.8912"><ele>898.6666666666666</ele><time>2026-04-21T11:44:31.301Z</time></trkpt><trkpt lat="38.0463633" lon="15.8911183"><ele>894.5</ele><time>2026-04-21T11:44:32.301Z</time></trkpt><trkpt lat="38.04633" lon="15.8910267"><ele>890.3333333333333</ele><time>2026-04-21T11:44:33.301Z</time></trkpt><trkpt lat="38.0462933" lon="15.8909383"><ele>886.1666666666666</ele><time>2026-04-21T11:44:34.301Z</time></trkpt><trkpt lat="38.0462617" lon="15.89085"><ele>882.0</ele><time>2026-04-21T11:44:35.3Z</time></trkpt><trkpt lat="38.0462267" lon="15.8907717"><ele>882.0</ele><time>2026-04-21T11:44:36.301Z</time></trkpt><trkpt lat="38.0461933" lon="15.8907033"><ele>882.0</ele><time>2026-04-21T11:44:37.301Z</time></trkpt><trkpt lat="38.0461417" lon="15.890615"><ele>882.0</ele><time>2026-04-21T11:44:39.301Z</time></trkpt><trkpt lat="38.046095" lon="15.89055"><ele>882.0</ele><time>2026-04-21T11:44:42.301Z</time></trkpt><trkpt lat="38.0460283" lon="15.8906033"><ele>882.0</ele><time>2026-04-21T11:45:26.3Z</time></trkpt><trkpt lat="38.04604" lon="15.8907633"><ele>882.0</ele><time>2026-04-21T11:45:28.301Z</time></trkpt><trkpt lat="38.0460717" lon="15.8909"><ele>878.5</ele><time>2026-04-21T11:45:29.301Z</time></trkpt><trkpt lat="38.04613" lon="15.8910483"><ele>875.0</ele><time>2026-04-21T11:45:30.301Z</time></trkpt><trkpt lat="38.0462" lon="15.8912033"><ele>871.5</ele><time>2026-04-21T11:45:31.301Z</time></trkpt><trkpt lat="38.04627" lon="15.8913433"><ele>868.0</ele><time>2026-04-21T11:45:32.301Z</time></trkpt><trkpt lat="38.0463267" lon="15.8914567"><ele>867.9999999999999</ele><time>2026-04-21T11:45:33.301Z</time></trkpt><trkpt lat="38.04637" lon="15.8915417"><ele>868.0</ele><time>2026-04-21T11:45:34.301Z</time></trkpt><trkpt lat="38.04641" lon="15.8916117"><ele>868.0</ele><time>2026-04-21T11:45:35.301Z</time></trkpt><trkpt lat="38.046475" lon="15.89174"><ele>868.0</ele><time>2026-04-21T11:45:37.301Z</time></trkpt><trkpt lat="38.0465183" lon="15.89181"><ele>867.9999999999999</ele><time>2026-04-21T11:45:38.3Z</time></trkpt><trkpt lat="38.0465583" lon="15.8918833"><ele>868.0</ele><time>2026-04-21T11:45:39.301Z</time></trkpt><trkpt lat="38.046595" lon="15.891965"><ele>865.4999999999999</ele><time>2026-04-21T11:45:40.3Z</time></trkpt><trkpt lat="38.046605" lon="15.8920633"><ele>863.0</ele><time>2026-04-21T11:45:41.301Z</time></trkpt><trkpt lat="38.04661" lon="15.8921617"><ele>860.5</ele><time>2026-04-21T11:45:42.301Z</time></trkpt><trkpt lat="38.046615" lon="15.8922583"><ele>858.0</ele><time>2026-04-21T11:45:43.301Z</time></trkpt><trkpt lat="38.0466233" lon="15.8923533"><ele>855.4999999999999</ele><time>2026-04-21T11:45:44.301Z</time></trkpt><trkpt lat="38.04664" lon="15.892465"><ele>853.0</ele><time>2026-04-21T11:45:45.301Z</time></trkpt><trkpt lat="38.0466483" lon="15.8925667"><ele>853.6666666666666</ele><time>2026-04-21T11:45:46.301Z</time></trkpt><trkpt lat="38.04665" lon="15.8926533"><ele>854.3333333333333</ele><time>2026-04-21T11:45:47.301Z</time></trkpt><trkpt lat="38.0466483" lon="15.8927383"><ele>855.0</ele><time>2026-04-21T11:45:48.301Z</time></trkpt><trkpt lat="38.0466517" lon="15.8928267"><ele>855.6666666666667</ele><time>2026-04-21T11:45:49.301Z</time></trkpt><trkpt lat="38.0466317" lon="15.89291"><ele>856.3333333333334</ele><time>2026-04-21T11:45:50.301Z</time></trkpt><trkpt lat="38.0465933" lon="15.89308"><ele>857.0</ele><time>2026-04-21T11:45:52.301Z</time></trkpt><trkpt lat="38.0465817" lon="15.8932267"><ele>857.0</ele><time>2026-04-21T11:45:54.301Z</time></trkpt><trkpt lat="38.04662" lon="15.8933817"><ele>857.0</ele><time>2026-04-21T11:45:56.301Z</time></trkpt><trkpt lat="38.0466717" lon="15.893465"><ele>857.0</ele><time>2026-04-21T11:45:57.301Z</time></trkpt><trkpt lat="38.0467467" lon="15.8935317"><ele>857.0</ele><time>2026-04-21T11:45:58.301Z</time></trkpt><trkpt lat="38.0468333" lon="15.893595"><ele>857.0</ele><time>2026-04-21T11:45:59.301Z</time></trkpt><trkpt lat="38.0469217" lon="15.8936417"><ele>859.3333333333334</ele><time>2026-04-21T11:46:00.301Z</time></trkpt><trkpt lat="38.0470083" lon="15.8936767"><ele>861.6666666666667</ele><time>2026-04-21T11:46:01.301Z</time></trkpt><trkpt lat="38.04709" lon="15.893715"><ele>864.0</ele><time>2026-04-21T11:46:02.3Z</time></trkpt><trkpt lat="38.0471733" lon="15.8937467"><ele>866.3333333333333</ele><time>2026-04-21T11:46:03.301Z</time></trkpt><trkpt lat="38.0472517" lon="15.8937917"><ele>868.6666666666666</ele><time>2026-04-21T11:46:04.301Z</time></trkpt><trkpt lat="38.0473333" lon="15.8938483"><ele>871.0</ele><time>2026-04-21T11:46:05.301Z</time></trkpt><trkpt lat="38.0474083" lon="15.89392"><ele>871.1999999999999</ele><time>2026-04-21T11:46:06.301Z</time></trkpt><trkpt lat="38.0474783" lon="15.8940033"><ele>871.3999999999999</ele><time>2026-04-21T11:46:07.301Z</time></trkpt><trkpt lat="38.0475483" lon="15.8940867"><ele>871.6</ele><time>2026-04-21T11:46:08.301Z</time></trkpt><trkpt lat="38.0476167" lon="15.8941617"><ele>871.8</ele><time>2026-04-21T11:46:09.301Z</time></trkpt><trkpt lat="38.04769" lon="15.89423"><ele>872.0</ele><time>2026-04-21T11:46:10.301Z</time></trkpt><trkpt lat="38.0477683" lon="15.8942883"><ele>872.0</ele><time>2026-04-21T11:46:11.3Z</time></trkpt><trkpt lat="38.0478483" lon="15.8943433"><ele>872.0</ele><time>2026-04-21T11:46:12.3Z</time></trkpt><trkpt lat="38.0479333" lon="15.8944033"><ele>872.0</ele><time>2026-04-21T11:46:13.301Z</time></trkpt><trkpt lat="38.0480067" lon="15.8944717"><ele>872.0</ele><time>2026-04-21T11:46:14.301Z</time></trkpt><trkpt lat="38.04807" lon="15.8945483"><ele>872.0</ele><time>2026-04-21T11:46:15.301Z</time></trkpt><trkpt lat="38.0481283" lon="15.89463"><ele>872.0</ele><time>2026-04-21T11:46:16.301Z</time></trkpt><trkpt lat="38.0481767" lon="15.894725"><ele>872.0</ele><time>2026-04-21T11:46:17.301Z</time></trkpt><trkpt lat="38.048205" lon="15.894835"><ele>872.0</ele><time>2026-04-21T11:46:18.301Z</time></trkpt><trkpt lat="38.048205" lon="15.894955"><ele>872.0</ele><time>2026-04-21T11:46:19.301Z</time></trkpt><trkpt lat="38.0481867" lon="15.8950733"><ele>872.0</ele><time>2026-04-21T11:46:20.3Z</time></trkpt><trkpt lat="38.0481717" lon="15.8951883"><ele>869.8333333333334</ele><time>2026-04-21T11:46:21.301Z</time></trkpt><trkpt lat="38.048165" lon="15.8953033"><ele>867.6666666666667</ele><time>2026-04-21T11:46:22.301Z</time></trkpt><trkpt lat="38.0481633" lon="15.8954233"><ele>865.5</ele><time>2026-04-21T11:46:23.301Z</time></trkpt><trkpt lat="38.0481617" lon="15.8955283"><ele>863.3333333333333</ele><time>2026-04-21T11:46:24.301Z</time></trkpt><trkpt lat="38.0481567" lon="15.895635"><ele>861.1666666666666</ele><time>2026-04-21T11:46:25.301Z</time></trkpt><trkpt lat="38.04815" lon="15.895745"><ele>859.0</ele><time>2026-04-21T11:46:26.301Z</time></trkpt><trkpt lat="38.0481483" lon="15.895845"><ele>859.4999999999999</ele><time>2026-04-21T11:46:27.301Z</time></trkpt><trkpt lat="38.048155" lon="15.8959483"><ele>860.0</ele><time>2026-04-21T11:46:28.301Z</time></trkpt><trkpt lat="38.048165" lon="15.8960567"><ele>860.5</ele><time>2026-04-21T11:46:29.301Z</time></trkpt><trkpt lat="38.0481667" lon="15.8961567"><ele>861.0</ele><time>2026-04-21T11:46:30.301Z</time></trkpt><trkpt lat="38.048175" lon="15.8962633"><ele>861.4999999999999</ele><time>2026-04-21T11:46:31.301Z</time></trkpt><trkpt lat="38.0481867" lon="15.8963683"><ele>862.0</ele><time>2026-04-21T11:46:32.301Z</time></trkpt><trkpt lat="38.0482033" lon="15.8964783"><ele>861.9999999999999</ele><time>2026-04-21T11:46:33.3Z</time></trkpt><trkpt lat="38.0482183" lon="15.896585"><ele>862.0</ele><time>2026-04-21T11:46:34.301Z</time></trkpt><trkpt lat="38.04824" lon="15.89668"><ele>862.0</ele><time>2026-04-21T11:46:35.301Z</time></trkpt><trkpt lat="38.0482683" lon="15.8967733"><ele>862.0</ele><time>2026-04-21T11:46:36.301Z</time></trkpt><trkpt lat="38.0482983" lon="15.8968633"><ele>861.9999999999999</ele><time>2026-04-21T11:46:37.301Z</time></trkpt><trkpt lat="38.048335" lon="15.896945"><ele>862.0</ele><time>2026-04-21T11:46:38.301Z</time></trkpt><trkpt lat="38.0483633" lon="15.897025"><ele>866.2</ele><time>2026-04-21T11:46:39.301Z</time></trkpt><trkpt lat="38.0484033" lon="15.8971517"><ele>870.4000000000001</ele><time>2026-04-21T11:46:41.301Z</time></trkpt><trkpt lat="38.0483883" lon="15.8972483"><ele>874.5999999999999</ele><time>2026-04-21T11:46:43.301Z</time></trkpt><trkpt lat="38.0483033" lon="15.8973183"><ele>878.8</ele><time>2026-04-21T11:46:45.301Z</time></trkpt><trkpt lat="38.0481867" lon="15.8973717"><ele>883.0</ele><time>2026-04-21T11:46:47.301Z</time></trkpt><trkpt lat="38.048125" lon="15.8973983"><ele>882.9999999999999</ele><time>2026-04-21T11:46:48.301Z</time></trkpt><trkpt lat="38.0480283" lon="15.8974517"><ele>883.0</ele><time>2026-04-21T11:46:50.301Z</time></trkpt><trkpt lat="38.0479733" lon="15.8974917"><ele>883.0</ele><time>2026-04-21T11:46:53.301Z</time></trkpt><trkpt lat="38.047935" lon="15.897575"><ele>883.0</ele><time>2026-04-21T11:48:28.301Z</time></trkpt><trkpt lat="38.0478533" lon="15.89763"><ele>882.9999999999999</ele><time>2026-04-21T11:48:29.301Z</time></trkpt><trkpt lat="38.047775" lon="15.8976883"><ele>883.0</ele><time>2026-04-21T11:48:30.301Z</time></trkpt><trkpt lat="38.0477083" lon="15.89775"><ele>886.6666666666666</ele><time>2026-04-21T11:48:31.301Z</time></trkpt><trkpt lat="38.04765" lon="15.8978183"><ele>890.3333333333333</ele><time>2026-04-21T11:48:32.301Z</time></trkpt><trkpt lat="38.0475917" lon="15.8978967"><ele>894.0</ele><time>2026-04-21T11:48:33.301Z</time></trkpt><trkpt lat="38.0475317" lon="15.8979733"><ele>897.6666666666667</ele><time>2026-04-21T11:48:34.3Z</time></trkpt><trkpt lat="38.0474667" lon="15.8980533"><ele>901.3333333333334</ele><time>2026-04-21T11:48:35.301Z</time></trkpt><trkpt lat="38.0473917" lon="15.8981233"><ele>905.0</ele><time>2026-04-21T11:48:36.301Z</time></trkpt><trkpt lat="38.047315" lon="15.8981833"><ele>905.0</ele><time>2026-04-21T11:48:37.301Z</time></trkpt><trkpt lat="38.0472283" lon="15.89821"><ele>905.0</ele><time>2026-04-21T11:48:38.301Z</time></trkpt><trkpt lat="38.04713" lon="15.8982217"><ele>905.0</ele><time>2026-04-21T11:48:39.301Z</time></trkpt><trkpt lat="38.0470333" lon="15.8982117"><ele>905.0</ele><time>2026-04-21T11:48:40.301Z</time></trkpt><trkpt lat="38.0469267" lon="15.8981967"><ele>905.0</ele><time>2026-04-21T11:48:41.301Z</time></trkpt><trkpt lat="38.04683" lon="15.898185"><ele>905.0</ele><time>2026-04-21T11:48:42.301Z</time></trkpt><trkpt lat="38.0467333" lon="15.8981717"><ele>905.0</ele><time>2026-04-21T11:48:43.301Z</time></trkpt><trkpt lat="38.0466483" lon="15.8981767"><ele>905.0</ele><time>2026-04-21T11:48:44.3Z</time></trkpt><trkpt lat="38.0465767" lon="15.898175"><ele>905.0</ele><time>2026-04-21T11:48:45.301Z</time></trkpt><trkpt lat="38.046475" lon="15.89817"><ele>905.0</ele><time>2026-04-21T11:48:47.3Z</time></trkpt><trkpt lat="38.0463967" lon="15.8982567"><ele>904.6666666666667</ele><time>2026-04-21T11:48:49.3Z</time></trkpt><trkpt lat="38.0463983" lon="15.8983417"><ele>904.3333333333334</ele><time>2026-04-21T11:48:50.301Z</time></trkpt><trkpt lat="38.0464267" lon="15.89844"><ele>904.0</ele><time>2026-04-21T11:48:51.301Z</time></trkpt><trkpt lat="38.04646" lon="15.8985367"><ele>903.6666666666667</ele><time>2026-04-21T11:48:52.301Z</time></trkpt><trkpt lat="38.046495" lon="15.8986333"><ele>903.3333333333334</ele><time>2026-04-21T11:48:53.301Z</time></trkpt><trkpt lat="38.046515" lon="15.8987233"><ele>903.0</ele><time>2026-04-21T11:48:54.301Z</time></trkpt><trkpt lat="38.0465" lon="15.8988767"><ele>903.0</ele><time>2026-04-21T11:48:56.301Z</time></trkpt><trkpt lat="38.0464483" lon="15.899"><ele>903.0</ele><time>2026-04-21T11:48:58.301Z</time></trkpt><trkpt lat="38.0465167" lon="15.8989667"><ele>903.0</ele><time>2026-04-21T11:49:04.301Z</time></trkpt><trkpt lat="38.0465667" lon="15.89882"><ele>903.0</ele><time>2026-04-21T11:49:06.301Z</time></trkpt><trkpt lat="38.046565" lon="15.89873"><ele>903.0</ele><time>2026-04-21T11:49:07.301Z</time></trkpt><trkpt lat="38.0465683" lon="15.898585"><ele>903.0</ele><time>2026-04-21T11:49:09.301Z</time></trkpt><trkpt lat="38.0465717" lon="15.8984683"><ele>903.0</ele><time>2026-04-21T11:49:11.301Z</time></trkpt><trkpt lat="38.0466267" lon="15.8984033"><ele>903.0</ele><time>2026-04-21T11:49:13.301Z</time></trkpt><trkpt lat="38.0467083" lon="15.8983883"><ele>903.0</ele><time>2026-04-21T11:49:15.301Z</time></trkpt><trkpt lat="38.0466533" lon="15.8983467"><ele>903.0</ele><time>2026-04-21T11:52:40.302Z</time></trkpt><trkpt lat="38.0465983" lon="15.89839"><ele>903.0</ele><time>2026-04-21T11:52:42.302Z</time></trkpt><trkpt lat="38.0465733" lon="15.8984933"><ele>903.0</ele><time>2026-04-21T11:52:44.302Z</time></trkpt><trkpt lat="38.04657" lon="15.8986367"><ele>903.0</ele><time>2026-04-21T11:52:46.302Z</time></trkpt><trkpt lat="38.04655" lon="15.89876"><ele>903.0</ele><time>2026-04-21T11:52:48.302Z</time></trkpt><trkpt lat="38.0465333" lon="15.898905"><ele>903.0</ele><time>2026-04-21T11:52:50.302Z</time></trkpt><trkpt lat="38.046495" lon="15.8990017"><ele>903.0</ele><time>2026-04-21T11:52:52.302Z</time></trkpt><trkpt lat="38.046445" lon="15.8990883"><ele>903.0</ele><time>2026-04-21T11:52:54.302Z</time></trkpt><trkpt lat="38.0463933" lon="15.8992417"><ele>903.0</ele><time>2026-04-21T11:52:56.302Z</time></trkpt><trkpt lat="38.0463667" lon="15.8993283"><ele>903.0</ele><time>2026-04-21T11:52:57.302Z</time></trkpt><trkpt lat="38.046345" lon="15.8994067"><ele>903.0</ele><time>2026-04-21T11:52:58.302Z</time></trkpt><trkpt lat="38.04634" lon="15.899535"><ele>903.0</ele><time>2026-04-21T11:53:00.302Z</time></trkpt><trkpt lat="38.04634" lon="15.899625"><ele>903.0</ele><time>2026-04-21T11:53:01.302Z</time></trkpt><trkpt lat="38.046335" lon="15.89973"><ele>905.2</ele><time>2026-04-21T11:53:02.302Z</time></trkpt><trkpt lat="38.046325" lon="15.8998367"><ele>907.4</ele><time>2026-04-21T11:53:03.302Z</time></trkpt><trkpt lat="38.0463083" lon="15.8999283"><ele>909.6000000000001</ele><time>2026-04-21T11:53:04.302Z</time></trkpt><trkpt lat="38.0463183" lon="15.9000517"><ele>911.8000000000001</ele><time>2026-04-21T11:53:06.302Z</time></trkpt><trkpt lat="38.0463067" lon="15.9001717"><ele>914.0</ele><time>2026-04-21T11:53:08.302Z</time></trkpt><trkpt lat="38.0462583" lon="15.900295"><ele>915.0000000000001</ele><time>2026-04-21T11:53:10.302Z</time></trkpt><trkpt lat="38.046205" lon="15.9003417"><ele>916.0</ele><time>2026-04-21T11:53:11.302Z</time></trkpt><trkpt lat="38.04609" lon="15.900355"><ele>917.0</ele><time>2026-04-21T11:53:13.302Z</time></trkpt><trkpt lat="38.0459683" lon="15.90032"><ele>918.0</ele><time>2026-04-21T11:53:15.302Z</time></trkpt><trkpt lat="38.0459" lon="15.9002983"><ele>919.0000000000001</ele><time>2026-04-21T11:53:16.302Z</time></trkpt><trkpt lat="38.045835" lon="15.9002733"><ele>920.0</ele><time>2026-04-21T11:53:17.302Z</time></trkpt><trkpt lat="38.04577" lon="15.9002467"><ele>920.5000000000001</ele><time>2026-04-21T11:53:18.302Z</time></trkpt><trkpt lat="38.0457133" lon="15.9002117"><ele>921.0</ele><time>2026-04-21T11:53:19.302Z</time></trkpt><trkpt lat="38.0456567" lon="15.900175"><ele>921.5</ele><time>2026-04-21T11:53:20.301Z</time></trkpt><trkpt lat="38.0455833" lon="15.900105"><ele>922.0</ele><time>2026-04-21T11:53:22.302Z</time></trkpt><trkpt lat="38.0455383" lon="15.900045"><ele>922.5000000000001</ele><time>2026-04-21T11:53:24.302Z</time></trkpt><trkpt lat="38.0454567" lon="15.8999533"><ele>923.0</ele><time>2026-04-21T11:53:26.302Z</time></trkpt><trkpt lat="38.0454" lon="15.8999083"><ele>923.0000000000001</ele><time>2026-04-21T11:53:27.301Z</time></trkpt><trkpt lat="38.0453317" lon="15.89987"><ele>923.0</ele><time>2026-04-21T11:53:28.302Z</time></trkpt><trkpt lat="38.0452633" lon="15.8998317"><ele>923.0</ele><time>2026-04-21T11:53:29.302Z</time></trkpt><trkpt lat="38.045195" lon="15.8997933"><ele>923.0</ele><time>2026-04-21T11:53:30.302Z</time></trkpt><trkpt lat="38.04513" lon="15.8997567"><ele>923.0000000000001</ele><time>2026-04-21T11:53:31.302Z</time></trkpt><trkpt lat="38.04502" lon="15.8997617"><ele>923.0</ele><time>2026-04-21T11:53:33.302Z</time></trkpt><trkpt lat="38.0449633" lon="15.8998067"><ele>919.8333333333334</ele><time>2026-04-21T11:53:34.302Z</time></trkpt><trkpt lat="38.0449117" lon="15.89987"><ele>916.6666666666667</ele><time>2026-04-21T11:53:35.302Z</time></trkpt><trkpt lat="38.0448683" lon="15.8999433"><ele>913.5</ele><time>2026-04-21T11:53:36.302Z</time></trkpt><trkpt lat="38.0448367" lon="15.9000133"><ele>910.3333333333333</ele><time>2026-04-21T11:53:37.302Z</time></trkpt><trkpt lat="38.04481" lon="15.9001317"><ele>907.1666666666666</ele><time>2026-04-21T11:53:39.302Z</time></trkpt><trkpt lat="38.044805" lon="15.9002733"><ele>904.0</ele><time>2026-04-21T11:53:41.302Z</time></trkpt><trkpt lat="38.0448133" lon="15.9004133"><ele>904.0</ele><time>2026-04-21T11:53:43.301Z</time></trkpt><trkpt lat="38.0448183" lon="15.90056"><ele>904.0000000000001</ele><time>2026-04-21T11:53:45.302Z</time></trkpt><trkpt lat="38.04482" lon="15.9006917"><ele>904.0000000000001</ele><time>2026-04-21T11:53:47.301Z</time></trkpt><trkpt lat="38.04479" lon="15.9008167"><ele>904.0</ele><time>2026-04-21T11:53:49.302Z</time></trkpt><trkpt lat="38.0447483" lon="15.9009617"><ele>904.0</ele><time>2026-04-21T11:53:51.302Z</time></trkpt><trkpt lat="38.0446967" lon="15.9010783"><ele>904.8000000000001</ele><time>2026-04-21T11:53:53.302Z</time></trkpt><trkpt lat="38.0446283" lon="15.9011233"><ele>905.6000000000001</ele><time>2026-04-21T11:53:55.302Z</time></trkpt><trkpt lat="38.0445133" lon="15.9011167"><ele>906.4</ele><time>2026-04-21T11:53:57.302Z</time></trkpt><trkpt lat="38.04444" lon="15.9011167"><ele>907.2</ele><time>2026-04-21T11:53:59.302Z</time></trkpt><trkpt lat="38.0445183" lon="15.9011667"><ele>908.0</ele><time>2026-04-21T11:54:58.302Z</time></trkpt><trkpt lat="38.0446183" lon="15.9011517"><ele>908.0000000000001</ele><time>2026-04-21T11:55:00.302Z</time></trkpt><trkpt lat="38.0446933" lon="15.9011217"><ele>908.0</ele><time>2026-04-21T11:55:02.302Z</time></trkpt><trkpt lat="38.0447583" lon="15.900995"><ele>908.0</ele><time>2026-04-21T11:55:04.302Z</time></trkpt><trkpt lat="38.044795" lon="15.9009067"><ele>908.0</ele><time>2026-04-21T11:55:05.302Z</time></trkpt><trkpt lat="38.044825" lon="15.9008083"><ele>908.0000000000001</ele><time>2026-04-21T11:55:06.302Z</time></trkpt><trkpt lat="38.0448433" lon="15.900705"><ele>908.0</ele><time>2026-04-21T11:55:07.302Z</time></trkpt><trkpt lat="38.0448517" lon="15.9006033"><ele>907.3333333333334</ele><time>2026-04-21T11:55:08.301Z</time></trkpt><trkpt lat="38.0448483" lon="15.900495"><ele>906.6666666666667</ele><time>2026-04-21T11:55:09.302Z</time></trkpt><trkpt lat="38.0448267" lon="15.900395"><ele>906.0</ele><time>2026-04-21T11:55:10.301Z</time></trkpt><trkpt lat="38.0448217" lon="15.9003"><ele>905.3333333333333</ele><time>2026-04-21T11:55:11.302Z</time></trkpt><trkpt lat="38.0448183" lon="15.9002083"><ele>904.6666666666666</ele><time>2026-04-21T11:55:12.302Z</time></trkpt><trkpt lat="38.0448317" lon="15.9000733"><ele>904.0</ele><time>2026-04-21T11:55:14.302Z</time></trkpt><trkpt lat="38.0449133" lon="15.89993"><ele>907.8000000000001</ele><time>2026-04-21T11:55:16.302Z</time></trkpt><trkpt lat="38.0449633" lon="15.89985"><ele>911.6000000000001</ele><time>2026-04-21T11:55:17.302Z</time></trkpt><trkpt lat="38.045055" lon="15.8997767"><ele>915.4</ele><time>2026-04-21T11:55:19.302Z</time></trkpt><trkpt lat="38.0451833" lon="15.8997917"><ele>919.2</ele><time>2026-04-21T11:55:21.302Z</time></trkpt><trkpt lat="38.0452667" lon="15.8998367"><ele>923.0</ele><time>2026-04-21T11:55:22.302Z</time></trkpt><trkpt lat="38.0453567" lon="15.8998983"><ele>923.0</ele><time>2026-04-21T11:55:23.302Z</time></trkpt><trkpt lat="38.0454483" lon="15.8999817"><ele>923.0</ele><time>2026-04-21T11:55:24.302Z</time></trkpt><trkpt lat="38.0455317" lon="15.9000733"><ele>923.0</ele><time>2026-04-21T11:55:25.302Z</time></trkpt><trkpt lat="38.0456117" lon="15.9001617"><ele>923.0</ele><time>2026-04-21T11:55:26.302Z</time></trkpt><trkpt lat="38.0457017" lon="15.900225"><ele>923.0</ele><time>2026-04-21T11:55:27.302Z</time></trkpt><trkpt lat="38.04579" lon="15.9002867"><ele>922.5000000000001</ele><time>2026-04-21T11:55:28.302Z</time></trkpt><trkpt lat="38.0458783" lon="15.900325"><ele>922.0</ele><time>2026-04-21T11:55:29.302Z</time></trkpt><trkpt lat="38.0459683" lon="15.90036"><ele>921.5</ele><time>2026-04-21T11:55:30.302Z</time></trkpt><trkpt lat="38.0460517" lon="15.9004033"><ele>921.0</ele><time>2026-04-21T11:55:31.302Z</time></trkpt><trkpt lat="38.0461217" lon="15.900415"><ele>920.5000000000001</ele><time>2026-04-21T11:55:32.302Z</time></trkpt><trkpt lat="38.0461983" lon="15.9003967"><ele>920.0</ele><time>2026-04-21T11:55:33.302Z</time></trkpt><trkpt lat="38.046265" lon="15.90035"><ele>920.0</ele><time>2026-04-21T11:55:34.301Z</time></trkpt><trkpt lat="38.0463217" lon="15.900275"><ele>920.0</ele><time>2026-04-21T11:55:35.302Z</time></trkpt><trkpt lat="38.046355" lon="15.9001733"><ele>920.0</ele><time>2026-04-21T11:55:36.301Z</time></trkpt><trkpt lat="38.046365" lon="15.9000483"><ele>920.0</ele><time>2026-04-21T11:55:37.302Z</time></trkpt><trkpt lat="38.0463733" lon="15.8999083"><ele>920.0</ele><time>2026-04-21T11:55:38.302Z</time></trkpt><trkpt lat="38.046375" lon="15.8997617"><ele>918.5</ele><time>2026-04-21T11:55:39.302Z</time></trkpt><trkpt lat="38.0463767" lon="15.8996117"><ele>917.0</ele><time>2026-04-21T11:55:40.302Z</time></trkpt><trkpt lat="38.04639" lon="15.8994783"><ele>915.5</ele><time>2026-04-21T11:55:41.302Z</time></trkpt><trkpt lat="38.0464083" lon="15.899335"><ele>914.0</ele><time>2026-04-21T11:55:42.302Z</time></trkpt><trkpt lat="38.04644" lon="15.8991883"><ele>911.8000000000001</ele><time>2026-04-21T11:55:43.302Z</time></trkpt><trkpt lat="38.046475" lon="15.8990567"><ele>909.6000000000001</ele><time>2026-04-21T11:55:44.302Z</time></trkpt><trkpt lat="38.046515" lon="15.89892"><ele>907.4</ele><time>2026-04-21T11:55:45.302Z</time></trkpt><trkpt lat="38.04653" lon="15.89879"><ele>905.2</ele><time>2026-04-21T11:55:46.302Z</time></trkpt><trkpt lat="38.0465267" lon="15.898665"><ele>903.0</ele><time>2026-04-21T11:55:47.302Z</time></trkpt><trkpt lat="38.0465" lon="15.8985267"><ele>903.4</ele><time>2026-04-21T11:55:48.302Z</time></trkpt><trkpt lat="38.0464667" lon="15.8984067"><ele>903.8</ele><time>2026-04-21T11:55:49.302Z</time></trkpt><trkpt lat="38.0464383" lon="15.898325"><ele>904.2</ele><time>2026-04-21T11:55:50.302Z</time></trkpt><trkpt lat="38.0464567" lon="15.8981917"><ele>904.6</ele><time>2026-04-21T11:55:52.302Z</time></trkpt><trkpt lat="38.046565" lon="15.898155"><ele>905.0</ele><time>2026-04-21T11:55:54.302Z</time></trkpt><trkpt lat="38.0466467" lon="15.8981617"><ele>905.0</ele><time>2026-04-21T11:55:55.302Z</time></trkpt><trkpt lat="38.0467467" lon="15.8981717"><ele>905.0</ele><time>2026-04-21T11:55:56.302Z</time></trkpt><trkpt lat="38.04686" lon="15.8981867"><ele>905.0</ele><time>2026-04-21T11:55:57.302Z</time></trkpt><trkpt lat="38.046975" lon="15.8981967"><ele>905.0</ele><time>2026-04-21T11:55:58.302Z</time></trkpt><trkpt lat="38.047075" lon="15.8982"><ele>905.0</ele><time>2026-04-21T11:55:59.302Z</time></trkpt><trkpt lat="38.0471633" lon="15.898205"><ele>905.0000000000001</ele><time>2026-04-21T11:56:00.302Z</time></trkpt><trkpt lat="38.0472517" lon="15.898205"><ele>905.0</ele><time>2026-04-21T11:56:01.302Z</time></trkpt><trkpt lat="38.0473333" lon="15.8981933"><ele>905.0</ele><time>2026-04-21T11:56:02.302Z</time></trkpt><trkpt lat="38.0474067" lon="15.8981717"><ele>905.0</ele><time>2026-04-21T11:56:03.302Z</time></trkpt><trkpt lat="38.04747" lon="15.898115"><ele>905.0000000000001</ele><time>2026-04-21T11:56:04.302Z</time></trkpt><trkpt lat="38.0475433" lon="15.898045"><ele>905.0</ele><time>2026-04-21T11:56:05.302Z</time></trkpt><trkpt lat="38.0476167" lon="15.8979483"><ele>907.0</ele><time>2026-04-21T11:56:06.302Z</time></trkpt><trkpt lat="38.04768" lon="15.8978433"><ele>909.0</ele><time>2026-04-21T11:56:07.302Z</time></trkpt><trkpt lat="38.0477383" lon="15.8977483"><ele>911.0</ele><time>2026-04-21T11:56:08.302Z</time></trkpt><trkpt lat="38.0477983" lon="15.8976717"><ele>913.0</ele><time>2026-04-21T11:56:09.302Z</time></trkpt><trkpt lat="38.0478967" lon="15.8975917"><ele>915.0</ele><time>2026-04-21T11:56:11.302Z</time></trkpt><trkpt lat="38.0479667" lon="15.8975467"><ele>910.0</ele><time>2026-04-21T11:56:13.301Z</time></trkpt><trkpt lat="38.0480383" lon="15.8974467"><ele>905.0</ele><time>2026-04-21T12:09:07.302Z</time></trkpt><trkpt lat="38.0481033" lon="15.8974167"><ele>900.0</ele><time>2026-04-21T12:09:08.302Z</time></trkpt><trkpt lat="38.048205" lon="15.89737"><ele>895.0</ele><time>2026-04-21T12:09:10.302Z</time></trkpt><trkpt lat="38.048295" lon="15.8973367"><ele>890.0</ele><time>2026-04-21T12:09:12.302Z</time></trkpt><trkpt lat="38.0483683" lon="15.8972967"><ele>890.0000000000001</ele><time>2026-04-21T12:09:15.302Z</time></trkpt><trkpt lat="38.0484283" lon="15.897205"><ele>890.0</ele><time>2026-04-21T12:10:08.302Z</time></trkpt><trkpt lat="38.0484267" lon="15.897125"><ele>890.0</ele><time>2026-04-21T12:10:10.302Z</time></trkpt><trkpt lat="38.0483967" lon="15.897035"><ele>890.0</ele><time>2026-04-21T12:10:12.302Z</time></trkpt><trkpt lat="38.0483583" lon="15.89693"><ele>890.0000000000001</ele><time>2026-04-21T12:10:14.302Z</time></trkpt><trkpt lat="38.0483183" lon="15.896805"><ele>890.0</ele><time>2026-04-21T12:10:16.301Z</time></trkpt><trkpt lat="38.048285" lon="15.89666"><ele>886.0</ele><time>2026-04-21T12:10:18.302Z</time></trkpt><trkpt lat="38.0482717" lon="15.8965783"><ele>882.0</ele><time>2026-04-21T12:10:19.302Z</time></trkpt><trkpt lat="38.0482583" lon="15.8964967"><ele>878.0</ele><time>2026-04-21T12:10:20.302Z</time></trkpt><trkpt lat="38.0482417" lon="15.8964167"><ele>874.0</ele><time>2026-04-21T12:10:21.302Z</time></trkpt><trkpt lat="38.0482333" lon="15.8963317"><ele>870.0</ele><time>2026-04-21T12:10:22.302Z</time></trkpt><trkpt lat="38.0482233" lon="15.8962483"><ele>866.0</ele><time>2026-04-21T12:10:23.302Z</time></trkpt><trkpt lat="38.0482133" lon="15.8961633"><ele>862.0</ele><time>2026-04-21T12:10:24.302Z</time></trkpt><trkpt lat="38.0482033" lon="15.896075"><ele>862.0</ele><time>2026-04-21T12:10:25.302Z</time></trkpt><trkpt lat="38.0481967" lon="15.89598"><ele>862.0</ele><time>2026-04-21T12:10:26.302Z</time></trkpt><trkpt lat="38.048195" lon="15.8958867"><ele>862.0</ele><time>2026-04-21T12:10:27.302Z</time></trkpt><trkpt lat="38.0481883" lon="15.8957967"><ele>862.0</ele><time>2026-04-21T12:10:28.302Z</time></trkpt><trkpt lat="38.0481833" lon="15.8957067"><ele>862.0</ele><time>2026-04-21T12:10:29.302Z</time></trkpt><trkpt lat="38.0481817" lon="15.8956133"><ele>862.0</ele><time>2026-04-21T12:10:30.302Z</time></trkpt><trkpt lat="38.04818" lon="15.8955167"><ele>862.0</ele><time>2026-04-21T12:10:31.301Z</time></trkpt><trkpt lat="38.0481817" lon="15.8954267"><ele>861.4000000000001</ele><time>2026-04-21T12:10:32.302Z</time></trkpt><trkpt lat="38.0481867" lon="15.8952817"><ele>860.8000000000001</ele><time>2026-04-21T12:10:34.302Z</time></trkpt><trkpt lat="38.0481917" lon="15.8951567"><ele>860.2</ele><time>2026-04-21T12:10:36.302Z</time></trkpt><trkpt lat="38.0482" lon="15.8950167"><ele>859.6</ele><time>2026-04-21T12:10:38.302Z</time></trkpt><trkpt lat="38.04821" lon="15.894865"><ele>859.0</ele><time>2026-04-21T12:10:40.302Z</time></trkpt><trkpt lat="38.0482" lon="15.894725"><ele>861.1666666666666</ele><time>2026-04-21T12:10:42.302Z</time></trkpt><trkpt lat="38.0481583" lon="15.89458"><ele>863.3333333333333</ele><time>2026-04-21T12:10:44.302Z</time></trkpt><trkpt lat="38.0481083" lon="15.8945"><ele>865.5</ele><time>2026-04-21T12:10:45.302Z</time></trkpt><trkpt lat="38.0480483" lon="15.8944417"><ele>867.6666666666667</ele><time>2026-04-21T12:10:46.302Z</time></trkpt><trkpt lat="38.047985" lon="15.8943883"><ele>869.8333333333334</ele><time>2026-04-21T12:10:47.302Z</time></trkpt><trkpt lat="38.0479217" lon="15.8943467"><ele>872.0</ele><time>2026-04-21T12:10:48.302Z</time></trkpt><trkpt lat="38.0478533" lon="15.8943033"><ele>871.8571428571429</ele><time>2026-04-21T12:10:49.302Z</time></trkpt><trkpt lat="38.04779" lon="15.8942533"><ele>871.7142857142858</ele><time>2026-04-21T12:10:50.302Z</time></trkpt><trkpt lat="38.0477283" lon="15.8942017"><ele>871.5714285714286</ele><time>2026-04-21T12:10:51.302Z</time></trkpt><trkpt lat="38.0476617" lon="15.894155"><ele>871.4285714285714</ele><time>2026-04-21T12:10:52.302Z</time></trkpt><trkpt lat="38.0476017" lon="15.894105"><ele>871.2857142857142</ele><time>2026-04-21T12:10:53.302Z</time></trkpt><trkpt lat="38.047545" lon="15.89404"><ele>871.1428571428571</ele><time>2026-04-21T12:10:54.302Z</time></trkpt><trkpt lat="38.0474917" lon="15.89397"><ele>871.0</ele><time>2026-04-21T12:10:55.302Z</time></trkpt><trkpt lat="38.04743" lon="15.8939117"><ele>870.9999999999999</ele><time>2026-04-21T12:10:56.302Z</time></trkpt><trkpt lat="38.04737" lon="15.89385"><ele>871.0</ele><time>2026-04-21T12:10:57.301Z</time></trkpt><trkpt lat="38.0473" lon="15.8937917"><ele>871.0</ele><time>2026-04-21T12:10:58.302Z</time></trkpt><trkpt lat="38.0472233" lon="15.8937383"><ele>871.0</ele><time>2026-04-21T12:10:59.302Z</time></trkpt><trkpt lat="38.0471483" lon="15.8936933"><ele>870.9999999999999</ele><time>2026-04-21T12:11:00.302Z</time></trkpt><trkpt lat="38.0470667" lon="15.89365"><ele>871.0</ele><time>2026-04-21T12:11:01.301Z</time></trkpt><trkpt lat="38.0469783" lon="15.8936117"><ele>871.0</ele><time>2026-04-21T12:11:02.302Z</time></trkpt><trkpt lat="38.04689" lon="15.8935683"><ele>870.9999999999999</ele><time>2026-04-21T12:11:03.301Z</time></trkpt><trkpt lat="38.0468" lon="15.89353"><ele>870.9999999999999</ele><time>2026-04-21T12:11:04.301Z</time></trkpt><trkpt lat="38.0467167" lon="15.8934617"><ele>871.0</ele><time>2026-04-21T12:11:05.302Z</time></trkpt><trkpt lat="38.0466517" lon="15.8933717"><ele>871.0</ele><time>2026-04-21T12:11:06.302Z</time></trkpt><trkpt lat="38.0466133" lon="15.8932417"><ele>868.1999999999999</ele><time>2026-04-21T12:11:07.302Z</time></trkpt><trkpt lat="38.0466083" lon="15.8931033"><ele>865.3999999999999</ele><time>2026-04-21T12:11:08.302Z</time></trkpt><trkpt lat="38.0466233" lon="15.8929633"><ele>862.6</ele><time>2026-04-21T12:11:09.302Z</time></trkpt><trkpt lat="38.0466433" lon="15.8928217"><ele>859.8</ele><time>2026-04-21T12:11:10.302Z</time></trkpt><trkpt lat="38.0466483" lon="15.892675"><ele>857.0</ele><time>2026-04-21T12:11:11.302Z</time></trkpt><trkpt lat="38.0466483" lon="15.8925267"><ele>856.2</ele><time>2026-04-21T12:11:12.302Z</time></trkpt><trkpt lat="38.04664" lon="15.8923817"><ele>855.4000000000001</ele><time>2026-04-21T12:11:13.302Z</time></trkpt><trkpt lat="38.046625" lon="15.8922433"><ele>854.5999999999999</ele><time>2026-04-21T12:11:14.302Z</time></trkpt><trkpt lat="38.0466083" lon="15.89211"><ele>853.8</ele><time>2026-04-21T12:11:15.302Z</time></trkpt><trkpt lat="38.0465883" lon="15.8919817"><ele>853.0</ele><time>2026-04-21T12:11:16.302Z</time></trkpt><trkpt lat="38.0465583" lon="15.891865"><ele>856.0</ele><time>2026-04-21T12:11:17.302Z</time></trkpt><trkpt lat="38.0465183" lon="15.8917533"><ele>859.0</ele><time>2026-04-21T12:11:18.302Z</time></trkpt><trkpt lat="38.0464683" lon="15.8916483"><ele>862.0</ele><time>2026-04-21T12:11:19.302Z</time></trkpt><trkpt lat="38.0464133" lon="15.8915433"><ele>865.0</ele><time>2026-04-21T12:11:20.302Z</time></trkpt><trkpt lat="38.0463483" lon="15.8914367"><ele>868.0</ele><time>2026-04-21T12:11:21.301Z</time></trkpt><trkpt lat="38.0462967" lon="15.8913183"><ele>868.0</ele><time>2026-04-21T12:11:22.302Z</time></trkpt><trkpt lat="38.0462467" lon="15.8911983"><ele>868.0</ele><time>2026-04-21T12:11:23.301Z</time></trkpt><trkpt lat="38.0462" lon="15.891075"><ele>868.0</ele><time>2026-04-21T12:11:24.302Z</time></trkpt><trkpt lat="38.0461533" lon="15.890955"><ele>868.0</ele><time>2026-04-21T12:11:25.302Z</time></trkpt><trkpt lat="38.046105" lon="15.890845"><ele>868.0</ele><time>2026-04-21T12:11:26.302Z</time></trkpt><trkpt lat="38.0460733" lon="15.8907367"><ele>870.3333333333333</ele><time>2026-04-21T12:11:27.302Z</time></trkpt><trkpt lat="38.0460583" lon="15.890635"><ele>872.6666666666666</ele><time>2026-04-21T12:11:28.302Z</time></trkpt><trkpt lat="38.0460617" lon="15.8905383"><ele>875.0</ele><time>2026-04-21T12:11:29.302Z</time></trkpt><trkpt lat="38.046095" lon="15.8904467"><ele>877.3333333333333</ele><time>2026-04-21T12:11:30.302Z</time></trkpt><trkpt lat="38.0461317" lon="15.89036"><ele>879.6666666666666</ele><time>2026-04-21T12:11:31.302Z</time></trkpt><trkpt lat="38.046175" lon="15.89027"><ele>882.0</ele><time>2026-04-21T12:11:32.302Z</time></trkpt><trkpt lat="38.0462167" lon="15.8901883"><ele>882.0</ele><time>2026-04-21T12:11:33.302Z</time></trkpt><trkpt lat="38.0462533" lon="15.890105"><ele>882.0</ele><time>2026-04-21T12:11:34.302Z</time></trkpt><trkpt lat="38.0462883" lon="15.8900333"><ele>882.0</ele><time>2026-04-21T12:11:35.302Z</time></trkpt><trkpt lat="38.0463317" lon="15.8899183"><ele>882.0</ele><time>2026-04-21T12:11:37.302Z</time></trkpt><trkpt lat="38.0463683" lon="15.8898367"><ele>882.0</ele><time>2026-04-21T12:11:39.302Z</time></trkpt><trkpt lat="38.046385" lon="15.8897317"><ele>882.0</ele><time>2026-04-21T12:11:41.302Z</time></trkpt><trkpt lat="38.0464017" lon="15.8895833"><ele>881.0</ele><time>2026-04-21T12:11:43.302Z</time></trkpt><trkpt lat="38.0464167" lon="15.8894967"><ele>880.0</ele><time>2026-04-21T12:11:44.302Z</time></trkpt><trkpt lat="38.0464333" lon="15.8894067"><ele>879.0</ele><time>2026-04-21T12:11:45.302Z</time></trkpt><trkpt lat="38.046455" lon="15.889315"><ele>878.0</ele><time>2026-04-21T12:11:46.302Z</time></trkpt><trkpt lat="38.0464917" lon="15.8892083"><ele>877.0</ele><time>2026-04-21T12:11:47.302Z</time></trkpt><trkpt lat="38.0465383" lon="15.8890967"><ele>876.0</ele><time>2026-04-21T12:11:48.301Z</time></trkpt><trkpt lat="38.0465917" lon="15.8889933"><ele>880.0</ele><time>2026-04-21T12:11:49.302Z</time></trkpt><trkpt lat="38.0466433" lon="15.88889"><ele>883.9999999999999</ele><time>2026-04-21T12:11:50.302Z</time></trkpt><trkpt lat="38.0466917" lon="15.8887883"><ele>887.9999999999999</ele><time>2026-04-21T12:11:51.302Z</time></trkpt><trkpt lat="38.04673" lon="15.8886883"><ele>892.0</ele><time>2026-04-21T12:11:52.302Z</time></trkpt><trkpt lat="38.0467717" lon="15.88859"><ele>896.0</ele><time>2026-04-21T12:11:53.302Z</time></trkpt><trkpt lat="38.0468233" lon="15.8884933"><ele>894.0</ele><time>2026-04-21T12:11:54.302Z</time></trkpt><trkpt lat="38.04688" lon="15.8884033"><ele>891.9999999999999</ele><time>2026-04-21T12:11:55.302Z</time></trkpt><trkpt lat="38.0469367" lon="15.8883283"><ele>889.9999999999999</ele><time>2026-04-21T12:11:56.302Z</time></trkpt><trkpt lat="38.047" lon="15.88825"><ele>888.0</ele><time>2026-04-21T12:11:57.302Z</time></trkpt><trkpt lat="38.0470717" lon="15.8881667"><ele>886.0</ele><time>2026-04-21T12:11:58.301Z</time></trkpt><trkpt lat="38.0471383" lon="15.8880867"><ele>886.0</ele><time>2026-04-21T12:11:59.302Z</time></trkpt><trkpt lat="38.0471983" lon="15.8879967"><ele>885.9999999999999</ele><time>2026-04-21T12:12:00.302Z</time></trkpt><trkpt lat="38.0472617" lon="15.8879033"><ele>885.9999999999999</ele><time>2026-04-21T12:12:01.302Z</time></trkpt><trkpt lat="38.0473167" lon="15.8878117"><ele>886.0</ele><time>2026-04-21T12:12:02.302Z</time></trkpt><trkpt lat="38.0473783" lon="15.8877367"><ele>886.0</ele><time>2026-04-21T12:12:03.302Z</time></trkpt><trkpt lat="38.0474517" lon="15.887685"><ele>886.3333333333333</ele><time>2026-04-21T12:12:04.302Z</time></trkpt><trkpt lat="38.0475367" lon="15.8876483"><ele>886.6666666666666</ele><time>2026-04-21T12:12:05.302Z</time></trkpt><trkpt lat="38.0476167" lon="15.8876117"><ele>887.0</ele><time>2026-04-21T12:12:06.302Z</time></trkpt><trkpt lat="38.047685" lon="15.887575"><ele>887.3333333333333</ele><time>2026-04-21T12:12:07.302Z</time></trkpt><trkpt lat="38.0477467" lon="15.8875267"><ele>887.6666666666666</ele><time>2026-04-21T12:12:08.302Z</time></trkpt><trkpt lat="38.0478" lon="15.887475"><ele>888.0</ele><time>2026-04-21T12:12:09.302Z</time></trkpt><trkpt lat="38.0478567" lon="15.887425"><ele>888.0</ele><time>2026-04-21T12:12:10.302Z</time></trkpt><trkpt lat="38.0479167" lon="15.8873667"><ele>888.0</ele><time>2026-04-21T12:12:11.302Z</time></trkpt><trkpt lat="38.0479767" lon="15.8873083"><ele>888.0</ele><time>2026-04-21T12:12:12.302Z</time></trkpt><trkpt lat="38.0480367" lon="15.8872517"><ele>888.0</ele><time>2026-04-21T12:12:13.302Z</time></trkpt><trkpt lat="38.048105" lon="15.8871967"><ele>888.0</ele><time>2026-04-21T12:12:14.301Z</time></trkpt><trkpt lat="38.0481833" lon="15.8871317"><ele>888.0</ele><time>2026-04-21T12:12:15.301Z</time></trkpt><trkpt lat="38.0482783" lon="15.8870767"><ele>891.2</ele><time>2026-04-21T12:12:16.302Z</time></trkpt><trkpt lat="38.048385" lon="15.8870217"><ele>894.4</ele><time>2026-04-21T12:12:17.302Z</time></trkpt><trkpt lat="38.04849" lon="15.8869633"><ele>897.6000000000001</ele><time>2026-04-21T12:12:18.302Z</time></trkpt><trkpt lat="38.04859" lon="15.8869117"><ele>900.8000000000001</ele><time>2026-04-21T12:12:19.302Z</time></trkpt><trkpt lat="38.048685" lon="15.886865"><ele>904.0</ele><time>2026-04-21T12:12:20.302Z</time></trkpt><trkpt lat="38.04878" lon="15.886835"><ele>904.0</ele><time>2026-04-21T12:12:21.302Z</time></trkpt><trkpt lat="38.0488783" lon="15.886815"><ele>904.0000000000001</ele><time>2026-04-21T12:12:22.302Z</time></trkpt><trkpt lat="38.0489867" lon="15.8868217"><ele>904.0000000000001</ele><time>2026-04-21T12:12:23.302Z</time></trkpt><trkpt lat="38.0491" lon="15.8868317"><ele>904.0</ele><time>2026-04-21T12:12:24.302Z</time></trkpt><trkpt lat="38.04921" lon="15.8868267"><ele>904.0</ele><time>2026-04-21T12:12:25.302Z</time></trkpt><trkpt lat="38.0493233" lon="15.8868183"><ele>905.8000000000001</ele><time>2026-04-21T12:12:26.302Z</time></trkpt><trkpt lat="38.0494267" lon="15.8868067"><ele>907.6000000000001</ele><time>2026-04-21T12:12:27.302Z</time></trkpt><trkpt lat="38.0495317" lon="15.8868017"><ele>909.4</ele><time>2026-04-21T12:12:28.302Z</time></trkpt><trkpt lat="38.0496367" lon="15.8868117"><ele>911.2</ele><time>2026-04-21T12:12:29.302Z</time></trkpt><trkpt lat="38.0497367" lon="15.8868333"><ele>913.0</ele><time>2026-04-21T12:12:30.302Z</time></trkpt><trkpt lat="38.04984" lon="15.886855"><ele>913.0</ele><time>2026-04-21T12:12:31.302Z</time></trkpt><trkpt lat="38.0499417" lon="15.8868767"><ele>913.0</ele><time>2026-04-21T12:12:32.302Z</time></trkpt><trkpt lat="38.0500383" lon="15.8868967"><ele>913.0</ele><time>2026-04-21T12:12:33.302Z</time></trkpt><trkpt lat="38.0501367" lon="15.88691"><ele>913.0</ele><time>2026-04-21T12:12:34.302Z</time></trkpt><trkpt lat="38.0502267" lon="15.88692"><ele>913.0</ele><time>2026-04-21T12:12:35.302Z</time></trkpt><trkpt lat="38.0503133" lon="15.8869117"><ele>913.4</ele><time>2026-04-21T12:12:36.302Z</time></trkpt><trkpt lat="38.0503983" lon="15.8868767"><ele>913.8</ele><time>2026-04-21T12:12:37.301Z</time></trkpt><trkpt lat="38.0504717" lon="15.8868217"><ele>914.2</ele><time>2026-04-21T12:12:38.302Z</time></trkpt><trkpt lat="38.0505417" lon="15.886745"><ele>914.6</ele><time>2026-04-21T12:12:39.302Z</time></trkpt><trkpt lat="38.0505983" lon="15.8866467"><ele>915.0</ele><time>2026-04-21T12:12:40.302Z</time></trkpt><trkpt lat="38.0506317" lon="15.8865417"><ele>910.0</ele><time>2026-04-21T12:12:41.302Z</time></trkpt><trkpt lat="38.050645" lon="15.8864317"><ele>905.0</ele><time>2026-04-21T12:12:42.302Z</time></trkpt><trkpt lat="38.0506533" lon="15.8863183"><ele>900.0</ele><time>2026-04-21T12:12:43.302Z</time></trkpt><trkpt lat="38.050665" lon="15.886215"><ele>895.0</ele><time>2026-04-21T12:12:44.301Z</time></trkpt><trkpt lat="38.0506733" lon="15.8861167"><ele>890.0</ele><time>2026-04-21T12:12:45.302Z</time></trkpt><trkpt lat="38.05069" lon="15.8860167"><ele>885.0</ele><time>2026-04-21T12:12:46.302Z</time></trkpt><trkpt lat="38.0507233" lon="15.8859267"><ele>885.0</ele><time>2026-04-21T12:12:47.302Z</time></trkpt><trkpt lat="38.050775" lon="15.8858667"><ele>885.0</ele><time>2026-04-21T12:12:48.302Z</time></trkpt><trkpt lat="38.0508383" lon="15.8858333"><ele>885.0</ele><time>2026-04-21T12:12:49.302Z</time></trkpt><trkpt lat="38.0509117" lon="15.88582"><ele>885.0</ele><time>2026-04-21T12:12:50.302Z</time></trkpt><trkpt lat="38.0509933" lon="15.88582"><ele>885.0</ele><time>2026-04-21T12:12:51.302Z</time></trkpt><trkpt lat="38.051075" lon="15.8858233"><ele>885.0</ele><time>2026-04-21T12:12:52.302Z</time></trkpt><trkpt lat="38.0511517" lon="15.8858233"><ele>885.0</ele><time>2026-04-21T12:12:53.302Z</time></trkpt><trkpt lat="38.05123" lon="15.8858217"><ele>885.0</ele><time>2026-04-21T12:12:54.302Z</time></trkpt><trkpt lat="38.05131" lon="15.885805"><ele>885.0</ele><time>2026-04-21T12:12:55.302Z</time></trkpt><trkpt lat="38.051385" lon="15.8857617"><ele>885.0</ele><time>2026-04-21T12:12:56.302Z</time></trkpt><trkpt lat="38.0514533" lon="15.8857017"><ele>885.0</ele><time>2026-04-21T12:12:57.302Z</time></trkpt><trkpt lat="38.0515183" lon="15.885615"><ele>885.0</ele><time>2026-04-21T12:12:58.302Z</time></trkpt><trkpt lat="38.05157" lon="15.88552"><ele>885.0</ele><time>2026-04-21T12:12:59.302Z</time></trkpt><trkpt lat="38.0516183" lon="15.8854283"><ele>885.0</ele><time>2026-04-21T12:13:00.302Z</time></trkpt><trkpt lat="38.051675" lon="15.8853583"><ele>885.0</ele><time>2026-04-21T12:13:01.301Z</time></trkpt><trkpt lat="38.0517317" lon="15.8852783"><ele>885.0</ele><time>2026-04-21T12:13:02.301Z</time></trkpt><trkpt lat="38.0517617" lon="15.8851967"><ele>885.0</ele><time>2026-04-21T12:13:03.302Z</time></trkpt><trkpt lat="38.0517733" lon="15.8851033"><ele>885.0</ele><time>2026-04-21T12:13:04.302Z</time></trkpt><trkpt lat="38.05175" lon="15.8850017"><ele>887.6</ele><time>2026-04-21T12:13:05.302Z</time></trkpt><trkpt lat="38.0517133" lon="15.8849"><ele>890.2</ele><time>2026-04-21T12:13:06.302Z</time></trkpt><trkpt lat="38.0516783" lon="15.8847933"><ele>892.8</ele><time>2026-04-21T12:13:07.302Z</time></trkpt><trkpt lat="38.05164" lon="15.88468"><ele>895.4</ele><time>2026-04-21T12:13:08.302Z</time></trkpt><trkpt lat="38.05161" lon="15.8845583"><ele>898.0</ele><time>2026-04-21T12:13:09.302Z</time></trkpt><trkpt lat="38.0515883" lon="15.8844417"><ele>890.5999999999999</ele><time>2026-04-21T12:13:10.302Z</time></trkpt><trkpt lat="38.05157" lon="15.884325"><ele>883.1999999999999</ele><time>2026-04-21T12:13:11.302Z</time></trkpt><trkpt lat="38.0515517" lon="15.88421"><ele>875.8</ele><time>2026-04-21T12:13:12.302Z</time></trkpt><trkpt lat="38.051525" lon="15.88408"><ele>868.4</ele><time>2026-04-21T12:13:13.302Z</time></trkpt><trkpt lat="38.0514983" lon="15.8839333"><ele>861.0</ele><time>2026-04-21T12:13:14.302Z</time></trkpt><trkpt lat="38.0514683" lon="15.8837767"><ele>859.75</ele><time>2026-04-21T12:13:15.302Z</time></trkpt><trkpt lat="38.0514433" lon="15.8836217"><ele>858.5</ele><time>2026-04-21T12:13:16.302Z</time></trkpt><trkpt lat="38.051415" lon="15.88347"><ele>857.25</ele><time>2026-04-21T12:13:17.301Z</time></trkpt><trkpt lat="38.051385" lon="15.8833183"><ele>856.0</ele><time>2026-04-21T12:13:18.301Z</time></trkpt><trkpt lat="38.0513633" lon="15.8831667"><ele>856.0</ele><time>2026-04-21T12:13:19.302Z</time></trkpt><trkpt lat="38.0513517" lon="15.8830167"><ele>855.9999999999999</ele><time>2026-04-21T12:13:20.302Z</time></trkpt><trkpt lat="38.0513617" lon="15.8828767"><ele>855.9999999999999</ele><time>2026-04-21T12:13:21.302Z</time></trkpt><trkpt lat="38.0513833" lon="15.8827433"><ele>856.0</ele><time>2026-04-21T12:13:22.302Z</time></trkpt><trkpt lat="38.0514067" lon="15.8826267"><ele>856.0</ele><time>2026-04-21T12:13:23.302Z</time></trkpt><trkpt lat="38.0514283" lon="15.8825033"><ele>857.0</ele><time>2026-04-21T12:13:24.302Z</time></trkpt><trkpt lat="38.0514483" lon="15.8823867"><ele>857.9999999999999</ele><time>2026-04-21T12:13:25.302Z</time></trkpt><trkpt lat="38.0514617" lon="15.88227"><ele>858.9999999999999</ele><time>2026-04-21T12:13:26.302Z</time></trkpt><trkpt lat="38.0514733" lon="15.8821583"><ele>860.0</ele><time>2026-04-21T12:13:27.302Z</time></trkpt><trkpt lat="38.0514833" lon="15.8820433"><ele>861.0</ele><time>2026-04-21T12:13:28.302Z</time></trkpt><trkpt lat="38.0515017" lon="15.8819267"><ele>861.0</ele><time>2026-04-21T12:13:29.302Z</time></trkpt><trkpt lat="38.0515217" lon="15.8818067"><ele>860.9999999999999</ele><time>2026-04-21T12:13:30.302Z</time></trkpt><trkpt lat="38.0515583" lon="15.8816917"><ele>860.9999999999999</ele><time>2026-04-21T12:13:31.302Z</time></trkpt><trkpt lat="38.0516017" lon="15.8815833"><ele>861.0</ele><time>2026-04-21T12:13:32.302Z</time></trkpt><trkpt lat="38.05166" lon="15.8814983"><ele>861.0</ele><time>2026-04-21T12:13:33.302Z</time></trkpt><trkpt lat="38.0517267" lon="15.8814233"><ele>866.0</ele><time>2026-04-21T12:13:34.302Z</time></trkpt><trkpt lat="38.051795" lon="15.88134"><ele>870.9999999999999</ele><time>2026-04-21T12:13:35.302Z</time></trkpt><trkpt lat="38.05186" lon="15.88125"><ele>875.9999999999999</ele><time>2026-04-21T12:13:36.302Z</time></trkpt><trkpt lat="38.05194" lon="15.881165"><ele>881.0</ele><time>2026-04-21T12:13:37.302Z</time></trkpt><trkpt lat="38.0520233" lon="15.8810933"><ele>886.0</ele><time>2026-04-21T12:13:38.302Z</time></trkpt><trkpt lat="38.0521083" lon="15.88102"><ele>885.9999999999999</ele><time>2026-04-21T12:13:39.302Z</time></trkpt><trkpt lat="38.0521667" lon="15.880935"><ele>886.0</ele><time>2026-04-21T12:13:40.301Z</time></trkpt><trkpt lat="38.0521883" lon="15.880825"><ele>886.0</ele><time>2026-04-21T12:13:41.302Z</time></trkpt><trkpt lat="38.052195" lon="15.8807233"><ele>886.0</ele><time>2026-04-21T12:13:42.302Z</time></trkpt><trkpt lat="38.0521783" lon="15.880625"><ele>885.9999999999999</ele><time>2026-04-21T12:13:43.302Z</time></trkpt><trkpt lat="38.0521117" lon="15.8805317"><ele>886.0</ele><time>2026-04-21T12:13:44.302Z</time></trkpt><trkpt lat="38.0520533" lon="15.8804183"><ele>884.6666666666666</ele><time>2026-04-21T12:13:45.302Z</time></trkpt><trkpt lat="38.0520167" lon="15.880305"><ele>883.3333333333333</ele><time>2026-04-21T12:13:46.302Z</time></trkpt><trkpt lat="38.051985" lon="15.880215"><ele>882.0</ele><time>2026-04-21T12:13:47.302Z</time></trkpt><trkpt lat="38.0519533" lon="15.8801433"><ele>880.6666666666667</ele><time>2026-04-21T12:13:48.302Z</time></trkpt><trkpt lat="38.0519083" lon="15.8800867"><ele>879.3333333333334</ele><time>2026-04-21T12:13:49.302Z</time></trkpt><trkpt lat="38.051795" lon="15.8800483"><ele>878.0</ele><time>2026-04-21T12:13:51.302Z</time></trkpt><trkpt lat="38.0517233" lon="15.8800717"><ele>878.0</ele><time>2026-04-21T12:13:52.302Z</time></trkpt><trkpt lat="38.0516467" lon="15.8801333"><ele>878.0</ele><time>2026-04-21T12:13:53.302Z</time></trkpt><trkpt lat="38.0515633" lon="15.8802217"><ele>878.0</ele><time>2026-04-21T12:13:54.302Z</time></trkpt><trkpt lat="38.0514917" lon="15.880305"><ele>878.0</ele><time>2026-04-21T12:13:55.302Z</time></trkpt><trkpt lat="38.0514333" lon="15.8803833"><ele>878.0</ele><time>2026-04-21T12:13:56.302Z</time></trkpt><trkpt lat="38.051375" lon="15.880465"><ele>880.8</ele><time>2026-04-21T12:13:57.302Z</time></trkpt><trkpt lat="38.0513083" lon="15.8805467"><ele>883.5999999999999</ele><time>2026-04-21T12:13:58.302Z</time></trkpt><trkpt lat="38.051235" lon="15.880625"><ele>886.4000000000001</ele><time>2026-04-21T12:13:59.302Z</time></trkpt><trkpt lat="38.0511583" lon="15.8806967"><ele>889.2</ele><time>2026-04-21T12:14:00.302Z</time></trkpt><trkpt lat="38.0510783" lon="15.8807583"><ele>892.0</ele><time>2026-04-21T12:14:01.302Z</time></trkpt><trkpt lat="38.0509983" lon="15.88081"><ele>892.0</ele><time>2026-04-21T12:14:02.302Z</time></trkpt><trkpt lat="38.050915" lon="15.8808667"><ele>892.0</ele><time>2026-04-21T12:14:03.302Z</time></trkpt><trkpt lat="38.050835" lon="15.8809267"><ele>892.0</ele><time>2026-04-21T12:14:04.302Z</time></trkpt><trkpt lat="38.0507683" lon="15.8810017"><ele>892.0</ele><time>2026-04-21T12:14:05.302Z</time></trkpt><trkpt lat="38.0507083" lon="15.881085"><ele>892.0</ele><time>2026-04-21T12:14:06.301Z</time></trkpt><trkpt lat="38.0506517" lon="15.881175"><ele>891.2</ele><time>2026-04-21T12:14:07.302Z</time></trkpt><trkpt lat="38.050585" lon="15.8812617"><ele>890.4000000000001</ele><time>2026-04-21T12:14:08.302Z</time></trkpt><trkpt lat="38.0505133" lon="15.88135"><ele>889.5999999999999</ele><time>2026-04-21T12:14:09.302Z</time></trkpt><trkpt lat="38.05044" lon="15.8814417"><ele>888.8</ele><time>2026-04-21T12:14:10.302Z</time></trkpt><trkpt lat="38.05037" lon="15.8815217"><ele>888.0</ele><time>2026-04-21T12:14:11.302Z</time></trkpt><trkpt lat="38.050305" lon="15.8815783"><ele>888.0</ele><time>2026-04-21T12:14:12.302Z</time></trkpt><trkpt lat="38.0502267" lon="15.88162"><ele>888.0</ele><time>2026-04-21T12:14:13.302Z</time></trkpt><trkpt lat="38.0501433" lon="15.8816517"><ele>888.0</ele><time>2026-04-21T12:14:14.302Z</time></trkpt><trkpt lat="38.0500583" lon="15.8816733"><ele>888.0</ele><time>2026-04-21T12:14:15.301Z</time></trkpt><trkpt lat="38.04997" lon="15.881685"><ele>888.0</ele><time>2026-04-21T12:14:16.302Z</time></trkpt><trkpt lat="38.0498883" lon="15.8816733"><ele>888.0</ele><time>2026-04-21T12:14:17.302Z</time></trkpt><trkpt lat="38.0498017" lon="15.8816383"><ele>886.5999999999999</ele><time>2026-04-21T12:14:18.302Z</time></trkpt><trkpt lat="38.049715" lon="15.881595"><ele>885.1999999999999</ele><time>2026-04-21T12:14:19.302Z</time></trkpt><trkpt lat="38.049635" lon="15.8815417"><ele>883.8</ele><time>2026-04-21T12:14:20.302Z</time></trkpt><trkpt lat="38.0495517" lon="15.8814783"><ele>882.4</ele><time>2026-04-21T12:14:21.302Z</time></trkpt><trkpt lat="38.0494683" lon="15.8814183"><ele>881.0</ele><time>2026-04-21T12:14:22.302Z</time></trkpt><trkpt lat="38.049385" lon="15.8813533"><ele>881.0000000000001</ele><time>2026-04-21T12:14:23.301Z</time></trkpt><trkpt lat="38.0493083" lon="15.881295"><ele>881.0</ele><time>2026-04-21T12:14:24.302Z</time></trkpt><trkpt lat="38.0492383" lon="15.8812383"><ele>881.0</ele><time>2026-04-21T12:14:25.302Z</time></trkpt><trkpt lat="38.0491717" lon="15.881175"><ele>881.0</ele><time>2026-04-21T12:14:26.302Z</time></trkpt><trkpt lat="38.0491067" lon="15.8810983"><ele>881.0000000000001</ele><time>2026-04-21T12:14:27.302Z</time></trkpt><trkpt lat="38.0490617" lon="15.881005"><ele>881.0</ele><time>2026-04-21T12:14:28.302Z</time></trkpt><trkpt lat="38.04904" lon="15.8809117"><ele>879.5000000000001</ele><time>2026-04-21T12:14:29.302Z</time></trkpt><trkpt lat="38.0490317" lon="15.880805"><ele>878.0</ele><time>2026-04-21T12:14:30.302Z</time></trkpt><trkpt lat="38.04902" lon="15.8806967"><ele>876.5</ele><time>2026-04-21T12:14:31.302Z</time></trkpt><trkpt lat="38.0489883" lon="15.8805917"><ele>875.0</ele><time>2026-04-21T12:14:32.302Z</time></trkpt><trkpt lat="38.0489417" lon="15.8805"><ele>873.5000000000001</ele><time>2026-04-21T12:14:33.302Z</time></trkpt><trkpt lat="38.0488917" lon="15.8804067"><ele>872.0</ele><time>2026-04-21T12:14:34.302Z</time></trkpt><trkpt lat="38.048845" lon="15.8803133"><ele>872.0000000000001</ele><time>2026-04-21T12:14:35.302Z</time></trkpt><trkpt lat="38.0487983" lon="15.8802233"><ele>872.0</ele><time>2026-04-21T12:14:36.302Z</time></trkpt><trkpt lat="38.048755" lon="15.8801317"><ele>872.0</ele><time>2026-04-21T12:14:37.302Z</time></trkpt><trkpt lat="38.04871" lon="15.8800383"><ele>872.0</ele><time>2026-04-21T12:14:38.302Z</time></trkpt><trkpt lat="38.0486767" lon="15.879945"><ele>872.0000000000001</ele><time>2026-04-21T12:14:39.302Z</time></trkpt><trkpt lat="38.0486533" lon="15.8798417"><ele>872.0</ele><time>2026-04-21T12:14:40.302Z</time></trkpt><trkpt lat="38.0486317" lon="15.8797333"><ele>874.6666666666667</ele><time>2026-04-21T12:14:41.301Z</time></trkpt><trkpt lat="38.0486133" lon="15.8796217"><ele>877.3333333333334</ele><time>2026-04-21T12:14:42.302Z</time></trkpt><trkpt lat="38.0485933" lon="15.8795117"><ele>880.0</ele><time>2026-04-21T12:14:43.302Z</time></trkpt><trkpt lat="38.0485733" lon="15.8794017"><ele>882.6666666666667</ele><time>2026-04-21T12:14:44.302Z</time></trkpt><trkpt lat="38.0485467" lon="15.8792983"><ele>885.3333333333334</ele><time>2026-04-21T12:14:45.302Z</time></trkpt><trkpt lat="38.0485067" lon="15.8792017"><ele>888.0</ele><time>2026-04-21T12:14:46.302Z</time></trkpt><trkpt lat="38.0484667" lon="15.8791083"><ele>890.2</ele><time>2026-04-21T12:14:47.301Z</time></trkpt><trkpt lat="38.04842" lon="15.8790117"><ele>892.4</ele><time>2026-04-21T12:14:48.302Z</time></trkpt><trkpt lat="38.04837" lon="15.8789167"><ele>894.6000000000001</ele><time>2026-04-21T12:14:49.302Z</time></trkpt><trkpt lat="38.0483167" lon="15.878815"><ele>896.8000000000001</ele><time>2026-04-21T12:14:50.302Z</time></trkpt><trkpt lat="38.0482717" lon="15.87871"><ele>899.0</ele><time>2026-04-21T12:14:51.302Z</time></trkpt><trkpt lat="38.0482317" lon="15.8786033"><ele>895.8333333333334</ele><time>2026-04-21T12:14:52.302Z</time></trkpt><trkpt lat="38.0482083" lon="15.8785033"><ele>892.6666666666667</ele><time>2026-04-21T12:14:53.302Z</time></trkpt><trkpt lat="38.0482033" lon="15.8784017"><ele>889.5</ele><time>2026-04-21T12:14:54.302Z</time></trkpt><trkpt lat="38.04822" lon="15.87829"><ele>886.3333333333333</ele><time>2026-04-21T12:14:55.302Z</time></trkpt><trkpt lat="38.04823" lon="15.8781767"><ele>883.1666666666666</ele><time>2026-04-21T12:14:56.302Z</time></trkpt><trkpt lat="38.048245" lon="15.8780517"><ele>880.0</ele><time>2026-04-21T12:14:57.302Z</time></trkpt><trkpt lat="38.04826" lon="15.8779267"><ele>880.0</ele><time>2026-04-21T12:14:58.302Z</time></trkpt><trkpt lat="38.0482683" lon="15.8778083"><ele>880.0</ele><time>2026-04-21T12:14:59.302Z</time></trkpt><trkpt lat="38.04828" lon="15.8776817"><ele>880.0</ele><time>2026-04-21T12:15:00.302Z</time></trkpt><trkpt lat="38.0483" lon="15.87756"><ele>880.0</ele><time>2026-04-21T12:15:01.302Z</time></trkpt><trkpt lat="38.04832" lon="15.8774383"><ele>880.0</ele><time>2026-04-21T12:15:02.302Z</time></trkpt><trkpt lat="38.0483383" lon="15.87732"><ele>880.3333333333333</ele><time>2026-04-21T12:15:03.302Z</time></trkpt><trkpt lat="38.048345" lon="15.87721"><ele>880.6666666666666</ele><time>2026-04-21T12:15:04.302Z</time></trkpt><trkpt lat="38.048345" lon="15.8770983"><ele>881.0</ele><time>2026-04-21T12:15:05.302Z</time></trkpt><trkpt lat="38.0483367" lon="15.8769933"><ele>881.3333333333333</ele><time>2026-04-21T12:15:06.302Z</time></trkpt><trkpt lat="38.0483133" lon="15.8768933"><ele>881.6666666666666</ele><time>2026-04-21T12:15:07.302Z</time></trkpt><trkpt lat="38.0482783" lon="15.8767983"><ele>882.0</ele><time>2026-04-21T12:15:08.302Z</time></trkpt><trkpt lat="38.0482467" lon="15.8767017"><ele>885.0</ele><time>2026-04-21T12:15:09.302Z</time></trkpt><trkpt lat="38.0482317" lon="15.876605"><ele>888.0</ele><time>2026-04-21T12:15:10.302Z</time></trkpt><trkpt lat="38.0482567" lon="15.8765"><ele>891.0</ele><time>2026-04-21T12:15:11.302Z</time></trkpt><trkpt lat="38.0482983" lon="15.876385"><ele>894.0</ele><time>2026-04-21T12:15:12.301Z</time></trkpt><trkpt lat="38.0483483" lon="15.8762567"><ele>897.0</ele><time>2026-04-21T12:15:13.302Z</time></trkpt><trkpt lat="38.0484" lon="15.8761267"><ele>901.0</ele><time>2026-04-21T12:15:14.302Z</time></trkpt><trkpt lat="38.0484517" lon="15.8760033"><ele>905.0</ele><time>2026-04-21T12:15:15.302Z</time></trkpt><trkpt lat="38.0484983" lon="15.8759033"><ele>909.0</ele><time>2026-04-21T12:15:16.302Z</time></trkpt><trkpt lat="38.0485433" lon="15.8758217"><ele>913.0</ele><time>2026-04-21T12:15:17.302Z</time></trkpt><trkpt lat="38.0485917" lon="15.875745"><ele>917.0</ele><time>2026-04-21T12:15:18.301Z</time></trkpt><trkpt lat="38.04862" lon="15.875665"><ele>921.0</ele><time>2026-04-21T12:15:19.302Z</time></trkpt><trkpt lat="38.048615" lon="15.8755667"><ele>921.4</ele><time>2026-04-21T12:15:20.302Z</time></trkpt><trkpt lat="38.0485783" lon="15.8754683"><ele>921.8</ele><time>2026-04-21T12:15:21.302Z</time></trkpt><trkpt lat="38.0485133" lon="15.875405"><ele>922.1999999999999</ele><time>2026-04-21T12:15:22.302Z</time></trkpt><trkpt lat="38.0484167" lon="15.87537"><ele>922.5999999999999</ele><time>2026-04-21T12:15:23.302Z</time></trkpt><trkpt lat="38.0483067" lon="15.87534"><ele>923.0</ele><time>2026-04-21T12:15:24.302Z</time></trkpt><trkpt lat="38.0482" lon="15.875335"><ele>923.0</ele><time>2026-04-21T12:15:25.302Z</time></trkpt><trkpt lat="38.0480883" lon="15.8753567"><ele>923.0</ele><time>2026-04-21T12:15:26.302Z</time></trkpt><trkpt lat="38.047985" lon="15.8753917"><ele>923.0</ele><time>2026-04-21T12:15:27.302Z</time></trkpt><trkpt lat="38.0478833" lon="15.8754267"><ele>923.0</ele><time>2026-04-21T12:15:28.302Z</time></trkpt><trkpt lat="38.0477867" lon="15.8754483"><ele>923.0</ele><time>2026-04-21T12:15:29.302Z</time></trkpt><trkpt lat="38.0476933" lon="15.8754783"><ele>923.0</ele><time>2026-04-21T12:15:30.302Z</time></trkpt><trkpt lat="38.0476" lon="15.8755033"><ele>923.0</ele><time>2026-04-21T12:15:31.302Z</time></trkpt><trkpt lat="38.047495" lon="15.87551"><ele>923.0</ele><time>2026-04-21T12:15:32.302Z</time></trkpt><trkpt lat="38.0473817" lon="15.8755217"><ele>923.0</ele><time>2026-04-21T12:15:33.302Z</time></trkpt><trkpt lat="38.04727" lon="15.8755433"><ele>923.0</ele><time>2026-04-21T12:15:34.302Z</time></trkpt><trkpt lat="38.0471583" lon="15.8756017"><ele>926.4</ele><time>2026-04-21T12:15:35.301Z</time></trkpt><trkpt lat="38.0470583" lon="15.8756783"><ele>929.8</ele><time>2026-04-21T12:15:36.302Z</time></trkpt><trkpt lat="38.04699" lon="15.8757733"><ele>933.2</ele><time>2026-04-21T12:15:37.302Z</time></trkpt><trkpt lat="38.046925" lon="15.875865"><ele>936.6</ele><time>2026-04-21T12:15:38.302Z</time></trkpt><trkpt lat="38.0468783" lon="15.87594"><ele>940.0</ele><time>2026-04-21T12:15:39.302Z</time></trkpt><trkpt lat="38.0468233" lon="15.8759917"><ele>935.2</ele><time>2026-04-21T12:15:40.302Z</time></trkpt><trkpt lat="38.046705" lon="15.87602"><ele>930.4</ele><time>2026-04-21T12:15:42.302Z</time></trkpt><trkpt lat="38.0466233" lon="15.876015"><ele>925.5999999999999</ele><time>2026-04-21T12:15:43.302Z</time></trkpt><trkpt lat="38.0465267" lon="15.876005"><ele>920.8</ele><time>2026-04-21T12:15:44.302Z</time></trkpt><trkpt lat="38.0464267" lon="15.875995"><ele>916.0</ele><time>2026-04-21T12:15:45.302Z</time></trkpt><trkpt lat="38.0463183" lon="15.8759867"><ele>916.0</ele><time>2026-04-21T12:15:46.302Z</time></trkpt><trkpt lat="38.0462067" lon="15.8759733"><ele>915.9999999999999</ele><time>2026-04-21T12:15:47.301Z</time></trkpt><trkpt lat="38.0460933" lon="15.8759583"><ele>915.9999999999999</ele><time>2026-04-21T12:15:48.302Z</time></trkpt><trkpt lat="38.0459867" lon="15.8759783"><ele>916.0</ele><time>2026-04-21T12:15:49.301Z</time></trkpt><trkpt lat="38.0458833" lon="15.87602"><ele>916.0</ele><time>2026-04-21T12:15:50.302Z</time></trkpt><trkpt lat="38.045795" lon="15.8760667"><ele>919.1666666666666</ele><time>2026-04-21T12:15:51.302Z</time></trkpt><trkpt lat="38.0457133" lon="15.8761133"><ele>922.3333333333333</ele><time>2026-04-21T12:15:52.302Z</time></trkpt><trkpt lat="38.0456333" lon="15.87616"><ele>925.5</ele><time>2026-04-21T12:15:53.301Z</time></trkpt><trkpt lat="38.045555" lon="15.876195"><ele>928.6666666666667</ele><time>2026-04-21T12:15:54.302Z</time></trkpt><trkpt lat="38.0454717" lon="15.8762167"><ele>931.8333333333334</ele><time>2026-04-21T12:15:55.302Z</time></trkpt><trkpt lat="38.0453833" lon="15.8762217"><ele>935.0</ele><time>2026-04-21T12:15:56.302Z</time></trkpt><trkpt lat="38.0452983" lon="15.8762183"><ele>935.0</ele><time>2026-04-21T12:15:57.302Z</time></trkpt><trkpt lat="38.0452067" lon="15.8762133"><ele>935.0</ele><time>2026-04-21T12:15:58.302Z</time></trkpt><trkpt lat="38.0451117" lon="15.87622"><ele>935.0</ele><time>2026-04-21T12:15:59.302Z</time></trkpt><trkpt lat="38.0450133" lon="15.876225"><ele>935.0</ele><time>2026-04-21T12:16:00.301Z</time></trkpt><trkpt lat="38.04491" lon="15.8762417"><ele>935.0</ele><time>2026-04-21T12:16:01.303Z</time></trkpt><trkpt lat="38.04481" lon="15.876265"><ele>935.2</ele><time>2026-04-21T12:16:02.303Z</time></trkpt><trkpt lat="38.0447067" lon="15.87629"><ele>935.4</ele><time>2026-04-21T12:16:03.303Z</time></trkpt><trkpt lat="38.0446017" lon="15.8762983"><ele>935.5999999999999</ele><time>2026-04-21T12:16:04.303Z</time></trkpt><trkpt lat="38.044495" lon="15.8763017"><ele>935.8</ele><time>2026-04-21T12:16:05.303Z</time></trkpt><trkpt lat="38.0443867" lon="15.8762883"><ele>936.0</ele><time>2026-04-21T12:16:06.303Z</time></trkpt><trkpt lat="38.044285" lon="15.8762733"><ele>936.0</ele><time>2026-04-21T12:16:07.303Z</time></trkpt><trkpt lat="38.04418" lon="15.8762583"><ele>935.9999999999999</ele><time>2026-04-21T12:16:08.303Z</time></trkpt><trkpt lat="38.04407" lon="15.876245"><ele>935.9999999999999</ele><time>2026-04-21T12:16:09.303Z</time></trkpt><trkpt lat="38.0439617" lon="15.8762217"><ele>936.0</ele><time>2026-04-21T12:16:10.303Z</time></trkpt><trkpt lat="38.043855" lon="15.8762133"><ele>936.0</ele><time>2026-04-21T12:16:11.303Z</time></trkpt><trkpt lat="38.0437583" lon="15.8762017"><ele>933.8</ele><time>2026-04-21T12:16:12.303Z</time></trkpt><trkpt lat="38.0436667" lon="15.876185"><ele>931.5999999999999</ele><time>2026-04-21T12:16:13.303Z</time></trkpt><trkpt lat="38.043575" lon="15.87616"><ele>929.4</ele><time>2026-04-21T12:16:14.303Z</time></trkpt><trkpt lat="38.0434817" lon="15.8761167"><ele>927.2</ele><time>2026-04-21T12:16:15.303Z</time></trkpt><trkpt lat="38.043395" lon="15.87606"><ele>925.0</ele><time>2026-04-21T12:16:16.303Z</time></trkpt><trkpt lat="38.0433133" lon="15.875995"><ele>929.8</ele><time>2026-04-21T12:16:17.303Z</time></trkpt><trkpt lat="38.0432317" lon="15.8759217"><ele>934.6</ele><time>2026-04-21T12:16:18.303Z</time></trkpt><trkpt lat="38.0431533" lon="15.875855"><ele>939.4000000000001</ele><time>2026-04-21T12:16:19.303Z</time></trkpt><trkpt lat="38.04307" lon="15.8757867"><ele>944.2</ele><time>2026-04-21T12:16:20.303Z</time></trkpt><trkpt lat="38.0429917" lon="15.87573"><ele>949.0</ele><time>2026-04-21T12:16:21.303Z</time></trkpt><trkpt lat="38.042905" lon="15.8756867"><ele>948.9999999999999</ele><time>2026-04-21T12:16:22.303Z</time></trkpt><trkpt lat="38.042815" lon="15.8756633"><ele>949.0</ele><time>2026-04-21T12:16:23.303Z</time></trkpt><trkpt lat="38.0427317" lon="15.875645"><ele>949.0</ele><time>2026-04-21T12:16:24.303Z</time></trkpt><trkpt lat="38.0426483" lon="15.8756217"><ele>949.0</ele><time>2026-04-21T12:16:25.303Z</time></trkpt><trkpt lat="38.0425733" lon="15.8755867"><ele>948.9999999999999</ele><time>2026-04-21T12:16:26.303Z</time></trkpt><trkpt lat="38.0425067" lon="15.875535"><ele>949.0</ele><time>2026-04-21T12:16:27.303Z</time></trkpt><trkpt lat="38.0424567" lon="15.8754717"><ele>951.3333333333333</ele><time>2026-04-21T12:16:28.303Z</time></trkpt><trkpt lat="38.042425" lon="15.8753883"><ele>953.6666666666666</ele><time>2026-04-21T12:16:29.302Z</time></trkpt><trkpt lat="38.0423983" lon="15.8752933"><ele>956.0</ele><time>2026-04-21T12:16:30.303Z</time></trkpt><trkpt lat="38.042385" lon="15.875185"><ele>958.3333333333333</ele><time>2026-04-21T12:16:31.303Z</time></trkpt><trkpt lat="38.0423767" lon="15.87507"><ele>960.6666666666666</ele><time>2026-04-21T12:16:32.303Z</time></trkpt><trkpt lat="38.0423717" lon="15.8749583"><ele>963.0</ele><time>2026-04-21T12:16:33.303Z</time></trkpt><trkpt lat="38.0423667" lon="15.874845"><ele>963.0</ele><time>2026-04-21T12:16:34.303Z</time></trkpt><trkpt lat="38.042335" lon="15.8747517"><ele>963.0</ele><time>2026-04-21T12:16:35.303Z</time></trkpt><trkpt lat="38.04228" lon="15.87467"><ele>963.0</ele><time>2026-04-21T12:16:36.302Z</time></trkpt><trkpt lat="38.0422" lon="15.8746183"><ele>963.0</ele><time>2026-04-21T12:16:37.303Z</time></trkpt><trkpt lat="38.042105" lon="15.8746183"><ele>963.0</ele><time>2026-04-21T12:16:38.303Z</time></trkpt><trkpt lat="38.042015" lon="15.8746467"><ele>963.0</ele><time>2026-04-21T12:16:39.303Z</time></trkpt><trkpt lat="38.041925" lon="15.8746933"><ele>963.0</ele><time>2026-04-21T12:16:40.303Z</time></trkpt><trkpt lat="38.0418333" lon="15.87475"><ele>963.0</ele><time>2026-04-21T12:16:41.303Z</time></trkpt><trkpt lat="38.0417433" lon="15.8747833"><ele>963.0</ele><time>2026-04-21T12:16:42.302Z</time></trkpt><trkpt lat="38.041645" lon="15.874775"><ele>963.0</ele><time>2026-04-21T12:16:43.303Z</time></trkpt><trkpt lat="38.0415567" lon="15.874725"><ele>963.0</ele><time>2026-04-21T12:16:44.303Z</time></trkpt><trkpt lat="38.0414767" lon="15.8746483"><ele>964.0</ele><time>2026-04-21T12:16:45.303Z</time></trkpt><trkpt lat="38.0414017" lon="15.87455"><ele>965.0</ele><time>2026-04-21T12:16:46.303Z</time></trkpt><trkpt lat="38.04134" lon="15.8744383"><ele>966.0</ele><time>2026-04-21T12:16:47.303Z</time></trkpt><trkpt lat="38.04129" lon="15.8743167"><ele>967.0</ele><time>2026-04-21T12:16:48.303Z</time></trkpt><trkpt lat="38.0412317" lon="15.8742067"><ele>968.0</ele><time>2026-04-21T12:16:49.303Z</time></trkpt><trkpt lat="38.0411567" lon="15.8741117"><ele>968.0</ele><time>2026-04-21T12:16:50.303Z</time></trkpt><trkpt lat="38.0410667" lon="15.8740367"><ele>968.0</ele><time>2026-04-21T12:16:51.302Z</time></trkpt><trkpt lat="38.040975" lon="15.87397"><ele>968.0</ele><time>2026-04-21T12:16:52.303Z</time></trkpt><trkpt lat="38.0408917" lon="15.873905"><ele>968.0</ele><time>2026-04-21T12:16:53.303Z</time></trkpt><trkpt lat="38.0408183" lon="15.8738333"><ele>968.0</ele><time>2026-04-21T12:16:54.303Z</time></trkpt><trkpt lat="38.0407583" lon="15.8737583"><ele>968.2</ele><time>2026-04-21T12:16:55.303Z</time></trkpt><trkpt lat="38.040715" lon="15.8736667"><ele>968.4</ele><time>2026-04-21T12:16:56.303Z</time></trkpt><trkpt lat="38.0406717" lon="15.873565"><ele>968.6000000000001</ele><time>2026-04-21T12:16:57.303Z</time></trkpt><trkpt lat="38.0406233" lon="15.87347"><ele>968.8000000000001</ele><time>2026-04-21T12:16:58.303Z</time></trkpt><trkpt lat="38.040565" lon="15.8733767"><ele>969.0</ele><time>2026-04-21T12:16:59.303Z</time></trkpt><trkpt lat="38.0404983" lon="15.873285"><ele>969.0</ele><time>2026-04-21T12:17:00.303Z</time></trkpt><trkpt lat="38.040425" lon="15.8731983"><ele>969.0000000000001</ele><time>2026-04-21T12:17:01.303Z</time></trkpt><trkpt lat="38.0403583" lon="15.8731233"><ele>969.0000000000001</ele><time>2026-04-21T12:17:02.302Z</time></trkpt><trkpt lat="38.04029" lon="15.87305"><ele>969.0</ele><time>2026-04-21T12:17:03.303Z</time></trkpt><trkpt lat="38.040225" lon="15.8729783"><ele>969.0</ele><time>2026-04-21T12:17:04.303Z</time></trkpt><trkpt lat="38.0401617" lon="15.872905"><ele>969.0</ele><time>2026-04-21T12:17:05.303Z</time></trkpt><trkpt lat="38.040095" lon="15.8728367"><ele>969.0000000000001</ele><time>2026-04-21T12:17:06.303Z</time></trkpt><trkpt lat="38.0400183" lon="15.8727767"><ele>969.0000000000001</ele><time>2026-04-21T12:17:07.303Z</time></trkpt><trkpt lat="38.03994" lon="15.8727217"><ele>969.0</ele><time>2026-04-21T12:17:08.303Z</time></trkpt><trkpt lat="38.0398517" lon="15.8726783"><ele>969.0</ele><time>2026-04-21T12:17:09.303Z</time></trkpt><trkpt lat="38.0397667" lon="15.87264"><ele>972.5</ele><time>2026-04-21T12:17:10.303Z</time></trkpt><trkpt lat="38.0396833" lon="15.872605"><ele>976.0</ele><time>2026-04-21T12:17:11.303Z</time></trkpt><trkpt lat="38.039595" lon="15.872575"><ele>979.5</ele><time>2026-04-21T12:17:12.303Z</time></trkpt><trkpt lat="38.0395117" lon="15.8725467"><ele>983.0</ele><time>2026-04-21T12:17:13.303Z</time></trkpt><trkpt lat="38.0394317" lon="15.87251"><ele>986.5</ele><time>2026-04-21T12:17:14.303Z</time></trkpt><trkpt lat="38.0393517" lon="15.8724717"><ele>990.0</ele><time>2026-04-21T12:17:15.303Z</time></trkpt><trkpt lat="38.0392783" lon="15.8724333"><ele>990.0</ele><time>2026-04-21T12:17:16.303Z</time></trkpt><trkpt lat="38.0391967" lon="15.872395"><ele>990.0</ele><time>2026-04-21T12:17:17.303Z</time></trkpt><trkpt lat="38.0391133" lon="15.8723583"><ele>990.0</ele><time>2026-04-21T12:17:18.303Z</time></trkpt><trkpt lat="38.03903" lon="15.8723217"><ele>990.0</ele><time>2026-04-21T12:17:19.303Z</time></trkpt><trkpt lat="38.03894" lon="15.8722933"><ele>990.0</ele><time>2026-04-21T12:17:20.303Z</time></trkpt><trkpt lat="38.03885" lon="15.8722633"><ele>990.0</ele><time>2026-04-21T12:17:21.303Z</time></trkpt><trkpt lat="38.0387567" lon="15.87223"><ele>991.4</ele><time>2026-04-21T12:17:22.303Z</time></trkpt><trkpt lat="38.038665" lon="15.872195"><ele>992.8</ele><time>2026-04-21T12:17:23.303Z</time></trkpt><trkpt lat="38.0385733" lon="15.8721567"><ele>994.2</ele><time>2026-04-21T12:17:24.303Z</time></trkpt><trkpt lat="38.03848" lon="15.8721167"><ele>995.6</ele><time>2026-04-21T12:17:25.303Z</time></trkpt><trkpt lat="38.0383833" lon="15.8720733"><ele>997.0</ele><time>2026-04-21T12:17:26.303Z</time></trkpt><trkpt lat="38.0382917" lon="15.8720283"><ele>997.0</ele><time>2026-04-21T12:17:27.303Z</time></trkpt><trkpt lat="38.0382017" lon="15.8719883"><ele>997.0</ele><time>2026-04-21T12:17:28.303Z</time></trkpt><trkpt lat="38.03811" lon="15.8719483"><ele>997.0</ele><time>2026-04-21T12:17:29.303Z</time></trkpt><trkpt lat="38.03802" lon="15.8719133"><ele>997.0</ele><time>2026-04-21T12:17:30.303Z</time></trkpt><trkpt lat="38.0379333" lon="15.87188"><ele>997.0</ele><time>2026-04-21T12:17:31.303Z</time></trkpt><trkpt lat="38.0378483" lon="15.8718483"><ele>996.9999999999999</ele><time>2026-04-21T12:17:32.303Z</time></trkpt><trkpt lat="38.0377717" lon="15.871815"><ele>997.0</ele><time>2026-04-21T12:17:33.303Z</time></trkpt><trkpt lat="38.0377083" lon="15.8717783"><ele>997.0</ele><time>2026-04-21T12:17:34.303Z</time></trkpt><trkpt lat="38.037635" lon="15.87168"><ele>997.0</ele><time>2026-04-21T12:17:36.302Z</time></trkpt><trkpt lat="38.0376267" lon="15.87154"><ele>996.9999999999999</ele><time>2026-04-21T12:17:38.303Z</time></trkpt><trkpt lat="38.0376267" lon="15.8714567"><ele>997.0</ele><time>2026-04-21T12:17:39.303Z</time></trkpt><trkpt lat="38.0376083" lon="15.87137"><ele>1000.6666666666666</ele><time>2026-04-21T12:17:40.303Z</time></trkpt><trkpt lat="38.0375783" lon="15.8712783"><ele>1004.3333333333333</ele><time>2026-04-21T12:17:41.303Z</time></trkpt><trkpt lat="38.037535" lon="15.8711833"><ele>1008.0</ele><time>2026-04-21T12:17:42.303Z</time></trkpt><trkpt lat="38.0374867" lon="15.8710917"><ele>1011.6666666666667</ele><time>2026-04-21T12:17:43.303Z</time></trkpt><trkpt lat="38.03744" lon="15.8710017"><ele>1015.3333333333334</ele><time>2026-04-21T12:17:44.303Z</time></trkpt><trkpt lat="38.0373883" lon="15.8709167"><ele>1019.0</ele><time>2026-04-21T12:17:45.303Z</time></trkpt><trkpt lat="38.0373383" lon="15.8708383"><ele>1025.6666666666667</ele><time>2026-04-21T12:17:46.303Z</time></trkpt><trkpt lat="38.037285" lon="15.870765"><ele>1032.3333333333335</ele><time>2026-04-21T12:17:47.303Z</time></trkpt><trkpt lat="38.0372283" lon="15.8706917"><ele>1039.0</ele><time>2026-04-21T12:17:48.303Z</time></trkpt><trkpt lat="38.037165" lon="15.87062"><ele>1045.6666666666667</ele><time>2026-04-21T12:17:49.303Z</time></trkpt><trkpt lat="38.0371067" lon="15.8705483"><ele>1052.3333333333333</ele><time>2026-04-21T12:17:50.303Z</time></trkpt><trkpt lat="38.0370517" lon="15.8704717"><ele>1059.0</ele><time>2026-04-21T12:17:51.303Z</time></trkpt><trkpt lat="38.0370133" lon="15.8703833"><ele>1059.0</ele><time>2026-04-21T12:17:52.303Z</time></trkpt><trkpt lat="38.0369833" lon="15.8702933"><ele>1059.0</ele><time>2026-04-21T12:17:53.303Z</time></trkpt><trkpt lat="38.0369617" lon="15.87021"><ele>1059.0</ele><time>2026-04-21T12:17:54.303Z</time></trkpt><trkpt lat="38.03692" lon="15.8701017"><ele>1059.0</ele><time>2026-04-21T12:17:56.303Z</time></trkpt><trkpt lat="38.0368567" lon="15.8700767"><ele>1059.0</ele><time>2026-04-21T12:17:58.303Z</time></trkpt><trkpt lat="38.0368233" lon="15.8701567"><ele>1059.0</ele><time>2026-04-21T12:18:00.303Z</time></trkpt><trkpt lat="38.0368467" lon="15.8702733"><ele>1059.0</ele><time>2026-04-21T12:18:02.303Z</time></trkpt><trkpt lat="38.036825" lon="15.8703783"><ele>1059.0</ele><time>2026-04-21T12:18:04.303Z</time></trkpt><trkpt lat="38.0367483" lon="15.870385"><ele>1059.0</ele><time>2026-04-21T12:18:06.303Z</time></trkpt><trkpt lat="38.0366633" lon="15.870285"><ele>1059.0</ele><time>2026-04-21T12:18:08.303Z</time></trkpt><trkpt lat="38.03658" lon="15.8701717"><ele>1059.0</ele><time>2026-04-21T12:18:10.303Z</time></trkpt><trkpt lat="38.036525" lon="15.87011"><ele>1063.5</ele><time>2026-04-21T12:18:11.303Z</time></trkpt><trkpt lat="38.0364717" lon="15.8700483"><ele>1068.0</ele><time>2026-04-21T12:18:12.303Z</time></trkpt><trkpt lat="38.0363967" lon="15.8699483"><ele>1072.5</ele><time>2026-04-21T12:18:14.302Z</time></trkpt><trkpt lat="38.03633" lon="15.8698767"><ele>1077.0</ele><time>2026-04-21T12:18:16.303Z</time></trkpt><trkpt lat="38.0362533" lon="15.8698917"><ele>1081.5</ele><time>2026-04-21T12:18:18.303Z</time></trkpt><trkpt lat="38.0362583" lon="15.8700183"><ele>1086.0</ele><time>2026-04-21T12:18:20.303Z</time></trkpt><trkpt lat="38.0362917" lon="15.8700933"><ele>1086.7142857142858</ele><time>2026-04-21T12:18:21.303Z</time></trkpt><trkpt lat="38.0363283" lon="15.8701767"><ele>1087.4285714285713</ele><time>2026-04-21T12:18:22.303Z</time></trkpt><trkpt lat="38.03636" lon="15.8702567"><ele>1088.142857142857</ele><time>2026-04-21T12:18:23.303Z</time></trkpt><trkpt lat="38.0363917" lon="15.8703383"><ele>1088.857142857143</ele><time>2026-04-21T12:18:24.303Z</time></trkpt><trkpt lat="38.0364283" lon="15.870415"><ele>1089.5714285714287</ele><time>2026-04-21T12:18:25.303Z</time></trkpt><trkpt lat="38.0364633" lon="15.8704817"><ele>1090.2857142857142</ele><time>2026-04-21T12:18:26.303Z</time></trkpt><trkpt lat="38.0365" lon="15.870555"><ele>1091.0</ele><time>2026-04-21T12:18:27.303Z</time></trkpt><trkpt lat="38.03654" lon="15.8706217"><ele>1091.0</ele><time>2026-04-21T12:18:28.303Z</time></trkpt><trkpt lat="38.0365967" lon="15.870745"><ele>1091.0</ele><time>2026-04-21T12:18:30.303Z</time></trkpt><trkpt lat="38.0365817" lon="15.870875"><ele>1091.0</ele><time>2026-04-21T12:18:32.303Z</time></trkpt><trkpt lat="38.0364867" lon="15.870985"><ele>1091.0</ele><time>2026-04-21T12:18:34.303Z</time></trkpt><trkpt lat="38.0364267" lon="15.8710367"><ele>1091.0</ele><time>2026-04-21T12:18:35.303Z</time></trkpt><trkpt lat="38.03637" lon="15.8710933"><ele>1086.5</ele><time>2026-04-21T12:18:36.303Z</time></trkpt><trkpt lat="38.0363183" lon="15.871155"><ele>1082.0</ele><time>2026-04-21T12:18:37.302Z</time></trkpt><trkpt lat="38.0362667" lon="15.87122"><ele>1077.5</ele><time>2026-04-21T12:18:38.303Z</time></trkpt><trkpt lat="38.0362117" lon="15.8712733"><ele>1073.0</ele><time>2026-04-21T12:18:39.303Z</time></trkpt><trkpt lat="38.0361033" lon="15.8713583"><ele>1068.5</ele><time>2026-04-21T12:18:41.303Z</time></trkpt><trkpt lat="38.03604" lon="15.8713833"><ele>1064.0</ele><time>2026-04-21T12:18:42.303Z</time></trkpt><trkpt lat="38.0359733" lon="15.8714083"><ele>1064.0</ele><time>2026-04-21T12:18:43.303Z</time></trkpt><trkpt lat="38.035895" lon="15.8714217"><ele>1064.0</ele><time>2026-04-21T12:18:44.302Z</time></trkpt><trkpt lat="38.035805" lon="15.8714433"><ele>1064.0</ele><time>2026-04-21T12:18:45.303Z</time></trkpt><trkpt lat="38.0357183" lon="15.8714683"><ele>1064.0</ele><time>2026-04-21T12:18:46.303Z</time></trkpt><trkpt lat="38.0356383" lon="15.8714883"><ele>1064.0</ele><time>2026-04-21T12:18:47.303Z</time></trkpt><trkpt lat="38.0355533" lon="15.8714933"><ele>1064.0</ele><time>2026-04-21T12:18:48.303Z</time></trkpt><trkpt lat="38.0354633" lon="15.8714833"><ele>1067.6666666666667</ele><time>2026-04-21T12:18:49.303Z</time></trkpt><trkpt lat="38.0353767" lon="15.8714767"><ele>1071.3333333333335</ele><time>2026-04-21T12:18:50.303Z</time></trkpt><trkpt lat="38.0352783" lon="15.8714867"><ele>1075.0</ele><time>2026-04-21T12:18:51.303Z</time></trkpt><trkpt lat="38.0351967" lon="15.8715233"><ele>1078.6666666666667</ele><time>2026-04-21T12:18:52.303Z</time></trkpt><trkpt lat="38.035125" lon="15.8715767"><ele>1082.3333333333333</ele><time>2026-04-21T12:18:53.303Z</time></trkpt><trkpt lat="38.0350567" lon="15.8716383"><ele>1086.0</ele><time>2026-04-21T12:18:54.302Z</time></trkpt><trkpt lat="38.034985" lon="15.871695"><ele>1085.5</ele><time>2026-04-21T12:18:55.303Z</time></trkpt><trkpt lat="38.0349083" lon="15.8717567"><ele>1085.0</ele><time>2026-04-21T12:18:56.303Z</time></trkpt><trkpt lat="38.0348333" lon="15.8718017"><ele>1084.5</ele><time>2026-04-21T12:18:57.303Z</time></trkpt><trkpt lat="38.0347583" lon="15.8718483"><ele>1084.0</ele><time>2026-04-21T12:18:58.303Z</time></trkpt><trkpt lat="38.0346783" lon="15.871885"><ele>1083.5</ele><time>2026-04-21T12:18:59.303Z</time></trkpt><trkpt lat="38.0345983" lon="15.87192"><ele>1083.0</ele><time>2026-04-21T12:19:00.303Z</time></trkpt><trkpt lat="38.0345233" lon="15.8719533"><ele>1083.0</ele><time>2026-04-21T12:19:01.303Z</time></trkpt><trkpt lat="38.0344383" lon="15.8720017"><ele>1083.0</ele><time>2026-04-21T12:19:02.303Z</time></trkpt><trkpt lat="38.0343583" lon="15.8720633"><ele>1083.0</ele><time>2026-04-21T12:19:03.303Z</time></trkpt><trkpt lat="38.0342867" lon="15.872135"><ele>1083.0</ele><time>2026-04-21T12:19:04.303Z</time></trkpt><trkpt lat="38.034225" lon="15.8722"><ele>1083.0</ele><time>2026-04-21T12:19:05.303Z</time></trkpt><trkpt lat="38.0341717" lon="15.8722733"><ele>1083.0</ele><time>2026-04-21T12:19:06.303Z</time></trkpt><trkpt lat="38.03412" lon="15.8723467"><ele>1085.2857142857142</ele><time>2026-04-21T12:19:07.303Z</time></trkpt><trkpt lat="38.03407" lon="15.87241"><ele>1087.5714285714287</ele><time>2026-04-21T12:19:08.303Z</time></trkpt><trkpt lat="38.0340133" lon="15.87246"><ele>1089.857142857143</ele><time>2026-04-21T12:19:09.303Z</time></trkpt><trkpt lat="38.0339467" lon="15.8724883"><ele>1092.142857142857</ele><time>2026-04-21T12:19:10.303Z</time></trkpt><trkpt lat="38.0338767" lon="15.8724967"><ele>1094.4285714285716</ele><time>2026-04-21T12:19:11.303Z</time></trkpt><trkpt lat="38.0338067" lon="15.872505"><ele>1096.7142857142858</ele><time>2026-04-21T12:19:12.303Z</time></trkpt><trkpt lat="38.0337333" lon="15.872505"><ele>1099.0</ele><time>2026-04-21T12:19:13.303Z</time></trkpt><trkpt lat="38.03366" lon="15.8724983"><ele>1099.0</ele><time>2026-04-21T12:19:14.303Z</time></trkpt><trkpt lat="38.033585" lon="15.8725"><ele>1099.0</ele><time>2026-04-21T12:19:15.303Z</time></trkpt><trkpt lat="38.0335083" lon="15.872495"><ele>1099.0</ele><time>2026-04-21T12:19:16.303Z</time></trkpt><trkpt lat="38.0334367" lon="15.8724833"><ele>1099.0</ele><time>2026-04-21T12:19:17.303Z</time></trkpt><trkpt lat="38.033365" lon="15.872485"><ele>1099.0</ele><time>2026-04-21T12:19:18.303Z</time></trkpt><trkpt lat="38.033295" lon="15.8724917"><ele>1099.0</ele><time>2026-04-21T12:19:19.303Z</time></trkpt><trkpt lat="38.0332283" lon="15.8725133"><ele>1099.0</ele><time>2026-04-21T12:19:20.303Z</time></trkpt><trkpt lat="38.0331183" lon="15.8725867"><ele>1097.857142857143</ele><time>2026-04-21T12:19:22.302Z</time></trkpt><trkpt lat="38.0330633" lon="15.8726567"><ele>1096.7142857142858</ele><time>2026-04-21T12:19:23.303Z</time></trkpt><trkpt lat="38.03302" lon="15.8727283"><ele>1095.5714285714284</ele><time>2026-04-21T12:19:24.303Z</time></trkpt><trkpt lat="38.0329983" lon="15.872815"><ele>1094.4285714285716</ele><time>2026-04-21T12:19:25.303Z</time></trkpt><trkpt lat="38.0329967" lon="15.8729033"><ele>1093.2857142857142</ele><time>2026-04-21T12:19:26.303Z</time></trkpt><trkpt lat="38.0330133" lon="15.872995"><ele>1092.142857142857</ele><time>2026-04-21T12:19:27.303Z</time></trkpt><trkpt lat="38.033035" lon="15.87309"><ele>1091.0</ele><time>2026-04-21T12:19:28.303Z</time></trkpt><trkpt lat="38.0330567" lon="15.8731883"><ele>1091.0</ele><time>2026-04-21T12:19:29.303Z</time></trkpt><trkpt lat="38.03308" lon="15.8732883"><ele>1091.0</ele><time>2026-04-21T12:19:30.303Z</time></trkpt><trkpt lat="38.0331" lon="15.8733783"><ele>1091.0</ele><time>2026-04-21T12:19:31.303Z</time></trkpt><trkpt lat="38.0331133" lon="15.873475"><ele>1091.0</ele><time>2026-04-21T12:19:32.303Z</time></trkpt><trkpt lat="38.03314" lon="15.8735583"><ele>1091.0</ele><time>2026-04-21T12:19:33.303Z</time></trkpt><trkpt lat="38.0331633" lon="15.8736467"><ele>1091.0</ele><time>2026-04-21T12:19:34.303Z</time></trkpt><trkpt lat="38.0331783" lon="15.8737367"><ele>1090.2857142857142</ele><time>2026-04-21T12:19:35.303Z</time></trkpt><trkpt lat="38.0331933" lon="15.87383"><ele>1089.5714285714287</ele><time>2026-04-21T12:19:36.303Z</time></trkpt><trkpt lat="38.0332133" lon="15.8739167"><ele>1088.857142857143</ele><time>2026-04-21T12:19:37.303Z</time></trkpt><trkpt lat="38.0332367" lon="15.8740067"><ele>1088.142857142857</ele><time>2026-04-21T12:19:38.303Z</time></trkpt><trkpt lat="38.0332633" lon="15.8740933"><ele>1087.4285714285713</ele><time>2026-04-21T12:19:39.303Z</time></trkpt><trkpt lat="38.0332917" lon="15.87418"><ele>1086.7142857142858</ele><time>2026-04-21T12:19:40.302Z</time></trkpt><trkpt lat="38.0333233" lon="15.8742717"><ele>1086.0</ele><time>2026-04-21T12:19:41.303Z</time></trkpt><trkpt lat="38.0333583" lon="15.87436"><ele>1087.6666666666667</ele><time>2026-04-21T12:19:42.303Z</time></trkpt><trkpt lat="38.0333933" lon="15.8744583"><ele>1089.3333333333333</ele><time>2026-04-21T12:19:43.303Z</time></trkpt><trkpt lat="38.0334183" lon="15.8745583"><ele>1091.0</ele><time>2026-04-21T12:19:44.303Z</time></trkpt><trkpt lat="38.033425" lon="15.874665"><ele>1092.6666666666665</ele><time>2026-04-21T12:19:45.303Z</time></trkpt><trkpt lat="38.0334083" lon="15.8747617"><ele>1094.3333333333333</ele><time>2026-04-21T12:19:46.302Z</time></trkpt><trkpt lat="38.0333833" lon="15.87486"><ele>1096.0</ele><time>2026-04-21T12:19:47.303Z</time></trkpt><trkpt lat="38.0333517" lon="15.8749483"><ele>1096.0000000000002</ele><time>2026-04-21T12:19:48.303Z</time></trkpt><trkpt lat="38.033315" lon="15.8750233"><ele>1096.0</ele><time>2026-04-21T12:19:49.303Z</time></trkpt><trkpt lat="38.0332733" lon="15.8750867"><ele>1096.0</ele><time>2026-04-21T12:19:50.302Z</time></trkpt><trkpt lat="38.033225" lon="15.8751433"><ele>1096.0</ele><time>2026-04-21T12:19:51.303Z</time></trkpt><trkpt lat="38.03317" lon="15.8751917"><ele>1096.0</ele><time>2026-04-21T12:19:52.303Z</time></trkpt><trkpt lat="38.0331067" lon="15.8752383"><ele>1096.0000000000002</ele><time>2026-04-21T12:19:53.303Z</time></trkpt><trkpt lat="38.0330367" lon="15.8752683"><ele>1096.0</ele><time>2026-04-21T12:19:54.303Z</time></trkpt><trkpt lat="38.0329667" lon="15.8752917"><ele>1098.6666666666665</ele><time>2026-04-21T12:19:55.303Z</time></trkpt><trkpt lat="38.0328983" lon="15.8753217"><ele>1101.3333333333333</ele><time>2026-04-21T12:19:56.303Z</time></trkpt><trkpt lat="38.0328233" lon="15.8753517"><ele>1104.0</ele><time>2026-04-21T12:19:57.303Z</time></trkpt><trkpt lat="38.0327467" lon="15.8753833"><ele>1106.6666666666667</ele><time>2026-04-21T12:19:58.303Z</time></trkpt><trkpt lat="38.0326667" lon="15.8754217"><ele>1109.3333333333335</ele><time>2026-04-21T12:19:59.303Z</time></trkpt><trkpt lat="38.0325817" lon="15.8754617"><ele>1112.0</ele><time>2026-04-21T12:20:00.303Z</time></trkpt><trkpt lat="38.0325" lon="15.8755183"><ele>1110.5</ele><time>2026-04-21T12:20:01.303Z</time></trkpt><trkpt lat="38.0324317" lon="15.8755817"><ele>1109.0</ele><time>2026-04-21T12:20:02.303Z</time></trkpt><trkpt lat="38.0323683" lon="15.8756683"><ele>1107.5</ele><time>2026-04-21T12:20:03.303Z</time></trkpt><trkpt lat="38.0323167" lon="15.8757683"><ele>1106.0</ele><time>2026-04-21T12:20:04.303Z</time></trkpt><trkpt lat="38.03228" lon="15.87587"><ele>1104.5</ele><time>2026-04-21T12:20:05.303Z</time></trkpt><trkpt lat="38.032255" lon="15.875975"><ele>1103.0</ele><time>2026-04-21T12:20:06.303Z</time></trkpt><trkpt lat="38.0322383" lon="15.8760833"><ele>1103.0</ele><time>2026-04-21T12:20:07.303Z</time></trkpt><trkpt lat="38.032235" lon="15.87619"><ele>1103.0</ele><time>2026-04-21T12:20:08.303Z</time></trkpt><trkpt lat="38.0322367" lon="15.8762933"><ele>1103.0</ele><time>2026-04-21T12:20:09.303Z</time></trkpt><trkpt lat="38.03224" lon="15.876395"><ele>1103.0</ele><time>2026-04-21T12:20:10.302Z</time></trkpt><trkpt lat="38.0322517" lon="15.87649"><ele>1103.0</ele><time>2026-04-21T12:20:11.303Z</time></trkpt><trkpt lat="38.0322683" lon="15.876585"><ele>1103.0</ele><time>2026-04-21T12:20:12.302Z</time></trkpt><trkpt lat="38.0323" lon="15.8766633"><ele>1103.0</ele><time>2026-04-21T12:20:13.303Z</time></trkpt><trkpt lat="38.0323517" lon="15.87674"><ele>1103.0</ele><time>2026-04-21T12:20:14.303Z</time></trkpt><trkpt lat="38.0324233" lon="15.8767883"><ele>1103.0</ele><time>2026-04-21T12:20:15.302Z</time></trkpt><trkpt lat="38.0325" lon="15.876815"><ele>1103.0</ele><time>2026-04-21T12:20:16.303Z</time></trkpt><trkpt lat="38.0325817" lon="15.8768417"><ele>1103.0</ele><time>2026-04-21T12:20:17.303Z</time></trkpt><trkpt lat="38.0326583" lon="15.87688"><ele>1103.0</ele><time>2026-04-21T12:20:18.303Z</time></trkpt><trkpt lat="38.0327417" lon="15.8769083"><ele>1106.3333333333335</ele><time>2026-04-21T12:20:19.302Z</time></trkpt><trkpt lat="38.0328283" lon="15.87694"><ele>1109.6666666666667</ele><time>2026-04-21T12:20:20.303Z</time></trkpt><trkpt lat="38.0329117" lon="15.8769817"><ele>1113.0</ele><time>2026-04-21T12:20:21.303Z</time></trkpt><trkpt lat="38.032985" lon="15.8770383"><ele>1116.3333333333333</ele><time>2026-04-21T12:20:22.303Z</time></trkpt><trkpt lat="38.0330467" lon="15.8771083"><ele>1119.6666666666665</ele><time>2026-04-21T12:20:23.302Z</time></trkpt><trkpt lat="38.0330917" lon="15.8772"><ele>1123.0</ele><time>2026-04-21T12:20:24.303Z</time></trkpt><trkpt lat="38.033125" lon="15.8772967"><ele>1123.0</ele><time>2026-04-21T12:20:25.303Z</time></trkpt><trkpt lat="38.0331483" lon="15.8773983"><ele>1123.0</ele><time>2026-04-21T12:20:26.303Z</time></trkpt><trkpt lat="38.0331683" lon="15.8775033"><ele>1123.0</ele><time>2026-04-21T12:20:27.303Z</time></trkpt><trkpt lat="38.033185" lon="15.8776167"><ele>1123.0</ele><time>2026-04-21T12:20:28.303Z</time></trkpt><trkpt lat="38.033205" lon="15.877725"><ele>1123.0</ele><time>2026-04-21T12:20:29.303Z</time></trkpt><trkpt lat="38.0332267" lon="15.8778333"><ele>1123.0</ele><time>2026-04-21T12:20:30.303Z</time></trkpt><trkpt lat="38.0332433" lon="15.8779383"><ele>1123.8333333333333</ele><time>2026-04-21T12:20:31.303Z</time></trkpt><trkpt lat="38.0332583" lon="15.878045"><ele>1124.6666666666665</ele><time>2026-04-21T12:20:32.303Z</time></trkpt><trkpt lat="38.03327" lon="15.8781517"><ele>1125.5</ele><time>2026-04-21T12:20:33.302Z</time></trkpt><trkpt lat="38.033275" lon="15.87826"><ele>1126.3333333333333</ele><time>2026-04-21T12:20:34.303Z</time></trkpt><trkpt lat="38.0332833" lon="15.8783717"><ele>1127.1666666666667</ele><time>2026-04-21T12:20:35.303Z</time></trkpt><trkpt lat="38.0332867" lon="15.878475"><ele>1128.0</ele><time>2026-04-21T12:20:36.303Z</time></trkpt><trkpt lat="38.0332867" lon="15.8785783"><ele>1128.0</ele><time>2026-04-21T12:20:37.303Z</time></trkpt><trkpt lat="38.0332933" lon="15.8786867"><ele>1128.0</ele><time>2026-04-21T12:20:38.303Z</time></trkpt><trkpt lat="38.0332933" lon="15.878795"><ele>1128.0</ele><time>2026-04-21T12:20:39.303Z</time></trkpt><trkpt lat="38.0332967" lon="15.87891"><ele>1128.0</ele><time>2026-04-21T12:20:40.303Z</time></trkpt><trkpt lat="38.0332983" lon="15.8790217"><ele>1128.0</ele><time>2026-04-21T12:20:41.303Z</time></trkpt><trkpt lat="38.0333" lon="15.8791333"><ele>1128.0</ele><time>2026-04-21T12:20:42.302Z</time></trkpt><trkpt lat="38.0332967" lon="15.8792417"><ele>1128.2</ele><time>2026-04-21T12:20:43.303Z</time></trkpt><trkpt lat="38.0332867" lon="15.879345"><ele>1128.4</ele><time>2026-04-21T12:20:44.303Z</time></trkpt><trkpt lat="38.0332733" lon="15.8794567"><ele>1128.6000000000001</ele><time>2026-04-21T12:20:45.302Z</time></trkpt><trkpt lat="38.03325" lon="15.87957"><ele>1128.8</ele><time>2026-04-21T12:20:46.303Z</time></trkpt><trkpt lat="38.03322" lon="15.8796783"><ele>1129.0</ele><time>2026-04-21T12:20:47.303Z</time></trkpt><trkpt lat="38.0331883" lon="15.8797933"><ele>1129.0</ele><time>2026-04-21T12:20:48.303Z</time></trkpt><trkpt lat="38.0331633" lon="15.8799167"><ele>1129.0</ele><time>2026-04-21T12:20:49.303Z</time></trkpt><trkpt lat="38.03313" lon="15.880035"><ele>1129.0</ele><time>2026-04-21T12:20:50.303Z</time></trkpt><trkpt lat="38.0331" lon="15.8801367"><ele>1129.0</ele><time>2026-04-21T12:20:51.303Z</time></trkpt><trkpt lat="38.03307" lon="15.88025"><ele>1129.0</ele><time>2026-04-21T12:20:52.303Z</time></trkpt><trkpt lat="38.03304" lon="15.88036"><ele>1129.3333333333333</ele><time>2026-04-21T12:20:53.303Z</time></trkpt><trkpt lat="38.0330017" lon="15.8804633"><ele>1129.6666666666665</ele><time>2026-04-21T12:20:54.303Z</time></trkpt><trkpt lat="38.0329567" lon="15.88056"><ele>1130.0</ele><time>2026-04-21T12:20:55.303Z</time></trkpt><trkpt lat="38.0329067" lon="15.8806317"><ele>1130.3333333333333</ele><time>2026-04-21T12:20:56.303Z</time></trkpt><trkpt lat="38.03285" lon="15.8806817"><ele>1130.6666666666667</ele><time>2026-04-21T12:20:57.303Z</time></trkpt><trkpt lat="38.0327833" lon="15.8807167"><ele>1131.0</ele><time>2026-04-21T12:20:58.302Z</time></trkpt><trkpt lat="38.0326983" lon="15.8807383"><ele>1131.0</ele><time>2026-04-21T12:20:59.303Z</time></trkpt><trkpt lat="38.032605" lon="15.8807417"><ele>1131.0</ele><time>2026-04-21T12:21:00.303Z</time></trkpt><trkpt lat="38.0325067" lon="15.8807417"><ele>1131.0</ele><time>2026-04-21T12:21:01.303Z</time></trkpt><trkpt lat="38.0324083" lon="15.8807367"><ele>1131.0</ele><time>2026-04-21T12:21:02.303Z</time></trkpt><trkpt lat="38.0323017" lon="15.8807333"><ele>1131.0</ele><time>2026-04-21T12:21:03.303Z</time></trkpt><trkpt lat="38.032195" lon="15.8807283"><ele>1131.3999999999999</ele><time>2026-04-21T12:21:04.303Z</time></trkpt><trkpt lat="38.0320867" lon="15.8807283"><ele>1131.8</ele><time>2026-04-21T12:21:05.303Z</time></trkpt><trkpt lat="38.031985" lon="15.880735"><ele>1132.1999999999998</ele><time>2026-04-21T12:21:06.303Z</time></trkpt><trkpt lat="38.0318817" lon="15.8807333"><ele>1132.6</ele><time>2026-04-21T12:21:07.303Z</time></trkpt><trkpt lat="38.0317833" lon="15.8807367"><ele>1133.0</ele><time>2026-04-21T12:21:08.303Z</time></trkpt><trkpt lat="38.0316783" lon="15.880735"><ele>1133.2</ele><time>2026-04-21T12:21:09.302Z</time></trkpt><trkpt lat="38.0315767" lon="15.88074"><ele>1133.4</ele><time>2026-04-21T12:21:10.303Z</time></trkpt><trkpt lat="38.0314733" lon="15.8807467"><ele>1133.6000000000001</ele><time>2026-04-21T12:21:11.303Z</time></trkpt><trkpt lat="38.03137" lon="15.8807483"><ele>1133.8</ele><time>2026-04-21T12:21:12.303Z</time></trkpt><trkpt lat="38.0312667" lon="15.8807433"><ele>1134.0</ele><time>2026-04-21T12:21:13.302Z</time></trkpt><trkpt lat="38.0311717" lon="15.8807383"><ele>1134.0</ele><time>2026-04-21T12:21:14.303Z</time></trkpt><trkpt lat="38.0310767" lon="15.8807533"><ele>1134.0</ele><time>2026-04-21T12:21:15.303Z</time></trkpt><trkpt lat="38.0309933" lon="15.8807867"><ele>1134.0</ele><time>2026-04-21T12:21:16.303Z</time></trkpt><trkpt lat="38.0309167" lon="15.8808333"><ele>1134.0</ele><time>2026-04-21T12:21:17.303Z</time></trkpt><trkpt lat="38.03085" lon="15.8809"><ele>1134.0</ele><time>2026-04-21T12:21:18.303Z</time></trkpt><trkpt lat="38.0307967" lon="15.88098"><ele>1134.0</ele><time>2026-04-21T12:21:19.303Z</time></trkpt><trkpt lat="38.0307467" lon="15.881065"><ele>1132.0</ele><time>2026-04-21T12:21:20.302Z</time></trkpt><trkpt lat="38.0306983" lon="15.8811417"><ele>1130.0</ele><time>2026-04-21T12:21:21.303Z</time></trkpt><trkpt lat="38.0306583" lon="15.881225"><ele>1128.0</ele><time>2026-04-21T12:21:22.303Z</time></trkpt><trkpt lat="38.030615" lon="15.8813233"><ele>1126.0</ele><time>2026-04-21T12:21:23.303Z</time></trkpt><trkpt lat="38.0305733" lon="15.88143"><ele>1124.0</ele><time>2026-04-21T12:21:24.303Z</time></trkpt><trkpt lat="38.0305233" lon="15.8815233"><ele>1122.0</ele><time>2026-04-21T12:21:25.303Z</time></trkpt><trkpt lat="38.03048" lon="15.8816133"><ele>1122.0</ele><time>2026-04-21T12:21:26.303Z</time></trkpt><trkpt lat="38.030435" lon="15.881705"><ele>1122.0</ele><time>2026-04-21T12:21:27.303Z</time></trkpt><trkpt lat="38.0303917" lon="15.8817967"><ele>1122.0</ele><time>2026-04-21T12:21:28.302Z</time></trkpt><trkpt lat="38.030345" lon="15.88189"><ele>1122.0</ele><time>2026-04-21T12:21:29.303Z</time></trkpt><trkpt lat="38.030295" lon="15.8819833"><ele>1122.0</ele><time>2026-04-21T12:21:30.303Z</time></trkpt><trkpt lat="38.0302533" lon="15.882075"><ele>1122.0</ele><time>2026-04-21T12:21:31.303Z</time></trkpt><trkpt lat="38.0302067" lon="15.8821583"><ele>1120.8333333333333</ele><time>2026-04-21T12:21:32.302Z</time></trkpt><trkpt lat="38.0301583" lon="15.8822283"><ele>1119.6666666666667</ele><time>2026-04-21T12:21:33.303Z</time></trkpt><trkpt lat="38.030105" lon="15.8822783"><ele>1118.5</ele><time>2026-04-21T12:21:34.303Z</time></trkpt><trkpt lat="38.030035" lon="15.88231"><ele>1117.3333333333335</ele><time>2026-04-21T12:21:35.303Z</time></trkpt><trkpt lat="38.0299617" lon="15.88232"><ele>1116.1666666666667</ele><time>2026-04-21T12:21:36.303Z</time></trkpt><trkpt lat="38.0298733" lon="15.8823083"><ele>1115.0</ele><time>2026-04-21T12:21:37.303Z</time></trkpt><trkpt lat="38.0297983" lon="15.8822667"><ele>1112.0</ele><time>2026-04-21T12:21:38.302Z</time></trkpt><trkpt lat="38.029725" lon="15.8822067"><ele>1109.0</ele><time>2026-04-21T12:21:39.303Z</time></trkpt><trkpt lat="38.0296583" lon="15.8821283"><ele>1106.0</ele><time>2026-04-21T12:21:40.303Z</time></trkpt><trkpt lat="38.0295883" lon="15.8820433"><ele>1103.0</ele><time>2026-04-21T12:21:41.303Z</time></trkpt><trkpt lat="38.0295167" lon="15.881965"><ele>1100.0</ele><time>2026-04-21T12:21:42.303Z</time></trkpt><trkpt lat="38.0294467" lon="15.8818917"><ele>1100.0</ele><time>2026-04-21T12:21:43.303Z</time></trkpt><trkpt lat="38.0293767" lon="15.881815"><ele>1100.0</ele><time>2026-04-21T12:21:44.303Z</time></trkpt><trkpt lat="38.029315" lon="15.881745"><ele>1100.0</ele><time>2026-04-21T12:21:45.303Z</time></trkpt><trkpt lat="38.0292567" lon="15.88169"><ele>1100.0</ele><time>2026-04-21T12:21:46.303Z</time></trkpt><trkpt lat="38.029135" lon="15.8816483"><ele>1100.0</ele><time>2026-04-21T12:21:48.303Z</time></trkpt><trkpt lat="38.0290633" lon="15.8816617"><ele>1100.0</ele><time>2026-04-21T12:21:49.303Z</time></trkpt><trkpt lat="38.02899" lon="15.8816967"><ele>1095.8</ele><time>2026-04-21T12:21:50.303Z</time></trkpt><trkpt lat="38.0289217" lon="15.8817583"><ele>1091.6</ele><time>2026-04-21T12:21:51.302Z</time></trkpt><trkpt lat="38.0288533" lon="15.8818417"><ele>1087.4</ele><time>2026-04-21T12:21:52.303Z</time></trkpt><trkpt lat="38.0287883" lon="15.8819267"><ele>1083.2</ele><time>2026-04-21T12:21:53.303Z</time></trkpt><trkpt lat="38.0287217" lon="15.8820167"><ele>1079.0</ele><time>2026-04-21T12:21:54.303Z</time></trkpt><trkpt lat="38.0286467" lon="15.8820967"><ele>1079.0</ele><time>2026-04-21T12:21:55.303Z</time></trkpt><trkpt lat="38.0285717" lon="15.882185"><ele>1079.0</ele><time>2026-04-21T12:21:56.303Z</time></trkpt><trkpt lat="38.0284967" lon="15.8822617"><ele>1079.0</ele><time>2026-04-21T12:21:57.303Z</time></trkpt><trkpt lat="38.02843" lon="15.8823333"><ele>1079.0</ele><time>2026-04-21T12:21:58.303Z</time></trkpt><trkpt lat="38.02837" lon="15.8824067"><ele>1079.0</ele><time>2026-04-21T12:21:59.303Z</time></trkpt><trkpt lat="38.0283083" lon="15.8824867"><ele>1075.0</ele><time>2026-04-21T12:22:00.303Z</time></trkpt><trkpt lat="38.02826" lon="15.8825817"><ele>1071.0</ele><time>2026-04-21T12:22:01.303Z</time></trkpt><trkpt lat="38.028225" lon="15.8826917"><ele>1067.0</ele><time>2026-04-21T12:22:02.303Z</time></trkpt><trkpt lat="38.0282" lon="15.88281"><ele>1063.0</ele><time>2026-04-21T12:22:03.303Z</time></trkpt><trkpt lat="38.02818" lon="15.88293"><ele>1059.0</ele><time>2026-04-21T12:22:04.303Z</time></trkpt><trkpt lat="38.0281617" lon="15.8830433"><ele>1059.0</ele><time>2026-04-21T12:22:05.303Z</time></trkpt><trkpt lat="38.0281417" lon="15.8831433"><ele>1059.0</ele><time>2026-04-21T12:22:06.303Z</time></trkpt><trkpt lat="38.02812" lon="15.8832383"><ele>1059.0</ele><time>2026-04-21T12:22:07.303Z</time></trkpt><trkpt lat="38.0280817" lon="15.883325"><ele>1059.0</ele><time>2026-04-21T12:22:08.303Z</time></trkpt><trkpt lat="38.0280217" lon="15.883385"><ele>1059.0</ele><time>2026-04-21T12:22:09.303Z</time></trkpt><trkpt lat="38.027945" lon="15.883415"><ele>1059.0</ele><time>2026-04-21T12:22:10.302Z</time></trkpt><trkpt lat="38.0278517" lon="15.8834117"><ele>1059.0</ele><time>2026-04-21T12:22:11.303Z</time></trkpt><trkpt lat="38.027755" lon="15.8833783"><ele>1059.0</ele><time>2026-04-21T12:22:12.303Z</time></trkpt><trkpt lat="38.0276633" lon="15.8833367"><ele>1059.0</ele><time>2026-04-21T12:22:13.303Z</time></trkpt><trkpt lat="38.0275717" lon="15.8832933"><ele>1059.0</ele><time>2026-04-21T12:22:14.303Z</time></trkpt><trkpt lat="38.0274833" lon="15.883255"><ele>1059.0</ele><time>2026-04-21T12:22:15.303Z</time></trkpt><trkpt lat="38.027395" lon="15.88323"><ele>1060.8333333333333</ele><time>2026-04-21T12:22:16.303Z</time></trkpt><trkpt lat="38.0273117" lon="15.8832033"><ele>1062.6666666666667</ele><time>2026-04-21T12:22:17.303Z</time></trkpt><trkpt lat="38.0272317" lon="15.8831867"><ele>1064.5</ele><time>2026-04-21T12:22:18.303Z</time></trkpt><trkpt lat="38.0271567" lon="15.88316"><ele>1066.3333333333335</ele><time>2026-04-21T12:22:19.303Z</time></trkpt><trkpt lat="38.0271017" lon="15.8831133"><ele>1068.1666666666667</ele><time>2026-04-21T12:22:20.303Z</time></trkpt><trkpt lat="38.0270533" lon="15.883045"><ele>1070.0</ele><time>2026-04-21T12:22:21.303Z</time></trkpt><trkpt lat="38.0270183" lon="15.8829617"><ele>1070.0</ele><time>2026-04-21T12:22:22.303Z</time></trkpt><trkpt lat="38.02699" lon="15.8828733"><ele>1070.0</ele><time>2026-04-21T12:22:23.303Z</time></trkpt><trkpt lat="38.02696" lon="15.8827833"><ele>1070.0</ele><time>2026-04-21T12:22:24.303Z</time></trkpt><trkpt lat="38.026925" lon="15.8826983"><ele>1070.0</ele><time>2026-04-21T12:22:25.302Z</time></trkpt><trkpt lat="38.0268917" lon="15.882615"><ele>1070.0</ele><time>2026-04-21T12:22:26.303Z</time></trkpt><trkpt lat="38.0268517" lon="15.88254"><ele>1070.0</ele><time>2026-04-21T12:22:27.303Z</time></trkpt><trkpt lat="38.0268117" lon="15.8824617"><ele>1070.0</ele><time>2026-04-21T12:22:28.303Z</time></trkpt><trkpt lat="38.02676" lon="15.8823867"><ele>1066.1666666666667</ele><time>2026-04-21T12:22:29.303Z</time></trkpt><trkpt lat="38.026705" lon="15.8823333"><ele>1062.3333333333335</ele><time>2026-04-21T12:22:30.303Z</time></trkpt><trkpt lat="38.0266383" lon="15.882295"><ele>1058.5</ele><time>2026-04-21T12:22:31.303Z</time></trkpt><trkpt lat="38.02656" lon="15.882275"><ele>1054.6666666666667</ele><time>2026-04-21T12:22:32.303Z</time></trkpt><trkpt lat="38.0264733" lon="15.8822683"><ele>1050.8333333333333</ele><time>2026-04-21T12:22:33.303Z</time></trkpt><trkpt lat="38.0263817" lon="15.882265"><ele>1047.0</ele><time>2026-04-21T12:22:34.303Z</time></trkpt><trkpt lat="38.0262967" lon="15.8822683"><ele>1044.0</ele><time>2026-04-21T12:22:35.303Z</time></trkpt><trkpt lat="38.02621" lon="15.88227"><ele>1041.0</ele><time>2026-04-21T12:22:36.303Z</time></trkpt><trkpt lat="38.0261283" lon="15.8822783"><ele>1038.0</ele><time>2026-04-21T12:22:37.303Z</time></trkpt><trkpt lat="38.026035" lon="15.8823083"><ele>1035.0</ele><time>2026-04-21T12:22:38.303Z</time></trkpt><trkpt lat="38.0259433" lon="15.8823567"><ele>1032.0</ele><time>2026-04-21T12:22:39.303Z</time></trkpt><trkpt lat="38.0258433" lon="15.8824133"><ele>1028.6</ele><time>2026-04-21T12:22:40.303Z</time></trkpt><trkpt lat="38.0257433" lon="15.8824667"><ele>1025.2</ele><time>2026-04-21T12:22:41.303Z</time></trkpt><trkpt lat="38.0256433" lon="15.8825067"><ele>1021.8</ele><time>2026-04-21T12:22:42.303Z</time></trkpt><trkpt lat="38.0255433" lon="15.88254"><ele>1018.4</ele><time>2026-04-21T12:22:43.303Z</time></trkpt><trkpt lat="38.0254517" lon="15.8825883"><ele>1015.0</ele><time>2026-04-21T12:22:44.303Z</time></trkpt><trkpt lat="38.0253667" lon="15.8826533"><ele>1015.0</ele><time>2026-04-21T12:22:45.303Z</time></trkpt><trkpt lat="38.0252917" lon="15.8827383"><ele>1015.0</ele><time>2026-04-21T12:22:46.303Z</time></trkpt><trkpt lat="38.0252267" lon="15.8828217"><ele>1015.0</ele><time>2026-04-21T12:22:47.303Z</time></trkpt><trkpt lat="38.0251567" lon="15.8828733"><ele>1015.0</ele><time>2026-04-21T12:22:48.303Z</time></trkpt><trkpt lat="38.02507" lon="15.8829083"><ele>1015.0</ele><time>2026-04-21T12:22:49.303Z</time></trkpt><trkpt lat="38.0249783" lon="15.8829233"><ele>1010.2</ele><time>2026-04-21T12:22:50.303Z</time></trkpt><trkpt lat="38.0248833" lon="15.8829267"><ele>1005.4</ele><time>2026-04-21T12:22:51.302Z</time></trkpt><trkpt lat="38.0247867" lon="15.8829233"><ele>1000.5999999999999</ele><time>2026-04-21T12:22:52.303Z</time></trkpt><trkpt lat="38.0246883" lon="15.8829183"><ele>995.8</ele><time>2026-04-21T12:22:53.302Z</time></trkpt><trkpt lat="38.0245883" lon="15.8829133"><ele>991.0</ele><time>2026-04-21T12:22:54.303Z</time></trkpt><trkpt lat="38.02449" lon="15.8829083"><ele>991.0</ele><time>2026-04-21T12:22:55.303Z</time></trkpt><trkpt lat="38.0243933" lon="15.8829067"><ele>990.9999999999999</ele><time>2026-04-21T12:22:56.303Z</time></trkpt><trkpt lat="38.024295" lon="15.8829117"><ele>990.9999999999999</ele><time>2026-04-21T12:22:57.303Z</time></trkpt><trkpt lat="38.0241917" lon="15.8829167"><ele>991.0</ele><time>2026-04-21T12:22:58.302Z</time></trkpt><trkpt lat="38.024095" lon="15.8829267"><ele>991.0</ele><time>2026-04-21T12:22:59.303Z</time></trkpt><trkpt lat="38.0240017" lon="15.8829383"><ele>985.4</ele><time>2026-04-21T12:23:00.303Z</time></trkpt><trkpt lat="38.0239133" lon="15.88296"><ele>979.8</ele><time>2026-04-21T12:23:01.303Z</time></trkpt><trkpt lat="38.023825" lon="15.8829783"><ele>974.1999999999999</ele><time>2026-04-21T12:23:02.303Z</time></trkpt><trkpt lat="38.0237317" lon="15.8829917"><ele>968.5999999999999</ele><time>2026-04-21T12:23:03.303Z</time></trkpt><trkpt lat="38.0236433" lon="15.883005"><ele>963.0</ele><time>2026-04-21T12:23:04.302Z</time></trkpt><trkpt lat="38.0235483" lon="15.8830217"><ele>963.0</ele><time>2026-04-21T12:23:05.303Z</time></trkpt><trkpt lat="38.0234617" lon="15.8830367"><ele>963.0</ele><time>2026-04-21T12:23:06.303Z</time></trkpt><trkpt lat="38.023385" lon="15.883055"><ele>963.0</ele><time>2026-04-21T12:23:07.303Z</time></trkpt><trkpt lat="38.023315" lon="15.8830717"><ele>963.0</ele><time>2026-04-21T12:23:08.303Z</time></trkpt><trkpt lat="38.0232383" lon="15.8831017"><ele>963.0</ele><time>2026-04-21T12:23:09.302Z</time></trkpt><trkpt lat="38.0231567" lon="15.8831333"><ele>963.0</ele><time>2026-04-21T12:23:10.303Z</time></trkpt><trkpt lat="38.0230783" lon="15.88317"><ele>962.8333333333334</ele><time>2026-04-21T12:23:11.303Z</time></trkpt><trkpt lat="38.0230117" lon="15.8832183"><ele>962.6666666666667</ele><time>2026-04-21T12:23:12.303Z</time></trkpt><trkpt lat="38.0229567" lon="15.88328"><ele>962.5</ele><time>2026-04-21T12:23:13.303Z</time></trkpt><trkpt lat="38.0229083" lon="15.8833417"><ele>962.3333333333334</ele><time>2026-04-21T12:23:14.303Z</time></trkpt><trkpt lat="38.022825" lon="15.8834417"><ele>962.1666666666667</ele><time>2026-04-21T12:23:16.303Z</time></trkpt><trkpt lat="38.0227283" lon="15.8835217"><ele>962.0</ele><time>2026-04-21T12:23:18.303Z</time></trkpt><trkpt lat="38.02266" lon="15.88354"><ele>955.6666666666667</ele><time>2026-04-21T12:23:19.303Z</time></trkpt><trkpt lat="38.0225883" lon="15.883545"><ele>949.3333333333334</ele><time>2026-04-21T12:23:20.303Z</time></trkpt><trkpt lat="38.02251" lon="15.8835417"><ele>943.0</ele><time>2026-04-21T12:23:21.303Z</time></trkpt><trkpt lat="38.02243" lon="15.8835483"><ele>936.6666666666667</ele><time>2026-04-21T12:23:22.303Z</time></trkpt><trkpt lat="38.022355" lon="15.883565"><ele>930.3333333333334</ele><time>2026-04-21T12:23:23.303Z</time></trkpt><trkpt lat="38.0222883" lon="15.8835867"><ele>924.0</ele><time>2026-04-21T12:23:24.303Z</time></trkpt><trkpt lat="38.0221783" lon="15.8836467"><ele>922.4000000000001</ele><time>2026-04-21T12:23:26.303Z</time></trkpt><trkpt lat="38.0220667" lon="15.88365"><ele>920.8000000000001</ele><time>2026-04-21T12:23:28.302Z</time></trkpt><trkpt lat="38.0219567" lon="15.883565"><ele>919.1999999999999</ele><time>2026-04-21T12:23:30.303Z</time></trkpt><trkpt lat="38.0218967" lon="15.8835117"><ele>917.5999999999999</ele><time>2026-04-21T12:23:31.303Z</time></trkpt><trkpt lat="38.0218417" lon="15.8834567"><ele>916.0</ele><time>2026-04-21T12:23:32.303Z</time></trkpt><trkpt lat="38.0217917" lon="15.8834"><ele>919.2857142857142</ele><time>2026-04-21T12:23:33.303Z</time></trkpt><trkpt lat="38.0217517" lon="15.8833333"><ele>922.5714285714287</ele><time>2026-04-21T12:23:34.303Z</time></trkpt><trkpt lat="38.0217133" lon="15.8832633"><ele>925.8571428571429</ele><time>2026-04-21T12:23:35.303Z</time></trkpt><trkpt lat="38.0216817" lon="15.883185"><ele>929.1428571428571</ele><time>2026-04-21T12:23:36.303Z</time></trkpt><trkpt lat="38.0216567" lon="15.8830917"><ele>932.4285714285713</ele><time>2026-04-21T12:23:37.303Z</time></trkpt><trkpt lat="38.0216433" lon="15.8829967"><ele>935.7142857142858</ele><time>2026-04-21T12:23:38.303Z</time></trkpt><trkpt lat="38.0216467" lon="15.8829133"><ele>939.0</ele><time>2026-04-21T12:23:39.303Z</time></trkpt><trkpt lat="38.0217017" lon="15.882795"><ele>939.0</ele><time>2026-04-21T12:23:41.303Z</time></trkpt><trkpt lat="38.0218183" lon="15.882725"><ele>939.0</ele><time>2026-04-21T12:23:43.302Z</time></trkpt><trkpt lat="38.0218867" lon="15.882705"><ele>939.0</ele><time>2026-04-21T12:23:44.303Z</time></trkpt><trkpt lat="38.0219517" lon="15.8826733"><ele>939.0</ele><time>2026-04-21T12:23:45.303Z</time></trkpt><trkpt lat="38.0220217" lon="15.882655"><ele>939.0</ele><time>2026-04-21T12:23:46.303Z</time></trkpt><trkpt lat="38.022085" lon="15.8826433"><ele>939.0</ele><time>2026-04-21T12:23:47.303Z</time></trkpt><trkpt lat="38.0221783" lon="15.882605"><ele>937.1666666666666</ele><time>2026-04-21T12:23:49.303Z</time></trkpt><trkpt lat="38.02219" lon="15.88252"><ele>935.3333333333333</ele><time>2026-04-21T12:23:51.303Z</time></trkpt><trkpt lat="38.022105" lon="15.8824717"><ele>933.5</ele><time>2026-04-21T12:23:53.303Z</time></trkpt><trkpt lat="38.0220367" lon="15.882475"><ele>931.6666666666666</ele><time>2026-04-21T12:23:54.303Z</time></trkpt><trkpt lat="38.021965" lon="15.8824833"><ele>929.8333333333333</ele><time>2026-04-21T12:23:55.303Z</time></trkpt><trkpt lat="38.021885" lon="15.8824817"><ele>928.0</ele><time>2026-04-21T12:23:56.303Z</time></trkpt><trkpt lat="38.0217983" lon="15.8824967"><ele>927.9999999999999</ele><time>2026-04-21T12:23:57.303Z</time></trkpt><trkpt lat="38.0217183" lon="15.8825"><ele>928.0</ele><time>2026-04-21T12:23:58.303Z</time></trkpt><trkpt lat="38.0216333" lon="15.8825017"><ele>928.0</ele><time>2026-04-21T12:23:59.303Z</time></trkpt><trkpt lat="38.021555" lon="15.8825067"><ele>928.0</ele><time>2026-04-21T12:24:00.302Z</time></trkpt><trkpt lat="38.0214817" lon="15.8825033"><ele>927.9999999999999</ele><time>2026-04-21T12:24:01.303Z</time></trkpt><trkpt lat="38.02141" lon="15.8824983"><ele>928.0</ele><time>2026-04-21T12:24:02.303Z</time></trkpt><trkpt lat="38.0213433" lon="15.8825033"><ele>922.0</ele><time>2026-04-21T12:24:03.303Z</time></trkpt><trkpt lat="38.0212383" lon="15.8825717"><ele>916.0</ele><time>2026-04-21T12:24:05.303Z</time></trkpt><trkpt lat="38.02117" lon="15.8826633"><ele>910.0</ele><time>2026-04-21T12:24:07.303Z</time></trkpt><trkpt lat="38.0210967" lon="15.88267"><ele>904.0</ele><time>2026-04-21T12:24:09.302Z</time></trkpt><trkpt lat="38.0210683" lon="15.8825733"><ele>898.0</ele><time>2026-04-21T12:24:11.302Z</time></trkpt><trkpt lat="38.0211317" lon="15.8824533"><ele>897.9999999999999</ele><time>2026-04-21T12:24:13.303Z</time></trkpt><trkpt lat="38.02118" lon="15.8823967"><ele>898.0</ele><time>2026-04-21T12:24:14.303Z</time></trkpt><trkpt lat="38.0212317" lon="15.8823433"><ele>898.0</ele><time>2026-04-21T12:24:15.303Z</time></trkpt><trkpt lat="38.0213333" lon="15.88226"><ele>898.0</ele><time>2026-04-21T12:24:17.303Z</time></trkpt><trkpt lat="38.0213883" lon="15.88222"><ele>897.9999999999999</ele><time>2026-04-21T12:24:18.303Z</time></trkpt><trkpt lat="38.0214867" lon="15.88217"><ele>898.0</ele><time>2026-04-21T12:24:20.303Z</time></trkpt><trkpt lat="38.02155" lon="15.8820967"><ele>897.9999999999999</ele><time>2026-04-21T12:24:22.303Z</time></trkpt><trkpt lat="38.0214667" lon="15.8820083"><ele>898.0</ele><time>2026-04-21T12:24:25.303Z</time></trkpt><trkpt lat="38.0213967" lon="15.8819967"><ele>898.0</ele><time>2026-04-21T12:24:26.303Z</time></trkpt><trkpt lat="38.021315" lon="15.88198"><ele>898.0</ele><time>2026-04-21T12:24:27.303Z</time></trkpt><trkpt lat="38.0212317" lon="15.88196"><ele>897.9999999999999</ele><time>2026-04-21T12:24:28.303Z</time></trkpt><trkpt lat="38.0211533" lon="15.8819383"><ele>898.0</ele><time>2026-04-21T12:24:29.303Z</time></trkpt><trkpt lat="38.02108" lon="15.8819167"><ele>897.9999999999999</ele><time>2026-04-21T12:24:30.303Z</time></trkpt><trkpt lat="38.0210017" lon="15.8818983"><ele>898.0</ele><time>2026-04-21T12:24:31.302Z</time></trkpt><trkpt lat="38.0209283" lon="15.8819083"><ele>898.0</ele><time>2026-04-21T12:24:32.302Z</time></trkpt><trkpt lat="38.0208667" lon="15.8819567"><ele>898.0</ele><time>2026-04-21T12:24:33.302Z</time></trkpt><trkpt lat="38.0208133" lon="15.8820183"><ele>897.9999999999999</ele><time>2026-04-21T12:24:34.303Z</time></trkpt><trkpt lat="38.02077" lon="15.8821033"><ele>898.0</ele><time>2026-04-21T12:24:35.302Z</time></trkpt><trkpt lat="38.020725" lon="15.8821817"><ele>891.9999999999999</ele><time>2026-04-21T12:24:36.303Z</time></trkpt><trkpt lat="38.0206817" lon="15.882255"><ele>886.0</ele><time>2026-04-21T12:24:37.303Z</time></trkpt><trkpt lat="38.0206633" lon="15.8823417"><ele>880.0</ele><time>2026-04-21T12:24:38.303Z</time></trkpt><trkpt lat="38.02065" lon="15.88242"><ele>874.0</ele><time>2026-04-21T12:24:39.303Z</time></trkpt><trkpt lat="38.0206617" lon="15.882545"><ele>867.9999999999999</ele><time>2026-04-21T12:24:41.302Z</time></trkpt><trkpt lat="38.0206033" lon="15.882585"><ele>862.0</ele><time>2026-04-21T12:24:44.303Z</time></trkpt><trkpt lat="38.0205417" lon="15.8824767"><ele>861.9999999999999</ele><time>2026-04-21T12:24:46.303Z</time></trkpt><trkpt lat="38.020465" lon="15.882345"><ele>862.0</ele><time>2026-04-21T12:24:48.303Z</time></trkpt><trkpt lat="38.0204017" lon="15.8823"><ele>862.0</ele><time>2026-04-21T12:24:49.303Z</time></trkpt><trkpt lat="38.0203367" lon="15.8822733"><ele>862.0</ele><time>2026-04-21T12:24:50.303Z</time></trkpt><trkpt lat="38.0202683" lon="15.882265"><ele>861.9999999999999</ele><time>2026-04-21T12:24:51.303Z</time></trkpt><trkpt lat="38.02018" lon="15.88233"><ele>862.0</ele><time>2026-04-21T12:24:53.303Z</time></trkpt><trkpt lat="38.0201983" lon="15.8824217"><ele>861.9999999999999</ele><time>2026-04-21T12:24:55.303Z</time></trkpt><trkpt lat="38.0202717" lon="15.88251"><ele>862.0</ele><time>2026-04-21T12:24:57.303Z</time></trkpt><trkpt lat="38.020335" lon="15.8825967"><ele>862.0</ele><time>2026-04-21T12:24:59.303Z</time></trkpt><trkpt lat="38.0203233" lon="15.8826817"><ele>862.0</ele><time>2026-04-21T12:25:01.302Z</time></trkpt><trkpt lat="38.020235" lon="15.8827117"><ele>861.9999999999999</ele><time>2026-04-21T12:25:03.303Z</time></trkpt><trkpt lat="38.0201583" lon="15.8827117"><ele>862.0</ele><time>2026-04-21T12:25:04.303Z</time></trkpt><trkpt lat="38.020085" lon="15.8827183"><ele>858.4999999999999</ele><time>2026-04-21T12:25:05.303Z</time></trkpt><trkpt lat="38.0200117" lon="15.8827417"><ele>855.0</ele><time>2026-04-21T12:25:06.303Z</time></trkpt><trkpt lat="38.0199383" lon="15.8827683"><ele>851.5</ele><time>2026-04-21T12:25:07.303Z</time></trkpt><trkpt lat="38.0198633" lon="15.8827967"><ele>848.0</ele><time>2026-04-21T12:25:08.303Z</time></trkpt><trkpt lat="38.0197867" lon="15.88283"><ele>844.4999999999999</ele><time>2026-04-21T12:25:09.303Z</time></trkpt><trkpt lat="38.019715" lon="15.88287"><ele>841.0</ele><time>2026-04-21T12:25:10.303Z</time></trkpt><trkpt lat="38.0196467" lon="15.8829117"><ele>839.2857142857143</ele><time>2026-04-21T12:25:11.303Z</time></trkpt><trkpt lat="38.0195817" lon="15.8829433"><ele>837.5714285714286</ele><time>2026-04-21T12:25:12.303Z</time></trkpt><trkpt lat="38.01952" lon="15.882965"><ele>835.8571428571429</ele><time>2026-04-21T12:25:13.303Z</time></trkpt><trkpt lat="38.0194517" lon="15.8829717"><ele>834.1428571428571</ele><time>2026-04-21T12:25:14.303Z</time></trkpt><trkpt lat="38.0193717" lon="15.8829633"><ele>832.4285714285713</ele><time>2026-04-21T12:25:15.303Z</time></trkpt><trkpt lat="38.0193033" lon="15.8829333"><ele>830.7142857142857</ele><time>2026-04-21T12:25:16.303Z</time></trkpt><trkpt lat="38.0192333" lon="15.8828933"><ele>829.0</ele><time>2026-04-21T12:25:17.303Z</time></trkpt><trkpt lat="38.0191617" lon="15.8828367"><ele>827.4999999999999</ele><time>2026-04-21T12:25:18.303Z</time></trkpt><trkpt lat="38.019085" lon="15.88278"><ele>826.0</ele><time>2026-04-21T12:25:19.303Z</time></trkpt><trkpt lat="38.0190083" lon="15.8827217"><ele>824.5</ele><time>2026-04-21T12:25:20.303Z</time></trkpt><trkpt lat="38.01893" lon="15.8826683"><ele>823.0</ele><time>2026-04-21T12:25:21.303Z</time></trkpt><trkpt lat="38.01886" lon="15.8826183"><ele>821.4999999999999</ele><time>2026-04-21T12:25:22.302Z</time></trkpt><trkpt lat="38.0187933" lon="15.8825667"><ele>820.0</ele><time>2026-04-21T12:25:23.302Z</time></trkpt><trkpt lat="38.0187267" lon="15.8825267"><ele>820.0</ele><time>2026-04-21T12:25:24.303Z</time></trkpt><trkpt lat="38.0186283" lon="15.8825"><ele>820.0</ele><time>2026-04-21T12:25:26.303Z</time></trkpt><trkpt lat="38.0186017" lon="15.8825967"><ele>820.0</ele><time>2026-04-21T12:25:28.303Z</time></trkpt><trkpt lat="38.0187" lon="15.8827267"><ele>820.0</ele><time>2026-04-21T12:25:30.303Z</time></trkpt><trkpt lat="38.0187567" lon="15.8827867"><ele>820.0</ele><time>2026-04-21T12:25:31.303Z</time></trkpt><trkpt lat="38.0188133" lon="15.88283"><ele>817.6666666666666</ele><time>2026-04-21T12:25:32.303Z</time></trkpt><trkpt lat="38.0188867" lon="15.8828933"><ele>815.3333333333333</ele><time>2026-04-21T12:25:34.303Z</time></trkpt><trkpt lat="38.0189367" lon="15.8829583"><ele>813.0</ele><time>2026-04-21T12:25:36.303Z</time></trkpt><trkpt lat="38.0188583" lon="15.8829817"><ele>810.6666666666667</ele><time>2026-04-21T12:25:39.303Z</time></trkpt><trkpt lat="38.0187967" lon="15.88294"><ele>808.3333333333334</ele><time>2026-04-21T12:25:40.303Z</time></trkpt><trkpt lat="38.018725" lon="15.8828983"><ele>806.0</ele><time>2026-04-21T12:25:41.302Z</time></trkpt><trkpt lat="38.0186417" lon="15.8828467"><ele>806.0</ele><time>2026-04-21T12:25:42.303Z</time></trkpt><trkpt lat="38.0185583" lon="15.882795"><ele>806.0</ele><time>2026-04-21T12:25:43.303Z</time></trkpt><trkpt lat="38.0184767" lon="15.8827267"><ele>806.0</ele><time>2026-04-21T12:25:44.303Z</time></trkpt><trkpt lat="38.0184033" lon="15.8826567"><ele>806.0</ele><time>2026-04-21T12:25:45.303Z</time></trkpt><trkpt lat="38.0183333" lon="15.8825983"><ele>806.0</ele><time>2026-04-21T12:25:46.302Z</time></trkpt><trkpt lat="38.0182667" lon="15.8825233"><ele>806.0000000000001</ele><time>2026-04-21T12:25:47.303Z</time></trkpt><trkpt lat="38.01822" lon="15.8824533"><ele>806.0</ele><time>2026-04-21T12:25:48.303Z</time></trkpt><trkpt lat="38.0181383" lon="15.8824333"><ele>806.0</ele><time>2026-04-21T12:25:50.303Z</time></trkpt><trkpt lat="38.0181433" lon="15.88253"><ele>806.0</ele><time>2026-04-21T12:25:52.303Z</time></trkpt><trkpt lat="38.0182283" lon="15.8826583"><ele>806.0000000000001</ele><time>2026-04-21T12:25:54.303Z</time></trkpt><trkpt lat="38.01828" lon="15.8827417"><ele>806.0</ele><time>2026-04-21T12:25:55.303Z</time></trkpt><trkpt lat="38.0183317" lon="15.8828267"><ele>806.0000000000001</ele><time>2026-04-21T12:25:56.303Z</time></trkpt><trkpt lat="38.0183833" lon="15.8829017"><ele>806.0</ele><time>2026-04-21T12:25:57.303Z</time></trkpt><trkpt lat="38.0184433" lon="15.88298"><ele>806.0</ele><time>2026-04-21T12:25:58.303Z</time></trkpt><trkpt lat="38.0185033" lon="15.8830567"><ele>806.0</ele><time>2026-04-21T12:25:59.302Z</time></trkpt><trkpt lat="38.0185617" lon="15.8831367"><ele>806.0000000000001</ele><time>2026-04-21T12:26:00.303Z</time></trkpt><trkpt lat="38.01862" lon="15.8832267"><ele>806.0</ele><time>2026-04-21T12:26:01.303Z</time></trkpt><trkpt lat="38.0186733" lon="15.88331"><ele>806.0000000000001</ele><time>2026-04-21T12:26:02.303Z</time></trkpt><trkpt lat="38.018735" lon="15.8833867"><ele>806.0</ele><time>2026-04-21T12:26:03.302Z</time></trkpt><trkpt lat="38.0188" lon="15.8834433"><ele>806.0</ele><time>2026-04-21T12:26:04.303Z</time></trkpt><trkpt lat="38.01886" lon="15.883475"><ele>806.0</ele><time>2026-04-21T12:26:05.303Z</time></trkpt><trkpt lat="38.0189267" lon="15.8835367"><ele>806.0000000000001</ele><time>2026-04-21T12:26:07.302Z</time></trkpt><trkpt lat="38.0188633" lon="15.883585"><ele>806.0</ele><time>2026-04-21T12:26:09.303Z</time></trkpt><trkpt lat="38.01878" lon="15.8835767"><ele>797.8</ele><time>2026-04-21T12:26:10.303Z</time></trkpt><trkpt lat="38.0186783" lon="15.8835483"><ele>789.5999999999999</ele><time>2026-04-21T12:26:11.303Z</time></trkpt><trkpt lat="38.0185683" lon="15.8835233"><ele>781.4</ele><time>2026-04-21T12:26:12.303Z</time></trkpt><trkpt lat="38.0184617" lon="15.883515"><ele>773.2</ele><time>2026-04-21T12:26:13.303Z</time></trkpt><trkpt lat="38.0183517" lon="15.8835133"><ele>765.0</ele><time>2026-04-21T12:26:14.303Z</time></trkpt><trkpt lat="38.01825" lon="15.8834983"><ele>765.1666666666666</ele><time>2026-04-21T12:26:15.302Z</time></trkpt><trkpt lat="38.0181567" lon="15.8834817"><ele>765.3333333333334</ele><time>2026-04-21T12:26:16.303Z</time></trkpt><trkpt lat="38.0180717" lon="15.8834667"><ele>765.5</ele><time>2026-04-21T12:26:17.303Z</time></trkpt><trkpt lat="38.0179883" lon="15.8834383"><ele>765.6666666666667</ele><time>2026-04-21T12:26:18.303Z</time></trkpt><trkpt lat="38.01792" lon="15.8834"><ele>765.8333333333334</ele><time>2026-04-21T12:26:19.303Z</time></trkpt><trkpt lat="38.0178517" lon="15.88334"><ele>766.0</ele><time>2026-04-21T12:26:20.303Z</time></trkpt><trkpt lat="38.0177883" lon="15.8832633"><ele>766.0</ele><time>2026-04-21T12:26:21.303Z</time></trkpt><trkpt lat="38.0177233" lon="15.8831733"><ele>766.0</ele><time>2026-04-21T12:26:22.303Z</time></trkpt><trkpt lat="38.0176533" lon="15.8830833"><ele>766.0</ele><time>2026-04-21T12:26:23.303Z</time></trkpt><trkpt lat="38.0175867" lon="15.8830033"><ele>766.0</ele><time>2026-04-21T12:26:24.303Z</time></trkpt><trkpt lat="38.0175183" lon="15.8829117"><ele>766.0</ele><time>2026-04-21T12:26:25.302Z</time></trkpt><trkpt lat="38.0174633" lon="15.88283"><ele>764.1666666666667</ele><time>2026-04-21T12:26:26.303Z</time></trkpt><trkpt lat="38.0174117" lon="15.8827367"><ele>762.3333333333334</ele><time>2026-04-21T12:26:27.303Z</time></trkpt><trkpt lat="38.0173667" lon="15.8826333"><ele>760.5</ele><time>2026-04-21T12:26:28.303Z</time></trkpt><trkpt lat="38.0173183" lon="15.8825283"><ele>758.6666666666666</ele><time>2026-04-21T12:26:29.303Z</time></trkpt><trkpt lat="38.0172667" lon="15.8824417"><ele>756.8333333333333</ele><time>2026-04-21T12:26:30.302Z</time></trkpt><trkpt lat="38.017205" lon="15.8823717"><ele>755.0</ele><time>2026-04-21T12:26:31.303Z</time></trkpt><trkpt lat="38.0171367" lon="15.8823267"><ele>755.0</ele><time>2026-04-21T12:26:32.303Z</time></trkpt><trkpt lat="38.017065" lon="15.882295"><ele>755.0</ele><time>2026-04-21T12:26:33.303Z</time></trkpt><trkpt lat="38.016985" lon="15.8822767"><ele>755.0</ele><time>2026-04-21T12:26:34.302Z</time></trkpt><trkpt lat="38.0168933" lon="15.88227"><ele>755.0</ele><time>2026-04-21T12:26:35.303Z</time></trkpt><trkpt lat="38.0168017" lon="15.8822733"><ele>755.0</ele><time>2026-04-21T12:26:36.302Z</time></trkpt><trkpt lat="38.0167067" lon="15.882275"><ele>755.0</ele><time>2026-04-21T12:26:37.303Z</time></trkpt><trkpt lat="38.0166183" lon="15.88228"><ele>750.6</ele><time>2026-04-21T12:26:38.303Z</time></trkpt><trkpt lat="38.0165317" lon="15.8822767"><ele>746.2</ele><time>2026-04-21T12:26:39.303Z</time></trkpt><trkpt lat="38.01645" lon="15.8822483"><ele>741.8</ele><time>2026-04-21T12:26:40.303Z</time></trkpt><trkpt lat="38.0163617" lon="15.8822067"><ele>737.4</ele><time>2026-04-21T12:26:41.303Z</time></trkpt><trkpt lat="38.0162583" lon="15.882175"><ele>733.0</ele><time>2026-04-21T12:26:42.303Z</time></trkpt><trkpt lat="38.01615" lon="15.8821483"><ele>733.0</ele><time>2026-04-21T12:26:43.303Z</time></trkpt><trkpt lat="38.0160367" lon="15.8821217"><ele>733.0</ele><time>2026-04-21T12:26:44.303Z</time></trkpt><trkpt lat="38.015915" lon="15.8821033"><ele>733.0</ele><time>2026-04-21T12:26:45.303Z</time></trkpt><trkpt lat="38.0157867" lon="15.8820933"><ele>733.0</ele><time>2026-04-21T12:26:46.303Z</time></trkpt><trkpt lat="38.0156517" lon="15.8820717"><ele>730.25</ele><time>2026-04-21T12:26:47.303Z</time></trkpt><trkpt lat="38.0155067" lon="15.882065"><ele>727.5</ele><time>2026-04-21T12:26:48.302Z</time></trkpt><trkpt lat="38.0153617" lon="15.8820567"><ele>724.75</ele><time>2026-04-21T12:26:49.302Z</time></trkpt><trkpt lat="38.0152217" lon="15.88206"><ele>722.0</ele><time>2026-04-21T12:26:50.303Z</time></trkpt><trkpt lat="38.01508" lon="15.8820733"><ele>726.0</ele><time>2026-04-21T12:26:51.303Z</time></trkpt><trkpt lat="38.014935" lon="15.8820983"><ele>730.0</ele><time>2026-04-21T12:26:52.303Z</time></trkpt><trkpt lat="38.014805" lon="15.8821183"><ele>734.0</ele><time>2026-04-21T12:26:53.303Z</time></trkpt><trkpt lat="38.0146867" lon="15.882135"><ele>738.0</ele><time>2026-04-21T12:26:54.303Z</time></trkpt><trkpt lat="38.014575" lon="15.88214"><ele>738.0</ele><time>2026-04-21T12:26:55.302Z</time></trkpt><trkpt lat="38.0144633" lon="15.8821283"><ele>738.0</ele><time>2026-04-21T12:26:56.303Z</time></trkpt><trkpt lat="38.0143517" lon="15.8821133"><ele>738.0</ele><time>2026-04-21T12:26:57.303Z</time></trkpt><trkpt lat="38.0142483" lon="15.882085"><ele>738.0</ele><time>2026-04-21T12:26:58.302Z</time></trkpt><trkpt lat="38.01415" lon="15.8820533"><ele>738.0</ele><time>2026-04-21T12:26:59.303Z</time></trkpt><trkpt lat="38.014045" lon="15.8820233"><ele>737.4</ele><time>2026-04-21T12:27:00.303Z</time></trkpt><trkpt lat="38.0139417" lon="15.8819917"><ele>736.8</ele><time>2026-04-21T12:27:01.303Z</time></trkpt><trkpt lat="38.0138433" lon="15.8819583"><ele>736.2</ele><time>2026-04-21T12:27:02.303Z</time></trkpt><trkpt lat="38.0137467" lon="15.8819233"><ele>735.6</ele><time>2026-04-21T12:27:03.303Z</time></trkpt><trkpt lat="38.01365" lon="15.8818867"><ele>735.0</ele><time>2026-04-21T12:27:04.303Z</time></trkpt><trkpt lat="38.0135517" lon="15.8818483"><ele>735.0</ele><time>2026-04-21T12:27:05.303Z</time></trkpt><trkpt lat="38.01345" lon="15.8818133"><ele>735.0</ele><time>2026-04-21T12:27:06.303Z</time></trkpt><trkpt lat="38.0133433" lon="15.8817817"><ele>735.0</ele><time>2026-04-21T12:27:07.302Z</time></trkpt><trkpt lat="38.013235" lon="15.8817533"><ele>735.0</ele><time>2026-04-21T12:27:08.303Z</time></trkpt><trkpt lat="38.0131233" lon="15.8817183"><ele>735.0</ele><time>2026-04-21T12:27:09.303Z</time></trkpt><trkpt lat="38.0130083" lon="15.8816867"><ele>730.5</ele><time>2026-04-21T12:27:10.303Z</time></trkpt><trkpt lat="38.0128883" lon="15.8816667"><ele>726.0</ele><time>2026-04-21T12:27:11.302Z</time></trkpt><trkpt lat="38.0127667" lon="15.8816417"><ele>721.5</ele><time>2026-04-21T12:27:12.303Z</time></trkpt><trkpt lat="38.0126583" lon="15.8816033"><ele>717.0</ele><time>2026-04-21T12:27:13.303Z</time></trkpt><trkpt lat="38.0125583" lon="15.8815633"><ele>713.2</ele><time>2026-04-21T12:27:14.303Z</time></trkpt><trkpt lat="38.0124667" lon="15.8814917"><ele>709.4000000000001</ele><time>2026-04-21T12:27:15.303Z</time></trkpt><trkpt lat="38.0123717" lon="15.8814117"><ele>705.5999999999999</ele><time>2026-04-21T12:27:16.303Z</time></trkpt><trkpt lat="38.01228" lon="15.8813333"><ele>701.8</ele><time>2026-04-21T12:27:17.303Z</time></trkpt><trkpt lat="38.01218" lon="15.8812617"><ele>698.0</ele><time>2026-04-21T12:27:18.303Z</time></trkpt><trkpt lat="38.0120717" lon="15.8811983"><ele>698.0</ele><time>2026-04-21T12:27:19.303Z</time></trkpt><trkpt lat="38.01197" lon="15.88113"><ele>698.0</ele><time>2026-04-21T12:27:20.303Z</time></trkpt><trkpt lat="38.0118767" lon="15.8810533"><ele>698.0</ele><time>2026-04-21T12:27:21.303Z</time></trkpt><trkpt lat="38.0118" lon="15.8809483"><ele>698.0</ele><time>2026-04-21T12:27:22.303Z</time></trkpt><trkpt lat="38.0117517" lon="15.880835"><ele>698.0</ele><time>2026-04-21T12:27:23.303Z</time></trkpt><trkpt lat="38.011695" lon="15.8807333"><ele>699.0</ele><time>2026-04-21T12:27:24.303Z</time></trkpt><trkpt lat="38.0116317" lon="15.8806467"><ele>700.0</ele><time>2026-04-21T12:27:25.303Z</time></trkpt><trkpt lat="38.0115583" lon="15.880565"><ele>701.0</ele><time>2026-04-21T12:27:26.303Z</time></trkpt><trkpt lat="38.011485" lon="15.88049"><ele>702.0</ele><time>2026-04-21T12:27:27.303Z</time></trkpt><trkpt lat="38.0114017" lon="15.8804283"><ele>703.0</ele><time>2026-04-21T12:27:28.303Z</time></trkpt><trkpt lat="38.0113117" lon="15.8803717"><ele>703.0</ele><time>2026-04-21T12:27:29.303Z</time></trkpt><trkpt lat="38.0112117" lon="15.880315"><ele>703.0</ele><time>2026-04-21T12:27:30.303Z</time></trkpt><trkpt lat="38.0111183" lon="15.880245"><ele>703.0</ele><time>2026-04-21T12:27:31.303Z</time></trkpt><trkpt lat="38.01103" lon="15.8801567"><ele>703.0</ele><time>2026-04-21T12:27:32.303Z</time></trkpt><trkpt lat="38.01095" lon="15.8800517"><ele>703.0</ele><time>2026-04-21T12:27:33.303Z</time></trkpt><trkpt lat="38.0108833" lon="15.8799383"><ele>701.2</ele><time>2026-04-21T12:27:34.303Z</time></trkpt><trkpt lat="38.0108283" lon="15.8798333"><ele>699.4</ele><time>2026-04-21T12:27:35.303Z</time></trkpt><trkpt lat="38.0107767" lon="15.8797217"><ele>697.6</ele><time>2026-04-21T12:27:36.303Z</time></trkpt><trkpt lat="38.01074" lon="15.8796017"><ele>695.8000000000001</ele><time>2026-04-21T12:27:37.303Z</time></trkpt><trkpt lat="38.0107217" lon="15.8794783"><ele>694.0</ele><time>2026-04-21T12:27:38.303Z</time></trkpt><trkpt lat="38.010705" lon="15.879345"><ele>690.6</ele><time>2026-04-21T12:27:39.303Z</time></trkpt><trkpt lat="38.0106833" lon="15.8792033"><ele>687.2</ele><time>2026-04-21T12:27:40.302Z</time></trkpt><trkpt lat="38.0106583" lon="15.879065"><ele>683.8000000000001</ele><time>2026-04-21T12:27:41.302Z</time></trkpt><trkpt lat="38.0106383" lon="15.8789333"><ele>680.4000000000001</ele><time>2026-04-21T12:27:42.303Z</time></trkpt><trkpt lat="38.0106183" lon="15.8788033"><ele>677.0</ele><time>2026-04-21T12:27:43.303Z</time></trkpt><trkpt lat="38.0106" lon="15.8786917"><ele>677.0</ele><time>2026-04-21T12:27:44.302Z</time></trkpt><trkpt lat="38.0105867" lon="15.878595"><ele>677.0</ele><time>2026-04-21T12:27:45.303Z</time></trkpt><trkpt lat="38.0105617" lon="15.878485"><ele>677.0</ele><time>2026-04-21T12:27:46.302Z</time></trkpt><trkpt lat="38.0105117" lon="15.878385"><ele>677.0</ele><time>2026-04-21T12:27:47.303Z</time></trkpt><trkpt lat="38.0104517" lon="15.8782917"><ele>677.0</ele><time>2026-04-21T12:27:48.303Z</time></trkpt><trkpt lat="38.01039" lon="15.8781783"><ele>674.8</ele><time>2026-04-21T12:27:49.303Z</time></trkpt><trkpt lat="38.0103333" lon="15.87806"><ele>672.6</ele><time>2026-04-21T12:27:50.303Z</time></trkpt><trkpt lat="38.0102767" lon="15.8779567"><ele>670.4</ele><time>2026-04-21T12:27:51.303Z</time></trkpt><trkpt lat="38.0102283" lon="15.8778483"><ele>668.1999999999999</ele><time>2026-04-21T12:27:52.302Z</time></trkpt><trkpt lat="38.0102117" lon="15.877735"><ele>666.0</ele><time>2026-04-21T12:27:53.303Z</time></trkpt><trkpt lat="38.0101967" lon="15.8776467"><ele>666.0</ele><time>2026-04-21T12:27:54.303Z</time></trkpt><trkpt lat="38.0101317" lon="15.8775867"><ele>666.0</ele><time>2026-04-21T12:27:56.302Z</time></trkpt><trkpt lat="38.010085" lon="15.8777267"><ele>666.0</ele><time>2026-04-21T12:27:58.303Z</time></trkpt><trkpt lat="38.0101017" lon="15.8778817"><ele>666.0</ele><time>2026-04-21T12:27:59.303Z</time></trkpt><trkpt lat="38.0101133" lon="15.8780517"><ele>666.0</ele><time>2026-04-21T12:28:00.303Z</time></trkpt><trkpt lat="38.0101167" lon="15.8782167"><ele>666.0</ele><time>2026-04-21T12:28:01.303Z</time></trkpt><trkpt lat="38.0100833" lon="15.87835"><ele>666.0</ele><time>2026-04-21T12:28:02.303Z</time></trkpt><trkpt lat="38.01001" lon="15.87844"><ele>666.0</ele><time>2026-04-21T12:28:03.302Z</time></trkpt><trkpt lat="38.0099067" lon="15.8785133"><ele>663.4</ele><time>2026-04-21T12:28:04.303Z</time></trkpt><trkpt lat="38.00981" lon="15.8785917"><ele>660.8</ele><time>2026-04-21T12:28:05.303Z</time></trkpt><trkpt lat="38.0097133" lon="15.8786567"><ele>658.1999999999999</ele><time>2026-04-21T12:28:06.303Z</time></trkpt><trkpt lat="38.0096117" lon="15.8786933"><ele>655.5999999999999</ele><time>2026-04-21T12:28:07.303Z</time></trkpt><trkpt lat="38.0095017" lon="15.878695"><ele>653.0</ele><time>2026-04-21T12:28:08.303Z</time></trkpt><trkpt lat="38.0093967" lon="15.8786783"><ele>653.0</ele><time>2026-04-21T12:28:09.303Z</time></trkpt><trkpt lat="38.0092933" lon="15.87866"><ele>653.0</ele><time>2026-04-21T12:28:10.303Z</time></trkpt><trkpt lat="38.0091967" lon="15.878625"><ele>653.0</ele><time>2026-04-21T12:28:11.303Z</time></trkpt><trkpt lat="38.009105" lon="15.8785833"><ele>653.0</ele><time>2026-04-21T12:28:12.303Z</time></trkpt><trkpt lat="38.0090233" lon="15.8785417"><ele>653.0</ele><time>2026-04-21T12:28:13.302Z</time></trkpt><trkpt lat="38.0089367" lon="15.8784967"><ele>649.8</ele><time>2026-04-21T12:28:14.303Z</time></trkpt><trkpt lat="38.0088567" lon="15.8784617"><ele>646.5999999999999</ele><time>2026-04-21T12:28:15.303Z</time></trkpt><trkpt lat="38.0087667" lon="15.8784217"><ele>643.4000000000001</ele><time>2026-04-21T12:28:16.303Z</time></trkpt><trkpt lat="38.0086833" lon="15.8783833"><ele>640.2</ele><time>2026-04-21T12:28:17.303Z</time></trkpt><trkpt lat="38.0086067" lon="15.87833"><ele>637.0</ele><time>2026-04-21T12:28:18.303Z</time></trkpt><trkpt lat="38.00852" lon="15.878265"><ele>637.0</ele><time>2026-04-21T12:28:19.303Z</time></trkpt><trkpt lat="38.008435" lon="15.878205"><ele>637.0</ele><time>2026-04-21T12:28:20.303Z</time></trkpt><trkpt lat="38.0083467" lon="15.8781783"><ele>637.0</ele><time>2026-04-21T12:28:21.303Z</time></trkpt><trkpt lat="38.0082533" lon="15.8781683"><ele>637.0</ele><time>2026-04-21T12:28:22.303Z</time></trkpt><trkpt lat="38.00816" lon="15.8781733"><ele>637.0</ele><time>2026-04-21T12:28:23.303Z</time></trkpt><trkpt lat="38.0080683" lon="15.8781933"><ele>634.6</ele><time>2026-04-21T12:28:24.303Z</time></trkpt><trkpt lat="38.0079767" lon="15.87821"><ele>632.2</ele><time>2026-04-21T12:28:25.303Z</time></trkpt><trkpt lat="38.0078867" lon="15.8782333"><ele>629.8</ele><time>2026-04-21T12:28:26.303Z</time></trkpt><trkpt lat="38.00779" lon="15.8782533"><ele>627.4</ele><time>2026-04-21T12:28:27.303Z</time></trkpt><trkpt lat="38.0076983" lon="15.8782767"><ele>625.0</ele><time>2026-04-21T12:28:28.303Z</time></trkpt><trkpt lat="38.007615" lon="15.8782933"><ele>625.0</ele><time>2026-04-21T12:28:29.303Z</time></trkpt><trkpt lat="38.0075367" lon="15.8783167"><ele>625.0</ele><time>2026-04-21T12:28:30.303Z</time></trkpt><trkpt lat="38.007455" lon="15.8783333"><ele>625.0</ele><time>2026-04-21T12:28:31.303Z</time></trkpt><trkpt lat="38.0073633" lon="15.87835"><ele>625.0</ele><time>2026-04-21T12:28:32.303Z</time></trkpt><trkpt lat="38.00727" lon="15.87835"><ele>625.0</ele><time>2026-04-21T12:28:33.303Z</time></trkpt><trkpt lat="38.00719" lon="15.8783267"><ele>625.0</ele><time>2026-04-21T12:28:34.303Z</time></trkpt><trkpt lat="38.007125" lon="15.87829"><ele>621.8</ele><time>2026-04-21T12:28:35.303Z</time></trkpt><trkpt lat="38.007065" lon="15.8782533"><ele>618.6</ele><time>2026-04-21T12:28:36.303Z</time></trkpt><trkpt lat="38.006955" lon="15.878275"><ele>615.4</ele><time>2026-04-21T12:28:38.303Z</time></trkpt><trkpt lat="38.0069783" lon="15.8783933"><ele>612.2</ele><time>2026-04-21T12:28:40.303Z</time></trkpt><trkpt lat="38.007055" lon="15.878465"><ele>609.0</ele><time>2026-04-21T12:28:41.303Z</time></trkpt><trkpt lat="38.0071583" lon="15.8785467"><ele>607.75</ele><time>2026-04-21T12:28:42.303Z</time></trkpt><trkpt lat="38.007275" lon="15.8786183"><ele>606.5</ele><time>2026-04-21T12:28:43.303Z</time></trkpt><trkpt lat="38.0074" lon="15.878685"><ele>605.25</ele><time>2026-04-21T12:28:44.303Z</time></trkpt><trkpt lat="38.0075183" lon="15.8787383"><ele>604.0</ele><time>2026-04-21T12:28:45.303Z</time></trkpt><trkpt lat="38.0076367" lon="15.878785"><ele>604.0</ele><time>2026-04-21T12:28:46.303Z</time></trkpt><trkpt lat="38.0077517" lon="15.8788133"><ele>604.0</ele><time>2026-04-21T12:28:47.303Z</time></trkpt><trkpt lat="38.007855" lon="15.8788333"><ele>604.0</ele><time>2026-04-21T12:28:48.303Z</time></trkpt><trkpt lat="38.0079483" lon="15.8788517"><ele>604.0</ele><time>2026-04-21T12:28:49.303Z</time></trkpt><trkpt lat="38.0080317" lon="15.8788983"><ele>604.0</ele><time>2026-04-21T12:28:50.303Z</time></trkpt><trkpt lat="38.0080933" lon="15.8789733"><ele>604.0</ele><time>2026-04-21T12:28:51.303Z</time></trkpt><trkpt lat="38.0081367" lon="15.8790683"><ele>604.0</ele><time>2026-04-21T12:28:52.303Z</time></trkpt><trkpt lat="38.0081467" lon="15.87916"><ele>604.0</ele><time>2026-04-21T12:28:53.303Z</time></trkpt><trkpt lat="38.0081117" lon="15.879255"><ele>604.0</ele><time>2026-04-21T12:28:54.303Z</time></trkpt><trkpt lat="38.0080383" lon="15.8793517"><ele>604.0</ele><time>2026-04-21T12:28:55.303Z</time></trkpt><trkpt lat="38.007975" lon="15.8794617"><ele>602.6666666666667</ele><time>2026-04-21T12:28:56.302Z</time></trkpt><trkpt lat="38.0079283" lon="15.87957"><ele>601.3333333333334</ele><time>2026-04-21T12:28:57.303Z</time></trkpt><trkpt lat="38.0079" lon="15.8796767"><ele>600.0</ele><time>2026-04-21T12:28:58.303Z</time></trkpt><trkpt lat="38.007885" lon="15.879785"><ele>598.6666666666666</ele><time>2026-04-21T12:28:59.303Z</time></trkpt><trkpt lat="38.007875" lon="15.8798917"><ele>597.3333333333333</ele><time>2026-04-21T12:29:00.303Z</time></trkpt><trkpt lat="38.0078583" lon="15.8799917"><ele>596.0</ele><time>2026-04-21T12:29:01.303Z</time></trkpt><trkpt lat="38.00784" lon="15.8800817"><ele>596.5</ele><time>2026-04-21T12:29:02.303Z</time></trkpt><trkpt lat="38.007815" lon="15.8801767"><ele>597.0</ele><time>2026-04-21T12:29:03.303Z</time></trkpt><trkpt lat="38.0077817" lon="15.8802633"><ele>597.5</ele><time>2026-04-21T12:29:04.302Z</time></trkpt><trkpt lat="38.0077617" lon="15.8803583"><ele>598.0</ele><time>2026-04-21T12:29:05.303Z</time></trkpt><trkpt lat="38.0077667" lon="15.8804517"><ele>598.5</ele><time>2026-04-21T12:29:06.303Z</time></trkpt><trkpt lat="38.0077883" lon="15.8805467"><ele>599.0</ele><time>2026-04-21T12:29:07.303Z</time></trkpt><trkpt lat="38.0078167" lon="15.8806333"><ele>599.0</ele><time>2026-04-21T12:29:08.302Z</time></trkpt><trkpt lat="38.0078433" lon="15.880725"><ele>599.0</ele><time>2026-04-21T12:29:09.303Z</time></trkpt><trkpt lat="38.0078633" lon="15.88082"><ele>599.0</ele><time>2026-04-21T12:29:10.303Z</time></trkpt><trkpt lat="38.0078817" lon="15.8809183"><ele>599.0</ele><time>2026-04-21T12:29:11.303Z</time></trkpt><trkpt lat="38.0079033" lon="15.8810167"><ele>599.0</ele><time>2026-04-21T12:29:12.303Z</time></trkpt><trkpt lat="38.0079267" lon="15.8811017"><ele>599.0</ele><time>2026-04-21T12:29:13.303Z</time></trkpt><trkpt lat="38.0079567" lon="15.8811867"><ele>597.8</ele><time>2026-04-21T12:29:14.303Z</time></trkpt><trkpt lat="38.0080283" lon="15.8813183"><ele>596.5999999999999</ele><time>2026-04-21T12:29:16.303Z</time></trkpt><trkpt lat="38.0080633" lon="15.8813917"><ele>595.4</ele><time>2026-04-21T12:29:17.303Z</time></trkpt><trkpt lat="38.0080917" lon="15.8814733"><ele>594.1999999999999</ele><time>2026-04-21T12:29:18.302Z</time></trkpt><trkpt lat="38.0081117" lon="15.8815583"><ele>593.0</ele><time>2026-04-21T12:29:19.303Z</time></trkpt><trkpt lat="38.0081" lon="15.881715"><ele>593.3333333333333</ele><time>2026-04-21T12:29:21.303Z</time></trkpt><trkpt lat="38.0080833" lon="15.8817967"><ele>593.6666666666666</ele><time>2026-04-21T12:29:22.303Z</time></trkpt><trkpt lat="38.008055" lon="15.881875"><ele>594.0</ele><time>2026-04-21T12:29:23.302Z</time></trkpt><trkpt lat="38.0080333" lon="15.8819567"><ele>594.3333333333334</ele><time>2026-04-21T12:29:24.302Z</time></trkpt><trkpt lat="38.0080267" lon="15.8820467"><ele>594.6666666666667</ele><time>2026-04-21T12:29:25.303Z</time></trkpt><trkpt lat="38.0080517" lon="15.88219"><ele>595.0</ele><time>2026-04-21T12:29:27.302Z</time></trkpt><trkpt lat="38.0081333" lon="15.8822817"><ele>595.0</ele><time>2026-04-21T12:29:29.303Z</time></trkpt><trkpt lat="38.0082467" lon="15.882345"><ele>595.0</ele><time>2026-04-21T12:29:31.303Z</time></trkpt><trkpt lat="38.0083317" lon="15.8824317"><ele>595.0</ele><time>2026-04-21T12:29:33.303Z</time></trkpt><trkpt lat="38.0083717" lon="15.882565"><ele>595.0</ele><time>2026-04-21T12:29:35.303Z</time></trkpt><trkpt lat="38.0083583" lon="15.882695"><ele>595.0</ele><time>2026-04-21T12:29:37.303Z</time></trkpt><trkpt lat="38.0083383" lon="15.8828417"><ele>595.0</ele><time>2026-04-21T12:29:39.303Z</time></trkpt><trkpt lat="38.0083217" lon="15.88293"><ele>595.0</ele><time>2026-04-21T12:29:40.303Z</time></trkpt><trkpt lat="38.008305" lon="15.8830217"><ele>595.0</ele><time>2026-04-21T12:29:41.303Z</time></trkpt><trkpt lat="38.0083117" lon="15.8831167"><ele>595.0</ele><time>2026-04-21T12:29:42.303Z</time></trkpt><trkpt lat="38.00834" lon="15.8831983"><ele>595.0</ele><time>2026-04-21T12:29:43.303Z</time></trkpt><trkpt lat="38.008395" lon="15.8832517"><ele>595.0</ele><time>2026-04-21T12:29:44.303Z</time></trkpt><trkpt lat="38.0084633" lon="15.8832683"><ele>595.0</ele><time>2026-04-21T12:29:45.303Z</time></trkpt><trkpt lat="38.008525" lon="15.88324"><ele>599.8</ele><time>2026-04-21T12:29:46.303Z</time></trkpt><trkpt lat="38.0086117" lon="15.883125"><ele>604.6</ele><time>2026-04-21T12:29:48.303Z</time></trkpt><trkpt lat="38.0086417" lon="15.8830533"><ele>609.4</ele><time>2026-04-21T12:29:49.303Z</time></trkpt><trkpt lat="38.0087267" lon="15.8829317"><ele>614.2</ele><time>2026-04-21T12:29:51.303Z</time></trkpt><trkpt lat="38.0087767" lon="15.8828767"><ele>619.0</ele><time>2026-04-21T12:29:52.303Z</time></trkpt><trkpt lat="38.00883" lon="15.8828267"><ele>619.0</ele><time>2026-04-21T12:29:53.303Z</time></trkpt><trkpt lat="38.0089233" lon="15.882725"><ele>619.0</ele><time>2026-04-21T12:29:55.303Z</time></trkpt><trkpt lat="38.00897" lon="15.882665"><ele>619.0</ele><time>2026-04-21T12:29:56.303Z</time></trkpt><trkpt lat="38.0090183" lon="15.882605"><ele>619.0</ele><time>2026-04-21T12:29:57.303Z</time></trkpt><trkpt lat="38.0090617" lon="15.882545"><ele>619.0</ele><time>2026-04-21T12:29:58.303Z</time></trkpt><trkpt lat="38.0091467" lon="15.882435"><ele>619.0</ele><time>2026-04-21T12:30:00.302Z</time></trkpt><trkpt lat="38.0092117" lon="15.8824017"><ele>621.8571428571429</ele><time>2026-04-21T12:30:01.303Z</time></trkpt><trkpt lat="38.0092883" lon="15.882375"><ele>624.7142857142858</ele><time>2026-04-21T12:30:02.303Z</time></trkpt><trkpt lat="38.009365" lon="15.882355"><ele>627.5714285714287</ele><time>2026-04-21T12:30:03.303Z</time></trkpt><trkpt lat="38.0094283" lon="15.88234"><ele>630.4285714285714</ele><time>2026-04-21T12:30:04.303Z</time></trkpt><trkpt lat="38.009495" lon="15.882335"><ele>633.2857142857143</ele><time>2026-04-21T12:30:05.303Z</time></trkpt><trkpt lat="38.009565" lon="15.8823267"><ele>636.1428571428572</ele><time>2026-04-21T12:30:06.303Z</time></trkpt><trkpt lat="38.0096433" lon="15.8823217"><ele>639.0</ele><time>2026-04-21T12:30:07.303Z</time></trkpt><trkpt lat="38.0097267" lon="15.88231"><ele>639.0</ele><time>2026-04-21T12:30:08.303Z</time></trkpt><trkpt lat="38.00981" lon="15.8823083"><ele>639.0</ele><time>2026-04-21T12:30:09.302Z</time></trkpt><trkpt lat="38.009895" lon="15.88231"><ele>639.0</ele><time>2026-04-21T12:30:10.302Z</time></trkpt><trkpt lat="38.0099933" lon="15.8823167"><ele>639.0</ele><time>2026-04-21T12:30:11.303Z</time></trkpt><trkpt lat="38.0101033" lon="15.88232"><ele>639.0</ele><time>2026-04-21T12:30:12.303Z</time></trkpt><trkpt lat="38.0102167" lon="15.8823183"><ele>639.2</ele><time>2026-04-21T12:30:13.303Z</time></trkpt><trkpt lat="38.0103367" lon="15.882325"><ele>639.4</ele><time>2026-04-21T12:30:14.302Z</time></trkpt><trkpt lat="38.0104383" lon="15.8823467"><ele>639.6</ele><time>2026-04-21T12:30:15.303Z</time></trkpt><trkpt lat="38.01052" lon="15.88239"><ele>639.8</ele><time>2026-04-21T12:30:16.303Z</time></trkpt><trkpt lat="38.010585" lon="15.8824633"><ele>640.0</ele><time>2026-04-21T12:30:17.303Z</time></trkpt><trkpt lat="38.01063" lon="15.8825367"><ele>640.0</ele><time>2026-04-21T12:30:18.303Z</time></trkpt><trkpt lat="38.010715" lon="15.8826167"><ele>640.0</ele><time>2026-04-21T12:30:20.303Z</time></trkpt><trkpt lat="38.01079" lon="15.8825633"><ele>640.0</ele><time>2026-04-21T12:30:22.303Z</time></trkpt><trkpt lat="38.0108567" lon="15.8824733"><ele>640.0</ele><time>2026-04-21T12:30:24.303Z</time></trkpt><trkpt lat="38.010935" lon="15.88243"><ele>640.0</ele><time>2026-04-21T12:30:26.303Z</time></trkpt><trkpt lat="38.0110067" lon="15.88244"><ele>640.0</ele><time>2026-04-21T12:30:28.303Z</time></trkpt><trkpt lat="38.01108" lon="15.8824917"><ele>642.1666666666667</ele><time>2026-04-21T12:30:30.303Z</time></trkpt><trkpt lat="38.0111417" lon="15.8825817"><ele>644.3333333333334</ele><time>2026-04-21T12:30:32.303Z</time></trkpt><trkpt lat="38.0111817" lon="15.882715"><ele>646.5</ele><time>2026-04-21T12:30:34.303Z</time></trkpt><trkpt lat="38.0111967" lon="15.8827933"><ele>648.6666666666666</ele><time>2026-04-21T12:30:35.303Z</time></trkpt><trkpt lat="38.011205" lon="15.8828783"><ele>650.8333333333333</ele><time>2026-04-21T12:30:36.303Z</time></trkpt><trkpt lat="38.0112017" lon="15.8829617"><ele>653.0</ele><time>2026-04-21T12:30:37.303Z</time></trkpt><trkpt lat="38.0111817" lon="15.88305"><ele>648.1666666666666</ele><time>2026-04-21T12:30:38.303Z</time></trkpt><trkpt lat="38.0111533" lon="15.88314"><ele>643.3333333333333</ele><time>2026-04-21T12:30:39.303Z</time></trkpt><trkpt lat="38.0111233" lon="15.8832417"><ele>638.5</ele><time>2026-04-21T12:30:40.303Z</time></trkpt><trkpt lat="38.0110967" lon="15.883345"><ele>633.6666666666666</ele><time>2026-04-21T12:30:41.302Z</time></trkpt><trkpt lat="38.01107" lon="15.8834483"><ele>628.8333333333334</ele><time>2026-04-21T12:30:42.303Z</time></trkpt><trkpt lat="38.01105" lon="15.8835467"><ele>624.0</ele><time>2026-04-21T12:30:43.303Z</time></trkpt><trkpt lat="38.0110417" lon="15.8836617"><ele>621.5</ele><time>2026-04-21T12:30:44.303Z</time></trkpt><trkpt lat="38.0110433" lon="15.8837817"><ele>619.0</ele><time>2026-04-21T12:30:45.303Z</time></trkpt><trkpt lat="38.01105" lon="15.88389"><ele>616.5</ele><time>2026-04-21T12:30:46.303Z</time></trkpt><trkpt lat="38.011055" lon="15.88399"><ele>614.0</ele><time>2026-04-21T12:30:47.303Z</time></trkpt><trkpt lat="38.0110617" lon="15.8840933"><ele>611.5</ele><time>2026-04-21T12:30:48.303Z</time></trkpt><trkpt lat="38.01107" lon="15.8841883"><ele>609.0</ele><time>2026-04-21T12:30:49.303Z</time></trkpt><trkpt lat="38.0110967" lon="15.8842767"><ele>608.6666666666666</ele><time>2026-04-21T12:30:50.303Z</time></trkpt><trkpt lat="38.0111417" lon="15.88435"><ele>608.3333333333334</ele><time>2026-04-21T12:30:51.303Z</time></trkpt><trkpt lat="38.0111867" lon="15.8844067"><ele>608.0</ele><time>2026-04-21T12:30:52.302Z</time></trkpt><trkpt lat="38.0113117" lon="15.884405"><ele>607.6666666666667</ele><time>2026-04-21T12:30:54.303Z</time></trkpt><trkpt lat="38.0113883" lon="15.88436"><ele>607.3333333333334</ele><time>2026-04-21T12:30:55.303Z</time></trkpt><trkpt lat="38.011465" lon="15.8843183"><ele>607.0</ele><time>2026-04-21T12:30:56.303Z</time></trkpt><trkpt lat="38.0115317" lon="15.8842683"><ele>607.3333333333334</ele><time>2026-04-21T12:30:57.303Z</time></trkpt><trkpt lat="38.011585" lon="15.8841983"><ele>607.6666666666667</ele><time>2026-04-21T12:30:58.303Z</time></trkpt><trkpt lat="38.011615" lon="15.8840983"><ele>608.0</ele><time>2026-04-21T12:30:59.303Z</time></trkpt><trkpt lat="38.01163" lon="15.8839783"><ele>608.3333333333334</ele><time>2026-04-21T12:31:00.303Z</time></trkpt><trkpt lat="38.01166" lon="15.8838717"><ele>608.6666666666666</ele><time>2026-04-21T12:31:01.303Z</time></trkpt><trkpt lat="38.0117" lon="15.883775"><ele>609.0</ele><time>2026-04-21T12:31:02.303Z</time></trkpt><trkpt lat="38.01175" lon="15.8836933"><ele>611.3333333333334</ele><time>2026-04-21T12:31:03.302Z</time></trkpt><trkpt lat="38.0118083" lon="15.8836267"><ele>613.6666666666666</ele><time>2026-04-21T12:31:04.303Z</time></trkpt><trkpt lat="38.01187" lon="15.883585"><ele>616.0</ele><time>2026-04-21T12:31:05.303Z</time></trkpt><trkpt lat="38.0119417" lon="15.883575"><ele>618.3333333333333</ele><time>2026-04-21T12:31:06.303Z</time></trkpt><trkpt lat="38.0120533" lon="15.883635"><ele>620.6666666666666</ele><time>2026-04-21T12:31:08.303Z</time></trkpt><trkpt lat="38.0121017" lon="15.8837167"><ele>623.0</ele><time>2026-04-21T12:31:09.302Z</time></trkpt><trkpt lat="38.01215" lon="15.8838133"><ele>623.0</ele><time>2026-04-21T12:31:10.303Z</time></trkpt><trkpt lat="38.0121833" lon="15.883905"><ele>623.0</ele><time>2026-04-21T12:31:11.303Z</time></trkpt><trkpt lat="38.0122083" lon="15.884"><ele>623.0</ele><time>2026-04-21T12:31:12.303Z</time></trkpt><trkpt lat="38.0122317" lon="15.8840933"><ele>623.0</ele><time>2026-04-21T12:31:13.303Z</time></trkpt><trkpt lat="38.0122633" lon="15.8841917"><ele>623.0</ele><time>2026-04-21T12:31:14.303Z</time></trkpt><trkpt lat="38.0123033" lon="15.88429"><ele>623.0</ele><time>2026-04-21T12:31:15.303Z</time></trkpt><trkpt lat="38.01235" lon="15.8843883"><ele>620.0</ele><time>2026-04-21T12:31:16.303Z</time></trkpt><trkpt lat="38.012395" lon="15.8844967"><ele>617.0</ele><time>2026-04-21T12:31:17.303Z</time></trkpt><trkpt lat="38.012445" lon="15.88461"><ele>614.0</ele><time>2026-04-21T12:31:18.303Z</time></trkpt><trkpt lat="38.0125067" lon="15.8847017"><ele>611.0</ele><time>2026-04-21T12:31:19.303Z</time></trkpt><trkpt lat="38.0125783" lon="15.8847867"><ele>608.0</ele><time>2026-04-21T12:31:20.303Z</time></trkpt><trkpt lat="38.0126583" lon="15.884875"><ele>608.0</ele><time>2026-04-21T12:31:21.303Z</time></trkpt><trkpt lat="38.0127483" lon="15.8849433"><ele>608.0</ele><time>2026-04-21T12:31:22.303Z</time></trkpt><trkpt lat="38.0128433" lon="15.8849983"><ele>608.0</ele><time>2026-04-21T12:31:23.303Z</time></trkpt><trkpt lat="38.012935" lon="15.885055"><ele>608.0</ele><time>2026-04-21T12:31:24.302Z</time></trkpt><trkpt lat="38.0130233" lon="15.8851133"><ele>608.0</ele><time>2026-04-21T12:31:25.303Z</time></trkpt><trkpt lat="38.013115" lon="15.885175"><ele>607.1999999999999</ele><time>2026-04-21T12:31:26.303Z</time></trkpt><trkpt lat="38.0131933" lon="15.8852467"><ele>606.4</ele><time>2026-04-21T12:31:27.303Z</time></trkpt><trkpt lat="38.013265" lon="15.8853283"><ele>605.5999999999999</ele><time>2026-04-21T12:31:28.303Z</time></trkpt><trkpt lat="38.0133333" lon="15.885415"><ele>604.8</ele><time>2026-04-21T12:31:29.302Z</time></trkpt><trkpt lat="38.01339" lon="15.8855133"><ele>604.0</ele><time>2026-04-21T12:31:30.303Z</time></trkpt><trkpt lat="38.0134383" lon="15.88562"><ele>604.0</ele><time>2026-04-21T12:31:31.303Z</time></trkpt><trkpt lat="38.0134817" lon="15.88573"><ele>604.0</ele><time>2026-04-21T12:31:32.303Z</time></trkpt><trkpt lat="38.01352" lon="15.8858317"><ele>604.0</ele><time>2026-04-21T12:31:33.303Z</time></trkpt><trkpt lat="38.0135483" lon="15.8859433"><ele>604.0</ele><time>2026-04-21T12:31:34.303Z</time></trkpt><trkpt lat="38.0135767" lon="15.8860417"><ele>604.0</ele><time>2026-04-21T12:31:35.303Z</time></trkpt><trkpt lat="38.0136017" lon="15.8861283"><ele>604.0</ele><time>2026-04-21T12:31:36.302Z</time></trkpt><trkpt lat="38.0136633" lon="15.886235"><ele>600.0</ele><time>2026-04-21T12:31:38.303Z</time></trkpt><trkpt lat="38.0137583" lon="15.8863117"><ele>596.0</ele><time>2026-04-21T12:31:40.303Z</time></trkpt><trkpt lat="38.0138667" lon="15.88639"><ele>592.0</ele><time>2026-04-21T12:31:42.303Z</time></trkpt><trkpt lat="38.0139217" lon="15.8864383"><ele>588.0</ele><time>2026-04-21T12:31:43.303Z</time></trkpt><trkpt lat="38.0139683" lon="15.8864983"><ele>584.0</ele><time>2026-04-21T12:31:44.303Z</time></trkpt><trkpt lat="38.0140117" lon="15.886565"><ele>580.0</ele><time>2026-04-21T12:31:45.303Z</time></trkpt><trkpt lat="38.0140567" lon="15.886645"><ele>580.0</ele><time>2026-04-21T12:31:46.303Z</time></trkpt><trkpt lat="38.0140933" lon="15.886725"><ele>580.0</ele><time>2026-04-21T12:31:47.302Z</time></trkpt><trkpt lat="38.0141217" lon="15.8868083"><ele>580.0</ele><time>2026-04-21T12:31:48.303Z</time></trkpt><trkpt lat="38.0141467" lon="15.8868867"><ele>580.0</ele><time>2026-04-21T12:31:49.302Z</time></trkpt><trkpt lat="38.0142017" lon="15.8870083"><ele>580.0</ele><time>2026-04-21T12:31:51.303Z</time></trkpt><trkpt lat="38.0143017" lon="15.8870267"><ele>580.0</ele><time>2026-04-21T12:31:53.303Z</time></trkpt><trkpt lat="38.0144133" lon="15.886925"><ele>584.5</ele><time>2026-04-21T12:31:55.303Z</time></trkpt><trkpt lat="38.0145017" lon="15.8868567"><ele>589.0</ele><time>2026-04-21T12:31:56.303Z</time></trkpt><trkpt lat="38.0146117" lon="15.88679"><ele>593.5</ele><time>2026-04-21T12:31:57.303Z</time></trkpt><trkpt lat="38.0147267" lon="15.88672"><ele>598.0</ele><time>2026-04-21T12:31:58.302Z</time></trkpt><trkpt lat="38.0148367" lon="15.886645"><ele>600.5</ele><time>2026-04-21T12:31:59.303Z</time></trkpt><trkpt lat="38.0149433" lon="15.88657"><ele>603.0</ele><time>2026-04-21T12:32:00.303Z</time></trkpt><trkpt lat="38.0150483" lon="15.8864917"><ele>605.5</ele><time>2026-04-21T12:32:01.303Z</time></trkpt><trkpt lat="38.0151417" lon="15.8864267"><ele>608.0</ele><time>2026-04-21T12:32:02.303Z</time></trkpt><trkpt lat="38.0152283" lon="15.8863617"><ele>608.0</ele><time>2026-04-21T12:32:03.303Z</time></trkpt><trkpt lat="38.015315" lon="15.886305"><ele>608.0</ele><time>2026-04-21T12:32:04.303Z</time></trkpt><trkpt lat="38.0153983" lon="15.88626"><ele>608.0</ele><time>2026-04-21T12:32:05.303Z</time></trkpt><trkpt lat="38.0154817" lon="15.8862233"><ele>608.0</ele><time>2026-04-21T12:32:06.303Z</time></trkpt><trkpt lat="38.0155667" lon="15.8861883"><ele>608.0</ele><time>2026-04-21T12:32:07.303Z</time></trkpt><trkpt lat="38.01564" lon="15.8861417"><ele>608.0</ele><time>2026-04-21T12:32:08.302Z</time></trkpt><trkpt lat="38.0156983" lon="15.8860783"><ele>608.0</ele><time>2026-04-21T12:32:09.303Z</time></trkpt><trkpt lat="38.015735" lon="15.8859983"><ele>608.0</ele><time>2026-04-21T12:32:10.303Z</time></trkpt><trkpt lat="38.0157517" lon="15.885895"><ele>608.0</ele><time>2026-04-21T12:32:11.303Z</time></trkpt><trkpt lat="38.0157633" lon="15.88579"><ele>608.0</ele><time>2026-04-21T12:32:12.303Z</time></trkpt><trkpt lat="38.015775" lon="15.8856917"><ele>608.0</ele><time>2026-04-21T12:32:13.303Z</time></trkpt><trkpt lat="38.01579" lon="15.8855967"><ele>608.0</ele><time>2026-04-21T12:32:14.303Z</time></trkpt><trkpt lat="38.0158133" lon="15.885505"><ele>608.1428571428571</ele><time>2026-04-21T12:32:15.303Z</time></trkpt><trkpt lat="38.015855" lon="15.8854233"><ele>608.2857142857143</ele><time>2026-04-21T12:32:16.303Z</time></trkpt><trkpt lat="38.0159067" lon="15.8853567"><ele>608.4285714285714</ele><time>2026-04-21T12:32:17.303Z</time></trkpt><trkpt lat="38.0159683" lon="15.885315"><ele>608.5714285714286</ele><time>2026-04-21T12:32:18.303Z</time></trkpt><trkpt lat="38.0160367" lon="15.8853067"><ele>608.7142857142858</ele><time>2026-04-21T12:32:19.303Z</time></trkpt><trkpt lat="38.0161067" lon="15.8853317"><ele>608.8571428571429</ele><time>2026-04-21T12:32:20.303Z</time></trkpt><trkpt lat="38.0161717" lon="15.8854033"><ele>609.0</ele><time>2026-04-21T12:32:21.303Z</time></trkpt><trkpt lat="38.016205" lon="15.88551"><ele>609.0</ele><time>2026-04-21T12:32:22.303Z</time></trkpt><trkpt lat="38.0162233" lon="15.885645"><ele>609.0</ele><time>2026-04-21T12:32:23.303Z</time></trkpt><trkpt lat="38.0162433" lon="15.8857633"><ele>609.0</ele><time>2026-04-21T12:32:24.303Z</time></trkpt><trkpt lat="38.016275" lon="15.8858517"><ele>609.0</ele><time>2026-04-21T12:32:25.303Z</time></trkpt><trkpt lat="38.016315" lon="15.88592"><ele>609.0</ele><time>2026-04-21T12:32:26.303Z</time></trkpt><trkpt lat="38.0164033" lon="15.886005"><ele>605.3333333333334</ele><time>2026-04-21T12:32:28.303Z</time></trkpt><trkpt lat="38.0164733" lon="15.8860633"><ele>601.6666666666666</ele><time>2026-04-21T12:32:30.303Z</time></trkpt><trkpt lat="38.0165067" lon="15.8861533"><ele>598.0</ele><time>2026-04-21T12:32:32.303Z</time></trkpt><trkpt lat="38.01653" lon="15.8862583"><ele>594.3333333333333</ele><time>2026-04-21T12:32:34.303Z</time></trkpt><trkpt lat="38.0165533" lon="15.88636"><ele>590.6666666666666</ele><time>2026-04-21T12:32:36.303Z</time></trkpt><trkpt lat="38.0165783" lon="15.88646"><ele>587.0</ele><time>2026-04-21T12:32:38.303Z</time></trkpt><trkpt lat="38.0166" lon="15.88657"><ele>587.0</ele><time>2026-04-21T12:32:40.303Z</time></trkpt><trkpt lat="38.0166233" lon="15.88666"><ele>587.0</ele><time>2026-04-21T12:32:42.303Z</time></trkpt><trkpt lat="38.0165967" lon="15.8867633"><ele>587.0</ele><time>2026-04-21T12:32:45.303Z</time></trkpt><trkpt lat="38.0165433" lon="15.8868167"><ele>587.0</ele><time>2026-04-21T12:32:47.303Z</time></trkpt><trkpt lat="38.0164833" lon="15.8868417"><ele>587.0</ele><time>2026-04-21T12:32:49.303Z</time></trkpt><trkpt lat="38.0164433" lon="15.8869333"><ele>587.0</ele><time>2026-04-21T12:32:52.302Z</time></trkpt><trkpt lat="38.016415" lon="15.8870267"><ele>587.0</ele><time>2026-04-21T12:32:55.303Z</time></trkpt><trkpt lat="38.0164783" lon="15.8869267"><ele>587.0</ele><time>2026-04-21T13:29:04.302Z</time></trkpt><trkpt lat="38.01654" lon="15.8868433"><ele>587.0</ele><time>2026-04-21T13:29:06.302Z</time></trkpt><trkpt lat="38.0165883" lon="15.8867833"><ele>587.0</ele><time>2026-04-21T13:29:08.302Z</time></trkpt><trkpt lat="38.01663" lon="15.88671"><ele>587.0</ele><time>2026-04-21T13:29:11.302Z</time></trkpt><trkpt lat="38.016705" lon="15.8866267"><ele>587.0</ele><time>2026-04-21T13:29:14.302Z</time></trkpt><trkpt lat="38.0167783" lon="15.8865933"><ele>590.2857142857143</ele><time>2026-04-21T13:29:16.302Z</time></trkpt><trkpt lat="38.0168433" lon="15.8865683"><ele>593.5714285714287</ele><time>2026-04-21T13:29:18.302Z</time></trkpt><trkpt lat="38.0168917" lon="15.886495"><ele>596.8571428571429</ele><time>2026-04-21T13:29:21.302Z</time></trkpt><trkpt lat="38.01694" lon="15.8864417"><ele>600.1428571428571</ele><time>2026-04-21T13:29:24.302Z</time></trkpt><trkpt lat="38.0170167" lon="15.886435"><ele>603.4285714285713</ele><time>2026-04-21T13:29:27.302Z</time></trkpt><trkpt lat="38.0170817" lon="15.8864633"><ele>606.7142857142858</ele><time>2026-04-21T13:29:29.302Z</time></trkpt><trkpt lat="38.017155" lon="15.8864867"><ele>610.0</ele><time>2026-04-21T13:29:31.302Z</time></trkpt><trkpt lat="38.0172417" lon="15.8865133"><ele>610.0</ele><time>2026-04-21T13:29:33.302Z</time></trkpt><trkpt lat="38.0173333" lon="15.8865483"><ele>610.0</ele><time>2026-04-21T13:29:35.302Z</time></trkpt><trkpt lat="38.017425" lon="15.8865883"><ele>610.0</ele><time>2026-04-21T13:29:37.301Z</time></trkpt><trkpt lat="38.01752" lon="15.886585"><ele>610.0</ele><time>2026-04-21T13:29:39.302Z</time></trkpt><trkpt lat="38.01759" lon="15.8865483"><ele>610.0</ele><time>2026-04-21T13:29:41.302Z</time></trkpt><trkpt lat="38.0176283" lon="15.8864733"><ele>610.0</ele><time>2026-04-21T13:29:43.301Z</time></trkpt><trkpt lat="38.017565" lon="15.88644"><ele>610.0</ele><time>2026-04-21T13:32:11.302Z</time></trkpt><trkpt lat="38.01746" lon="15.8864067"><ele>610.0</ele><time>2026-04-21T13:32:13.302Z</time></trkpt><trkpt lat="38.0173717" lon="15.8863617"><ele>610.0</ele><time>2026-04-21T13:32:15.302Z</time></trkpt><trkpt lat="38.0172983" lon="15.8863033"><ele>610.0</ele><time>2026-04-21T13:32:17.302Z</time></trkpt><trkpt lat="38.01723" lon="15.8862483"><ele>610.0</ele><time>2026-04-21T13:32:20.302Z</time></trkpt><trkpt lat="38.0171667" lon="15.8862167"><ele>610.0</ele><time>2026-04-21T13:32:22.302Z</time></trkpt><trkpt lat="38.0170767" lon="15.8861967"><ele>610.0</ele><time>2026-04-21T13:32:24.302Z</time></trkpt><trkpt lat="38.0170083" lon="15.8861433"><ele>610.0</ele><time>2026-04-21T13:32:26.301Z</time></trkpt><trkpt lat="38.0169467" lon="15.8861"><ele>610.0</ele><time>2026-04-21T13:32:28.302Z</time></trkpt><trkpt lat="38.01689" lon="15.886065"><ele>610.0</ele><time>2026-04-21T13:32:33.302Z</time></trkpt><trkpt lat="38.0168383" lon="15.8860067"><ele>610.0</ele><time>2026-04-21T13:32:35.302Z</time></trkpt><trkpt lat="38.0167867" lon="15.88596"><ele>610.0</ele><time>2026-04-21T13:32:37.302Z</time></trkpt><trkpt lat="38.0167" lon="15.8859767"><ele>610.0</ele><time>2026-04-21T13:32:40.302Z</time></trkpt><trkpt lat="38.0167633" lon="15.885955"><ele>610.0</ele><time>2026-04-21T13:33:53.302Z</time></trkpt><trkpt lat="38.0168417" lon="15.8860283"><ele>610.0</ele><time>2026-04-21T13:33:56.302Z</time></trkpt><trkpt lat="38.0169233" lon="15.8861083"><ele>610.0</ele><time>2026-04-21T13:33:58.302Z</time></trkpt><trkpt lat="38.0170117" lon="15.8861683"><ele>610.0</ele><time>2026-04-21T13:34:00.302Z</time></trkpt><trkpt lat="38.0170833" lon="15.88622"><ele>610.0</ele><time>2026-04-21T13:34:02.302Z</time></trkpt><trkpt lat="38.0171583" lon="15.8862567"><ele>610.0</ele><time>2026-04-21T13:34:04.302Z</time></trkpt><trkpt lat="38.0172267" lon="15.8862983"><ele>610.0</ele><time>2026-04-21T13:34:06.302Z</time></trkpt><trkpt lat="38.0172883" lon="15.88633"><ele>610.0</ele><time>2026-04-21T13:34:08.302Z</time></trkpt><trkpt lat="38.0173467" lon="15.8863933"><ele>610.0</ele><time>2026-04-21T13:34:10.302Z</time></trkpt><trkpt lat="38.0174233" lon="15.8864267"><ele>610.0</ele><time>2026-04-21T13:34:12.302Z</time></trkpt><trkpt lat="38.01749" lon="15.8864333"><ele>610.0</ele><time>2026-04-21T13:34:14.302Z</time></trkpt><trkpt lat="38.0175767" lon="15.8864383"><ele>610.0</ele><time>2026-04-21T13:34:17.301Z</time></trkpt><trkpt lat="38.0175683" lon="15.886535"><ele>610.0</ele><time>2026-04-21T13:34:22.302Z</time></trkpt><trkpt lat="38.0174917" lon="15.88659"><ele>610.0</ele><time>2026-04-21T13:34:25.302Z</time></trkpt><trkpt lat="38.0173867" lon="15.88659"><ele>610.0</ele><time>2026-04-21T13:34:27.302Z</time></trkpt><trkpt lat="38.017275" lon="15.8865567"><ele>610.0</ele><time>2026-04-21T13:34:29.302Z</time></trkpt><trkpt lat="38.01718" lon="15.8865067"><ele>610.0</ele><time>2026-04-21T13:34:31.302Z</time></trkpt><trkpt lat="38.0170917" lon="15.8864733"><ele>610.0</ele><time>2026-04-21T13:34:33.301Z</time></trkpt><trkpt lat="38.0170217" lon="15.8864617"><ele>610.0</ele><time>2026-04-21T13:34:35.302Z</time></trkpt><trkpt lat="38.0169533" lon="15.88644"><ele>610.0</ele><time>2026-04-21T13:34:39.302Z</time></trkpt><trkpt lat="38.0169067" lon="15.8865"><ele>610.0</ele><time>2026-04-21T13:34:42.302Z</time></trkpt><trkpt lat="38.0168167" lon="15.886525"><ele>610.0</ele><time>2026-04-21T13:34:45.302Z</time></trkpt><trkpt lat="38.0167467" lon="15.8865467"><ele>610.0</ele><time>2026-04-21T13:34:47.302Z</time></trkpt><trkpt lat="38.016655" lon="15.8866117"><ele>610.0</ele><time>2026-04-21T13:34:49.302Z</time></trkpt><trkpt lat="38.0165933" lon="15.8866717"><ele>610.0</ele><time>2026-04-21T13:34:51.301Z</time></trkpt><trkpt lat="38.0165617" lon="15.8867633"><ele>610.0</ele><time>2026-04-21T13:34:53.302Z</time></trkpt><trkpt lat="38.0164917" lon="15.88686"><ele>610.0</ele><time>2026-04-21T13:34:55.302Z</time></trkpt><trkpt lat="38.0164267" lon="15.8868983"><ele>610.0</ele><time>2026-04-21T13:34:58.302Z</time></trkpt><trkpt lat="38.0165" lon="15.8868517"><ele>606.1666666666667</ele><time>2026-04-21T14:08:17.3Z</time></trkpt><trkpt lat="38.01656" lon="15.8867467"><ele>602.3333333333334</ele><time>2026-04-21T14:09:01.299Z</time></trkpt><trkpt lat="38.0165567" lon="15.886665"><ele>598.5</ele><time>2026-04-21T14:09:03.3Z</time></trkpt><trkpt lat="38.0165317" lon="15.8865633"><ele>594.6666666666666</ele><time>2026-04-21T14:09:05.3Z</time></trkpt><trkpt lat="38.0165233" lon="15.8864633"><ele>590.8333333333333</ele><time>2026-04-21T14:09:07.3Z</time></trkpt><trkpt lat="38.0165067" lon="15.8863433"><ele>587.0</ele><time>2026-04-21T14:09:09.3Z</time></trkpt><trkpt lat="38.01649" lon="15.8862283"><ele>587.0</ele><time>2026-04-21T14:09:11.3Z</time></trkpt><trkpt lat="38.0164483" lon="15.886115"><ele>587.0</ele><time>2026-04-21T14:09:13.3Z</time></trkpt><trkpt lat="38.0163933" lon="15.886025"><ele>587.0</ele><time>2026-04-21T14:09:15.3Z</time></trkpt><trkpt lat="38.0163167" lon="15.88596"><ele>587.0</ele><time>2026-04-21T14:09:17.3Z</time></trkpt><trkpt lat="38.0162433" lon="15.8859017"><ele>587.0</ele><time>2026-04-21T14:09:19.3Z</time></trkpt><trkpt lat="38.0161717" lon="15.8858083"><ele>591.4</ele><time>2026-04-21T14:09:21.3Z</time></trkpt><trkpt lat="38.0161417" lon="15.8856633"><ele>595.8000000000001</ele><time>2026-04-21T14:09:23.3Z</time></trkpt><trkpt lat="38.01612" lon="15.8855217"><ele>600.2</ele><time>2026-04-21T14:09:25.3Z</time></trkpt><trkpt lat="38.016075" lon="15.8854133"><ele>604.6</ele><time>2026-04-21T14:09:27.3Z</time></trkpt><trkpt lat="38.016" lon="15.8853433"><ele>609.0</ele><time>2026-04-21T14:09:29.299Z</time></trkpt><trkpt lat="38.0159017" lon="15.885335"><ele>616.4</ele><time>2026-04-21T14:09:31.3Z</time></trkpt><trkpt lat="38.0158167" lon="15.8854333"><ele>623.8</ele><time>2026-04-21T14:09:33.3Z</time></trkpt><trkpt lat="38.0157667" lon="15.88556"><ele>631.1999999999999</ele><time>2026-04-21T14:09:35.3Z</time></trkpt><trkpt lat="38.0157433" lon="15.8857183"><ele>638.5999999999999</ele><time>2026-04-21T14:09:37.3Z</time></trkpt><trkpt lat="38.015735" lon="15.88581"><ele>646.0</ele><time>2026-04-21T14:09:38.3Z</time></trkpt><trkpt lat="38.0157233" lon="15.885905"><ele>638.4</ele><time>2026-04-21T14:09:39.3Z</time></trkpt><trkpt lat="38.0157067" lon="15.885985"><ele>630.8</ele><time>2026-04-21T14:09:40.3Z</time></trkpt><trkpt lat="38.01566" lon="15.886125"><ele>623.1999999999999</ele><time>2026-04-21T14:09:42.3Z</time></trkpt><trkpt lat="38.0155633" lon="15.8862017"><ele>615.5999999999999</ele><time>2026-04-21T14:09:44.299Z</time></trkpt><trkpt lat="38.01544" lon="15.88623"><ele>608.0</ele><time>2026-04-21T14:09:46.299Z</time></trkpt><trkpt lat="38.0153583" lon="15.8862517"><ele>608.0</ele><time>2026-04-21T14:09:47.3Z</time></trkpt><trkpt lat="38.0152817" lon="15.8862933"><ele>608.0</ele><time>2026-04-21T14:09:48.3Z</time></trkpt><trkpt lat="38.0152083" lon="15.8863483"><ele>608.0</ele><time>2026-04-21T14:09:49.3Z</time></trkpt><trkpt lat="38.015135" lon="15.8864"><ele>608.0</ele><time>2026-04-21T14:09:50.3Z</time></trkpt><trkpt lat="38.015055" lon="15.8864467"><ele>608.0</ele><time>2026-04-21T14:09:51.299Z</time></trkpt><trkpt lat="38.0149783" lon="15.886495"><ele>608.0</ele><time>2026-04-21T14:09:52.3Z</time></trkpt><trkpt lat="38.0148883" lon="15.8865567"><ele>610.0</ele><time>2026-04-21T14:09:53.3Z</time></trkpt><trkpt lat="38.0147967" lon="15.8866267"><ele>612.0</ele><time>2026-04-21T14:09:54.3Z</time></trkpt><trkpt lat="38.0146967" lon="15.8866983"><ele>614.0</ele><time>2026-04-21T14:09:55.3Z</time></trkpt><trkpt lat="38.0146" lon="15.8867667"><ele>616.0</ele><time>2026-04-21T14:09:56.3Z</time></trkpt><trkpt lat="38.0145067" lon="15.8868267"><ele>618.0</ele><time>2026-04-21T14:09:57.3Z</time></trkpt><trkpt lat="38.014415" lon="15.886885"><ele>614.6666666666666</ele><time>2026-04-21T14:09:58.3Z</time></trkpt><trkpt lat="38.0143333" lon="15.88693"><ele>611.3333333333334</ele><time>2026-04-21T14:09:59.3Z</time></trkpt><trkpt lat="38.0142633" lon="15.8869767"><ele>608.0</ele><time>2026-04-21T14:10:00.3Z</time></trkpt><trkpt lat="38.01415" lon="15.88698"><ele>604.6666666666667</ele><time>2026-04-21T14:10:02.3Z</time></trkpt><trkpt lat="38.014105" lon="15.8869217"><ele>601.3333333333334</ele><time>2026-04-21T14:10:03.3Z</time></trkpt><trkpt lat="38.014065" lon="15.8868183"><ele>598.0</ele><time>2026-04-21T14:10:04.3Z</time></trkpt><trkpt lat="38.0140117" lon="15.88667"><ele>593.5</ele><time>2026-04-21T14:10:05.3Z</time></trkpt><trkpt lat="38.01394" lon="15.8865383"><ele>589.0</ele><time>2026-04-21T14:10:06.3Z</time></trkpt><trkpt lat="38.0138533" lon="15.8864183"><ele>584.5</ele><time>2026-04-21T14:10:07.3Z</time></trkpt><trkpt lat="38.0137517" lon="15.8863117"><ele>580.0</ele><time>2026-04-21T14:10:08.3Z</time></trkpt><trkpt lat="38.013655" lon="15.88623"><ele>580.0</ele><time>2026-04-21T14:10:09.3Z</time></trkpt><trkpt lat="38.0135833" lon="15.8861333"><ele>580.0</ele><time>2026-04-21T14:10:10.299Z</time></trkpt><trkpt lat="38.0135367" lon="15.88601"><ele>580.0</ele><time>2026-04-21T14:10:11.3Z</time></trkpt><trkpt lat="38.0135017" lon="15.8858733"><ele>580.0</ele><time>2026-04-21T14:10:12.3Z</time></trkpt><trkpt lat="38.0134633" lon="15.8857433"><ele>580.0</ele><time>2026-04-21T14:10:13.3Z</time></trkpt><trkpt lat="38.0134083" lon="15.8856067"><ele>576.25</ele><time>2026-04-21T14:10:14.3Z</time></trkpt><trkpt lat="38.013335" lon="15.8854667"><ele>572.5</ele><time>2026-04-21T14:10:15.3Z</time></trkpt><trkpt lat="38.0132567" lon="15.8853467"><ele>568.75</ele><time>2026-04-21T14:10:16.299Z</time></trkpt><trkpt lat="38.01316" lon="15.88524"><ele>565.0</ele><time>2026-04-21T14:10:17.3Z</time></trkpt><trkpt lat="38.0130567" lon="15.8851483"><ele>575.75</ele><time>2026-04-21T14:10:18.3Z</time></trkpt><trkpt lat="38.012945" lon="15.8850633"><ele>586.5</ele><time>2026-04-21T14:10:19.3Z</time></trkpt><trkpt lat="38.0128267" lon="15.8849783"><ele>597.25</ele><time>2026-04-21T14:10:20.3Z</time></trkpt><trkpt lat="38.01271" lon="15.8848867"><ele>608.0</ele><time>2026-04-21T14:10:21.3Z</time></trkpt><trkpt lat="38.0126" lon="15.8847917"><ele>608.0</ele><time>2026-04-21T14:10:22.3Z</time></trkpt><trkpt lat="38.0125017" lon="15.8846817"><ele>608.0</ele><time>2026-04-21T14:10:23.3Z</time></trkpt><trkpt lat="38.0124283" lon="15.8845483"><ele>608.0</ele><time>2026-04-21T14:10:24.3Z</time></trkpt><trkpt lat="38.0123617" lon="15.8844183"><ele>608.0</ele><time>2026-04-21T14:10:25.3Z</time></trkpt><trkpt lat="38.0122933" lon="15.8842883"><ele>611.0</ele><time>2026-04-21T14:10:26.3Z</time></trkpt><trkpt lat="38.012235" lon="15.8841583"><ele>614.0</ele><time>2026-04-21T14:10:27.3Z</time></trkpt><trkpt lat="38.01219" lon="15.8840367"><ele>617.0</ele><time>2026-04-21T14:10:28.3Z</time></trkpt><trkpt lat="38.01214" lon="15.8839117"><ele>620.0</ele><time>2026-04-21T14:10:29.299Z</time></trkpt><trkpt lat="38.01208" lon="15.8837933"><ele>623.0</ele><time>2026-04-21T14:10:30.3Z</time></trkpt><trkpt lat="38.0120233" lon="15.8836967"><ele>623.0</ele><time>2026-04-21T14:10:31.3Z</time></trkpt><trkpt lat="38.0119683" lon="15.88363"><ele>623.0</ele><time>2026-04-21T14:10:32.299Z</time></trkpt><trkpt lat="38.01191" lon="15.8835917"><ele>623.0</ele><time>2026-04-21T14:10:33.3Z</time></trkpt><trkpt lat="38.01184" lon="15.8836"><ele>623.0</ele><time>2026-04-21T14:10:34.3Z</time></trkpt><trkpt lat="38.011765" lon="15.88364"><ele>623.0</ele><time>2026-04-21T14:10:35.3Z</time></trkpt><trkpt lat="38.01169" lon="15.8837083"><ele>623.0</ele><time>2026-04-21T14:10:36.3Z</time></trkpt><trkpt lat="38.0116317" lon="15.8838167"><ele>620.6666666666666</ele><time>2026-04-21T14:10:37.3Z</time></trkpt><trkpt lat="38.0115967" lon="15.8839383"><ele>618.3333333333333</ele><time>2026-04-21T14:10:38.3Z</time></trkpt><trkpt lat="38.011565" lon="15.8840533"><ele>616.0</ele><time>2026-04-21T14:10:39.3Z</time></trkpt><trkpt lat="38.011545" lon="15.8841667"><ele>613.6666666666666</ele><time>2026-04-21T14:10:40.3Z</time></trkpt><trkpt lat="38.0115133" lon="15.88425"><ele>611.3333333333334</ele><time>2026-04-21T14:10:41.299Z</time></trkpt><trkpt lat="38.011475" lon="15.8843217"><ele>609.0</ele><time>2026-04-21T14:10:42.3Z</time></trkpt><trkpt lat="38.011415" lon="15.884365"><ele>609.0</ele><time>2026-04-21T14:10:43.3Z</time></trkpt><trkpt lat="38.0113333" lon="15.8843883"><ele>609.0</ele><time>2026-04-21T14:10:44.3Z</time></trkpt><trkpt lat="38.0112583" lon="15.884385"><ele>609.0</ele><time>2026-04-21T14:10:45.3Z</time></trkpt><trkpt lat="38.01118" lon="15.8843833"><ele>609.0</ele><time>2026-04-21T14:10:46.3Z</time></trkpt><trkpt lat="38.011115" lon="15.88435"><ele>609.0</ele><time>2026-04-21T14:10:47.3Z</time></trkpt><trkpt lat="38.0110783" lon="15.88428"><ele>609.0</ele><time>2026-04-21T14:10:48.3Z</time></trkpt><trkpt lat="38.01106" lon="15.88418"><ele>609.0</ele><time>2026-04-21T14:10:49.3Z</time></trkpt><trkpt lat="38.0110567" lon="15.8840533"><ele>609.0</ele><time>2026-04-21T14:10:50.3Z</time></trkpt><trkpt lat="38.0110483" lon="15.8839217"><ele>609.0</ele><time>2026-04-21T14:10:51.3Z</time></trkpt><trkpt lat="38.011055" lon="15.8838083"><ele>609.0</ele><time>2026-04-21T14:10:52.3Z</time></trkpt><trkpt lat="38.0110633" lon="15.8837033"><ele>609.0</ele><time>2026-04-21T14:10:53.3Z</time></trkpt><trkpt lat="38.0110717" lon="15.8836033"><ele>609.0</ele><time>2026-04-21T14:10:54.299Z</time></trkpt><trkpt lat="38.0110933" lon="15.8834967"><ele>609.0</ele><time>2026-04-21T14:10:55.3Z</time></trkpt><trkpt lat="38.0111183" lon="15.88339"><ele>609.0</ele><time>2026-04-21T14:10:56.299Z</time></trkpt><trkpt lat="38.0111433" lon="15.8832733"><ele>609.0</ele><time>2026-04-21T14:10:57.299Z</time></trkpt><trkpt lat="38.0111733" lon="15.8831567"><ele>609.0</ele><time>2026-04-21T14:10:58.3Z</time></trkpt><trkpt lat="38.0112" lon="15.8830467"><ele>612.0</ele><time>2026-04-21T14:10:59.3Z</time></trkpt><trkpt lat="38.0112183" lon="15.8829283"><ele>615.0</ele><time>2026-04-21T14:11:00.3Z</time></trkpt><trkpt lat="38.0112067" lon="15.8828117"><ele>618.0</ele><time>2026-04-21T14:11:01.3Z</time></trkpt><trkpt lat="38.011175" lon="15.882695"><ele>621.0</ele><time>2026-04-21T14:11:02.3Z</time></trkpt><trkpt lat="38.0111283" lon="15.882585"><ele>624.0</ele><time>2026-04-21T14:11:03.3Z</time></trkpt><trkpt lat="38.0110683" lon="15.8824933"><ele>626.6666666666666</ele><time>2026-04-21T14:11:04.3Z</time></trkpt><trkpt lat="38.0110033" lon="15.8824317"><ele>629.3333333333334</ele><time>2026-04-21T14:11:05.3Z</time></trkpt><trkpt lat="38.01091" lon="15.8824067"><ele>632.0</ele><time>2026-04-21T14:11:07.3Z</time></trkpt><trkpt lat="38.010805" lon="15.8824733"><ele>634.6666666666667</ele><time>2026-04-21T14:11:09.3Z</time></trkpt><trkpt lat="38.010745" lon="15.8825333"><ele>637.3333333333334</ele><time>2026-04-21T14:11:10.3Z</time></trkpt><trkpt lat="38.0106883" lon="15.8825767"><ele>640.0</ele><time>2026-04-21T14:11:11.3Z</time></trkpt><trkpt lat="38.0105817" lon="15.882585"><ele>640.0</ele><time>2026-04-21T14:11:13.299Z</time></trkpt><trkpt lat="38.0105317" lon="15.8825333"><ele>640.0</ele><time>2026-04-21T14:11:14.3Z</time></trkpt><trkpt lat="38.0104833" lon="15.8824617"><ele>640.0</ele><time>2026-04-21T14:11:15.3Z</time></trkpt><trkpt lat="38.0104267" lon="15.882385"><ele>640.0</ele><time>2026-04-21T14:11:16.3Z</time></trkpt><trkpt lat="38.0103567" lon="15.8823333"><ele>640.0</ele><time>2026-04-21T14:11:17.3Z</time></trkpt><trkpt lat="38.0102717" lon="15.882315"><ele>640.0</ele><time>2026-04-21T14:11:18.3Z</time></trkpt><trkpt lat="38.0101817" lon="15.8823067"><ele>640.0</ele><time>2026-04-21T14:11:19.3Z</time></trkpt><trkpt lat="38.01011" lon="15.8823133"><ele>640.0</ele><time>2026-04-21T14:11:20.299Z</time></trkpt><trkpt lat="38.010035" lon="15.882315"><ele>640.0</ele><time>2026-04-21T14:11:21.3Z</time></trkpt><trkpt lat="38.0099517" lon="15.882315"><ele>640.0</ele><time>2026-04-21T14:11:22.3Z</time></trkpt><trkpt lat="38.0098733" lon="15.8823167"><ele>640.0</ele><time>2026-04-21T14:11:23.3Z</time></trkpt><trkpt lat="38.0097917" lon="15.882305"><ele>640.0</ele><time>2026-04-21T14:11:24.3Z</time></trkpt><trkpt lat="38.009705" lon="15.8823067"><ele>639.8</ele><time>2026-04-21T14:11:25.3Z</time></trkpt><trkpt lat="38.009615" lon="15.8823117"><ele>639.6</ele><time>2026-04-21T14:11:26.3Z</time></trkpt><trkpt lat="38.00951" lon="15.8823183"><ele>639.4</ele><time>2026-04-21T14:11:27.3Z</time></trkpt><trkpt lat="38.00941" lon="15.8823383"><ele>639.2</ele><time>2026-04-21T14:11:28.3Z</time></trkpt><trkpt lat="38.00932" lon="15.8823567"><ele>639.0</ele><time>2026-04-21T14:11:29.299Z</time></trkpt><trkpt lat="38.00923" lon="15.8823833"><ele>637.4</ele><time>2026-04-21T14:11:30.3Z</time></trkpt><trkpt lat="38.0091517" lon="15.8824167"><ele>635.8</ele><time>2026-04-21T14:11:31.3Z</time></trkpt><trkpt lat="38.0090683" lon="15.8824567"><ele>634.2</ele><time>2026-04-21T14:11:32.3Z</time></trkpt><trkpt lat="38.00897" lon="15.8825617"><ele>632.6</ele><time>2026-04-21T14:11:34.3Z</time></trkpt><trkpt lat="38.00892" lon="15.8826483"><ele>631.0</ele><time>2026-04-21T14:11:35.3Z</time></trkpt><trkpt lat="38.0088683" lon="15.8826983"><ele>629.2857142857143</ele><time>2026-04-21T14:11:36.3Z</time></trkpt><trkpt lat="38.00881" lon="15.88276"><ele>627.5714285714286</ele><time>2026-04-21T14:11:37.3Z</time></trkpt><trkpt lat="38.008755" lon="15.8828267"><ele>625.8571428571429</ele><time>2026-04-21T14:11:38.3Z</time></trkpt><trkpt lat="38.0086983" lon="15.8828867"><ele>624.1428571428571</ele><time>2026-04-21T14:11:39.3Z</time></trkpt><trkpt lat="38.008645" lon="15.8829433"><ele>622.4285714285714</ele><time>2026-04-21T14:11:40.3Z</time></trkpt><trkpt lat="38.0085983" lon="15.8830017"><ele>620.7142857142857</ele><time>2026-04-21T14:11:41.3Z</time></trkpt><trkpt lat="38.008555" lon="15.8830667"><ele>619.0</ele><time>2026-04-21T14:11:42.3Z</time></trkpt><trkpt lat="38.0085083" lon="15.883125"><ele>619.0</ele><time>2026-04-21T14:11:43.3Z</time></trkpt><trkpt lat="38.00842" lon="15.8831983"><ele>619.0</ele><time>2026-04-21T14:11:45.3Z</time></trkpt><trkpt lat="38.0083267" lon="15.8831367"><ele>619.0</ele><time>2026-04-21T14:11:47.3Z</time></trkpt><trkpt lat="38.0083133" lon="15.882995"><ele>619.0</ele><time>2026-04-21T14:11:49.299Z</time></trkpt><trkpt lat="38.0083333" lon="15.8829083"><ele>619.0</ele><time>2026-04-21T14:11:50.3Z</time></trkpt><trkpt lat="38.008345" lon="15.8828167"><ele>619.0</ele><time>2026-04-21T14:11:51.3Z</time></trkpt><trkpt lat="38.0083667" lon="15.8827333"><ele>619.0</ele><time>2026-04-21T14:11:52.3Z</time></trkpt><trkpt lat="38.0083717" lon="15.88265"><ele>619.0</ele><time>2026-04-21T14:11:53.3Z</time></trkpt><trkpt lat="38.0083667" lon="15.8825683"><ele>619.0</ele><time>2026-04-21T14:11:54.299Z</time></trkpt><trkpt lat="38.0083483" lon="15.8824833"><ele>619.0</ele><time>2026-04-21T14:11:55.3Z</time></trkpt><trkpt lat="38.008315" lon="15.882415"><ele>619.0</ele><time>2026-04-21T14:11:56.3Z</time></trkpt><trkpt lat="38.0082133" lon="15.8823233"><ele>614.2</ele><time>2026-04-21T14:11:58.3Z</time></trkpt><trkpt lat="38.008105" lon="15.88226"><ele>609.4</ele><time>2026-04-21T14:12:00.3Z</time></trkpt><trkpt lat="38.00803" lon="15.8821583"><ele>604.6</ele><time>2026-04-21T14:12:02.3Z</time></trkpt><trkpt lat="38.0080467" lon="15.8820017"><ele>599.8</ele><time>2026-04-21T14:12:04.3Z</time></trkpt><trkpt lat="38.0080733" lon="15.8819283"><ele>595.0</ele><time>2026-04-21T14:12:05.3Z</time></trkpt><trkpt lat="38.008115" lon="15.881785"><ele>594.6</ele><time>2026-04-21T14:12:07.3Z</time></trkpt><trkpt lat="38.00815" lon="15.8816583"><ele>594.2</ele><time>2026-04-21T14:12:09.3Z</time></trkpt><trkpt lat="38.0081483" lon="15.8815183"><ele>593.8</ele><time>2026-04-21T14:12:11.3Z</time></trkpt><trkpt lat="38.008105" lon="15.8814083"><ele>593.4</ele><time>2026-04-21T14:12:13.3Z</time></trkpt><trkpt lat="38.0080283" lon="15.8813"><ele>593.0</ele><time>2026-04-21T14:12:15.3Z</time></trkpt><trkpt lat="38.0079883" lon="15.8812383"><ele>593.0</ele><time>2026-04-21T14:12:16.3Z</time></trkpt><trkpt lat="38.0079283" lon="15.8810983"><ele>593.0</ele><time>2026-04-21T14:12:18.3Z</time></trkpt><trkpt lat="38.00791" lon="15.8810017"><ele>593.0</ele><time>2026-04-21T14:12:19.3Z</time></trkpt><trkpt lat="38.0079" lon="15.88088"><ele>593.0</ele><time>2026-04-21T14:12:20.3Z</time></trkpt><trkpt lat="38.0078683" lon="15.8807733"><ele>593.0</ele><time>2026-04-21T14:12:21.3Z</time></trkpt><trkpt lat="38.0078367" lon="15.88066"><ele>593.5</ele><time>2026-04-21T14:12:22.3Z</time></trkpt><trkpt lat="38.007805" lon="15.8805567"><ele>594.0</ele><time>2026-04-21T14:12:23.299Z</time></trkpt><trkpt lat="38.0078117" lon="15.8804333"><ele>594.5</ele><time>2026-04-21T14:12:24.3Z</time></trkpt><trkpt lat="38.0077967" lon="15.8803533"><ele>595.0</ele><time>2026-04-21T14:12:25.3Z</time></trkpt><trkpt lat="38.0077933" lon="15.88027"><ele>595.5</ele><time>2026-04-21T14:12:26.299Z</time></trkpt><trkpt lat="38.0078133" lon="15.8801917"><ele>596.0</ele><time>2026-04-21T14:12:27.3Z</time></trkpt><trkpt lat="38.0078517" lon="15.8800883"><ele>596.0</ele><time>2026-04-21T14:12:28.3Z</time></trkpt><trkpt lat="38.00787" lon="15.8799883"><ele>596.0</ele><time>2026-04-21T14:12:29.299Z</time></trkpt><trkpt lat="38.007875" lon="15.87989"><ele>596.0</ele><time>2026-04-21T14:12:30.3Z</time></trkpt><trkpt lat="38.0078867" lon="15.8797967"><ele>596.0</ele><time>2026-04-21T14:12:31.3Z</time></trkpt><trkpt lat="38.0079" lon="15.8797033"><ele>596.0</ele><time>2026-04-21T14:12:32.3Z</time></trkpt><trkpt lat="38.0079183" lon="15.879615"><ele>596.0</ele><time>2026-04-21T14:12:33.3Z</time></trkpt><trkpt lat="38.007935" lon="15.879525"><ele>596.0</ele><time>2026-04-21T14:12:34.3Z</time></trkpt><trkpt lat="38.0079583" lon="15.8794317"><ele>596.0</ele><time>2026-04-21T14:12:35.3Z</time></trkpt><trkpt lat="38.0079867" lon="15.879355"><ele>596.0</ele><time>2026-04-21T14:12:36.3Z</time></trkpt><trkpt lat="38.00802" lon="15.8792167"><ele>596.0</ele><time>2026-04-21T14:12:38.299Z</time></trkpt><trkpt lat="38.007955" lon="15.8790933"><ele>596.0</ele><time>2026-04-21T14:12:40.3Z</time></trkpt><trkpt lat="38.0078933" lon="15.8790467"><ele>596.0</ele><time>2026-04-21T14:12:41.3Z</time></trkpt><trkpt lat="38.00781" lon="15.8790283"><ele>597.3333333333333</ele><time>2026-04-21T14:12:42.3Z</time></trkpt><trkpt lat="38.007725" lon="15.8790233"><ele>598.6666666666666</ele><time>2026-04-21T14:12:43.3Z</time></trkpt><trkpt lat="38.0076467" lon="15.879015"><ele>600.0</ele><time>2026-04-21T14:12:44.3Z</time></trkpt><trkpt lat="38.0075583" lon="15.8790117"><ele>601.3333333333334</ele><time>2026-04-21T14:12:45.3Z</time></trkpt><trkpt lat="38.0074683" lon="15.879015"><ele>602.6666666666667</ele><time>2026-04-21T14:12:46.3Z</time></trkpt><trkpt lat="38.0073733" lon="15.879015"><ele>604.0</ele><time>2026-04-21T14:12:47.3Z</time></trkpt><trkpt lat="38.007285" lon="15.8790183"><ele>600.6</ele><time>2026-04-21T14:12:48.3Z</time></trkpt><trkpt lat="38.0071933" lon="15.8790217"><ele>597.2</ele><time>2026-04-21T14:12:49.299Z</time></trkpt><trkpt lat="38.0071017" lon="15.8790117"><ele>593.8000000000001</ele><time>2026-04-21T14:12:50.3Z</time></trkpt><trkpt lat="38.00701" lon="15.8789983"><ele>590.4</ele><time>2026-04-21T14:12:51.3Z</time></trkpt><trkpt lat="38.0069083" lon="15.8789733"><ele>587.0</ele><time>2026-04-21T14:12:52.3Z</time></trkpt><trkpt lat="38.0068133" lon="15.878935"><ele>587.0</ele><time>2026-04-21T14:12:53.3Z</time></trkpt><trkpt lat="38.00671" lon="15.8788967"><ele>587.0</ele><time>2026-04-21T14:12:54.3Z</time></trkpt><trkpt lat="38.0066133" lon="15.87887"><ele>587.0</ele><time>2026-04-21T14:12:55.299Z</time></trkpt><trkpt lat="38.006515" lon="15.8788517"><ele>587.0</ele><time>2026-04-21T14:12:56.3Z</time></trkpt><trkpt lat="38.0064167" lon="15.8788467"><ele>587.0</ele><time>2026-04-21T14:12:57.3Z</time></trkpt><trkpt lat="38.0063317" lon="15.8788633"><ele>586.0</ele><time>2026-04-21T14:12:58.3Z</time></trkpt><trkpt lat="38.00625" lon="15.8789067"><ele>585.0</ele><time>2026-04-21T14:12:59.3Z</time></trkpt><trkpt lat="38.0061733" lon="15.8789517"><ele>584.0</ele><time>2026-04-21T14:13:00.3Z</time></trkpt><trkpt lat="38.0060983" lon="15.8789817"><ele>583.0</ele><time>2026-04-21T14:13:01.3Z</time></trkpt><trkpt lat="38.0060233" lon="15.8789667"><ele>582.0</ele><time>2026-04-21T14:13:02.3Z</time></trkpt><trkpt lat="38.0059417" lon="15.8789533"><ele>581.0</ele><time>2026-04-21T14:13:03.3Z</time></trkpt><trkpt lat="38.00587" lon="15.8789067"><ele>581.0</ele><time>2026-04-21T14:13:04.299Z</time></trkpt><trkpt lat="38.005835" lon="15.878825"><ele>581.0</ele><time>2026-04-21T14:13:05.3Z</time></trkpt><trkpt lat="38.005825" lon="15.8787067"><ele>581.0</ele><time>2026-04-21T14:13:06.3Z</time></trkpt><trkpt lat="38.0058433" lon="15.8785317"><ele>581.0</ele><time>2026-04-21T14:13:08.3Z</time></trkpt><trkpt lat="38.0058783" lon="15.878435"><ele>581.0</ele><time>2026-04-21T14:13:09.3Z</time></trkpt><trkpt lat="38.005935" lon="15.8782817"><ele>581.6</ele><time>2026-04-21T14:13:10.3Z</time></trkpt><trkpt lat="38.0059667" lon="15.87817"><ele>582.2</ele><time>2026-04-21T14:13:11.3Z</time></trkpt><trkpt lat="38.0059983" lon="15.8780567"><ele>582.8</ele><time>2026-04-21T14:13:12.3Z</time></trkpt><trkpt lat="38.0060217" lon="15.8779467"><ele>583.4</ele><time>2026-04-21T14:13:13.3Z</time></trkpt><trkpt lat="38.0060417" lon="15.8778517"><ele>584.0</ele><time>2026-04-21T14:13:14.3Z</time></trkpt><trkpt lat="38.0060717" lon="15.877735"><ele>584.0</ele><time>2026-04-21T14:13:15.3Z</time></trkpt><trkpt lat="38.0060133" lon="15.8776567"><ele>584.0</ele><time>2026-04-21T14:13:17.3Z</time></trkpt><trkpt lat="38.005945" lon="15.8777217"><ele>584.0</ele><time>2026-04-21T14:13:19.3Z</time></trkpt><trkpt lat="38.00592" lon="15.8778133"><ele>584.0</ele><time>2026-04-21T14:13:20.3Z</time></trkpt><trkpt lat="38.005885" lon="15.8779367"><ele>584.0</ele><time>2026-04-21T14:13:21.3Z</time></trkpt><trkpt lat="38.00583" lon="15.87807"><ele>582.0</ele><time>2026-04-21T14:13:22.3Z</time></trkpt><trkpt lat="38.0057633" lon="15.8781967"><ele>580.0</ele><time>2026-04-21T14:13:23.3Z</time></trkpt><trkpt lat="38.0056967" lon="15.878305"><ele>578.0</ele><time>2026-04-21T14:13:24.3Z</time></trkpt><trkpt lat="38.00563" lon="15.878415"><ele>576.0</ele><time>2026-04-21T14:13:25.3Z</time></trkpt><trkpt lat="38.0055583" lon="15.87853"><ele>576.0</ele><time>2026-04-21T14:13:26.3Z</time></trkpt><trkpt lat="38.005485" lon="15.8786317"><ele>576.0</ele><time>2026-04-21T14:13:27.3Z</time></trkpt><trkpt lat="38.005425" lon="15.8786917"><ele>576.0</ele><time>2026-04-21T14:13:28.3Z</time></trkpt><trkpt lat="38.0053367" lon="15.8787483"><ele>576.0</ele><time>2026-04-21T14:13:29.3Z</time></trkpt><trkpt lat="38.00525" lon="15.8787617"><ele>576.0</ele><time>2026-04-21T14:13:30.3Z</time></trkpt><trkpt lat="38.0051683" lon="15.8787417"><ele>576.0</ele><time>2026-04-21T14:13:31.3Z</time></trkpt><trkpt lat="38.00506" lon="15.8787383"><ele>576.0</ele><time>2026-04-21T14:13:32.3Z</time></trkpt><trkpt lat="38.0049533" lon="15.8787017"><ele>576.0</ele><time>2026-04-21T14:13:33.3Z</time></trkpt><trkpt lat="38.0048533" lon="15.87866"><ele>576.0</ele><time>2026-04-21T14:13:34.3Z</time></trkpt><trkpt lat="38.00475" lon="15.8786417"><ele>576.0</ele><time>2026-04-21T14:13:35.3Z</time></trkpt><trkpt lat="38.0046433" lon="15.878645"><ele>572.8</ele><time>2026-04-21T14:13:36.3Z</time></trkpt><trkpt lat="38.0045317" lon="15.8786617"><ele>569.6</ele><time>2026-04-21T14:13:37.3Z</time></trkpt><trkpt lat="38.0044367" lon="15.87865"><ele>566.4</ele><time>2026-04-21T14:13:38.3Z</time></trkpt><trkpt lat="38.0043367" lon="15.8786517"><ele>563.2</ele><time>2026-04-21T14:13:39.3Z</time></trkpt><trkpt lat="38.0042333" lon="15.8786767"><ele>560.0</ele><time>2026-04-21T14:13:40.3Z</time></trkpt><trkpt lat="38.0041217" lon="15.8787133"><ele>554.5</ele><time>2026-04-21T14:13:41.299Z</time></trkpt><trkpt lat="38.0040267" lon="15.87878"><ele>549.0</ele><time>2026-04-21T14:13:42.299Z</time></trkpt><trkpt lat="38.0039517" lon="15.878865"><ele>543.5</ele><time>2026-04-21T14:13:43.3Z</time></trkpt><trkpt lat="38.0038967" lon="15.8789467"><ele>538.0</ele><time>2026-04-21T14:13:44.3Z</time></trkpt><trkpt lat="38.0038433" lon="15.87899"><ele>532.5</ele><time>2026-04-21T14:13:45.299Z</time></trkpt><trkpt lat="38.0037833" lon="15.8790217"><ele>527.0</ele><time>2026-04-21T14:13:46.299Z</time></trkpt><trkpt lat="38.0036933" lon="15.87897"><ele>527.0</ele><time>2026-04-21T14:13:48.3Z</time></trkpt><trkpt lat="38.0036733" lon="15.878795"><ele>527.0</ele><time>2026-04-21T14:13:50.3Z</time></trkpt><trkpt lat="38.003695" lon="15.8786967"><ele>527.0</ele><time>2026-04-21T14:13:51.299Z</time></trkpt><trkpt lat="38.0037317" lon="15.8786133"><ele>527.0</ele><time>2026-04-21T14:13:52.3Z</time></trkpt><trkpt lat="38.0037967" lon="15.878545"><ele>527.0</ele><time>2026-04-21T14:13:53.3Z</time></trkpt><trkpt lat="38.0038817" lon="15.8784933"><ele>527.0</ele><time>2026-04-21T14:13:54.3Z</time></trkpt><trkpt lat="38.00397" lon="15.87844"><ele>527.0</ele><time>2026-04-21T14:13:55.299Z</time></trkpt><trkpt lat="38.0040717" lon="15.8783717"><ele>527.0</ele><time>2026-04-21T14:13:56.3Z</time></trkpt><trkpt lat="38.0041533" lon="15.8783"><ele>527.0</ele><time>2026-04-21T14:13:57.3Z</time></trkpt><trkpt lat="38.0042233" lon="15.87823"><ele>527.0</ele><time>2026-04-21T14:13:58.3Z</time></trkpt><trkpt lat="38.00432" lon="15.8781483"><ele>527.0</ele><time>2026-04-21T14:13:59.3Z</time></trkpt><trkpt lat="38.0043917" lon="15.8780867"><ele>527.0</ele><time>2026-04-21T14:14:00.299Z</time></trkpt><trkpt lat="38.004435" lon="15.8780283"><ele>527.0</ele><time>2026-04-21T14:14:01.3Z</time></trkpt><trkpt lat="38.0044133" lon="15.8779433"><ele>527.0</ele><time>2026-04-21T14:14:03.3Z</time></trkpt><trkpt lat="38.0042883" lon="15.8779383"><ele>527.0</ele><time>2026-04-21T14:14:05.3Z</time></trkpt><trkpt lat="38.004215" lon="15.877975"><ele>527.0</ele><time>2026-04-21T14:14:06.3Z</time></trkpt><trkpt lat="38.0041267" lon="15.87802"><ele>527.0</ele><time>2026-04-21T14:14:07.3Z</time></trkpt><trkpt lat="38.0040333" lon="15.8780683"><ele>527.0</ele><time>2026-04-21T14:14:08.3Z</time></trkpt><trkpt lat="38.0039317" lon="15.8781117"><ele>527.0</ele><time>2026-04-21T14:14:09.3Z</time></trkpt><trkpt lat="38.0038267" lon="15.878145"><ele>527.0</ele><time>2026-04-21T14:14:10.3Z</time></trkpt><trkpt lat="38.0037117" lon="15.87817"><ele>527.0</ele><time>2026-04-21T14:14:11.3Z</time></trkpt><trkpt lat="38.0036067" lon="15.8781867"><ele>527.0</ele><time>2026-04-21T14:14:12.3Z</time></trkpt><trkpt lat="38.003535" lon="15.878175"><ele>527.0</ele><time>2026-04-21T14:14:13.3Z</time></trkpt><trkpt lat="38.0034717" lon="15.8781817"><ele>527.0</ele><time>2026-04-21T14:14:14.3Z</time></trkpt><trkpt lat="38.003375" lon="15.8781583"><ele>527.0</ele><time>2026-04-21T14:14:16.3Z</time></trkpt><trkpt lat="38.0033617" lon="15.8780783"><ele>527.0</ele><time>2026-04-21T14:14:18.3Z</time></trkpt><trkpt lat="38.0034217" lon="15.8780067"><ele>527.0</ele><time>2026-04-21T14:14:19.3Z</time></trkpt><trkpt lat="38.0035017" lon="15.8779517"><ele>527.0</ele><time>2026-04-21T14:14:20.3Z</time></trkpt><trkpt lat="38.00357" lon="15.877915"><ele>527.0</ele><time>2026-04-21T14:14:21.3Z</time></trkpt><trkpt lat="38.00365" lon="15.877865"><ele>527.0</ele><time>2026-04-21T14:14:22.3Z</time></trkpt><trkpt lat="38.0037217" lon="15.8778267"><ele>527.0</ele><time>2026-04-21T14:14:23.3Z</time></trkpt><trkpt lat="38.0037967" lon="15.87778"><ele>527.0</ele><time>2026-04-21T14:14:24.3Z</time></trkpt><trkpt lat="38.0038683" lon="15.8777433"><ele>527.0</ele><time>2026-04-21T14:14:25.3Z</time></trkpt><trkpt lat="38.0039333" lon="15.8777033"><ele>527.0</ele><time>2026-04-21T14:14:26.3Z</time></trkpt><trkpt lat="38.0040017" lon="15.8776533"><ele>527.0</ele><time>2026-04-21T14:14:27.3Z</time></trkpt><trkpt lat="38.0040633" lon="15.8775983"><ele>527.0</ele><time>2026-04-21T14:14:28.3Z</time></trkpt><trkpt lat="38.0041033" lon="15.877485"><ele>527.0</ele><time>2026-04-21T14:14:30.3Z</time></trkpt><trkpt lat="38.0040183" lon="15.8774317"><ele>527.0</ele><time>2026-04-21T14:14:32.3Z</time></trkpt><trkpt lat="38.0039433" lon="15.8774283"><ele>527.0</ele><time>2026-04-21T14:14:33.3Z</time></trkpt><trkpt lat="38.003855" lon="15.8774433"><ele>523.3333333333333</ele><time>2026-04-21T14:14:34.3Z</time></trkpt><trkpt lat="38.0037667" lon="15.877455"><ele>519.6666666666666</ele><time>2026-04-21T14:14:35.3Z</time></trkpt><trkpt lat="38.0036883" lon="15.87745"><ele>516.0</ele><time>2026-04-21T14:14:36.3Z</time></trkpt><trkpt lat="38.0036117" lon="15.87746"><ele>512.3333333333334</ele><time>2026-04-21T14:14:37.299Z</time></trkpt><trkpt lat="38.0035267" lon="15.877465"><ele>508.6666666666667</ele><time>2026-04-21T14:14:38.3Z</time></trkpt><trkpt lat="38.0034367" lon="15.877465"><ele>505.0</ele><time>2026-04-21T14:14:39.3Z</time></trkpt><trkpt lat="38.0033533" lon="15.8774467"><ele>502.0</ele><time>2026-04-21T14:14:40.3Z</time></trkpt><trkpt lat="38.0032617" lon="15.877425"><ele>499.0</ele><time>2026-04-21T14:14:41.3Z</time></trkpt><trkpt lat="38.0031733" lon="15.87739"><ele>496.0</ele><time>2026-04-21T14:14:42.3Z</time></trkpt><trkpt lat="38.0030833" lon="15.8773533"><ele>493.0</ele><time>2026-04-21T14:14:43.299Z</time></trkpt><trkpt lat="38.002985" lon="15.8773117"><ele>490.0</ele><time>2026-04-21T14:14:44.299Z</time></trkpt><trkpt lat="38.0028867" lon="15.877295"><ele>490.0</ele><time>2026-04-21T14:14:45.3Z</time></trkpt><trkpt lat="38.0028067" lon="15.8772633"><ele>490.0</ele><time>2026-04-21T14:14:46.3Z</time></trkpt><trkpt lat="38.0027133" lon="15.87725"><ele>490.0</ele><time>2026-04-21T14:14:47.3Z</time></trkpt><trkpt lat="38.0026083" lon="15.8772533"><ele>490.0</ele><time>2026-04-21T14:14:48.3Z</time></trkpt><trkpt lat="38.0024983" lon="15.877255"><ele>490.0</ele><time>2026-04-21T14:14:49.3Z</time></trkpt><trkpt lat="38.0024033" lon="15.8772517"><ele>486.1666666666667</ele><time>2026-04-21T14:14:50.299Z</time></trkpt><trkpt lat="38.0023183" lon="15.8772633"><ele>482.33333333333337</ele><time>2026-04-21T14:14:51.3Z</time></trkpt><trkpt lat="38.0022483" lon="15.87731"><ele>478.5</ele><time>2026-04-21T14:14:52.3Z</time></trkpt><trkpt lat="38.0021883" lon="15.8773833"><ele>474.66666666666663</ele><time>2026-04-21T14:14:53.3Z</time></trkpt><trkpt lat="38.0021517" lon="15.8774833"><ele>470.8333333333333</ele><time>2026-04-21T14:14:54.3Z</time></trkpt><trkpt lat="38.0021433" lon="15.8775917"><ele>467.0</ele><time>2026-04-21T14:14:55.3Z</time></trkpt><trkpt lat="38.0021467" lon="15.87772"><ele>465.0</ele><time>2026-04-21T14:14:56.3Z</time></trkpt><trkpt lat="38.0021833" lon="15.8778133"><ele>463.00000000000006</ele><time>2026-04-21T14:14:57.299Z</time></trkpt><trkpt lat="38.0021933" lon="15.8779367"><ele>461.00000000000006</ele><time>2026-04-21T14:14:58.3Z</time></trkpt><trkpt lat="38.0022233" lon="15.8780483"><ele>459.0</ele><time>2026-04-21T14:14:59.3Z</time></trkpt><trkpt lat="38.0022317" lon="15.878175"><ele>457.0</ele><time>2026-04-21T14:15:00.3Z</time></trkpt><trkpt lat="38.0022467" lon="15.8783033"><ele>457.0</ele><time>2026-04-21T14:15:01.299Z</time></trkpt><trkpt lat="38.0022683" lon="15.8784217"><ele>457.00000000000006</ele><time>2026-04-21T14:15:02.3Z</time></trkpt><trkpt lat="38.002285" lon="15.8785333"><ele>457.00000000000006</ele><time>2026-04-21T14:15:03.3Z</time></trkpt><trkpt lat="38.0023067" lon="15.878645"><ele>457.0</ele><time>2026-04-21T14:15:04.3Z</time></trkpt><trkpt lat="38.0023133" lon="15.8787683"><ele>457.0</ele><time>2026-04-21T14:15:05.3Z</time></trkpt><trkpt lat="38.0023033" lon="15.87889"><ele>457.20000000000005</ele><time>2026-04-21T14:15:06.3Z</time></trkpt><trkpt lat="38.00229" lon="15.879015"><ele>457.40000000000003</ele><time>2026-04-21T14:15:07.3Z</time></trkpt><trkpt lat="38.0022633" lon="15.8791367"><ele>457.59999999999997</ele><time>2026-04-21T14:15:08.3Z</time></trkpt><trkpt lat="38.0022317" lon="15.8792517"><ele>457.79999999999995</ele><time>2026-04-21T14:15:09.3Z</time></trkpt><trkpt lat="38.0022" lon="15.87936"><ele>458.0</ele><time>2026-04-21T14:15:10.3Z</time></trkpt><trkpt lat="38.0021633" lon="15.879455"><ele>459.49999999999994</ele><time>2026-04-21T14:15:11.3Z</time></trkpt><trkpt lat="38.002135" lon="15.8795367"><ele>461.0</ele><time>2026-04-21T14:15:12.3Z</time></trkpt><trkpt lat="38.0020817" lon="15.8796267"><ele>462.5</ele><time>2026-04-21T14:15:13.3Z</time></trkpt><trkpt lat="38.0020317" lon="15.8797033"><ele>464.0</ele><time>2026-04-21T14:15:14.3Z</time></trkpt><trkpt lat="38.0019817" lon="15.8797633"><ele>465.49999999999994</ele><time>2026-04-21T14:15:15.3Z</time></trkpt><trkpt lat="38.00191" lon="15.87983"><ele>467.0</ele><time>2026-04-21T14:15:16.3Z</time></trkpt><trkpt lat="38.0018467" lon="15.87987"><ele>467.0</ele><time>2026-04-21T14:15:17.3Z</time></trkpt><trkpt lat="38.00177" lon="15.8798983"><ele>467.00000000000006</ele><time>2026-04-21T14:15:18.3Z</time></trkpt><trkpt lat="38.001705" lon="15.8798933"><ele>467.00000000000006</ele><time>2026-04-21T14:15:19.299Z</time></trkpt><trkpt lat="38.0016133" lon="15.8799033"><ele>467.0</ele><time>2026-04-21T14:15:20.3Z</time></trkpt><trkpt lat="38.0014833" lon="15.8798383"><ele>467.0</ele><time>2026-04-21T14:15:22.3Z</time></trkpt><trkpt lat="38.001385" lon="15.87983"><ele>466.5714285714285</ele><time>2026-04-21T14:15:23.3Z</time></trkpt><trkpt lat="38.00131" lon="15.8798017"><ele>466.1428571428571</ele><time>2026-04-21T14:15:24.3Z</time></trkpt><trkpt lat="38.001245" lon="15.8797783"><ele>465.7142857142857</ele><time>2026-04-21T14:15:25.3Z</time></trkpt><trkpt lat="38.001165" lon="15.8797683"><ele>465.2857142857143</ele><time>2026-04-21T14:15:26.3Z</time></trkpt><trkpt lat="38.0011033" lon="15.8797333"><ele>464.8571428571429</ele><time>2026-04-21T14:15:27.3Z</time></trkpt><trkpt lat="38.0010383" lon="15.879685"><ele>464.4285714285715</ele><time>2026-04-21T14:15:28.3Z</time></trkpt><trkpt lat="38.0009617" lon="15.8796583"><ele>464.00000000000006</ele><time>2026-04-21T14:15:29.3Z</time></trkpt><trkpt lat="38.0008833" lon="15.8796283"><ele>465.6</ele><time>2026-04-21T14:15:30.3Z</time></trkpt><trkpt lat="38.0008283" lon="15.8795883"><ele>467.2</ele><time>2026-04-21T14:15:31.299Z</time></trkpt><trkpt lat="38.0007617" lon="15.8795683"><ele>468.80000000000007</ele><time>2026-04-21T14:15:32.299Z</time></trkpt><trkpt lat="38.0006583" lon="15.879515"><ele>470.40000000000003</ele><time>2026-04-21T14:15:34.3Z</time></trkpt><trkpt lat="38.0005633" lon="15.8794317"><ele>472.0</ele><time>2026-04-21T14:15:36.3Z</time></trkpt><trkpt lat="38.0004667" lon="15.8793817"><ele>472.00000000000006</ele><time>2026-04-21T14:15:38.3Z</time></trkpt><trkpt lat="38.000385" lon="15.87934"><ele>472.0</ele><time>2026-04-21T14:15:40.3Z</time></trkpt><trkpt lat="38.0003117" lon="15.8792883"><ele>472.0</ele><time>2026-04-21T14:15:42.3Z</time></trkpt><trkpt lat="38.000265" lon="15.8792017"><ele>472.0</ele><time>2026-04-21T14:15:46.3Z</time></trkpt><trkpt lat="38.0002067" lon="15.879135"><ele>472.00000000000006</ele><time>2026-04-21T14:15:48.3Z</time></trkpt><trkpt lat="38.0001567" lon="15.87905"><ele>472.0</ele><time>2026-04-21T14:15:50.3Z</time></trkpt><trkpt lat="38.0000867" lon="15.8789967"><ele>466.20000000000005</ele><time>2026-04-21T14:15:52.3Z</time></trkpt><trkpt lat="37.9999717" lon="15.878945"><ele>460.40000000000003</ele><time>2026-04-21T14:15:54.3Z</time></trkpt><trkpt lat="37.9999033" lon="15.878915"><ele>454.59999999999997</ele><time>2026-04-21T14:15:55.3Z</time></trkpt><trkpt lat="37.99981" lon="15.87885"><ele>448.79999999999995</ele><time>2026-04-21T14:15:57.3Z</time></trkpt><trkpt lat="37.99973" lon="15.8787817"><ele>443.0</ele><time>2026-04-21T14:15:59.3Z</time></trkpt><trkpt lat="37.9996817" lon="15.878725"><ele>443.0</ele><time>2026-04-21T14:16:00.299Z</time></trkpt><trkpt lat="37.99963" lon="15.8786067"><ele>442.99999999999994</ele><time>2026-04-21T14:16:02.3Z</time></trkpt><trkpt lat="37.99966" lon="15.8785317"><ele>442.99999999999994</ele><time>2026-04-21T14:16:04.3Z</time></trkpt><trkpt lat="37.99974" lon="15.87854"><ele>443.0</ele><time>2026-04-21T14:16:07.3Z</time></trkpt><trkpt lat="37.99983" lon="15.878595"><ele>443.0</ele><time>2026-04-21T14:16:10.3Z</time></trkpt><trkpt lat="37.999925" lon="15.878635"><ele>442.99999999999994</ele><time>2026-04-21T14:16:12.3Z</time></trkpt><trkpt lat="37.999995" lon="15.8786683"><ele>443.0</ele><time>2026-04-21T14:16:14.3Z</time></trkpt><trkpt lat="38.0000917" lon="15.8787"><ele>443.0</ele><time>2026-04-21T14:16:16.3Z</time></trkpt><trkpt lat="38.0001533" lon="15.8787233"><ele>443.0</ele><time>2026-04-21T14:16:17.3Z</time></trkpt><trkpt lat="38.000215" lon="15.878745"><ele>442.99999999999994</ele><time>2026-04-21T14:16:18.3Z</time></trkpt><trkpt lat="38.0003183" lon="15.8788083"><ele>443.0</ele><time>2026-04-21T14:16:20.3Z</time></trkpt><trkpt lat="38.00042" lon="15.8788767"><ele>443.0</ele><time>2026-04-21T14:16:22.3Z</time></trkpt><trkpt lat="38.000525" lon="15.8789267"><ele>443.0</ele><time>2026-04-21T14:16:24.3Z</time></trkpt><trkpt lat="38.0006283" lon="15.8789833"><ele>443.0</ele><time>2026-04-21T14:16:26.3Z</time></trkpt><trkpt lat="38.00074" lon="15.87904"><ele>443.0</ele><time>2026-04-21T14:16:28.3Z</time></trkpt><trkpt lat="38.0008483" lon="15.87907"><ele>441.59999999999997</ele><time>2026-04-21T14:16:30.3Z</time></trkpt><trkpt lat="38.0009383" lon="15.8790183"><ele>440.19999999999993</ele><time>2026-04-21T14:16:32.299Z</time></trkpt><trkpt lat="38.00102" lon="15.8789"><ele>438.8</ele><time>2026-04-21T14:16:34.3Z</time></trkpt><trkpt lat="38.00106" lon="15.8788383"><ele>437.4</ele><time>2026-04-21T14:16:35.3Z</time></trkpt><trkpt lat="38.0010867" lon="15.87874"><ele>436.0</ele><time>2026-04-21T14:16:37.3Z</time></trkpt><trkpt lat="38.0011033" lon="15.878615"><ele>436.0</ele><time>2026-04-21T14:16:39.3Z</time></trkpt><trkpt lat="38.0011133" lon="15.878485"><ele>436.0</ele><time>2026-04-21T14:16:41.3Z</time></trkpt><trkpt lat="38.0011133" lon="15.8783267"><ele>436.0</ele><time>2026-04-21T14:16:43.3Z</time></trkpt><trkpt lat="38.0010483" lon="15.8782"><ele>436.0</ele><time>2026-04-21T14:16:45.3Z</time></trkpt><trkpt lat="38.001" lon="15.87814"><ele>436.0</ele><time>2026-04-21T14:16:46.3Z</time></trkpt><trkpt lat="38.0009467" lon="15.8780683"><ele>433.50000000000006</ele><time>2026-04-21T14:16:47.3Z</time></trkpt><trkpt lat="38.0008933" lon="15.8779917"><ele>431.0</ele><time>2026-04-21T14:16:48.3Z</time></trkpt><trkpt lat="38.0008467" lon="15.8779017"><ele>428.5</ele><time>2026-04-21T14:16:49.3Z</time></trkpt><trkpt lat="38.0007983" lon="15.877825"><ele>426.0</ele><time>2026-04-21T14:16:50.3Z</time></trkpt><trkpt lat="38.0007567" lon="15.87774"><ele>423.50000000000006</ele><time>2026-04-21T14:16:51.3Z</time></trkpt><trkpt lat="38.00072" lon="15.87766"><ele>421.0</ele><time>2026-04-21T14:16:52.3Z</time></trkpt><trkpt lat="38.000695" lon="15.8775817"><ele>415.8571428571429</ele><time>2026-04-21T14:16:53.3Z</time></trkpt><trkpt lat="38.0006733" lon="15.8775"><ele>410.7142857142857</ele><time>2026-04-21T14:16:54.3Z</time></trkpt><trkpt lat="38.0006517" lon="15.8774067"><ele>405.57142857142856</ele><time>2026-04-21T14:16:55.3Z</time></trkpt><trkpt lat="38.0006317" lon="15.877315"><ele>400.42857142857144</ele><time>2026-04-21T14:16:56.3Z</time></trkpt><trkpt lat="38.0006183" lon="15.877225"><ele>395.2857142857143</ele><time>2026-04-21T14:16:57.3Z</time></trkpt><trkpt lat="38.0006033" lon="15.87714"><ele>390.14285714285717</ele><time>2026-04-21T14:16:58.3Z</time></trkpt><trkpt lat="38.0005933" lon="15.8770583"><ele>385.0</ele><time>2026-04-21T14:16:59.3Z</time></trkpt><trkpt lat="38.000575" lon="15.8769133"><ele>385.00000000000006</ele><time>2026-04-21T14:17:01.3Z</time></trkpt><trkpt lat="38.0005217" lon="15.87678"><ele>385.0</ele><time>2026-04-21T14:17:03.3Z</time></trkpt><trkpt lat="38.0004933" lon="15.8767017"><ele>385.0</ele><time>2026-04-21T14:17:04.3Z</time></trkpt><trkpt lat="38.0004833" lon="15.8765967"><ele>385.0</ele><time>2026-04-21T14:17:05.3Z</time></trkpt><trkpt lat="38.0004917" lon="15.876505"><ele>385.00000000000006</ele><time>2026-04-21T14:17:06.3Z</time></trkpt><trkpt lat="38.0005083" lon="15.8764217"><ele>385.0</ele><time>2026-04-21T14:17:07.3Z</time></trkpt><trkpt lat="38.000535" lon="15.8763483"><ele>387.75</ele><time>2026-04-21T14:17:08.3Z</time></trkpt><trkpt lat="38.0006117" lon="15.8761933"><ele>390.5</ele><time>2026-04-21T14:17:10.3Z</time></trkpt><trkpt lat="38.0006867" lon="15.8760917"><ele>393.25</ele><time>2026-04-21T14:17:11.3Z</time></trkpt><trkpt lat="38.00078" lon="15.8760067"><ele>396.0</ele><time>2026-04-21T14:17:12.3Z</time></trkpt><trkpt lat="38.0008633" lon="15.87592"><ele>396.0</ele><time>2026-04-21T14:17:13.3Z</time></trkpt><trkpt lat="38.0009333" lon="15.8758233"><ele>396.0</ele><time>2026-04-21T14:17:14.3Z</time></trkpt><trkpt lat="38.0010017" lon="15.8756833"><ele>396.0</ele><time>2026-04-21T14:17:15.3Z</time></trkpt><trkpt lat="38.00107" lon="15.8755517"><ele>396.0</ele><time>2026-04-21T14:17:16.3Z</time></trkpt><trkpt lat="38.0011417" lon="15.8754367"><ele>396.0</ele><time>2026-04-21T14:17:17.3Z</time></trkpt><trkpt lat="38.0012133" lon="15.8753417"><ele>396.0</ele><time>2026-04-21T14:17:18.3Z</time></trkpt><trkpt lat="38.00132" lon="15.875245"><ele>396.0</ele><time>2026-04-21T14:17:19.3Z</time></trkpt><trkpt lat="38.0014333" lon="15.8751717"><ele>396.0</ele><time>2026-04-21T14:17:20.3Z</time></trkpt><trkpt lat="38.0015667" lon="15.8751"><ele>397.0</ele><time>2026-04-21T14:17:21.3Z</time></trkpt><trkpt lat="38.001725" lon="15.874985"><ele>398.0</ele><time>2026-04-21T14:17:22.299Z</time></trkpt><trkpt lat="38.001865" lon="15.874905"><ele>399.0</ele><time>2026-04-21T14:17:23.3Z</time></trkpt><trkpt lat="38.00199" lon="15.8748"><ele>399.0</ele><time>2026-04-21T14:17:24.3Z</time></trkpt><trkpt lat="38.0020917" lon="15.8747133"><ele>399.0</ele><time>2026-04-21T14:17:25.3Z</time></trkpt><trkpt lat="38.002205" lon="15.8746483"><ele>399.0</ele><time>2026-04-21T14:17:26.3Z</time></trkpt><trkpt lat="38.0023283" lon="15.8745833"><ele>399.0</ele><time>2026-04-21T14:17:27.3Z</time></trkpt><trkpt lat="38.00245" lon="15.8745067"><ele>396.0</ele><time>2026-04-21T14:17:28.3Z</time></trkpt><trkpt lat="38.00257" lon="15.8744267"><ele>393.0</ele><time>2026-04-21T14:17:29.3Z</time></trkpt><trkpt lat="38.0026733" lon="15.8743483"><ele>390.0</ele><time>2026-04-21T14:17:30.3Z</time></trkpt><trkpt lat="38.0027767" lon="15.8742783"><ele>387.0</ele><time>2026-04-21T14:17:31.3Z</time></trkpt><trkpt lat="38.002865" lon="15.8741883"><ele>387.0</ele><time>2026-04-21T14:17:32.3Z</time></trkpt><trkpt lat="38.00293" lon="15.8741083"><ele>387.0</ele><time>2026-04-21T14:17:33.3Z</time></trkpt><trkpt lat="38.0029867" lon="15.87402"><ele>387.0</ele><time>2026-04-21T14:17:34.3Z</time></trkpt><trkpt lat="38.002965" lon="15.8739083"><ele>387.0</ele><time>2026-04-21T14:17:36.3Z</time></trkpt><trkpt lat="38.0028683" lon="15.87393"><ele>387.0</ele><time>2026-04-21T14:17:38.3Z</time></trkpt><trkpt lat="38.0027883" lon="15.874"><ele>387.0</ele><time>2026-04-21T14:17:39.3Z</time></trkpt><trkpt lat="38.002695" lon="15.87406"><ele>387.0</ele><time>2026-04-21T14:17:40.3Z</time></trkpt><trkpt lat="38.002555" lon="15.8741383"><ele>387.0</ele><time>2026-04-21T14:17:41.3Z</time></trkpt><trkpt lat="38.0023917" lon="15.8741933"><ele>387.0</ele><time>2026-04-21T14:17:42.3Z</time></trkpt><trkpt lat="38.0022433" lon="15.87424"><ele>383.0</ele><time>2026-04-21T14:17:43.3Z</time></trkpt><trkpt lat="38.0021233" lon="15.87423"><ele>379.0</ele><time>2026-04-21T14:17:44.3Z</time></trkpt><trkpt lat="38.002015" lon="15.8741717"><ele>375.0</ele><time>2026-04-21T14:17:45.3Z</time></trkpt><trkpt lat="38.0018883" lon="15.87412"><ele>371.0</ele><time>2026-04-21T14:17:46.3Z</time></trkpt><trkpt lat="38.0017817" lon="15.8741"><ele>371.0</ele><time>2026-04-21T14:17:47.3Z</time></trkpt><trkpt lat="38.0017017" lon="15.8741083"><ele>371.0</ele><time>2026-04-21T14:17:48.3Z</time></trkpt><trkpt lat="38.0016133" lon="15.87407"><ele>371.0</ele><time>2026-04-21T14:17:50.3Z</time></trkpt><trkpt lat="38.001655" lon="15.873995"><ele>371.0</ele><time>2026-04-21T14:17:52.3Z</time></trkpt><trkpt lat="38.0017333" lon="15.87398"><ele>371.0</ele><time>2026-04-21T14:17:53.3Z</time></trkpt><trkpt lat="38.0018483" lon="15.87398"><ele>371.0</ele><time>2026-04-21T14:17:54.299Z</time></trkpt><trkpt lat="38.0020033" lon="15.873995"><ele>371.0</ele><time>2026-04-21T14:17:55.3Z</time></trkpt><trkpt lat="38.0021417" lon="15.87399"><ele>371.0</ele><time>2026-04-21T14:17:56.3Z</time></trkpt><trkpt lat="38.0022433" lon="15.8739533"><ele>371.0</ele><time>2026-04-21T14:17:57.299Z</time></trkpt><trkpt lat="38.0023217" lon="15.87388"><ele>371.0</ele><time>2026-04-21T14:17:58.3Z</time></trkpt><trkpt lat="38.00237" lon="15.8737867"><ele>371.0</ele><time>2026-04-21T14:17:59.3Z</time></trkpt><trkpt lat="38.0024067" lon="15.8737133"><ele>371.0</ele><time>2026-04-21T14:18:00.299Z</time></trkpt><trkpt lat="38.00245" lon="15.8736267"><ele>371.0</ele><time>2026-04-21T14:18:01.299Z</time></trkpt><trkpt lat="38.0025033" lon="15.87357"><ele>371.0</ele><time>2026-04-21T14:18:02.3Z</time></trkpt><trkpt lat="38.0025683" lon="15.87353"><ele>371.0</ele><time>2026-04-21T14:18:03.3Z</time></trkpt><trkpt lat="38.00264" lon="15.873505"><ele>371.0</ele><time>2026-04-21T14:18:04.3Z</time></trkpt><trkpt lat="38.00274" lon="15.8734733"><ele>371.0</ele><time>2026-04-21T14:18:06.3Z</time></trkpt><trkpt lat="38.00276" lon="15.8733733"><ele>371.0</ele><time>2026-04-21T14:18:08.3Z</time></trkpt><trkpt lat="38.0026567" lon="15.873325"><ele>371.0</ele><time>2026-04-21T14:18:10.3Z</time></trkpt><trkpt lat="38.0025817" lon="15.873315"><ele>371.0</ele><time>2026-04-21T14:18:11.3Z</time></trkpt><trkpt lat="38.0025067" lon="15.8733217"><ele>371.0</ele><time>2026-04-21T14:18:12.3Z</time></trkpt><trkpt lat="38.0024433" lon="15.8733183"><ele>371.0</ele><time>2026-04-21T14:18:13.3Z</time></trkpt><trkpt lat="38.0023733" lon="15.8733717"><ele>371.0</ele><time>2026-04-21T14:18:14.3Z</time></trkpt><trkpt lat="38.0023117" lon="15.87344"><ele>371.0</ele><time>2026-04-21T14:18:15.299Z</time></trkpt><trkpt lat="38.0022617" lon="15.873515"><ele>371.0</ele><time>2026-04-21T14:18:16.3Z</time></trkpt><trkpt lat="38.0022217" lon="15.873595"><ele>371.0</ele><time>2026-04-21T14:18:17.3Z</time></trkpt><trkpt lat="38.0021817" lon="15.873665"><ele>371.0</ele><time>2026-04-21T14:18:18.3Z</time></trkpt><trkpt lat="38.0020883" lon="15.8737433"><ele>371.0</ele><time>2026-04-21T14:18:20.3Z</time></trkpt><trkpt lat="38.0020233" lon="15.873745"><ele>371.0</ele><time>2026-04-21T14:18:21.299Z</time></trkpt><trkpt lat="38.001955" lon="15.8737183"><ele>371.0</ele><time>2026-04-21T14:18:22.3Z</time></trkpt><trkpt lat="38.001885" lon="15.8736767"><ele>371.0</ele><time>2026-04-21T14:18:23.3Z</time></trkpt><trkpt lat="38.0018167" lon="15.8736383"><ele>371.0</ele><time>2026-04-21T14:18:24.3Z</time></trkpt><trkpt lat="38.0017617" lon="15.873585"><ele>371.0</ele><time>2026-04-21T14:18:25.3Z</time></trkpt><trkpt lat="38.001695" lon="15.8735267"><ele>371.0</ele><time>2026-04-21T14:18:27.3Z</time></trkpt><trkpt lat="38.0017733" lon="15.8734767"><ele>371.0</ele><time>2026-04-21T14:18:30.3Z</time></trkpt><trkpt lat="38.0018383" lon="15.87351"><ele>371.0</ele><time>2026-04-21T14:18:31.3Z</time></trkpt><trkpt lat="38.0019167" lon="15.8735467"><ele>371.0</ele><time>2026-04-21T14:18:32.3Z</time></trkpt><trkpt lat="38.002" lon="15.8735417"><ele>371.0</ele><time>2026-04-21T14:18:33.3Z</time></trkpt><trkpt lat="38.00206" lon="15.8735133"><ele>371.0</ele><time>2026-04-21T14:18:34.3Z</time></trkpt><trkpt lat="38.0021283" lon="15.8733983"><ele>371.0</ele><time>2026-04-21T14:18:36.3Z</time></trkpt><trkpt lat="38.0021467" lon="15.8733033"><ele>371.0</ele><time>2026-04-21T14:18:37.3Z</time></trkpt><trkpt lat="38.002145" lon="15.87321"><ele>368.33333333333337</ele><time>2026-04-21T14:18:38.3Z</time></trkpt><trkpt lat="38.0021533" lon="15.87312"><ele>365.6666666666667</ele><time>2026-04-21T14:18:39.3Z</time></trkpt><trkpt lat="38.002195" lon="15.8730167"><ele>363.0</ele><time>2026-04-21T14:18:40.3Z</time></trkpt><trkpt lat="38.0022917" lon="15.8729167"><ele>360.3333333333333</ele><time>2026-04-21T14:18:42.3Z</time></trkpt><trkpt lat="38.0023667" lon="15.87288"><ele>357.66666666666663</ele><time>2026-04-21T14:18:43.3Z</time></trkpt><trkpt lat="38.00244" lon="15.872875"><ele>355.0</ele><time>2026-04-21T14:18:44.3Z</time></trkpt><trkpt lat="38.0025167" lon="15.8728667"><ele>355.0</ele><time>2026-04-21T14:18:45.3Z</time></trkpt><trkpt lat="38.002595" lon="15.87287"><ele>355.0</ele><time>2026-04-21T14:18:46.3Z</time></trkpt><trkpt lat="38.0026733" lon="15.8728817"><ele>355.0</ele><time>2026-04-21T14:18:47.3Z</time></trkpt><trkpt lat="38.0027417" lon="15.872905"><ele>355.0</ele><time>2026-04-21T14:18:48.3Z</time></trkpt><trkpt lat="38.002805" lon="15.872945"><ele>355.0</ele><time>2026-04-21T14:18:49.3Z</time></trkpt><trkpt lat="38.002905" lon="15.873045"><ele>355.0</ele><time>2026-04-21T14:18:51.3Z</time></trkpt><trkpt lat="38.0030283" lon="15.8730967"><ele>355.0</ele><time>2026-04-21T14:18:53.299Z</time></trkpt><trkpt lat="38.0030933" lon="15.87313"><ele>355.0</ele><time>2026-04-21T14:18:54.3Z</time></trkpt><trkpt lat="38.0031517" lon="15.8731783"><ele>355.0</ele><time>2026-04-21T14:18:55.299Z</time></trkpt><trkpt lat="38.003245" lon="15.8732433"><ele>355.0</ele><time>2026-04-21T14:18:57.3Z</time></trkpt><trkpt lat="38.0033317" lon="15.8731983"><ele>355.0</ele><time>2026-04-21T14:18:59.3Z</time></trkpt><trkpt lat="38.0033517" lon="15.8730467"><ele>355.16666666666663</ele><time>2026-04-21T14:19:01.3Z</time></trkpt><trkpt lat="38.003355" lon="15.8729567"><ele>355.3333333333333</ele><time>2026-04-21T14:19:02.3Z</time></trkpt><trkpt lat="38.003365" lon="15.8728717"><ele>355.5</ele><time>2026-04-21T14:19:03.3Z</time></trkpt><trkpt lat="38.0033867" lon="15.8727817"><ele>355.6666666666667</ele><time>2026-04-21T14:19:04.3Z</time></trkpt><trkpt lat="38.0034133" lon="15.8726933"><ele>355.83333333333337</ele><time>2026-04-21T14:19:05.3Z</time></trkpt><trkpt lat="38.0034317" lon="15.8725383"><ele>356.0</ele><time>2026-04-21T14:19:07.299Z</time></trkpt><trkpt lat="38.0034283" lon="15.8724517"><ele>351.33333333333337</ele><time>2026-04-21T14:19:08.3Z</time></trkpt><trkpt lat="38.0034033" lon="15.87237"><ele>346.6666666666667</ele><time>2026-04-21T14:19:09.3Z</time></trkpt><trkpt lat="38.0033533" lon="15.8722983"><ele>342.0</ele><time>2026-04-21T14:19:10.3Z</time></trkpt><trkpt lat="38.0032833" lon="15.8722467"><ele>337.3333333333333</ele><time>2026-04-21T14:19:11.3Z</time></trkpt><trkpt lat="38.0032133" lon="15.8722117"><ele>332.66666666666663</ele><time>2026-04-21T14:19:12.3Z</time></trkpt><trkpt lat="38.0031317" lon="15.8721983"><ele>328.0</ele><time>2026-04-21T14:19:13.3Z</time></trkpt><trkpt lat="38.00305" lon="15.8722217"><ele>326.5</ele><time>2026-04-21T14:19:14.3Z</time></trkpt><trkpt lat="38.0029783" lon="15.8722733"><ele>325.0</ele><time>2026-04-21T14:19:15.3Z</time></trkpt><trkpt lat="38.0029117" lon="15.8723217"><ele>323.5</ele><time>2026-04-21T14:19:16.3Z</time></trkpt><trkpt lat="38.002845" lon="15.8723733"><ele>322.0</ele><time>2026-04-21T14:19:17.299Z</time></trkpt><trkpt lat="38.00278" lon="15.8724167"><ele>320.5</ele><time>2026-04-21T14:19:18.3Z</time></trkpt><trkpt lat="38.002715" lon="15.8724517"><ele>319.0</ele><time>2026-04-21T14:19:19.3Z</time></trkpt><trkpt lat="38.0026417" lon="15.8724617"><ele>319.0</ele><time>2026-04-21T14:19:20.3Z</time></trkpt><trkpt lat="38.0025583" lon="15.8724567"><ele>319.0</ele><time>2026-04-21T14:19:21.3Z</time></trkpt><trkpt lat="38.002475" lon="15.8724317"><ele>319.0</ele><time>2026-04-21T14:19:22.3Z</time></trkpt><trkpt lat="38.00239" lon="15.872405"><ele>319.0</ele><time>2026-04-21T14:19:23.301Z</time></trkpt><trkpt lat="38.0023033" lon="15.8723933"><ele>319.0</ele><time>2026-04-21T14:19:24.301Z</time></trkpt><trkpt lat="38.0022183" lon="15.87239"><ele>319.0</ele><time>2026-04-21T14:19:25.3Z</time></trkpt><trkpt lat="38.0021317" lon="15.8724267"><ele>321.5</ele><time>2026-04-21T14:19:26.301Z</time></trkpt><trkpt lat="38.002055" lon="15.8724917"><ele>324.0</ele><time>2026-04-21T14:19:27.301Z</time></trkpt><trkpt lat="38.0019817" lon="15.872565"><ele>326.5</ele><time>2026-04-21T14:19:28.301Z</time></trkpt><trkpt lat="38.0019067" lon="15.872635"><ele>329.0</ele><time>2026-04-21T14:19:29.301Z</time></trkpt><trkpt lat="38.00184" lon="15.872705"><ele>331.5</ele><time>2026-04-21T14:19:30.301Z</time></trkpt><trkpt lat="38.0017817" lon="15.872765"><ele>334.0</ele><time>2026-04-21T14:19:31.301Z</time></trkpt><trkpt lat="38.0016767" lon="15.8728217"><ele>328.8</ele><time>2026-04-21T14:19:33.301Z</time></trkpt><trkpt lat="38.0016033" lon="15.8727517"><ele>323.59999999999997</ele><time>2026-04-21T14:19:35.301Z</time></trkpt><trkpt lat="38.001645" lon="15.8726"><ele>318.4</ele><time>2026-04-21T14:19:37.301Z</time></trkpt><trkpt lat="38.0016917" lon="15.8725133"><ele>313.2</ele><time>2026-04-21T14:19:38.301Z</time></trkpt><trkpt lat="38.0017483" lon="15.8724267"><ele>308.0</ele><time>2026-04-21T14:19:39.301Z</time></trkpt><trkpt lat="38.0018" lon="15.8723417"><ele>306.6666666666667</ele><time>2026-04-21T14:19:40.301Z</time></trkpt><trkpt lat="38.0018467" lon="15.87227"><ele>305.33333333333337</ele><time>2026-04-21T14:19:41.301Z</time></trkpt><trkpt lat="38.0019067" lon="15.8722183"><ele>304.0</ele><time>2026-04-21T14:19:42.301Z</time></trkpt><trkpt lat="38.0019767" lon="15.8721917"><ele>302.6666666666667</ele><time>2026-04-21T14:19:43.301Z</time></trkpt><trkpt lat="38.00206" lon="15.8721767"><ele>301.3333333333333</ele><time>2026-04-21T14:19:44.3Z</time></trkpt><trkpt lat="38.00215" lon="15.8721667"><ele>300.0</ele><time>2026-04-21T14:19:45.301Z</time></trkpt><trkpt lat="38.002235" lon="15.872175"><ele>299.99999999999994</ele><time>2026-04-21T14:19:46.301Z</time></trkpt><trkpt lat="38.0023167" lon="15.8721783"><ele>300.0</ele><time>2026-04-21T14:19:47.3Z</time></trkpt><trkpt lat="38.0023967" lon="15.872175"><ele>300.0</ele><time>2026-04-21T14:19:48.301Z</time></trkpt><trkpt lat="38.0024683" lon="15.872155"><ele>300.0</ele><time>2026-04-21T14:19:49.301Z</time></trkpt><trkpt lat="38.0025267" lon="15.872105"><ele>300.0</ele><time>2026-04-21T14:19:50.301Z</time></trkpt><trkpt lat="38.0025567" lon="15.8720333"><ele>299.99999999999994</ele><time>2026-04-21T14:19:51.3Z</time></trkpt><trkpt lat="38.00258" lon="15.8719517"><ele>300.0</ele><time>2026-04-21T14:19:52.301Z</time></trkpt><trkpt lat="38.0026017" lon="15.87187"><ele>299.71428571428567</ele><time>2026-04-21T14:19:53.301Z</time></trkpt><trkpt lat="38.0026267" lon="15.8717883"><ele>299.42857142857144</ele><time>2026-04-21T14:19:54.301Z</time></trkpt><trkpt lat="38.002655" lon="15.8716967"><ele>299.1428571428571</ele><time>2026-04-21T14:19:55.301Z</time></trkpt><trkpt lat="38.0026817" lon="15.871605"><ele>298.85714285714283</ele><time>2026-04-21T14:19:56.301Z</time></trkpt><trkpt lat="38.002705" lon="15.8715133"><ele>298.57142857142856</ele><time>2026-04-21T14:19:57.301Z</time></trkpt><trkpt lat="38.0027183" lon="15.8714183"><ele>298.2857142857143</ele><time>2026-04-21T14:19:58.301Z</time></trkpt><trkpt lat="38.0027283" lon="15.8713283"><ele>298.0</ele><time>2026-04-21T14:19:59.301Z</time></trkpt><trkpt lat="38.0027267" lon="15.871245"><ele>298.0</ele><time>2026-04-21T14:20:00.301Z</time></trkpt><trkpt lat="38.0026967" lon="15.8711217"><ele>298.0</ele><time>2026-04-21T14:20:02.301Z</time></trkpt><trkpt lat="38.0026367" lon="15.8710667"><ele>298.0</ele><time>2026-04-21T14:20:04.301Z</time></trkpt><trkpt lat="38.0025683" lon="15.8711183"><ele>298.0</ele><time>2026-04-21T14:20:07.301Z</time></trkpt><trkpt lat="38.0025483" lon="15.8712467"><ele>298.0</ele><time>2026-04-21T14:20:09.301Z</time></trkpt><trkpt lat="38.00254" lon="15.87134"><ele>298.0</ele><time>2026-04-21T14:20:10.3Z</time></trkpt><trkpt lat="38.0025167" lon="15.8714333"><ele>295.2</ele><time>2026-04-21T14:20:11.301Z</time></trkpt><trkpt lat="38.0024683" lon="15.8715367"><ele>292.4</ele><time>2026-04-21T14:20:12.301Z</time></trkpt><trkpt lat="38.002415" lon="15.8716167"><ele>289.59999999999997</ele><time>2026-04-21T14:20:13.301Z</time></trkpt><trkpt lat="38.0023417" lon="15.8716733"><ele>286.8</ele><time>2026-04-21T14:20:14.301Z</time></trkpt><trkpt lat="38.0022433" lon="15.871695"><ele>284.0</ele><time>2026-04-21T14:20:15.301Z</time></trkpt><trkpt lat="38.002125" lon="15.8717017"><ele>284.0</ele><time>2026-04-21T14:20:16.301Z</time></trkpt><trkpt lat="38.00202" lon="15.8717217"><ele>284.0</ele><time>2026-04-21T14:20:17.3Z</time></trkpt><trkpt lat="38.0019117" lon="15.87175"><ele>284.0</ele><time>2026-04-21T14:20:18.301Z</time></trkpt><trkpt lat="38.0018067" lon="15.8717767"><ele>284.0</ele><time>2026-04-21T14:20:19.301Z</time></trkpt><trkpt lat="38.0017167" lon="15.8718067"><ele>284.0</ele><time>2026-04-21T14:20:20.301Z</time></trkpt><trkpt lat="38.00164" lon="15.8718467"><ele>283.0</ele><time>2026-04-21T14:20:21.301Z</time></trkpt><trkpt lat="38.0015867" lon="15.8719267"><ele>282.0</ele><time>2026-04-21T14:20:22.301Z</time></trkpt><trkpt lat="38.0015467" lon="15.87203"><ele>281.0</ele><time>2026-04-21T14:20:23.301Z</time></trkpt><trkpt lat="38.0014967" lon="15.872135"><ele>280.0</ele><time>2026-04-21T14:20:24.301Z</time></trkpt><trkpt lat="38.001425" lon="15.8722183"><ele>279.0</ele><time>2026-04-21T14:20:25.301Z</time></trkpt><trkpt lat="38.0013267" lon="15.872275"><ele>279.0</ele><time>2026-04-21T14:20:26.301Z</time></trkpt><trkpt lat="38.0012217" lon="15.872335"><ele>279.0</ele><time>2026-04-21T14:20:27.301Z</time></trkpt><trkpt lat="38.00111" lon="15.8724183"><ele>279.0</ele><time>2026-04-21T14:20:28.301Z</time></trkpt><trkpt lat="38.0010017" lon="15.8725183"><ele>279.0</ele><time>2026-04-21T14:20:29.301Z</time></trkpt><trkpt lat="38.0009017" lon="15.87262"><ele>280.0</ele><time>2026-04-21T14:20:30.301Z</time></trkpt><trkpt lat="38.000805" lon="15.8727133"><ele>281.0</ele><time>2026-04-21T14:20:31.301Z</time></trkpt><trkpt lat="38.0007133" lon="15.8727917"><ele>282.0</ele><time>2026-04-21T14:20:32.301Z</time></trkpt><trkpt lat="38.0006233" lon="15.8728383"><ele>283.0</ele><time>2026-04-21T14:20:33.301Z</time></trkpt><trkpt lat="38.0005217" lon="15.87285"><ele>284.0</ele><time>2026-04-21T14:20:34.301Z</time></trkpt><trkpt lat="38.00041" lon="15.8728417"><ele>284.0</ele><time>2026-04-21T14:20:35.301Z</time></trkpt><trkpt lat="38.0003133" lon="15.872785"><ele>284.0</ele><time>2026-04-21T14:20:36.301Z</time></trkpt><trkpt lat="38.0002217" lon="15.8727667"><ele>284.0</ele><time>2026-04-21T14:20:37.301Z</time></trkpt><trkpt lat="38.0001317" lon="15.872775"><ele>284.0</ele><time>2026-04-21T14:20:38.301Z</time></trkpt><trkpt lat="38.0000367" lon="15.8728333"><ele>284.0</ele><time>2026-04-21T14:20:39.3Z</time></trkpt><trkpt lat="37.999935" lon="15.8729083"><ele>284.0</ele><time>2026-04-21T14:20:40.301Z</time></trkpt><trkpt lat="37.999835" lon="15.8729967"><ele>284.0</ele><time>2026-04-21T14:20:41.301Z</time></trkpt><trkpt lat="37.9997317" lon="15.87308"><ele>284.0</ele><time>2026-04-21T14:20:42.301Z</time></trkpt><trkpt lat="37.9996567" lon="15.87313"><ele>284.0</ele><time>2026-04-21T14:20:43.301Z</time></trkpt><trkpt lat="37.9995733" lon="15.873195"><ele>284.0</ele><time>2026-04-21T14:20:44.301Z</time></trkpt><trkpt lat="37.999485" lon="15.8732833"><ele>284.0</ele><time>2026-04-21T14:20:45.301Z</time></trkpt><trkpt lat="37.9993967" lon="15.87337"><ele>284.0</ele><time>2026-04-21T14:20:46.301Z</time></trkpt><trkpt lat="37.99932" lon="15.8734517"><ele>284.0</ele><time>2026-04-21T14:20:47.301Z</time></trkpt><trkpt lat="37.9992667" lon="15.8735267"><ele>284.0</ele><time>2026-04-21T14:20:48.301Z</time></trkpt><trkpt lat="37.9992" lon="15.8736583"><ele>284.0</ele><time>2026-04-21T14:20:49.301Z</time></trkpt><trkpt lat="37.9991433" lon="15.8737917"><ele>282.4</ele><time>2026-04-21T14:20:50.301Z</time></trkpt><trkpt lat="37.9991033" lon="15.87392"><ele>280.79999999999995</ele><time>2026-04-21T14:20:51.301Z</time></trkpt><trkpt lat="37.9990733" lon="15.87405"><ele>279.20000000000005</ele><time>2026-04-21T14:20:52.301Z</time></trkpt><trkpt lat="37.99905" lon="15.874175"><ele>277.6</ele><time>2026-04-21T14:20:53.301Z</time></trkpt><trkpt lat="37.9990167" lon="15.8742767"><ele>276.0</ele><time>2026-04-21T14:20:54.301Z</time></trkpt><trkpt lat="37.9989833" lon="15.8743567"><ele>276.0</ele><time>2026-04-21T14:20:55.301Z</time></trkpt><trkpt lat="37.9989033" lon="15.8744483"><ele>276.0</ele><time>2026-04-21T14:20:57.3Z</time></trkpt><trkpt lat="37.99881" lon="15.8744733"><ele>276.0</ele><time>2026-04-21T14:20:59.3Z</time></trkpt><trkpt lat="37.9987267" lon="15.8744317"><ele>276.0</ele><time>2026-04-21T14:21:01.301Z</time></trkpt><trkpt lat="37.9986617" lon="15.87432"><ele>276.0</ele><time>2026-04-21T14:21:03.301Z</time></trkpt><trkpt lat="37.9985983" lon="15.87421"><ele>276.0</ele><time>2026-04-21T14:21:05.301Z</time></trkpt><trkpt lat="37.9985483" lon="15.874085"><ele>276.0</ele><time>2026-04-21T14:21:07.301Z</time></trkpt><trkpt lat="37.99849" lon="15.873965"><ele>276.0</ele><time>2026-04-21T14:21:09.3Z</time></trkpt><trkpt lat="37.9984433" lon="15.87385"><ele>276.0</ele><time>2026-04-21T14:21:11.301Z</time></trkpt><trkpt lat="37.9984033" lon="15.8737"><ele>276.0</ele><time>2026-04-21T14:21:13.301Z</time></trkpt><trkpt lat="37.9983733" lon="15.87361"><ele>276.0</ele><time>2026-04-21T14:21:14.301Z</time></trkpt><trkpt lat="37.9983433" lon="15.8735183"><ele>276.0</ele><time>2026-04-21T14:21:15.301Z</time></trkpt><trkpt lat="37.99831" lon="15.8734333"><ele>276.0</ele><time>2026-04-21T14:21:16.301Z</time></trkpt><trkpt lat="37.9982717" lon="15.87335"><ele>276.0</ele><time>2026-04-21T14:21:17.301Z</time></trkpt><trkpt lat="37.9982133" lon="15.8732833"><ele>276.0</ele><time>2026-04-21T14:21:18.301Z</time></trkpt><trkpt lat="37.99814" lon="15.8732467"><ele>276.0</ele><time>2026-04-21T14:21:19.301Z</time></trkpt><trkpt lat="37.9980467" lon="15.87322"><ele>272.2</ele><time>2026-04-21T14:21:20.301Z</time></trkpt><trkpt lat="37.9979417" lon="15.8732133"><ele>268.40000000000003</ele><time>2026-04-21T14:21:21.301Z</time></trkpt><trkpt lat="37.9978417" lon="15.873225"><ele>264.6</ele><time>2026-04-21T14:21:22.301Z</time></trkpt><trkpt lat="37.9977467" lon="15.8732517"><ele>260.8</ele><time>2026-04-21T14:21:23.301Z</time></trkpt><trkpt lat="37.997655" lon="15.8732917"><ele>257.0</ele><time>2026-04-21T14:21:24.301Z</time></trkpt><trkpt lat="37.99756" lon="15.87332"><ele>257.2</ele><time>2026-04-21T14:21:25.301Z</time></trkpt><trkpt lat="37.9974617" lon="15.8733133"><ele>257.4</ele><time>2026-04-21T14:21:26.301Z</time></trkpt><trkpt lat="37.997375" lon="15.8732917"><ele>257.6</ele><time>2026-04-21T14:21:27.301Z</time></trkpt><trkpt lat="37.9972817" lon="15.8732833"><ele>257.8</ele><time>2026-04-21T14:21:28.301Z</time></trkpt><trkpt lat="37.997185" lon="15.873275"><ele>258.0</ele><time>2026-04-21T14:21:29.301Z</time></trkpt><trkpt lat="37.9970883" lon="15.8732483"><ele>258.0</ele><time>2026-04-21T14:21:30.301Z</time></trkpt><trkpt lat="37.997005" lon="15.8731883"><ele>258.0</ele><time>2026-04-21T14:21:31.301Z</time></trkpt><trkpt lat="37.9969033" lon="15.8731433"><ele>258.0</ele><time>2026-04-21T14:21:32.301Z</time></trkpt><trkpt lat="37.9967883" lon="15.8731183"><ele>258.0</ele><time>2026-04-21T14:21:33.301Z</time></trkpt><trkpt lat="37.996675" lon="15.8731"><ele>258.0</ele><time>2026-04-21T14:21:34.3Z</time></trkpt><trkpt lat="37.9965683" lon="15.8730867"><ele>257.4</ele><time>2026-04-21T14:21:35.301Z</time></trkpt><trkpt lat="37.9964683" lon="15.8730783"><ele>256.8</ele><time>2026-04-21T14:21:36.301Z</time></trkpt><trkpt lat="37.9963767" lon="15.8730767"><ele>256.2</ele><time>2026-04-21T14:21:37.3Z</time></trkpt><trkpt lat="37.9962983" lon="15.8730917"><ele>255.6</ele><time>2026-04-21T14:21:38.301Z</time></trkpt><trkpt lat="37.9962217" lon="15.8731783"><ele>255.0</ele><time>2026-04-21T14:21:39.301Z</time></trkpt><trkpt lat="37.9961583" lon="15.87329"><ele>255.0</ele><time>2026-04-21T14:21:40.301Z</time></trkpt><trkpt lat="37.9961067" lon="15.8734167"><ele>255.0</ele><time>2026-04-21T14:21:41.301Z</time></trkpt><trkpt lat="37.9960783" lon="15.8735417"><ele>255.0</ele><time>2026-04-21T14:21:42.301Z</time></trkpt><trkpt lat="37.99605" lon="15.87365"><ele>255.0</ele><time>2026-04-21T14:21:43.301Z</time></trkpt><trkpt lat="37.9960017" lon="15.8737367"><ele>255.0</ele><time>2026-04-21T14:21:44.301Z</time></trkpt><trkpt lat="37.9959483" lon="15.87379"><ele>255.2</ele><time>2026-04-21T14:21:45.301Z</time></trkpt><trkpt lat="37.99588" lon="15.8738033"><ele>255.4</ele><time>2026-04-21T14:21:46.301Z</time></trkpt><trkpt lat="37.9957917" lon="15.87376"><ele>255.60000000000002</ele><time>2026-04-21T14:21:47.301Z</time></trkpt><trkpt lat="37.9956833" lon="15.8736833"><ele>255.8</ele><time>2026-04-21T14:21:48.301Z</time></trkpt><trkpt lat="37.9955783" lon="15.8736233"><ele>256.0</ele><time>2026-04-21T14:21:49.301Z</time></trkpt><trkpt lat="37.99548" lon="15.873585"><ele>256.0</ele><time>2026-04-21T14:21:50.301Z</time></trkpt><trkpt lat="37.9954083" lon="15.873525"><ele>256.0</ele><time>2026-04-21T14:21:51.3Z</time></trkpt><trkpt lat="37.9953067" lon="15.8735533"><ele>256.0</ele><time>2026-04-21T14:21:52.301Z</time></trkpt><trkpt lat="37.9951917" lon="15.873595"><ele>256.0</ele><time>2026-04-21T14:21:53.301Z</time></trkpt><trkpt lat="37.9950767" lon="15.8736117"><ele>256.0</ele><time>2026-04-21T14:21:54.301Z</time></trkpt><trkpt lat="37.9949733" lon="15.8736167"><ele>253.0</ele><time>2026-04-21T14:21:55.3Z</time></trkpt><trkpt lat="37.9948833" lon="15.87365"><ele>250.00000000000003</ele><time>2026-04-21T14:21:56.301Z</time></trkpt><trkpt lat="37.99481" lon="15.8737133"><ele>247.00000000000003</ele><time>2026-04-21T14:21:57.301Z</time></trkpt><trkpt lat="37.9947467" lon="15.8737983"><ele>244.0</ele><time>2026-04-21T14:21:58.301Z</time></trkpt><trkpt lat="37.9946867" lon="15.873895"><ele>241.0</ele><time>2026-04-21T14:21:59.301Z</time></trkpt><trkpt lat="37.994635" lon="15.8739967"><ele>241.0</ele><time>2026-04-21T14:22:00.301Z</time></trkpt><trkpt lat="37.994605" lon="15.8741167"><ele>241.00000000000003</ele><time>2026-04-21T14:22:01.301Z</time></trkpt><trkpt lat="37.9945883" lon="15.874235"><ele>241.00000000000003</ele><time>2026-04-21T14:22:02.301Z</time></trkpt><trkpt lat="37.9945667" lon="15.8743283"><ele>241.0</ele><time>2026-04-21T14:22:03.301Z</time></trkpt><trkpt lat="37.9944817" lon="15.8744"><ele>241.0</ele><time>2026-04-21T14:22:05.301Z</time></trkpt><trkpt lat="37.99437" lon="15.8742933"><ele>241.0</ele><time>2026-04-21T14:22:07.3Z</time></trkpt><trkpt lat="37.9942783" lon="15.8742133"><ele>241.00000000000003</ele><time>2026-04-21T14:22:08.301Z</time></trkpt><trkpt lat="37.9941833" lon="15.8741667"><ele>241.00000000000003</ele><time>2026-04-21T14:22:09.3Z</time></trkpt><trkpt lat="37.994075" lon="15.8741583"><ele>241.0</ele><time>2026-04-21T14:22:10.301Z</time></trkpt><trkpt lat="37.9939733" lon="15.8741433"><ele>241.0</ele><time>2026-04-21T14:22:11.301Z</time></trkpt><trkpt lat="37.9938683" lon="15.8741533"><ele>237.8</ele><time>2026-04-21T14:22:12.301Z</time></trkpt><trkpt lat="37.9937583" lon="15.8741733"><ele>234.60000000000002</ele><time>2026-04-21T14:22:13.301Z</time></trkpt><trkpt lat="37.9936533" lon="15.8741567"><ele>231.4</ele><time>2026-04-21T14:22:14.301Z</time></trkpt><trkpt lat="37.9935633" lon="15.8741083"><ele>228.2</ele><time>2026-04-21T14:22:15.301Z</time></trkpt><trkpt lat="37.9934767" lon="15.8740317"><ele>225.0</ele><time>2026-04-21T14:22:16.301Z</time></trkpt><trkpt lat="37.9933917" lon="15.8739367"><ele>222.5</ele><time>2026-04-21T14:22:17.301Z</time></trkpt><trkpt lat="37.9933033" lon="15.8738417"><ele>220.0</ele><time>2026-04-21T14:22:18.301Z</time></trkpt><trkpt lat="37.9932217" lon="15.87373"><ele>217.5</ele><time>2026-04-21T14:22:19.301Z</time></trkpt><trkpt lat="37.993125" lon="15.8736433"><ele>215.0</ele><time>2026-04-21T14:22:20.301Z</time></trkpt><trkpt lat="37.9930333" lon="15.873545"><ele>214.5</ele><time>2026-04-21T14:22:21.301Z</time></trkpt><trkpt lat="37.9929483" lon="15.8734167"><ele>214.0</ele><time>2026-04-21T14:22:22.301Z</time></trkpt><trkpt lat="37.992855" lon="15.8733267"><ele>213.5</ele><time>2026-04-21T14:22:23.301Z</time></trkpt><trkpt lat="37.9927733" lon="15.8732233"><ele>213.0</ele><time>2026-04-21T14:22:24.301Z</time></trkpt><trkpt lat="37.9927" lon="15.87315"><ele>213.0</ele><time>2026-04-21T14:22:25.301Z</time></trkpt><trkpt lat="37.9926317" lon="15.8730767"><ele>213.0</ele><time>2026-04-21T14:22:26.301Z</time></trkpt><trkpt lat="37.9925733" lon="15.8729983"><ele>213.0</ele><time>2026-04-21T14:22:27.301Z</time></trkpt><trkpt lat="37.9925133" lon="15.8729283"><ele>213.0</ele><time>2026-04-21T14:22:28.301Z</time></trkpt><trkpt lat="37.9924383" lon="15.8728667"><ele>213.0</ele><time>2026-04-21T14:22:29.301Z</time></trkpt><trkpt lat="37.99235" lon="15.872815"><ele>213.0</ele><time>2026-04-21T14:22:30.3Z</time></trkpt><trkpt lat="37.9922517" lon="15.8728183"><ele>212.60000000000002</ele><time>2026-04-21T14:22:31.301Z</time></trkpt><trkpt lat="37.9921483" lon="15.8728433"><ele>212.20000000000002</ele><time>2026-04-21T14:22:32.301Z</time></trkpt><trkpt lat="37.99206" lon="15.8728983"><ele>211.8</ele><time>2026-04-21T14:22:33.301Z</time></trkpt><trkpt lat="37.9919733" lon="15.8729717"><ele>211.4</ele><time>2026-04-21T14:22:34.301Z</time></trkpt><trkpt lat="37.9918983" lon="15.8730683"><ele>211.0</ele><time>2026-04-21T14:22:35.301Z</time></trkpt><trkpt lat="37.9918183" lon="15.8731733"><ele>211.0</ele><time>2026-04-21T14:22:36.301Z</time></trkpt><trkpt lat="37.991755" lon="15.8732733"><ele>211.0</ele><time>2026-04-21T14:22:37.301Z</time></trkpt><trkpt lat="37.9916933" lon="15.8733867"><ele>211.0</ele><time>2026-04-21T14:22:38.301Z</time></trkpt><trkpt lat="37.9916333" lon="15.8735133"><ele>211.0</ele><time>2026-04-21T14:22:39.301Z</time></trkpt><trkpt lat="37.9915583" lon="15.8736283"><ele>211.0</ele><time>2026-04-21T14:22:40.301Z</time></trkpt><trkpt lat="37.9914867" lon="15.8737483"><ele>210.4</ele><time>2026-04-21T14:22:41.301Z</time></trkpt><trkpt lat="37.9914167" lon="15.873865"><ele>209.8</ele><time>2026-04-21T14:22:42.301Z</time></trkpt><trkpt lat="37.9913533" lon="15.8739783"><ele>209.20000000000002</ele><time>2026-04-21T14:22:43.301Z</time></trkpt><trkpt lat="37.9913083" lon="15.8741017"><ele>208.60000000000002</ele><time>2026-04-21T14:22:44.301Z</time></trkpt><trkpt lat="37.9912817" lon="15.8742167"><ele>208.0</ele><time>2026-04-21T14:22:45.3Z</time></trkpt><trkpt lat="37.9912683" lon="15.8743317"><ele>206.99999999999997</ele><time>2026-04-21T14:22:46.301Z</time></trkpt><trkpt lat="37.9912533" lon="15.87444"><ele>206.0</ele><time>2026-04-21T14:22:47.301Z</time></trkpt><trkpt lat="37.9912317" lon="15.8745383"><ele>205.0</ele><time>2026-04-21T14:22:48.301Z</time></trkpt><trkpt lat="37.9911983" lon="15.87461"><ele>204.0</ele><time>2026-04-21T14:22:49.301Z</time></trkpt><trkpt lat="37.991155" lon="15.8746683"><ele>202.99999999999997</ele><time>2026-04-21T14:22:50.301Z</time></trkpt><trkpt lat="37.99109" lon="15.8747333"><ele>202.0</ele><time>2026-04-21T14:22:51.301Z</time></trkpt><trkpt lat="37.991025" lon="15.8747967"><ele>202.0</ele><time>2026-04-21T14:22:52.301Z</time></trkpt><trkpt lat="37.99097" lon="15.8748833"><ele>202.0</ele><time>2026-04-21T14:22:53.301Z</time></trkpt><trkpt lat="37.9909083" lon="15.8749883"><ele>202.0</ele><time>2026-04-21T14:22:54.301Z</time></trkpt><trkpt lat="37.99084" lon="15.87509"><ele>202.0</ele><time>2026-04-21T14:22:55.301Z</time></trkpt><trkpt lat="37.990765" lon="15.8751917"><ele>202.0</ele><time>2026-04-21T14:22:56.301Z</time></trkpt><trkpt lat="37.9906967" lon="15.875305"><ele>202.39999999999998</ele><time>2026-04-21T14:22:57.301Z</time></trkpt><trkpt lat="37.9906417" lon="15.87542"><ele>202.79999999999998</ele><time>2026-04-21T14:22:58.301Z</time></trkpt><trkpt lat="37.9905917" lon="15.8755433"><ele>203.2</ele><time>2026-04-21T14:22:59.301Z</time></trkpt><trkpt lat="37.9905567" lon="15.875665"><ele>203.6</ele><time>2026-04-21T14:23:00.301Z</time></trkpt><trkpt lat="37.9905183" lon="15.8757867"><ele>204.0</ele><time>2026-04-21T14:23:01.301Z</time></trkpt><trkpt lat="37.99047" lon="15.8758883"><ele>202.6</ele><time>2026-04-21T14:23:02.301Z</time></trkpt><trkpt lat="37.990405" lon="15.8759933"><ele>201.2</ele><time>2026-04-21T14:23:03.301Z</time></trkpt><trkpt lat="37.9903217" lon="15.8760717"><ele>199.79999999999998</ele><time>2026-04-21T14:23:04.301Z</time></trkpt><trkpt lat="37.9902317" lon="15.8761367"><ele>198.39999999999998</ele><time>2026-04-21T14:23:05.301Z</time></trkpt><trkpt lat="37.9901433" lon="15.8762167"><ele>197.0</ele><time>2026-04-21T14:23:06.301Z</time></trkpt><trkpt lat="37.990045" lon="15.8762883"><ele>197.6</ele><time>2026-04-21T14:23:07.301Z</time></trkpt><trkpt lat="37.9899483" lon="15.8763583"><ele>198.2</ele><time>2026-04-21T14:23:08.301Z</time></trkpt><trkpt lat="37.9898467" lon="15.8764167"><ele>198.8</ele><time>2026-04-21T14:23:09.301Z</time></trkpt><trkpt lat="37.9897467" lon="15.8764783"><ele>199.4</ele><time>2026-04-21T14:23:10.301Z</time></trkpt><trkpt lat="37.9896517" lon="15.8765583"><ele>200.0</ele><time>2026-04-21T14:23:11.3Z</time></trkpt><trkpt lat="37.9895567" lon="15.8766483"><ele>200.0</ele><time>2026-04-21T14:23:12.301Z</time></trkpt><trkpt lat="37.9894533" lon="15.8767483"><ele>200.0</ele><time>2026-04-21T14:23:13.301Z</time></trkpt><trkpt lat="37.9893583" lon="15.8768583"><ele>200.0</ele><time>2026-04-21T14:23:14.3Z</time></trkpt><trkpt lat="37.989275" lon="15.876975"><ele>200.0</ele><time>2026-04-21T14:23:15.301Z</time></trkpt><trkpt lat="37.9891917" lon="15.8771017"><ele>199.8</ele><time>2026-04-21T14:23:16.301Z</time></trkpt><trkpt lat="37.9891217" lon="15.8772217"><ele>199.6</ele><time>2026-04-21T14:23:17.301Z</time></trkpt><trkpt lat="37.98906" lon="15.87733"><ele>199.39999999999998</ele><time>2026-04-21T14:23:18.3Z</time></trkpt><trkpt lat="37.988995" lon="15.8774217"><ele>199.2</ele><time>2026-04-21T14:23:19.301Z</time></trkpt><trkpt lat="37.9889283" lon="15.8775017"><ele>199.0</ele><time>2026-04-21T14:23:20.301Z</time></trkpt><trkpt lat="37.9888583" lon="15.8775667"><ele>197.2</ele><time>2026-04-21T14:23:21.301Z</time></trkpt><trkpt lat="37.9887833" lon="15.8776333"><ele>195.39999999999998</ele><time>2026-04-21T14:23:22.3Z</time></trkpt><trkpt lat="37.9887217" lon="15.8777067"><ele>193.6</ele><time>2026-04-21T14:23:23.301Z</time></trkpt><trkpt lat="37.988665" lon="15.8778"><ele>191.8</ele><time>2026-04-21T14:23:24.301Z</time></trkpt><trkpt lat="37.9886167" lon="15.8779133"><ele>190.0</ele><time>2026-04-21T14:23:25.301Z</time></trkpt><trkpt lat="37.9885983" lon="15.878045"><ele>190.0</ele><time>2026-04-21T14:23:26.301Z</time></trkpt><trkpt lat="37.9885917" lon="15.8781783"><ele>190.0</ele><time>2026-04-21T14:23:27.301Z</time></trkpt><trkpt lat="37.988605" lon="15.8783017"><ele>190.0</ele><time>2026-04-21T14:23:28.301Z</time></trkpt><trkpt lat="37.9886217" lon="15.8784167"><ele>190.0</ele><time>2026-04-21T14:23:29.301Z</time></trkpt><trkpt lat="37.9886217" lon="15.87852"><ele>190.0</ele><time>2026-04-21T14:23:30.301Z</time></trkpt><trkpt lat="37.9886083" lon="15.8785983"><ele>190.0</ele><time>2026-04-21T14:23:31.301Z</time></trkpt><trkpt lat="37.9885183" lon="15.8786617"><ele>188.8</ele><time>2026-04-21T14:23:33.301Z</time></trkpt><trkpt lat="37.9884" lon="15.878565"><ele>187.6</ele><time>2026-04-21T14:23:35.301Z</time></trkpt><trkpt lat="37.9883383" lon="15.8784817"><ele>186.39999999999998</ele><time>2026-04-21T14:23:36.301Z</time></trkpt><trkpt lat="37.98828" lon="15.8784083"><ele>185.2</ele><time>2026-04-21T14:23:37.3Z</time></trkpt><trkpt lat="37.9882033" lon="15.87836"><ele>184.0</ele><time>2026-04-21T14:23:38.301Z</time></trkpt><trkpt lat="37.9881233" lon="15.87834"><ele>187.66666666666669</ele><time>2026-04-21T14:23:39.301Z</time></trkpt><trkpt lat="37.9880433" lon="15.8783567"><ele>191.33333333333334</ele><time>2026-04-21T14:23:40.301Z</time></trkpt><trkpt lat="37.987955" lon="15.87838"><ele>195.0</ele><time>2026-04-21T14:23:41.301Z</time></trkpt><trkpt lat="37.9878717" lon="15.8784033"><ele>198.66666666666669</ele><time>2026-04-21T14:23:42.301Z</time></trkpt><trkpt lat="37.98778" lon="15.8784117"><ele>202.33333333333334</ele><time>2026-04-21T14:23:43.3Z</time></trkpt><trkpt lat="37.98769" lon="15.878395"><ele>206.0</ele><time>2026-04-21T14:23:44.301Z</time></trkpt><trkpt lat="37.9876033" lon="15.8783783"><ele>206.0</ele><time>2026-04-21T14:23:45.301Z</time></trkpt><trkpt lat="37.987515" lon="15.8783617"><ele>206.0</ele><time>2026-04-21T14:23:46.301Z</time></trkpt><trkpt lat="37.98743" lon="15.8783567"><ele>206.0</ele><time>2026-04-21T14:23:47.301Z</time></trkpt><trkpt lat="37.9873383" lon="15.8783583"><ele>206.0</ele><time>2026-04-21T14:23:48.301Z</time></trkpt><trkpt lat="37.9872433" lon="15.8783533"><ele>206.0</ele><time>2026-04-21T14:23:49.301Z</time></trkpt><trkpt lat="37.98715" lon="15.8783417"><ele>204.4</ele><time>2026-04-21T14:23:50.301Z</time></trkpt><trkpt lat="37.9870617" lon="15.8783233"><ele>202.8</ele><time>2026-04-21T14:23:51.301Z</time></trkpt><trkpt lat="37.9869783" lon="15.8783083"><ele>201.20000000000002</ele><time>2026-04-21T14:23:52.301Z</time></trkpt><trkpt lat="37.9869133" lon="15.87832"><ele>199.60000000000002</ele><time>2026-04-21T14:23:53.301Z</time></trkpt><trkpt lat="37.9868033" lon="15.8784267"><ele>198.0</ele><time>2026-04-21T14:23:55.301Z</time></trkpt><trkpt lat="37.9867383" lon="15.8785167"><ele>196.16666666666666</ele><time>2026-04-21T14:23:56.301Z</time></trkpt><trkpt lat="37.9866783" lon="15.878605"><ele>194.33333333333334</ele><time>2026-04-21T14:23:57.301Z</time></trkpt><trkpt lat="37.9866233" lon="15.8786983"><ele>192.5</ele><time>2026-04-21T14:23:58.3Z</time></trkpt><trkpt lat="37.98657" lon="15.8787717"><ele>190.66666666666669</ele><time>2026-04-21T14:23:59.301Z</time></trkpt><trkpt lat="37.9865183" lon="15.8788467"><ele>188.83333333333334</ele><time>2026-04-21T14:24:00.301Z</time></trkpt><trkpt lat="37.9864683" lon="15.8789033"><ele>187.0</ele><time>2026-04-21T14:24:01.301Z</time></trkpt><trkpt lat="37.9864233" lon="15.87896"><ele>187.0</ele><time>2026-04-21T14:24:02.301Z</time></trkpt><trkpt lat="37.986385" lon="15.879025"><ele>187.0</ele><time>2026-04-21T14:24:03.301Z</time></trkpt><trkpt lat="37.986355" lon="15.8791633"><ele>187.0</ele><time>2026-04-21T14:24:05.301Z</time></trkpt><trkpt lat="37.9864" lon="15.8793183"><ele>187.0</ele><time>2026-04-21T14:24:07.301Z</time></trkpt><trkpt lat="37.9864283" lon="15.879405"><ele>187.0</ele><time>2026-04-21T14:24:08.301Z</time></trkpt><trkpt lat="37.9864433" lon="15.879495"><ele>186.16666666666669</ele><time>2026-04-21T14:24:09.301Z</time></trkpt><trkpt lat="37.986445" lon="15.8795967"><ele>185.33333333333334</ele><time>2026-04-21T14:24:10.301Z</time></trkpt><trkpt lat="37.986435" lon="15.8796967"><ele>184.5</ele><time>2026-04-21T14:24:11.301Z</time></trkpt><trkpt lat="37.986425" lon="15.8797967"><ele>183.66666666666666</ele><time>2026-04-21T14:24:12.301Z</time></trkpt><trkpt lat="37.98641" lon="15.879895"><ele>182.83333333333331</ele><time>2026-04-21T14:24:13.301Z</time></trkpt><trkpt lat="37.9863983" lon="15.8799983"><ele>182.0</ele><time>2026-04-21T14:24:14.3Z</time></trkpt><trkpt lat="37.986385" lon="15.8800883"><ele>180.83333333333331</ele><time>2026-04-21T14:24:15.301Z</time></trkpt><trkpt lat="37.9863617" lon="15.880175"><ele>179.66666666666666</ele><time>2026-04-21T14:24:16.301Z</time></trkpt><trkpt lat="37.9863217" lon="15.880265"><ele>178.5</ele><time>2026-04-21T14:24:17.301Z</time></trkpt><trkpt lat="37.9862783" lon="15.8803417"><ele>177.33333333333334</ele><time>2026-04-21T14:24:18.301Z</time></trkpt><trkpt lat="37.9862217" lon="15.8804233"><ele>176.16666666666669</ele><time>2026-04-21T14:24:19.301Z</time></trkpt><trkpt lat="37.9861533" lon="15.8804933"><ele>175.0</ele><time>2026-04-21T14:24:20.301Z</time></trkpt><trkpt lat="37.98608" lon="15.8805683"><ele>175.0</ele><time>2026-04-21T14:24:21.301Z</time></trkpt><trkpt lat="37.9859967" lon="15.8806417"><ele>175.0</ele><time>2026-04-21T14:24:22.301Z</time></trkpt><trkpt lat="37.98593" lon="15.8807083"><ele>175.0</ele><time>2026-04-21T14:24:23.301Z</time></trkpt><trkpt lat="37.9858733" lon="15.88078"><ele>175.0</ele><time>2026-04-21T14:24:24.301Z</time></trkpt><trkpt lat="37.985815" lon="15.8808483"><ele>175.0</ele><time>2026-04-21T14:24:25.301Z</time></trkpt><trkpt lat="37.985765" lon="15.88091"><ele>175.0</ele><time>2026-04-21T14:24:26.301Z</time></trkpt><trkpt lat="37.9857233" lon="15.88097"><ele>174.71428571428572</ele><time>2026-04-21T14:24:27.3Z</time></trkpt><trkpt lat="37.98569" lon="15.88104"><ele>174.42857142857144</ele><time>2026-04-21T14:24:28.301Z</time></trkpt><trkpt lat="37.9856567" lon="15.8811167"><ele>174.14285714285714</ele><time>2026-04-21T14:24:29.301Z</time></trkpt><trkpt lat="37.9856233" lon="15.8811917"><ele>173.85714285714286</ele><time>2026-04-21T14:24:30.301Z</time></trkpt><trkpt lat="37.9855817" lon="15.8812667"><ele>173.57142857142858</ele><time>2026-04-21T14:24:31.3Z</time></trkpt><trkpt lat="37.9855383" lon="15.881345"><ele>173.28571428571428</ele><time>2026-04-21T14:24:32.301Z</time></trkpt><trkpt lat="37.985495" lon="15.88142"><ele>173.0</ele><time>2026-04-21T14:24:33.301Z</time></trkpt><trkpt lat="37.9854583" lon="15.8815133"><ele>173.0</ele><time>2026-04-21T14:24:34.301Z</time></trkpt><trkpt lat="37.9854233" lon="15.8816033"><ele>173.0</ele><time>2026-04-21T14:24:35.301Z</time></trkpt><trkpt lat="37.985395" lon="15.88169"><ele>173.0</ele><time>2026-04-21T14:24:36.301Z</time></trkpt><trkpt lat="37.9853417" lon="15.8817667"><ele>173.0</ele><time>2026-04-21T14:24:37.301Z</time></trkpt><trkpt lat="37.98528" lon="15.8818183"><ele>173.0</ele><time>2026-04-21T14:24:38.301Z</time></trkpt><trkpt lat="37.9852033" lon="15.881835"><ele>173.0</ele><time>2026-04-21T14:24:39.301Z</time></trkpt><trkpt lat="37.9851283" lon="15.8818283"><ele>173.0</ele><time>2026-04-21T14:24:40.301Z</time></trkpt><trkpt lat="37.9850667" lon="15.881795"><ele>173.0</ele><time>2026-04-21T14:24:41.301Z</time></trkpt><trkpt lat="37.9850233" lon="15.8817283"><ele>173.0</ele><time>2026-04-21T14:24:42.301Z</time></trkpt><trkpt lat="37.9849817" lon="15.8816483"><ele>173.0</ele><time>2026-04-21T14:24:43.301Z</time></trkpt><trkpt lat="37.984945" lon="15.8815617"><ele>173.0</ele><time>2026-04-21T14:24:44.301Z</time></trkpt><trkpt lat="37.9848967" lon="15.881465"><ele>173.0</ele><time>2026-04-21T14:24:45.301Z</time></trkpt><trkpt lat="37.98484" lon="15.8813717"><ele>175.75</ele><time>2026-04-21T14:24:46.301Z</time></trkpt><trkpt lat="37.98476" lon="15.8812933"><ele>178.5</ele><time>2026-04-21T14:24:47.301Z</time></trkpt><trkpt lat="37.9846517" lon="15.88126"><ele>181.25</ele><time>2026-04-21T14:24:48.301Z</time></trkpt><trkpt lat="37.98454" lon="15.88127"><ele>184.0</ele><time>2026-04-21T14:24:49.301Z</time></trkpt><trkpt lat="37.9843967" lon="15.8813083"><ele>184.0</ele><time>2026-04-21T14:24:50.301Z</time></trkpt><trkpt lat="37.9842383" lon="15.8813567"><ele>184.0</ele><time>2026-04-21T14:24:51.301Z</time></trkpt><trkpt lat="37.984095" lon="15.8813933"><ele>184.0</ele><time>2026-04-21T14:24:52.301Z</time></trkpt><trkpt lat="37.9839667" lon="15.8813967"><ele>184.0</ele><time>2026-04-21T14:24:53.301Z</time></trkpt><trkpt lat="37.9838717" lon="15.8813667"><ele>182.5</ele><time>2026-04-21T14:24:54.301Z</time></trkpt><trkpt lat="37.983805" lon="15.8813033"><ele>181.0</ele><time>2026-04-21T14:24:55.301Z</time></trkpt><trkpt lat="37.9837583" lon="15.881225"><ele>179.5</ele><time>2026-04-21T14:24:56.301Z</time></trkpt><trkpt lat="37.98372" lon="15.881115"><ele>178.0</ele><time>2026-04-21T14:24:57.301Z</time></trkpt><trkpt lat="37.98369" lon="15.8810017"><ele>176.5</ele><time>2026-04-21T14:24:58.301Z</time></trkpt><trkpt lat="37.9836833" lon="15.8808883"><ele>175.0</ele><time>2026-04-21T14:24:59.301Z</time></trkpt><trkpt lat="37.983695" lon="15.8807767"><ele>179.33333333333334</ele><time>2026-04-21T14:25:00.301Z</time></trkpt><trkpt lat="37.983725" lon="15.8806717"><ele>183.66666666666669</ele><time>2026-04-21T14:25:01.3Z</time></trkpt><trkpt lat="37.9837433" lon="15.8805683"><ele>188.0</ele><time>2026-04-21T14:25:02.301Z</time></trkpt><trkpt lat="37.9837483" lon="15.8804767"><ele>192.33333333333334</ele><time>2026-04-21T14:25:03.301Z</time></trkpt><trkpt lat="37.9837167" lon="15.880385"><ele>196.66666666666666</ele><time>2026-04-21T14:25:04.3Z</time></trkpt><trkpt lat="37.9836517" lon="15.8802917"><ele>201.0</ele><time>2026-04-21T14:25:05.301Z</time></trkpt><trkpt lat="37.983565" lon="15.880215"><ele>201.0</ele><time>2026-04-21T14:25:06.301Z</time></trkpt><trkpt lat="37.9834617" lon="15.8801633"><ele>201.0</ele><time>2026-04-21T14:25:07.301Z</time></trkpt><trkpt lat="37.9833283" lon="15.8801733"><ele>201.0</ele><time>2026-04-21T14:25:08.301Z</time></trkpt><trkpt lat="37.9831917" lon="15.88021"><ele>201.0</ele><time>2026-04-21T14:25:09.301Z</time></trkpt><trkpt lat="37.9830633" lon="15.8802167"><ele>194.8</ele><time>2026-04-21T14:25:10.301Z</time></trkpt><trkpt lat="37.9829433" lon="15.88023"><ele>188.60000000000002</ele><time>2026-04-21T14:25:11.301Z</time></trkpt><trkpt lat="37.9828283" lon="15.8802467"><ele>182.4</ele><time>2026-04-21T14:25:12.301Z</time></trkpt><trkpt lat="37.9827233" lon="15.8802583"><ele>176.2</ele><time>2026-04-21T14:25:13.301Z</time></trkpt><trkpt lat="37.9826183" lon="15.880265"><ele>170.0</ele><time>2026-04-21T14:25:14.301Z</time></trkpt><trkpt lat="37.9825233" lon="15.8802867"><ele>170.4</ele><time>2026-04-21T14:25:15.301Z</time></trkpt><trkpt lat="37.982445" lon="15.8803283"><ele>170.8</ele><time>2026-04-21T14:25:16.3Z</time></trkpt><trkpt lat="37.982375" lon="15.8803883"><ele>171.2</ele><time>2026-04-21T14:25:17.301Z</time></trkpt><trkpt lat="37.9823217" lon="15.8804783"><ele>171.6</ele><time>2026-04-21T14:25:18.301Z</time></trkpt><trkpt lat="37.982295" lon="15.8805933"><ele>172.0</ele><time>2026-04-21T14:25:19.301Z</time></trkpt><trkpt lat="37.9822967" lon="15.880765"><ele>169.5</ele><time>2026-04-21T14:25:20.301Z</time></trkpt><trkpt lat="37.9822983" lon="15.8809383"><ele>167.0</ele><time>2026-04-21T14:25:21.301Z</time></trkpt><trkpt lat="37.9822917" lon="15.8810883"><ele>164.5</ele><time>2026-04-21T14:25:22.301Z</time></trkpt><trkpt lat="37.9822917" lon="15.8812333"><ele>162.0</ele><time>2026-04-21T14:25:23.301Z</time></trkpt><trkpt lat="37.9822967" lon="15.8813717"><ele>162.0</ele><time>2026-04-21T14:25:24.301Z</time></trkpt><trkpt lat="37.98232" lon="15.881495"><ele>162.0</ele><time>2026-04-21T14:25:25.301Z</time></trkpt><trkpt lat="37.98235" lon="15.88161"><ele>162.0</ele><time>2026-04-21T14:25:26.301Z</time></trkpt><trkpt lat="37.9823617" lon="15.88173"><ele>162.0</ele><time>2026-04-21T14:25:27.301Z</time></trkpt><trkpt lat="37.9823433" lon="15.8818417"><ele>162.0</ele><time>2026-04-21T14:25:28.301Z</time></trkpt><trkpt lat="37.9823067" lon="15.881955"><ele>161.0</ele><time>2026-04-21T14:25:29.301Z</time></trkpt><trkpt lat="37.9822517" lon="15.8820483"><ele>160.0</ele><time>2026-04-21T14:25:30.301Z</time></trkpt><trkpt lat="37.9821917" lon="15.88211"><ele>159.0</ele><time>2026-04-21T14:25:31.301Z</time></trkpt><trkpt lat="37.98213" lon="15.8821267"><ele>158.0</ele><time>2026-04-21T14:25:32.301Z</time></trkpt><trkpt lat="37.9820583" lon="15.8821033"><ele>157.0</ele><time>2026-04-21T14:25:33.301Z</time></trkpt><trkpt lat="37.98198" lon="15.88202"><ele>156.0</ele><time>2026-04-21T14:25:34.301Z</time></trkpt><trkpt lat="37.9819" lon="15.8818933"><ele>156.0</ele><time>2026-04-21T14:25:35.301Z</time></trkpt><trkpt lat="37.9818083" lon="15.8817667"><ele>156.0</ele><time>2026-04-21T14:25:36.301Z</time></trkpt><trkpt lat="37.9817233" lon="15.8816783"><ele>156.0</ele><time>2026-04-21T14:25:37.3Z</time></trkpt><trkpt lat="37.98164" lon="15.88165"><ele>156.0</ele><time>2026-04-21T14:25:38.301Z</time></trkpt><trkpt lat="37.9815633" lon="15.881665"><ele>156.0</ele><time>2026-04-21T14:25:39.301Z</time></trkpt><trkpt lat="37.98151" lon="15.88172"><ele>156.8</ele><time>2026-04-21T14:25:40.301Z</time></trkpt><trkpt lat="37.98147" lon="15.8818083"><ele>157.6</ele><time>2026-04-21T14:25:41.301Z</time></trkpt><trkpt lat="37.98145" lon="15.8819317"><ele>158.4</ele><time>2026-04-21T14:25:42.301Z</time></trkpt><trkpt lat="37.981445" lon="15.882085"><ele>159.2</ele><time>2026-04-21T14:25:43.301Z</time></trkpt><trkpt lat="37.9814683" lon="15.882255"><ele>160.0</ele><time>2026-04-21T14:25:44.301Z</time></trkpt><trkpt lat="37.9814883" lon="15.882405"><ele>160.0</ele><time>2026-04-21T14:25:45.301Z</time></trkpt><trkpt lat="37.9815067" lon="15.8825467"><ele>160.0</ele><time>2026-04-21T14:25:46.301Z</time></trkpt><trkpt lat="37.9815117" lon="15.8826783"><ele>160.0</ele><time>2026-04-21T14:25:47.301Z</time></trkpt><trkpt lat="37.9814933" lon="15.8827867"><ele>160.0</ele><time>2026-04-21T14:25:48.301Z</time></trkpt><trkpt lat="37.981465" lon="15.8828833"><ele>160.0</ele><time>2026-04-21T14:25:49.301Z</time></trkpt><trkpt lat="37.9814267" lon="15.88297"><ele>159.5</ele><time>2026-04-21T14:25:50.301Z</time></trkpt><trkpt lat="37.9813633" lon="15.8830383"><ele>159.0</ele><time>2026-04-21T14:25:51.301Z</time></trkpt><trkpt lat="37.981295" lon="15.8830733"><ele>158.5</ele><time>2026-04-21T14:25:52.3Z</time></trkpt><trkpt lat="37.98122" lon="15.8830733"><ele>158.0</ele><time>2026-04-21T14:25:53.301Z</time></trkpt><trkpt lat="37.981125" lon="15.883025"><ele>157.5</ele><time>2026-04-21T14:25:54.301Z</time></trkpt><trkpt lat="37.981035" lon="15.882965"><ele>157.0</ele><time>2026-04-21T14:25:55.301Z</time></trkpt><trkpt lat="37.9809583" lon="15.8829267"><ele>157.0</ele><time>2026-04-21T14:25:56.301Z</time></trkpt><trkpt lat="37.98089" lon="15.8828967"><ele>157.0</ele><time>2026-04-21T14:25:57.301Z</time></trkpt><trkpt lat="37.9808217" lon="15.8828783"><ele>157.0</ele><time>2026-04-21T14:25:58.301Z</time></trkpt><trkpt lat="37.9807567" lon="15.8828633"><ele>157.0</ele><time>2026-04-21T14:25:59.301Z</time></trkpt><trkpt lat="37.98065" lon="15.8828383"><ele>157.0</ele><time>2026-04-21T14:26:01.301Z</time></trkpt><trkpt lat="37.9805517" lon="15.8828033"><ele>157.0</ele><time>2026-04-21T14:26:03.301Z</time></trkpt><trkpt lat="37.9804833" lon="15.8827867"><ele>156.0</ele><time>2026-04-21T14:26:04.301Z</time></trkpt><trkpt lat="37.9804067" lon="15.88278"><ele>155.0</ele><time>2026-04-21T14:26:05.301Z</time></trkpt><trkpt lat="37.9803367" lon="15.88277"><ele>154.0</ele><time>2026-04-21T14:26:06.301Z</time></trkpt><trkpt lat="37.9802733" lon="15.8827617"><ele>153.0</ele><time>2026-04-21T14:26:07.301Z</time></trkpt><trkpt lat="37.9801617" lon="15.8827117"><ele>152.0</ele><time>2026-04-21T14:26:09.301Z</time></trkpt><trkpt lat="37.9801017" lon="15.8826767"><ele>151.0</ele><time>2026-04-21T14:26:10.301Z</time></trkpt><trkpt lat="37.980045" lon="15.8826333"><ele>150.83333333333334</ele><time>2026-04-21T14:26:11.301Z</time></trkpt><trkpt lat="37.9799833" lon="15.8825867"><ele>150.66666666666669</ele><time>2026-04-21T14:26:12.301Z</time></trkpt><trkpt lat="37.9799183" lon="15.882525"><ele>150.5</ele><time>2026-04-21T14:26:13.3Z</time></trkpt><trkpt lat="37.9798533" lon="15.88247"><ele>150.33333333333334</ele><time>2026-04-21T14:26:14.301Z</time></trkpt><trkpt lat="37.9797883" lon="15.882415"><ele>150.16666666666666</ele><time>2026-04-21T14:26:15.301Z</time></trkpt><trkpt lat="37.9797183" lon="15.8823617"><ele>150.0</ele><time>2026-04-21T14:26:16.301Z</time></trkpt><trkpt lat="37.9796533" lon="15.8823117"><ele>150.0</ele><time>2026-04-21T14:26:17.301Z</time></trkpt><trkpt lat="37.9795933" lon="15.882265"><ele>150.0</ele><time>2026-04-21T14:26:18.301Z</time></trkpt><trkpt lat="37.9795367" lon="15.8822183"><ele>150.0</ele><time>2026-04-21T14:26:19.301Z</time></trkpt><trkpt lat="37.97948" lon="15.8821717"><ele>150.0</ele><time>2026-04-21T14:26:20.301Z</time></trkpt><trkpt lat="37.979375" lon="15.8820867"><ele>150.0</ele><time>2026-04-21T14:26:22.301Z</time></trkpt><trkpt lat="37.97928" lon="15.882015"><ele>150.0</ele><time>2026-04-21T14:26:24.301Z</time></trkpt><trkpt lat="37.9791833" lon="15.88195"><ele>147.75</ele><time>2026-04-21T14:26:26.301Z</time></trkpt><trkpt lat="37.97907" lon="15.88194"><ele>145.5</ele><time>2026-04-21T14:26:28.301Z</time></trkpt><trkpt lat="37.9789567" lon="15.881985"><ele>143.25</ele><time>2026-04-21T14:26:30.301Z</time></trkpt><trkpt lat="37.97885" lon="15.882065"><ele>141.0</ele><time>2026-04-21T14:26:32.301Z</time></trkpt><trkpt lat="37.9787567" lon="15.8821367"><ele>141.0</ele><time>2026-04-21T14:26:34.301Z</time></trkpt><trkpt lat="37.9787033" lon="15.8821817"><ele>141.0</ele><time>2026-04-21T14:26:35.301Z</time></trkpt><trkpt lat="37.9786183" lon="15.882245"><ele>141.0</ele><time>2026-04-21T14:26:37.301Z</time></trkpt><trkpt lat="37.9785383" lon="15.8823067"><ele>141.0</ele><time>2026-04-21T14:26:39.301Z</time></trkpt><trkpt lat="37.9784567" lon="15.8823833"><ele>141.0</ele><time>2026-04-21T14:26:41.301Z</time></trkpt><trkpt lat="37.9783783" lon="15.8824933"><ele>140.5</ele><time>2026-04-21T14:26:43.301Z</time></trkpt><trkpt lat="37.9783633" lon="15.8826417"><ele>140.0</ele><time>2026-04-21T14:26:45.301Z</time></trkpt><trkpt lat="37.9783767" lon="15.8827283"><ele>139.5</ele><time>2026-04-21T14:26:46.301Z</time></trkpt><trkpt lat="37.9783967" lon="15.8828233"><ele>139.0</ele><time>2026-04-21T14:26:47.301Z</time></trkpt><trkpt lat="37.9784233" lon="15.882915"><ele>138.5</ele><time>2026-04-21T14:26:48.301Z</time></trkpt><trkpt lat="37.978455" lon="15.8830083"><ele>138.0</ele><time>2026-04-21T14:26:49.301Z</time></trkpt><trkpt lat="37.9784933" lon="15.8830967"><ele>138.0</ele><time>2026-04-21T14:26:50.301Z</time></trkpt><trkpt lat="37.9785217" lon="15.8831833"><ele>138.0</ele><time>2026-04-21T14:26:51.3Z</time></trkpt><trkpt lat="37.9785483" lon="15.8832717"><ele>138.0</ele><time>2026-04-21T14:26:52.301Z</time></trkpt><trkpt lat="37.97857" lon="15.8833633"><ele>138.0</ele><time>2026-04-21T14:26:53.301Z</time></trkpt><trkpt lat="37.9785867" lon="15.883455"><ele>138.0</ele><time>2026-04-21T14:26:54.301Z</time></trkpt><trkpt lat="37.9786067" lon="15.8835467"><ele>138.0</ele><time>2026-04-21T14:26:55.301Z</time></trkpt><trkpt lat="37.9786283" lon="15.8836283"><ele>138.0</ele><time>2026-04-21T14:26:56.301Z</time></trkpt><trkpt lat="37.9786667" lon="15.88373"><ele>137.8</ele><time>2026-04-21T14:26:57.301Z</time></trkpt><trkpt lat="37.978705" lon="15.8838267"><ele>137.60000000000002</ele><time>2026-04-21T14:26:58.301Z</time></trkpt><trkpt lat="37.9787533" lon="15.8839233"><ele>137.39999999999998</ele><time>2026-04-21T14:26:59.301Z</time></trkpt><trkpt lat="37.9788" lon="15.884025"><ele>137.2</ele><time>2026-04-21T14:27:00.301Z</time></trkpt><trkpt lat="37.9788633" lon="15.8841167"><ele>137.0</ele><time>2026-04-21T14:27:01.301Z</time></trkpt><trkpt lat="37.9789267" lon="15.88421"><ele>137.0</ele><time>2026-04-21T14:27:02.301Z</time></trkpt><trkpt lat="37.9789833" lon="15.8843"><ele>137.0</ele><time>2026-04-21T14:27:03.301Z</time></trkpt><trkpt lat="37.97904" lon="15.8843917"><ele>137.0</ele><time>2026-04-21T14:27:04.301Z</time></trkpt><trkpt lat="37.9791017" lon="15.884475"><ele>137.0</ele><time>2026-04-21T14:27:05.301Z</time></trkpt><trkpt lat="37.9791583" lon="15.88457"><ele>137.0</ele><time>2026-04-21T14:27:06.301Z</time></trkpt><trkpt lat="37.97922" lon="15.8846617"><ele>136.16666666666666</ele><time>2026-04-21T14:27:07.301Z</time></trkpt><trkpt lat="37.97929" lon="15.88475"><ele>135.33333333333331</ele><time>2026-04-21T14:27:08.301Z</time></trkpt><trkpt lat="37.9793433" lon="15.88485"><ele>134.5</ele><time>2026-04-21T14:27:09.3Z</time></trkpt><trkpt lat="37.9793717" lon="15.8849467"><ele>133.66666666666666</ele><time>2026-04-21T14:27:10.3Z</time></trkpt><trkpt lat="37.97938" lon="15.885045"><ele>132.83333333333334</ele><time>2026-04-21T14:27:11.301Z</time></trkpt><trkpt lat="37.979355" lon="15.8851483"><ele>132.0</ele><time>2026-04-21T14:27:12.301Z</time></trkpt><trkpt lat="37.9793067" lon="15.88526"><ele>132.25</ele><time>2026-04-21T14:27:13.301Z</time></trkpt><trkpt lat="37.9792333" lon="15.8853767"><ele>132.5</ele><time>2026-04-21T14:27:14.301Z</time></trkpt><trkpt lat="37.97916" lon="15.8855017"><ele>132.75</ele><time>2026-04-21T14:27:15.301Z</time></trkpt><trkpt lat="37.9790833" lon="15.885615"><ele>133.0</ele><time>2026-04-21T14:27:16.301Z</time></trkpt><trkpt lat="37.9790117" lon="15.8857133"><ele>133.0</ele><time>2026-04-21T14:27:17.301Z</time></trkpt><trkpt lat="37.9789317" lon="15.88579"><ele>133.0</ele><time>2026-04-21T14:27:18.301Z</time></trkpt><trkpt lat="37.9788367" lon="15.88583"><ele>133.0</ele><time>2026-04-21T14:27:19.301Z</time></trkpt><trkpt lat="37.9787317" lon="15.88584"><ele>133.0</ele><time>2026-04-21T14:27:20.301Z</time></trkpt><trkpt lat="37.9786233" lon="15.8858183"><ele>133.0</ele><time>2026-04-21T14:27:21.301Z</time></trkpt><trkpt lat="37.9785067" lon="15.8857667"><ele>133.0</ele><time>2026-04-21T14:27:22.3Z</time></trkpt><trkpt lat="37.978385" lon="15.8857383"><ele>133.0</ele><time>2026-04-21T14:27:23.301Z</time></trkpt><trkpt lat="37.97826" lon="15.8857433"><ele>133.0</ele><time>2026-04-21T14:27:24.301Z</time></trkpt><trkpt lat="37.978145" lon="15.8858017"><ele>133.0</ele><time>2026-04-21T14:27:25.301Z</time></trkpt><trkpt lat="37.9780467" lon="15.885895"><ele>131.0</ele><time>2026-04-21T14:27:26.301Z</time></trkpt><trkpt lat="37.9779433" lon="15.88598"><ele>129.0</ele><time>2026-04-21T14:27:27.301Z</time></trkpt><trkpt lat="37.9778317" lon="15.88604"><ele>127.0</ele><time>2026-04-21T14:27:28.301Z</time></trkpt><trkpt lat="37.9777117" lon="15.8860633"><ele>125.0</ele><time>2026-04-21T14:27:29.301Z</time></trkpt><trkpt lat="37.9775783" lon="15.8860817"><ele>126.0</ele><time>2026-04-21T14:27:30.301Z</time></trkpt><trkpt lat="37.9774483" lon="15.8860833"><ele>127.0</ele><time>2026-04-21T14:27:31.3Z</time></trkpt><trkpt lat="37.977325" lon="15.8860783"><ele>128.0</ele><time>2026-04-21T14:27:32.3Z</time></trkpt><trkpt lat="37.9772133" lon="15.8860667"><ele>129.0</ele><time>2026-04-21T14:27:33.301Z</time></trkpt><trkpt lat="37.9771067" lon="15.8860183"><ele>129.0</ele><time>2026-04-21T14:27:34.301Z</time></trkpt><trkpt lat="37.9770067" lon="15.885945"><ele>129.0</ele><time>2026-04-21T14:27:35.301Z</time></trkpt><trkpt lat="37.9769067" lon="15.8858633"><ele>129.0</ele><time>2026-04-21T14:27:36.301Z</time></trkpt><trkpt lat="37.9767967" lon="15.8858183"><ele>129.0</ele><time>2026-04-21T14:27:37.301Z</time></trkpt><trkpt lat="37.9766583" lon="15.8858233"><ele>127.5</ele><time>2026-04-21T14:27:38.301Z</time></trkpt><trkpt lat="37.97653" lon="15.8858533"><ele>126.0</ele><time>2026-04-21T14:27:39.301Z</time></trkpt><trkpt lat="37.9764017" lon="15.8859317"><ele>124.5</ele><time>2026-04-21T14:27:40.301Z</time></trkpt><trkpt lat="37.976285" lon="15.88603"><ele>123.0</ele><time>2026-04-21T14:27:41.3Z</time></trkpt><trkpt lat="37.97618" lon="15.886135"><ele>123.0</ele><time>2026-04-21T14:27:42.301Z</time></trkpt><trkpt lat="37.97609" lon="15.88626"><ele>123.0</ele><time>2026-04-21T14:27:43.301Z</time></trkpt><trkpt lat="37.9760117" lon="15.8863867"><ele>123.0</ele><time>2026-04-21T14:27:44.301Z</time></trkpt><trkpt lat="37.975935" lon="15.8864867"><ele>123.0</ele><time>2026-04-21T14:27:45.3Z</time></trkpt><trkpt lat="37.9758433" lon="15.886565"><ele>124.2</ele><time>2026-04-21T14:27:46.301Z</time></trkpt><trkpt lat="37.9757517" lon="15.88664"><ele>125.4</ele><time>2026-04-21T14:27:47.301Z</time></trkpt><trkpt lat="37.9756717" lon="15.8867183"><ele>126.60000000000001</ele><time>2026-04-21T14:27:48.3Z</time></trkpt><trkpt lat="37.97561" lon="15.8868217"><ele>127.80000000000001</ele><time>2026-04-21T14:27:49.3Z</time></trkpt><trkpt lat="37.975575" lon="15.88695"><ele>129.0</ele><time>2026-04-21T14:27:50.3Z</time></trkpt><trkpt lat="37.975545" lon="15.8870783"><ele>126.33333333333333</ele><time>2026-04-21T14:27:51.301Z</time></trkpt><trkpt lat="37.975505" lon="15.8871783"><ele>123.66666666666666</ele><time>2026-04-21T14:27:52.301Z</time></trkpt><trkpt lat="37.9754517" lon="15.8872717"><ele>121.0</ele><time>2026-04-21T14:27:53.301Z</time></trkpt><trkpt lat="37.9753917" lon="15.8873417"><ele>118.33333333333333</ele><time>2026-04-21T14:27:54.301Z</time></trkpt><trkpt lat="37.9753133" lon="15.8874083"><ele>115.66666666666666</ele><time>2026-04-21T14:27:55.301Z</time></trkpt><trkpt lat="37.9752333" lon="15.88746"><ele>113.0</ele><time>2026-04-21T14:27:56.301Z</time></trkpt><trkpt lat="37.97516" lon="15.8875117"><ele>113.0</ele><time>2026-04-21T14:27:57.301Z</time></trkpt><trkpt lat="37.9750967" lon="15.8875533"><ele>113.0</ele><time>2026-04-21T14:27:58.301Z</time></trkpt><trkpt lat="37.9750283" lon="15.8875433"><ele>113.0</ele><time>2026-04-21T14:27:59.301Z</time></trkpt><trkpt lat="37.9749633" lon="15.8874983"><ele>113.0</ele><time>2026-04-21T14:28:00.3Z</time></trkpt><trkpt lat="37.9749183" lon="15.8874183"><ele>113.0</ele><time>2026-04-21T14:28:01.301Z</time></trkpt><trkpt lat="37.9748917" lon="15.8873267"><ele>113.0</ele><time>2026-04-21T14:28:02.301Z</time></trkpt><trkpt lat="37.974875" lon="15.8872383"><ele>113.0</ele><time>2026-04-21T14:28:03.301Z</time></trkpt><trkpt lat="37.9748417" lon="15.8871217"><ele>114.33333333333333</ele><time>2026-04-21T14:28:05.301Z</time></trkpt><trkpt lat="37.97477" lon="15.88707"><ele>115.66666666666666</ele><time>2026-04-21T14:28:07.301Z</time></trkpt><trkpt lat="37.9746567" lon="15.88702"><ele>117.0</ele><time>2026-04-21T14:28:09.301Z</time></trkpt><trkpt lat="37.97459" lon="15.88701"><ele>118.33333333333334</ele><time>2026-04-21T14:28:10.301Z</time></trkpt><trkpt lat="37.97452" lon="15.8870167"><ele>119.66666666666667</ele><time>2026-04-21T14:28:11.301Z</time></trkpt><trkpt lat="37.9744517" lon="15.887045"><ele>121.0</ele><time>2026-04-21T14:28:12.3Z</time></trkpt><trkpt lat="37.9743517" lon="15.8871617"><ele>121.0</ele><time>2026-04-21T14:28:14.3Z</time></trkpt><trkpt lat="37.9743267" lon="15.8872717"><ele>121.0</ele><time>2026-04-21T14:28:15.301Z</time></trkpt><trkpt lat="37.97431" lon="15.8874283"><ele>121.0</ele><time>2026-04-21T14:28:16.301Z</time></trkpt><trkpt lat="37.9742967" lon="15.8875933"><ele>121.0</ele><time>2026-04-21T14:28:17.301Z</time></trkpt><trkpt lat="37.9742683" lon="15.887755"><ele>121.75</ele><time>2026-04-21T14:28:18.301Z</time></trkpt><trkpt lat="37.9742383" lon="15.88792"><ele>122.5</ele><time>2026-04-21T14:28:19.301Z</time></trkpt><trkpt lat="37.9742" lon="15.8880833"><ele>123.25</ele><time>2026-04-21T14:28:20.3Z</time></trkpt><trkpt lat="37.9741783" lon="15.88826"><ele>124.0</ele><time>2026-04-21T14:28:21.301Z</time></trkpt><trkpt lat="37.9741717" lon="15.88844"><ele>121.0</ele><time>2026-04-21T14:28:22.301Z</time></trkpt><trkpt lat="37.974155" lon="15.88862"><ele>118.0</ele><time>2026-04-21T14:28:23.301Z</time></trkpt><trkpt lat="37.9741333" lon="15.88879"><ele>115.0</ele><time>2026-04-21T14:28:24.301Z</time></trkpt><trkpt lat="37.9740983" lon="15.888965"><ele>112.0</ele><time>2026-04-21T14:28:25.301Z</time></trkpt><trkpt lat="37.9740567" lon="15.8891283"><ele>110.19999999999999</ele><time>2026-04-21T14:28:26.301Z</time></trkpt><trkpt lat="37.9740283" lon="15.8892867"><ele>108.39999999999999</ele><time>2026-04-21T14:28:27.301Z</time></trkpt><trkpt lat="37.9739933" lon="15.8894317"><ele>106.6</ele><time>2026-04-21T14:28:28.301Z</time></trkpt><trkpt lat="37.9739533" lon="15.8895533"><ele>104.80000000000001</ele><time>2026-04-21T14:28:29.301Z</time></trkpt><trkpt lat="37.9739183" lon="15.8896533"><ele>103.0</ele><time>2026-04-21T14:28:30.301Z</time></trkpt><trkpt lat="37.97388" lon="15.88973"><ele>103.0</ele><time>2026-04-21T14:28:31.301Z</time></trkpt><trkpt lat="37.9738183" lon="15.889755"><ele>103.0</ele><time>2026-04-21T14:28:32.301Z</time></trkpt><trkpt lat="37.9737467" lon="15.8897483"><ele>103.0</ele><time>2026-04-21T14:28:33.301Z</time></trkpt><trkpt lat="37.9736617" lon="15.88971"><ele>103.0</ele><time>2026-04-21T14:28:34.301Z</time></trkpt><trkpt lat="37.9735583" lon="15.8896467"><ele>103.0</ele><time>2026-04-21T14:28:35.3Z</time></trkpt><trkpt lat="37.9734517" lon="15.889585"><ele>102.60000000000001</ele><time>2026-04-21T14:28:36.301Z</time></trkpt><trkpt lat="37.9733517" lon="15.889525"><ele>102.2</ele><time>2026-04-21T14:28:37.301Z</time></trkpt><trkpt lat="37.9732667" lon="15.8894767"><ele>101.8</ele><time>2026-04-21T14:28:38.301Z</time></trkpt><trkpt lat="37.9731833" lon="15.8894333"><ele>101.4</ele><time>2026-04-21T14:28:39.301Z</time></trkpt><trkpt lat="37.9731033" lon="15.8893917"><ele>101.0</ele><time>2026-04-21T14:28:40.301Z</time></trkpt><trkpt lat="37.9730183" lon="15.8893483"><ele>101.0</ele><time>2026-04-21T14:28:41.301Z</time></trkpt><trkpt lat="37.972925" lon="15.8893"><ele>101.0</ele><time>2026-04-21T14:28:42.301Z</time></trkpt><trkpt lat="37.9728333" lon="15.88925"><ele>101.0</ele><time>2026-04-21T14:28:43.301Z</time></trkpt><trkpt lat="37.9727467" lon="15.889205"><ele>101.0</ele><time>2026-04-21T14:28:44.301Z</time></trkpt><trkpt lat="37.9726633" lon="15.889165"><ele>101.0</ele><time>2026-04-21T14:28:45.301Z</time></trkpt><trkpt lat="37.97257" lon="15.8891133"><ele>100.75</ele><time>2026-04-21T14:28:46.301Z</time></trkpt><trkpt lat="37.9724717" lon="15.889055"><ele>100.5</ele><time>2026-04-21T14:28:47.301Z</time></trkpt><trkpt lat="37.9723683" lon="15.8889817"><ele>100.25</ele><time>2026-04-21T14:28:48.3Z</time></trkpt><trkpt lat="37.9722633" lon="15.8888917"><ele>100.0</ele><time>2026-04-21T14:28:49.301Z</time></trkpt><trkpt lat="37.9721517" lon="15.8888017"><ele>100.0</ele><time>2026-04-21T14:28:50.301Z</time></trkpt><trkpt lat="37.9720417" lon="15.8887167"><ele>100.0</ele><time>2026-04-21T14:28:51.301Z</time></trkpt><trkpt lat="37.971925" lon="15.8886367"><ele>100.0</ele><time>2026-04-21T14:28:52.301Z</time></trkpt><trkpt lat="37.9718" lon="15.888575"><ele>100.0</ele><time>2026-04-21T14:28:53.301Z</time></trkpt><trkpt lat="37.9716667" lon="15.88854"><ele>99.0</ele><time>2026-04-21T14:28:54.301Z</time></trkpt><trkpt lat="37.97154" lon="15.8885217"><ele>98.0</ele><time>2026-04-21T14:28:55.3Z</time></trkpt><trkpt lat="37.971405" lon="15.8885317"><ele>97.0</ele><time>2026-04-21T14:28:56.3Z</time></trkpt><trkpt lat="37.9712767" lon="15.8885517"><ele>96.0</ele><time>2026-04-21T14:28:57.301Z</time></trkpt><trkpt lat="37.971145" lon="15.88857"><ele>96.0</ele><time>2026-04-21T14:28:58.301Z</time></trkpt><trkpt lat="37.9710183" lon="15.8885933"><ele>96.0</ele><time>2026-04-21T14:28:59.301Z</time></trkpt><trkpt lat="37.9708983" lon="15.8886"><ele>96.0</ele><time>2026-04-21T14:29:00.301Z</time></trkpt><trkpt lat="37.970765" lon="15.8886183"><ele>96.0</ele><time>2026-04-21T14:29:01.301Z</time></trkpt><trkpt lat="37.970625" lon="15.88864"><ele>95.25</ele><time>2026-04-21T14:29:02.301Z</time></trkpt><trkpt lat="37.9704883" lon="15.888645"><ele>94.5</ele><time>2026-04-21T14:29:03.3Z</time></trkpt><trkpt lat="37.970355" lon="15.8886333"><ele>93.75</ele><time>2026-04-21T14:29:04.301Z</time></trkpt><trkpt lat="37.9702217" lon="15.8886083"><ele>93.0</ele><time>2026-04-21T14:29:05.301Z</time></trkpt><trkpt lat="37.970085" lon="15.88857"><ele>92.5</ele><time>2026-04-21T14:29:06.301Z</time></trkpt><trkpt lat="37.9699533" lon="15.8885267"><ele>92.0</ele><time>2026-04-21T14:29:07.301Z</time></trkpt><trkpt lat="37.9698183" lon="15.8885"><ele>91.5</ele><time>2026-04-21T14:29:08.301Z</time></trkpt><trkpt lat="37.9696867" lon="15.8884667"><ele>91.0</ele><time>2026-04-21T14:29:09.301Z</time></trkpt><trkpt lat="37.96955" lon="15.88843"><ele>91.0</ele><time>2026-04-21T14:29:10.301Z</time></trkpt><trkpt lat="37.9694083" lon="15.8884"><ele>91.0</ele><time>2026-04-21T14:29:11.301Z</time></trkpt><trkpt lat="37.9692667" lon="15.8883667"><ele>91.0</ele><time>2026-04-21T14:29:12.301Z</time></trkpt><trkpt lat="37.969125" lon="15.8883283"><ele>91.0</ele><time>2026-04-21T14:29:13.301Z</time></trkpt><trkpt lat="37.96898" lon="15.8882933"><ele>91.0</ele><time>2026-04-21T14:29:14.301Z</time></trkpt><trkpt lat="37.9688367" lon="15.88827"><ele>91.0</ele><time>2026-04-21T14:29:15.3Z</time></trkpt><trkpt lat="37.9687017" lon="15.88826"><ele>91.0</ele><time>2026-04-21T14:29:16.301Z</time></trkpt><trkpt lat="37.96857" lon="15.8882683"><ele>91.0</ele><time>2026-04-21T14:29:17.3Z</time></trkpt><trkpt lat="37.9684383" lon="15.8882883"><ele>91.0</ele><time>2026-04-21T14:29:18.301Z</time></trkpt><trkpt lat="37.9683017" lon="15.8883067"><ele>91.0</ele><time>2026-04-21T14:29:19.301Z</time></trkpt><trkpt lat="37.9681667" lon="15.8883283"><ele>91.0</ele><time>2026-04-21T14:29:20.301Z</time></trkpt><trkpt lat="37.9680267" lon="15.8883333"><ele>91.0</ele><time>2026-04-21T14:29:21.301Z</time></trkpt><trkpt lat="37.9678833" lon="15.8883317"><ele>91.0</ele><time>2026-04-21T14:29:22.301Z</time></trkpt><trkpt lat="37.9677483" lon="15.8883033"><ele>91.0</ele><time>2026-04-21T14:29:23.301Z</time></trkpt><trkpt lat="37.9676067" lon="15.8882667"><ele>91.0</ele><time>2026-04-21T14:29:24.301Z</time></trkpt><trkpt lat="37.9674683" lon="15.8882233"><ele>91.0</ele><time>2026-04-21T14:29:25.301Z</time></trkpt><trkpt lat="37.9673217" lon="15.8881833"><ele>89.33333333333333</ele><time>2026-04-21T14:29:26.301Z</time></trkpt><trkpt lat="37.96717" lon="15.8881533"><ele>87.66666666666667</ele><time>2026-04-21T14:29:27.301Z</time></trkpt><trkpt lat="37.9670167" lon="15.8881233"><ele>86.0</ele><time>2026-04-21T14:29:28.301Z</time></trkpt><trkpt lat="37.9668567" lon="15.8880933"><ele>86.0</ele><time>2026-04-21T14:29:29.301Z</time></trkpt><trkpt lat="37.9666917" lon="15.8880733"><ele>86.0</ele><time>2026-04-21T14:29:30.301Z</time></trkpt><trkpt lat="37.966525" lon="15.8880533"><ele>86.0</ele><time>2026-04-21T14:29:31.301Z</time></trkpt><trkpt lat="37.9663617" lon="15.88802"><ele>86.0</ele><time>2026-04-21T14:29:32.301Z</time></trkpt><trkpt lat="37.9661983" lon="15.887995"><ele>86.0</ele><time>2026-04-21T14:29:33.301Z</time></trkpt><trkpt lat="37.966035" lon="15.8879717"><ele>86.0</ele><time>2026-04-21T14:29:34.301Z</time></trkpt><trkpt lat="37.9658817" lon="15.8879483"><ele>85.5</ele><time>2026-04-21T14:29:35.301Z</time></trkpt><trkpt lat="37.9657367" lon="15.8879283"><ele>85.0</ele><time>2026-04-21T14:29:36.301Z</time></trkpt><trkpt lat="37.9655933" lon="15.8879167"><ele>84.5</ele><time>2026-04-21T14:29:37.301Z</time></trkpt><trkpt lat="37.9654517" lon="15.8879167"><ele>84.0</ele><time>2026-04-21T14:29:38.301Z</time></trkpt><trkpt lat="37.965315" lon="15.8879333"><ele>84.0</ele><time>2026-04-21T14:29:39.3Z</time></trkpt><trkpt lat="37.9651683" lon="15.8879683"><ele>84.0</ele><time>2026-04-21T14:29:40.301Z</time></trkpt><trkpt lat="37.9650317" lon="15.8880033"><ele>84.0</ele><time>2026-04-21T14:29:41.301Z</time></trkpt><trkpt lat="37.964885" lon="15.88805"><ele>84.0</ele><time>2026-04-21T14:29:42.301Z</time></trkpt><trkpt lat="37.9647367" lon="15.8880983"><ele>84.0</ele><time>2026-04-21T14:29:43.3Z</time></trkpt><trkpt lat="37.964585" lon="15.8881517"><ele>84.0</ele><time>2026-04-21T14:29:44.301Z</time></trkpt><trkpt lat="37.964445" lon="15.8881983"><ele>84.0</ele><time>2026-04-21T14:29:45.301Z</time></trkpt><trkpt lat="37.964305" lon="15.8882467"><ele>84.0</ele><time>2026-04-21T14:29:46.3Z</time></trkpt><trkpt lat="37.9641683" lon="15.8882967"><ele>84.0</ele><time>2026-04-21T14:29:47.301Z</time></trkpt><trkpt lat="37.964035" lon="15.88835"><ele>84.0</ele><time>2026-04-21T14:29:48.301Z</time></trkpt><trkpt lat="37.9639083" lon="15.8884017"><ele>84.0</ele><time>2026-04-21T14:29:49.301Z</time></trkpt><trkpt lat="37.9637683" lon="15.8884383"><ele>84.0</ele><time>2026-04-21T14:29:50.301Z</time></trkpt><trkpt lat="37.963625" lon="15.8884833"><ele>83.25</ele><time>2026-04-21T14:29:51.301Z</time></trkpt><trkpt lat="37.9634917" lon="15.8885367"><ele>82.5</ele><time>2026-04-21T14:29:52.3Z</time></trkpt><trkpt lat="37.9633633" lon="15.8885917"><ele>81.75</ele><time>2026-04-21T14:29:53.301Z</time></trkpt><trkpt lat="37.9632383" lon="15.8886367"><ele>81.0</ele><time>2026-04-21T14:29:54.301Z</time></trkpt><trkpt lat="37.9631133" lon="15.8886817"><ele>81.0</ele><time>2026-04-21T14:29:55.3Z</time></trkpt><trkpt lat="37.9630017" lon="15.8887283"><ele>81.0</ele><time>2026-04-21T14:29:56.3Z</time></trkpt><trkpt lat="37.9629083" lon="15.88878"><ele>81.0</ele><time>2026-04-21T14:29:57.301Z</time></trkpt><trkpt lat="37.9628233" lon="15.8888217"><ele>81.0</ele><time>2026-04-21T14:29:58.301Z</time></trkpt><trkpt lat="37.96274" lon="15.888865"><ele>81.0</ele><time>2026-04-21T14:29:59.301Z</time></trkpt><trkpt lat="37.9626583" lon="15.8889033"><ele>81.0</ele><time>2026-04-21T14:30:00.301Z</time></trkpt><trkpt lat="37.9625933" lon="15.8889017"><ele>81.0</ele><time>2026-04-21T14:30:01.301Z</time></trkpt><trkpt lat="37.962515" lon="15.8887933"><ele>81.0</ele><time>2026-04-21T14:30:03.301Z</time></trkpt><trkpt lat="37.96249" lon="15.8886917"><ele>81.0</ele><time>2026-04-21T14:30:04.301Z</time></trkpt><trkpt lat="37.9624683" lon="15.8885733"><ele>81.0</ele><time>2026-04-21T14:30:05.301Z</time></trkpt><trkpt lat="37.9624517" lon="15.88844"><ele>84.0</ele><time>2026-04-21T14:30:06.301Z</time></trkpt><trkpt lat="37.9624233" lon="15.8883117"><ele>87.0</ele><time>2026-04-21T14:30:07.301Z</time></trkpt><trkpt lat="37.96238" lon="15.8882083"><ele>90.0</ele><time>2026-04-21T14:30:08.301Z</time></trkpt><trkpt lat="37.962325" lon="15.88813"><ele>93.0</ele><time>2026-04-21T14:30:09.301Z</time></trkpt><trkpt lat="37.9622517" lon="15.8880733"><ele>96.0</ele><time>2026-04-21T14:30:10.301Z</time></trkpt><trkpt lat="37.962165" lon="15.8880533"><ele>96.0</ele><time>2026-04-21T14:30:11.301Z</time></trkpt><trkpt lat="37.9620667" lon="15.888075"><ele>96.0</ele><time>2026-04-21T14:30:12.301Z</time></trkpt><trkpt lat="37.961965" lon="15.888115"><ele>96.0</ele><time>2026-04-21T14:30:13.301Z</time></trkpt><trkpt lat="37.9618533" lon="15.8881933"><ele>96.0</ele><time>2026-04-21T14:30:14.301Z</time></trkpt><trkpt lat="37.961745" lon="15.88825"><ele>95.6</ele><time>2026-04-21T14:30:15.301Z</time></trkpt><trkpt lat="37.9616467" lon="15.8883233"><ele>95.19999999999999</ele><time>2026-04-21T14:30:16.301Z</time></trkpt><trkpt lat="37.9615467" lon="15.88839"><ele>94.80000000000001</ele><time>2026-04-21T14:30:17.301Z</time></trkpt><trkpt lat="37.9614667" lon="15.8884583"><ele>94.4</ele><time>2026-04-21T14:30:18.301Z</time></trkpt><trkpt lat="37.9614133" lon="15.8885567"><ele>94.0</ele><time>2026-04-21T14:30:19.301Z</time></trkpt><trkpt lat="37.9613867" lon="15.8886817"><ele>92.80000000000001</ele><time>2026-04-21T14:30:20.301Z</time></trkpt><trkpt lat="37.9613883" lon="15.8888167"><ele>91.60000000000001</ele><time>2026-04-21T14:30:21.301Z</time></trkpt><trkpt lat="37.96139" lon="15.8889583"><ele>90.4</ele><time>2026-04-21T14:30:22.301Z</time></trkpt><trkpt lat="37.961385" lon="15.88908"><ele>89.2</ele><time>2026-04-21T14:30:23.301Z</time></trkpt><trkpt lat="37.9613667" lon="15.8891817"><ele>88.0</ele><time>2026-04-21T14:30:24.301Z</time></trkpt><trkpt lat="37.961325" lon="15.88926"><ele>88.0</ele><time>2026-04-21T14:30:25.301Z</time></trkpt><trkpt lat="37.9612583" lon="15.8893133"><ele>88.0</ele><time>2026-04-21T14:30:26.301Z</time></trkpt><trkpt lat="37.9611783" lon="15.8893133"><ele>88.0</ele><time>2026-04-21T14:30:27.301Z</time></trkpt><trkpt lat="37.9610967" lon="15.8892533"><ele>88.0</ele><time>2026-04-21T14:30:28.301Z</time></trkpt><trkpt lat="37.9610417" lon="15.8891683"><ele>88.0</ele><time>2026-04-21T14:30:29.301Z</time></trkpt><trkpt lat="37.9610117" lon="15.8890167"><ele>88.0</ele><time>2026-04-21T14:30:30.301Z</time></trkpt><trkpt lat="37.9609683" lon="15.88885"><ele>88.0</ele><time>2026-04-21T14:30:31.301Z</time></trkpt><trkpt lat="37.9609117" lon="15.8886683"><ele>88.0</ele><time>2026-04-21T14:30:32.301Z</time></trkpt><trkpt lat="37.9608317" lon="15.888525"><ele>88.0</ele><time>2026-04-21T14:30:33.301Z</time></trkpt><trkpt lat="37.96073" lon="15.8883983"><ele>87.5</ele><time>2026-04-21T14:30:34.301Z</time></trkpt><trkpt lat="37.96063" lon="15.8882817"><ele>87.0</ele><time>2026-04-21T14:30:35.301Z</time></trkpt><trkpt lat="37.96053" lon="15.88817"><ele>86.5</ele><time>2026-04-21T14:30:36.301Z</time></trkpt><trkpt lat="37.9604217" lon="15.88807"><ele>86.0</ele><time>2026-04-21T14:30:37.301Z</time></trkpt><trkpt lat="37.9603217" lon="15.8879617"><ele>86.0</ele><time>2026-04-21T14:30:38.301Z</time></trkpt><trkpt lat="37.96022" lon="15.8878583"><ele>86.0</ele><time>2026-04-21T14:30:39.301Z</time></trkpt><trkpt lat="37.9601083" lon="15.88777"><ele>86.0</ele><time>2026-04-21T14:30:40.301Z</time></trkpt><trkpt lat="37.9600083" lon="15.887675"><ele>86.0</ele><time>2026-04-21T14:30:41.301Z</time></trkpt><trkpt lat="37.9599133" lon="15.8875733"><ele>83.5</ele><time>2026-04-21T14:30:42.301Z</time></trkpt><trkpt lat="37.9598117" lon="15.887465"><ele>81.0</ele><time>2026-04-21T14:30:43.301Z</time></trkpt><trkpt lat="37.9597083" lon="15.887355"><ele>78.5</ele><time>2026-04-21T14:30:44.301Z</time></trkpt><trkpt lat="37.9596033" lon="15.8872317"><ele>76.0</ele><time>2026-04-21T14:30:45.301Z</time></trkpt><trkpt lat="37.9594967" lon="15.8871167"><ele>76.0</ele><time>2026-04-21T14:30:46.301Z</time></trkpt><trkpt lat="37.9593933" lon="15.8870133"><ele>76.0</ele><time>2026-04-21T14:30:47.301Z</time></trkpt><trkpt lat="37.9593017" lon="15.886915"><ele>76.0</ele><time>2026-04-21T14:30:48.3Z</time></trkpt><trkpt lat="37.9592117" lon="15.8868067"><ele>76.0</ele><time>2026-04-21T14:30:49.301Z</time></trkpt><trkpt lat="37.95912" lon="15.886705"><ele>74.75</ele><time>2026-04-21T14:30:50.301Z</time></trkpt><trkpt lat="37.9590267" lon="15.8866117"><ele>73.5</ele><time>2026-04-21T14:30:51.301Z</time></trkpt><trkpt lat="37.9589167" lon="15.8865233"><ele>72.25</ele><time>2026-04-21T14:30:52.301Z</time></trkpt><trkpt lat="37.9588183" lon="15.8864233"><ele>71.0</ele><time>2026-04-21T14:30:53.301Z</time></trkpt><trkpt lat="37.9587317" lon="15.8863167"><ele>71.0</ele><time>2026-04-21T14:30:54.301Z</time></trkpt><trkpt lat="37.95863" lon="15.8862167"><ele>71.0</ele><time>2026-04-21T14:30:55.301Z</time></trkpt><trkpt lat="37.95852" lon="15.886105"><ele>71.0</ele><time>2026-04-21T14:30:56.301Z</time></trkpt><trkpt lat="37.9584167" lon="15.885995"><ele>71.0</ele><time>2026-04-21T14:30:57.301Z</time></trkpt><trkpt lat="37.9583183" lon="15.8858917"><ele>70.6</ele><time>2026-04-21T14:30:58.301Z</time></trkpt><trkpt lat="37.958225" lon="15.8857983"><ele>70.19999999999999</ele><time>2026-04-21T14:30:59.301Z</time></trkpt><trkpt lat="37.9581433" lon="15.8857083"><ele>69.80000000000001</ele><time>2026-04-21T14:31:00.301Z</time></trkpt><trkpt lat="37.9580567" lon="15.885625"><ele>69.4</ele><time>2026-04-21T14:31:01.301Z</time></trkpt><trkpt lat="37.95797" lon="15.8855383"><ele>69.0</ele><time>2026-04-21T14:31:02.301Z</time></trkpt><trkpt lat="37.9578917" lon="15.885455"><ele>69.0</ele><time>2026-04-21T14:31:03.301Z</time></trkpt><trkpt lat="37.957815" lon="15.88538"><ele>69.0</ele><time>2026-04-21T14:31:04.301Z</time></trkpt><trkpt lat="37.95774" lon="15.8853033"><ele>69.0</ele><time>2026-04-21T14:31:05.301Z</time></trkpt><trkpt lat="37.9576767" lon="15.88523"><ele>69.0</ele><time>2026-04-21T14:31:06.301Z</time></trkpt><trkpt lat="37.9576133" lon="15.8851567"><ele>69.0</ele><time>2026-04-21T14:31:07.301Z</time></trkpt><trkpt lat="37.9575483" lon="15.88508"><ele>68.4</ele><time>2026-04-21T14:31:08.301Z</time></trkpt><trkpt lat="37.9574817" lon="15.8850167"><ele>67.80000000000001</ele><time>2026-04-21T14:31:09.301Z</time></trkpt><trkpt lat="37.9574133" lon="15.8849483"><ele>67.19999999999999</ele><time>2026-04-21T14:31:10.3Z</time></trkpt><trkpt lat="37.957335" lon="15.8848867"><ele>66.6</ele><time>2026-04-21T14:31:11.301Z</time></trkpt><trkpt lat="37.9572483" lon="15.88483"><ele>66.0</ele><time>2026-04-21T14:31:12.301Z</time></trkpt><trkpt lat="37.9571567" lon="15.8847867"><ele>66.0</ele><time>2026-04-21T14:31:13.301Z</time></trkpt><trkpt lat="37.9570617" lon="15.8847483"><ele>66.0</ele><time>2026-04-21T14:31:14.301Z</time></trkpt><trkpt lat="37.9569733" lon="15.8847133"><ele>66.0</ele><time>2026-04-21T14:31:15.301Z</time></trkpt><trkpt lat="37.95688" lon="15.8846833"><ele>66.0</ele><time>2026-04-21T14:31:16.301Z</time></trkpt><trkpt lat="37.9567917" lon="15.88466"><ele>66.0</ele><time>2026-04-21T14:31:17.301Z</time></trkpt><trkpt lat="37.9566967" lon="15.884635"><ele>65.25</ele><time>2026-04-21T14:31:18.301Z</time></trkpt><trkpt lat="37.9565983" lon="15.8845983"><ele>64.5</ele><time>2026-04-21T14:31:19.301Z</time></trkpt><trkpt lat="37.95649" lon="15.8845583"><ele>63.75</ele><time>2026-04-21T14:31:20.301Z</time></trkpt><trkpt lat="37.9563717" lon="15.884525"><ele>63.0</ele><time>2026-04-21T14:31:21.301Z</time></trkpt><trkpt lat="37.956245" lon="15.884485"><ele>63.0</ele><time>2026-04-21T14:31:22.301Z</time></trkpt><trkpt lat="37.95611" lon="15.8844433"><ele>63.0</ele><time>2026-04-21T14:31:23.301Z</time></trkpt><trkpt lat="37.9559683" lon="15.8844033"><ele>63.0</ele><time>2026-04-21T14:31:24.301Z</time></trkpt><trkpt lat="37.9558217" lon="15.884365"><ele>63.0</ele><time>2026-04-21T14:31:25.301Z</time></trkpt><trkpt lat="37.9556767" lon="15.8843217"><ele>62.75</ele><time>2026-04-21T14:31:26.301Z</time></trkpt><trkpt lat="37.9555317" lon="15.884275"><ele>62.5</ele><time>2026-04-21T14:31:27.301Z</time></trkpt><trkpt lat="37.95539" lon="15.8842317"><ele>62.25</ele><time>2026-04-21T14:31:28.3Z</time></trkpt><trkpt lat="37.9552533" lon="15.88419"><ele>62.0</ele><time>2026-04-21T14:31:29.301Z</time></trkpt><trkpt lat="37.9551117" lon="15.88416"><ele>62.0</ele><time>2026-04-21T14:31:30.3Z</time></trkpt><trkpt lat="37.9549767" lon="15.884115"><ele>62.0</ele><time>2026-04-21T14:31:31.301Z</time></trkpt><trkpt lat="37.9548367" lon="15.8840783"><ele>62.0</ele><time>2026-04-21T14:31:32.301Z</time></trkpt><trkpt lat="37.9547033" lon="15.88403"><ele>62.0</ele><time>2026-04-21T14:31:33.301Z</time></trkpt><trkpt lat="37.9545667" lon="15.883975"><ele>62.0</ele><time>2026-04-21T14:31:34.301Z</time></trkpt><trkpt lat="37.9544317" lon="15.8839317"><ele>62.0</ele><time>2026-04-21T14:31:35.301Z</time></trkpt><trkpt lat="37.95429" lon="15.8838883"><ele>62.0</ele><time>2026-04-21T14:31:36.301Z</time></trkpt><trkpt lat="37.9541483" lon="15.8838433"><ele>62.0</ele><time>2026-04-21T14:31:37.301Z</time></trkpt><trkpt lat="37.9540167" lon="15.8837917"><ele>61.25</ele><time>2026-04-21T14:31:38.301Z</time></trkpt><trkpt lat="37.9538783" lon="15.88375"><ele>60.5</ele><time>2026-04-21T14:31:39.301Z</time></trkpt><trkpt lat="37.9537433" lon="15.88371"><ele>59.75</ele><time>2026-04-21T14:31:40.301Z</time></trkpt><trkpt lat="37.9536" lon="15.8836717"><ele>59.0</ele><time>2026-04-21T14:31:41.301Z</time></trkpt><trkpt lat="37.953455" lon="15.88363"><ele>58.0</ele><time>2026-04-21T14:31:42.301Z</time></trkpt><trkpt lat="37.9533067" lon="15.8835867"><ele>57.0</ele><time>2026-04-21T14:31:43.301Z</time></trkpt><trkpt lat="37.9531617" lon="15.883535"><ele>56.0</ele><time>2026-04-21T14:31:44.301Z</time></trkpt><trkpt lat="37.95301" lon="15.8834833"><ele>56.66666666666667</ele><time>2026-04-21T14:31:45.3Z</time></trkpt><trkpt lat="37.9528533" lon="15.8834283"><ele>57.33333333333333</ele><time>2026-04-21T14:31:46.3Z</time></trkpt><trkpt lat="37.9526967" lon="15.8833817"><ele>58.0</ele><time>2026-04-21T14:31:47.301Z</time></trkpt><trkpt lat="37.952545" lon="15.88333"><ele>57.666666666666664</ele><time>2026-04-21T14:31:48.301Z</time></trkpt><trkpt lat="37.9523883" lon="15.8832783"><ele>57.33333333333333</ele><time>2026-04-21T14:31:49.301Z</time></trkpt><trkpt lat="37.952225" lon="15.8832283"><ele>57.0</ele><time>2026-04-21T14:31:50.301Z</time></trkpt><trkpt lat="37.9520617" lon="15.8831783"><ele>57.0</ele><time>2026-04-21T14:31:51.301Z</time></trkpt><trkpt lat="37.9518883" lon="15.8831317"><ele>57.0</ele><time>2026-04-21T14:31:52.301Z</time></trkpt><trkpt lat="37.951715" lon="15.8830867"><ele>57.0</ele><time>2026-04-21T14:31:53.301Z</time></trkpt><trkpt lat="37.95154" lon="15.8830333"><ele>56.0</ele><time>2026-04-21T14:31:54.3Z</time></trkpt><trkpt lat="37.9513667" lon="15.882975"><ele>55.0</ele><time>2026-04-21T14:31:55.3Z</time></trkpt><trkpt lat="37.9511917" lon="15.8829217"><ele>54.0</ele><time>2026-04-21T14:31:56.301Z</time></trkpt><trkpt lat="37.95102" lon="15.882865"><ele>53.33333333333333</ele><time>2026-04-21T14:31:57.301Z</time></trkpt><trkpt lat="37.9508433" lon="15.8828133"><ele>52.666666666666664</ele><time>2026-04-21T14:31:58.301Z</time></trkpt><trkpt lat="37.950675" lon="15.88276"><ele>52.0</ele><time>2026-04-21T14:31:59.301Z</time></trkpt><trkpt lat="37.95051" lon="15.8827067"><ele>52.0</ele><time>2026-04-21T14:32:00.301Z</time></trkpt><trkpt lat="37.9503467" lon="15.8826533"><ele>52.0</ele><time>2026-04-21T14:32:01.301Z</time></trkpt><trkpt lat="37.9501783" lon="15.8826083"><ele>52.0</ele><time>2026-04-21T14:32:02.301Z</time></trkpt><trkpt lat="37.9500167" lon="15.8825583"><ele>52.33333333333333</ele><time>2026-04-21T14:32:03.301Z</time></trkpt><trkpt lat="37.949855" lon="15.882505"><ele>52.66666666666667</ele><time>2026-04-21T14:32:04.301Z</time></trkpt><trkpt lat="37.9496967" lon="15.8824517"><ele>53.0</ele><time>2026-04-21T14:32:05.301Z</time></trkpt><trkpt lat="37.94954" lon="15.882415"><ele>53.0</ele><time>2026-04-21T14:32:06.301Z</time></trkpt><trkpt lat="37.949395" lon="15.882365"><ele>53.0</ele><time>2026-04-21T14:32:07.301Z</time></trkpt><trkpt lat="37.9492483" lon="15.8823267"><ele>53.0</ele><time>2026-04-21T14:32:08.301Z</time></trkpt><trkpt lat="37.94911" lon="15.8822733"><ele>53.0</ele><time>2026-04-21T14:32:09.301Z</time></trkpt><trkpt lat="37.94896" lon="15.882225"><ele>52.5</ele><time>2026-04-21T14:32:10.301Z</time></trkpt><trkpt lat="37.948825" lon="15.88217"><ele>52.0</ele><time>2026-04-21T14:32:11.301Z</time></trkpt><trkpt lat="37.9486767" lon="15.8821317"><ele>51.5</ele><time>2026-04-21T14:32:12.301Z</time></trkpt><trkpt lat="37.9485317" lon="15.8820867"><ele>51.0</ele><time>2026-04-21T14:32:13.3Z</time></trkpt><trkpt lat="37.948385" lon="15.8820383"><ele>50.66666666666667</ele><time>2026-04-21T14:32:14.301Z</time></trkpt><trkpt lat="37.9482317" lon="15.8819933"><ele>50.333333333333336</ele><time>2026-04-21T14:32:15.301Z</time></trkpt><trkpt lat="37.9480767" lon="15.8819483"><ele>50.0</ele><time>2026-04-21T14:32:16.301Z</time></trkpt><trkpt lat="37.9479217" lon="15.881905"><ele>50.0</ele><time>2026-04-21T14:32:17.301Z</time></trkpt><trkpt lat="37.94776" lon="15.8818567"><ele>50.0</ele><time>2026-04-21T14:32:18.301Z</time></trkpt><trkpt lat="37.947595" lon="15.8818067"><ele>50.0</ele><time>2026-04-21T14:32:19.301Z</time></trkpt><trkpt lat="37.9474333" lon="15.8817567"><ele>50.333333333333336</ele><time>2026-04-21T14:32:20.301Z</time></trkpt><trkpt lat="37.947265" lon="15.8817117"><ele>50.66666666666667</ele><time>2026-04-21T14:32:21.301Z</time></trkpt><trkpt lat="37.9470983" lon="15.8816567"><ele>51.0</ele><time>2026-04-21T14:32:22.301Z</time></trkpt><trkpt lat="37.946935" lon="15.8815983"><ele>51.0</ele><time>2026-04-21T14:32:23.301Z</time></trkpt><trkpt lat="37.9467633" lon="15.8815517"><ele>51.0</ele><time>2026-04-21T14:32:24.301Z</time></trkpt><trkpt lat="37.946605" lon="15.8814983"><ele>51.0</ele><time>2026-04-21T14:32:25.301Z</time></trkpt><trkpt lat="37.9464483" lon="15.8814733"><ele>50.33333333333333</ele><time>2026-04-21T14:32:26.301Z</time></trkpt><trkpt lat="37.9463" lon="15.88145"><ele>49.666666666666664</ele><time>2026-04-21T14:32:27.301Z</time></trkpt><trkpt lat="37.9461433" lon="15.8814483"><ele>49.0</ele><time>2026-04-21T14:32:28.301Z</time></trkpt><trkpt lat="37.9459883" lon="15.8814633"><ele>48.33333333333333</ele><time>2026-04-21T14:32:29.301Z</time></trkpt><trkpt lat="37.9458217" lon="15.881475"><ele>47.666666666666664</ele><time>2026-04-21T14:32:30.3Z</time></trkpt><trkpt lat="37.945655" lon="15.881495"><ele>47.0</ele><time>2026-04-21T14:32:31.301Z</time></trkpt><trkpt lat="37.94549" lon="15.8815183"><ele>47.0</ele><time>2026-04-21T14:32:32.301Z</time></trkpt><trkpt lat="37.9453217" lon="15.8815383"><ele>47.0</ele><time>2026-04-21T14:32:33.301Z</time></trkpt><trkpt lat="37.9451533" lon="15.88155"><ele>47.0</ele><time>2026-04-21T14:32:34.3Z</time></trkpt><trkpt lat="37.94499" lon="15.8815633"><ele>46.0</ele><time>2026-04-21T14:32:35.3Z</time></trkpt><trkpt lat="37.94484" lon="15.881575"><ele>45.0</ele><time>2026-04-21T14:32:36.301Z</time></trkpt><trkpt lat="37.944685" lon="15.8815867"><ele>44.0</ele><time>2026-04-21T14:32:37.301Z</time></trkpt><trkpt lat="37.9445267" lon="15.881605"><ele>44.0</ele><time>2026-04-21T14:32:38.301Z</time></trkpt><trkpt lat="37.9443633" lon="15.8816217"><ele>44.0</ele><time>2026-04-21T14:32:39.301Z</time></trkpt><trkpt lat="37.9442" lon="15.881635"><ele>44.0</ele><time>2026-04-21T14:32:40.301Z</time></trkpt><trkpt lat="37.9440317" lon="15.8816433"><ele>43.33333333333333</ele><time>2026-04-21T14:32:41.301Z</time></trkpt><trkpt lat="37.9438633" lon="15.8816633"><ele>42.666666666666664</ele><time>2026-04-21T14:32:42.301Z</time></trkpt><trkpt lat="37.943695" lon="15.8816817"><ele>42.0</ele><time>2026-04-21T14:32:43.3Z</time></trkpt><trkpt lat="37.9435283" lon="15.8817017"><ele>41.0</ele><time>2026-04-21T14:32:44.301Z</time></trkpt><trkpt lat="37.9433667" lon="15.8817217"><ele>40.0</ele><time>2026-04-21T14:32:45.3Z</time></trkpt><trkpt lat="37.9432083" lon="15.881745"><ele>39.0</ele><time>2026-04-21T14:32:46.301Z</time></trkpt><trkpt lat="37.9430417" lon="15.881755"><ele>39.0</ele><time>2026-04-21T14:32:47.301Z</time></trkpt><trkpt lat="37.9428783" lon="15.8817617"><ele>39.0</ele><time>2026-04-21T14:32:48.301Z</time></trkpt><trkpt lat="37.9427283" lon="15.8817667"><ele>39.0</ele><time>2026-04-21T14:32:49.301Z</time></trkpt><trkpt lat="37.94257" lon="15.8817833"><ele>38.5</ele><time>2026-04-21T14:32:50.301Z</time></trkpt><trkpt lat="37.9424183" lon="15.881805"><ele>38.0</ele><time>2026-04-21T14:32:51.301Z</time></trkpt><trkpt lat="37.9422733" lon="15.8818217"><ele>37.5</ele><time>2026-04-21T14:32:52.301Z</time></trkpt><trkpt lat="37.9421283" lon="15.8818333"><ele>37.0</ele><time>2026-04-21T14:32:53.301Z</time></trkpt><trkpt lat="37.9419917" lon="15.88184"><ele>37.0</ele><time>2026-04-21T14:32:54.301Z</time></trkpt><trkpt lat="37.9418583" lon="15.8818467"><ele>37.0</ele><time>2026-04-21T14:32:55.301Z</time></trkpt><trkpt lat="37.9417267" lon="15.8818583"><ele>37.0</ele><time>2026-04-21T14:32:56.301Z</time></trkpt><trkpt lat="37.9415983" lon="15.8818767"><ele>37.0</ele><time>2026-04-21T14:32:57.301Z</time></trkpt><trkpt lat="37.94147" lon="15.881895"><ele>36.75</ele><time>2026-04-21T14:32:58.301Z</time></trkpt><trkpt lat="37.9413483" lon="15.8819017"><ele>36.5</ele><time>2026-04-21T14:32:59.301Z</time></trkpt><trkpt lat="37.941215" lon="15.8819133"><ele>36.25</ele><time>2026-04-21T14:33:00.301Z</time></trkpt><trkpt lat="37.94108" lon="15.8819267"><ele>36.0</ele><time>2026-04-21T14:33:01.301Z</time></trkpt><trkpt lat="37.94094" lon="15.8819517"><ele>35.75</ele><time>2026-04-21T14:33:02.301Z</time></trkpt><trkpt lat="37.9408017" lon="15.8819667"><ele>35.5</ele><time>2026-04-21T14:33:03.301Z</time></trkpt><trkpt lat="37.9406617" lon="15.8819717"><ele>35.25</ele><time>2026-04-21T14:33:04.301Z</time></trkpt><trkpt lat="37.9405217" lon="15.881985"><ele>35.0</ele><time>2026-04-21T14:33:05.301Z</time></trkpt><trkpt lat="37.9403767" lon="15.8819933"><ele>35.0</ele><time>2026-04-21T14:33:06.301Z</time></trkpt><trkpt lat="37.9402433" lon="15.8820067"><ele>35.0</ele><time>2026-04-21T14:33:07.301Z</time></trkpt><trkpt lat="37.9401133" lon="15.8820217"><ele>35.0</ele><time>2026-04-21T14:33:08.301Z</time></trkpt><trkpt lat="37.93997" lon="15.8820267"><ele>35.0</ele><time>2026-04-21T14:33:09.301Z</time></trkpt><trkpt lat="37.939835" lon="15.8820483"><ele>35.0</ele><time>2026-04-21T14:33:10.301Z</time></trkpt><trkpt lat="37.9396967" lon="15.88206"><ele>35.0</ele><time>2026-04-21T14:33:11.301Z</time></trkpt><trkpt lat="37.9395617" lon="15.8820767"><ele>35.0</ele><time>2026-04-21T14:33:12.3Z</time></trkpt><trkpt lat="37.93942" lon="15.8820883"><ele>35.0</ele><time>2026-04-21T14:33:13.301Z</time></trkpt><trkpt lat="37.93928" lon="15.882105"><ele>34.5</ele><time>2026-04-21T14:33:14.301Z</time></trkpt><trkpt lat="37.9391383" lon="15.8821267"><ele>34.0</ele><time>2026-04-21T14:33:15.301Z</time></trkpt><trkpt lat="37.9390017" lon="15.88215"><ele>33.5</ele><time>2026-04-21T14:33:16.301Z</time></trkpt><trkpt lat="37.93887" lon="15.8821633"><ele>33.0</ele><time>2026-04-21T14:33:17.301Z</time></trkpt><trkpt lat="37.938735" lon="15.8821617"><ele>33.0</ele><time>2026-04-21T14:33:18.301Z</time></trkpt><trkpt lat="37.938595" lon="15.88217"><ele>33.0</ele><time>2026-04-21T14:33:19.301Z</time></trkpt><trkpt lat="37.9384483" lon="15.88219"><ele>33.0</ele><time>2026-04-21T14:33:20.301Z</time></trkpt><trkpt lat="37.93831" lon="15.8822083"><ele>33.0</ele><time>2026-04-21T14:33:21.3Z</time></trkpt><trkpt lat="37.9381617" lon="15.8822317"><ele>33.0</ele><time>2026-04-21T14:33:22.301Z</time></trkpt><trkpt lat="37.938005" lon="15.882255"><ele>33.0</ele><time>2026-04-21T14:33:23.301Z</time></trkpt><trkpt lat="37.9378533" lon="15.88227"><ele>33.0</ele><time>2026-04-21T14:33:24.301Z</time></trkpt><trkpt lat="37.9376933" lon="15.88228"><ele>32.666666666666664</ele><time>2026-04-21T14:33:25.301Z</time></trkpt><trkpt lat="37.9375333" lon="15.8822867"><ele>32.33333333333333</ele><time>2026-04-21T14:33:26.301Z</time></trkpt><trkpt lat="37.9373733" lon="15.8823"><ele>32.0</ele><time>2026-04-21T14:33:27.301Z</time></trkpt><trkpt lat="37.937215" lon="15.88232"><ele>32.0</ele><time>2026-04-21T14:33:28.301Z</time></trkpt><trkpt lat="37.9370567" lon="15.882335"><ele>32.0</ele><time>2026-04-21T14:33:29.301Z</time></trkpt><trkpt lat="37.9369067" lon="15.8823517"><ele>32.0</ele><time>2026-04-21T14:33:30.301Z</time></trkpt><trkpt lat="37.9367533" lon="15.8823683"><ele>31.666666666666664</ele><time>2026-04-21T14:33:31.301Z</time></trkpt><trkpt lat="37.9366" lon="15.882385"><ele>31.333333333333336</ele><time>2026-04-21T14:33:32.301Z</time></trkpt><trkpt lat="37.9364383" lon="15.8824017"><ele>31.0</ele><time>2026-04-21T14:33:33.301Z</time></trkpt><trkpt lat="37.9362817" lon="15.8824233"><ele>31.0</ele><time>2026-04-21T14:33:34.301Z</time></trkpt><trkpt lat="37.9361167" lon="15.88243"><ele>31.0</ele><time>2026-04-21T14:33:35.301Z</time></trkpt><trkpt lat="37.9359533" lon="15.882445"><ele>31.0</ele><time>2026-04-21T14:33:36.301Z</time></trkpt><trkpt lat="37.9357983" lon="15.88246"><ele>30.333333333333336</ele><time>2026-04-21T14:33:37.301Z</time></trkpt><trkpt lat="37.9356417" lon="15.8824767"><ele>29.666666666666664</ele><time>2026-04-21T14:33:38.301Z</time></trkpt><trkpt lat="37.9354867" lon="15.8824917"><ele>29.0</ele><time>2026-04-21T14:33:39.3Z</time></trkpt><trkpt lat="37.9353417" lon="15.8825083"><ele>29.0</ele><time>2026-04-21T14:33:40.301Z</time></trkpt><trkpt lat="37.9351917" lon="15.8825233"><ele>29.0</ele><time>2026-04-21T14:33:41.3Z</time></trkpt><trkpt lat="37.9350383" lon="15.8825333"><ele>29.0</ele><time>2026-04-21T14:33:42.301Z</time></trkpt><trkpt lat="37.93489" lon="15.882555"><ele>28.0</ele><time>2026-04-21T14:33:43.301Z</time></trkpt><trkpt lat="37.93474" lon="15.8825783"><ele>27.0</ele><time>2026-04-21T14:33:44.301Z</time></trkpt><trkpt lat="37.9345883" lon="15.8825883"><ele>26.0</ele><time>2026-04-21T14:33:45.301Z</time></trkpt><trkpt lat="37.9344367" lon="15.8826017"><ele>24.666666666666664</ele><time>2026-04-21T14:33:46.301Z</time></trkpt><trkpt lat="37.934285" lon="15.8826167"><ele>23.333333333333332</ele><time>2026-04-21T14:33:47.301Z</time></trkpt><trkpt lat="37.9341333" lon="15.8826283"><ele>22.0</ele><time>2026-04-21T14:33:48.3Z</time></trkpt><trkpt lat="37.9339667" lon="15.8826383"><ele>21.666666666666664</ele><time>2026-04-21T14:33:49.301Z</time></trkpt><trkpt lat="37.9338083" lon="15.882655"><ele>21.333333333333332</ele><time>2026-04-21T14:33:50.3Z</time></trkpt><trkpt lat="37.93365" lon="15.8826567"><ele>21.0</ele><time>2026-04-21T14:33:51.301Z</time></trkpt><trkpt lat="37.933485" lon="15.8826867"><ele>20.666666666666668</ele><time>2026-04-21T14:33:52.301Z</time></trkpt><trkpt lat="37.9333167" lon="15.882715"><ele>20.333333333333336</ele><time>2026-04-21T14:33:53.301Z</time></trkpt><trkpt lat="37.9331567" lon="15.8827267"><ele>20.0</ele><time>2026-04-21T14:33:54.301Z</time></trkpt><trkpt lat="37.9330017" lon="15.8827417"><ele>20.0</ele><time>2026-04-21T14:33:55.301Z</time></trkpt><trkpt lat="37.9328517" lon="15.8827567"><ele>20.0</ele><time>2026-04-21T14:33:56.301Z</time></trkpt><trkpt lat="37.932715" lon="15.88277"><ele>20.0</ele><time>2026-04-21T14:33:57.301Z</time></trkpt><trkpt lat="37.93257" lon="15.8827867"><ele>20.0</ele><time>2026-04-21T14:33:58.301Z</time></trkpt><trkpt lat="37.9324233" lon="15.88281"><ele>19.25</ele><time>2026-04-21T14:33:59.301Z</time></trkpt><trkpt lat="37.9322817" lon="15.88283"><ele>18.5</ele><time>2026-04-21T14:34:00.301Z</time></trkpt><trkpt lat="37.93214" lon="15.88285"><ele>17.75</ele><time>2026-04-21T14:34:01.301Z</time></trkpt><trkpt lat="37.9319933" lon="15.88286"><ele>17.0</ele><time>2026-04-21T14:34:02.301Z</time></trkpt><trkpt lat="37.931845" lon="15.8828533"><ele>16.0</ele><time>2026-04-21T14:34:03.301Z</time></trkpt><trkpt lat="37.931695" lon="15.882825"><ele>15.0</ele><time>2026-04-21T14:34:04.301Z</time></trkpt><trkpt lat="37.9315417" lon="15.8828"><ele>14.0</ele><time>2026-04-21T14:34:05.301Z</time></trkpt><trkpt lat="37.9314017" lon="15.8827717"><ele>13.0</ele><time>2026-04-21T14:34:06.301Z</time></trkpt><trkpt lat="37.93127" lon="15.882735"><ele>13.0</ele><time>2026-04-21T14:34:07.301Z</time></trkpt><trkpt lat="37.93113" lon="15.882705"><ele>13.0</ele><time>2026-04-21T14:34:08.301Z</time></trkpt><trkpt lat="37.930995" lon="15.8826817"><ele>13.0</ele><time>2026-04-21T14:34:09.301Z</time></trkpt><trkpt lat="37.9308633" lon="15.8826583"><ele>13.0</ele><time>2026-04-21T14:34:10.301Z</time></trkpt><trkpt lat="37.9307317" lon="15.882635"><ele>13.0</ele><time>2026-04-21T14:34:11.301Z</time></trkpt><trkpt lat="37.9306" lon="15.8826117"><ele>13.0</ele><time>2026-04-21T14:34:12.301Z</time></trkpt><trkpt lat="37.9304583" lon="15.8825917"><ele>13.0</ele><time>2026-04-21T14:34:13.301Z</time></trkpt><trkpt lat="37.930315" lon="15.88256"><ele>13.0</ele><time>2026-04-21T14:34:14.301Z</time></trkpt><trkpt lat="37.9301617" lon="15.882535"><ele>11.666666666666666</ele><time>2026-04-21T14:34:15.301Z</time></trkpt><trkpt lat="37.9299983" lon="15.8824933"><ele>10.333333333333332</ele><time>2026-04-21T14:34:16.301Z</time></trkpt><trkpt lat="37.92983" lon="15.8824633"><ele>9.0</ele><time>2026-04-21T14:34:17.301Z</time></trkpt><trkpt lat="37.9296767" lon="15.88242"><ele>9.0</ele><time>2026-04-21T14:34:18.301Z</time></trkpt><trkpt lat="37.9295433" lon="15.882395"><ele>9.0</ele><time>2026-04-21T14:34:19.301Z</time></trkpt><trkpt lat="37.9294267" lon="15.8823683"><ele>9.0</ele><time>2026-04-21T14:34:20.301Z</time></trkpt><trkpt lat="37.92933" lon="15.8823467"><ele>9.0</ele><time>2026-04-21T14:34:21.301Z</time></trkpt><trkpt lat="37.929245" lon="15.88232"><ele>9.0</ele><time>2026-04-21T14:34:22.301Z</time></trkpt><trkpt lat="37.9291733" lon="15.882275"><ele>8.6</ele><time>2026-04-21T14:34:23.3Z</time></trkpt><trkpt lat="37.9291133" lon="15.8822367"><ele>8.2</ele><time>2026-04-21T14:34:24.3Z</time></trkpt><trkpt lat="37.929085" lon="15.8821617"><ele>7.799999999999999</ele><time>2026-04-21T14:34:25.301Z</time></trkpt><trkpt lat="37.9290533" lon="15.8820067"><ele>7.3999999999999995</ele><time>2026-04-21T14:34:27.301Z</time></trkpt><trkpt lat="37.929055" lon="15.88189"><ele>7.0</ele><time>2026-04-21T14:34:28.301Z</time></trkpt><trkpt lat="37.92906" lon="15.8817583"><ele>7.0</ele><time>2026-04-21T14:34:29.301Z</time></trkpt><trkpt lat="37.9290667" lon="15.8816317"><ele>7.0</ele><time>2026-04-21T14:34:30.301Z</time></trkpt><trkpt lat="37.92908" lon="15.881465"><ele>7.0</ele><time>2026-04-21T14:34:31.301Z</time></trkpt><trkpt lat="37.929095" lon="15.8812933"><ele>7.0</ele><time>2026-04-21T14:34:32.301Z</time></trkpt><trkpt lat="37.9291117" lon="15.8811383"><ele>7.0</ele><time>2026-04-21T14:34:33.3Z</time></trkpt><trkpt lat="37.929135" lon="15.880965"><ele>7.0</ele><time>2026-04-21T14:34:34.301Z</time></trkpt><trkpt lat="37.9291567" lon="15.8808183"><ele>7.0</ele><time>2026-04-21T14:34:35.301Z</time></trkpt><trkpt lat="37.9291767" lon="15.8806483"><ele>7.0</ele><time>2026-04-21T14:34:36.301Z</time></trkpt><trkpt lat="37.9292017" lon="15.8804583"><ele>7.666666666666667</ele><time>2026-04-21T14:34:37.3Z</time></trkpt><trkpt lat="37.92923" lon="15.8802783"><ele>8.333333333333334</ele><time>2026-04-21T14:34:38.301Z</time></trkpt><trkpt lat="37.9292533" lon="15.88009"><ele>9.0</ele><time>2026-04-21T14:34:39.301Z</time></trkpt><trkpt lat="37.9292883" lon="15.8798783"><ele>9.0</ele><time>2026-04-21T14:34:40.3Z</time></trkpt><trkpt lat="37.9293167" lon="15.8797017"><ele>9.0</ele><time>2026-04-21T14:34:41.301Z</time></trkpt><trkpt lat="37.9293383" lon="15.8795317"><ele>9.0</ele><time>2026-04-21T14:34:42.3Z</time></trkpt><trkpt lat="37.9293617" lon="15.8793267"><ele>9.0</ele><time>2026-04-21T14:34:43.301Z</time></trkpt><trkpt lat="37.929385" lon="15.8791383"><ele>9.333333333333334</ele><time>2026-04-21T14:34:44.301Z</time></trkpt><trkpt lat="37.9294017" lon="15.8789433"><ele>9.666666666666668</ele><time>2026-04-21T14:34:45.301Z</time></trkpt><trkpt lat="37.9294183" lon="15.8787533"><ele>10.0</ele><time>2026-04-21T14:34:46.301Z</time></trkpt><trkpt lat="37.92943" lon="15.878565"><ele>9.75</ele><time>2026-04-21T14:34:47.301Z</time></trkpt><trkpt lat="37.929445" lon="15.8783883"><ele>9.5</ele><time>2026-04-21T14:34:48.301Z</time></trkpt><trkpt lat="37.929455" lon="15.8782133"><ele>9.25</ele><time>2026-04-21T14:34:49.301Z</time></trkpt><trkpt lat="37.929465" lon="15.8780533"><ele>9.0</ele><time>2026-04-21T14:34:50.301Z</time></trkpt><trkpt lat="37.9294833" lon="15.8778717"><ele>9.0</ele><time>2026-04-21T14:34:51.301Z</time></trkpt><trkpt lat="37.9295017" lon="15.8776783"><ele>9.0</ele><time>2026-04-21T14:34:52.301Z</time></trkpt><trkpt lat="37.92952" lon="15.8774783"><ele>9.0</ele><time>2026-04-21T14:34:53.301Z</time></trkpt><trkpt lat="37.929535" lon="15.8772933"><ele>8.666666666666666</ele><time>2026-04-21T14:34:54.3Z</time></trkpt><trkpt lat="37.9295483" lon="15.877085"><ele>8.333333333333332</ele><time>2026-04-21T14:34:55.301Z</time></trkpt><trkpt lat="37.9295667" lon="15.876885"><ele>8.0</ele><time>2026-04-21T14:34:56.301Z</time></trkpt><trkpt lat="37.92959" lon="15.8766833"><ele>7.666666666666666</ele><time>2026-04-21T14:34:57.301Z</time></trkpt><trkpt lat="37.9296067" lon="15.87648"><ele>7.333333333333334</ele><time>2026-04-21T14:34:58.301Z</time></trkpt><trkpt lat="37.929625" lon="15.8762767"><ele>7.0</ele><time>2026-04-21T14:34:59.301Z</time></trkpt><trkpt lat="37.929645" lon="15.8760733"><ele>7.666666666666667</ele><time>2026-04-21T14:35:00.301Z</time></trkpt><trkpt lat="37.92966" lon="15.8758633"><ele>8.333333333333334</ele><time>2026-04-21T14:35:01.3Z</time></trkpt><trkpt lat="37.9296717" lon="15.8756567"><ele>9.0</ele><time>2026-04-21T14:35:02.301Z</time></trkpt><trkpt lat="37.9296767" lon="15.8754467"><ele>9.0</ele><time>2026-04-21T14:35:03.301Z</time></trkpt><trkpt lat="37.9296883" lon="15.8752333"><ele>9.0</ele><time>2026-04-21T14:35:04.301Z</time></trkpt><trkpt lat="37.9297033" lon="15.87504"><ele>9.0</ele><time>2026-04-21T14:35:05.301Z</time></trkpt><trkpt lat="37.92972" lon="15.8748167"><ele>9.333333333333334</ele><time>2026-04-21T14:35:06.301Z</time></trkpt><trkpt lat="37.9297367" lon="15.8745983"><ele>9.666666666666668</ele><time>2026-04-21T14:35:07.301Z</time></trkpt><trkpt lat="37.9297533" lon="15.8743817"><ele>10.0</ele><time>2026-04-21T14:35:08.301Z</time></trkpt><trkpt lat="37.9297683" lon="15.8741567"><ele>10.0</ele><time>2026-04-21T14:35:09.301Z</time></trkpt><trkpt lat="37.9297883" lon="15.8739283"><ele>10.0</ele><time>2026-04-21T14:35:10.301Z</time></trkpt><trkpt lat="37.9298067" lon="15.8737067"><ele>10.0</ele><time>2026-04-21T14:35:11.301Z</time></trkpt><trkpt lat="37.9298167" lon="15.873475"><ele>10.666666666666668</ele><time>2026-04-21T14:35:12.301Z</time></trkpt><trkpt lat="37.92983" lon="15.8732517"><ele>11.333333333333334</ele><time>2026-04-21T14:35:13.3Z</time></trkpt><trkpt lat="37.929845" lon="15.873025"><ele>12.0</ele><time>2026-04-21T14:35:14.301Z</time></trkpt><trkpt lat="37.9298633" lon="15.8728167"><ele>12.0</ele><time>2026-04-21T14:35:15.301Z</time></trkpt><trkpt lat="37.9298783" lon="15.8725717"><ele>12.0</ele><time>2026-04-21T14:35:16.301Z</time></trkpt><trkpt lat="37.9298983" lon="15.8723483"><ele>12.0</ele><time>2026-04-21T14:35:17.301Z</time></trkpt><trkpt lat="37.9299233" lon="15.87208"><ele>12.0</ele><time>2026-04-21T14:35:18.301Z</time></trkpt><trkpt lat="37.9299417" lon="15.87185"><ele>12.0</ele><time>2026-04-21T14:35:19.301Z</time></trkpt><trkpt lat="37.92996" lon="15.8715983"><ele>12.0</ele><time>2026-04-21T14:35:20.301Z</time></trkpt><trkpt lat="37.9299867" lon="15.8713717"><ele>12.333333333333332</ele><time>2026-04-21T14:35:21.301Z</time></trkpt><trkpt lat="37.9300083" lon="15.8711117"><ele>12.666666666666666</ele><time>2026-04-21T14:35:22.3Z</time></trkpt><trkpt lat="37.93003" lon="15.8708633"><ele>13.0</ele><time>2026-04-21T14:35:23.301Z</time></trkpt><trkpt lat="37.93005" lon="15.8706133"><ele>13.333333333333332</ele><time>2026-04-21T14:35:24.301Z</time></trkpt><trkpt lat="37.9300667" lon="15.87039"><ele>13.666666666666668</ele><time>2026-04-21T14:35:25.301Z</time></trkpt><trkpt lat="37.9300833" lon="15.870135"><ele>14.0</ele><time>2026-04-21T14:35:26.301Z</time></trkpt><trkpt lat="37.9301033" lon="15.86991"><ele>14.0</ele><time>2026-04-21T14:35:27.301Z</time></trkpt><trkpt lat="37.9301183" lon="15.8696817"><ele>14.0</ele><time>2026-04-21T14:35:28.301Z</time></trkpt><trkpt lat="37.930125" lon="15.8694367"><ele>14.0</ele><time>2026-04-21T14:35:29.3Z</time></trkpt><trkpt lat="37.9301183" lon="15.86919"><ele>14.666666666666668</ele><time>2026-04-21T14:35:30.301Z</time></trkpt><trkpt lat="37.9301033" lon="15.8689233"><ele>15.333333333333332</ele><time>2026-04-21T14:35:31.301Z</time></trkpt><trkpt lat="37.9300817" lon="15.868675"><ele>16.0</ele><time>2026-04-21T14:35:32.301Z</time></trkpt><trkpt lat="37.9300517" lon="15.868425"><ele>17.0</ele><time>2026-04-21T14:35:33.301Z</time></trkpt><trkpt lat="37.93001" lon="15.868175"><ele>18.0</ele><time>2026-04-21T14:35:34.301Z</time></trkpt><trkpt lat="37.9299617" lon="15.8679467"><ele>19.0</ele><time>2026-04-21T14:35:35.301Z</time></trkpt><trkpt lat="37.929915" lon="15.8677067"><ele>19.0</ele><time>2026-04-21T14:35:36.301Z</time></trkpt><trkpt lat="37.9298583" lon="15.867465"><ele>19.0</ele><time>2026-04-21T14:35:37.301Z</time></trkpt><trkpt lat="37.9298033" lon="15.8672"><ele>19.0</ele><time>2026-04-21T14:35:38.3Z</time></trkpt><trkpt lat="37.9297567" lon="15.8669667"><ele>18.666666666666664</ele><time>2026-04-21T14:35:39.301Z</time></trkpt><trkpt lat="37.92971" lon="15.866725"><ele>18.333333333333332</ele><time>2026-04-21T14:35:40.301Z</time></trkpt><trkpt lat="37.9296583" lon="15.86648"><ele>18.0</ele><time>2026-04-21T14:35:41.301Z</time></trkpt><trkpt lat="37.9296033" lon="15.8662317"><ele>18.0</ele><time>2026-04-21T14:35:42.301Z</time></trkpt><trkpt lat="37.92955" lon="15.86597"><ele>18.0</ele><time>2026-04-21T14:35:43.301Z</time></trkpt><trkpt lat="37.929495" lon="15.86572"><ele>18.0</ele><time>2026-04-21T14:35:44.3Z</time></trkpt><trkpt lat="37.9294417" lon="15.8654617"><ele>18.0</ele><time>2026-04-21T14:35:45.3Z</time></trkpt><trkpt lat="37.92939" lon="15.8652033"><ele>18.0</ele><time>2026-04-21T14:35:46.3Z</time></trkpt><trkpt lat="37.9293417" lon="15.8649383"><ele>18.0</ele><time>2026-04-21T14:35:47.301Z</time></trkpt><trkpt lat="37.9292867" lon="15.8646483"><ele>18.0</ele><time>2026-04-21T14:35:48.301Z</time></trkpt><trkpt lat="37.9292317" lon="15.8643967"><ele>18.0</ele><time>2026-04-21T14:35:49.301Z</time></trkpt><trkpt lat="37.9291817" lon="15.86414"><ele>18.0</ele><time>2026-04-21T14:35:50.302Z</time></trkpt><trkpt lat="37.9291267" lon="15.86388"><ele>17.333333333333332</ele><time>2026-04-21T14:35:51.302Z</time></trkpt><trkpt lat="37.9290733" lon="15.8636133"><ele>16.666666666666664</ele><time>2026-04-21T14:35:52.302Z</time></trkpt><trkpt lat="37.9290183" lon="15.86336"><ele>16.0</ele><time>2026-04-21T14:35:53.302Z</time></trkpt><trkpt lat="37.9289617" lon="15.8631083"><ele>16.0</ele><time>2026-04-21T14:35:54.301Z</time></trkpt><trkpt lat="37.9289067" lon="15.8628467"><ele>16.0</ele><time>2026-04-21T14:35:55.302Z</time></trkpt><trkpt lat="37.928855" lon="15.8625883"><ele>16.0</ele><time>2026-04-21T14:35:56.302Z</time></trkpt><trkpt lat="37.9287967" lon="15.8623283"><ele>16.0</ele><time>2026-04-21T14:35:57.302Z</time></trkpt><trkpt lat="37.92874" lon="15.8620683"><ele>16.0</ele><time>2026-04-21T14:35:58.302Z</time></trkpt><trkpt lat="37.9286883" lon="15.861805"><ele>16.0</ele><time>2026-04-21T14:35:59.302Z</time></trkpt><trkpt lat="37.928635" lon="15.861545"><ele>15.333333333333332</ele><time>2026-04-21T14:36:00.302Z</time></trkpt><trkpt lat="37.928585" lon="15.8612867"><ele>14.666666666666668</ele><time>2026-04-21T14:36:01.301Z</time></trkpt><trkpt lat="37.92852" lon="15.8610267"><ele>14.0</ele><time>2026-04-21T14:36:02.302Z</time></trkpt><trkpt lat="37.9284667" lon="15.8607683"><ele>14.0</ele><time>2026-04-21T14:36:03.302Z</time></trkpt><trkpt lat="37.9284183" lon="15.8605033"><ele>14.0</ele><time>2026-04-21T14:36:04.302Z</time></trkpt><trkpt lat="37.92836" lon="15.860245"><ele>14.0</ele><time>2026-04-21T14:36:05.302Z</time></trkpt><trkpt lat="37.9283083" lon="15.8599783"><ele>14.333333333333334</ele><time>2026-04-21T14:36:06.302Z</time></trkpt><trkpt lat="37.9282533" lon="15.8597217"><ele>14.666666666666668</ele><time>2026-04-21T14:36:07.302Z</time></trkpt><trkpt lat="37.928195" lon="15.8594667"><ele>15.0</ele><time>2026-04-21T14:36:08.302Z</time></trkpt><trkpt lat="37.9281467" lon="15.8592033"><ele>16.333333333333332</ele><time>2026-04-21T14:36:09.302Z</time></trkpt><trkpt lat="37.928095" lon="15.8589483"><ele>17.666666666666664</ele><time>2026-04-21T14:36:10.302Z</time></trkpt><trkpt lat="37.9280467" lon="15.858695"><ele>19.0</ele><time>2026-04-21T14:36:11.302Z</time></trkpt><trkpt lat="37.9279983" lon="15.85844"><ele>19.333333333333332</ele><time>2026-04-21T14:36:12.302Z</time></trkpt><trkpt lat="37.9279483" lon="15.858185"><ele>19.666666666666668</ele><time>2026-04-21T14:36:13.302Z</time></trkpt><trkpt lat="37.9278883" lon="15.857935"><ele>20.0</ele><time>2026-04-21T14:36:14.302Z</time></trkpt><trkpt lat="37.9278317" lon="15.8576883"><ele>20.333333333333336</ele><time>2026-04-21T14:36:15.301Z</time></trkpt><trkpt lat="37.9277633" lon="15.85744"><ele>20.666666666666668</ele><time>2026-04-21T14:36:16.302Z</time></trkpt><trkpt lat="37.9277017" lon="15.8571967"><ele>21.0</ele><time>2026-04-21T14:36:17.302Z</time></trkpt><trkpt lat="37.92762" lon="15.8569483"><ele>22.0</ele><time>2026-04-21T14:36:18.302Z</time></trkpt><trkpt lat="37.9275333" lon="15.8567033"><ele>23.0</ele><time>2026-04-21T14:36:19.302Z</time></trkpt><trkpt lat="37.9274383" lon="15.8564833"><ele>24.0</ele><time>2026-04-21T14:36:20.302Z</time></trkpt><trkpt lat="37.92734" lon="15.8562583"><ele>24.0</ele><time>2026-04-21T14:36:21.302Z</time></trkpt><trkpt lat="37.9272267" lon="15.8560433"><ele>24.0</ele><time>2026-04-21T14:36:22.302Z</time></trkpt><trkpt lat="37.92711" lon="15.8558283"><ele>24.0</ele><time>2026-04-21T14:36:23.302Z</time></trkpt><trkpt lat="37.926985" lon="15.855625"><ele>24.0</ele><time>2026-04-21T14:36:24.302Z</time></trkpt><trkpt lat="37.926855" lon="15.855425"><ele>24.0</ele><time>2026-04-21T14:36:25.301Z</time></trkpt><trkpt lat="37.9267283" lon="15.85522"><ele>24.0</ele><time>2026-04-21T14:36:26.302Z</time></trkpt><trkpt lat="37.9265917" lon="15.8550117"><ele>24.0</ele><time>2026-04-21T14:36:27.302Z</time></trkpt><trkpt lat="37.9264567" lon="15.8548033"><ele>24.0</ele><time>2026-04-21T14:36:28.302Z</time></trkpt><trkpt lat="37.9263233" lon="15.8546067"><ele>24.0</ele><time>2026-04-21T14:36:29.302Z</time></trkpt><trkpt lat="37.926195" lon="15.8544083"><ele>24.666666666666664</ele><time>2026-04-21T14:36:30.301Z</time></trkpt><trkpt lat="37.9260667" lon="15.8542167"><ele>25.333333333333332</ele><time>2026-04-21T14:36:31.302Z</time></trkpt><trkpt lat="37.925945" lon="15.85403"><ele>26.0</ele><time>2026-04-21T14:36:32.302Z</time></trkpt><trkpt lat="37.9258267" lon="15.8538483"><ele>25.333333333333332</ele><time>2026-04-21T14:36:33.302Z</time></trkpt><trkpt lat="37.9257117" lon="15.853675"><ele>24.666666666666664</ele><time>2026-04-21T14:36:34.302Z</time></trkpt><trkpt lat="37.9256083" lon="15.8535017"><ele>24.0</ele><time>2026-04-21T14:36:35.302Z</time></trkpt><trkpt lat="37.9255117" lon="15.8533433"><ele>24.0</ele><time>2026-04-21T14:36:36.302Z</time></trkpt><trkpt lat="37.9254133" lon="15.8531917"><ele>24.0</ele><time>2026-04-21T14:36:37.302Z</time></trkpt><trkpt lat="37.925325" lon="15.8530383"><ele>24.0</ele><time>2026-04-21T14:36:38.302Z</time></trkpt><trkpt lat="37.92524" lon="15.852905"><ele>24.0</ele><time>2026-04-21T14:36:39.302Z</time></trkpt><trkpt lat="37.9251567" lon="15.8527817"><ele>24.0</ele><time>2026-04-21T14:36:40.302Z</time></trkpt><trkpt lat="37.9250833" lon="15.85266"><ele>24.0</ele><time>2026-04-21T14:36:41.301Z</time></trkpt><trkpt lat="37.92501" lon="15.8525533"><ele>24.0</ele><time>2026-04-21T14:36:42.302Z</time></trkpt><trkpt lat="37.9249467" lon="15.8524667"><ele>24.0</ele><time>2026-04-21T14:36:43.302Z</time></trkpt><trkpt lat="37.9248833" lon="15.8524033"><ele>24.0</ele><time>2026-04-21T14:36:44.302Z</time></trkpt><trkpt lat="37.92478" lon="15.8524"><ele>22.8</ele><time>2026-04-21T14:36:46.302Z</time></trkpt><trkpt lat="37.9247317" lon="15.8525583"><ele>21.599999999999998</ele><time>2026-04-21T14:36:48.302Z</time></trkpt><trkpt lat="37.9247333" lon="15.852675"><ele>20.4</ele><time>2026-04-21T14:36:49.302Z</time></trkpt><trkpt lat="37.9247567" lon="15.8528033"><ele>19.2</ele><time>2026-04-21T14:36:50.302Z</time></trkpt><trkpt lat="37.92479" lon="15.8529333"><ele>18.0</ele><time>2026-04-21T14:36:51.302Z</time></trkpt><trkpt lat="37.924815" lon="15.85307"><ele>17.6</ele><time>2026-04-21T14:36:52.302Z</time></trkpt><trkpt lat="37.92484" lon="15.853195"><ele>17.200000000000003</ele><time>2026-04-21T14:36:53.302Z</time></trkpt><trkpt lat="37.9248633" lon="15.853315"><ele>16.8</ele><time>2026-04-21T14:36:54.302Z</time></trkpt><trkpt lat="37.924885" lon="15.8534267"><ele>16.400000000000002</ele><time>2026-04-21T14:36:55.302Z</time></trkpt><trkpt lat="37.924905" lon="15.853535"><ele>16.0</ele><time>2026-04-21T14:36:56.302Z</time></trkpt><trkpt lat="37.9249283" lon="15.853655"><ele>15.999999999999998</ele><time>2026-04-21T14:36:57.302Z</time></trkpt><trkpt lat="37.9249517" lon="15.8537733"><ele>16.0</ele><time>2026-04-21T14:36:58.302Z</time></trkpt><trkpt lat="37.9249817" lon="15.8538817"><ele>16.0</ele><time>2026-04-21T14:36:59.302Z</time></trkpt><trkpt lat="37.9250033" lon="15.853985"><ele>16.0</ele><time>2026-04-21T14:37:00.302Z</time></trkpt><trkpt lat="37.9250217" lon="15.8540867"><ele>15.999999999999998</ele><time>2026-04-21T14:37:01.302Z</time></trkpt><trkpt lat="37.925035" lon="15.85417"><ele>16.0</ele><time>2026-04-21T14:37:02.302Z</time></trkpt><trkpt lat="37.9250533" lon="15.8543017"><ele>16.6</ele><time>2026-04-21T14:37:04.302Z</time></trkpt><trkpt lat="37.9250683" lon="15.8544117"><ele>17.200000000000003</ele><time>2026-04-21T14:37:06.302Z</time></trkpt><trkpt lat="37.9250917" lon="15.8545417"><ele>17.799999999999997</ele><time>2026-04-21T14:37:08.301Z</time></trkpt><trkpt lat="37.9251017" lon="15.8546217"><ele>18.4</ele><time>2026-04-21T14:37:09.302Z</time></trkpt><trkpt lat="37.9251133" lon="15.8547717"><ele>19.0</ele><time>2026-04-21T14:37:11.302Z</time></trkpt><trkpt lat="37.9251433" lon="15.85488"><ele>19.0</ele><time>2026-04-21T14:37:13.302Z</time></trkpt><trkpt lat="37.9251717" lon="15.8550017"><ele>19.0</ele><time>2026-04-21T14:37:15.302Z</time></trkpt><trkpt lat="37.9251983" lon="15.8551267"><ele>19.0</ele><time>2026-04-21T14:37:17.302Z</time></trkpt><trkpt lat="37.9252167" lon="15.855205"><ele>19.0</ele><time>2026-04-21T14:37:19.302Z</time></trkpt><trkpt lat="37.9252317" lon="15.8553183"><ele>19.0</ele><time>2026-04-21T14:37:30.302Z</time></trkpt><trkpt lat="37.9252617" lon="15.8554417"><ele>18.833333333333332</ele><time>2026-04-21T14:37:32.301Z</time></trkpt><trkpt lat="37.9252833" lon="15.8555933"><ele>18.666666666666664</ele><time>2026-04-21T14:37:34.301Z</time></trkpt><trkpt lat="37.9252933" lon="15.8556817"><ele>18.5</ele><time>2026-04-21T14:37:35.302Z</time></trkpt><trkpt lat="37.9253117" lon="15.8557767"><ele>18.333333333333332</ele><time>2026-04-21T14:37:36.302Z</time></trkpt><trkpt lat="37.925335" lon="15.85587"><ele>18.166666666666668</ele><time>2026-04-21T14:37:37.302Z</time></trkpt><trkpt lat="37.9253617" lon="15.8559633"><ele>18.0</ele><time>2026-04-21T14:37:38.302Z</time></trkpt><trkpt lat="37.9253767" lon="15.8560583"><ele>17.833333333333332</ele><time>2026-04-21T14:37:39.302Z</time></trkpt><trkpt lat="37.9253917" lon="15.8561433"><ele>17.666666666666668</ele><time>2026-04-21T14:37:40.302Z</time></trkpt><trkpt lat="37.9254033" lon="15.8562317"><ele>17.5</ele><time>2026-04-21T14:37:41.302Z</time></trkpt><trkpt lat="37.92542" lon="15.8563717"><ele>17.333333333333336</ele><time>2026-04-21T14:37:43.302Z</time></trkpt><trkpt lat="37.9254483" lon="15.856465"><ele>17.166666666666668</ele><time>2026-04-21T14:37:45.302Z</time></trkpt><trkpt lat="37.925455" lon="15.8565683"><ele>17.0</ele><time>2026-04-21T14:37:48.302Z</time></trkpt><trkpt lat="37.9254183" lon="15.8566333"><ele>17.0</ele><time>2026-04-21T14:37:51.302Z</time></trkpt><trkpt lat="37.9254833" lon="15.8565583"><ele>17.0</ele><time>2026-04-21T15:20:30.303Z</time></trkpt><trkpt lat="37.9254883" lon="15.8564217"><ele>17.0</ele><time>2026-04-21T15:20:32.303Z</time></trkpt><trkpt lat="37.9254717" lon="15.8562683"><ele>17.0</ele><time>2026-04-21T15:20:34.303Z</time></trkpt><trkpt lat="37.925445" lon="15.85611"><ele>17.0</ele><time>2026-04-21T15:20:36.303Z</time></trkpt><trkpt lat="37.9254367" lon="15.85603"><ele>17.142857142857142</ele><time>2026-04-21T15:20:37.303Z</time></trkpt><trkpt lat="37.925415" lon="15.85595"><ele>17.285714285714285</ele><time>2026-04-21T15:20:38.303Z</time></trkpt><trkpt lat="37.925395" lon="15.855865"><ele>17.42857142857143</ele><time>2026-04-21T15:20:39.303Z</time></trkpt><trkpt lat="37.9253833" lon="15.8557767"><ele>17.57142857142857</ele><time>2026-04-21T15:20:40.302Z</time></trkpt><trkpt lat="37.92536" lon="15.8556917"><ele>17.714285714285715</ele><time>2026-04-21T15:20:41.303Z</time></trkpt><trkpt lat="37.92534" lon="15.8556"><ele>17.857142857142858</ele><time>2026-04-21T15:20:42.303Z</time></trkpt><trkpt lat="37.9253133" lon="15.8554967"><ele>18.0</ele><time>2026-04-21T15:20:43.303Z</time></trkpt><trkpt lat="37.9252917" lon="15.8553883"><ele>18.0</ele><time>2026-04-21T15:20:44.303Z</time></trkpt><trkpt lat="37.925265" lon="15.8552733"><ele>18.0</ele><time>2026-04-21T15:20:45.303Z</time></trkpt><trkpt lat="37.9252333" lon="15.855145"><ele>18.0</ele><time>2026-04-21T15:20:46.303Z</time></trkpt><trkpt lat="37.925215" lon="15.8550133"><ele>18.0</ele><time>2026-04-21T15:20:47.303Z</time></trkpt><trkpt lat="37.92519" lon="15.85487"><ele>18.0</ele><time>2026-04-21T15:20:48.303Z</time></trkpt><trkpt lat="37.92516" lon="15.8547333"><ele>18.2</ele><time>2026-04-21T15:20:49.303Z</time></trkpt><trkpt lat="37.9251417" lon="15.85459"><ele>18.4</ele><time>2026-04-21T15:20:50.303Z</time></trkpt><trkpt lat="37.92511" lon="15.8544733"><ele>18.599999999999998</ele><time>2026-04-21T15:20:51.303Z</time></trkpt><trkpt lat="37.9250867" lon="15.85435"><ele>18.8</ele><time>2026-04-21T15:20:52.303Z</time></trkpt><trkpt lat="37.92507" lon="15.8542267"><ele>19.0</ele><time>2026-04-21T15:20:53.303Z</time></trkpt><trkpt lat="37.92506" lon="15.8541033"><ele>18.25</ele><time>2026-04-21T15:20:54.303Z</time></trkpt><trkpt lat="37.92504" lon="15.8539767"><ele>17.5</ele><time>2026-04-21T15:20:55.303Z</time></trkpt><trkpt lat="37.9250233" lon="15.85383"><ele>16.75</ele><time>2026-04-21T15:20:56.303Z</time></trkpt><trkpt lat="37.925" lon="15.8536817"><ele>16.0</ele><time>2026-04-21T15:20:57.303Z</time></trkpt><trkpt lat="37.9249667" lon="15.8535367"><ele>16.0</ele><time>2026-04-21T15:20:58.303Z</time></trkpt><trkpt lat="37.92494" lon="15.8533833"><ele>16.0</ele><time>2026-04-21T15:20:59.303Z</time></trkpt><trkpt lat="37.924915" lon="15.8532483"><ele>16.0</ele><time>2026-04-21T15:21:00.303Z</time></trkpt><trkpt lat="37.92489" lon="15.8531217"><ele>16.0</ele><time>2026-04-21T15:21:01.303Z</time></trkpt><trkpt lat="37.9248783" lon="15.853005"><ele>16.0</ele><time>2026-04-21T15:21:02.303Z</time></trkpt><trkpt lat="37.9248633" lon="15.8528983"><ele>15.999999999999998</ele><time>2026-04-21T15:21:03.303Z</time></trkpt><trkpt lat="37.924855" lon="15.8528"><ele>16.0</ele><time>2026-04-21T15:21:04.303Z</time></trkpt><trkpt lat="37.9248633" lon="15.8527117"><ele>16.0</ele><time>2026-04-21T15:21:05.303Z</time></trkpt><trkpt lat="37.924905" lon="15.8525733"><ele>16.0</ele><time>2026-04-21T15:21:07.303Z</time></trkpt><trkpt lat="37.92493" lon="15.8525"><ele>15.999999999999998</ele><time>2026-04-21T15:21:09.303Z</time></trkpt><trkpt lat="37.924925" lon="15.852395"><ele>16.0</ele><time>2026-04-21T15:21:19.303Z</time></trkpt><trkpt lat="37.9249033" lon="15.8523067"><ele>16.5</ele><time>2026-04-21T15:21:20.303Z</time></trkpt><trkpt lat="37.9248583" lon="15.8521967"><ele>17.0</ele><time>2026-04-21T15:21:21.303Z</time></trkpt><trkpt lat="37.9247983" lon="15.85206"><ele>17.5</ele><time>2026-04-21T15:21:22.303Z</time></trkpt><trkpt lat="37.9247333" lon="15.851905"><ele>18.0</ele><time>2026-04-21T15:21:23.303Z</time></trkpt><trkpt lat="37.9246717" lon="15.851735"><ele>20.0</ele><time>2026-04-21T15:21:24.303Z</time></trkpt><trkpt lat="37.9246133" lon="15.8515533"><ele>22.0</ele><time>2026-04-21T15:21:25.303Z</time></trkpt><trkpt lat="37.9245517" lon="15.851355"><ele>24.0</ele><time>2026-04-21T15:21:26.303Z</time></trkpt><trkpt lat="37.92449" lon="15.851155"><ele>24.666666666666664</ele><time>2026-04-21T15:21:27.303Z</time></trkpt><trkpt lat="37.9244433" lon="15.850955"><ele>25.333333333333332</ele><time>2026-04-21T15:21:28.303Z</time></trkpt><trkpt lat="37.9244033" lon="15.8507567"><ele>26.0</ele><time>2026-04-21T15:21:29.303Z</time></trkpt><trkpt lat="37.92436" lon="15.8505633"><ele>26.0</ele><time>2026-04-21T15:21:30.303Z</time></trkpt><trkpt lat="37.9243167" lon="15.8503783"><ele>26.0</ele><time>2026-04-21T15:21:31.303Z</time></trkpt><trkpt lat="37.924265" lon="15.8501883"><ele>26.0</ele><time>2026-04-21T15:21:32.303Z</time></trkpt><trkpt lat="37.9242283" lon="15.8499983"><ele>23.333333333333332</ele><time>2026-04-21T15:21:33.303Z</time></trkpt><trkpt lat="37.924195" lon="15.8497833"><ele>20.666666666666664</ele><time>2026-04-21T15:21:34.303Z</time></trkpt><trkpt lat="37.9241517" lon="15.8495733"><ele>18.0</ele><time>2026-04-21T15:21:35.303Z</time></trkpt><trkpt lat="37.9241117" lon="15.849365"><ele>19.333333333333332</ele><time>2026-04-21T15:21:36.303Z</time></trkpt><trkpt lat="37.9240717" lon="15.8491617"><ele>20.666666666666664</ele><time>2026-04-21T15:21:37.303Z</time></trkpt><trkpt lat="37.92403" lon="15.848955"><ele>22.0</ele><time>2026-04-21T15:21:38.303Z</time></trkpt><trkpt lat="37.9239917" lon="15.8487383"><ele>22.0</ele><time>2026-04-21T15:21:39.303Z</time></trkpt><trkpt lat="37.9239417" lon="15.8485283"><ele>22.0</ele><time>2026-04-21T15:21:40.302Z</time></trkpt><trkpt lat="37.9239067" lon="15.8483067"><ele>22.0</ele><time>2026-04-21T15:21:41.303Z</time></trkpt><trkpt lat="37.9238633" lon="15.8480733"><ele>23.666666666666664</ele><time>2026-04-21T15:21:42.303Z</time></trkpt><trkpt lat="37.9238217" lon="15.847835"><ele>25.333333333333332</ele><time>2026-04-21T15:21:43.303Z</time></trkpt><trkpt lat="37.92378" lon="15.8476017"><ele>27.0</ele><time>2026-04-21T15:21:44.303Z</time></trkpt><trkpt lat="37.9237383" lon="15.847355"><ele>28.333333333333336</ele><time>2026-04-21T15:21:45.303Z</time></trkpt><trkpt lat="37.9236917" lon="15.84712"><ele>29.666666666666668</ele><time>2026-04-21T15:21:46.302Z</time></trkpt><trkpt lat="37.92365" lon="15.8468683"><ele>31.0</ele><time>2026-04-21T15:21:47.303Z</time></trkpt><trkpt lat="37.9236117" lon="15.8466283"><ele>34.66666666666667</ele><time>2026-04-21T15:21:48.303Z</time></trkpt><trkpt lat="37.9235767" lon="15.846395"><ele>38.333333333333336</ele><time>2026-04-21T15:21:49.303Z</time></trkpt><trkpt lat="37.9235433" lon="15.84616"><ele>42.0</ele><time>2026-04-21T15:21:50.303Z</time></trkpt><trkpt lat="37.9235233" lon="15.8459167"><ele>43.666666666666664</ele><time>2026-04-21T15:21:51.302Z</time></trkpt><trkpt lat="37.9235017" lon="15.845655"><ele>45.33333333333333</ele><time>2026-04-21T15:21:52.303Z</time></trkpt><trkpt lat="37.923485" lon="15.8453967"><ele>47.0</ele><time>2026-04-21T15:21:53.303Z</time></trkpt><trkpt lat="37.9234633" lon="15.8451283"><ele>43.33333333333333</ele><time>2026-04-21T15:21:54.303Z</time></trkpt><trkpt lat="37.9234383" lon="15.8448583"><ele>39.666666666666664</ele><time>2026-04-21T15:21:55.303Z</time></trkpt><trkpt lat="37.9234117" lon="15.8445817"><ele>36.0</ele><time>2026-04-21T15:21:56.303Z</time></trkpt><trkpt lat="37.923395" lon="15.8443133"><ele>29.666666666666668</ele><time>2026-04-21T15:21:57.303Z</time></trkpt><trkpt lat="37.9233717" lon="15.8440567"><ele>23.333333333333336</ele><time>2026-04-21T15:21:58.302Z</time></trkpt><trkpt lat="37.9233433" lon="15.8437967"><ele>17.0</ele><time>2026-04-21T15:21:59.303Z</time></trkpt><trkpt lat="37.9233033" lon="15.8435483"><ele>17.0</ele><time>2026-04-21T15:22:00.303Z</time></trkpt><trkpt lat="37.9232633" lon="15.843295"><ele>17.0</ele><time>2026-04-21T15:22:01.303Z</time></trkpt><trkpt lat="37.9232217" lon="15.8430533"><ele>17.0</ele><time>2026-04-21T15:22:02.303Z</time></trkpt><trkpt lat="37.9231733" lon="15.8428117"><ele>18.666666666666668</ele><time>2026-04-21T15:22:03.303Z</time></trkpt><trkpt lat="37.92313" lon="15.8425617"><ele>20.333333333333332</ele><time>2026-04-21T15:22:04.302Z</time></trkpt><trkpt lat="37.9230867" lon="15.8423067"><ele>22.0</ele><time>2026-04-21T15:22:05.303Z</time></trkpt><trkpt lat="37.923045" lon="15.842055"><ele>22.333333333333332</ele><time>2026-04-21T15:22:06.303Z</time></trkpt><trkpt lat="37.9229917" lon="15.8417883"><ele>22.666666666666668</ele><time>2026-04-21T15:22:07.303Z</time></trkpt><trkpt lat="37.922945" lon="15.8415217"><ele>23.0</ele><time>2026-04-21T15:22:08.303Z</time></trkpt><trkpt lat="37.9229067" lon="15.8412467"><ele>23.0</ele><time>2026-04-21T15:22:09.303Z</time></trkpt><trkpt lat="37.922875" lon="15.8409817"><ele>23.0</ele><time>2026-04-21T15:22:10.302Z</time></trkpt><trkpt lat="37.9228533" lon="15.8407033"><ele>23.0</ele><time>2026-04-21T15:22:11.303Z</time></trkpt><trkpt lat="37.9228433" lon="15.84043"><ele>23.0</ele><time>2026-04-21T15:22:12.303Z</time></trkpt><trkpt lat="37.9228517" lon="15.84017"><ele>23.0</ele><time>2026-04-21T15:22:13.303Z</time></trkpt><trkpt lat="37.9228567" lon="15.839905"><ele>23.0</ele><time>2026-04-21T15:22:14.303Z</time></trkpt><trkpt lat="37.9228617" lon="15.8396383"><ele>19.666666666666668</ele><time>2026-04-21T15:22:15.303Z</time></trkpt><trkpt lat="37.92287" lon="15.839375"><ele>16.333333333333332</ele><time>2026-04-21T15:22:16.303Z</time></trkpt><trkpt lat="37.9228783" lon="15.839115"><ele>13.0</ele><time>2026-04-21T15:22:17.303Z</time></trkpt><trkpt lat="37.9228817" lon="15.8388567"><ele>13.0</ele><time>2026-04-21T15:22:18.303Z</time></trkpt><trkpt lat="37.9228867" lon="15.8385967"><ele>13.0</ele><time>2026-04-21T15:22:19.303Z</time></trkpt><trkpt lat="37.9228883" lon="15.8383383"><ele>13.0</ele><time>2026-04-21T15:22:20.303Z</time></trkpt><trkpt lat="37.92289" lon="15.8380783"><ele>13.333333333333332</ele><time>2026-04-21T15:22:21.303Z</time></trkpt><trkpt lat="37.9229" lon="15.8378333"><ele>13.666666666666668</ele><time>2026-04-21T15:22:22.303Z</time></trkpt><trkpt lat="37.9229033" lon="15.83758"><ele>14.0</ele><time>2026-04-21T15:22:23.303Z</time></trkpt><trkpt lat="37.9229067" lon="15.8373267"><ele>14.333333333333334</ele><time>2026-04-21T15:22:24.303Z</time></trkpt><trkpt lat="37.9229183" lon="15.8370817"><ele>14.666666666666668</ele><time>2026-04-21T15:22:25.303Z</time></trkpt><trkpt lat="37.922925" lon="15.83683"><ele>15.0</ele><time>2026-04-21T15:22:26.303Z</time></trkpt><trkpt lat="37.9229317" lon="15.83658"><ele>16.666666666666668</ele><time>2026-04-21T15:22:27.302Z</time></trkpt><trkpt lat="37.9229417" lon="15.836325"><ele>18.333333333333336</ele><time>2026-04-21T15:22:28.303Z</time></trkpt><trkpt lat="37.9229533" lon="15.8360733"><ele>20.0</ele><time>2026-04-21T15:22:29.303Z</time></trkpt><trkpt lat="37.9229583" lon="15.8358133"><ele>21.333333333333336</ele><time>2026-04-21T15:22:30.303Z</time></trkpt><trkpt lat="37.922955" lon="15.8355567"><ele>22.666666666666668</ele><time>2026-04-21T15:22:31.302Z</time></trkpt><trkpt lat="37.9229467" lon="15.8353083"><ele>24.0</ele><time>2026-04-21T15:22:32.303Z</time></trkpt><trkpt lat="37.9229333" lon="15.8350567"><ele>26.0</ele><time>2026-04-21T15:22:33.303Z</time></trkpt><trkpt lat="37.9229083" lon="15.834805"><ele>28.0</ele><time>2026-04-21T15:22:34.303Z</time></trkpt><trkpt lat="37.922865" lon="15.8345683"><ele>30.0</ele><time>2026-04-21T15:22:35.302Z</time></trkpt><trkpt lat="37.922825" lon="15.8343483"><ele>31.333333333333336</ele><time>2026-04-21T15:22:36.303Z</time></trkpt><trkpt lat="37.9227767" lon="15.8341617"><ele>32.66666666666667</ele><time>2026-04-21T15:22:37.303Z</time></trkpt><trkpt lat="37.9227317" lon="15.8339733"><ele>34.0</ele><time>2026-04-21T15:22:38.303Z</time></trkpt><trkpt lat="37.92268" lon="15.8337867"><ele>34.0</ele><time>2026-04-21T15:22:39.303Z</time></trkpt><trkpt lat="37.9226183" lon="15.8335917"><ele>34.0</ele><time>2026-04-21T15:22:40.303Z</time></trkpt><trkpt lat="37.9225533" lon="15.8334"><ele>34.0</ele><time>2026-04-21T15:22:41.303Z</time></trkpt><trkpt lat="37.9224883" lon="15.83319"><ele>35.0</ele><time>2026-04-21T15:22:42.303Z</time></trkpt><trkpt lat="37.92243" lon="15.832975"><ele>36.0</ele><time>2026-04-21T15:22:43.303Z</time></trkpt><trkpt lat="37.9223617" lon="15.8327617"><ele>37.0</ele><time>2026-04-21T15:22:44.303Z</time></trkpt><trkpt lat="37.922305" lon="15.832535"><ele>37.0</ele><time>2026-04-21T15:22:45.303Z</time></trkpt><trkpt lat="37.9222517" lon="15.8322917"><ele>37.0</ele><time>2026-04-21T15:22:46.302Z</time></trkpt><trkpt lat="37.9222067" lon="15.83205"><ele>37.0</ele><time>2026-04-21T15:22:47.303Z</time></trkpt><trkpt lat="37.922175" lon="15.8318283"><ele>37.66666666666667</ele><time>2026-04-21T15:22:48.303Z</time></trkpt><trkpt lat="37.92215" lon="15.8315817"><ele>38.333333333333336</ele><time>2026-04-21T15:22:49.303Z</time></trkpt><trkpt lat="37.9221383" lon="15.8313333"><ele>39.0</ele><time>2026-04-21T15:22:50.303Z</time></trkpt><trkpt lat="37.9221333" lon="15.8310817"><ele>37.666666666666664</ele><time>2026-04-21T15:22:51.303Z</time></trkpt><trkpt lat="37.9221317" lon="15.8308433"><ele>36.33333333333333</ele><time>2026-04-21T15:22:52.303Z</time></trkpt><trkpt lat="37.92212" lon="15.8305883"><ele>35.0</ele><time>2026-04-21T15:22:53.303Z</time></trkpt><trkpt lat="37.922115" lon="15.8303317"><ele>34.33333333333333</ele><time>2026-04-21T15:22:54.303Z</time></trkpt><trkpt lat="37.922105" lon="15.83007"><ele>33.666666666666664</ele><time>2026-04-21T15:22:55.303Z</time></trkpt><trkpt lat="37.9221017" lon="15.829815"><ele>33.0</ele><time>2026-04-21T15:22:56.302Z</time></trkpt><trkpt lat="37.9220983" lon="15.8295683"><ele>33.0</ele><time>2026-04-21T15:22:57.303Z</time></trkpt><trkpt lat="37.9220967" lon="15.8293167"><ele>33.0</ele><time>2026-04-21T15:22:58.303Z</time></trkpt><trkpt lat="37.9220917" lon="15.8290717"><ele>33.0</ele><time>2026-04-21T15:22:59.303Z</time></trkpt><trkpt lat="37.9220867" lon="15.8288267"><ele>32.0</ele><time>2026-04-21T15:23:00.303Z</time></trkpt><trkpt lat="37.9220833" lon="15.828585"><ele>31.0</ele><time>2026-04-21T15:23:01.303Z</time></trkpt><trkpt lat="37.92208" lon="15.82834"><ele>30.0</ele><time>2026-04-21T15:23:02.303Z</time></trkpt><trkpt lat="37.92207" lon="15.8280933"><ele>29.0</ele><time>2026-04-21T15:23:03.303Z</time></trkpt><trkpt lat="37.9220533" lon="15.8278433"><ele>28.0</ele><time>2026-04-21T15:23:04.303Z</time></trkpt><trkpt lat="37.922025" lon="15.8275883"><ele>27.0</ele><time>2026-04-21T15:23:05.303Z</time></trkpt><trkpt lat="37.9219867" lon="15.8273333"><ele>29.0</ele><time>2026-04-21T15:23:06.303Z</time></trkpt><trkpt lat="37.92194" lon="15.827085"><ele>31.0</ele><time>2026-04-21T15:23:07.303Z</time></trkpt><trkpt lat="37.92188" lon="15.8268333"><ele>33.0</ele><time>2026-04-21T15:23:08.303Z</time></trkpt><trkpt lat="37.9218083" lon="15.826595"><ele>32.666666666666664</ele><time>2026-04-21T15:23:09.303Z</time></trkpt><trkpt lat="37.92172" lon="15.8263517"><ele>32.33333333333333</ele><time>2026-04-21T15:23:10.303Z</time></trkpt><trkpt lat="37.9216267" lon="15.8261317"><ele>32.0</ele><time>2026-04-21T15:23:11.303Z</time></trkpt><trkpt lat="37.9215283" lon="15.8259033"><ele>32.0</ele><time>2026-04-21T15:23:12.303Z</time></trkpt><trkpt lat="37.9214283" lon="15.8256717"><ele>32.0</ele><time>2026-04-21T15:23:13.303Z</time></trkpt><trkpt lat="37.9213267" lon="15.8254383"><ele>32.0</ele><time>2026-04-21T15:23:14.303Z</time></trkpt><trkpt lat="37.9212267" lon="15.8252067"><ele>36.0</ele><time>2026-04-21T15:23:15.303Z</time></trkpt><trkpt lat="37.9211183" lon="15.8249583"><ele>40.0</ele><time>2026-04-21T15:23:16.303Z</time></trkpt><trkpt lat="37.9210117" lon="15.8247283"><ele>44.0</ele><time>2026-04-21T15:23:17.303Z</time></trkpt><trkpt lat="37.9209067" lon="15.8245033"><ele>36.0</ele><time>2026-04-21T15:23:18.303Z</time></trkpt><trkpt lat="37.9208033" lon="15.82426"><ele>28.0</ele><time>2026-04-21T15:23:19.303Z</time></trkpt><trkpt lat="37.92072" lon="15.8240183"><ele>20.0</ele><time>2026-04-21T15:23:20.303Z</time></trkpt><trkpt lat="37.9206417" lon="15.823775"><ele>20.0</ele><time>2026-04-21T15:23:21.303Z</time></trkpt><trkpt lat="37.9205867" lon="15.8235133"><ele>20.0</ele><time>2026-04-21T15:23:22.302Z</time></trkpt><trkpt lat="37.9205383" lon="15.8232533"><ele>20.0</ele><time>2026-04-21T15:23:23.303Z</time></trkpt><trkpt lat="37.9205133" lon="15.8229883"><ele>20.333333333333336</ele><time>2026-04-21T15:23:24.303Z</time></trkpt><trkpt lat="37.9204967" lon="15.822725"><ele>20.666666666666668</ele><time>2026-04-21T15:23:25.303Z</time></trkpt><trkpt lat="37.9204833" lon="15.82247"><ele>21.0</ele><time>2026-04-21T15:23:26.303Z</time></trkpt><trkpt lat="37.9204733" lon="15.822215"><ele>21.0</ele><time>2026-04-21T15:23:27.302Z</time></trkpt><trkpt lat="37.9204617" lon="15.821955"><ele>21.0</ele><time>2026-04-21T15:23:28.303Z</time></trkpt><trkpt lat="37.92045" lon="15.8217"><ele>21.0</ele><time>2026-04-21T15:23:29.303Z</time></trkpt><trkpt lat="37.9204433" lon="15.8214417"><ele>25.666666666666664</ele><time>2026-04-21T15:23:30.303Z</time></trkpt><trkpt lat="37.9204417" lon="15.8211883"><ele>30.333333333333332</ele><time>2026-04-21T15:23:31.303Z</time></trkpt><trkpt lat="37.920445" lon="15.82093"><ele>35.0</ele><time>2026-04-21T15:23:32.303Z</time></trkpt><trkpt lat="37.92045" lon="15.8206717"><ele>35.33333333333333</ele><time>2026-04-21T15:23:33.303Z</time></trkpt><trkpt lat="37.92046" lon="15.8204183"><ele>35.666666666666664</ele><time>2026-04-21T15:23:34.303Z</time></trkpt><trkpt lat="37.920475" lon="15.8201667"><ele>36.0</ele><time>2026-04-21T15:23:35.303Z</time></trkpt><trkpt lat="37.920485" lon="15.8199167"><ele>36.0</ele><time>2026-04-21T15:23:36.303Z</time></trkpt><trkpt lat="37.920495" lon="15.8196717"><ele>36.0</ele><time>2026-04-21T15:23:37.303Z</time></trkpt><trkpt lat="37.9205067" lon="15.8194183"><ele>36.0</ele><time>2026-04-21T15:23:38.303Z</time></trkpt><trkpt lat="37.9205217" lon="15.8191717"><ele>34.666666666666664</ele><time>2026-04-21T15:23:39.303Z</time></trkpt><trkpt lat="37.9205367" lon="15.81892"><ele>33.33333333333333</ele><time>2026-04-21T15:23:40.303Z</time></trkpt><trkpt lat="37.9205517" lon="15.8186667"><ele>32.0</ele><time>2026-04-21T15:23:41.303Z</time></trkpt><trkpt lat="37.92056" lon="15.8184"><ele>28.0</ele><time>2026-04-21T15:23:42.303Z</time></trkpt><trkpt lat="37.92058" lon="15.8181517"><ele>24.0</ele><time>2026-04-21T15:23:43.303Z</time></trkpt><trkpt lat="37.92059" lon="15.8178883"><ele>20.0</ele><time>2026-04-21T15:23:44.303Z</time></trkpt><trkpt lat="37.9206" lon="15.8176333"><ele>19.333333333333336</ele><time>2026-04-21T15:23:45.303Z</time></trkpt><trkpt lat="37.9206133" lon="15.817375"><ele>18.666666666666668</ele><time>2026-04-21T15:23:46.303Z</time></trkpt><trkpt lat="37.9206233" lon="15.8171133"><ele>18.0</ele><time>2026-04-21T15:23:47.303Z</time></trkpt><trkpt lat="37.92063" lon="15.8168533"><ele>20.0</ele><time>2026-04-21T15:23:48.303Z</time></trkpt><trkpt lat="37.9206433" lon="15.8166017"><ele>22.0</ele><time>2026-04-21T15:23:49.303Z</time></trkpt><trkpt lat="37.9206567" lon="15.8163483"><ele>24.0</ele><time>2026-04-21T15:23:50.303Z</time></trkpt><trkpt lat="37.9206683" lon="15.8160883"><ele>21.0</ele><time>2026-04-21T15:23:51.302Z</time></trkpt><trkpt lat="37.9206833" lon="15.8158283"><ele>18.0</ele><time>2026-04-21T15:23:52.303Z</time></trkpt><trkpt lat="37.9206867" lon="15.8155783"><ele>15.0</ele><time>2026-04-21T15:23:53.303Z</time></trkpt><trkpt lat="37.9207017" lon="15.81535"><ele>13.333333333333334</ele><time>2026-04-21T15:23:54.303Z</time></trkpt><trkpt lat="37.9207133" lon="15.8151117"><ele>11.666666666666668</ele><time>2026-04-21T15:23:55.303Z</time></trkpt><trkpt lat="37.920725" lon="15.8148583"><ele>10.0</ele><time>2026-04-21T15:23:56.303Z</time></trkpt><trkpt lat="37.9207383" lon="15.8146"><ele>10.0</ele><time>2026-04-21T15:23:57.303Z</time></trkpt><trkpt lat="37.920755" lon="15.8143367"><ele>10.0</ele><time>2026-04-21T15:23:58.303Z</time></trkpt><trkpt lat="37.92076" lon="15.8140833"><ele>10.0</ele><time>2026-04-21T15:23:59.303Z</time></trkpt><trkpt lat="37.9207667" lon="15.813825"><ele>10.333333333333334</ele><time>2026-04-21T15:24:00.303Z</time></trkpt><trkpt lat="37.92078" lon="15.8135783"><ele>10.666666666666666</ele><time>2026-04-21T15:24:01.303Z</time></trkpt><trkpt lat="37.9207983" lon="15.8133283"><ele>11.0</ele><time>2026-04-21T15:24:02.303Z</time></trkpt><trkpt lat="37.920815" lon="15.8130767"><ele>11.0</ele><time>2026-04-21T15:24:03.303Z</time></trkpt><trkpt lat="37.920815" lon="15.8128033"><ele>11.0</ele><time>2026-04-21T15:24:04.302Z</time></trkpt><trkpt lat="37.92082" lon="15.8125367"><ele>11.0</ele><time>2026-04-21T15:24:05.303Z</time></trkpt><trkpt lat="37.9208283" lon="15.8122867"><ele>11.333333333333332</ele><time>2026-04-21T15:24:06.303Z</time></trkpt><trkpt lat="37.92083" lon="15.8120167"><ele>11.666666666666666</ele><time>2026-04-21T15:24:07.303Z</time></trkpt><trkpt lat="37.9208283" lon="15.811755"><ele>12.0</ele><time>2026-04-21T15:24:08.303Z</time></trkpt><trkpt lat="37.9208317" lon="15.811495"><ele>11.333333333333334</ele><time>2026-04-21T15:24:09.303Z</time></trkpt><trkpt lat="37.9208267" lon="15.8112267"><ele>10.666666666666668</ele><time>2026-04-21T15:24:10.303Z</time></trkpt><trkpt lat="37.920825" lon="15.8109483"><ele>10.0</ele><time>2026-04-21T15:24:11.303Z</time></trkpt><trkpt lat="37.9208233" lon="15.8106783"><ele>10.0</ele><time>2026-04-21T15:24:12.303Z</time></trkpt><trkpt lat="37.920825" lon="15.8104017"><ele>10.0</ele><time>2026-04-21T15:24:13.303Z</time></trkpt><trkpt lat="37.920825" lon="15.81013"><ele>10.0</ele><time>2026-04-21T15:24:14.303Z</time></trkpt><trkpt lat="37.92083" lon="15.8098617"><ele>10.0</ele><time>2026-04-21T15:24:15.303Z</time></trkpt><trkpt lat="37.9208367" lon="15.8095817"><ele>10.0</ele><time>2026-04-21T15:24:16.303Z</time></trkpt><trkpt lat="37.9208333" lon="15.8093083"><ele>10.0</ele><time>2026-04-21T15:24:17.303Z</time></trkpt><trkpt lat="37.9208433" lon="15.8090367"><ele>10.333333333333334</ele><time>2026-04-21T15:24:18.303Z</time></trkpt><trkpt lat="37.9208533" lon="15.80877"><ele>10.666666666666666</ele><time>2026-04-21T15:24:19.303Z</time></trkpt><trkpt lat="37.920855" lon="15.808505"><ele>11.0</ele><time>2026-04-21T15:24:20.303Z</time></trkpt><trkpt lat="37.920865" lon="15.808245"><ele>11.333333333333332</ele><time>2026-04-21T15:24:21.303Z</time></trkpt><trkpt lat="37.9208667" lon="15.8079917"><ele>11.666666666666666</ele><time>2026-04-21T15:24:22.303Z</time></trkpt><trkpt lat="37.9208717" lon="15.8077467"><ele>12.0</ele><time>2026-04-21T15:24:23.303Z</time></trkpt><trkpt lat="37.920875" lon="15.8075067"><ele>12.333333333333332</ele><time>2026-04-21T15:24:24.303Z</time></trkpt><trkpt lat="37.9208717" lon="15.8072667"><ele>12.666666666666666</ele><time>2026-04-21T15:24:25.303Z</time></trkpt><trkpt lat="37.9208717" lon="15.8070383"><ele>13.0</ele><time>2026-04-21T15:24:26.303Z</time></trkpt><trkpt lat="37.9208717" lon="15.806825"><ele>12.333333333333332</ele><time>2026-04-21T15:24:27.303Z</time></trkpt><trkpt lat="37.9208733" lon="15.8066183"><ele>11.666666666666666</ele><time>2026-04-21T15:24:28.303Z</time></trkpt><trkpt lat="37.9208733" lon="15.8063983"><ele>11.0</ele><time>2026-04-21T15:24:29.303Z</time></trkpt><trkpt lat="37.9208667" lon="15.8061767"><ele>10.666666666666666</ele><time>2026-04-21T15:24:30.303Z</time></trkpt><trkpt lat="37.9208583" lon="15.8059467"><ele>10.333333333333334</ele><time>2026-04-21T15:24:31.303Z</time></trkpt><trkpt lat="37.9208483" lon="15.8057133"><ele>10.0</ele><time>2026-04-21T15:24:32.303Z</time></trkpt><trkpt lat="37.9208433" lon="15.8054767"><ele>10.0</ele><time>2026-04-21T15:24:33.303Z</time></trkpt><trkpt lat="37.920845" lon="15.8052383"><ele>10.0</ele><time>2026-04-21T15:24:34.302Z</time></trkpt><trkpt lat="37.9208467" lon="15.80499"><ele>10.0</ele><time>2026-04-21T15:24:35.303Z</time></trkpt><trkpt lat="37.9208467" lon="15.8047383"><ele>9.666666666666668</ele><time>2026-04-21T15:24:36.303Z</time></trkpt><trkpt lat="37.9208417" lon="15.8045"><ele>9.333333333333334</ele><time>2026-04-21T15:24:37.303Z</time></trkpt><trkpt lat="37.9208417" lon="15.804265"><ele>9.0</ele><time>2026-04-21T15:24:38.303Z</time></trkpt><trkpt lat="37.920835" lon="15.804025"><ele>8.75</ele><time>2026-04-21T15:24:39.303Z</time></trkpt><trkpt lat="37.9208317" lon="15.8038117"><ele>8.5</ele><time>2026-04-21T15:24:40.303Z</time></trkpt><trkpt lat="37.92083" lon="15.8036133"><ele>8.25</ele><time>2026-04-21T15:24:41.303Z</time></trkpt><trkpt lat="37.9208467" lon="15.8034633"><ele>8.0</ele><time>2026-04-21T15:24:42.302Z</time></trkpt><trkpt lat="37.9208617" lon="15.80334"><ele>9.0</ele><time>2026-04-21T15:24:43.303Z</time></trkpt><trkpt lat="37.9208967" lon="15.8032583"><ele>10.0</ele><time>2026-04-21T15:24:44.302Z</time></trkpt><trkpt lat="37.9209383" lon="15.8031967"><ele>11.0</ele><time>2026-04-21T15:24:45.302Z</time></trkpt><trkpt lat="37.920985" lon="15.8030917"><ele>12.0</ele><time>2026-04-21T15:24:47.303Z</time></trkpt><trkpt lat="37.9209617" lon="15.8029633"><ele>13.0</ele><time>2026-04-21T15:24:49.303Z</time></trkpt><trkpt lat="37.9209033" lon="15.8028183"><ele>13.0</ele><time>2026-04-21T15:24:51.303Z</time></trkpt><trkpt lat="37.9208717" lon="15.8027267"><ele>13.0</ele><time>2026-04-21T15:24:52.303Z</time></trkpt><trkpt lat="37.920855" lon="15.8026017"><ele>13.0</ele><time>2026-04-21T15:24:53.303Z</time></trkpt><trkpt lat="37.92085" lon="15.8024433"><ele>13.0</ele><time>2026-04-21T15:24:54.303Z</time></trkpt><trkpt lat="37.92085" lon="15.802265"><ele>13.0</ele><time>2026-04-21T15:24:55.303Z</time></trkpt><trkpt lat="37.9208467" lon="15.8020867"><ele>13.333333333333332</ele><time>2026-04-21T15:24:56.303Z</time></trkpt><trkpt lat="37.9208417" lon="15.801905"><ele>13.666666666666668</ele><time>2026-04-21T15:24:57.303Z</time></trkpt><trkpt lat="37.920835" lon="15.8017067"><ele>14.0</ele><time>2026-04-21T15:24:58.302Z</time></trkpt><trkpt lat="37.92083" lon="15.8015033"><ele>14.666666666666668</ele><time>2026-04-21T15:24:59.303Z</time></trkpt><trkpt lat="37.92082" lon="15.8012917"><ele>15.333333333333332</ele><time>2026-04-21T15:25:00.302Z</time></trkpt><trkpt lat="37.9208083" lon="15.80107"><ele>16.0</ele><time>2026-04-21T15:25:01.303Z</time></trkpt><trkpt lat="37.9208017" lon="15.8008167"><ele>17.0</ele><time>2026-04-21T15:25:02.303Z</time></trkpt><trkpt lat="37.9207833" lon="15.8005333"><ele>18.0</ele><time>2026-04-21T15:25:03.303Z</time></trkpt><trkpt lat="37.9207733" lon="15.800215"><ele>18.5</ele><time>2026-04-21T15:25:04.303Z</time></trkpt><trkpt lat="37.92076" lon="15.7998733"><ele>19.0</ele><time>2026-04-21T15:25:05.303Z</time></trkpt><trkpt lat="37.9207433" lon="15.7994933"><ele>18.5</ele><time>2026-04-21T15:25:06.303Z</time></trkpt><trkpt lat="37.9207267" lon="15.7990917"><ele>18.0</ele><time>2026-04-21T15:25:07.303Z</time></trkpt><trkpt lat="37.9207083" lon="15.798665"><ele>18.5</ele><time>2026-04-21T15:25:08.303Z</time></trkpt><trkpt lat="37.92068" lon="15.7982267"><ele>19.0</ele><time>2026-04-21T15:25:09.303Z</time></trkpt><trkpt lat="37.9206517" lon="15.7977667"><ele>20.0</ele><time>2026-04-21T15:25:10.303Z</time></trkpt><trkpt lat="37.9206183" lon="15.7973033"><ele>21.0</ele><time>2026-04-21T15:25:11.303Z</time></trkpt><trkpt lat="37.920595" lon="15.7968467"><ele>23.0</ele><time>2026-04-21T15:25:12.303Z</time></trkpt><trkpt lat="37.9205767" lon="15.7964033"><ele>25.0</ele><time>2026-04-21T15:25:13.303Z</time></trkpt><trkpt lat="37.920555" lon="15.796"><ele>27.5</ele><time>2026-04-21T15:25:14.303Z</time></trkpt><trkpt lat="37.9205333" lon="15.7956217"><ele>30.0</ele><time>2026-04-21T15:25:15.303Z</time></trkpt><trkpt lat="37.92051" lon="15.7952667"><ele>29.5</ele><time>2026-04-21T15:25:16.303Z</time></trkpt><trkpt lat="37.92051" lon="15.7949417"><ele>29.0</ele><time>2026-04-21T15:25:17.303Z</time></trkpt><trkpt lat="37.920515" lon="15.7946267"><ele>29.0</ele><time>2026-04-21T15:25:18.303Z</time></trkpt><trkpt lat="37.9205317" lon="15.7943183"><ele>29.0</ele><time>2026-04-21T15:25:19.303Z</time></trkpt><trkpt lat="37.9205767" lon="15.7940317"><ele>29.0</ele><time>2026-04-21T15:25:20.303Z</time></trkpt><trkpt lat="37.920635" lon="15.7937317"><ele>29.0</ele><time>2026-04-21T15:25:21.303Z</time></trkpt><trkpt lat="37.9207133" lon="15.7934517"><ele>30.5</ele><time>2026-04-21T15:25:22.303Z</time></trkpt><trkpt lat="37.9208" lon="15.79317"><ele>32.0</ele><time>2026-04-21T15:25:23.303Z</time></trkpt><trkpt lat="37.9209217" lon="15.7928967"><ele>29.0</ele><time>2026-04-21T15:25:24.303Z</time></trkpt><trkpt lat="37.921035" lon="15.7926133"><ele>26.0</ele><time>2026-04-21T15:25:25.303Z</time></trkpt><trkpt lat="37.9211533" lon="15.7923317"><ele>26.0</ele><time>2026-04-21T15:25:26.303Z</time></trkpt><trkpt lat="37.9212733" lon="15.7920417"><ele>26.0</ele><time>2026-04-21T15:25:27.303Z</time></trkpt><trkpt lat="37.9213967" lon="15.791755"><ele>21.5</ele><time>2026-04-21T15:25:28.303Z</time></trkpt><trkpt lat="37.9215167" lon="15.79147"><ele>17.0</ele><time>2026-04-21T15:25:29.302Z</time></trkpt><trkpt lat="37.9216367" lon="15.79119"><ele>18.0</ele><time>2026-04-21T15:25:30.303Z</time></trkpt><trkpt lat="37.921745" lon="15.7909117"><ele>19.0</ele><time>2026-04-21T15:25:31.302Z</time></trkpt><trkpt lat="37.921855" lon="15.7906433"><ele>19.0</ele><time>2026-04-21T15:25:32.303Z</time></trkpt><trkpt lat="37.9219567" lon="15.790375"><ele>19.0</ele><time>2026-04-21T15:25:33.302Z</time></trkpt><trkpt lat="37.9220667" lon="15.7901133"><ele>19.666666666666664</ele><time>2026-04-21T15:25:34.303Z</time></trkpt><trkpt lat="37.92217" lon="15.7898667"><ele>20.333333333333332</ele><time>2026-04-21T15:25:35.303Z</time></trkpt><trkpt lat="37.9222667" lon="15.7896167"><ele>21.0</ele><time>2026-04-21T15:25:36.303Z</time></trkpt><trkpt lat="37.9223683" lon="15.789365"><ele>21.0</ele><time>2026-04-21T15:25:37.303Z</time></trkpt><trkpt lat="37.922465" lon="15.7891117"><ele>21.0</ele><time>2026-04-21T15:25:38.303Z</time></trkpt><trkpt lat="37.9225733" lon="15.78886"><ele>21.0</ele><time>2026-04-21T15:25:39.302Z</time></trkpt><trkpt lat="37.9226783" lon="15.7886067"><ele>23.5</ele><time>2026-04-21T15:25:40.303Z</time></trkpt><trkpt lat="37.92278" lon="15.7883417"><ele>26.0</ele><time>2026-04-21T15:25:41.302Z</time></trkpt><trkpt lat="37.92289" lon="15.7880783"><ele>26.0</ele><time>2026-04-21T15:25:42.303Z</time></trkpt><trkpt lat="37.9229883" lon="15.7877933"><ele>26.0</ele><time>2026-04-21T15:25:43.303Z</time></trkpt><trkpt lat="37.92309" lon="15.787515"><ele>29.5</ele><time>2026-04-21T15:25:44.302Z</time></trkpt><trkpt lat="37.9231883" lon="15.7872183"><ele>33.0</ele><time>2026-04-21T15:25:45.303Z</time></trkpt><trkpt lat="37.9232867" lon="15.7869533"><ele>38.0</ele><time>2026-04-21T15:25:46.303Z</time></trkpt><trkpt lat="37.9233767" lon="15.786675"><ele>43.0</ele><time>2026-04-21T15:25:47.303Z</time></trkpt><trkpt lat="37.9234717" lon="15.7864"><ele>50.5</ele><time>2026-04-21T15:25:48.303Z</time></trkpt><trkpt lat="37.923565" lon="15.7861233"><ele>58.0</ele><time>2026-04-21T15:25:49.303Z</time></trkpt><trkpt lat="37.92366" lon="15.7858417"><ele>69.0</ele><time>2026-04-21T15:25:50.303Z</time></trkpt><trkpt lat="37.9237533" lon="15.7855617"><ele>80.0</ele><time>2026-04-21T15:25:51.303Z</time></trkpt><trkpt lat="37.9238483" lon="15.7852783"><ele>57.0</ele><time>2026-04-21T15:25:52.303Z</time></trkpt><trkpt lat="37.9239367" lon="15.7821183"><ele>57.0</ele><time>2026-04-21T15:26:04.316Z</time></trkpt><trkpt lat="37.92415" lon="15.7819967"><ele>57.0</ele><time>2026-04-21T15:26:05.316Z</time></trkpt><trkpt lat="37.9242183" lon="15.781855"><ele>57.0</ele><time>2026-04-21T15:26:06.316Z</time></trkpt><trkpt lat="37.9242483" lon="15.7816817"><ele>55.400000000000006</ele><time>2026-04-21T15:26:07.316Z</time></trkpt><trkpt lat="37.9242833" lon="15.7815483"><ele>53.800000000000004</ele><time>2026-04-21T15:26:08.316Z</time></trkpt><trkpt lat="37.9243383" lon="15.7814233"><ele>52.2</ele><time>2026-04-21T15:26:09.316Z</time></trkpt><trkpt lat="37.9244067" lon="15.7813283"><ele>50.6</ele><time>2026-04-21T15:26:10.315Z</time></trkpt><trkpt lat="37.9244633" lon="15.781225"><ele>49.0</ele><time>2026-04-21T15:26:11.316Z</time></trkpt><trkpt lat="37.924505" lon="15.7811133"><ele>46.25</ele><time>2026-04-21T15:26:12.315Z</time></trkpt><trkpt lat="37.924525" lon="15.7810067"><ele>43.5</ele><time>2026-04-21T15:26:13.316Z</time></trkpt><trkpt lat="37.9245167" lon="15.780875"><ele>40.75</ele><time>2026-04-21T15:26:14.315Z</time></trkpt><trkpt lat="37.9244867" lon="15.7807233"><ele>38.0</ele><time>2026-04-21T15:26:15.316Z</time></trkpt><trkpt lat="37.92445" lon="15.780555"><ele>38.0</ele><time>2026-04-21T15:26:16.316Z</time></trkpt><trkpt lat="37.9244233" lon="15.7803667"><ele>38.0</ele><time>2026-04-21T15:26:17.316Z</time></trkpt><trkpt lat="37.9244017" lon="15.7801717"><ele>38.0</ele><time>2026-04-21T15:26:18.316Z</time></trkpt><trkpt lat="37.92438" lon="15.7799833"><ele>37.5</ele><time>2026-04-21T15:26:19.316Z</time></trkpt><trkpt lat="37.9243533" lon="15.7798067"><ele>37.0</ele><time>2026-04-21T15:26:20.316Z</time></trkpt><trkpt lat="37.924325" lon="15.7796417"><ele>36.5</ele><time>2026-04-21T15:26:21.316Z</time></trkpt><trkpt lat="37.9242967" lon="15.7794733"><ele>36.0</ele><time>2026-04-21T15:26:22.316Z</time></trkpt><trkpt lat="37.92426" lon="15.7793083"><ele>36.333333333333336</ele><time>2026-04-21T15:26:23.316Z</time></trkpt><trkpt lat="37.9242033" lon="15.7791217"><ele>36.66666666666667</ele><time>2026-04-21T15:26:24.316Z</time></trkpt><trkpt lat="37.9241317" lon="15.7789367"><ele>37.0</ele><time>2026-04-21T15:26:25.315Z</time></trkpt><trkpt lat="37.92405" lon="15.778755"><ele>37.0</ele><time>2026-04-21T15:26:26.316Z</time></trkpt><trkpt lat="37.9239567" lon="15.7785733"><ele>37.0</ele><time>2026-04-21T15:26:27.316Z</time></trkpt><trkpt lat="37.9238517" lon="15.77838"><ele>37.0</ele><time>2026-04-21T15:26:28.316Z</time></trkpt><trkpt lat="37.92374" lon="15.7781683"><ele>38.333333333333336</ele><time>2026-04-21T15:26:29.316Z</time></trkpt><trkpt lat="37.923635" lon="15.77795"><ele>39.666666666666664</ele><time>2026-04-21T15:26:30.316Z</time></trkpt><trkpt lat="37.9235283" lon="15.7777317"><ele>41.0</ele><time>2026-04-21T15:26:31.316Z</time></trkpt><trkpt lat="37.923415" lon="15.7775217"><ele>37.666666666666664</ele><time>2026-04-21T15:26:32.316Z</time></trkpt><trkpt lat="37.9233" lon="15.777305"><ele>34.333333333333336</ele><time>2026-04-21T15:26:33.316Z</time></trkpt><trkpt lat="37.9231817" lon="15.7770833"><ele>31.0</ele><time>2026-04-21T15:26:34.316Z</time></trkpt><trkpt lat="37.923065" lon="15.77686"><ele>30.666666666666668</ele><time>2026-04-21T15:26:35.316Z</time></trkpt><trkpt lat="37.9229533" lon="15.7766317"><ele>30.333333333333336</ele><time>2026-04-21T15:26:36.315Z</time></trkpt><trkpt lat="37.92284" lon="15.7764033"><ele>30.0</ele><time>2026-04-21T15:26:37.316Z</time></trkpt><trkpt lat="37.922735" lon="15.776175"><ele>30.333333333333336</ele><time>2026-04-21T15:26:38.316Z</time></trkpt><trkpt lat="37.9226417" lon="15.7759217"><ele>30.666666666666668</ele><time>2026-04-21T15:26:39.316Z</time></trkpt><trkpt lat="37.92256" lon="15.775665"><ele>31.0</ele><time>2026-04-21T15:26:40.316Z</time></trkpt><trkpt lat="37.9224967" lon="15.775405"><ele>32.66666666666667</ele><time>2026-04-21T15:26:41.316Z</time></trkpt><trkpt lat="37.922455" lon="15.77514"><ele>34.333333333333336</ele><time>2026-04-21T15:26:42.315Z</time></trkpt><trkpt lat="37.9224267" lon="15.7748717"><ele>36.0</ele><time>2026-04-21T15:26:43.316Z</time></trkpt><trkpt lat="37.9224083" lon="15.7745767"><ele>34.666666666666664</ele><time>2026-04-21T15:26:44.316Z</time></trkpt><trkpt lat="37.922395" lon="15.77429"><ele>33.33333333333333</ele><time>2026-04-21T15:26:45.316Z</time></trkpt><trkpt lat="37.9223983" lon="15.7740083"><ele>32.0</ele><time>2026-04-21T15:26:46.316Z</time></trkpt><trkpt lat="37.92242" lon="15.77374"><ele>31.333333333333332</ele><time>2026-04-21T15:26:47.315Z</time></trkpt><trkpt lat="37.9224383" lon="15.7734683"><ele>30.666666666666664</ele><time>2026-04-21T15:26:48.316Z</time></trkpt><trkpt lat="37.9224617" lon="15.7732083"><ele>30.0</ele><time>2026-04-21T15:26:49.316Z</time></trkpt><trkpt lat="37.922485" lon="15.77294"><ele>29.666666666666664</ele><time>2026-04-21T15:26:50.316Z</time></trkpt><trkpt lat="37.92251" lon="15.7726783"><ele>29.333333333333332</ele><time>2026-04-21T15:26:51.316Z</time></trkpt><trkpt lat="37.922535" lon="15.772395"><ele>29.0</ele><time>2026-04-21T15:26:52.315Z</time></trkpt><trkpt lat="37.922555" lon="15.772115"><ele>27.666666666666664</ele><time>2026-04-21T15:26:53.316Z</time></trkpt><trkpt lat="37.9225633" lon="15.7718367"><ele>26.333333333333336</ele><time>2026-04-21T15:26:54.316Z</time></trkpt><trkpt lat="37.92256" lon="15.7715533"><ele>25.0</ele><time>2026-04-21T15:26:55.316Z</time></trkpt><trkpt lat="37.9225467" lon="15.7712583"><ele>23.0</ele><time>2026-04-21T15:26:56.316Z</time></trkpt><trkpt lat="37.9225283" lon="15.7709683"><ele>21.0</ele><time>2026-04-21T15:26:57.315Z</time></trkpt><trkpt lat="37.9225117" lon="15.7706783"><ele>21.0</ele><time>2026-04-21T15:26:58.316Z</time></trkpt><trkpt lat="37.9224917" lon="15.7703883"><ele>21.0</ele><time>2026-04-21T15:26:59.316Z</time></trkpt><trkpt lat="37.9224717" lon="15.7700967"><ele>21.333333333333332</ele><time>2026-04-21T15:27:00.316Z</time></trkpt><trkpt lat="37.92245" lon="15.7698117"><ele>21.666666666666664</ele><time>2026-04-21T15:27:01.316Z</time></trkpt><trkpt lat="37.92243" lon="15.7695433"><ele>22.0</ele><time>2026-04-21T15:27:02.316Z</time></trkpt><trkpt lat="37.922405" lon="15.7692717"><ele>23.666666666666664</ele><time>2026-04-21T15:27:03.316Z</time></trkpt><trkpt lat="37.92239" lon="15.768995"><ele>25.333333333333332</ele><time>2026-04-21T15:27:04.316Z</time></trkpt><trkpt lat="37.92237" lon="15.7687183"><ele>27.0</ele><time>2026-04-21T15:27:05.316Z</time></trkpt><trkpt lat="37.9223517" lon="15.7684517"><ele>29.0</ele><time>2026-04-21T15:27:06.316Z</time></trkpt><trkpt lat="37.9223483" lon="15.7681867"><ele>31.0</ele><time>2026-04-21T15:27:07.315Z</time></trkpt><trkpt lat="37.9223467" lon="15.7679033"><ele>33.0</ele><time>2026-04-21T15:27:08.316Z</time></trkpt><trkpt lat="37.922365" lon="15.7676267"><ele>33.0</ele><time>2026-04-21T15:27:09.316Z</time></trkpt><trkpt lat="37.9223783" lon="15.76735"><ele>33.0</ele><time>2026-04-21T15:27:10.316Z</time></trkpt><trkpt lat="37.922425" lon="15.7670833"><ele>33.0</ele><time>2026-04-21T15:27:11.316Z</time></trkpt><trkpt lat="37.9224833" lon="15.7668283"><ele>31.666666666666664</ele><time>2026-04-21T15:27:12.316Z</time></trkpt><trkpt lat="37.922555" lon="15.7665767"><ele>30.333333333333332</ele><time>2026-04-21T15:27:13.316Z</time></trkpt><trkpt lat="37.9226267" lon="15.7663267"><ele>29.0</ele><time>2026-04-21T15:27:14.316Z</time></trkpt><trkpt lat="37.9227067" lon="15.7660767"><ele>31.333333333333332</ele><time>2026-04-21T15:27:15.316Z</time></trkpt><trkpt lat="37.9227867" lon="15.765825"><ele>33.666666666666664</ele><time>2026-04-21T15:27:16.316Z</time></trkpt><trkpt lat="37.9228567" lon="15.76558"><ele>36.0</ele><time>2026-04-21T15:27:17.316Z</time></trkpt><trkpt lat="37.92293" lon="15.765335"><ele>35.0</ele><time>2026-04-21T15:27:18.316Z</time></trkpt><trkpt lat="37.9229967" lon="15.7650933"><ele>34.0</ele><time>2026-04-21T15:27:19.316Z</time></trkpt><trkpt lat="37.923065" lon="15.7648583"><ele>33.0</ele><time>2026-04-21T15:27:20.316Z</time></trkpt><trkpt lat="37.9231267" lon="15.7646317"><ele>33.0</ele><time>2026-04-21T15:27:21.316Z</time></trkpt><trkpt lat="37.9231883" lon="15.7644083"><ele>33.0</ele><time>2026-04-21T15:27:22.315Z</time></trkpt><trkpt lat="37.9232617" lon="15.764185"><ele>33.0</ele><time>2026-04-21T15:27:23.316Z</time></trkpt><trkpt lat="37.9233317" lon="15.7639617"><ele>35.333333333333336</ele><time>2026-04-21T15:27:24.316Z</time></trkpt><trkpt lat="37.9233983" lon="15.7637333"><ele>37.66666666666667</ele><time>2026-04-21T15:27:25.316Z</time></trkpt><trkpt lat="37.9234733" lon="15.7634983"><ele>40.0</ele><time>2026-04-21T15:27:26.316Z</time></trkpt><trkpt lat="37.9235617" lon="15.763285"><ele>40.0</ele><time>2026-04-21T15:27:27.316Z</time></trkpt><trkpt lat="37.923655" lon="15.7630617"><ele>40.0</ele><time>2026-04-21T15:27:28.316Z</time></trkpt><trkpt lat="37.923765" lon="15.7628467"><ele>40.0</ele><time>2026-04-21T15:27:29.316Z</time></trkpt><trkpt lat="37.9238767" lon="15.7626267"><ele>37.333333333333336</ele><time>2026-04-21T15:27:30.316Z</time></trkpt><trkpt lat="37.9239867" lon="15.7624217"><ele>34.666666666666664</ele><time>2026-04-21T15:27:31.316Z</time></trkpt><trkpt lat="37.924095" lon="15.7622033"><ele>32.0</ele><time>2026-04-21T15:27:32.316Z</time></trkpt><trkpt lat="37.9242133" lon="15.761975"><ele>30.0</ele><time>2026-04-21T15:27:33.316Z</time></trkpt><trkpt lat="37.9243383" lon="15.76175"><ele>28.0</ele><time>2026-04-21T15:27:34.316Z</time></trkpt><trkpt lat="37.92446" lon="15.7615317"><ele>26.0</ele><time>2026-04-21T15:27:35.315Z</time></trkpt><trkpt lat="37.9245783" lon="15.7613067"><ele>26.0</ele><time>2026-04-21T15:27:36.316Z</time></trkpt><trkpt lat="37.9246967" lon="15.7610867"><ele>26.0</ele><time>2026-04-21T15:27:37.316Z</time></trkpt><trkpt lat="37.9248117" lon="15.76087"><ele>26.0</ele><time>2026-04-21T15:27:38.316Z</time></trkpt><trkpt lat="37.924925" lon="15.7606517"><ele>27.333333333333332</ele><time>2026-04-21T15:27:39.316Z</time></trkpt><trkpt lat="37.925035" lon="15.760435"><ele>28.666666666666664</ele><time>2026-04-21T15:27:40.316Z</time></trkpt><trkpt lat="37.9251467" lon="15.7602217"><ele>30.0</ele><time>2026-04-21T15:27:41.316Z</time></trkpt><trkpt lat="37.925265" lon="15.76001"><ele>31.0</ele><time>2026-04-21T15:27:42.316Z</time></trkpt><trkpt lat="37.92538" lon="15.7598033"><ele>32.0</ele><time>2026-04-21T15:27:43.316Z</time></trkpt><trkpt lat="37.9255017" lon="15.7595883"><ele>33.0</ele><time>2026-04-21T15:27:44.316Z</time></trkpt><trkpt lat="37.9256183" lon="15.7593683"><ele>32.666666666666664</ele><time>2026-04-21T15:27:45.316Z</time></trkpt><trkpt lat="37.9257367" lon="15.7591533"><ele>32.33333333333333</ele><time>2026-04-21T15:27:46.316Z</time></trkpt><trkpt lat="37.9258467" lon="15.7589467"><ele>32.0</ele><time>2026-04-21T15:27:47.316Z</time></trkpt><trkpt lat="37.9259567" lon="15.7587333"><ele>33.0</ele><time>2026-04-21T15:27:48.316Z</time></trkpt><trkpt lat="37.9260733" lon="15.75852"><ele>34.0</ele><time>2026-04-21T15:27:49.316Z</time></trkpt><trkpt lat="37.9261883" lon="15.7583017"><ele>35.0</ele><time>2026-04-21T15:27:50.316Z</time></trkpt><trkpt lat="37.9262983" lon="15.75808"><ele>35.0</ele><time>2026-04-21T15:27:51.316Z</time></trkpt><trkpt lat="37.9264267" lon="15.757855"><ele>35.0</ele><time>2026-04-21T15:27:52.315Z</time></trkpt><trkpt lat="37.9265467" lon="15.7576367"><ele>35.0</ele><time>2026-04-21T15:27:53.315Z</time></trkpt><trkpt lat="37.9266667" lon="15.7574183"><ele>35.33333333333333</ele><time>2026-04-21T15:27:54.316Z</time></trkpt><trkpt lat="37.9267817" lon="15.7572017"><ele>35.666666666666664</ele><time>2026-04-21T15:27:55.316Z</time></trkpt><trkpt lat="37.9268983" lon="15.7569917"><ele>36.0</ele><time>2026-04-21T15:27:56.316Z</time></trkpt><trkpt lat="37.927015" lon="15.7567767"><ele>35.333333333333336</ele><time>2026-04-21T15:27:57.315Z</time></trkpt><trkpt lat="37.92713" lon="15.7565633"><ele>34.66666666666667</ele><time>2026-04-21T15:27:58.316Z</time></trkpt><trkpt lat="37.9272383" lon="15.7563483"><ele>34.0</ele><time>2026-04-21T15:27:59.316Z</time></trkpt><trkpt lat="37.9273417" lon="15.756125"><ele>34.0</ele><time>2026-04-21T15:28:00.316Z</time></trkpt><trkpt lat="37.927445" lon="15.7559083"><ele>34.0</ele><time>2026-04-21T15:28:01.316Z</time></trkpt><trkpt lat="37.9275467" lon="15.7556833"><ele>34.0</ele><time>2026-04-21T15:28:02.316Z</time></trkpt><trkpt lat="37.9276417" lon="15.75545"><ele>34.66666666666667</ele><time>2026-04-21T15:28:03.316Z</time></trkpt><trkpt lat="37.927745" lon="15.755215"><ele>35.333333333333336</ele><time>2026-04-21T15:28:04.316Z</time></trkpt><trkpt lat="37.927845" lon="15.75498"><ele>36.0</ele><time>2026-04-21T15:28:05.316Z</time></trkpt><trkpt lat="37.9279467" lon="15.7547433"><ele>36.0</ele><time>2026-04-21T15:28:06.316Z</time></trkpt><trkpt lat="37.9280433" lon="15.7545067"><ele>36.0</ele><time>2026-04-21T15:28:07.316Z</time></trkpt><trkpt lat="37.928145" lon="15.754265"><ele>36.0</ele><time>2026-04-21T15:28:08.316Z</time></trkpt><trkpt lat="37.928245" lon="15.754025"><ele>35.333333333333336</ele><time>2026-04-21T15:28:09.316Z</time></trkpt><trkpt lat="37.9283433" lon="15.7537817"><ele>34.66666666666667</ele><time>2026-04-21T15:28:10.316Z</time></trkpt><trkpt lat="37.9284433" lon="15.753545"><ele>34.0</ele><time>2026-04-21T15:28:11.315Z</time></trkpt><trkpt lat="37.9285383" lon="15.7533117"><ele>34.66666666666667</ele><time>2026-04-21T15:28:12.316Z</time></trkpt><trkpt lat="37.928635" lon="15.7530867"><ele>35.333333333333336</ele><time>2026-04-21T15:28:13.316Z</time></trkpt><trkpt lat="37.9287367" lon="15.7528433"><ele>36.0</ele><time>2026-04-21T15:28:14.315Z</time></trkpt><trkpt lat="37.9288367" lon="15.752615"><ele>36.0</ele><time>2026-04-21T15:28:15.315Z</time></trkpt><trkpt lat="37.9289367" lon="15.7523783"><ele>36.0</ele><time>2026-04-21T15:28:16.316Z</time></trkpt><trkpt lat="37.92904" lon="15.7521417"><ele>36.0</ele><time>2026-04-21T15:28:17.316Z</time></trkpt><trkpt lat="37.9291367" lon="15.7519"><ele>35.333333333333336</ele><time>2026-04-21T15:28:18.316Z</time></trkpt><trkpt lat="37.9292333" lon="15.751665"><ele>34.66666666666667</ele><time>2026-04-21T15:28:19.316Z</time></trkpt><trkpt lat="37.9293367" lon="15.75143"><ele>34.0</ele><time>2026-04-21T15:28:20.316Z</time></trkpt><trkpt lat="37.92943" lon="15.7511917"><ele>33.333333333333336</ele><time>2026-04-21T15:28:21.316Z</time></trkpt><trkpt lat="37.929515" lon="15.7509483"><ele>32.666666666666664</ele><time>2026-04-21T15:28:22.316Z</time></trkpt><trkpt lat="37.9296033" lon="15.7507067"><ele>32.0</ele><time>2026-04-21T15:28:23.316Z</time></trkpt><trkpt lat="37.9296917" lon="15.7504633"><ele>32.0</ele><time>2026-04-21T15:28:24.316Z</time></trkpt><trkpt lat="37.9297667" lon="15.7502217"><ele>32.0</ele><time>2026-04-21T15:28:25.316Z</time></trkpt><trkpt lat="37.9298367" lon="15.7499717"><ele>32.0</ele><time>2026-04-21T15:28:26.316Z</time></trkpt><trkpt lat="37.9299033" lon="15.74973"><ele>31.666666666666664</ele><time>2026-04-21T15:28:27.316Z</time></trkpt><trkpt lat="37.9299667" lon="15.7494833"><ele>31.333333333333336</ele><time>2026-04-21T15:28:28.316Z</time></trkpt><trkpt lat="37.9300167" lon="15.7492367"><ele>31.0</ele><time>2026-04-21T15:28:29.315Z</time></trkpt><trkpt lat="37.9300717" lon="15.7489917"><ele>32.0</ele><time>2026-04-21T15:28:30.315Z</time></trkpt><trkpt lat="37.9301267" lon="15.748755"><ele>33.0</ele><time>2026-04-21T15:28:31.316Z</time></trkpt><trkpt lat="37.93018" lon="15.7485233"><ele>34.0</ele><time>2026-04-21T15:28:32.316Z</time></trkpt><trkpt lat="37.9302367" lon="15.7482933"><ele>34.0</ele><time>2026-04-21T15:28:33.316Z</time></trkpt><trkpt lat="37.9302933" lon="15.7480567"><ele>34.0</ele><time>2026-04-21T15:28:34.315Z</time></trkpt><trkpt lat="37.93035" lon="15.74782"><ele>34.0</ele><time>2026-04-21T15:28:35.315Z</time></trkpt><trkpt lat="37.930405" lon="15.7475833"><ele>33.0</ele><time>2026-04-21T15:28:36.316Z</time></trkpt><trkpt lat="37.9304533" lon="15.747345"><ele>32.0</ele><time>2026-04-21T15:28:37.316Z</time></trkpt><trkpt lat="37.9305067" lon="15.7471083"><ele>31.0</ele><time>2026-04-21T15:28:38.316Z</time></trkpt><trkpt lat="37.93056" lon="15.7468667"><ele>30.666666666666668</ele><time>2026-04-21T15:28:39.316Z</time></trkpt><trkpt lat="37.9306183" lon="15.7466133"><ele>30.333333333333336</ele><time>2026-04-21T15:28:40.316Z</time></trkpt><trkpt lat="37.9306783" lon="15.7463517"><ele>30.0</ele><time>2026-04-21T15:28:41.316Z</time></trkpt><trkpt lat="37.93074" lon="15.7460883"><ele>30.0</ele><time>2026-04-21T15:28:42.316Z</time></trkpt><trkpt lat="37.9308067" lon="15.7458267"><ele>30.0</ele><time>2026-04-21T15:28:43.316Z</time></trkpt><trkpt lat="37.9308683" lon="15.7455567"><ele>30.0</ele><time>2026-04-21T15:28:44.316Z</time></trkpt><trkpt lat="37.93093" lon="15.745285"><ele>28.5</ele><time>2026-04-21T15:28:45.316Z</time></trkpt><trkpt lat="37.9309967" lon="15.745005"><ele>27.0</ele><time>2026-04-21T15:28:46.316Z</time></trkpt><trkpt lat="37.93106" lon="15.7447217"><ele>27.0</ele><time>2026-04-21T15:28:47.316Z</time></trkpt><trkpt lat="37.931125" lon="15.7444383"><ele>27.0</ele><time>2026-04-21T15:28:48.316Z</time></trkpt><trkpt lat="37.9311883" lon="15.7441667"><ele>27.0</ele><time>2026-04-21T15:28:49.316Z</time></trkpt><trkpt lat="37.9312517" lon="15.74391"><ele>27.0</ele><time>2026-04-21T15:28:50.316Z</time></trkpt><trkpt lat="37.931315" lon="15.7436483"><ele>27.0</ele><time>2026-04-21T15:28:51.316Z</time></trkpt><trkpt lat="37.9313717" lon="15.743395"><ele>28.0</ele><time>2026-04-21T15:28:52.316Z</time></trkpt><trkpt lat="37.9314283" lon="15.7431483"><ele>29.0</ele><time>2026-04-21T15:28:53.316Z</time></trkpt><trkpt lat="37.9314783" lon="15.7429083"><ele>30.0</ele><time>2026-04-21T15:28:54.316Z</time></trkpt><trkpt lat="37.9315333" lon="15.74268"><ele>30.333333333333336</ele><time>2026-04-21T15:28:55.316Z</time></trkpt><trkpt lat="37.9315867" lon="15.74247"><ele>30.666666666666668</ele><time>2026-04-21T15:28:56.316Z</time></trkpt><trkpt lat="37.931625" lon="15.7422717"><ele>31.0</ele><time>2026-04-21T15:28:57.316Z</time></trkpt><trkpt lat="37.9316717" lon="15.74208"><ele>31.0</ele><time>2026-04-21T15:28:58.316Z</time></trkpt><trkpt lat="37.9317167" lon="15.7418933"><ele>31.0</ele><time>2026-04-21T15:28:59.316Z</time></trkpt><trkpt lat="37.9317633" lon="15.7416967"><ele>31.0</ele><time>2026-04-21T15:29:00.316Z</time></trkpt><trkpt lat="37.9318117" lon="15.7414933"><ele>31.333333333333336</ele><time>2026-04-21T15:29:01.316Z</time></trkpt><trkpt lat="37.93186" lon="15.741285"><ele>31.666666666666664</ele><time>2026-04-21T15:29:02.316Z</time></trkpt><trkpt lat="37.93191" lon="15.7410683"><ele>32.0</ele><time>2026-04-21T15:29:03.316Z</time></trkpt><trkpt lat="37.9319583" lon="15.740855"><ele>32.0</ele><time>2026-04-21T15:29:04.316Z</time></trkpt><trkpt lat="37.9320067" lon="15.7406483"><ele>32.0</ele><time>2026-04-21T15:29:05.316Z</time></trkpt><trkpt lat="37.932055" lon="15.7404367"><ele>32.0</ele><time>2026-04-21T15:29:06.316Z</time></trkpt><trkpt lat="37.9321017" lon="15.7402233"><ele>31.666666666666664</ele><time>2026-04-21T15:29:07.316Z</time></trkpt><trkpt lat="37.93215" lon="15.7400133"><ele>31.333333333333336</ele><time>2026-04-21T15:29:08.316Z</time></trkpt><trkpt lat="37.9321967" lon="15.7398033"><ele>31.0</ele><time>2026-04-21T15:29:09.316Z</time></trkpt><trkpt lat="37.93225" lon="15.73959"><ele>31.0</ele><time>2026-04-21T15:29:10.316Z</time></trkpt><trkpt lat="37.9323" lon="15.739375"><ele>31.0</ele><time>2026-04-21T15:29:11.316Z</time></trkpt><trkpt lat="37.932355" lon="15.739155"><ele>31.0</ele><time>2026-04-21T15:29:12.316Z</time></trkpt><trkpt lat="37.93241" lon="15.7389283"><ele>31.0</ele><time>2026-04-21T15:29:13.316Z</time></trkpt><trkpt lat="37.9324617" lon="15.7386983"><ele>31.0</ele><time>2026-04-21T15:29:14.316Z</time></trkpt><trkpt lat="37.9325183" lon="15.7384633"><ele>31.0</ele><time>2026-04-21T15:29:15.316Z</time></trkpt><trkpt lat="37.9325767" lon="15.7382267"><ele>33.333333333333336</ele><time>2026-04-21T15:29:16.316Z</time></trkpt><trkpt lat="37.9326367" lon="15.737995"><ele>35.666666666666664</ele><time>2026-04-21T15:29:17.316Z</time></trkpt><trkpt lat="37.9326883" lon="15.7377583"><ele>38.0</ele><time>2026-04-21T15:29:18.316Z</time></trkpt><trkpt lat="37.93274" lon="15.7375167"><ele>38.33333333333333</ele><time>2026-04-21T15:29:19.316Z</time></trkpt><trkpt lat="37.932795" lon="15.73728"><ele>38.666666666666664</ele><time>2026-04-21T15:29:20.316Z</time></trkpt><trkpt lat="37.93285" lon="15.7370433"><ele>39.0</ele><time>2026-04-21T15:29:21.315Z</time></trkpt><trkpt lat="37.932905" lon="15.7368117"><ele>39.0</ele><time>2026-04-21T15:29:22.316Z</time></trkpt><trkpt lat="37.9329567" lon="15.7365717"><ele>39.0</ele><time>2026-04-21T15:29:23.316Z</time></trkpt><trkpt lat="37.9330183" lon="15.7363417"><ele>39.0</ele><time>2026-04-21T15:29:24.316Z</time></trkpt><trkpt lat="37.9330683" lon="15.736115"><ele>37.0</ele><time>2026-04-21T15:29:25.316Z</time></trkpt><trkpt lat="37.9331167" lon="15.7358883"><ele>35.0</ele><time>2026-04-21T15:29:26.316Z</time></trkpt><trkpt lat="37.9331683" lon="15.7356533"><ele>33.0</ele><time>2026-04-21T15:29:27.316Z</time></trkpt><trkpt lat="37.9332183" lon="15.7354217"><ele>32.333333333333336</ele><time>2026-04-21T15:29:28.316Z</time></trkpt><trkpt lat="37.933275" lon="15.735195"><ele>31.666666666666668</ele><time>2026-04-21T15:29:29.316Z</time></trkpt><trkpt lat="37.933325" lon="15.7349683"><ele>31.0</ele><time>2026-04-21T15:29:30.315Z</time></trkpt><trkpt lat="37.9333733" lon="15.7347417"><ele>33.333333333333336</ele><time>2026-04-21T15:29:31.316Z</time></trkpt><trkpt lat="37.9334267" lon="15.7345167"><ele>35.666666666666664</ele><time>2026-04-21T15:29:32.316Z</time></trkpt><trkpt lat="37.933485" lon="15.7342883"><ele>38.0</ele><time>2026-04-21T15:29:33.316Z</time></trkpt><trkpt lat="37.93354" lon="15.7340633"><ele>38.0</ele><time>2026-04-21T15:29:34.316Z</time></trkpt><trkpt lat="37.9335933" lon="15.7338367"><ele>38.0</ele><time>2026-04-21T15:29:35.316Z</time></trkpt><trkpt lat="37.933645" lon="15.733605"><ele>38.0</ele><time>2026-04-21T15:29:36.316Z</time></trkpt><trkpt lat="37.9337017" lon="15.7333633"><ele>35.33333333333333</ele><time>2026-04-21T15:29:37.316Z</time></trkpt><trkpt lat="37.93376" lon="15.733115"><ele>32.666666666666664</ele><time>2026-04-21T15:29:38.316Z</time></trkpt><trkpt lat="37.9338183" lon="15.7328617"><ele>30.0</ele><time>2026-04-21T15:29:39.315Z</time></trkpt><trkpt lat="37.933875" lon="15.732605"><ele>29.0</ele><time>2026-04-21T15:29:40.315Z</time></trkpt><trkpt lat="37.9339333" lon="15.7323467"><ele>28.0</ele><time>2026-04-21T15:29:41.316Z</time></trkpt><trkpt lat="37.9339967" lon="15.73208"><ele>27.0</ele><time>2026-04-21T15:29:42.316Z</time></trkpt><trkpt lat="37.9340583" lon="15.7318117"><ele>25.5</ele><time>2026-04-21T15:29:43.316Z</time></trkpt><trkpt lat="37.9341217" lon="15.7315367"><ele>24.0</ele><time>2026-04-21T15:29:44.316Z</time></trkpt><trkpt lat="37.9341867" lon="15.7312583"><ele>23.5</ele><time>2026-04-21T15:29:45.316Z</time></trkpt><trkpt lat="37.9342483" lon="15.730985"><ele>23.0</ele><time>2026-04-21T15:29:46.316Z</time></trkpt><trkpt lat="37.9343167" lon="15.7307117"><ele>23.0</ele><time>2026-04-21T15:29:47.316Z</time></trkpt><trkpt lat="37.93438" lon="15.7304467"><ele>23.0</ele><time>2026-04-21T15:29:48.316Z</time></trkpt><trkpt lat="37.9344467" lon="15.73018"><ele>23.0</ele><time>2026-04-21T15:29:49.316Z</time></trkpt><trkpt lat="37.9345183" lon="15.72992"><ele>21.666666666666668</ele><time>2026-04-21T15:29:50.315Z</time></trkpt><trkpt lat="37.9345967" lon="15.7296617"><ele>20.333333333333332</ele><time>2026-04-21T15:29:51.316Z</time></trkpt><trkpt lat="37.9346833" lon="15.7294183"><ele>19.0</ele><time>2026-04-21T15:29:52.316Z</time></trkpt><trkpt lat="37.9347717" lon="15.7291817"><ele>18.333333333333332</ele><time>2026-04-21T15:29:53.316Z</time></trkpt><trkpt lat="37.9348667" lon="15.7289483"><ele>17.666666666666668</ele><time>2026-04-21T15:29:54.316Z</time></trkpt><trkpt lat="37.9349617" lon="15.728715"><ele>17.0</ele><time>2026-04-21T15:29:55.315Z</time></trkpt><trkpt lat="37.9350583" lon="15.7284783"><ele>16.666666666666668</ele><time>2026-04-21T15:29:56.316Z</time></trkpt><trkpt lat="37.935155" lon="15.7282417"><ele>16.333333333333332</ele><time>2026-04-21T15:29:57.316Z</time></trkpt><trkpt lat="37.935255" lon="15.72801"><ele>16.0</ele><time>2026-04-21T15:29:58.316Z</time></trkpt><trkpt lat="37.935345" lon="15.7277667"><ele>15.333333333333332</ele><time>2026-04-21T15:29:59.316Z</time></trkpt><trkpt lat="37.9354417" lon="15.7275317"><ele>14.666666666666668</ele><time>2026-04-21T15:30:00.316Z</time></trkpt><trkpt lat="37.935545" lon="15.727285"><ele>14.0</ele><time>2026-04-21T15:30:01.316Z</time></trkpt><trkpt lat="37.9356433" lon="15.72705"><ele>13.333333333333334</ele><time>2026-04-21T15:30:02.316Z</time></trkpt><trkpt lat="37.9357383" lon="15.726815"><ele>12.666666666666668</ele><time>2026-04-21T15:30:03.315Z</time></trkpt><trkpt lat="37.935835" lon="15.7265767"><ele>12.0</ele><time>2026-04-21T15:30:04.316Z</time></trkpt><trkpt lat="37.9359333" lon="15.7263383"><ele>11.666666666666666</ele><time>2026-04-21T15:30:05.316Z</time></trkpt><trkpt lat="37.9360267" lon="15.7261033"><ele>11.333333333333332</ele><time>2026-04-21T15:30:06.316Z</time></trkpt><trkpt lat="37.9361383" lon="15.7258683"><ele>11.0</ele><time>2026-04-21T15:30:07.316Z</time></trkpt><trkpt lat="37.9362417" lon="15.72563"><ele>10.666666666666666</ele><time>2026-04-21T15:30:08.316Z</time></trkpt><trkpt lat="37.93634" lon="15.7253933"><ele>10.333333333333334</ele><time>2026-04-21T15:30:09.316Z</time></trkpt><trkpt lat="37.9364383" lon="15.7251567"><ele>10.0</ele><time>2026-04-21T15:30:10.316Z</time></trkpt><trkpt lat="37.9365317" lon="15.724915"><ele>10.0</ele><time>2026-04-21T15:30:11.316Z</time></trkpt><trkpt lat="37.936625" lon="15.72467"><ele>10.0</ele><time>2026-04-21T15:30:12.316Z</time></trkpt><trkpt lat="37.9367217" lon="15.724435"><ele>10.0</ele><time>2026-04-21T15:30:13.316Z</time></trkpt><trkpt lat="37.936815" lon="15.7241967"><ele>10.333333333333334</ele><time>2026-04-21T15:30:14.315Z</time></trkpt><trkpt lat="37.93691" lon="15.7239683"><ele>10.666666666666666</ele><time>2026-04-21T15:30:15.316Z</time></trkpt><trkpt lat="37.9370017" lon="15.7237467"><ele>11.0</ele><time>2026-04-21T15:30:16.316Z</time></trkpt><trkpt lat="37.93709" lon="15.72353"><ele>10.333333333333332</ele><time>2026-04-21T15:30:17.316Z</time></trkpt><trkpt lat="37.93718" lon="15.723315"><ele>9.666666666666666</ele><time>2026-04-21T15:30:18.316Z</time></trkpt><trkpt lat="37.9372567" lon="15.7230883"><ele>9.0</ele><time>2026-04-21T15:30:19.316Z</time></trkpt><trkpt lat="37.9373233" lon="15.7228567"><ele>8.333333333333334</ele><time>2026-04-21T15:30:20.316Z</time></trkpt><trkpt lat="37.9373817" lon="15.722615"><ele>7.666666666666667</ele><time>2026-04-21T15:30:21.316Z</time></trkpt><trkpt lat="37.937425" lon="15.7223683"><ele>7.0</ele><time>2026-04-21T15:30:22.315Z</time></trkpt><trkpt lat="37.937455" lon="15.72212"><ele>7.0</ele><time>2026-04-21T15:30:23.316Z</time></trkpt><trkpt lat="37.9374833" lon="15.721875"><ele>7.0</ele><time>2026-04-21T15:30:24.316Z</time></trkpt><trkpt lat="37.9375083" lon="15.721625"><ele>7.0</ele><time>2026-04-21T15:30:25.315Z</time></trkpt><trkpt lat="37.9375317" lon="15.7213717"><ele>8.0</ele><time>2026-04-21T15:30:26.316Z</time></trkpt><trkpt lat="37.9375717" lon="15.72112"><ele>9.0</ele><time>2026-04-21T15:30:27.316Z</time></trkpt><trkpt lat="37.9376017" lon="15.7208717"><ele>10.0</ele><time>2026-04-21T15:30:28.316Z</time></trkpt><trkpt lat="37.93763" lon="15.7206217"><ele>10.0</ele><time>2026-04-21T15:30:29.316Z</time></trkpt><trkpt lat="37.93766" lon="15.7203717"><ele>10.0</ele><time>2026-04-21T15:30:30.316Z</time></trkpt><trkpt lat="37.93769" lon="15.720115"><ele>10.0</ele><time>2026-04-21T15:30:31.316Z</time></trkpt><trkpt lat="37.9377217" lon="15.7198633"><ele>9.0</ele><time>2026-04-21T15:30:32.315Z</time></trkpt><trkpt lat="37.93775" lon="15.71961"><ele>8.0</ele><time>2026-04-21T15:30:33.316Z</time></trkpt><trkpt lat="37.93778" lon="15.7193467"><ele>7.0</ele><time>2026-04-21T15:30:34.316Z</time></trkpt><trkpt lat="37.9378067" lon="15.7190683"><ele>7.0</ele><time>2026-04-21T15:30:35.316Z</time></trkpt><trkpt lat="37.9378383" lon="15.718775"><ele>7.0</ele><time>2026-04-21T15:30:36.316Z</time></trkpt><trkpt lat="37.9378683" lon="15.7184667"><ele>6.0</ele><time>2026-04-21T15:30:37.315Z</time></trkpt><trkpt lat="37.937905" lon="15.71815"><ele>5.0</ele><time>2026-04-21T15:30:38.316Z</time></trkpt><trkpt lat="37.9379417" lon="15.71782"><ele>5.5</ele><time>2026-04-21T15:30:39.316Z</time></trkpt><trkpt lat="37.9379767" lon="15.71748"><ele>6.0</ele><time>2026-04-21T15:30:40.315Z</time></trkpt><trkpt lat="37.9380233" lon="15.7171383"><ele>7.5</ele><time>2026-04-21T15:30:41.316Z</time></trkpt><trkpt lat="37.9380717" lon="15.7168017"><ele>9.0</ele><time>2026-04-21T15:30:42.316Z</time></trkpt><trkpt lat="37.9381233" lon="15.7164783"><ele>9.0</ele><time>2026-04-21T15:30:43.316Z</time></trkpt><trkpt lat="37.938185" lon="15.71617"><ele>9.0</ele><time>2026-04-21T15:30:44.316Z</time></trkpt><trkpt lat="37.93826" lon="15.7158717"><ele>9.5</ele><time>2026-04-21T15:30:45.316Z</time></trkpt><trkpt lat="37.9383433" lon="15.715585"><ele>10.0</ele><time>2026-04-21T15:30:46.316Z</time></trkpt><trkpt lat="37.9384317" lon="15.7153"><ele>10.5</ele><time>2026-04-21T15:30:47.316Z</time></trkpt><trkpt lat="37.9385167" lon="15.7150283"><ele>11.0</ele><time>2026-04-21T15:30:48.316Z</time></trkpt><trkpt lat="37.9386033" lon="15.714755"><ele>11.0</ele><time>2026-04-21T15:30:49.315Z</time></trkpt><trkpt lat="37.9386917" lon="15.714465"><ele>11.0</ele><time>2026-04-21T15:30:50.316Z</time></trkpt><trkpt lat="37.938785" lon="15.714165"><ele>12.0</ele><time>2026-04-21T15:30:51.316Z</time></trkpt><trkpt lat="37.9388833" lon="15.71385"><ele>13.0</ele><time>2026-04-21T15:30:52.316Z</time></trkpt><trkpt lat="37.9389867" lon="15.713545"><ele>14.0</ele><time>2026-04-21T15:30:53.316Z</time></trkpt><trkpt lat="37.9390817" lon="15.7132483"><ele>15.0</ele><time>2026-04-21T15:30:54.316Z</time></trkpt><trkpt lat="37.9391667" lon="15.7129633"><ele>16.0</ele><time>2026-04-21T15:30:55.316Z</time></trkpt><trkpt lat="37.9392583" lon="15.7126933"><ele>17.0</ele><time>2026-04-21T15:30:56.316Z</time></trkpt><trkpt lat="37.9393433" lon="15.7124283"><ele>17.0</ele><time>2026-04-21T15:30:57.315Z</time></trkpt><trkpt lat="37.93942" lon="15.7121717"><ele>17.0</ele><time>2026-04-21T15:30:58.316Z</time></trkpt><trkpt lat="37.9394967" lon="15.71193"><ele>17.0</ele><time>2026-04-21T15:30:59.316Z</time></trkpt><trkpt lat="37.9395717" lon="15.7117067"><ele>15.666666666666668</ele><time>2026-04-21T15:31:00.316Z</time></trkpt><trkpt lat="37.9396433" lon="15.7114967"><ele>14.333333333333332</ele><time>2026-04-21T15:31:01.316Z</time></trkpt><trkpt lat="37.939715" lon="15.7112867"><ele>13.0</ele><time>2026-04-21T15:31:02.316Z</time></trkpt><trkpt lat="37.9397817" lon="15.7110633"><ele>12.666666666666666</ele><time>2026-04-21T15:31:03.316Z</time></trkpt><trkpt lat="37.9398433" lon="15.7108383"><ele>12.333333333333332</ele><time>2026-04-21T15:31:04.316Z</time></trkpt><trkpt lat="37.9399083" lon="15.71061"><ele>12.0</ele><time>2026-04-21T15:31:05.316Z</time></trkpt><trkpt lat="37.939985" lon="15.7103733"><ele>12.666666666666668</ele><time>2026-04-21T15:31:06.316Z</time></trkpt><trkpt lat="37.9400633" lon="15.7101283"><ele>13.333333333333334</ele><time>2026-04-21T15:31:07.316Z</time></trkpt><trkpt lat="37.94014" lon="15.70989"><ele>14.0</ele><time>2026-04-21T15:31:08.315Z</time></trkpt><trkpt lat="37.9402167" lon="15.709655"><ele>14.0</ele><time>2026-04-21T15:31:09.316Z</time></trkpt><trkpt lat="37.9403017" lon="15.7094117"><ele>14.0</ele><time>2026-04-21T15:31:10.316Z</time></trkpt><trkpt lat="37.9404017" lon="15.7091683"><ele>14.0</ele><time>2026-04-21T15:31:11.316Z</time></trkpt><trkpt lat="37.9405083" lon="15.70893"><ele>13.0</ele><time>2026-04-21T15:31:12.316Z</time></trkpt><trkpt lat="37.9406283" lon="15.7086983"><ele>12.0</ele><time>2026-04-21T15:31:13.316Z</time></trkpt><trkpt lat="37.940765" lon="15.7084783"><ele>11.0</ele><time>2026-04-21T15:31:14.316Z</time></trkpt><trkpt lat="37.9409067" lon="15.7082717"><ele>11.0</ele><time>2026-04-21T15:31:15.316Z</time></trkpt><trkpt lat="37.9410617" lon="15.70806"><ele>11.0</ele><time>2026-04-21T15:31:16.316Z</time></trkpt><trkpt lat="37.941225" lon="15.7078517"><ele>11.5</ele><time>2026-04-21T15:31:17.316Z</time></trkpt><trkpt lat="37.9413917" lon="15.7076417"><ele>12.0</ele><time>2026-04-21T15:31:18.315Z</time></trkpt><trkpt lat="37.9415617" lon="15.7074217"><ele>12.0</ele><time>2026-04-21T15:31:19.316Z</time></trkpt><trkpt lat="37.9417433" lon="15.7071983"><ele>12.0</ele><time>2026-04-21T15:31:20.316Z</time></trkpt><trkpt lat="37.941935" lon="15.7069683"><ele>12.0</ele><time>2026-04-21T15:31:21.316Z</time></trkpt><trkpt lat="37.9421267" lon="15.7067267"><ele>12.0</ele><time>2026-04-21T15:31:22.316Z</time></trkpt><trkpt lat="37.9423233" lon="15.70649"><ele>12.0</ele><time>2026-04-21T15:31:23.316Z</time></trkpt><trkpt lat="37.942515" lon="15.706265"><ele>12.0</ele><time>2026-04-21T15:31:24.316Z</time></trkpt><trkpt lat="37.942705" lon="15.706045"><ele>11.5</ele><time>2026-04-21T15:31:25.316Z</time></trkpt><trkpt lat="37.942895" lon="15.7058267"><ele>11.0</ele><time>2026-04-21T15:31:26.316Z</time></trkpt><trkpt lat="37.9430833" lon="15.7056133"><ele>11.0</ele><time>2026-04-21T15:31:27.316Z</time></trkpt><trkpt lat="37.9432617" lon="15.705405"><ele>11.0</ele><time>2026-04-21T15:31:28.316Z</time></trkpt><trkpt lat="37.94342" lon="15.7052067"><ele>12.0</ele><time>2026-04-21T15:31:29.316Z</time></trkpt><trkpt lat="37.9435667" lon="15.70502"><ele>13.0</ele><time>2026-04-21T15:31:30.316Z</time></trkpt><trkpt lat="37.9436983" lon="15.70485"><ele>14.0</ele><time>2026-04-21T15:31:31.316Z</time></trkpt><trkpt lat="37.943815" lon="15.7047083"><ele>14.0</ele><time>2026-04-21T15:31:32.316Z</time></trkpt><trkpt lat="37.9439333" lon="15.7045717"><ele>14.0</ele><time>2026-04-21T15:31:33.315Z</time></trkpt><trkpt lat="37.9440417" lon="15.70446"><ele>14.0</ele><time>2026-04-21T15:31:34.316Z</time></trkpt><trkpt lat="37.9441417" lon="15.7043717"><ele>14.0</ele><time>2026-04-21T15:31:35.316Z</time></trkpt><trkpt lat="37.944255" lon="15.7043133"><ele>15.399999999999999</ele><time>2026-04-21T15:31:36.316Z</time></trkpt><trkpt lat="37.944365" lon="15.704265"><ele>16.799999999999997</ele><time>2026-04-21T15:31:37.316Z</time></trkpt><trkpt lat="37.944455" lon="15.7042117"><ele>18.200000000000003</ele><time>2026-04-21T15:31:38.316Z</time></trkpt><trkpt lat="37.94452" lon="15.7041267"><ele>19.6</ele><time>2026-04-21T15:31:39.315Z</time></trkpt><trkpt lat="37.9445433" lon="15.704005"><ele>21.0</ele><time>2026-04-21T15:31:40.316Z</time></trkpt><trkpt lat="37.9445517" lon="15.7038583"><ele>21.0</ele><time>2026-04-21T15:31:41.316Z</time></trkpt><trkpt lat="37.944595" lon="15.7037"><ele>21.0</ele><time>2026-04-21T15:31:42.316Z</time></trkpt><trkpt lat="37.9446633" lon="15.7035517"><ele>21.0</ele><time>2026-04-21T15:31:43.316Z</time></trkpt><trkpt lat="37.944755" lon="15.703415"><ele>21.0</ele><time>2026-04-21T15:31:44.316Z</time></trkpt><trkpt lat="37.944865" lon="15.7032683"><ele>20.0</ele><time>2026-04-21T15:31:45.316Z</time></trkpt><trkpt lat="37.944975" lon="15.7031183"><ele>19.0</ele><time>2026-04-21T15:31:46.316Z</time></trkpt><trkpt lat="37.945085" lon="15.7029683"><ele>18.0</ele><time>2026-04-21T15:31:47.316Z</time></trkpt><trkpt lat="37.945205" lon="15.70281"><ele>17.333333333333332</ele><time>2026-04-21T15:31:48.316Z</time></trkpt><trkpt lat="37.94534" lon="15.7026367"><ele>16.666666666666664</ele><time>2026-04-21T15:31:49.315Z</time></trkpt><trkpt lat="37.945485" lon="15.7024617"><ele>16.0</ele><time>2026-04-21T15:31:50.316Z</time></trkpt><trkpt lat="37.945635" lon="15.7022767"><ele>16.0</ele><time>2026-04-21T15:31:51.316Z</time></trkpt><trkpt lat="37.9457833" lon="15.702085"><ele>16.0</ele><time>2026-04-21T15:31:52.316Z</time></trkpt><trkpt lat="37.9459417" lon="15.7018783"><ele>16.0</ele><time>2026-04-21T15:31:53.316Z</time></trkpt><trkpt lat="37.946105" lon="15.7016733"><ele>15.5</ele><time>2026-04-21T15:31:54.316Z</time></trkpt><trkpt lat="37.9462683" lon="15.7014483"><ele>15.0</ele><time>2026-04-21T15:31:55.316Z</time></trkpt><trkpt lat="37.946445" lon="15.7012117"><ele>15.0</ele><time>2026-04-21T15:31:56.316Z</time></trkpt><trkpt lat="37.9466283" lon="15.7009633"><ele>15.0</ele><time>2026-04-21T15:31:57.316Z</time></trkpt><trkpt lat="37.9468133" lon="15.7007217"><ele>15.0</ele><time>2026-04-21T15:31:58.316Z</time></trkpt><trkpt lat="37.946995" lon="15.7004767"><ele>15.0</ele><time>2026-04-21T15:31:59.316Z</time></trkpt><trkpt lat="37.9471767" lon="15.7002467"><ele>12.0</ele><time>2026-04-21T15:32:00.316Z</time></trkpt><trkpt lat="37.947355" lon="15.7000167"><ele>9.0</ele><time>2026-04-21T15:32:01.316Z</time></trkpt><trkpt lat="37.9475267" lon="15.6997867"><ele>9.5</ele><time>2026-04-21T15:32:02.316Z</time></trkpt><trkpt lat="37.9477033" lon="15.6995567"><ele>10.0</ele><time>2026-04-21T15:32:03.316Z</time></trkpt><trkpt lat="37.9478767" lon="15.6993267"><ele>8.5</ele><time>2026-04-21T15:32:04.316Z</time></trkpt><trkpt lat="37.9480483" lon="15.6991083"><ele>7.0</ele><time>2026-04-21T15:32:05.316Z</time></trkpt><trkpt lat="37.948215" lon="15.698885"><ele>8.0</ele><time>2026-04-21T15:32:06.316Z</time></trkpt><trkpt lat="37.9483817" lon="15.69867"><ele>9.0</ele><time>2026-04-21T15:32:07.316Z</time></trkpt><trkpt lat="37.9485567" lon="15.6984483"><ele>9.0</ele><time>2026-04-21T15:32:08.316Z</time></trkpt><trkpt lat="37.9487333" lon="15.6982333"><ele>9.0</ele><time>2026-04-21T15:32:09.316Z</time></trkpt><trkpt lat="37.9489067" lon="15.6980183"><ele>9.0</ele><time>2026-04-21T15:32:10.316Z</time></trkpt><trkpt lat="37.9490783" lon="15.697805"><ele>9.0</ele><time>2026-04-21T15:32:11.316Z</time></trkpt><trkpt lat="37.94925" lon="15.697595"><ele>9.0</ele><time>2026-04-21T15:32:12.316Z</time></trkpt><trkpt lat="37.94942" lon="15.697385"><ele>9.0</ele><time>2026-04-21T15:32:13.315Z</time></trkpt><trkpt lat="37.94959" lon="15.6971733"><ele>9.0</ele><time>2026-04-21T15:32:14.315Z</time></trkpt><trkpt lat="37.94975" lon="15.6969617"><ele>9.0</ele><time>2026-04-21T15:32:15.316Z</time></trkpt><trkpt lat="37.9499083" lon="15.6967467"><ele>10.5</ele><time>2026-04-21T15:32:16.316Z</time></trkpt><trkpt lat="37.9500583" lon="15.69653"><ele>12.0</ele><time>2026-04-21T15:32:17.316Z</time></trkpt><trkpt lat="37.9501917" lon="15.6963017"><ele>11.0</ele><time>2026-04-21T15:32:18.316Z</time></trkpt><trkpt lat="37.95032" lon="15.69606"><ele>10.0</ele><time>2026-04-21T15:32:19.316Z</time></trkpt><trkpt lat="37.950435" lon="15.6958183"><ele>10.0</ele><time>2026-04-21T15:32:20.315Z</time></trkpt><trkpt lat="37.9505333" lon="15.69557"><ele>10.0</ele><time>2026-04-21T15:32:21.315Z</time></trkpt><trkpt lat="37.9506217" lon="15.695315"><ele>10.0</ele><time>2026-04-21T15:32:22.316Z</time></trkpt><trkpt lat="37.9507083" lon="15.6950617"><ele>9.333333333333334</ele><time>2026-04-21T15:32:23.316Z</time></trkpt><trkpt lat="37.9507917" lon="15.694805"><ele>8.666666666666666</ele><time>2026-04-21T15:32:24.316Z</time></trkpt><trkpt lat="37.95088" lon="15.69455"><ele>8.0</ele><time>2026-04-21T15:32:25.316Z</time></trkpt><trkpt lat="37.9509667" lon="15.6943033"><ele>8.0</ele><time>2026-04-21T15:32:26.316Z</time></trkpt><trkpt lat="37.951055" lon="15.6940533"><ele>8.0</ele><time>2026-04-21T15:32:27.316Z</time></trkpt><trkpt lat="37.9511383" lon="15.693795"><ele>8.0</ele><time>2026-04-21T15:32:28.316Z</time></trkpt><trkpt lat="37.9512267" lon="15.6935333"><ele>8.333333333333332</ele><time>2026-04-21T15:32:29.316Z</time></trkpt><trkpt lat="37.9513117" lon="15.6932733"><ele>8.666666666666666</ele><time>2026-04-21T15:32:30.316Z</time></trkpt><trkpt lat="37.9513967" lon="15.69301"><ele>9.0</ele><time>2026-04-21T15:32:31.316Z</time></trkpt><trkpt lat="37.9514833" lon="15.6927467"><ele>10.0</ele><time>2026-04-21T15:32:32.316Z</time></trkpt><trkpt lat="37.951575" lon="15.6924867"><ele>11.0</ele><time>2026-04-21T15:32:33.316Z</time></trkpt><trkpt lat="37.9516683" lon="15.6922217"><ele>13.5</ele><time>2026-04-21T15:32:34.316Z</time></trkpt><trkpt lat="37.9517617" lon="15.6919583"><ele>16.0</ele><time>2026-04-21T15:32:35.316Z</time></trkpt><trkpt lat="37.9518433" lon="15.6916933"><ele>16.0</ele><time>2026-04-21T15:32:36.316Z</time></trkpt><trkpt lat="37.9519317" lon="15.6914367"><ele>16.0</ele><time>2026-04-21T15:32:37.316Z</time></trkpt><trkpt lat="37.9520217" lon="15.6911767"><ele>16.0</ele><time>2026-04-21T15:32:38.316Z</time></trkpt><trkpt lat="37.9521083" lon="15.6909117"><ele>14.333333333333332</ele><time>2026-04-21T15:32:39.316Z</time></trkpt><trkpt lat="37.9521867" lon="15.6906467"><ele>12.666666666666666</ele><time>2026-04-21T15:32:40.316Z</time></trkpt><trkpt lat="37.95226" lon="15.69038"><ele>11.0</ele><time>2026-04-21T15:32:41.316Z</time></trkpt><trkpt lat="37.9523283" lon="15.69011"><ele>11.0</ele><time>2026-04-21T15:32:42.316Z</time></trkpt><trkpt lat="37.9523867" lon="15.6898383"><ele>11.0</ele><time>2026-04-21T15:32:43.316Z</time></trkpt><trkpt lat="37.9524367" lon="15.6895633"><ele>11.0</ele><time>2026-04-21T15:32:44.316Z</time></trkpt><trkpt lat="37.9524683" lon="15.6892833"><ele>11.666666666666666</ele><time>2026-04-21T15:32:45.316Z</time></trkpt><trkpt lat="37.9524817" lon="15.6890017"><ele>12.333333333333332</ele><time>2026-04-21T15:32:46.316Z</time></trkpt><trkpt lat="37.9524867" lon="15.688725"><ele>13.0</ele><time>2026-04-21T15:32:47.315Z</time></trkpt><trkpt lat="37.95248" lon="15.6884483"><ele>15.0</ele><time>2026-04-21T15:32:48.316Z</time></trkpt><trkpt lat="37.9524717" lon="15.6881733"><ele>17.0</ele><time>2026-04-21T15:32:49.316Z</time></trkpt><trkpt lat="37.9524567" lon="15.687895"><ele>19.0</ele><time>2026-04-21T15:32:50.315Z</time></trkpt><trkpt lat="37.9524467" lon="15.68761"><ele>20.5</ele><time>2026-04-21T15:32:51.316Z</time></trkpt><trkpt lat="37.9524367" lon="15.68732"><ele>22.0</ele><time>2026-04-21T15:32:52.316Z</time></trkpt><trkpt lat="37.9524233" lon="15.6870367"><ele>27.0</ele><time>2026-04-21T15:32:53.316Z</time></trkpt><trkpt lat="37.9524167" lon="15.6867517"><ele>32.0</ele><time>2026-04-21T15:32:54.315Z</time></trkpt><trkpt lat="37.952405" lon="15.6864633"><ele>32.0</ele><time>2026-04-21T15:32:55.316Z</time></trkpt><trkpt lat="37.95239" lon="15.6861733"><ele>32.0</ele><time>2026-04-21T15:32:56.316Z</time></trkpt><trkpt lat="37.95238" lon="15.6858767"><ele>36.0</ele><time>2026-04-21T15:32:57.315Z</time></trkpt><trkpt lat="37.95237" lon="15.685595"><ele>40.0</ele><time>2026-04-21T15:32:58.316Z</time></trkpt><trkpt lat="37.9523667" lon="15.6853167"><ele>44.0</ele><time>2026-04-21T15:32:59.316Z</time></trkpt><trkpt lat="37.9523733" lon="15.68504"><ele>44.0</ele><time>2026-04-21T15:33:00.315Z</time></trkpt><trkpt lat="37.9523733" lon="15.6847583"><ele>44.0</ele><time>2026-04-21T15:33:01.315Z</time></trkpt><trkpt lat="37.9523683" lon="15.68449"><ele>44.0</ele><time>2026-04-21T15:33:02.316Z</time></trkpt><trkpt lat="37.9524017" lon="15.6842367"><ele>45.33333333333333</ele><time>2026-04-21T15:33:03.316Z</time></trkpt><trkpt lat="37.9524767" lon="15.6840033"><ele>46.666666666666664</ele><time>2026-04-21T15:33:04.315Z</time></trkpt><trkpt lat="37.9525833" lon="15.6837883"><ele>48.0</ele><time>2026-04-21T15:33:05.315Z</time></trkpt><trkpt lat="37.95268" lon="15.6835583"><ele>48.0</ele><time>2026-04-21T15:33:06.315Z</time></trkpt><trkpt lat="37.9527833" lon="15.6833317"><ele>48.0</ele><time>2026-04-21T15:33:07.316Z</time></trkpt><trkpt lat="37.9528867" lon="15.68311"><ele>48.0</ele><time>2026-04-21T15:33:08.315Z</time></trkpt><trkpt lat="37.9529933" lon="15.682885"><ele>45.0</ele><time>2026-04-21T15:33:09.316Z</time></trkpt><trkpt lat="37.9531017" lon="15.6826683"><ele>42.0</ele><time>2026-04-21T15:33:10.315Z</time></trkpt><trkpt lat="37.953205" lon="15.6824367"><ele>39.0</ele><time>2026-04-21T15:33:11.316Z</time></trkpt><trkpt lat="37.9533033" lon="15.68223"><ele>45.25</ele><time>2026-04-21T15:33:12.316Z</time></trkpt><trkpt lat="37.9533933" lon="15.6820567"><ele>51.5</ele><time>2026-04-21T15:33:13.316Z</time></trkpt><trkpt lat="37.9534733" lon="15.6818967"><ele>57.75</ele><time>2026-04-21T15:33:14.316Z</time></trkpt><trkpt lat="37.95355" lon="15.6817633"><ele>64.0</ele><time>2026-04-21T15:33:15.316Z</time></trkpt><trkpt lat="37.95361" lon="15.68165"><ele>63.99999999999999</ele><time>2026-04-21T15:33:16.316Z</time></trkpt><trkpt lat="37.953655" lon="15.6815617"><ele>64.0</ele><time>2026-04-21T15:33:17.316Z</time></trkpt><trkpt lat="37.9537017" lon="15.6814533"><ele>64.0</ele><time>2026-04-21T15:33:19.316Z</time></trkpt><trkpt lat="37.953705" lon="15.681355"><ele>64.0</ele><time>2026-04-21T15:33:55.316Z</time></trkpt><trkpt lat="37.9536933" lon="15.6812567"><ele>63.99999999999999</ele><time>2026-04-21T15:33:56.316Z</time></trkpt><trkpt lat="37.9536767" lon="15.681125"><ele>64.0</ele><time>2026-04-21T15:33:57.316Z</time></trkpt><trkpt lat="37.9536467" lon="15.68097"><ele>64.75</ele><time>2026-04-21T15:33:58.316Z</time></trkpt><trkpt lat="37.9536317" lon="15.680795"><ele>65.5</ele><time>2026-04-21T15:33:59.316Z</time></trkpt><trkpt lat="37.95363" lon="15.6806067"><ele>66.25</ele><time>2026-04-21T15:34:00.316Z</time></trkpt><trkpt lat="37.95366" lon="15.6804283"><ele>67.0</ele><time>2026-04-21T15:34:01.316Z</time></trkpt><trkpt lat="37.9536883" lon="15.6802367"><ele>67.0</ele><time>2026-04-21T15:34:02.316Z</time></trkpt><trkpt lat="37.9537317" lon="15.6800417"><ele>67.0</ele><time>2026-04-21T15:34:03.316Z</time></trkpt><trkpt lat="37.953785" lon="15.6798633"><ele>67.0</ele><time>2026-04-21T15:34:04.316Z</time></trkpt><trkpt lat="37.95385" lon="15.6796783"><ele>67.0</ele><time>2026-04-21T15:34:05.316Z</time></trkpt><trkpt lat="37.9539233" lon="15.6794983"><ele>67.0</ele><time>2026-04-21T15:34:06.316Z</time></trkpt><trkpt lat="37.9540017" lon="15.6793083"><ele>67.0</ele><time>2026-04-21T15:34:07.315Z</time></trkpt><trkpt lat="37.95408" lon="15.6791017"><ele>72.0</ele><time>2026-04-21T15:34:08.316Z</time></trkpt><trkpt lat="37.954175" lon="15.6788983"><ele>77.0</ele><time>2026-04-21T15:34:09.316Z</time></trkpt><trkpt lat="37.9542833" lon="15.678705"><ele>82.0</ele><time>2026-04-21T15:34:10.316Z</time></trkpt><trkpt lat="37.95442" lon="15.6785383"><ele>70.33333333333333</ele><time>2026-04-21T15:34:11.316Z</time></trkpt><trkpt lat="37.9545533" lon="15.678365"><ele>58.666666666666664</ele><time>2026-04-21T15:34:12.316Z</time></trkpt><trkpt lat="37.9547" lon="15.6782033"><ele>47.0</ele><time>2026-04-21T15:34:13.316Z</time></trkpt><trkpt lat="37.9548383" lon="15.6780517"><ele>47.0</ele><time>2026-04-21T15:34:14.315Z</time></trkpt><trkpt lat="37.9549833" lon="15.67793"><ele>47.0</ele><time>2026-04-21T15:34:15.315Z</time></trkpt><trkpt lat="37.9551217" lon="15.6778233"><ele>47.0</ele><time>2026-04-21T15:34:16.316Z</time></trkpt><trkpt lat="37.95528" lon="15.67775"><ele>40.33333333333333</ele><time>2026-04-21T15:34:17.316Z</time></trkpt><trkpt lat="37.9554567" lon="15.6777083"><ele>33.666666666666664</ele><time>2026-04-21T15:34:18.316Z</time></trkpt><trkpt lat="37.9556467" lon="15.67767"><ele>27.0</ele><time>2026-04-21T15:34:19.316Z</time></trkpt><trkpt lat="37.9558367" lon="15.6776033"><ele>27.0</ele><time>2026-04-21T15:34:20.316Z</time></trkpt><trkpt lat="37.9560217" lon="15.6775067"><ele>27.0</ele><time>2026-04-21T15:34:21.316Z</time></trkpt><trkpt lat="37.956205" lon="15.677395"><ele>27.0</ele><time>2026-04-21T15:34:22.316Z</time></trkpt><trkpt lat="37.956385" lon="15.6772733"><ele>27.0</ele><time>2026-04-21T15:34:23.316Z</time></trkpt><trkpt lat="37.9565617" lon="15.6771383"><ele>27.0</ele><time>2026-04-21T15:34:24.316Z</time></trkpt><trkpt lat="37.956735" lon="15.6770017"><ele>27.0</ele><time>2026-04-21T15:34:25.316Z</time></trkpt><trkpt lat="37.9569117" lon="15.676865"><ele>24.666666666666668</ele><time>2026-04-21T15:34:26.316Z</time></trkpt><trkpt lat="37.9570867" lon="15.6767317"><ele>22.333333333333336</ele><time>2026-04-21T15:34:27.316Z</time></trkpt><trkpt lat="37.9572633" lon="15.6765767"><ele>20.0</ele><time>2026-04-21T15:34:28.316Z</time></trkpt><trkpt lat="37.9574517" lon="15.6764233"><ele>19.333333333333336</ele><time>2026-04-21T15:34:29.316Z</time></trkpt><trkpt lat="37.957635" lon="15.67626"><ele>18.666666666666668</ele><time>2026-04-21T15:34:30.316Z</time></trkpt><trkpt lat="37.9578133" lon="15.6761033"><ele>18.0</ele><time>2026-04-21T15:34:31.316Z</time></trkpt><trkpt lat="37.957995" lon="15.6759533"><ele>18.0</ele><time>2026-04-21T15:34:32.316Z</time></trkpt><trkpt lat="37.9581867" lon="15.6758017"><ele>18.0</ele><time>2026-04-21T15:34:33.316Z</time></trkpt><trkpt lat="37.9583833" lon="15.6756633"><ele>21.0</ele><time>2026-04-21T15:34:34.316Z</time></trkpt><trkpt lat="37.9585783" lon="15.6755183"><ele>24.0</ele><time>2026-04-21T15:34:35.316Z</time></trkpt><trkpt lat="37.9587667" lon="15.675365"><ele>23.0</ele><time>2026-04-21T15:34:36.316Z</time></trkpt><trkpt lat="37.958955" lon="15.6752133"><ele>22.0</ele><time>2026-04-21T15:34:37.316Z</time></trkpt><trkpt lat="37.959145" lon="15.6750617"><ele>21.0</ele><time>2026-04-21T15:34:38.316Z</time></trkpt><trkpt lat="37.9593383" lon="15.6749083"><ele>21.0</ele><time>2026-04-21T15:34:39.316Z</time></trkpt><trkpt lat="37.9595317" lon="15.6747567"><ele>21.0</ele><time>2026-04-21T15:34:40.316Z</time></trkpt><trkpt lat="37.9597217" lon="15.67462"><ele>21.0</ele><time>2026-04-21T15:34:41.316Z</time></trkpt><trkpt lat="37.9599233" lon="15.6744917"><ele>19.666666666666668</ele><time>2026-04-21T15:34:42.316Z</time></trkpt><trkpt lat="37.9601217" lon="15.67436"><ele>18.333333333333336</ele><time>2026-04-21T15:34:43.316Z</time></trkpt><trkpt lat="37.9603233" lon="15.6742333"><ele>17.0</ele><time>2026-04-21T15:34:44.316Z</time></trkpt><trkpt lat="37.9605317" lon="15.67411"><ele>17.0</ele><time>2026-04-21T15:34:45.316Z</time></trkpt><trkpt lat="37.9607333" lon="15.6739767"><ele>17.0</ele><time>2026-04-21T15:34:46.315Z</time></trkpt><trkpt lat="37.9609417" lon="15.6738567"><ele>16.333333333333336</ele><time>2026-04-21T15:34:47.316Z</time></trkpt><trkpt lat="37.9611483" lon="15.6737383"><ele>15.666666666666668</ele><time>2026-04-21T15:34:48.316Z</time></trkpt><trkpt lat="37.9613517" lon="15.6736233"><ele>15.0</ele><time>2026-04-21T15:34:49.316Z</time></trkpt><trkpt lat="37.9615567" lon="15.6734983"><ele>15.0</ele><time>2026-04-21T15:34:50.316Z</time></trkpt><trkpt lat="37.9617617" lon="15.6733833"><ele>15.0</ele><time>2026-04-21T15:34:51.316Z</time></trkpt><trkpt lat="37.961955" lon="15.6732683"><ele>15.0</ele><time>2026-04-21T15:34:52.316Z</time></trkpt><trkpt lat="37.962165" lon="15.6731417"><ele>15.0</ele><time>2026-04-21T15:34:53.316Z</time></trkpt><trkpt lat="37.962365" lon="15.673015"><ele>15.0</ele><time>2026-04-21T15:34:54.316Z</time></trkpt><trkpt lat="37.9625617" lon="15.6728933"><ele>15.0</ele><time>2026-04-21T15:34:55.316Z</time></trkpt><trkpt lat="37.962765" lon="15.6727617"><ele>14.333333333333332</ele><time>2026-04-21T15:34:56.316Z</time></trkpt><trkpt lat="37.9629667" lon="15.67264"><ele>13.666666666666666</ele><time>2026-04-21T15:34:57.316Z</time></trkpt><trkpt lat="37.963165" lon="15.6725083"><ele>13.0</ele><time>2026-04-21T15:34:58.316Z</time></trkpt><trkpt lat="37.96336" lon="15.6723733"><ele>13.333333333333332</ele><time>2026-04-21T15:34:59.316Z</time></trkpt><trkpt lat="37.963555" lon="15.67223"><ele>13.666666666666668</ele><time>2026-04-21T15:35:00.315Z</time></trkpt><trkpt lat="37.9637467" lon="15.6720967"><ele>14.0</ele><time>2026-04-21T15:35:01.316Z</time></trkpt><trkpt lat="37.9639383" lon="15.6719583"><ele>14.333333333333334</ele><time>2026-04-21T15:35:02.316Z</time></trkpt><trkpt lat="37.9641333" lon="15.6718183"><ele>14.666666666666668</ele><time>2026-04-21T15:35:03.315Z</time></trkpt><trkpt lat="37.964325" lon="15.6716833"><ele>15.0</ele><time>2026-04-21T15:35:04.315Z</time></trkpt><trkpt lat="37.9645233" lon="15.6715517"><ele>15.0</ele><time>2026-04-21T15:35:05.316Z</time></trkpt><trkpt lat="37.9647217" lon="15.6714083"><ele>15.0</ele><time>2026-04-21T15:35:06.316Z</time></trkpt><trkpt lat="37.9649167" lon="15.67127"><ele>14.0</ele><time>2026-04-21T15:35:07.316Z</time></trkpt><trkpt lat="37.9651133" lon="15.67115"><ele>13.0</ele><time>2026-04-21T15:35:08.316Z</time></trkpt><trkpt lat="37.9653183" lon="15.671015"><ele>12.0</ele><time>2026-04-21T15:35:09.316Z</time></trkpt><trkpt lat="37.9655183" lon="15.67088"><ele>12.0</ele><time>2026-04-21T15:35:10.316Z</time></trkpt><trkpt lat="37.96571" lon="15.6707367"><ele>12.0</ele><time>2026-04-21T15:35:11.316Z</time></trkpt><trkpt lat="37.9659117" lon="15.670595"><ele>14.0</ele><time>2026-04-21T15:35:12.316Z</time></trkpt><trkpt lat="37.9661117" lon="15.6704583"><ele>16.0</ele><time>2026-04-21T15:35:13.315Z</time></trkpt><trkpt lat="37.9663067" lon="15.6703217"><ele>15.0</ele><time>2026-04-21T15:35:14.316Z</time></trkpt><trkpt lat="37.9665067" lon="15.6701933"><ele>14.0</ele><time>2026-04-21T15:35:15.316Z</time></trkpt><trkpt lat="37.9667017" lon="15.6700517"><ele>13.0</ele><time>2026-04-21T15:35:16.316Z</time></trkpt><trkpt lat="37.9669" lon="15.6699083"><ele>16.0</ele><time>2026-04-21T15:35:17.316Z</time></trkpt><trkpt lat="37.9670983" lon="15.6697633"><ele>19.0</ele><time>2026-04-21T15:35:18.315Z</time></trkpt><trkpt lat="37.96729" lon="15.6696183"><ele>19.0</ele><time>2026-04-21T15:35:19.316Z</time></trkpt><trkpt lat="37.9674817" lon="15.6694717"><ele>19.0</ele><time>2026-04-21T15:35:20.316Z</time></trkpt><trkpt lat="37.9676717" lon="15.6693267"><ele>19.0</ele><time>2026-04-21T15:35:21.316Z</time></trkpt><trkpt lat="37.9678567" lon="15.669175"><ele>18.666666666666664</ele><time>2026-04-21T15:35:22.316Z</time></trkpt><trkpt lat="37.9680317" lon="15.6690083"><ele>18.333333333333332</ele><time>2026-04-21T15:35:23.316Z</time></trkpt><trkpt lat="37.9682067" lon="15.6688367"><ele>18.0</ele><time>2026-04-21T15:35:24.315Z</time></trkpt><trkpt lat="37.9683733" lon="15.6686567"><ele>18.0</ele><time>2026-04-21T15:35:25.316Z</time></trkpt><trkpt lat="37.96854" lon="15.6684683"><ele>18.0</ele><time>2026-04-21T15:35:26.316Z</time></trkpt><trkpt lat="37.9687017" lon="15.66828"><ele>18.0</ele><time>2026-04-21T15:35:27.316Z</time></trkpt><trkpt lat="37.9688667" lon="15.6680833"><ele>18.0</ele><time>2026-04-21T15:35:28.316Z</time></trkpt><trkpt lat="37.9690317" lon="15.6678883"><ele>18.0</ele><time>2026-04-21T15:35:29.316Z</time></trkpt><trkpt lat="37.9691983" lon="15.6676967"><ele>17.0</ele><time>2026-04-21T15:35:30.316Z</time></trkpt><trkpt lat="37.9693667" lon="15.6675067"><ele>16.0</ele><time>2026-04-21T15:35:31.315Z</time></trkpt><trkpt lat="37.9695367" lon="15.6673233"><ele>15.0</ele><time>2026-04-21T15:35:32.315Z</time></trkpt><trkpt lat="37.9697017" lon="15.6671317"><ele>13.5</ele><time>2026-04-21T15:35:33.316Z</time></trkpt><trkpt lat="37.9698717" lon="15.6669367"><ele>12.0</ele><time>2026-04-21T15:35:34.316Z</time></trkpt><trkpt lat="37.9700383" lon="15.6667383"><ele>15.0</ele><time>2026-04-21T15:35:35.316Z</time></trkpt><trkpt lat="37.9702033" lon="15.6665417"><ele>18.0</ele><time>2026-04-21T15:35:36.316Z</time></trkpt><trkpt lat="37.9703667" lon="15.6663483"><ele>18.0</ele><time>2026-04-21T15:35:37.316Z</time></trkpt><trkpt lat="37.9705333" lon="15.666155"><ele>18.0</ele><time>2026-04-21T15:35:38.316Z</time></trkpt><trkpt lat="37.9707017" lon="15.665965"><ele>18.5</ele><time>2026-04-21T15:35:39.316Z</time></trkpt><trkpt lat="37.9708783" lon="15.6657767"><ele>19.0</ele><time>2026-04-21T15:35:40.316Z</time></trkpt><trkpt lat="37.971045" lon="15.6655783"><ele>19.0</ele><time>2026-04-21T15:35:41.315Z</time></trkpt><trkpt lat="37.9712167" lon="15.6653817"><ele>19.0</ele><time>2026-04-21T15:35:42.316Z</time></trkpt><trkpt lat="37.9713867" lon="15.665195"><ele>17.5</ele><time>2026-04-21T15:35:43.316Z</time></trkpt><trkpt lat="37.9715617" lon="15.665"><ele>16.0</ele><time>2026-04-21T15:35:44.315Z</time></trkpt><trkpt lat="37.971725" lon="15.664815"><ele>16.0</ele><time>2026-04-21T15:35:45.316Z</time></trkpt><trkpt lat="37.9718933" lon="15.6646217"><ele>16.0</ele><time>2026-04-21T15:35:46.316Z</time></trkpt><trkpt lat="37.9720583" lon="15.664425"><ele>13.5</ele><time>2026-04-21T15:35:47.316Z</time></trkpt><trkpt lat="37.9722267" lon="15.6642317"><ele>11.0</ele><time>2026-04-21T15:35:48.316Z</time></trkpt><trkpt lat="37.9723933" lon="15.66404"><ele>12.0</ele><time>2026-04-21T15:35:49.316Z</time></trkpt><trkpt lat="37.9725617" lon="15.6638633"><ele>13.0</ele><time>2026-04-21T15:35:50.316Z</time></trkpt><trkpt lat="37.972725" lon="15.6636717"><ele>14.0</ele><time>2026-04-21T15:35:51.316Z</time></trkpt><trkpt lat="37.97289" lon="15.6634867"><ele>14.0</ele><time>2026-04-21T15:35:52.315Z</time></trkpt><trkpt lat="37.97306" lon="15.66331"><ele>14.0</ele><time>2026-04-21T15:35:53.316Z</time></trkpt><trkpt lat="37.9732333" lon="15.6631333"><ele>14.0</ele><time>2026-04-21T15:35:54.316Z</time></trkpt><trkpt lat="37.973415" lon="15.6629683"><ele>13.0</ele><time>2026-04-21T15:35:55.316Z</time></trkpt><trkpt lat="37.9736117" lon="15.6628283"><ele>12.0</ele><time>2026-04-21T15:35:56.316Z</time></trkpt><trkpt lat="37.9738183" lon="15.6627017"><ele>12.0</ele><time>2026-04-21T15:35:57.316Z</time></trkpt><trkpt lat="37.9740267" lon="15.6626067"><ele>12.0</ele><time>2026-04-21T15:35:58.316Z</time></trkpt><trkpt lat="37.9742167" lon="15.6625467"><ele>12.0</ele><time>2026-04-21T15:35:59.316Z</time></trkpt><trkpt lat="37.9743883" lon="15.662505"><ele>12.75</ele><time>2026-04-21T15:36:00.316Z</time></trkpt><trkpt lat="37.9745383" lon="15.6624867"><ele>13.5</ele><time>2026-04-21T15:36:01.316Z</time></trkpt><trkpt lat="37.9746633" lon="15.6624617"><ele>14.25</ele><time>2026-04-21T15:36:02.316Z</time></trkpt><trkpt lat="37.9747867" lon="15.6624367"><ele>15.0</ele><time>2026-04-21T15:36:03.316Z</time></trkpt><trkpt lat="37.9749067" lon="15.6624233"><ele>15.0</ele><time>2026-04-21T15:36:04.316Z</time></trkpt><trkpt lat="37.9750083" lon="15.6624133"><ele>15.0</ele><time>2026-04-21T15:36:05.317Z</time></trkpt><trkpt lat="37.9750867" lon="15.6623933"><ele>15.0</ele><time>2026-04-21T15:36:06.317Z</time></trkpt><trkpt lat="37.9752217" lon="15.6624067"><ele>15.0</ele><time>2026-04-21T15:36:08.317Z</time></trkpt><trkpt lat="37.975315" lon="15.6624433"><ele>15.0</ele><time>2026-04-21T15:36:09.317Z</time></trkpt><trkpt lat="37.97542" lon="15.6624367"><ele>15.0</ele><time>2026-04-21T15:36:10.317Z</time></trkpt><trkpt lat="37.9755183" lon="15.6623933"><ele>15.0</ele><time>2026-04-21T15:36:11.317Z</time></trkpt><trkpt lat="37.975625" lon="15.6623383"><ele>15.0</ele><time>2026-04-21T15:36:12.317Z</time></trkpt><trkpt lat="37.9757533" lon="15.6622833"><ele>15.0</ele><time>2026-04-21T15:36:13.317Z</time></trkpt><trkpt lat="37.9758933" lon="15.6622233"><ele>15.0</ele><time>2026-04-21T15:36:14.317Z</time></trkpt><trkpt lat="37.9760283" lon="15.66215"><ele>15.0</ele><time>2026-04-21T15:36:15.317Z</time></trkpt><trkpt lat="37.976155" lon="15.6620583"><ele>15.0</ele><time>2026-04-21T15:36:16.317Z</time></trkpt><trkpt lat="37.9762767" lon="15.6619633"><ele>15.0</ele><time>2026-04-21T15:36:17.317Z</time></trkpt><trkpt lat="37.9763967" lon="15.6618767"><ele>14.75</ele><time>2026-04-21T15:36:18.317Z</time></trkpt><trkpt lat="37.9765183" lon="15.6617967"><ele>14.5</ele><time>2026-04-21T15:36:19.317Z</time></trkpt><trkpt lat="37.9766267" lon="15.6617167"><ele>14.25</ele><time>2026-04-21T15:36:20.317Z</time></trkpt><trkpt lat="37.9767417" lon="15.66164"><ele>14.0</ele><time>2026-04-21T15:36:21.316Z</time></trkpt><trkpt lat="37.9768567" lon="15.66156"><ele>14.0</ele><time>2026-04-21T15:36:22.317Z</time></trkpt><trkpt lat="37.9769717" lon="15.6614833"><ele>14.0</ele><time>2026-04-21T15:36:23.317Z</time></trkpt><trkpt lat="37.977085" lon="15.661395"><ele>14.0</ele><time>2026-04-21T15:36:24.317Z</time></trkpt><trkpt lat="37.9771967" lon="15.6613133"><ele>14.0</ele><time>2026-04-21T15:36:25.317Z</time></trkpt><trkpt lat="37.9773167" lon="15.6612283"><ele>14.0</ele><time>2026-04-21T15:36:26.317Z</time></trkpt><trkpt lat="37.9774383" lon="15.6611533"><ele>14.0</ele><time>2026-04-21T15:36:27.317Z</time></trkpt><trkpt lat="37.9775583" lon="15.66108"><ele>14.0</ele><time>2026-04-21T15:36:28.317Z</time></trkpt><trkpt lat="37.9776817" lon="15.6610117"><ele>14.0</ele><time>2026-04-21T15:36:29.317Z</time></trkpt><trkpt lat="37.9778033" lon="15.6609383"><ele>13.75</ele><time>2026-04-21T15:36:30.317Z</time></trkpt><trkpt lat="37.97792" lon="15.66086"><ele>13.5</ele><time>2026-04-21T15:36:31.317Z</time></trkpt><trkpt lat="37.978035" lon="15.6607783"><ele>13.25</ele><time>2026-04-21T15:36:32.317Z</time></trkpt><trkpt lat="37.9781567" lon="15.6606967"><ele>13.0</ele><time>2026-04-21T15:36:33.317Z</time></trkpt><trkpt lat="37.97828" lon="15.6606117"><ele>13.0</ele><time>2026-04-21T15:36:34.317Z</time></trkpt><trkpt lat="37.9784067" lon="15.660525"><ele>13.0</ele><time>2026-04-21T15:36:35.316Z</time></trkpt><trkpt lat="37.9785367" lon="15.66044"><ele>13.0</ele><time>2026-04-21T15:36:36.317Z</time></trkpt><trkpt lat="37.97866" lon="15.6603533"><ele>13.0</ele><time>2026-04-21T15:36:37.317Z</time></trkpt><trkpt lat="37.9787833" lon="15.6602683"><ele>13.0</ele><time>2026-04-21T15:36:38.317Z</time></trkpt><trkpt lat="37.978905" lon="15.6601817"><ele>13.0</ele><time>2026-04-21T15:36:39.317Z</time></trkpt><trkpt lat="37.9790183" lon="15.66009"><ele>13.0</ele><time>2026-04-21T15:36:40.317Z</time></trkpt><trkpt lat="37.9791217" lon="15.6599983"><ele>13.0</ele><time>2026-04-21T15:36:41.317Z</time></trkpt><trkpt lat="37.9792283" lon="15.6598933"><ele>12.666666666666666</ele><time>2026-04-21T15:36:42.317Z</time></trkpt><trkpt lat="37.9793367" lon="15.65978"><ele>12.333333333333332</ele><time>2026-04-21T15:36:43.317Z</time></trkpt><trkpt lat="37.9794483" lon="15.6596417"><ele>12.0</ele><time>2026-04-21T15:36:44.317Z</time></trkpt><trkpt lat="37.9795617" lon="15.6594933"><ele>11.333333333333334</ele><time>2026-04-21T15:36:45.317Z</time></trkpt><trkpt lat="37.9796767" lon="15.6593367"><ele>10.666666666666668</ele><time>2026-04-21T15:36:46.317Z</time></trkpt><trkpt lat="37.97979" lon="15.6591533"><ele>10.0</ele><time>2026-04-21T15:36:47.317Z</time></trkpt><trkpt lat="37.9799117" lon="15.65897"><ele>11.333333333333334</ele><time>2026-04-21T15:36:48.316Z</time></trkpt><trkpt lat="37.980025" lon="15.65878"><ele>12.666666666666668</ele><time>2026-04-21T15:36:49.317Z</time></trkpt><trkpt lat="37.9801467" lon="15.658595"><ele>14.0</ele><time>2026-04-21T15:36:50.317Z</time></trkpt><trkpt lat="37.98026" lon="15.6584317"><ele>14.0</ele><time>2026-04-21T15:36:51.317Z</time></trkpt><trkpt lat="37.9803633" lon="15.6582883"><ele>14.0</ele><time>2026-04-21T15:36:52.316Z</time></trkpt><trkpt lat="37.98046" lon="15.65816"><ele>14.0</ele><time>2026-04-21T15:36:53.317Z</time></trkpt><trkpt lat="37.980555" lon="15.6580333"><ele>14.0</ele><time>2026-04-21T15:36:54.317Z</time></trkpt><trkpt lat="37.980655" lon="15.6579083"><ele>13.666666666666668</ele><time>2026-04-21T15:36:55.317Z</time></trkpt><trkpt lat="37.9807767" lon="15.6577817"><ele>13.333333333333332</ele><time>2026-04-21T15:36:56.317Z</time></trkpt><trkpt lat="37.9809083" lon="15.6576517"><ele>13.0</ele><time>2026-04-21T15:36:57.317Z</time></trkpt><trkpt lat="37.981055" lon="15.657515"><ele>13.666666666666666</ele><time>2026-04-21T15:36:58.317Z</time></trkpt><trkpt lat="37.9812067" lon="15.657385"><ele>14.333333333333332</ele><time>2026-04-21T15:36:59.317Z</time></trkpt><trkpt lat="37.9813517" lon="15.6572467"><ele>15.0</ele><time>2026-04-21T15:37:00.317Z</time></trkpt><trkpt lat="37.9814817" lon="15.6570917"><ele>15.333333333333332</ele><time>2026-04-21T15:37:01.317Z</time></trkpt><trkpt lat="37.98162" lon="15.6569433"><ele>15.666666666666666</ele><time>2026-04-21T15:37:02.317Z</time></trkpt><trkpt lat="37.98175" lon="15.656805"><ele>16.0</ele><time>2026-04-21T15:37:03.317Z</time></trkpt><trkpt lat="37.981885" lon="15.65668"><ele>16.0</ele><time>2026-04-21T15:37:04.317Z</time></trkpt><trkpt lat="37.9820333" lon="15.6565933"><ele>16.0</ele><time>2026-04-21T15:37:05.317Z</time></trkpt><trkpt lat="37.9821833" lon="15.6565333"><ele>16.0</ele><time>2026-04-21T15:37:06.316Z</time></trkpt><trkpt lat="37.9823083" lon="15.6564833"><ele>16.0</ele><time>2026-04-21T15:37:07.317Z</time></trkpt><trkpt lat="37.98239" lon="15.65641"><ele>16.0</ele><time>2026-04-21T15:37:08.316Z</time></trkpt><trkpt lat="37.9824417" lon="15.6563133"><ele>16.0</ele><time>2026-04-21T15:37:09.317Z</time></trkpt><trkpt lat="37.98247" lon="15.65619"><ele>16.0</ele><time>2026-04-21T15:37:10.317Z</time></trkpt><trkpt lat="37.98253" lon="15.6560583"><ele>16.0</ele><time>2026-04-21T15:37:11.317Z</time></trkpt><trkpt lat="37.9826183" lon="15.655925"><ele>16.0</ele><time>2026-04-21T15:37:12.317Z</time></trkpt><trkpt lat="37.9827167" lon="15.6558"><ele>16.0</ele><time>2026-04-21T15:37:13.316Z</time></trkpt><trkpt lat="37.98283" lon="15.6556783"><ele>16.0</ele><time>2026-04-21T15:37:14.317Z</time></trkpt><trkpt lat="37.9829517" lon="15.655555"><ele>16.0</ele><time>2026-04-21T15:37:15.317Z</time></trkpt><trkpt lat="37.9830717" lon="15.6554283"><ele>16.0</ele><time>2026-04-21T15:37:16.317Z</time></trkpt><trkpt lat="37.983195" lon="15.655305"><ele>16.0</ele><time>2026-04-21T15:37:17.317Z</time></trkpt><trkpt lat="37.98332" lon="15.6551867"><ele>16.0</ele><time>2026-04-21T15:37:18.317Z</time></trkpt><trkpt lat="37.983445" lon="15.6550717"><ele>16.333333333333332</ele><time>2026-04-21T15:37:19.317Z</time></trkpt><trkpt lat="37.98358" lon="15.654955"><ele>16.666666666666668</ele><time>2026-04-21T15:37:20.317Z</time></trkpt><trkpt lat="37.9837233" lon="15.6548583"><ele>17.0</ele><time>2026-04-21T15:37:21.316Z</time></trkpt><trkpt lat="37.98387" lon="15.6547617"><ele>17.0</ele><time>2026-04-21T15:37:22.317Z</time></trkpt><trkpt lat="37.9840167" lon="15.654655"><ele>17.0</ele><time>2026-04-21T15:37:23.317Z</time></trkpt><trkpt lat="37.984175" lon="15.65453"><ele>17.0</ele><time>2026-04-21T15:37:24.317Z</time></trkpt><trkpt lat="37.9843333" lon="15.6544233"><ele>16.0</ele><time>2026-04-21T15:37:25.317Z</time></trkpt><trkpt lat="37.984495" lon="15.65432"><ele>15.0</ele><time>2026-04-21T15:37:26.316Z</time></trkpt><trkpt lat="37.984655" lon="15.6542017"><ele>14.0</ele><time>2026-04-21T15:37:27.317Z</time></trkpt><trkpt lat="37.9848233" lon="15.6540717"><ele>14.0</ele><time>2026-04-21T15:37:28.317Z</time></trkpt><trkpt lat="37.984995" lon="15.6539333"><ele>14.0</ele><time>2026-04-21T15:37:29.317Z</time></trkpt><trkpt lat="37.9851617" lon="15.65378"><ele>14.0</ele><time>2026-04-21T15:37:30.317Z</time></trkpt><trkpt lat="37.9853367" lon="15.653625"><ele>14.0</ele><time>2026-04-21T15:37:31.317Z</time></trkpt><trkpt lat="37.9855017" lon="15.65346"><ele>14.0</ele><time>2026-04-21T15:37:32.316Z</time></trkpt><trkpt lat="37.98567" lon="15.6532833"><ele>14.0</ele><time>2026-04-21T15:37:33.317Z</time></trkpt><trkpt lat="37.985845" lon="15.6531167"><ele>14.0</ele><time>2026-04-21T15:37:34.317Z</time></trkpt><trkpt lat="37.98602" lon="15.6529567"><ele>14.0</ele><time>2026-04-21T15:37:35.317Z</time></trkpt><trkpt lat="37.9862017" lon="15.6527933"><ele>14.0</ele><time>2026-04-21T15:37:36.316Z</time></trkpt><trkpt lat="37.986385" lon="15.652635"><ele>14.0</ele><time>2026-04-21T15:37:37.317Z</time></trkpt><trkpt lat="37.9865683" lon="15.65249"><ele>14.0</ele><time>2026-04-21T15:37:38.317Z</time></trkpt><trkpt lat="37.9867433" lon="15.6523467"><ele>14.0</ele><time>2026-04-21T15:37:39.317Z</time></trkpt><trkpt lat="37.9869233" lon="15.65221"><ele>13.666666666666668</ele><time>2026-04-21T15:37:40.317Z</time></trkpt><trkpt lat="37.9871117" lon="15.65209"><ele>13.333333333333332</ele><time>2026-04-21T15:37:41.317Z</time></trkpt><trkpt lat="37.9873067" lon="15.6519667"><ele>13.0</ele><time>2026-04-21T15:37:42.317Z</time></trkpt><trkpt lat="37.9874983" lon="15.651835"><ele>15.333333333333332</ele><time>2026-04-21T15:37:43.317Z</time></trkpt><trkpt lat="37.9876867" lon="15.6517083"><ele>17.666666666666668</ele><time>2026-04-21T15:37:44.317Z</time></trkpt><trkpt lat="37.987875" lon="15.6515767"><ele>20.0</ele><time>2026-04-21T15:37:45.316Z</time></trkpt><trkpt lat="37.9880717" lon="15.6514367"><ele>20.0</ele><time>2026-04-21T15:37:46.317Z</time></trkpt><trkpt lat="37.9882683" lon="15.6512983"><ele>20.0</ele><time>2026-04-21T15:37:47.317Z</time></trkpt><trkpt lat="37.9884567" lon="15.6511683"><ele>20.0</ele><time>2026-04-21T15:37:48.317Z</time></trkpt><trkpt lat="37.9886433" lon="15.6510283"><ele>20.666666666666668</ele><time>2026-04-21T15:37:49.317Z</time></trkpt><trkpt lat="37.9888283" lon="15.650895"><ele>21.333333333333332</ele><time>2026-04-21T15:37:50.317Z</time></trkpt><trkpt lat="37.9890167" lon="15.6507617"><ele>22.0</ele><time>2026-04-21T15:37:51.317Z</time></trkpt><trkpt lat="37.9891983" lon="15.6506383"><ele>22.0</ele><time>2026-04-21T15:37:52.317Z</time></trkpt><trkpt lat="37.989375" lon="15.6505217"><ele>22.0</ele><time>2026-04-21T15:37:53.317Z</time></trkpt><trkpt lat="37.989545" lon="15.6503983"><ele>22.0</ele><time>2026-04-21T15:37:54.317Z</time></trkpt><trkpt lat="37.9897033" lon="15.6502967"><ele>20.666666666666664</ele><time>2026-04-21T15:37:55.317Z</time></trkpt><trkpt lat="37.9898567" lon="15.65019"><ele>19.333333333333332</ele><time>2026-04-21T15:37:56.317Z</time></trkpt><trkpt lat="37.99001" lon="15.6500883"><ele>18.0</ele><time>2026-04-21T15:37:57.317Z</time></trkpt><trkpt lat="37.99015" lon="15.64998"><ele>20.666666666666664</ele><time>2026-04-21T15:37:58.317Z</time></trkpt><trkpt lat="37.9902917" lon="15.6498817"><ele>23.333333333333332</ele><time>2026-04-21T15:37:59.317Z</time></trkpt><trkpt lat="37.9904283" lon="15.6497917"><ele>26.0</ele><time>2026-04-21T15:38:00.317Z</time></trkpt><trkpt lat="37.99057" lon="15.6496917"><ele>26.0</ele><time>2026-04-21T15:38:01.317Z</time></trkpt><trkpt lat="37.9907133" lon="15.6495917"><ele>26.0</ele><time>2026-04-21T15:38:02.317Z</time></trkpt><trkpt lat="37.9908633" lon="15.649495"><ele>26.0</ele><time>2026-04-21T15:38:03.317Z</time></trkpt><trkpt lat="37.9910117" lon="15.6493833"><ele>26.0</ele><time>2026-04-21T15:38:04.317Z</time></trkpt><trkpt lat="37.9911667" lon="15.6492667"><ele>26.0</ele><time>2026-04-21T15:38:05.317Z</time></trkpt><trkpt lat="37.9913333" lon="15.64915"><ele>26.0</ele><time>2026-04-21T15:38:06.317Z</time></trkpt><trkpt lat="37.9915067" lon="15.6490417"><ele>28.0</ele><time>2026-04-21T15:38:07.317Z</time></trkpt><trkpt lat="37.9916867" lon="15.6489267"><ele>30.0</ele><time>2026-04-21T15:38:08.316Z</time></trkpt><trkpt lat="37.9918667" lon="15.64881"><ele>32.0</ele><time>2026-04-21T15:38:09.317Z</time></trkpt><trkpt lat="37.9920567" lon="15.6486833"><ele>28.0</ele><time>2026-04-21T15:38:10.317Z</time></trkpt><trkpt lat="37.99226" lon="15.6485583"><ele>24.0</ele><time>2026-04-21T15:38:11.317Z</time></trkpt><trkpt lat="37.992455" lon="15.6484133"><ele>25.5</ele><time>2026-04-21T15:38:12.317Z</time></trkpt><trkpt lat="37.992665" lon="15.6482733"><ele>27.0</ele><time>2026-04-21T15:38:13.317Z</time></trkpt><trkpt lat="37.992875" lon="15.64813"><ele>27.0</ele><time>2026-04-21T15:38:14.317Z</time></trkpt><trkpt lat="37.9930967" lon="15.6479867"><ele>27.0</ele><time>2026-04-21T15:38:15.317Z</time></trkpt><trkpt lat="37.993315" lon="15.6478367"><ele>24.5</ele><time>2026-04-21T15:38:16.317Z</time></trkpt><trkpt lat="37.9935433" lon="15.6476783"><ele>22.0</ele><time>2026-04-21T15:38:17.317Z</time></trkpt><trkpt lat="37.993765" lon="15.6475017"><ele>22.0</ele><time>2026-04-21T15:38:18.317Z</time></trkpt><trkpt lat="37.994" lon="15.6473317"><ele>22.0</ele><time>2026-04-21T15:38:19.316Z</time></trkpt><trkpt lat="37.9942367" lon="15.6471717"><ele>22.5</ele><time>2026-04-21T15:38:20.317Z</time></trkpt><trkpt lat="37.9944767" lon="15.6470033"><ele>23.0</ele><time>2026-04-21T15:38:21.317Z</time></trkpt><trkpt lat="37.994725" lon="15.6468383"><ele>21.5</ele><time>2026-04-21T15:38:22.316Z</time></trkpt><trkpt lat="37.9949633" lon="15.64666"><ele>20.0</ele><time>2026-04-21T15:38:23.317Z</time></trkpt><trkpt lat="37.9952167" lon="15.6464833"><ele>20.0</ele><time>2026-04-21T15:38:24.317Z</time></trkpt><trkpt lat="37.9954683" lon="15.6463083"><ele>20.0</ele><time>2026-04-21T15:38:25.317Z</time></trkpt><trkpt lat="37.9957283" lon="15.646125"><ele>19.5</ele><time>2026-04-21T15:38:26.317Z</time></trkpt><trkpt lat="37.9959983" lon="15.6459467"><ele>19.0</ele><time>2026-04-21T15:38:27.317Z</time></trkpt><trkpt lat="37.9962683" lon="15.6457633"><ele>19.0</ele><time>2026-04-21T15:38:28.317Z</time></trkpt><trkpt lat="37.996535" lon="15.64558"><ele>19.0</ele><time>2026-04-21T15:38:29.317Z</time></trkpt><trkpt lat="37.9967983" lon="15.6453883"><ele>19.0</ele><time>2026-04-21T15:38:30.317Z</time></trkpt><trkpt lat="37.9970667" lon="15.6452033"><ele>19.0</ele><time>2026-04-21T15:38:31.317Z</time></trkpt><trkpt lat="37.9973383" lon="15.6450117"><ele>21.5</ele><time>2026-04-21T15:38:32.317Z</time></trkpt><trkpt lat="37.99761" lon="15.6448283"><ele>24.0</ele><time>2026-04-21T15:38:33.317Z</time></trkpt><trkpt lat="37.9978783" lon="15.6446367"><ele>24.0</ele><time>2026-04-21T15:38:34.317Z</time></trkpt><trkpt lat="37.998145" lon="15.64446"><ele>24.0</ele><time>2026-04-21T15:38:35.317Z</time></trkpt><trkpt lat="37.9984017" lon="15.64427"><ele>24.0</ele><time>2026-04-21T15:38:36.317Z</time></trkpt><trkpt lat="37.9986667" lon="15.64409"><ele>24.0</ele><time>2026-04-21T15:38:37.317Z</time></trkpt><trkpt lat="37.9989283" lon="15.64392"><ele>26.5</ele><time>2026-04-21T15:38:38.317Z</time></trkpt><trkpt lat="37.999185" lon="15.64376"><ele>29.0</ele><time>2026-04-21T15:38:39.317Z</time></trkpt><trkpt lat="37.999445" lon="15.64361"><ele>24.0</ele><time>2026-04-21T15:38:40.316Z</time></trkpt><trkpt lat="37.999705" lon="15.6434683"><ele>19.0</ele><time>2026-04-21T15:38:41.317Z</time></trkpt><trkpt lat="37.99997" lon="15.64334"><ele>19.0</ele><time>2026-04-21T15:38:42.317Z</time></trkpt><trkpt lat="38.0002433" lon="15.64323"><ele>19.0</ele><time>2026-04-21T15:38:43.316Z</time></trkpt><trkpt lat="38.0005217" lon="15.6431283"><ele>19.0</ele><time>2026-04-21T15:38:44.316Z</time></trkpt><trkpt lat="38.0007867" lon="15.643025"><ele>19.0</ele><time>2026-04-21T15:38:45.317Z</time></trkpt><trkpt lat="38.00106" lon="15.6429317"><ele>20.0</ele><time>2026-04-21T15:38:46.316Z</time></trkpt><trkpt lat="38.0013317" lon="15.6428383"><ele>21.0</ele><time>2026-04-21T15:38:47.317Z</time></trkpt><trkpt lat="38.0015983" lon="15.6427467"><ele>20.5</ele><time>2026-04-21T15:38:48.317Z</time></trkpt><trkpt lat="38.0018717" lon="15.642655"><ele>20.0</ele><time>2026-04-21T15:38:49.317Z</time></trkpt><trkpt lat="38.0021367" lon="15.6425633"><ele>20.0</ele><time>2026-04-21T15:38:50.317Z</time></trkpt><trkpt lat="38.00241" lon="15.6424717"><ele>20.0</ele><time>2026-04-21T15:38:51.317Z</time></trkpt><trkpt lat="38.0026767" lon="15.6423767"><ele>22.0</ele><time>2026-04-21T15:38:52.317Z</time></trkpt><trkpt lat="38.00295" lon="15.6422833"><ele>24.0</ele><time>2026-04-21T15:38:53.317Z</time></trkpt><trkpt lat="38.0032283" lon="15.64219"><ele>28.0</ele><time>2026-04-21T15:38:54.317Z</time></trkpt><trkpt lat="38.00351" lon="15.6420967"><ele>32.0</ele><time>2026-04-21T15:38:55.317Z</time></trkpt><trkpt lat="38.0037933" lon="15.64201"><ele>29.0</ele><time>2026-04-21T15:38:56.317Z</time></trkpt><trkpt lat="38.00407" lon="15.641925"><ele>26.0</ele><time>2026-04-21T15:38:57.317Z</time></trkpt><trkpt lat="38.0043433" lon="15.6418183"><ele>26.0</ele><time>2026-04-21T15:38:58.317Z</time></trkpt><trkpt lat="38.0046117" lon="15.6417233"><ele>26.0</ele><time>2026-04-21T15:38:59.316Z</time></trkpt><trkpt lat="38.00488" lon="15.6416267"><ele>26.0</ele><time>2026-04-21T15:39:00.317Z</time></trkpt><trkpt lat="38.0051433" lon="15.6415333"><ele>26.0</ele><time>2026-04-21T15:39:01.317Z</time></trkpt><trkpt lat="38.00541" lon="15.6414417"><ele>26.0</ele><time>2026-04-21T15:39:02.317Z</time></trkpt><trkpt lat="38.0056783" lon="15.6413517"><ele>26.0</ele><time>2026-04-21T15:39:03.317Z</time></trkpt><trkpt lat="38.0059433" lon="15.6412667"><ele>28.0</ele><time>2026-04-21T15:39:04.317Z</time></trkpt><trkpt lat="38.0061917" lon="15.64119"><ele>30.0</ele><time>2026-04-21T15:39:05.317Z</time></trkpt><trkpt lat="38.0064217" lon="15.6411133"><ele>27.0</ele><time>2026-04-21T15:39:06.317Z</time></trkpt><trkpt lat="38.00664" lon="15.64104"><ele>24.0</ele><time>2026-04-21T15:39:07.317Z</time></trkpt><trkpt lat="38.0068383" lon="15.640965"><ele>21.0</ele><time>2026-04-21T15:39:08.317Z</time></trkpt><trkpt lat="38.0070283" lon="15.6408933"><ele>21.0</ele><time>2026-04-21T15:39:09.317Z</time></trkpt><trkpt lat="38.0072083" lon="15.6408233"><ele>21.0</ele><time>2026-04-21T15:39:10.317Z</time></trkpt><trkpt lat="38.0073783" lon="15.6407583"><ele>21.0</ele><time>2026-04-21T15:39:11.317Z</time></trkpt><trkpt lat="38.0075633" lon="15.6407067"><ele>22.0</ele><time>2026-04-21T15:39:12.317Z</time></trkpt><trkpt lat="38.007745" lon="15.6406433"><ele>23.0</ele><time>2026-04-21T15:39:13.317Z</time></trkpt><trkpt lat="38.0079333" lon="15.64058"><ele>24.0</ele><time>2026-04-21T15:39:14.317Z</time></trkpt><trkpt lat="38.00812" lon="15.6405117"><ele>24.0</ele><time>2026-04-21T15:39:15.317Z</time></trkpt><trkpt lat="38.00831" lon="15.6404567"><ele>24.0</ele><time>2026-04-21T15:39:16.317Z</time></trkpt><trkpt lat="38.0084933" lon="15.6403917"><ele>24.0</ele><time>2026-04-21T15:39:17.317Z</time></trkpt><trkpt lat="38.00869" lon="15.64033"><ele>24.0</ele><time>2026-04-21T15:39:18.317Z</time></trkpt><trkpt lat="38.00889" lon="15.64026"><ele>24.0</ele><time>2026-04-21T15:39:19.317Z</time></trkpt><trkpt lat="38.0090867" lon="15.6401867"><ele>24.0</ele><time>2026-04-21T15:39:20.317Z</time></trkpt><trkpt lat="38.0092933" lon="15.640115"><ele>24.0</ele><time>2026-04-21T15:39:21.317Z</time></trkpt><trkpt lat="38.0095033" lon="15.64005"><ele>24.0</ele><time>2026-04-21T15:39:22.317Z</time></trkpt><trkpt lat="38.00972" lon="15.63998"><ele>24.0</ele><time>2026-04-21T15:39:23.317Z</time></trkpt><trkpt lat="38.00994" lon="15.6399083"><ele>26.0</ele><time>2026-04-21T15:39:24.317Z</time></trkpt><trkpt lat="38.0101683" lon="15.6398367"><ele>28.0</ele><time>2026-04-21T15:39:25.317Z</time></trkpt><trkpt lat="38.01041" lon="15.6397533"><ele>28.0</ele><time>2026-04-21T15:39:26.317Z</time></trkpt><trkpt lat="38.01065" lon="15.63967"><ele>28.0</ele><time>2026-04-21T15:39:27.316Z</time></trkpt><trkpt lat="38.010895" lon="15.639575"><ele>28.5</ele><time>2026-04-21T15:39:28.317Z</time></trkpt><trkpt lat="38.01115" lon="15.6394883"><ele>29.0</ele><time>2026-04-21T15:39:29.317Z</time></trkpt><trkpt lat="38.0113967" lon="15.6394183"><ele>24.0</ele><time>2026-04-21T15:39:30.317Z</time></trkpt><trkpt lat="38.0116417" lon="15.6393417"><ele>19.0</ele><time>2026-04-21T15:39:31.317Z</time></trkpt><trkpt lat="38.01189" lon="15.639255"><ele>18.5</ele><time>2026-04-21T15:39:32.316Z</time></trkpt><trkpt lat="38.0121433" lon="15.6391617"><ele>18.0</ele><time>2026-04-21T15:39:33.317Z</time></trkpt><trkpt lat="38.0123983" lon="15.6390717"><ele>17.0</ele><time>2026-04-21T15:39:34.317Z</time></trkpt><trkpt lat="38.0126517" lon="15.6389917"><ele>16.0</ele><time>2026-04-21T15:39:35.316Z</time></trkpt><trkpt lat="38.0129" lon="15.6389117"><ele>16.0</ele><time>2026-04-21T15:39:36.317Z</time></trkpt><trkpt lat="38.0131433" lon="15.6388267"><ele>16.0</ele><time>2026-04-21T15:39:37.317Z</time></trkpt><trkpt lat="38.0133783" lon="15.6387483"><ele>16.0</ele><time>2026-04-21T15:39:38.317Z</time></trkpt><trkpt lat="38.01359" lon="15.63867"><ele>16.0</ele><time>2026-04-21T15:39:39.317Z</time></trkpt><trkpt lat="38.0138117" lon="15.6385967"><ele>16.0</ele><time>2026-04-21T15:39:40.317Z</time></trkpt><trkpt lat="38.0140233" lon="15.638525"><ele>16.0</ele><time>2026-04-21T15:39:41.317Z</time></trkpt><trkpt lat="38.0142117" lon="15.6384683"><ele>16.0</ele><time>2026-04-21T15:39:42.317Z</time></trkpt><trkpt lat="38.0143967" lon="15.6384267"><ele>17.0</ele><time>2026-04-21T15:39:43.317Z</time></trkpt><trkpt lat="38.014575" lon="15.6383917"><ele>18.0</ele><time>2026-04-21T15:39:44.317Z</time></trkpt><trkpt lat="38.014725" lon="15.6383667"><ele>19.0</ele><time>2026-04-21T15:39:45.317Z</time></trkpt><trkpt lat="38.014875" lon="15.638355"><ele>18.5</ele><time>2026-04-21T15:39:46.317Z</time></trkpt><trkpt lat="38.0150083" lon="15.638345"><ele>18.0</ele><time>2026-04-21T15:39:47.317Z</time></trkpt><trkpt lat="38.0151283" lon="15.638375"><ele>17.5</ele><time>2026-04-21T15:39:48.317Z</time></trkpt><trkpt lat="38.0152433" lon="15.6384233"><ele>17.0</ele><time>2026-04-21T15:39:49.317Z</time></trkpt><trkpt lat="38.0153583" lon="15.6384617"><ele>17.0</ele><time>2026-04-21T15:39:50.316Z</time></trkpt><trkpt lat="38.01548" lon="15.6384917"><ele>17.0</ele><time>2026-04-21T15:39:51.316Z</time></trkpt><trkpt lat="38.015595" lon="15.63855"><ele>17.0</ele><time>2026-04-21T15:39:52.317Z</time></trkpt><trkpt lat="38.0157117" lon="15.63864"><ele>17.0</ele><time>2026-04-21T15:39:53.317Z</time></trkpt><trkpt lat="38.0158267" lon="15.6387483"><ele>17.333333333333336</ele><time>2026-04-21T15:39:54.317Z</time></trkpt><trkpt lat="38.0159483" lon="15.6388533"><ele>17.666666666666668</ele><time>2026-04-21T15:39:55.317Z</time></trkpt><trkpt lat="38.016075" lon="15.6389667"><ele>18.0</ele><time>2026-04-21T15:39:56.317Z</time></trkpt><trkpt lat="38.0161917" lon="15.63909"><ele>18.0</ele><time>2026-04-21T15:39:57.317Z</time></trkpt><trkpt lat="38.0163017" lon="15.63924"><ele>18.0</ele><time>2026-04-21T15:39:58.317Z</time></trkpt><trkpt lat="38.0164083" lon="15.63941"><ele>18.0</ele><time>2026-04-21T15:39:59.317Z</time></trkpt><trkpt lat="38.01651" lon="15.639605"><ele>15.0</ele><time>2026-04-21T15:40:00.317Z</time></trkpt><trkpt lat="38.0165983" lon="15.6398067"><ele>12.0</ele><time>2026-04-21T15:40:01.317Z</time></trkpt><trkpt lat="38.0166917" lon="15.6400167"><ele>9.0</ele><time>2026-04-21T15:40:02.317Z</time></trkpt><trkpt lat="38.0167717" lon="15.6402283"><ele>11.0</ele><time>2026-04-21T15:40:03.317Z</time></trkpt><trkpt lat="38.0168517" lon="15.64045"><ele>13.0</ele><time>2026-04-21T15:40:04.317Z</time></trkpt><trkpt lat="38.0169267" lon="15.6406733"><ele>15.0</ele><time>2026-04-21T15:40:05.317Z</time></trkpt><trkpt lat="38.0170133" lon="15.640905"><ele>15.666666666666668</ele><time>2026-04-21T15:40:06.317Z</time></trkpt><trkpt lat="38.0170967" lon="15.64114"><ele>16.333333333333336</ele><time>2026-04-21T15:40:07.316Z</time></trkpt><trkpt lat="38.0171833" lon="15.6413867"><ele>17.0</ele><time>2026-04-21T15:40:08.316Z</time></trkpt><trkpt lat="38.01727" lon="15.64164"><ele>17.0</ele><time>2026-04-21T15:40:09.317Z</time></trkpt><trkpt lat="38.017355" lon="15.6418967"><ele>17.0</ele><time>2026-04-21T15:40:10.317Z</time></trkpt><trkpt lat="38.0174517" lon="15.6421567"><ele>17.0</ele><time>2026-04-21T15:40:11.317Z</time></trkpt><trkpt lat="38.0175367" lon="15.6424033"><ele>16.333333333333336</ele><time>2026-04-21T15:40:12.317Z</time></trkpt><trkpt lat="38.01762" lon="15.6426533"><ele>15.666666666666668</ele><time>2026-04-21T15:40:13.317Z</time></trkpt><trkpt lat="38.0177083" lon="15.6428983"><ele>15.0</ele><time>2026-04-21T15:40:14.317Z</time></trkpt><trkpt lat="38.0177883" lon="15.6431433"><ele>15.0</ele><time>2026-04-21T15:40:15.317Z</time></trkpt><trkpt lat="38.01787" lon="15.6433833"><ele>15.0</ele><time>2026-04-21T15:40:16.317Z</time></trkpt><trkpt lat="38.0179583" lon="15.643625"><ele>15.0</ele><time>2026-04-21T15:40:17.317Z</time></trkpt><trkpt lat="38.0180517" lon="15.6438733"><ele>17.0</ele><time>2026-04-21T15:40:18.317Z</time></trkpt><trkpt lat="38.0181417" lon="15.64413"><ele>19.0</ele><time>2026-04-21T15:40:19.317Z</time></trkpt><trkpt lat="38.0182317" lon="15.6443867"><ele>21.0</ele><time>2026-04-21T15:40:20.317Z</time></trkpt><trkpt lat="38.0183133" lon="15.6446367"><ele>21.0</ele><time>2026-04-21T15:40:21.317Z</time></trkpt><trkpt lat="38.0184017" lon="15.6448867"><ele>21.0</ele><time>2026-04-21T15:40:22.317Z</time></trkpt><trkpt lat="38.0184983" lon="15.64514"><ele>21.0</ele><time>2026-04-21T15:40:23.317Z</time></trkpt><trkpt lat="38.018595" lon="15.6453817"><ele>21.0</ele><time>2026-04-21T15:40:24.317Z</time></trkpt><trkpt lat="38.0186967" lon="15.64561"><ele>21.0</ele><time>2026-04-21T15:40:25.317Z</time></trkpt><trkpt lat="38.0187983" lon="15.645825"><ele>21.0</ele><time>2026-04-21T15:40:26.317Z</time></trkpt><trkpt lat="38.0189133" lon="15.646025"><ele>21.333333333333332</ele><time>2026-04-21T15:40:27.317Z</time></trkpt><trkpt lat="38.0190317" lon="15.646225"><ele>21.666666666666664</ele><time>2026-04-21T15:40:28.317Z</time></trkpt><trkpt lat="38.0191617" lon="15.6464233"><ele>22.0</ele><time>2026-04-21T15:40:29.316Z</time></trkpt><trkpt lat="38.0192933" lon="15.6466283"><ele>20.666666666666664</ele><time>2026-04-21T15:40:30.317Z</time></trkpt><trkpt lat="38.0194267" lon="15.6468333"><ele>19.333333333333332</ele><time>2026-04-21T15:40:31.317Z</time></trkpt><trkpt lat="38.019565" lon="15.6470483"><ele>18.0</ele><time>2026-04-21T15:40:32.317Z</time></trkpt><trkpt lat="38.0197017" lon="15.647265"><ele>18.0</ele><time>2026-04-21T15:40:33.317Z</time></trkpt><trkpt lat="38.0198383" lon="15.64748"><ele>18.0</ele><time>2026-04-21T15:40:34.317Z</time></trkpt><trkpt lat="38.0199667" lon="15.6476917"><ele>18.0</ele><time>2026-04-21T15:40:35.317Z</time></trkpt><trkpt lat="38.0200883" lon="15.64788"><ele>18.333333333333332</ele><time>2026-04-21T15:40:36.317Z</time></trkpt><trkpt lat="38.0202033" lon="15.6480567"><ele>18.666666666666664</ele><time>2026-04-21T15:40:37.317Z</time></trkpt><trkpt lat="38.0203117" lon="15.648225"><ele>19.0</ele><time>2026-04-21T15:40:38.317Z</time></trkpt><trkpt lat="38.0204117" lon="15.6483783"><ele>19.0</ele><time>2026-04-21T15:40:39.317Z</time></trkpt><trkpt lat="38.0204967" lon="15.648525"><ele>19.0</ele><time>2026-04-21T15:40:40.317Z</time></trkpt><trkpt lat="38.020585" lon="15.6486567"><ele>19.0</ele><time>2026-04-21T15:40:41.317Z</time></trkpt><trkpt lat="38.0206683" lon="15.6487767"><ele>19.0</ele><time>2026-04-21T15:40:42.317Z</time></trkpt><trkpt lat="38.020745" lon="15.6488917"><ele>19.4</ele><time>2026-04-21T15:40:43.317Z</time></trkpt><trkpt lat="38.020815" lon="15.649"><ele>19.799999999999997</ele><time>2026-04-21T15:40:44.317Z</time></trkpt><trkpt lat="38.020875" lon="15.6491"><ele>20.200000000000003</ele><time>2026-04-21T15:40:45.317Z</time></trkpt><trkpt lat="38.020925" lon="15.649185"><ele>20.6</ele><time>2026-04-21T15:40:46.317Z</time></trkpt><trkpt lat="38.0209567" lon="15.649255"><ele>21.0</ele><time>2026-04-21T15:40:47.317Z</time></trkpt><trkpt lat="38.021005" lon="15.649375"><ele>21.200000000000003</ele><time>2026-04-21T15:40:49.317Z</time></trkpt><trkpt lat="38.0210617" lon="15.6495283"><ele>21.400000000000002</ele><time>2026-04-21T15:40:51.317Z</time></trkpt><trkpt lat="38.02112" lon="15.6496033"><ele>21.6</ele><time>2026-04-21T15:40:52.316Z</time></trkpt><trkpt lat="38.02119" lon="15.6496833"><ele>21.8</ele><time>2026-04-21T15:40:53.317Z</time></trkpt><trkpt lat="38.021265" lon="15.6497817"><ele>22.0</ele><time>2026-04-21T15:40:54.317Z</time></trkpt><trkpt lat="38.021345" lon="15.64989"><ele>22.0</ele><time>2026-04-21T15:40:55.317Z</time></trkpt><trkpt lat="38.021425" lon="15.6500017"><ele>22.0</ele><time>2026-04-21T15:40:56.317Z</time></trkpt><trkpt lat="38.0214983" lon="15.6501133"><ele>22.0</ele><time>2026-04-21T15:40:57.316Z</time></trkpt><trkpt lat="38.0215717" lon="15.6502267"><ele>22.0</ele><time>2026-04-21T15:40:58.317Z</time></trkpt><trkpt lat="38.0216483" lon="15.6503367"><ele>22.75</ele><time>2026-04-21T15:40:59.317Z</time></trkpt><trkpt lat="38.0217217" lon="15.65045"><ele>23.5</ele><time>2026-04-21T15:41:00.317Z</time></trkpt><trkpt lat="38.0217917" lon="15.6505617"><ele>24.25</ele><time>2026-04-21T15:41:01.317Z</time></trkpt><trkpt lat="38.0218783" lon="15.6506667"><ele>25.0</ele><time>2026-04-21T15:41:02.317Z</time></trkpt><trkpt lat="38.02195" lon="15.650795"><ele>25.0</ele><time>2026-04-21T15:41:03.317Z</time></trkpt><trkpt lat="38.0220317" lon="15.6509217"><ele>25.0</ele><time>2026-04-21T15:41:04.317Z</time></trkpt><trkpt lat="38.0221167" lon="15.6510733"><ele>25.0</ele><time>2026-04-21T15:41:05.317Z</time></trkpt><trkpt lat="38.0222133" lon="15.651215"><ele>25.0</ele><time>2026-04-21T15:41:06.317Z</time></trkpt><trkpt lat="38.0223167" lon="15.65137"><ele>25.0</ele><time>2026-04-21T15:41:07.317Z</time></trkpt><trkpt lat="38.0224267" lon="15.6515217"><ele>25.0</ele><time>2026-04-21T15:41:08.317Z</time></trkpt><trkpt lat="38.0225283" lon="15.651685"><ele>25.0</ele><time>2026-04-21T15:41:09.317Z</time></trkpt><trkpt lat="38.0226317" lon="15.6518483"><ele>23.0</ele><time>2026-04-21T15:41:10.317Z</time></trkpt><trkpt lat="38.0227417" lon="15.6520133"><ele>21.0</ele><time>2026-04-21T15:41:11.317Z</time></trkpt><trkpt lat="38.0228467" lon="15.6521717"><ele>19.0</ele><time>2026-04-21T15:41:12.317Z</time></trkpt><trkpt lat="38.02295" lon="15.6523333"><ele>19.0</ele><time>2026-04-21T15:41:13.317Z</time></trkpt><trkpt lat="38.0230517" lon="15.6524933"><ele>19.0</ele><time>2026-04-21T15:41:14.317Z</time></trkpt><trkpt lat="38.0231583" lon="15.6526667"><ele>19.0</ele><time>2026-04-21T15:41:15.317Z</time></trkpt><trkpt lat="38.0232633" lon="15.652835"><ele>18.0</ele><time>2026-04-21T15:41:16.317Z</time></trkpt><trkpt lat="38.0233633" lon="15.653005"><ele>17.0</ele><time>2026-04-21T15:41:17.317Z</time></trkpt><trkpt lat="38.023465" lon="15.6531683"><ele>16.0</ele><time>2026-04-21T15:41:18.317Z</time></trkpt><trkpt lat="38.0235683" lon="15.6533283"><ele>16.0</ele><time>2026-04-21T15:41:19.316Z</time></trkpt><trkpt lat="38.0236733" lon="15.653485"><ele>16.0</ele><time>2026-04-21T15:41:20.317Z</time></trkpt><trkpt lat="38.0237717" lon="15.65364"><ele>16.0</ele><time>2026-04-21T15:41:21.317Z</time></trkpt><trkpt lat="38.02388" lon="15.6538033"><ele>16.333333333333332</ele><time>2026-04-21T15:41:22.317Z</time></trkpt><trkpt lat="38.023995" lon="15.653955"><ele>16.666666666666668</ele><time>2026-04-21T15:41:23.317Z</time></trkpt><trkpt lat="38.0241183" lon="15.6541017"><ele>17.0</ele><time>2026-04-21T15:41:24.316Z</time></trkpt><trkpt lat="38.024245" lon="15.654245"><ele>16.333333333333336</ele><time>2026-04-21T15:41:25.317Z</time></trkpt><trkpt lat="38.0243817" lon="15.654375"><ele>15.666666666666668</ele><time>2026-04-21T15:41:26.316Z</time></trkpt><trkpt lat="38.02453" lon="15.6544883"><ele>15.0</ele><time>2026-04-21T15:41:27.317Z</time></trkpt><trkpt lat="38.02469" lon="15.6545767"><ele>15.0</ele><time>2026-04-21T15:41:28.317Z</time></trkpt><trkpt lat="38.0248517" lon="15.6546683"><ele>15.0</ele><time>2026-04-21T15:41:29.317Z</time></trkpt><trkpt lat="38.02502" lon="15.6547433"><ele>15.0</ele><time>2026-04-21T15:41:30.317Z</time></trkpt><trkpt lat="38.0251933" lon="15.6548"><ele>14.333333333333332</ele><time>2026-04-21T15:41:31.317Z</time></trkpt><trkpt lat="38.025365" lon="15.6548567"><ele>13.666666666666666</ele><time>2026-04-21T15:41:32.317Z</time></trkpt><trkpt lat="38.0255467" lon="15.65492"><ele>13.0</ele><time>2026-04-21T15:41:33.317Z</time></trkpt><trkpt lat="38.02573" lon="15.654995"><ele>13.0</ele><time>2026-04-21T15:41:34.317Z</time></trkpt><trkpt lat="38.0259133" lon="15.655065"><ele>13.0</ele><time>2026-04-21T15:41:35.317Z</time></trkpt><trkpt lat="38.02609" lon="15.6551333"><ele>13.0</ele><time>2026-04-21T15:41:36.317Z</time></trkpt><trkpt lat="38.026265" lon="15.6551967"><ele>13.0</ele><time>2026-04-21T15:41:37.317Z</time></trkpt><trkpt lat="38.02643" lon="15.6552483"><ele>13.0</ele><time>2026-04-21T15:41:38.317Z</time></trkpt><trkpt lat="38.0265967" lon="15.655305"><ele>13.0</ele><time>2026-04-21T15:41:39.317Z</time></trkpt><trkpt lat="38.0267633" lon="15.65536"><ele>14.0</ele><time>2026-04-21T15:41:40.317Z</time></trkpt><trkpt lat="38.0269333" lon="15.6554267"><ele>15.0</ele><time>2026-04-21T15:41:41.317Z</time></trkpt><trkpt lat="38.02711" lon="15.6554917"><ele>16.0</ele><time>2026-04-21T15:41:42.317Z</time></trkpt><trkpt lat="38.0272833" lon="15.65556"><ele>16.0</ele><time>2026-04-21T15:41:43.317Z</time></trkpt><trkpt lat="38.0274617" lon="15.6556317"><ele>16.0</ele><time>2026-04-21T15:41:44.317Z</time></trkpt><trkpt lat="38.02764" lon="15.6557"><ele>16.0</ele><time>2026-04-21T15:41:45.317Z</time></trkpt><trkpt lat="38.0278167" lon="15.6557683"><ele>15.666666666666666</ele><time>2026-04-21T15:41:46.317Z</time></trkpt><trkpt lat="38.0279967" lon="15.655835"><ele>15.333333333333332</ele><time>2026-04-21T15:41:47.317Z</time></trkpt><trkpt lat="38.0281733" lon="15.6559033"><ele>15.0</ele><time>2026-04-21T15:41:48.317Z</time></trkpt><trkpt lat="38.0283467" lon="15.6559667"><ele>15.333333333333332</ele><time>2026-04-21T15:41:49.317Z</time></trkpt><trkpt lat="38.0285183" lon="15.6560333"><ele>15.666666666666666</ele><time>2026-04-21T15:41:50.316Z</time></trkpt><trkpt lat="38.0286983" lon="15.6561033"><ele>16.0</ele><time>2026-04-21T15:41:51.317Z</time></trkpt><trkpt lat="38.0288867" lon="15.65618"><ele>16.0</ele><time>2026-04-21T15:41:52.317Z</time></trkpt><trkpt lat="38.0290733" lon="15.65625"><ele>16.0</ele><time>2026-04-21T15:41:53.317Z</time></trkpt><trkpt lat="38.0292617" lon="15.656325"><ele>16.0</ele><time>2026-04-21T15:41:54.317Z</time></trkpt><trkpt lat="38.0294517" lon="15.6564"><ele>15.333333333333332</ele><time>2026-04-21T15:41:55.317Z</time></trkpt><trkpt lat="38.02964" lon="15.6564817"><ele>14.666666666666668</ele><time>2026-04-21T15:41:56.317Z</time></trkpt><trkpt lat="38.0298333" lon="15.65656"><ele>14.0</ele><time>2026-04-21T15:41:57.317Z</time></trkpt><trkpt lat="38.03002" lon="15.6566283"><ele>13.0</ele><time>2026-04-21T15:41:58.317Z</time></trkpt><trkpt lat="38.0301933" lon="15.6566967"><ele>12.0</ele><time>2026-04-21T15:41:59.317Z</time></trkpt><trkpt lat="38.03037" lon="15.6567667"><ele>11.0</ele><time>2026-04-21T15:42:00.317Z</time></trkpt><trkpt lat="38.0305467" lon="15.6568267"><ele>11.0</ele><time>2026-04-21T15:42:01.317Z</time></trkpt><trkpt lat="38.0307183" lon="15.656895"><ele>11.0</ele><time>2026-04-21T15:42:02.317Z</time></trkpt><trkpt lat="38.0308933" lon="15.6569583"><ele>11.0</ele><time>2026-04-21T15:42:03.317Z</time></trkpt><trkpt lat="38.031065" lon="15.657025"><ele>12.333333333333332</ele><time>2026-04-21T15:42:04.317Z</time></trkpt><trkpt lat="38.031245" lon="15.6570983"><ele>13.666666666666666</ele><time>2026-04-21T15:42:05.317Z</time></trkpt><trkpt lat="38.0314217" lon="15.6571717"><ele>15.0</ele><time>2026-04-21T15:42:06.317Z</time></trkpt><trkpt lat="38.0316017" lon="15.6572483"><ele>14.666666666666668</ele><time>2026-04-21T15:42:07.316Z</time></trkpt><trkpt lat="38.0317783" lon="15.6573167"><ele>14.333333333333334</ele><time>2026-04-21T15:42:08.317Z</time></trkpt><trkpt lat="38.0319567" lon="15.65738"><ele>14.0</ele><time>2026-04-21T15:42:09.317Z</time></trkpt><trkpt lat="38.0321367" lon="15.6574533"><ele>14.0</ele><time>2026-04-21T15:42:10.317Z</time></trkpt><trkpt lat="38.0323183" lon="15.6575333"><ele>14.0</ele><time>2026-04-21T15:42:11.317Z</time></trkpt><trkpt lat="38.032495" lon="15.6576083"><ele>14.0</ele><time>2026-04-21T15:42:12.316Z</time></trkpt><trkpt lat="38.0326517" lon="15.6576783"><ele>14.0</ele><time>2026-04-21T15:42:13.317Z</time></trkpt><trkpt lat="38.032815" lon="15.657735"><ele>14.0</ele><time>2026-04-21T15:42:14.317Z</time></trkpt><trkpt lat="38.0329817" lon="15.6577967"><ele>14.0</ele><time>2026-04-21T15:42:15.317Z</time></trkpt><trkpt lat="38.0331567" lon="15.657865"><ele>13.0</ele><time>2026-04-21T15:42:16.317Z</time></trkpt><trkpt lat="38.0333367" lon="15.6579367"><ele>12.0</ele><time>2026-04-21T15:42:17.317Z</time></trkpt><trkpt lat="38.0335117" lon="15.6580067"><ele>11.0</ele><time>2026-04-21T15:42:18.317Z</time></trkpt><trkpt lat="38.0336917" lon="15.6580767"><ele>11.0</ele><time>2026-04-21T15:42:19.317Z</time></trkpt><trkpt lat="38.033875" lon="15.6581433"><ele>11.0</ele><time>2026-04-21T15:42:20.317Z</time></trkpt><trkpt lat="38.034055" lon="15.6582167"><ele>11.0</ele><time>2026-04-21T15:42:21.317Z</time></trkpt><trkpt lat="38.0342333" lon="15.65829"><ele>11.333333333333332</ele><time>2026-04-21T15:42:22.317Z</time></trkpt><trkpt lat="38.0343967" lon="15.6583567"><ele>11.666666666666666</ele><time>2026-04-21T15:42:23.317Z</time></trkpt><trkpt lat="38.0345383" lon="15.6584083"><ele>12.0</ele><time>2026-04-21T15:42:24.317Z</time></trkpt><trkpt lat="38.0346717" lon="15.658455"><ele>12.0</ele><time>2026-04-21T15:42:25.317Z</time></trkpt><trkpt lat="38.0348" lon="15.658505"><ele>12.0</ele><time>2026-04-21T15:42:26.317Z</time></trkpt><trkpt lat="38.034935" lon="15.65857"><ele>12.0</ele><time>2026-04-21T15:42:27.317Z</time></trkpt><trkpt lat="38.0350783" lon="15.6586417"><ele>12.0</ele><time>2026-04-21T15:42:28.317Z</time></trkpt><trkpt lat="38.035235" lon="15.658715"><ele>12.333333333333332</ele><time>2026-04-21T15:42:29.317Z</time></trkpt><trkpt lat="38.0353967" lon="15.6587883"><ele>12.666666666666666</ele><time>2026-04-21T15:42:30.317Z</time></trkpt><trkpt lat="38.0355733" lon="15.6588617"><ele>13.0</ele><time>2026-04-21T15:42:31.317Z</time></trkpt><trkpt lat="38.0357567" lon="15.6589367"><ele>12.333333333333332</ele><time>2026-04-21T15:42:32.317Z</time></trkpt><trkpt lat="38.035945" lon="15.6590083"><ele>11.666666666666666</ele><time>2026-04-21T15:42:33.317Z</time></trkpt><trkpt lat="38.0361383" lon="15.6590817"><ele>11.0</ele><time>2026-04-21T15:42:34.317Z</time></trkpt><trkpt lat="38.036345" lon="15.6591617"><ele>11.0</ele><time>2026-04-21T15:42:35.317Z</time></trkpt><trkpt lat="38.0365583" lon="15.6592417"><ele>11.0</ele><time>2026-04-21T15:42:36.317Z</time></trkpt><trkpt lat="38.0367733" lon="15.6593333"><ele>11.0</ele><time>2026-04-21T15:42:37.317Z</time></trkpt><trkpt lat="38.0369967" lon="15.6594183"><ele>12.0</ele><time>2026-04-21T15:42:38.317Z</time></trkpt><trkpt lat="38.03722" lon="15.659505"><ele>13.0</ele><time>2026-04-21T15:42:39.317Z</time></trkpt><trkpt lat="38.0374417" lon="15.65958"><ele>13.666666666666666</ele><time>2026-04-21T15:42:40.317Z</time></trkpt><trkpt lat="38.037665" lon="15.6596483"><ele>14.333333333333332</ele><time>2026-04-21T15:42:41.317Z</time></trkpt><trkpt lat="38.037875" lon="15.659695"><ele>15.0</ele><time>2026-04-21T15:42:42.317Z</time></trkpt><trkpt lat="38.0380717" lon="15.659725"><ele>15.0</ele><time>2026-04-21T15:42:43.317Z</time></trkpt><trkpt lat="38.0382583" lon="15.6597367"><ele>15.0</ele><time>2026-04-21T15:42:44.317Z</time></trkpt><trkpt lat="38.038435" lon="15.6597317"><ele>15.0</ele><time>2026-04-21T15:42:45.316Z</time></trkpt><trkpt lat="38.0386033" lon="15.659725"><ele>16.0</ele><time>2026-04-21T15:42:46.317Z</time></trkpt><trkpt lat="38.038775" lon="15.6597017"><ele>17.0</ele><time>2026-04-21T15:42:47.317Z</time></trkpt><trkpt lat="38.03895" lon="15.65967"><ele>18.0</ele><time>2026-04-21T15:42:48.317Z</time></trkpt><trkpt lat="38.039125" lon="15.6596283"><ele>18.333333333333332</ele><time>2026-04-21T15:42:49.317Z</time></trkpt><trkpt lat="38.0392917" lon="15.6595767"><ele>18.666666666666664</ele><time>2026-04-21T15:42:50.317Z</time></trkpt><trkpt lat="38.039455" lon="15.659515"><ele>19.0</ele><time>2026-04-21T15:42:51.317Z</time></trkpt><trkpt lat="38.0396183" lon="15.6594533"><ele>17.333333333333332</ele><time>2026-04-21T15:42:52.317Z</time></trkpt><trkpt lat="38.0397817" lon="15.6593833"><ele>15.666666666666668</ele><time>2026-04-21T15:42:53.316Z</time></trkpt><trkpt lat="38.0399383" lon="15.659295"><ele>14.0</ele><time>2026-04-21T15:42:54.317Z</time></trkpt><trkpt lat="38.0400867" lon="15.6592133"><ele>14.0</ele><time>2026-04-21T15:42:55.317Z</time></trkpt><trkpt lat="38.0402283" lon="15.65913"><ele>14.0</ele><time>2026-04-21T15:42:56.317Z</time></trkpt><trkpt lat="38.0403783" lon="15.6590533"><ele>14.0</ele><time>2026-04-21T15:42:57.317Z</time></trkpt><trkpt lat="38.0405183" lon="15.6589683"><ele>14.0</ele><time>2026-04-21T15:42:58.317Z</time></trkpt><trkpt lat="38.0406483" lon="15.6588883"><ele>14.0</ele><time>2026-04-21T15:42:59.317Z</time></trkpt><trkpt lat="38.0407867" lon="15.6588183"><ele>14.0</ele><time>2026-04-21T15:43:00.317Z</time></trkpt><trkpt lat="38.040935" lon="15.65874"><ele>14.0</ele><time>2026-04-21T15:43:01.317Z</time></trkpt><trkpt lat="38.041085" lon="15.65866"><ele>14.0</ele><time>2026-04-21T15:43:02.317Z</time></trkpt><trkpt lat="38.0412433" lon="15.6585783"><ele>14.0</ele><time>2026-04-21T15:43:03.317Z</time></trkpt><trkpt lat="38.0414067" lon="15.6584983"><ele>13.0</ele><time>2026-04-21T15:43:04.317Z</time></trkpt><trkpt lat="38.04156" lon="15.65841"><ele>12.0</ele><time>2026-04-21T15:43:05.317Z</time></trkpt><trkpt lat="38.0417167" lon="15.6583283"><ele>11.0</ele><time>2026-04-21T15:43:06.316Z</time></trkpt><trkpt lat="38.04188" lon="15.6582417"><ele>11.0</ele><time>2026-04-21T15:43:07.317Z</time></trkpt><trkpt lat="38.0420383" lon="15.6581567"><ele>11.0</ele><time>2026-04-21T15:43:08.317Z</time></trkpt><trkpt lat="38.042195" lon="15.6580617"><ele>11.0</ele><time>2026-04-21T15:43:09.316Z</time></trkpt><trkpt lat="38.0423533" lon="15.6579767"><ele>10.333333333333332</ele><time>2026-04-21T15:43:10.317Z</time></trkpt><trkpt lat="38.0425167" lon="15.65788"><ele>9.666666666666666</ele><time>2026-04-21T15:43:11.317Z</time></trkpt><trkpt lat="38.04269" lon="15.6577917"><ele>9.0</ele><time>2026-04-21T15:43:12.317Z</time></trkpt><trkpt lat="38.0428583" lon="15.65771"><ele>9.0</ele><time>2026-04-21T15:43:13.317Z</time></trkpt><trkpt lat="38.0430333" lon="15.65762"><ele>9.0</ele><time>2026-04-21T15:43:14.317Z</time></trkpt><trkpt lat="38.04321" lon="15.6575183"><ele>9.0</ele><time>2026-04-21T15:43:15.317Z</time></trkpt><trkpt lat="38.04338" lon="15.65743"><ele>10.333333333333332</ele><time>2026-04-21T15:43:16.317Z</time></trkpt><trkpt lat="38.043545" lon="15.6573333"><ele>11.666666666666666</ele><time>2026-04-21T15:43:17.317Z</time></trkpt><trkpt lat="38.0437117" lon="15.65724"><ele>13.0</ele><time>2026-04-21T15:43:18.317Z</time></trkpt><trkpt lat="38.04387" lon="15.657145"><ele>13.0</ele><time>2026-04-21T15:43:19.317Z</time></trkpt><trkpt lat="38.0440233" lon="15.6570633"><ele>13.0</ele><time>2026-04-21T15:43:20.317Z</time></trkpt><trkpt lat="38.04417" lon="15.6569883"><ele>13.0</ele><time>2026-04-21T15:43:21.317Z</time></trkpt><trkpt lat="38.04432" lon="15.6569133"><ele>12.666666666666666</ele><time>2026-04-21T15:43:22.316Z</time></trkpt><trkpt lat="38.0444817" lon="15.6568333"><ele>12.333333333333332</ele><time>2026-04-21T15:43:23.317Z</time></trkpt><trkpt lat="38.044635" lon="15.656755"><ele>12.0</ele><time>2026-04-21T15:43:24.317Z</time></trkpt><trkpt lat="38.044795" lon="15.6566683"><ele>12.0</ele><time>2026-04-21T15:43:25.317Z</time></trkpt><trkpt lat="38.0449533" lon="15.65658"><ele>12.0</ele><time>2026-04-21T15:43:26.317Z</time></trkpt><trkpt lat="38.045115" lon="15.6564983"><ele>12.0</ele><time>2026-04-21T15:43:27.317Z</time></trkpt><trkpt lat="38.0452867" lon="15.656415"><ele>12.666666666666668</ele><time>2026-04-21T15:43:28.317Z</time></trkpt><trkpt lat="38.0454633" lon="15.656335"><ele>13.333333333333334</ele><time>2026-04-21T15:43:29.317Z</time></trkpt><trkpt lat="38.045645" lon="15.6562667"><ele>14.0</ele><time>2026-04-21T15:43:30.317Z</time></trkpt><trkpt lat="38.0458333" lon="15.656215"><ele>14.0</ele><time>2026-04-21T15:43:31.317Z</time></trkpt><trkpt lat="38.046025" lon="15.65617"><ele>14.0</ele><time>2026-04-21T15:43:32.317Z</time></trkpt><trkpt lat="38.04623" lon="15.6561267"><ele>14.0</ele><time>2026-04-21T15:43:33.317Z</time></trkpt><trkpt lat="38.0464383" lon="15.6560833"><ele>14.666666666666668</ele><time>2026-04-21T15:43:34.317Z</time></trkpt><trkpt lat="38.0466483" lon="15.6560417"><ele>15.333333333333332</ele><time>2026-04-21T15:43:35.317Z</time></trkpt><trkpt lat="38.04686" lon="15.656"><ele>16.0</ele><time>2026-04-21T15:43:36.317Z</time></trkpt><trkpt lat="38.047075" lon="15.6559517"><ele>16.0</ele><time>2026-04-21T15:43:37.317Z</time></trkpt><trkpt lat="38.047295" lon="15.6559067"><ele>16.0</ele><time>2026-04-21T15:43:38.317Z</time></trkpt><trkpt lat="38.0475117" lon="15.65587"><ele>16.0</ele><time>2026-04-21T15:43:39.317Z</time></trkpt><trkpt lat="38.0477383" lon="15.6558267"><ele>16.666666666666664</ele><time>2026-04-21T15:43:40.317Z</time></trkpt><trkpt lat="38.0479617" lon="15.65578"><ele>17.333333333333332</ele><time>2026-04-21T15:43:41.317Z</time></trkpt><trkpt lat="38.0481833" lon="15.6557583"><ele>18.0</ele><time>2026-04-21T15:43:42.317Z</time></trkpt><trkpt lat="38.048405" lon="15.655745"><ele>18.333333333333332</ele><time>2026-04-21T15:43:43.317Z</time></trkpt><trkpt lat="38.048625" lon="15.6557433"><ele>18.666666666666664</ele><time>2026-04-21T15:43:44.317Z</time></trkpt><trkpt lat="38.04885" lon="15.655755"><ele>19.0</ele><time>2026-04-21T15:43:45.317Z</time></trkpt><trkpt lat="38.0490717" lon="15.65577"><ele>20.0</ele><time>2026-04-21T15:43:46.317Z</time></trkpt><trkpt lat="38.0492867" lon="15.6557983"><ele>21.0</ele><time>2026-04-21T15:43:47.317Z</time></trkpt><trkpt lat="38.0494933" lon="15.6558333"><ele>22.0</ele><time>2026-04-21T15:43:48.317Z</time></trkpt><trkpt lat="38.0496867" lon="15.65588"><ele>22.0</ele><time>2026-04-21T15:43:49.317Z</time></trkpt><trkpt lat="38.049875" lon="15.6559283"><ele>22.0</ele><time>2026-04-21T15:43:50.317Z</time></trkpt><trkpt lat="38.0500633" lon="15.6559883"><ele>22.0</ele><time>2026-04-21T15:43:51.317Z</time></trkpt><trkpt lat="38.0502467" lon="15.6560533"><ele>24.0</ele><time>2026-04-21T15:43:52.317Z</time></trkpt><trkpt lat="38.05043" lon="15.6561217"><ele>26.0</ele><time>2026-04-21T15:43:53.317Z</time></trkpt><trkpt lat="38.050605" lon="15.6561983"><ele>28.0</ele><time>2026-04-21T15:43:54.317Z</time></trkpt><trkpt lat="38.0507783" lon="15.656295"><ele>28.333333333333336</ele><time>2026-04-21T15:43:55.316Z</time></trkpt><trkpt lat="38.050965" lon="15.6564"><ele>28.666666666666664</ele><time>2026-04-21T15:43:56.317Z</time></trkpt><trkpt lat="38.051155" lon="15.6565133"><ele>29.0</ele><time>2026-04-21T15:43:57.317Z</time></trkpt><trkpt lat="38.051335" lon="15.6566483"><ele>29.0</ele><time>2026-04-21T15:43:58.317Z</time></trkpt><trkpt lat="38.0515267" lon="15.6567933"><ele>29.0</ele><time>2026-04-21T15:43:59.317Z</time></trkpt><trkpt lat="38.0517267" lon="15.65694"><ele>30.5</ele><time>2026-04-21T15:44:00.317Z</time></trkpt><trkpt lat="38.0519333" lon="15.657085"><ele>32.0</ele><time>2026-04-21T15:44:01.317Z</time></trkpt><trkpt lat="38.0521417" lon="15.6572267"><ele>32.0</ele><time>2026-04-21T15:44:02.317Z</time></trkpt><trkpt lat="38.0523517" lon="15.657375"><ele>32.0</ele><time>2026-04-21T15:44:03.317Z</time></trkpt><trkpt lat="38.0525633" lon="15.65752"><ele>31.5</ele><time>2026-04-21T15:44:04.317Z</time></trkpt><trkpt lat="38.0527833" lon="15.657665"><ele>31.0</ele><time>2026-04-21T15:44:05.317Z</time></trkpt><trkpt lat="38.053015" lon="15.65781"><ele>32.5</ele><time>2026-04-21T15:44:06.317Z</time></trkpt><trkpt lat="38.0532483" lon="15.65795"><ele>34.0</ele><time>2026-04-21T15:44:07.317Z</time></trkpt><trkpt lat="38.0534883" lon="15.6580883"><ele>34.0</ele><time>2026-04-21T15:44:08.317Z</time></trkpt><trkpt lat="38.0537183" lon="15.6582217"><ele>34.0</ele><time>2026-04-21T15:44:09.317Z</time></trkpt><trkpt lat="38.05395" lon="15.6583617"><ele>34.5</ele><time>2026-04-21T15:44:10.316Z</time></trkpt><trkpt lat="38.0541983" lon="15.65852"><ele>35.0</ele><time>2026-04-21T15:44:11.317Z</time></trkpt><trkpt lat="38.0544333" lon="15.6586383"><ele>36.0</ele><time>2026-04-21T15:44:12.317Z</time></trkpt><trkpt lat="38.05467" lon="15.6587583"><ele>37.0</ele><time>2026-04-21T15:44:13.316Z</time></trkpt><trkpt lat="38.0549017" lon="15.6588767"><ele>35.5</ele><time>2026-04-21T15:44:14.317Z</time></trkpt><trkpt lat="38.0551417" lon="15.6590017"><ele>34.0</ele><time>2026-04-21T15:44:15.317Z</time></trkpt><trkpt lat="38.0553783" lon="15.659145"><ele>34.0</ele><time>2026-04-21T15:44:16.317Z</time></trkpt><trkpt lat="38.0556133" lon="15.6592733"><ele>34.0</ele><time>2026-04-21T15:44:17.317Z</time></trkpt><trkpt lat="38.0558383" lon="15.6594067"><ele>36.0</ele><time>2026-04-21T15:44:18.317Z</time></trkpt><trkpt lat="38.0560583" lon="15.6595333"><ele>38.0</ele><time>2026-04-21T15:44:19.317Z</time></trkpt><trkpt lat="38.0562833" lon="15.65966"><ele>38.0</ele><time>2026-04-21T15:44:20.317Z</time></trkpt><trkpt lat="38.0564967" lon="15.6597767"><ele>38.0</ele><time>2026-04-21T15:44:21.317Z</time></trkpt><trkpt lat="38.05671" lon="15.65989"><ele>36.5</ele><time>2026-04-21T15:44:22.316Z</time></trkpt><trkpt lat="38.0569217" lon="15.6600083"><ele>35.0</ele><time>2026-04-21T15:44:23.317Z</time></trkpt><trkpt lat="38.0571367" lon="15.660135"><ele>35.0</ele><time>2026-04-21T15:44:24.317Z</time></trkpt><trkpt lat="38.05735" lon="15.6602617"><ele>35.0</ele><time>2026-04-21T15:44:25.317Z</time></trkpt><trkpt lat="38.0575617" lon="15.6603883"><ele>35.5</ele><time>2026-04-21T15:44:26.317Z</time></trkpt><trkpt lat="38.057775" lon="15.6605133"><ele>36.0</ele><time>2026-04-21T15:44:27.317Z</time></trkpt><trkpt lat="38.0583383" lon="15.6608967"><ele>36.0</ele><time>2026-04-21T15:44:30.317Z</time></trkpt><trkpt lat="38.05856" lon="15.6610067"><ele>36.0</ele><time>2026-04-21T15:44:31.317Z</time></trkpt><trkpt lat="38.0587533" lon="15.66105"><ele>36.0</ele><time>2026-04-21T15:44:32.317Z</time></trkpt><trkpt lat="38.0589667" lon="15.6611283"><ele>39.5</ele><time>2026-04-21T15:44:33.317Z</time></trkpt><trkpt lat="38.0591967" lon="15.6612017"><ele>43.0</ele><time>2026-04-21T15:44:34.317Z</time></trkpt><trkpt lat="38.0594333" lon="15.6612983"><ele>43.0</ele><time>2026-04-21T15:44:35.317Z</time></trkpt><trkpt lat="38.0596683" lon="15.6613933"><ele>43.0</ele><time>2026-04-21T15:44:36.316Z</time></trkpt><trkpt lat="38.0599167" lon="15.6614783"><ele>43.0</ele><time>2026-04-21T15:44:37.317Z</time></trkpt><trkpt lat="38.060145" lon="15.6615733"><ele>43.0</ele><time>2026-04-21T15:44:38.317Z</time></trkpt><trkpt lat="38.0603867" lon="15.6617"><ele>43.0</ele><time>2026-04-21T15:44:39.317Z</time></trkpt><trkpt lat="38.0605933" lon="15.6617933"><ele>43.0</ele><time>2026-04-21T15:44:40.316Z</time></trkpt><trkpt lat="38.06079" lon="15.661875"><ele>43.0</ele><time>2026-04-21T15:44:41.317Z</time></trkpt><trkpt lat="38.060985" lon="15.66195"><ele>45.0</ele><time>2026-04-21T15:44:42.317Z</time></trkpt><trkpt lat="38.0611883" lon="15.6620317"><ele>47.0</ele><time>2026-04-21T15:44:43.317Z</time></trkpt><trkpt lat="38.061385" lon="15.6621067"><ele>49.0</ele><time>2026-04-21T15:44:44.317Z</time></trkpt><trkpt lat="38.061575" lon="15.662185"><ele>47.33333333333333</ele><time>2026-04-21T15:44:45.316Z</time></trkpt><trkpt lat="38.06176" lon="15.66225"><ele>45.666666666666664</ele><time>2026-04-21T15:44:46.316Z</time></trkpt><trkpt lat="38.06195" lon="15.6623"><ele>44.0</ele><time>2026-04-21T15:44:47.317Z</time></trkpt><trkpt lat="38.0621483" lon="15.6623417"><ele>44.0</ele><time>2026-04-21T15:44:48.317Z</time></trkpt><trkpt lat="38.0623417" lon="15.6623767"><ele>44.0</ele><time>2026-04-21T15:44:49.317Z</time></trkpt><trkpt lat="38.0625333" lon="15.6623983"><ele>44.0</ele><time>2026-04-21T15:44:50.317Z</time></trkpt><trkpt lat="38.0627233" lon="15.6624233"><ele>43.33333333333333</ele><time>2026-04-21T15:44:51.317Z</time></trkpt><trkpt lat="38.062925" lon="15.6624433"><ele>42.666666666666664</ele><time>2026-04-21T15:44:52.317Z</time></trkpt><trkpt lat="38.0631317" lon="15.6624717"><ele>42.0</ele><time>2026-04-21T15:44:53.317Z</time></trkpt><trkpt lat="38.0633433" lon="15.6624983"><ele>40.0</ele><time>2026-04-21T15:44:54.317Z</time></trkpt><trkpt lat="38.0635717" lon="15.6625233"><ele>38.0</ele><time>2026-04-21T15:44:55.317Z</time></trkpt><trkpt lat="38.06381" lon="15.6625517"><ele>38.0</ele><time>2026-04-21T15:44:56.317Z</time></trkpt><trkpt lat="38.0640533" lon="15.6625867"><ele>38.0</ele><time>2026-04-21T15:44:57.317Z</time></trkpt><trkpt lat="38.0642933" lon="15.6626217"><ele>39.5</ele><time>2026-04-21T15:44:58.317Z</time></trkpt><trkpt lat="38.0645283" lon="15.6626483"><ele>41.0</ele><time>2026-04-21T15:44:59.317Z</time></trkpt><trkpt lat="38.0647567" lon="15.6626717"><ele>40.666666666666664</ele><time>2026-04-21T15:45:00.317Z</time></trkpt><trkpt lat="38.0649717" lon="15.6626967"><ele>40.333333333333336</ele><time>2026-04-21T15:45:01.317Z</time></trkpt><trkpt lat="38.0651917" lon="15.6627217"><ele>40.0</ele><time>2026-04-21T15:45:02.317Z</time></trkpt><trkpt lat="38.065415" lon="15.6627467"><ele>40.0</ele><time>2026-04-21T15:45:03.317Z</time></trkpt><trkpt lat="38.0656433" lon="15.662775"><ele>40.0</ele><time>2026-04-21T15:45:04.317Z</time></trkpt><trkpt lat="38.0658783" lon="15.6628083"><ele>41.5</ele><time>2026-04-21T15:45:05.316Z</time></trkpt><trkpt lat="38.066125" lon="15.6628467"><ele>43.0</ele><time>2026-04-21T15:45:06.317Z</time></trkpt><trkpt lat="38.0663883" lon="15.6628683"><ele>42.5</ele><time>2026-04-21T15:45:07.317Z</time></trkpt><trkpt lat="38.0666483" lon="15.6629"><ele>42.0</ele><time>2026-04-21T15:45:08.317Z</time></trkpt><trkpt lat="38.0669067" lon="15.662935"><ele>42.0</ele><time>2026-04-21T15:45:09.317Z</time></trkpt><trkpt lat="38.0671683" lon="15.6629667"><ele>42.0</ele><time>2026-04-21T15:45:10.317Z</time></trkpt><trkpt lat="38.0674233" lon="15.6629967"><ele>41.5</ele><time>2026-04-21T15:45:11.317Z</time></trkpt><trkpt lat="38.067675" lon="15.66303"><ele>41.0</ele><time>2026-04-21T15:45:12.317Z</time></trkpt><trkpt lat="38.06793" lon="15.6630633"><ele>41.0</ele><time>2026-04-21T15:45:13.317Z</time></trkpt><trkpt lat="38.0681883" lon="15.663105"><ele>41.0</ele><time>2026-04-21T15:45:14.317Z</time></trkpt><trkpt lat="38.0684383" lon="15.6631283"><ele>39.5</ele><time>2026-04-21T15:45:15.317Z</time></trkpt><trkpt lat="38.0686883" lon="15.6631517"><ele>38.0</ele><time>2026-04-21T15:45:16.317Z</time></trkpt><trkpt lat="38.0689333" lon="15.6631767"><ele>37.5</ele><time>2026-04-21T15:45:17.317Z</time></trkpt><trkpt lat="38.0691783" lon="15.6632033"><ele>37.0</ele><time>2026-04-21T15:45:18.317Z</time></trkpt><trkpt lat="38.0694217" lon="15.66323"><ele>37.0</ele><time>2026-04-21T15:45:19.316Z</time></trkpt><trkpt lat="38.069665" lon="15.6632567"><ele>37.0</ele><time>2026-04-21T15:45:20.317Z</time></trkpt><trkpt lat="38.0699083" lon="15.6632717"><ele>36.5</ele><time>2026-04-21T15:45:21.317Z</time></trkpt><trkpt lat="38.0701533" lon="15.6632767"><ele>36.0</ele><time>2026-04-21T15:45:22.317Z</time></trkpt><trkpt lat="38.0704033" lon="15.663275"><ele>36.0</ele><time>2026-04-21T15:45:23.317Z</time></trkpt><trkpt lat="38.070645" lon="15.6632733"><ele>36.0</ele><time>2026-04-21T15:45:24.317Z</time></trkpt><trkpt lat="38.0708933" lon="15.6632733"><ele>36.0</ele><time>2026-04-21T15:45:25.317Z</time></trkpt><trkpt lat="38.0711417" lon="15.663275"><ele>36.0</ele><time>2026-04-21T15:45:26.317Z</time></trkpt><trkpt lat="38.0713967" lon="15.6632767"><ele>34.5</ele><time>2026-04-21T15:45:27.316Z</time></trkpt><trkpt lat="38.0716517" lon="15.663285"><ele>33.0</ele><time>2026-04-21T15:45:28.317Z</time></trkpt><trkpt lat="38.0719083" lon="15.6632967"><ele>33.0</ele><time>2026-04-21T15:45:29.317Z</time></trkpt><trkpt lat="38.0721667" lon="15.6633167"><ele>33.0</ele><time>2026-04-21T15:45:30.317Z</time></trkpt><trkpt lat="38.0724233" lon="15.66335"><ele>33.0</ele><time>2026-04-21T15:45:31.317Z</time></trkpt><trkpt lat="38.0726833" lon="15.6633933"><ele>33.0</ele><time>2026-04-21T15:45:32.316Z</time></trkpt><trkpt lat="38.0729467" lon="15.663455"><ele>33.0</ele><time>2026-04-21T15:45:33.317Z</time></trkpt><trkpt lat="38.0732017" lon="15.6635317"><ele>33.0</ele><time>2026-04-21T15:45:34.317Z</time></trkpt><trkpt lat="38.0734533" lon="15.6636183"><ele>34.5</ele><time>2026-04-21T15:45:35.317Z</time></trkpt><trkpt lat="38.073705" lon="15.6637033"><ele>36.0</ele><time>2026-04-21T15:45:36.317Z</time></trkpt><trkpt lat="38.07396" lon="15.6637933"><ele>36.0</ele><time>2026-04-21T15:45:37.316Z</time></trkpt><trkpt lat="38.074215" lon="15.6638817"><ele>36.0</ele><time>2026-04-21T15:45:38.317Z</time></trkpt><trkpt lat="38.0744667" lon="15.6639733"><ele>36.0</ele><time>2026-04-21T15:45:39.317Z</time></trkpt><trkpt lat="38.07472" lon="15.6640683"><ele>36.0</ele><time>2026-04-21T15:45:40.317Z</time></trkpt><trkpt lat="38.0749767" lon="15.6641617"><ele>39.0</ele><time>2026-04-21T15:45:41.317Z</time></trkpt><trkpt lat="38.0752317" lon="15.6642483"><ele>42.0</ele><time>2026-04-21T15:45:42.317Z</time></trkpt><trkpt lat="38.07548" lon="15.6643283"><ele>42.0</ele><time>2026-04-21T15:45:43.317Z</time></trkpt><trkpt lat="38.0757333" lon="15.6644"><ele>42.0</ele><time>2026-04-21T15:45:44.317Z</time></trkpt><trkpt lat="38.075985" lon="15.664455"><ele>44.0</ele><time>2026-04-21T15:45:45.317Z</time></trkpt><trkpt lat="38.07624" lon="15.6645"><ele>46.0</ele><time>2026-04-21T15:45:46.317Z</time></trkpt><trkpt lat="38.0765067" lon="15.6645433"><ele>48.0</ele><time>2026-04-21T15:45:47.317Z</time></trkpt><trkpt lat="38.0767617" lon="15.664565"><ele>50.0</ele><time>2026-04-21T15:45:48.317Z</time></trkpt><trkpt lat="38.077025" lon="15.664565"><ele>50.0</ele><time>2026-04-21T15:45:49.317Z</time></trkpt><trkpt lat="38.0772983" lon="15.6645767"><ele>50.0</ele><time>2026-04-21T15:45:50.317Z</time></trkpt><trkpt lat="38.0775717" lon="15.664575"><ele>54.5</ele><time>2026-04-21T15:45:51.317Z</time></trkpt><trkpt lat="38.0778417" lon="15.6645633"><ele>59.0</ele><time>2026-04-21T15:45:52.317Z</time></trkpt><trkpt lat="38.0781133" lon="15.6645533"><ele>61.5</ele><time>2026-04-21T15:45:53.316Z</time></trkpt><trkpt lat="38.078375" lon="15.6645367"><ele>64.0</ele><time>2026-04-21T15:45:54.317Z</time></trkpt><trkpt lat="38.0786417" lon="15.6645233"><ele>64.0</ele><time>2026-04-21T15:45:55.317Z</time></trkpt><trkpt lat="38.0789033" lon="15.6645117"><ele>64.0</ele><time>2026-04-21T15:45:56.317Z</time></trkpt><trkpt lat="38.0791783" lon="15.6645083"><ele>63.0</ele><time>2026-04-21T15:45:57.317Z</time></trkpt><trkpt lat="38.0794583" lon="15.66449"><ele>62.0</ele><time>2026-04-21T15:45:58.317Z</time></trkpt><trkpt lat="38.0797517" lon="15.66448"><ele>62.5</ele><time>2026-04-21T15:45:59.317Z</time></trkpt><trkpt lat="38.08006" lon="15.6644733"><ele>63.0</ele><time>2026-04-21T15:46:00.317Z</time></trkpt><trkpt lat="38.08038" lon="15.6644583"><ele>64.0</ele><time>2026-04-21T15:46:01.317Z</time></trkpt><trkpt lat="38.0807017" lon="15.66444"><ele>65.0</ele><time>2026-04-21T15:46:02.317Z</time></trkpt><trkpt lat="38.081045" lon="15.6644317"><ele>67.0</ele><time>2026-04-21T15:46:03.317Z</time></trkpt><trkpt lat="38.0813783" lon="15.664425"><ele>69.0</ele><time>2026-04-21T15:46:04.317Z</time></trkpt><trkpt lat="38.0816883" lon="15.66441"><ele>69.5</ele><time>2026-04-21T15:46:05.317Z</time></trkpt><trkpt lat="38.08199" lon="15.6644"><ele>70.0</ele><time>2026-04-21T15:46:06.316Z</time></trkpt><trkpt lat="38.0822867" lon="15.6643967"><ele>70.5</ele><time>2026-04-21T15:46:07.317Z</time></trkpt><trkpt lat="38.0825833" lon="15.66439"><ele>71.0</ele><time>2026-04-21T15:46:08.317Z</time></trkpt><trkpt lat="38.0828817" lon="15.6643867"><ele>71.0</ele><time>2026-04-21T15:46:09.317Z</time></trkpt><trkpt lat="38.0831933" lon="15.6643717"><ele>71.0</ele><time>2026-04-21T15:46:10.317Z</time></trkpt><trkpt lat="38.0835183" lon="15.6643533"><ele>73.0</ele><time>2026-04-21T15:46:11.317Z</time></trkpt><trkpt lat="38.0838483" lon="15.6643383"><ele>75.0</ele><time>2026-04-21T15:46:12.317Z</time></trkpt><trkpt lat="38.0841583" lon="15.6643133"><ele>76.5</ele><time>2026-04-21T15:46:13.316Z</time></trkpt><trkpt lat="38.084445" lon="15.664285"><ele>78.0</ele><time>2026-04-21T15:46:14.316Z</time></trkpt><trkpt lat="38.084725" lon="15.66422"><ele>79.5</ele><time>2026-04-21T15:46:15.317Z</time></trkpt><trkpt lat="38.0850067" lon="15.6641367"><ele>81.0</ele><time>2026-04-21T15:46:16.317Z</time></trkpt><trkpt lat="38.0852833" lon="15.664035"><ele>81.0</ele><time>2026-04-21T15:46:17.317Z</time></trkpt><trkpt lat="38.0855567" lon="15.663935"><ele>81.0</ele><time>2026-04-21T15:46:18.317Z</time></trkpt><trkpt lat="38.085805" lon="15.6638"><ele>79.5</ele><time>2026-04-21T15:46:19.317Z</time></trkpt><trkpt lat="38.086035" lon="15.6636467"><ele>78.0</ele><time>2026-04-21T15:46:20.317Z</time></trkpt><trkpt lat="38.08624" lon="15.66351"><ele>76.0</ele><time>2026-04-21T15:46:21.317Z</time></trkpt><trkpt lat="38.086435" lon="15.6633767"><ele>74.0</ele><time>2026-04-21T15:46:22.317Z</time></trkpt><trkpt lat="38.0866333" lon="15.66325"><ele>72.0</ele><time>2026-04-21T15:46:23.317Z</time></trkpt><trkpt lat="38.0868317" lon="15.6631267"><ele>71.5</ele><time>2026-04-21T15:46:24.317Z</time></trkpt><trkpt lat="38.0870383" lon="15.6629967"><ele>71.0</ele><time>2026-04-21T15:46:25.317Z</time></trkpt><trkpt lat="38.0872533" lon="15.662855"><ele>70.5</ele><time>2026-04-21T15:46:26.317Z</time></trkpt><trkpt lat="38.0874683" lon="15.6627233"><ele>70.0</ele><time>2026-04-21T15:46:27.316Z</time></trkpt><trkpt lat="38.087685" lon="15.6625917"><ele>70.0</ele><time>2026-04-21T15:46:28.317Z</time></trkpt><trkpt lat="38.0878817" lon="15.6624567"><ele>70.0</ele><time>2026-04-21T15:46:29.317Z</time></trkpt><trkpt lat="38.08808" lon="15.6623283"><ele>70.0</ele><time>2026-04-21T15:46:30.317Z</time></trkpt><trkpt lat="38.0882817" lon="15.6622067"><ele>71.0</ele><time>2026-04-21T15:46:31.317Z</time></trkpt><trkpt lat="38.0884817" lon="15.6620817"><ele>72.0</ele><time>2026-04-21T15:46:32.317Z</time></trkpt><trkpt lat="38.08869" lon="15.661965"><ele>72.0</ele><time>2026-04-21T15:46:33.317Z</time></trkpt><trkpt lat="38.0888933" lon="15.6618333"><ele>72.0</ele><time>2026-04-21T15:46:34.317Z</time></trkpt><trkpt lat="38.089095" lon="15.6616967"><ele>75.0</ele><time>2026-04-21T15:46:35.317Z</time></trkpt><trkpt lat="38.0893117" lon="15.66156"><ele>78.0</ele><time>2026-04-21T15:46:36.317Z</time></trkpt><trkpt lat="38.0895267" lon="15.661425"><ele>78.0</ele><time>2026-04-21T15:46:37.317Z</time></trkpt><trkpt lat="38.0897433" lon="15.661295"><ele>78.0</ele><time>2026-04-21T15:46:38.317Z</time></trkpt><trkpt lat="38.0899533" lon="15.6611533"><ele>78.0</ele><time>2026-04-21T15:46:39.317Z</time></trkpt><trkpt lat="38.09017" lon="15.6610167"><ele>78.0</ele><time>2026-04-21T15:46:40.316Z</time></trkpt><trkpt lat="38.0903883" lon="15.6608667"><ele>78.0</ele><time>2026-04-21T15:46:41.317Z</time></trkpt><trkpt lat="38.0906017" lon="15.6607233"><ele>78.0</ele><time>2026-04-21T15:46:42.317Z</time></trkpt><trkpt lat="38.09082" lon="15.660585"><ele>80.5</ele><time>2026-04-21T15:46:43.317Z</time></trkpt><trkpt lat="38.0910367" lon="15.6604533"><ele>83.0</ele><time>2026-04-21T15:46:44.317Z</time></trkpt><trkpt lat="38.0912383" lon="15.6603267"><ele>83.0</ele><time>2026-04-21T15:46:45.316Z</time></trkpt><trkpt lat="38.0914433" lon="15.66021"><ele>83.0</ele><time>2026-04-21T15:46:46.317Z</time></trkpt><trkpt lat="38.09165" lon="15.6600983"><ele>83.0</ele><time>2026-04-21T15:46:47.316Z</time></trkpt><trkpt lat="38.091865" lon="15.6599917"><ele>87.0</ele><time>2026-04-21T15:46:48.317Z</time></trkpt><trkpt lat="38.0920733" lon="15.6599033"><ele>91.0</ele><time>2026-04-21T15:46:49.317Z</time></trkpt><trkpt lat="38.0922833" lon="15.65981"><ele>95.0</ele><time>2026-04-21T15:46:50.317Z</time></trkpt><trkpt lat="38.0925" lon="15.65973"><ele>96.5</ele><time>2026-04-21T15:46:51.317Z</time></trkpt><trkpt lat="38.09272" lon="15.6596567"><ele>98.0</ele><time>2026-04-21T15:46:52.317Z</time></trkpt><trkpt lat="38.0929417" lon="15.65958"><ele>98.0</ele><time>2026-04-21T15:46:53.317Z</time></trkpt><trkpt lat="38.0931683" lon="15.65952"><ele>98.0</ele><time>2026-04-21T15:46:54.317Z</time></trkpt><trkpt lat="38.0933867" lon="15.65945"><ele>98.33333333333333</ele><time>2026-04-21T15:46:55.317Z</time></trkpt><trkpt lat="38.093605" lon="15.65939"><ele>98.66666666666666</ele><time>2026-04-21T15:46:56.317Z</time></trkpt><trkpt lat="38.0938183" lon="15.65932"><ele>99.0</ele><time>2026-04-21T15:46:57.317Z</time></trkpt><trkpt lat="38.0940383" lon="15.6592617"><ele>99.33333333333334</ele><time>2026-04-21T15:46:58.317Z</time></trkpt><trkpt lat="38.0942483" lon="15.6591883"><ele>99.66666666666667</ele><time>2026-04-21T15:46:59.317Z</time></trkpt><trkpt lat="38.0944633" lon="15.6591167"><ele>100.0</ele><time>2026-04-21T15:47:00.317Z</time></trkpt><trkpt lat="38.0946717" lon="15.65907"><ele>100.0</ele><time>2026-04-21T15:47:01.317Z</time></trkpt><trkpt lat="38.0948983" lon="15.659035"><ele>100.0</ele><time>2026-04-21T15:47:02.317Z</time></trkpt><trkpt lat="38.0951417" lon="15.6590183"><ele>101.0</ele><time>2026-04-21T15:47:03.317Z</time></trkpt><trkpt lat="38.0953817" lon="15.659015"><ele>102.0</ele><time>2026-04-21T15:47:04.316Z</time></trkpt><trkpt lat="38.0956367" lon="15.659025"><ele>100.5</ele><time>2026-04-21T15:47:05.317Z</time></trkpt><trkpt lat="38.095885" lon="15.65905"><ele>99.0</ele><time>2026-04-21T15:47:06.317Z</time></trkpt><trkpt lat="38.0961333" lon="15.6591017"><ele>99.0</ele><time>2026-04-21T15:47:07.317Z</time></trkpt><trkpt lat="38.0963883" lon="15.6591617"><ele>99.0</ele><time>2026-04-21T15:47:08.317Z</time></trkpt><trkpt lat="38.09663" lon="15.65923"><ele>97.5</ele><time>2026-04-21T15:47:09.317Z</time></trkpt><trkpt lat="38.0968733" lon="15.6593017"><ele>96.0</ele><time>2026-04-21T15:47:10.317Z</time></trkpt><trkpt lat="38.0971117" lon="15.659385"><ele>96.0</ele><time>2026-04-21T15:47:11.317Z</time></trkpt><trkpt lat="38.0973417" lon="15.659435"><ele>96.0</ele><time>2026-04-21T15:47:12.317Z</time></trkpt><trkpt lat="38.0975617" lon="15.659485"><ele>97.0</ele><time>2026-04-21T15:47:13.317Z</time></trkpt><trkpt lat="38.0977767" lon="15.6595217"><ele>98.0</ele><time>2026-04-21T15:47:14.316Z</time></trkpt><trkpt lat="38.0979767" lon="15.659565"><ele>99.0</ele><time>2026-04-21T15:47:15.317Z</time></trkpt><trkpt lat="38.0981633" lon="15.6596183"><ele>95.0</ele><time>2026-04-21T15:47:16.317Z</time></trkpt><trkpt lat="38.0983417" lon="15.6596667"><ele>91.0</ele><time>2026-04-21T15:47:17.317Z</time></trkpt><trkpt lat="38.0985083" lon="15.6596917"><ele>87.0</ele><time>2026-04-21T15:47:18.317Z</time></trkpt><trkpt lat="38.098655" lon="15.6597133"><ele>87.0</ele><time>2026-04-21T15:47:19.317Z</time></trkpt><trkpt lat="38.0987783" lon="15.6597283"><ele>87.0</ele><time>2026-04-21T15:47:20.317Z</time></trkpt><trkpt lat="38.0988833" lon="15.659755"><ele>87.0</ele><time>2026-04-21T15:47:21.317Z</time></trkpt><trkpt lat="38.0989783" lon="15.6598167"><ele>87.0</ele><time>2026-04-21T15:47:22.316Z</time></trkpt><trkpt lat="38.0990583" lon="15.6599133"><ele>87.0</ele><time>2026-04-21T15:47:23.317Z</time></trkpt><trkpt lat="38.0991117" lon="15.6600233"><ele>85.75</ele><time>2026-04-21T15:47:24.317Z</time></trkpt><trkpt lat="38.09913" lon="15.66015"><ele>84.5</ele><time>2026-04-21T15:47:25.317Z</time></trkpt><trkpt lat="38.099145" lon="15.6602967"><ele>83.25</ele><time>2026-04-21T15:47:26.317Z</time></trkpt><trkpt lat="38.099165" lon="15.6604483"><ele>82.0</ele><time>2026-04-21T15:47:27.317Z</time></trkpt><trkpt lat="38.0992083" lon="15.6606067"><ele>82.0</ele><time>2026-04-21T15:47:28.317Z</time></trkpt><trkpt lat="38.0992733" lon="15.660725"><ele>82.0</ele><time>2026-04-21T15:47:29.317Z</time></trkpt><trkpt lat="38.099355" lon="15.6608167"><ele>82.0</ele><time>2026-04-21T15:47:30.317Z</time></trkpt><trkpt lat="38.0994483" lon="15.66087"><ele>82.0</ele><time>2026-04-21T15:47:31.317Z</time></trkpt><trkpt lat="38.0995467" lon="15.6608967"><ele>82.0</ele><time>2026-04-21T15:47:32.317Z</time></trkpt><trkpt lat="38.099655" lon="15.6609067"><ele>82.0</ele><time>2026-04-21T15:47:33.317Z</time></trkpt><trkpt lat="38.0997583" lon="15.660895"><ele>82.0</ele><time>2026-04-21T15:47:34.316Z</time></trkpt><trkpt lat="38.0998633" lon="15.6608783"><ele>82.0</ele><time>2026-04-21T15:47:35.317Z</time></trkpt><trkpt lat="38.0999683" lon="15.6608467"><ele>82.0</ele><time>2026-04-21T15:47:36.316Z</time></trkpt><trkpt lat="38.1000833" lon="15.6607867"><ele>82.0</ele><time>2026-04-21T15:47:37.316Z</time></trkpt><trkpt lat="38.1002067" lon="15.660685"><ele>80.0</ele><time>2026-04-21T15:47:38.317Z</time></trkpt><trkpt lat="38.1003" lon="15.6605517"><ele>78.0</ele><time>2026-04-21T15:47:39.317Z</time></trkpt><trkpt lat="38.1003517" lon="15.6604083"><ele>76.0</ele><time>2026-04-21T15:47:40.317Z</time></trkpt><trkpt lat="38.1003633" lon="15.6602383"><ele>74.0</ele><time>2026-04-21T15:47:41.317Z</time></trkpt><trkpt lat="38.1003433" lon="15.6600583"><ele>72.66666666666667</ele><time>2026-04-21T15:47:42.317Z</time></trkpt><trkpt lat="38.1003083" lon="15.65984"><ele>71.33333333333333</ele><time>2026-04-21T15:47:43.316Z</time></trkpt><trkpt lat="38.1002733" lon="15.6596"><ele>70.0</ele><time>2026-04-21T15:47:44.317Z</time></trkpt><trkpt lat="38.10024" lon="15.6592967"><ele>69.0</ele><time>2026-04-21T15:47:45.317Z</time></trkpt><trkpt lat="38.1002167" lon="15.6589933"><ele>68.0</ele><time>2026-04-21T15:47:46.316Z</time></trkpt><trkpt lat="38.100185" lon="15.65871"><ele>66.0</ele><time>2026-04-21T15:47:47.317Z</time></trkpt><trkpt lat="38.1001733" lon="15.6584717"><ele>64.0</ele><time>2026-04-21T15:47:48.317Z</time></trkpt><trkpt lat="38.1001617" lon="15.65826"><ele>62.0</ele><time>2026-04-21T15:47:49.317Z</time></trkpt><trkpt lat="38.1001617" lon="15.6580667"><ele>62.0</ele><time>2026-04-21T15:47:50.316Z</time></trkpt><trkpt lat="38.1001683" lon="15.657885"><ele>62.0</ele><time>2026-04-21T15:47:51.317Z</time></trkpt><trkpt lat="38.1001883" lon="15.65772"><ele>62.0</ele><time>2026-04-21T15:47:52.317Z</time></trkpt><trkpt lat="38.1002133" lon="15.6575633"><ele>62.0</ele><time>2026-04-21T15:47:53.317Z</time></trkpt><trkpt lat="38.100245" lon="15.6574133"><ele>62.0</ele><time>2026-04-21T15:47:54.316Z</time></trkpt><trkpt lat="38.1002733" lon="15.6572667"><ele>62.0</ele><time>2026-04-21T15:47:55.317Z</time></trkpt><trkpt lat="38.1003067" lon="15.6571083"><ele>62.0</ele><time>2026-04-21T15:47:56.317Z</time></trkpt><trkpt lat="38.1003383" lon="15.656945"><ele>62.0</ele><time>2026-04-21T15:47:57.317Z</time></trkpt><trkpt lat="38.100375" lon="15.656775"><ele>62.0</ele><time>2026-04-21T15:47:58.317Z</time></trkpt><trkpt lat="38.100405" lon="15.6566"><ele>62.0</ele><time>2026-04-21T15:47:59.317Z</time></trkpt><trkpt lat="38.1004367" lon="15.6564067"><ele>62.0</ele><time>2026-04-21T15:48:00.317Z</time></trkpt><trkpt lat="38.100475" lon="15.65619"><ele>60.66666666666667</ele><time>2026-04-21T15:48:01.317Z</time></trkpt><trkpt lat="38.1005133" lon="15.655965"><ele>59.33333333333333</ele><time>2026-04-21T15:48:02.317Z</time></trkpt><trkpt lat="38.1005483" lon="15.6557317"><ele>58.0</ele><time>2026-04-21T15:48:03.317Z</time></trkpt><trkpt lat="38.100595" lon="15.6554917"><ele>56.0</ele><time>2026-04-21T15:48:04.317Z</time></trkpt><trkpt lat="38.1006383" lon="15.6552517"><ele>54.0</ele><time>2026-04-21T15:48:05.317Z</time></trkpt><trkpt lat="38.1006817" lon="15.6550067"><ele>52.0</ele><time>2026-04-21T15:48:06.317Z</time></trkpt><trkpt lat="38.1007267" lon="15.6547567"><ele>52.666666666666664</ele><time>2026-04-21T15:48:07.317Z</time></trkpt><trkpt lat="38.100765" lon="15.654505"><ele>53.33333333333333</ele><time>2026-04-21T15:48:08.317Z</time></trkpt><trkpt lat="38.1008067" lon="15.6542583"><ele>54.0</ele><time>2026-04-21T15:48:09.317Z</time></trkpt><trkpt lat="38.1008517" lon="15.65401"><ele>54.33333333333333</ele><time>2026-04-21T15:48:10.317Z</time></trkpt><trkpt lat="38.1009" lon="15.6537517"><ele>54.666666666666664</ele><time>2026-04-21T15:48:11.317Z</time></trkpt><trkpt lat="38.100945" lon="15.6534983"><ele>55.0</ele><time>2026-04-21T15:48:12.317Z</time></trkpt><trkpt lat="38.1009967" lon="15.65325"><ele>52.33333333333333</ele><time>2026-04-21T15:48:13.317Z</time></trkpt><trkpt lat="38.1010417" lon="15.6530017"><ele>49.666666666666664</ele><time>2026-04-21T15:48:14.317Z</time></trkpt><trkpt lat="38.1010917" lon="15.652755"><ele>47.0</ele><time>2026-04-21T15:48:15.317Z</time></trkpt><trkpt lat="38.1011333" lon="15.6525083"><ele>46.33333333333333</ele><time>2026-04-21T15:48:16.317Z</time></trkpt><trkpt lat="38.1011883" lon="15.65227"><ele>45.666666666666664</ele><time>2026-04-21T15:48:17.316Z</time></trkpt><trkpt lat="38.10124" lon="15.6520283"><ele>45.0</ele><time>2026-04-21T15:48:18.317Z</time></trkpt><trkpt lat="38.1012783" lon="15.65177"><ele>44.666666666666664</ele><time>2026-04-21T15:48:19.317Z</time></trkpt><trkpt lat="38.101325" lon="15.651525"><ele>44.33333333333333</ele><time>2026-04-21T15:48:20.317Z</time></trkpt><trkpt lat="38.1013683" lon="15.6512817"><ele>44.0</ele><time>2026-04-21T15:48:21.317Z</time></trkpt><trkpt lat="38.1014133" lon="15.6510567"><ele>43.0</ele><time>2026-04-21T15:48:22.317Z</time></trkpt><trkpt lat="38.1014617" lon="15.6508467"><ele>42.0</ele><time>2026-04-21T15:48:23.316Z</time></trkpt><trkpt lat="38.1015017" lon="15.6506367"><ele>41.0</ele><time>2026-04-21T15:48:24.317Z</time></trkpt><trkpt lat="38.1015383" lon="15.650435"><ele>41.33333333333333</ele><time>2026-04-21T15:48:25.317Z</time></trkpt><trkpt lat="38.10158" lon="15.650245"><ele>41.666666666666664</ele><time>2026-04-21T15:48:26.316Z</time></trkpt><trkpt lat="38.10161" lon="15.6500383"><ele>42.0</ele><time>2026-04-21T15:48:27.317Z</time></trkpt><trkpt lat="38.1016467" lon="15.6498333"><ele>42.666666666666664</ele><time>2026-04-21T15:48:28.317Z</time></trkpt><trkpt lat="38.101675" lon="15.6496217"><ele>43.33333333333333</ele><time>2026-04-21T15:48:29.317Z</time></trkpt><trkpt lat="38.1016983" lon="15.649405"><ele>44.0</ele><time>2026-04-21T15:48:30.317Z</time></trkpt><trkpt lat="38.1017183" lon="15.6491833"><ele>44.0</ele><time>2026-04-21T15:48:31.317Z</time></trkpt><trkpt lat="38.1017433" lon="15.6489717"><ele>44.0</ele><time>2026-04-21T15:48:32.317Z</time></trkpt><trkpt lat="38.1017517" lon="15.6487517"><ele>44.0</ele><time>2026-04-21T15:48:33.317Z</time></trkpt><trkpt lat="38.1017617" lon="15.6485317"><ele>43.666666666666664</ele><time>2026-04-21T15:48:34.317Z</time></trkpt><trkpt lat="38.10178" lon="15.64832"><ele>43.333333333333336</ele><time>2026-04-21T15:48:35.317Z</time></trkpt><trkpt lat="38.1017933" lon="15.6481067"><ele>43.0</ele><time>2026-04-21T15:48:36.317Z</time></trkpt><trkpt lat="38.10181" lon="15.6478917"><ele>41.66666666666667</ele><time>2026-04-21T15:48:37.317Z</time></trkpt><trkpt lat="38.1018233" lon="15.6476833"><ele>40.333333333333336</ele><time>2026-04-21T15:48:38.317Z</time></trkpt><trkpt lat="38.1018383" lon="15.6474817"><ele>39.0</ele><time>2026-04-21T15:48:39.316Z</time></trkpt><trkpt lat="38.101845" lon="15.6472767"><ele>39.0</ele><time>2026-04-21T15:48:40.317Z</time></trkpt><trkpt lat="38.10186" lon="15.647075"><ele>39.0</ele><time>2026-04-21T15:48:41.317Z</time></trkpt><trkpt lat="38.1018683" lon="15.6468767"><ele>39.0</ele><time>2026-04-21T15:48:42.317Z</time></trkpt><trkpt lat="38.10187" lon="15.6466733"><ele>38.5</ele><time>2026-04-21T15:48:43.317Z</time></trkpt><trkpt lat="38.1018717" lon="15.646475"><ele>38.0</ele><time>2026-04-21T15:48:44.317Z</time></trkpt><trkpt lat="38.101885" lon="15.64629"><ele>37.5</ele><time>2026-04-21T15:48:45.317Z</time></trkpt><trkpt lat="38.1018867" lon="15.6461133"><ele>37.0</ele><time>2026-04-21T15:48:46.317Z</time></trkpt><trkpt lat="38.1018917" lon="15.6459533"><ele>36.4</ele><time>2026-04-21T15:48:47.317Z</time></trkpt><trkpt lat="38.1019033" lon="15.645805"><ele>35.800000000000004</ele><time>2026-04-21T15:48:48.317Z</time></trkpt><trkpt lat="38.101905" lon="15.6456583"><ele>35.2</ele><time>2026-04-21T15:48:49.317Z</time></trkpt><trkpt lat="38.1019033" lon="15.6455267"><ele>34.6</ele><time>2026-04-21T15:48:50.317Z</time></trkpt><trkpt lat="38.101905" lon="15.6453833"><ele>34.0</ele><time>2026-04-21T15:48:51.317Z</time></trkpt><trkpt lat="38.10191" lon="15.6452567"><ele>34.0</ele><time>2026-04-21T15:48:52.317Z</time></trkpt><trkpt lat="38.1019067" lon="15.6451317"><ele>34.0</ele><time>2026-04-21T15:48:53.317Z</time></trkpt><trkpt lat="38.1019167" lon="15.6450183"><ele>34.0</ele><time>2026-04-21T15:48:54.317Z</time></trkpt><trkpt lat="38.1019" lon="15.6449117"><ele>34.0</ele><time>2026-04-21T15:48:55.317Z</time></trkpt><trkpt lat="38.1018817" lon="15.644815"><ele>34.0</ele><time>2026-04-21T15:48:56.317Z</time></trkpt><trkpt lat="38.1018733" lon="15.6447333"><ele>34.0</ele><time>2026-04-21T15:48:57.317Z</time></trkpt><trkpt lat="38.1018467" lon="15.64461"><ele>34.0</ele><time>2026-04-21T15:48:59.317Z</time></trkpt><trkpt lat="38.1018383" lon="15.6445233"><ele>34.0</ele><time>2026-04-21T15:49:01.317Z</time></trkpt><trkpt lat="38.10189" lon="15.6444333"><ele>34.0</ele><time>2026-04-21T15:49:04.317Z</time></trkpt><trkpt lat="38.10194" lon="15.6443233"><ele>34.0</ele><time>2026-04-21T15:49:14.317Z</time></trkpt><trkpt lat="38.101935" lon="15.644145"><ele>34.0</ele><time>2026-04-21T15:49:16.317Z</time></trkpt><trkpt lat="38.1019283" lon="15.644015"><ele>34.2</ele><time>2026-04-21T15:49:17.316Z</time></trkpt><trkpt lat="38.1019217" lon="15.643885"><ele>34.4</ele><time>2026-04-21T15:49:18.316Z</time></trkpt><trkpt lat="38.1019183" lon="15.64376"><ele>34.6</ele><time>2026-04-21T15:49:19.317Z</time></trkpt><trkpt lat="38.1019317" lon="15.6436417"><ele>34.8</ele><time>2026-04-21T15:49:20.317Z</time></trkpt><trkpt lat="38.1019333" lon="15.6435317"><ele>35.0</ele><time>2026-04-21T15:49:21.317Z</time></trkpt><trkpt lat="38.10193" lon="15.64344"><ele>33.0</ele><time>2026-04-21T15:49:22.317Z</time></trkpt><trkpt lat="38.10193" lon="15.6432333"><ele>31.0</ele><time>2026-04-21T15:49:24.317Z</time></trkpt><trkpt lat="38.1019067" lon="15.6430483"><ele>29.0</ele><time>2026-04-21T15:49:25.317Z</time></trkpt><trkpt lat="38.1018683" lon="15.64287"><ele>29.25</ele><time>2026-04-21T15:49:26.317Z</time></trkpt><trkpt lat="38.10185" lon="15.6426833"><ele>29.5</ele><time>2026-04-21T15:49:27.316Z</time></trkpt><trkpt lat="38.1018067" lon="15.6425333"><ele>29.75</ele><time>2026-04-21T15:49:28.317Z</time></trkpt><trkpt lat="38.10181" lon="15.6423767"><ele>30.0</ele><time>2026-04-21T15:49:29.317Z</time></trkpt><trkpt lat="38.1018217" lon="15.64227"><ele>30.0</ele><time>2026-04-21T15:49:30.317Z</time></trkpt><trkpt lat="38.101815" lon="15.6421733"><ele>30.0</ele><time>2026-04-21T15:49:31.317Z</time></trkpt><trkpt lat="38.1018167" lon="15.64209"><ele>30.0</ele><time>2026-04-21T15:49:32.317Z</time></trkpt><trkpt lat="38.101825" lon="15.6419733"><ele>30.0</ele><time>2026-04-21T15:49:34.316Z</time></trkpt><trkpt lat="38.10192" lon="15.641925"><ele>30.0</ele><time>2026-04-21T15:49:38.317Z</time></trkpt><trkpt lat="38.101985" lon="15.6419267"><ele>30.0</ele><time>2026-04-21T15:49:39.317Z</time></trkpt><trkpt lat="38.10207" lon="15.6419283"><ele>29.666666666666668</ele><time>2026-04-21T15:49:40.317Z</time></trkpt><trkpt lat="38.1021467" lon="15.6419333"><ele>29.333333333333336</ele><time>2026-04-21T15:49:41.317Z</time></trkpt><trkpt lat="38.1022283" lon="15.6419"><ele>29.0</ele><time>2026-04-21T15:49:43.317Z</time></trkpt><trkpt lat="38.1021883" lon="15.64178"><ele>28.666666666666668</ele><time>2026-04-21T15:49:46.316Z</time></trkpt><trkpt lat="38.1021217" lon="15.641695"><ele>28.333333333333336</ele><time>2026-04-21T15:49:48.317Z</time></trkpt><trkpt lat="38.1020617" lon="15.64163"><ele>28.0</ele><time>2026-04-21T15:49:50.317Z</time></trkpt><trkpt lat="38.10206" lon="15.6414967"><ele>28.0</ele><time>2026-04-21T15:49:53.317Z</time></trkpt><trkpt lat="38.1021233" lon="15.6413983"><ele>27.999999999999996</ele><time>2026-04-21T15:49:55.317Z</time></trkpt><trkpt lat="38.10219" lon="15.6413083"><ele>27.999999999999996</ele><time>2026-04-21T15:49:57.317Z</time></trkpt><trkpt lat="38.102255" lon="15.6412267"><ele>28.0</ele><time>2026-04-21T15:49:59.317Z</time></trkpt><trkpt lat="38.1023167" lon="15.641135"><ele>28.0</ele><time>2026-04-21T15:50:01.317Z</time></trkpt><trkpt lat="38.10236" lon="15.6410367"><ele>27.166666666666668</ele><time>2026-04-21T15:50:03.317Z</time></trkpt><trkpt lat="38.10242" lon="15.6409617"><ele>26.333333333333336</ele><time>2026-04-21T15:50:05.317Z</time></trkpt><trkpt lat="38.1024817" lon="15.640885"><ele>25.5</ele><time>2026-04-21T15:50:23.317Z</time></trkpt><trkpt lat="38.102545" lon="15.6408133"><ele>24.666666666666668</ele><time>2026-04-21T15:50:26.317Z</time></trkpt><trkpt lat="38.1026" lon="15.6407583"><ele>23.833333333333336</ele><time>2026-04-21T15:50:29.317Z</time></trkpt><trkpt lat="38.1026983" lon="15.6406767"><ele>23.0</ele><time>2026-04-21T15:50:36.317Z</time></trkpt><trkpt lat="38.1027817" lon="15.6405533"><ele>23.0</ele><time>2026-04-21T15:50:38.317Z</time></trkpt><trkpt lat="38.1028383" lon="15.64048"><ele>23.0</ele><time>2026-04-21T15:50:39.316Z</time></trkpt><trkpt lat="38.102895" lon="15.6403933"><ele>23.0</ele><time>2026-04-21T15:50:40.317Z</time></trkpt><trkpt lat="38.1029417" lon="15.640325"><ele>23.0</ele><time>2026-04-21T15:50:41.316Z</time></trkpt><trkpt lat="38.1030083" lon="15.64022"><ele>23.0</ele><time>2026-04-21T15:50:43.317Z</time></trkpt><trkpt lat="38.1030717" lon="15.6401233"><ele>23.0</ele><time>2026-04-21T15:50:45.317Z</time></trkpt><trkpt lat="38.10312" lon="15.64006"><ele>22.333333333333336</ele><time>2026-04-21T15:50:46.316Z</time></trkpt><trkpt lat="38.10317" lon="15.6399833"><ele>21.666666666666668</ele><time>2026-04-21T15:50:47.317Z</time></trkpt><trkpt lat="38.1032233" lon="15.639905"><ele>21.0</ele><time>2026-04-21T15:50:48.317Z</time></trkpt><trkpt lat="38.1032783" lon="15.639835"><ele>20.333333333333332</ele><time>2026-04-21T15:50:49.317Z</time></trkpt><trkpt lat="38.10333" lon="15.6397667"><ele>19.666666666666664</ele><time>2026-04-21T15:50:50.317Z</time></trkpt><trkpt lat="38.1033733" lon="15.6397"><ele>19.0</ele><time>2026-04-21T15:50:51.317Z</time></trkpt><trkpt lat="38.10342" lon="15.639635"><ele>19.0</ele><time>2026-04-21T15:50:52.317Z</time></trkpt><trkpt lat="38.1034717" lon="15.6395683"><ele>19.0</ele><time>2026-04-21T15:50:53.317Z</time></trkpt><trkpt lat="38.1035483" lon="15.6394517"><ele>19.0</ele><time>2026-04-21T15:50:55.317Z</time></trkpt><trkpt lat="38.1036017" lon="15.6393633"><ele>19.0</ele><time>2026-04-21T15:50:57.317Z</time></trkpt><trkpt lat="38.1036467" lon="15.6392883"><ele>19.0</ele><time>2026-04-21T15:50:59.317Z</time></trkpt><trkpt lat="38.1036867" lon="15.6392167"><ele>19.0</ele><time>2026-04-21T15:51:00.317Z</time></trkpt><trkpt lat="38.1037517" lon="15.6391067"><ele>19.0</ele><time>2026-04-21T15:51:01.317Z</time></trkpt><trkpt lat="38.1038283" lon="15.639"><ele>19.0</ele><time>2026-04-21T15:51:02.317Z</time></trkpt><trkpt lat="38.103885" lon="15.6389233"><ele>19.0</ele><time>2026-04-21T15:51:03.317Z</time></trkpt><trkpt lat="38.1039417" lon="15.6388233"><ele>19.0</ele><time>2026-04-21T15:51:05.317Z</time></trkpt><trkpt lat="38.103975" lon="15.6387533"><ele>19.0</ele><time>2026-04-21T15:51:09.317Z</time></trkpt><trkpt lat="38.1040167" lon="15.6386483"><ele>19.0</ele><time>2026-04-21T15:51:12.317Z</time></trkpt><trkpt lat="38.10406" lon="15.63855"><ele>19.0</ele><time>2026-04-21T15:51:15.317Z</time></trkpt><trkpt lat="38.1040983" lon="15.638485"><ele>19.0</ele><time>2026-04-21T15:51:17.317Z</time></trkpt><trkpt lat="38.1041617" lon="15.6383967"><ele>19.0</ele><time>2026-04-21T15:51:20.316Z</time></trkpt><trkpt lat="38.1042067" lon="15.638335"><ele>19.0</ele><time>2026-04-21T15:51:24.317Z</time></trkpt><trkpt lat="38.10417" lon="15.6381817"><ele>19.0</ele><time>2026-04-21T16:27:56.319Z</time></trkpt><trkpt lat="38.1042817" lon="15.638125"><ele>18.0</ele><time>2026-04-21T17:01:26.32Z</time></trkpt><trkpt lat="38.10437" lon="15.638025"><ele>17.0</ele><time>2026-04-21T17:01:27.321Z</time></trkpt><trkpt lat="38.1044817" lon="15.637885"><ele>16.0</ele><time>2026-04-21T17:01:28.321Z</time></trkpt><trkpt lat="38.10457" lon="15.6377533"><ele>15.0</ele><time>2026-04-21T17:01:29.321Z</time></trkpt><trkpt lat="38.10465" lon="15.6376667"><ele>15.0</ele><time>2026-04-21T17:01:30.321Z</time></trkpt><trkpt lat="38.104725" lon="15.637615"><ele>15.0</ele><time>2026-04-21T17:01:31.321Z</time></trkpt><trkpt lat="38.1048017" lon="15.6376117"><ele>15.0</ele><time>2026-04-21T17:01:32.321Z</time></trkpt><trkpt lat="38.10489" lon="15.6376633"><ele>15.0</ele><time>2026-04-21T17:01:33.321Z</time></trkpt><trkpt lat="38.1050033" lon="15.6377667"><ele>15.0</ele><time>2026-04-21T17:01:34.321Z</time></trkpt><trkpt lat="38.1051533" lon="15.6379433"><ele>13.0</ele><time>2026-04-21T17:01:35.321Z</time></trkpt><trkpt lat="38.1053283" lon="15.638125"><ele>11.0</ele><time>2026-04-21T17:01:36.321Z</time></trkpt><trkpt lat="38.1055167" lon="15.6382883"><ele>11.0</ele><time>2026-04-21T17:01:37.321Z</time></trkpt><trkpt lat="38.1056967" lon="15.63841"><ele>11.0</ele><time>2026-04-21T17:01:38.321Z</time></trkpt><trkpt lat="38.105865" lon="15.6385233"><ele>11.0</ele><time>2026-04-21T17:01:39.321Z</time></trkpt><trkpt lat="38.10602" lon="15.6386167"><ele>12.0</ele><time>2026-04-21T17:01:40.321Z</time></trkpt><trkpt lat="38.1061683" lon="15.6387117"><ele>13.0</ele><time>2026-04-21T17:01:41.321Z</time></trkpt><trkpt lat="38.1063217" lon="15.6388317"><ele>14.0</ele><time>2026-04-21T17:01:42.321Z</time></trkpt><trkpt lat="38.1064433" lon="15.6389383"><ele>13.0</ele><time>2026-04-21T17:01:43.321Z</time></trkpt><trkpt lat="38.1065783" lon="15.63906"><ele>12.0</ele><time>2026-04-21T17:01:44.321Z</time></trkpt><trkpt lat="38.106715" lon="15.6391683"><ele>11.0</ele><time>2026-04-21T17:01:45.321Z</time></trkpt><trkpt lat="38.1068217" lon="15.63927"><ele>11.0</ele><time>2026-04-21T17:01:46.321Z</time></trkpt><trkpt lat="38.106935" lon="15.6393883"><ele>11.0</ele><time>2026-04-21T17:01:47.32Z</time></trkpt><trkpt lat="38.1070333" lon="15.639515"><ele>11.0</ele><time>2026-04-21T17:01:48.321Z</time></trkpt><trkpt lat="38.10711" lon="15.639635"><ele>11.0</ele><time>2026-04-21T17:01:49.321Z</time></trkpt><trkpt lat="38.1071867" lon="15.63975"><ele>10.833333333333332</ele><time>2026-04-21T17:01:50.321Z</time></trkpt><trkpt lat="38.1072483" lon="15.639845"><ele>10.666666666666666</ele><time>2026-04-21T17:01:51.321Z</time></trkpt><trkpt lat="38.1073033" lon="15.6399417"><ele>10.5</ele><time>2026-04-21T17:01:52.321Z</time></trkpt><trkpt lat="38.1073667" lon="15.6400283"><ele>10.333333333333334</ele><time>2026-04-21T17:01:53.321Z</time></trkpt><trkpt lat="38.107415" lon="15.6401133"><ele>10.166666666666668</ele><time>2026-04-21T17:01:54.321Z</time></trkpt><trkpt lat="38.1074617" lon="15.6401933"><ele>10.0</ele><time>2026-04-21T17:01:55.321Z</time></trkpt><trkpt lat="38.10751" lon="15.6402683"><ele>10.2</ele><time>2026-04-21T17:01:56.321Z</time></trkpt><trkpt lat="38.1075533" lon="15.6403383"><ele>10.4</ele><time>2026-04-21T17:01:57.321Z</time></trkpt><trkpt lat="38.1076133" lon="15.6404517"><ele>10.600000000000001</ele><time>2026-04-21T17:01:59.321Z</time></trkpt><trkpt lat="38.1077" lon="15.640585"><ele>10.8</ele><time>2026-04-21T17:02:01.321Z</time></trkpt><trkpt lat="38.1077683" lon="15.6406883"><ele>11.0</ele><time>2026-04-21T17:02:02.32Z</time></trkpt><trkpt lat="38.1078633" lon="15.6408317"><ele>11.0</ele><time>2026-04-21T17:02:03.321Z</time></trkpt><trkpt lat="38.1079683" lon="15.6409983"><ele>11.0</ele><time>2026-04-21T17:02:04.321Z</time></trkpt><trkpt lat="38.1080783" lon="15.6411533"><ele>11.0</ele><time>2026-04-21T17:02:05.321Z</time></trkpt><trkpt lat="38.1081833" lon="15.64132"><ele>10.666666666666666</ele><time>2026-04-21T17:02:06.321Z</time></trkpt><trkpt lat="38.10831" lon="15.6415017"><ele>10.333333333333334</ele><time>2026-04-21T17:02:07.321Z</time></trkpt><trkpt lat="38.1084283" lon="15.64167"><ele>10.0</ele><time>2026-04-21T17:02:08.321Z</time></trkpt><trkpt lat="38.1085333" lon="15.641825"><ele>11.5</ele><time>2026-04-21T17:02:09.321Z</time></trkpt><trkpt lat="38.1086083" lon="15.641975"><ele>13.0</ele><time>2026-04-21T17:02:10.321Z</time></trkpt><trkpt lat="38.1086883" lon="15.642115"><ele>14.5</ele><time>2026-04-21T17:02:11.321Z</time></trkpt><trkpt lat="38.108745" lon="15.6422133"><ele>16.0</ele><time>2026-04-21T17:02:12.321Z</time></trkpt><trkpt lat="38.1087983" lon="15.6422883"><ele>16.0</ele><time>2026-04-21T17:02:13.321Z</time></trkpt><trkpt lat="38.10884" lon="15.64235"><ele>16.0</ele><time>2026-04-21T17:02:14.321Z</time></trkpt><trkpt lat="38.1089133" lon="15.6424433"><ele>16.0</ele><time>2026-04-21T17:02:16.321Z</time></trkpt><trkpt lat="38.1090083" lon="15.6425717"><ele>16.0</ele><time>2026-04-21T17:02:18.32Z</time></trkpt><trkpt lat="38.1090733" lon="15.642675"><ele>16.0</ele><time>2026-04-21T17:02:19.321Z</time></trkpt><trkpt lat="38.109165" lon="15.6428067"><ele>15.666666666666666</ele><time>2026-04-21T17:02:20.321Z</time></trkpt><trkpt lat="38.109275" lon="15.6429783"><ele>15.333333333333332</ele><time>2026-04-21T17:02:21.321Z</time></trkpt><trkpt lat="38.1093833" lon="15.643145"><ele>15.0</ele><time>2026-04-21T17:02:22.321Z</time></trkpt><trkpt lat="38.1094867" lon="15.6433"><ele>15.0</ele><time>2026-04-21T17:02:23.321Z</time></trkpt><trkpt lat="38.10958" lon="15.643425"><ele>15.0</ele><time>2026-04-21T17:02:24.321Z</time></trkpt><trkpt lat="38.1096767" lon="15.6435517"><ele>15.0</ele><time>2026-04-21T17:02:25.321Z</time></trkpt><trkpt lat="38.1097567" lon="15.6436767"><ele>15.0</ele><time>2026-04-21T17:02:26.321Z</time></trkpt><trkpt lat="38.1098583" lon="15.6438217"><ele>14.75</ele><time>2026-04-21T17:02:27.321Z</time></trkpt><trkpt lat="38.1099533" lon="15.6439533"><ele>14.5</ele><time>2026-04-21T17:02:28.321Z</time></trkpt><trkpt lat="38.11004" lon="15.6440933"><ele>14.25</ele><time>2026-04-21T17:02:29.321Z</time></trkpt><trkpt lat="38.1101267" lon="15.6442133"><ele>14.0</ele><time>2026-04-21T17:02:30.321Z</time></trkpt><trkpt lat="38.1102083" lon="15.64432"><ele>14.0</ele><time>2026-04-21T17:02:31.321Z</time></trkpt><trkpt lat="38.1102717" lon="15.6444117"><ele>13.999999999999998</ele><time>2026-04-21T17:02:32.321Z</time></trkpt><trkpt lat="38.11032" lon="15.6445167"><ele>13.999999999999998</ele><time>2026-04-21T17:02:33.321Z</time></trkpt><trkpt lat="38.1103783" lon="15.6446183"><ele>14.0</ele><time>2026-04-21T17:02:34.321Z</time></trkpt><trkpt lat="38.110455" lon="15.64472"><ele>14.0</ele><time>2026-04-21T17:02:35.321Z</time></trkpt><trkpt lat="38.1105267" lon="15.644835"><ele>13.6</ele><time>2026-04-21T17:02:36.321Z</time></trkpt><trkpt lat="38.1105983" lon="15.644955"><ele>13.2</ele><time>2026-04-21T17:02:37.321Z</time></trkpt><trkpt lat="38.11067" lon="15.6450517"><ele>12.799999999999999</ele><time>2026-04-21T17:02:38.32Z</time></trkpt><trkpt lat="38.1107383" lon="15.645145"><ele>12.399999999999999</ele><time>2026-04-21T17:02:39.321Z</time></trkpt><trkpt lat="38.1108" lon="15.645235"><ele>12.0</ele><time>2026-04-21T17:02:40.321Z</time></trkpt><trkpt lat="38.1108567" lon="15.645315"><ele>13.0</ele><time>2026-04-21T17:02:41.321Z</time></trkpt><trkpt lat="38.1109083" lon="15.6453917"><ele>14.0</ele><time>2026-04-21T17:02:42.321Z</time></trkpt><trkpt lat="38.1109467" lon="15.64546"><ele>15.0</ele><time>2026-04-21T17:02:43.321Z</time></trkpt><trkpt lat="38.1109833" lon="15.6455283"><ele>16.0</ele><time>2026-04-21T17:02:44.321Z</time></trkpt><trkpt lat="38.11106" lon="15.6456367"><ele>17.0</ele><time>2026-04-21T17:02:46.32Z</time></trkpt><trkpt lat="38.1111283" lon="15.6457267"><ele>18.0</ele><time>2026-04-21T17:02:48.32Z</time></trkpt><trkpt lat="38.1111817" lon="15.64581"><ele>18.0</ele><time>2026-04-21T17:02:50.321Z</time></trkpt><trkpt lat="38.111235" lon="15.6458783"><ele>18.0</ele><time>2026-04-21T17:02:52.321Z</time></trkpt><trkpt lat="38.1112917" lon="15.64596"><ele>18.0</ele><time>2026-04-21T17:02:54.321Z</time></trkpt><trkpt lat="38.111345" lon="15.646065"><ele>18.0</ele><time>2026-04-21T17:02:56.32Z</time></trkpt><trkpt lat="38.1114083" lon="15.6461667"><ele>18.0</ele><time>2026-04-21T17:02:58.321Z</time></trkpt><trkpt lat="38.1114733" lon="15.6462817"><ele>17.666666666666668</ele><time>2026-04-21T17:03:00.321Z</time></trkpt><trkpt lat="38.1115267" lon="15.646355"><ele>17.333333333333332</ele><time>2026-04-21T17:03:01.321Z</time></trkpt><trkpt lat="38.1116" lon="15.6464517"><ele>17.0</ele><time>2026-04-21T17:03:02.321Z</time></trkpt><trkpt lat="38.1116517" lon="15.6465333"><ele>16.666666666666664</ele><time>2026-04-21T17:03:03.32Z</time></trkpt><trkpt lat="38.1116917" lon="15.646605"><ele>16.333333333333332</ele><time>2026-04-21T17:03:04.321Z</time></trkpt><trkpt lat="38.1117617" lon="15.6466917"><ele>16.0</ele><time>2026-04-21T17:03:06.32Z</time></trkpt><trkpt lat="38.1118133" lon="15.6467667"><ele>15.999999999999998</ele><time>2026-04-21T17:03:08.321Z</time></trkpt><trkpt lat="38.1118717" lon="15.6468633"><ele>16.0</ele><time>2026-04-21T17:03:10.321Z</time></trkpt><trkpt lat="38.11191" lon="15.6469333"><ele>16.0</ele><time>2026-04-21T17:03:11.321Z</time></trkpt><trkpt lat="38.1119633" lon="15.6470133"><ele>16.0</ele><time>2026-04-21T17:03:12.321Z</time></trkpt><trkpt lat="38.1120183" lon="15.6471"><ele>15.999999999999998</ele><time>2026-04-21T17:03:13.321Z</time></trkpt><trkpt lat="38.1120733" lon="15.6471833"><ele>16.0</ele><time>2026-04-21T17:03:14.32Z</time></trkpt><trkpt lat="38.1121183" lon="15.6472617"><ele>16.666666666666664</ele><time>2026-04-21T17:03:15.321Z</time></trkpt><trkpt lat="38.1121667" lon="15.6473217"><ele>17.333333333333332</ele><time>2026-04-21T17:03:16.321Z</time></trkpt><trkpt lat="38.1122283" lon="15.64743"><ele>18.0</ele><time>2026-04-21T17:03:18.321Z</time></trkpt><trkpt lat="38.112285" lon="15.6475083"><ele>18.666666666666668</ele><time>2026-04-21T17:03:20.321Z</time></trkpt><trkpt lat="38.1123333" lon="15.647565"><ele>19.333333333333336</ele><time>2026-04-21T17:03:22.321Z</time></trkpt><trkpt lat="38.1123783" lon="15.6476283"><ele>20.0</ele><time>2026-04-21T17:03:24.321Z</time></trkpt><trkpt lat="38.112435" lon="15.6477267"><ele>20.333333333333336</ele><time>2026-04-21T17:03:27.321Z</time></trkpt><trkpt lat="38.1124717" lon="15.647825"><ele>20.666666666666668</ele><time>2026-04-21T17:03:30.321Z</time></trkpt><trkpt lat="38.1125017" lon="15.6479183"><ele>21.0</ele><time>2026-04-21T17:03:32.321Z</time></trkpt><trkpt lat="38.1125783" lon="15.6480133"><ele>21.333333333333332</ele><time>2026-04-21T17:03:34.321Z</time></trkpt><trkpt lat="38.1126267" lon="15.6481167"><ele>21.666666666666664</ele><time>2026-04-21T17:03:37.321Z</time></trkpt><trkpt lat="38.1126717" lon="15.6481783"><ele>22.0</ele><time>2026-04-21T17:03:39.321Z</time></trkpt><trkpt lat="38.1127433" lon="15.6482017"><ele>22.0</ele><time>2026-04-21T17:03:41.321Z</time></trkpt><trkpt lat="38.11282" lon="15.6482867"><ele>22.0</ele><time>2026-04-21T17:03:43.32Z</time></trkpt><trkpt lat="38.11286" lon="15.6483633"><ele>22.0</ele><time>2026-04-21T17:03:44.321Z</time></trkpt><trkpt lat="38.1129067" lon="15.6484417"><ele>22.0</ele><time>2026-04-21T17:03:45.321Z</time></trkpt><trkpt lat="38.11295" lon="15.6485217"><ele>22.0</ele><time>2026-04-21T17:03:46.32Z</time></trkpt><trkpt lat="38.113" lon="15.6486017"><ele>22.0</ele><time>2026-04-21T17:03:47.32Z</time></trkpt><trkpt lat="38.1130467" lon="15.6486917"><ele>22.0</ele><time>2026-04-21T17:03:48.321Z</time></trkpt><trkpt lat="38.1130833" lon="15.6487583"><ele>22.0</ele><time>2026-04-21T17:03:49.321Z</time></trkpt><trkpt lat="38.11314" lon="15.64883"><ele>22.0</ele><time>2026-04-21T17:03:51.321Z</time></trkpt><trkpt lat="38.11319" lon="15.6489117"><ele>22.0</ele><time>2026-04-21T17:03:53.321Z</time></trkpt><trkpt lat="38.1132283" lon="15.6489767"><ele>22.0</ele><time>2026-04-21T17:03:54.321Z</time></trkpt><trkpt lat="38.1132767" lon="15.6490467"><ele>22.0</ele><time>2026-04-21T17:03:55.321Z</time></trkpt><trkpt lat="38.1133317" lon="15.6491367"><ele>22.0</ele><time>2026-04-21T17:03:56.321Z</time></trkpt><trkpt lat="38.11339" lon="15.6492283"><ele>22.0</ele><time>2026-04-21T17:03:57.321Z</time></trkpt><trkpt lat="38.1134417" lon="15.6493233"><ele>22.0</ele><time>2026-04-21T17:03:58.321Z</time></trkpt><trkpt lat="38.1135117" lon="15.649415"><ele>22.0</ele><time>2026-04-21T17:03:59.321Z</time></trkpt><trkpt lat="38.1135717" lon="15.6495133"><ele>22.0</ele><time>2026-04-21T17:04:00.321Z</time></trkpt><trkpt lat="38.113625" lon="15.649605"><ele>22.666666666666664</ele><time>2026-04-21T17:04:01.32Z</time></trkpt><trkpt lat="38.113685" lon="15.6496717"><ele>23.333333333333332</ele><time>2026-04-21T17:04:02.321Z</time></trkpt><trkpt lat="38.1137517" lon="15.6497583"><ele>24.0</ele><time>2026-04-21T17:04:04.321Z</time></trkpt><trkpt lat="38.1138" lon="15.649825"><ele>24.666666666666664</ele><time>2026-04-21T17:04:07.321Z</time></trkpt><trkpt lat="38.1138383" lon="15.64989"><ele>25.333333333333332</ele><time>2026-04-21T17:04:09.321Z</time></trkpt><trkpt lat="38.113895" lon="15.6499733"><ele>26.0</ele><time>2026-04-21T17:04:11.321Z</time></trkpt><trkpt lat="38.11395" lon="15.6500417"><ele>25.999999999999996</ele><time>2026-04-21T17:04:13.321Z</time></trkpt><trkpt lat="38.1140233" lon="15.650125"><ele>26.0</ele><time>2026-04-21T17:04:15.321Z</time></trkpt><trkpt lat="38.1140583" lon="15.6501917"><ele>26.0</ele><time>2026-04-21T17:04:16.321Z</time></trkpt><trkpt lat="38.1141033" lon="15.650255"><ele>26.0</ele><time>2026-04-21T17:04:17.321Z</time></trkpt><trkpt lat="38.1141867" lon="15.6503567"><ele>25.999999999999996</ele><time>2026-04-21T17:04:19.321Z</time></trkpt><trkpt lat="38.114285" lon="15.6503967"><ele>26.0</ele><time>2026-04-21T17:04:21.321Z</time></trkpt><trkpt lat="38.1143817" lon="15.6503967"><ele>25.333333333333332</ele><time>2026-04-21T17:04:23.32Z</time></trkpt><trkpt lat="38.114475" lon="15.6503933"><ele>24.666666666666664</ele><time>2026-04-21T17:04:25.32Z</time></trkpt><trkpt lat="38.1145483" lon="15.6504217"><ele>24.0</ele><time>2026-04-21T17:04:27.321Z</time></trkpt><trkpt lat="38.1146083" lon="15.6504667"><ele>23.333333333333332</ele><time>2026-04-21T17:04:34.32Z</time></trkpt><trkpt lat="38.1146967" lon="15.650465"><ele>22.666666666666664</ele><time>2026-04-21T17:04:37.321Z</time></trkpt><trkpt lat="38.11477" lon="15.6504333"><ele>22.0</ele><time>2026-04-21T17:04:40.321Z</time></trkpt><trkpt lat="38.1148383" lon="15.6504133"><ele>22.200000000000003</ele><time>2026-04-21T17:04:42.321Z</time></trkpt><trkpt lat="38.1149567" lon="15.6504167"><ele>22.4</ele><time>2026-04-21T17:04:44.321Z</time></trkpt><trkpt lat="38.1150217" lon="15.6504117"><ele>22.6</ele><time>2026-04-21T17:04:45.321Z</time></trkpt><trkpt lat="38.1150867" lon="15.6504017"><ele>22.799999999999997</ele><time>2026-04-21T17:04:46.321Z</time></trkpt><trkpt lat="38.1151983" lon="15.650365"><ele>23.0</ele><time>2026-04-21T17:04:48.321Z</time></trkpt><trkpt lat="38.1153217" lon="15.6503567"><ele>23.0</ele><time>2026-04-21T17:04:50.32Z</time></trkpt><trkpt lat="38.1153867" lon="15.65036"><ele>23.0</ele><time>2026-04-21T17:04:51.321Z</time></trkpt><trkpt lat="38.1154567" lon="15.6503533"><ele>23.0</ele><time>2026-04-21T17:04:52.321Z</time></trkpt><trkpt lat="38.1155417" lon="15.6503233"><ele>23.0</ele><time>2026-04-21T17:04:54.321Z</time></trkpt><trkpt lat="38.11561" lon="15.6503083"><ele>23.0</ele><time>2026-04-21T17:04:56.32Z</time></trkpt><trkpt lat="38.11571" lon="15.6503083"><ele>23.0</ele><time>2026-04-21T17:04:58.321Z</time></trkpt><trkpt lat="38.1158217" lon="15.6502883"><ele>22.666666666666668</ele><time>2026-04-21T17:05:00.321Z</time></trkpt><trkpt lat="38.115895" lon="15.6502917"><ele>22.333333333333336</ele><time>2026-04-21T17:05:02.321Z</time></trkpt><trkpt lat="38.1159633" lon="15.6502733"><ele>22.0</ele><time>2026-04-21T17:05:04.321Z</time></trkpt><trkpt lat="38.1160483" lon="15.6502567"><ele>21.666666666666668</ele><time>2026-04-21T17:05:06.321Z</time></trkpt><trkpt lat="38.1161467" lon="15.6502467"><ele>21.333333333333332</ele><time>2026-04-21T17:05:08.321Z</time></trkpt><trkpt lat="38.1162533" lon="15.6502317"><ele>21.0</ele><time>2026-04-21T17:05:10.321Z</time></trkpt><trkpt lat="38.1163283" lon="15.650215"><ele>19.666666666666668</ele><time>2026-04-21T17:05:12.321Z</time></trkpt><trkpt lat="38.1163983" lon="15.65019"><ele>18.333333333333332</ele><time>2026-04-21T17:05:17.321Z</time></trkpt><trkpt lat="38.1165" lon="15.65018"><ele>17.0</ele><time>2026-04-21T17:05:20.321Z</time></trkpt><trkpt lat="38.1165833" lon="15.6501833"><ele>15.666666666666666</ele><time>2026-04-21T17:05:23.321Z</time></trkpt><trkpt lat="38.1166617" lon="15.6501867"><ele>14.333333333333332</ele><time>2026-04-21T17:05:26.321Z</time></trkpt><trkpt lat="38.1167533" lon="15.65015"><ele>13.0</ele><time>2026-04-21T17:05:29.321Z</time></trkpt><trkpt lat="38.1168333" lon="15.6501383"><ele>12.999999999999998</ele><time>2026-04-21T17:05:31.321Z</time></trkpt><trkpt lat="38.1169167" lon="15.65013"><ele>13.0</ele><time>2026-04-21T17:05:33.321Z</time></trkpt><trkpt lat="38.1170033" lon="15.65013"><ele>13.0</ele><time>2026-04-21T17:05:35.321Z</time></trkpt><trkpt lat="38.1170733" lon="15.6501367"><ele>13.0</ele><time>2026-04-21T17:05:37.321Z</time></trkpt><trkpt lat="38.1171633" lon="15.65015"><ele>12.999999999999998</ele><time>2026-04-21T17:05:40.32Z</time></trkpt><trkpt lat="38.1172433" lon="15.6501517"><ele>13.0</ele><time>2026-04-21T17:05:43.321Z</time></trkpt><trkpt lat="38.1173067" lon="15.6501467"><ele>13.0</ele><time>2026-04-21T17:05:45.321Z</time></trkpt><trkpt lat="38.11738" lon="15.6501217"><ele>13.0</ele><time>2026-04-21T17:05:47.321Z</time></trkpt><trkpt lat="38.1174783" lon="15.6500917"><ele>13.0</ele><time>2026-04-21T17:05:49.321Z</time></trkpt><trkpt lat="38.1175867" lon="15.650085"><ele>13.0</ele><time>2026-04-21T17:05:51.321Z</time></trkpt><trkpt lat="38.1177017" lon="15.6500583"><ele>13.0</ele><time>2026-04-21T17:05:53.321Z</time></trkpt><trkpt lat="38.117805" lon="15.6500317"><ele>13.2</ele><time>2026-04-21T17:05:55.321Z</time></trkpt><trkpt lat="38.1179117" lon="15.6500433"><ele>13.4</ele><time>2026-04-21T17:05:57.32Z</time></trkpt><trkpt lat="38.1180267" lon="15.650045"><ele>13.599999999999998</ele><time>2026-04-21T17:05:59.321Z</time></trkpt><trkpt lat="38.1181367" lon="15.6500317"><ele>13.799999999999999</ele><time>2026-04-21T17:06:01.321Z</time></trkpt><trkpt lat="38.11825" lon="15.6500267"><ele>14.0</ele><time>2026-04-21T17:06:03.321Z</time></trkpt><trkpt lat="38.1183367" lon="15.6500067"><ele>14.0</ele><time>2026-04-21T17:06:05.321Z</time></trkpt><trkpt lat="38.11841" lon="15.649995"><ele>13.999999999999998</ele><time>2026-04-21T17:06:07.321Z</time></trkpt><trkpt lat="38.1185117" lon="15.6499683"><ele>13.999999999999998</ele><time>2026-04-21T17:06:10.321Z</time></trkpt><trkpt lat="38.1186217" lon="15.6499417"><ele>14.0</ele><time>2026-04-21T17:06:12.32Z</time></trkpt><trkpt lat="38.11873" lon="15.649945"><ele>14.0</ele><time>2026-04-21T17:06:14.321Z</time></trkpt><trkpt lat="38.11879" lon="15.6499817"><ele>14.0</ele><time>2026-04-21T17:06:37.321Z</time></trkpt><trkpt lat="38.1188833" lon="15.6500033"><ele>14.0</ele><time>2026-04-21T17:06:40.32Z</time></trkpt><trkpt lat="38.1189933" lon="15.650065"><ele>14.0</ele><time>2026-04-21T17:06:42.321Z</time></trkpt><trkpt lat="38.1191117" lon="15.6500733"><ele>14.0</ele><time>2026-04-21T17:06:44.321Z</time></trkpt><trkpt lat="38.11923" lon="15.65005"><ele>14.2</ele><time>2026-04-21T17:06:46.321Z</time></trkpt><trkpt lat="38.1192967" lon="15.6500283"><ele>14.399999999999999</ele><time>2026-04-21T17:06:47.321Z</time></trkpt><trkpt lat="38.1193817" lon="15.6500283"><ele>14.6</ele><time>2026-04-21T17:06:48.32Z</time></trkpt><trkpt lat="38.11948" lon="15.6500517"><ele>14.8</ele><time>2026-04-21T17:06:49.321Z</time></trkpt><trkpt lat="38.11961" lon="15.65011"><ele>15.0</ele><time>2026-04-21T17:06:50.321Z</time></trkpt><trkpt lat="38.1197883" lon="15.6502217"><ele>20.5</ele><time>2026-04-21T17:06:51.321Z</time></trkpt><trkpt lat="38.1199883" lon="15.65039"><ele>26.0</ele><time>2026-04-21T17:06:52.321Z</time></trkpt><trkpt lat="38.1201833" lon="15.650575"><ele>26.0</ele><time>2026-04-21T17:06:53.321Z</time></trkpt><trkpt lat="38.1203533" lon="15.65079"><ele>26.0</ele><time>2026-04-21T17:06:54.321Z</time></trkpt><trkpt lat="38.1205033" lon="15.6509833"><ele>27.0</ele><time>2026-04-21T17:06:55.32Z</time></trkpt><trkpt lat="38.1206567" lon="15.6511717"><ele>28.0</ele><time>2026-04-21T17:06:56.321Z</time></trkpt><trkpt lat="38.12082" lon="15.6513767"><ele>29.0</ele><time>2026-04-21T17:06:57.321Z</time></trkpt><trkpt lat="38.1210017" lon="15.651605"><ele>26.5</ele><time>2026-04-21T17:06:58.321Z</time></trkpt><trkpt lat="38.1211933" lon="15.6518467"><ele>24.0</ele><time>2026-04-21T17:06:59.321Z</time></trkpt><trkpt lat="38.1213933" lon="15.652095"><ele>21.0</ele><time>2026-04-21T17:07:00.321Z</time></trkpt><trkpt lat="38.1216167" lon="15.65234"><ele>18.0</ele><time>2026-04-21T17:07:01.321Z</time></trkpt><trkpt lat="38.1218667" lon="15.6525633"><ele>18.0</ele><time>2026-04-21T17:07:02.321Z</time></trkpt><trkpt lat="38.122125" lon="15.65275"><ele>18.0</ele><time>2026-04-21T17:07:03.32Z</time></trkpt><trkpt lat="38.1223883" lon="15.65289"><ele>21.0</ele><time>2026-04-21T17:07:04.321Z</time></trkpt><trkpt lat="38.1226583" lon="15.65298"><ele>24.0</ele><time>2026-04-21T17:07:05.32Z</time></trkpt><trkpt lat="38.1229333" lon="15.6530417"><ele>23.0</ele><time>2026-04-21T17:07:06.321Z</time></trkpt><trkpt lat="38.1232433" lon="15.653075"><ele>22.0</ele><time>2026-04-21T17:07:07.32Z</time></trkpt><trkpt lat="38.123555" lon="15.65309"><ele>22.0</ele><time>2026-04-21T17:07:08.321Z</time></trkpt><trkpt lat="38.1238783" lon="15.653095"><ele>22.0</ele><time>2026-04-21T17:07:09.321Z</time></trkpt><trkpt lat="38.1241667" lon="15.65307"><ele>21.5</ele><time>2026-04-21T17:07:10.321Z</time></trkpt><trkpt lat="38.1244333" lon="15.6530467"><ele>21.0</ele><time>2026-04-21T17:07:11.321Z</time></trkpt><trkpt lat="38.12467" lon="15.6530383"><ele>21.0</ele><time>2026-04-21T17:07:12.321Z</time></trkpt><trkpt lat="38.1248783" lon="15.6530133"><ele>21.0</ele><time>2026-04-21T17:07:13.32Z</time></trkpt><trkpt lat="38.12507" lon="15.653005"><ele>21.0</ele><time>2026-04-21T17:07:14.321Z</time></trkpt><trkpt lat="38.125295" lon="15.653075"><ele>20.666666666666668</ele><time>2026-04-21T17:07:15.321Z</time></trkpt><trkpt lat="38.1254983" lon="15.6530383"><ele>20.333333333333336</ele><time>2026-04-21T17:07:16.321Z</time></trkpt><trkpt lat="38.1257067" lon="15.6530133"><ele>20.0</ele><time>2026-04-21T17:07:17.321Z</time></trkpt><trkpt lat="38.1259083" lon="15.6529867"><ele>20.0</ele><time>2026-04-21T17:07:18.321Z</time></trkpt><trkpt lat="38.1261133" lon="15.6529617"><ele>20.0</ele><time>2026-04-21T17:07:19.321Z</time></trkpt><trkpt lat="38.12631" lon="15.6529167"><ele>20.0</ele><time>2026-04-21T17:07:20.321Z</time></trkpt><trkpt lat="38.1265283" lon="15.6528717"><ele>19.5</ele><time>2026-04-21T17:07:21.321Z</time></trkpt><trkpt lat="38.1267733" lon="15.6528467"><ele>19.0</ele><time>2026-04-21T17:07:22.321Z</time></trkpt><trkpt lat="38.1270383" lon="15.652815"><ele>13.5</ele><time>2026-04-21T17:07:23.32Z</time></trkpt><trkpt lat="38.1273033" lon="15.6527883"><ele>8.0</ele><time>2026-04-21T17:07:24.321Z</time></trkpt><trkpt lat="38.1275817" lon="15.6527583"><ele>7.5</ele><time>2026-04-21T17:07:25.321Z</time></trkpt><trkpt lat="38.1278617" lon="15.652735"><ele>7.0</ele><time>2026-04-21T17:07:26.321Z</time></trkpt><trkpt lat="38.1281333" lon="15.652735"><ele>8.0</ele><time>2026-04-21T17:07:27.321Z</time></trkpt><trkpt lat="38.1283933" lon="15.6527433"><ele>9.0</ele><time>2026-04-21T17:07:28.321Z</time></trkpt><trkpt lat="38.12865" lon="15.6527683"><ele>11.5</ele><time>2026-04-21T17:07:29.321Z</time></trkpt><trkpt lat="38.1289067" lon="15.6528217"><ele>14.0</ele><time>2026-04-21T17:07:30.321Z</time></trkpt><trkpt lat="38.12916" lon="15.6529133"><ele>14.0</ele><time>2026-04-21T17:07:31.321Z</time></trkpt><trkpt lat="38.12942" lon="15.6530417"><ele>14.0</ele><time>2026-04-21T17:07:32.321Z</time></trkpt><trkpt lat="38.129655" lon="15.6532017"><ele>14.0</ele><time>2026-04-21T17:07:33.321Z</time></trkpt><trkpt lat="38.1298767" lon="15.6533617"><ele>14.0</ele><time>2026-04-21T17:07:34.321Z</time></trkpt><trkpt lat="38.1300667" lon="15.6535367"><ele>19.0</ele><time>2026-04-21T17:07:35.321Z</time></trkpt><trkpt lat="38.13026" lon="15.6537283"><ele>24.0</ele><time>2026-04-21T17:07:36.321Z</time></trkpt><trkpt lat="38.1304283" lon="15.6538967"><ele>24.0</ele><time>2026-04-21T17:07:37.321Z</time></trkpt><trkpt lat="38.1305833" lon="15.6540583"><ele>24.0</ele><time>2026-04-21T17:07:38.321Z</time></trkpt><trkpt lat="38.130755" lon="15.6541833"><ele>24.0</ele><time>2026-04-21T17:07:39.32Z</time></trkpt><trkpt lat="38.1309467" lon="15.6542767"><ele>20.0</ele><time>2026-04-21T17:07:40.321Z</time></trkpt><trkpt lat="38.1311417" lon="15.65434"><ele>16.0</ele><time>2026-04-21T17:07:41.321Z</time></trkpt><trkpt lat="38.1313233" lon="15.6543883"><ele>12.0</ele><time>2026-04-21T17:07:42.32Z</time></trkpt><trkpt lat="38.1314967" lon="15.654425"><ele>12.0</ele><time>2026-04-21T17:07:43.321Z</time></trkpt><trkpt lat="38.1316667" lon="15.6544717"><ele>12.0</ele><time>2026-04-21T17:07:44.321Z</time></trkpt><trkpt lat="38.131805" lon="15.6545483"><ele>12.0</ele><time>2026-04-21T17:07:45.32Z</time></trkpt><trkpt lat="38.13194" lon="15.654625"><ele>12.0</ele><time>2026-04-21T17:07:46.321Z</time></trkpt><trkpt lat="38.132065" lon="15.6547317"><ele>12.0</ele><time>2026-04-21T17:07:47.32Z</time></trkpt><trkpt lat="38.13219" lon="15.65487"><ele>12.0</ele><time>2026-04-21T17:07:48.321Z</time></trkpt><trkpt lat="38.132315" lon="15.65501"><ele>13.333333333333332</ele><time>2026-04-21T17:07:49.321Z</time></trkpt><trkpt lat="38.1324383" lon="15.655135"><ele>14.666666666666666</ele><time>2026-04-21T17:07:50.321Z</time></trkpt><trkpt lat="38.1325667" lon="15.6552533"><ele>16.0</ele><time>2026-04-21T17:07:51.321Z</time></trkpt><trkpt lat="38.1327" lon="15.65537"><ele>16.0</ele><time>2026-04-21T17:07:52.321Z</time></trkpt><trkpt lat="38.132835" lon="15.6554767"><ele>16.0</ele><time>2026-04-21T17:07:53.321Z</time></trkpt><trkpt lat="38.1329783" lon="15.65557"><ele>16.0</ele><time>2026-04-21T17:07:54.321Z</time></trkpt><trkpt lat="38.1331117" lon="15.6556517"><ele>14.333333333333332</ele><time>2026-04-21T17:07:55.321Z</time></trkpt><trkpt lat="38.1332483" lon="15.6557233"><ele>12.666666666666666</ele><time>2026-04-21T17:07:56.32Z</time></trkpt><trkpt lat="38.1333883" lon="15.6558033"><ele>11.0</ele><time>2026-04-21T17:07:57.32Z</time></trkpt><trkpt lat="38.1335333" lon="15.6558883"><ele>11.0</ele><time>2026-04-21T17:07:58.321Z</time></trkpt><trkpt lat="38.133675" lon="15.6559817"><ele>11.0</ele><time>2026-04-21T17:07:59.321Z</time></trkpt><trkpt lat="38.13382" lon="15.6560733"><ele>11.0</ele><time>2026-04-21T17:08:00.321Z</time></trkpt><trkpt lat="38.1339633" lon="15.6561667"><ele>11.333333333333332</ele><time>2026-04-21T17:08:01.321Z</time></trkpt><trkpt lat="38.1341083" lon="15.6562567"><ele>11.666666666666666</ele><time>2026-04-21T17:08:02.321Z</time></trkpt><trkpt lat="38.134255" lon="15.656345"><ele>12.0</ele><time>2026-04-21T17:08:03.321Z</time></trkpt><trkpt lat="38.1344" lon="15.65644"><ele>12.0</ele><time>2026-04-21T17:08:04.321Z</time></trkpt><trkpt lat="38.1345517" lon="15.6565217"><ele>12.0</ele><time>2026-04-21T17:08:05.321Z</time></trkpt><trkpt lat="38.134715" lon="15.6565983"><ele>12.0</ele><time>2026-04-21T17:08:06.321Z</time></trkpt><trkpt lat="38.13487" lon="15.65668"><ele>10.0</ele><time>2026-04-21T17:08:07.321Z</time></trkpt><trkpt lat="38.1350267" lon="15.6567467"><ele>8.0</ele><time>2026-04-21T17:08:08.321Z</time></trkpt><trkpt lat="38.1351817" lon="15.6568117"><ele>6.0</ele><time>2026-04-21T17:08:09.321Z</time></trkpt><trkpt lat="38.1353383" lon="15.6568667"><ele>6.0</ele><time>2026-04-21T17:08:10.321Z</time></trkpt><trkpt lat="38.1354967" lon="15.656925"><ele>6.0</ele><time>2026-04-21T17:08:11.321Z</time></trkpt><trkpt lat="38.135645" lon="15.6569817"><ele>6.0</ele><time>2026-04-21T17:08:12.321Z</time></trkpt><trkpt lat="38.135805" lon="15.6570367"><ele>8.666666666666668</ele><time>2026-04-21T17:08:13.321Z</time></trkpt><trkpt lat="38.1359617" lon="15.657075"><ele>11.333333333333334</ele><time>2026-04-21T17:08:14.321Z</time></trkpt><trkpt lat="38.1361183" lon="15.6571083"><ele>14.0</ele><time>2026-04-21T17:08:15.321Z</time></trkpt><trkpt lat="38.13628" lon="15.6571467"><ele>14.0</ele><time>2026-04-21T17:08:16.321Z</time></trkpt><trkpt lat="38.1364367" lon="15.6571833"><ele>14.0</ele><time>2026-04-21T17:08:17.321Z</time></trkpt><trkpt lat="38.1365933" lon="15.6572317"><ele>14.0</ele><time>2026-04-21T17:08:18.321Z</time></trkpt><trkpt lat="38.1367667" lon="15.6573033"><ele>15.666666666666668</ele><time>2026-04-21T17:08:19.321Z</time></trkpt><trkpt lat="38.1369533" lon="15.6574"><ele>17.333333333333332</ele><time>2026-04-21T17:08:20.321Z</time></trkpt><trkpt lat="38.13715" lon="15.657535"><ele>19.0</ele><time>2026-04-21T17:08:21.321Z</time></trkpt><trkpt lat="38.1373417" lon="15.6576967"><ele>24.0</ele><time>2026-04-21T17:08:22.321Z</time></trkpt><trkpt lat="38.1375183" lon="15.6579033"><ele>29.0</ele><time>2026-04-21T17:08:23.321Z</time></trkpt><trkpt lat="38.1376867" lon="15.6581483"><ele>29.0</ele><time>2026-04-21T17:08:24.321Z</time></trkpt><trkpt lat="38.1378583" lon="15.6583933"><ele>29.0</ele><time>2026-04-21T17:08:25.321Z</time></trkpt><trkpt lat="38.1380417" lon="15.65861"><ele>33.5</ele><time>2026-04-21T17:08:26.321Z</time></trkpt><trkpt lat="38.1382483" lon="15.658795"><ele>38.0</ele><time>2026-04-21T17:08:27.321Z</time></trkpt><trkpt lat="38.1384583" lon="15.6589483"><ele>38.0</ele><time>2026-04-21T17:08:28.321Z</time></trkpt><trkpt lat="38.1386767" lon="15.6590733"><ele>38.0</ele><time>2026-04-21T17:08:29.321Z</time></trkpt><trkpt lat="38.1388983" lon="15.659175"><ele>37.666666666666664</ele><time>2026-04-21T17:08:30.32Z</time></trkpt><trkpt lat="38.13911" lon="15.659255"><ele>37.333333333333336</ele><time>2026-04-21T17:08:31.321Z</time></trkpt><trkpt lat="38.1393183" lon="15.6593417"><ele>37.0</ele><time>2026-04-21T17:08:32.321Z</time></trkpt><trkpt lat="38.1395183" lon="15.6594267"><ele>41.333333333333336</ele><time>2026-04-21T17:08:33.321Z</time></trkpt><trkpt lat="38.1397133" lon="15.659515"><ele>45.66666666666667</ele><time>2026-04-21T17:08:34.321Z</time></trkpt><trkpt lat="38.1399183" lon="15.6596183"><ele>50.0</ele><time>2026-04-21T17:08:35.321Z</time></trkpt><trkpt lat="38.1401217" lon="15.65971"><ele>57.0</ele><time>2026-04-21T17:08:36.321Z</time></trkpt><trkpt lat="38.14034" lon="15.6597917"><ele>64.0</ele><time>2026-04-21T17:08:37.32Z</time></trkpt><trkpt lat="38.1405733" lon="15.6598783"><ele>61.0</ele><time>2026-04-21T17:08:38.321Z</time></trkpt><trkpt lat="38.1408267" lon="15.6599817"><ele>58.0</ele><time>2026-04-21T17:08:39.321Z</time></trkpt><trkpt lat="38.14107" lon="15.6600917"><ele>58.0</ele><time>2026-04-21T17:08:40.32Z</time></trkpt><trkpt lat="38.1413083" lon="15.660195"><ele>58.0</ele><time>2026-04-21T17:08:41.321Z</time></trkpt><trkpt lat="38.1415317" lon="15.6603"><ele>56.666666666666664</ele><time>2026-04-21T17:08:42.321Z</time></trkpt><trkpt lat="38.1417417" lon="15.660405"><ele>55.33333333333333</ele><time>2026-04-21T17:08:43.321Z</time></trkpt><trkpt lat="38.14192" lon="15.66053"><ele>54.0</ele><time>2026-04-21T17:08:44.321Z</time></trkpt><trkpt lat="38.1420633" lon="15.6606617"><ele>54.0</ele><time>2026-04-21T17:08:45.321Z</time></trkpt><trkpt lat="38.1421867" lon="15.6608383"><ele>54.0</ele><time>2026-04-21T17:08:46.321Z</time></trkpt><trkpt lat="38.1422717" lon="15.661045"><ele>54.0</ele><time>2026-04-21T17:08:47.321Z</time></trkpt><trkpt lat="38.1423167" lon="15.6612583"><ele>56.66666666666667</ele><time>2026-04-21T17:08:48.321Z</time></trkpt><trkpt lat="38.142335" lon="15.6614933"><ele>59.333333333333336</ele><time>2026-04-21T17:08:49.321Z</time></trkpt><trkpt lat="38.1423183" lon="15.66173"><ele>62.0</ele><time>2026-04-21T17:08:50.321Z</time></trkpt><trkpt lat="38.1422633" lon="15.661975"><ele>65.66666666666667</ele><time>2026-04-21T17:08:51.321Z</time></trkpt><trkpt lat="38.1421767" lon="15.6622183"><ele>69.33333333333333</ele><time>2026-04-21T17:08:52.321Z</time></trkpt><trkpt lat="38.142055" lon="15.6624467"><ele>73.0</ele><time>2026-04-21T17:08:53.321Z</time></trkpt><trkpt lat="38.14192" lon="15.662675"><ele>78.5</ele><time>2026-04-21T17:08:54.321Z</time></trkpt><trkpt lat="38.141765" lon="15.6629217"><ele>84.0</ele><time>2026-04-21T17:08:55.321Z</time></trkpt><trkpt lat="38.14163" lon="15.6631517"><ele>82.33333333333333</ele><time>2026-04-21T17:08:56.321Z</time></trkpt><trkpt lat="38.1415" lon="15.6633433"><ele>80.66666666666666</ele><time>2026-04-21T17:08:57.32Z</time></trkpt><trkpt lat="38.141385" lon="15.6635183"><ele>79.0</ele><time>2026-04-21T17:08:58.321Z</time></trkpt><trkpt lat="38.1412767" lon="15.6636767"><ele>82.75</ele><time>2026-04-21T17:08:59.321Z</time></trkpt><trkpt lat="38.1411583" lon="15.66379"><ele>86.5</ele><time>2026-04-21T17:09:00.321Z</time></trkpt><trkpt lat="38.1410183" lon="15.663835"><ele>90.25</ele><time>2026-04-21T17:09:01.321Z</time></trkpt><trkpt lat="38.1408883" lon="15.6638233"><ele>94.0</ele><time>2026-04-21T17:09:02.321Z</time></trkpt><trkpt lat="38.1407567" lon="15.6637633"><ele>95.25</ele><time>2026-04-21T17:09:03.321Z</time></trkpt><trkpt lat="38.14063" lon="15.663665"><ele>96.5</ele><time>2026-04-21T17:09:04.321Z</time></trkpt><trkpt lat="38.14054" lon="15.6635167"><ele>97.75</ele><time>2026-04-21T17:09:05.321Z</time></trkpt><trkpt lat="38.1404833" lon="15.6633617"><ele>99.0</ele><time>2026-04-21T17:09:06.321Z</time></trkpt><trkpt lat="38.1404567" lon="15.6631633"><ele>96.25</ele><time>2026-04-21T17:09:07.321Z</time></trkpt><trkpt lat="38.14047" lon="15.6629683"><ele>93.5</ele><time>2026-04-21T17:09:08.32Z</time></trkpt><trkpt lat="38.1405317" lon="15.66279"><ele>90.75</ele><time>2026-04-21T17:09:09.321Z</time></trkpt><trkpt lat="38.1406217" lon="15.66266"><ele>88.0</ele><time>2026-04-21T17:09:10.321Z</time></trkpt><trkpt lat="38.1407367" lon="15.66255"><ele>84.75</ele><time>2026-04-21T17:09:11.321Z</time></trkpt><trkpt lat="38.1408733" lon="15.6624983"><ele>81.5</ele><time>2026-04-21T17:09:12.32Z</time></trkpt><trkpt lat="38.1410183" lon="15.6624933"><ele>78.25</ele><time>2026-04-21T17:09:13.32Z</time></trkpt><trkpt lat="38.141165" lon="15.6625283"><ele>75.0</ele><time>2026-04-21T17:09:14.321Z</time></trkpt><trkpt lat="38.1413067" lon="15.6626"><ele>75.0</ele><time>2026-04-21T17:09:15.321Z</time></trkpt><trkpt lat="38.14145" lon="15.6627017"><ele>75.0</ele><time>2026-04-21T17:09:16.321Z</time></trkpt><trkpt lat="38.1416117" lon="15.66284"><ele>75.0</ele><time>2026-04-21T17:09:17.321Z</time></trkpt><trkpt lat="38.1417967" lon="15.6629933"><ele>79.5</ele><time>2026-04-21T17:09:18.321Z</time></trkpt><trkpt lat="38.1420017" lon="15.6631683"><ele>84.0</ele><time>2026-04-21T17:09:19.321Z</time></trkpt><trkpt lat="38.1422183" lon="15.6633717"><ele>82.0</ele><time>2026-04-21T17:09:20.32Z</time></trkpt><trkpt lat="38.1424317" lon="15.6636083"><ele>80.0</ele><time>2026-04-21T17:09:21.321Z</time></trkpt><trkpt lat="38.1426417" lon="15.6638817"><ele>80.0</ele><time>2026-04-21T17:09:22.321Z</time></trkpt><trkpt lat="38.1428517" lon="15.6641983"><ele>80.0</ele><time>2026-04-21T17:09:23.321Z</time></trkpt><trkpt lat="38.143055" lon="15.6645117"><ele>72.5</ele><time>2026-04-21T17:09:24.321Z</time></trkpt><trkpt lat="38.1432567" lon="15.6648433"><ele>65.0</ele><time>2026-04-21T17:09:25.321Z</time></trkpt><trkpt lat="38.1434567" lon="15.66518"><ele>62.5</ele><time>2026-04-21T17:09:26.321Z</time></trkpt><trkpt lat="38.14365" lon="15.6655283"><ele>60.0</ele><time>2026-04-21T17:09:27.321Z</time></trkpt><trkpt lat="38.14384" lon="15.66587"><ele>58.0</ele><time>2026-04-21T17:09:28.32Z</time></trkpt><trkpt lat="38.1440333" lon="15.6662033"><ele>56.0</ele><time>2026-04-21T17:09:29.321Z</time></trkpt><trkpt lat="38.1442367" lon="15.666515"><ele>61.5</ele><time>2026-04-21T17:09:30.321Z</time></trkpt><trkpt lat="38.1444483" lon="15.6668017"><ele>67.0</ele><time>2026-04-21T17:09:31.321Z</time></trkpt><trkpt lat="38.1446833" lon="15.6670617"><ele>77.5</ele><time>2026-04-21T17:09:32.321Z</time></trkpt><trkpt lat="38.144935" lon="15.66729"><ele>88.0</ele><time>2026-04-21T17:09:33.321Z</time></trkpt><trkpt lat="38.1452033" lon="15.6674817"><ele>88.0</ele><time>2026-04-21T17:09:34.321Z</time></trkpt><trkpt lat="38.1454933" lon="15.6676333"><ele>88.0</ele><time>2026-04-21T17:09:35.32Z</time></trkpt><trkpt lat="38.1457767" lon="15.6677667"><ele>101.0</ele><time>2026-04-21T17:09:36.321Z</time></trkpt><trkpt lat="38.14607" lon="15.6678983"><ele>114.0</ele><time>2026-04-21T17:09:37.321Z</time></trkpt><trkpt lat="38.1463683" lon="15.6680417"><ele>111.5</ele><time>2026-04-21T17:09:38.321Z</time></trkpt><trkpt lat="38.146675" lon="15.668185"><ele>109.0</ele><time>2026-04-21T17:09:39.321Z</time></trkpt><trkpt lat="38.1469917" lon="15.668325"><ele>98.0</ele><time>2026-04-21T17:09:40.321Z</time></trkpt><trkpt lat="38.1474583" lon="15.6682333"><ele>98.0</ele><time>2026-04-21T17:09:41.321Z</time></trkpt><trkpt lat="38.147835" lon="15.6682267"><ele>98.0</ele><time>2026-04-21T17:09:42.321Z</time></trkpt><trkpt lat="38.1482567" lon="15.6681917"><ele>94.5</ele><time>2026-04-21T17:09:43.321Z</time></trkpt><trkpt lat="38.14865" lon="15.6681983"><ele>91.0</ele><time>2026-04-21T17:09:44.321Z</time></trkpt><trkpt lat="38.1490283" lon="15.6682383"><ele>88.0</ele><time>2026-04-21T17:09:45.321Z</time></trkpt><trkpt lat="38.14939" lon="15.66828"><ele>85.0</ele><time>2026-04-21T17:09:46.321Z</time></trkpt><trkpt lat="38.1497483" lon="15.66831"><ele>80.0</ele><time>2026-04-21T17:09:47.321Z</time></trkpt><trkpt lat="38.1500833" lon="15.6683483"><ele>75.0</ele><time>2026-04-21T17:09:48.32Z</time></trkpt><trkpt lat="38.1504267" lon="15.6683717"><ele>76.0</ele><time>2026-04-21T17:09:49.321Z</time></trkpt><trkpt lat="38.150755" lon="15.66837"><ele>77.0</ele><time>2026-04-21T17:09:50.321Z</time></trkpt><trkpt lat="38.15108" lon="15.6683667"><ele>77.0</ele><time>2026-04-21T17:09:51.321Z</time></trkpt><trkpt lat="38.15139" lon="15.6683483"><ele>77.0</ele><time>2026-04-21T17:09:52.321Z</time></trkpt><trkpt lat="38.1516917" lon="15.6683133"><ele>77.0</ele><time>2026-04-21T17:09:53.321Z</time></trkpt><trkpt lat="38.151985" lon="15.668255"><ele>77.0</ele><time>2026-04-21T17:09:54.321Z</time></trkpt><trkpt lat="38.1522767" lon="15.6681967"><ele>77.5</ele><time>2026-04-21T17:09:55.321Z</time></trkpt><trkpt lat="38.1525667" lon="15.66813"><ele>78.0</ele><time>2026-04-21T17:09:56.321Z</time></trkpt><trkpt lat="38.1528517" lon="15.6680483"><ele>78.0</ele><time>2026-04-21T17:09:57.321Z</time></trkpt><trkpt lat="38.1531367" lon="15.6679633"><ele>78.0</ele><time>2026-04-21T17:09:58.321Z</time></trkpt><trkpt lat="38.1534267" lon="15.6678633"><ele>71.0</ele><time>2026-04-21T17:09:59.321Z</time></trkpt><trkpt lat="38.1537183" lon="15.667755"><ele>64.0</ele><time>2026-04-21T17:10:00.321Z</time></trkpt><trkpt lat="38.15402" lon="15.6676417"><ele>63.5</ele><time>2026-04-21T17:10:01.321Z</time></trkpt><trkpt lat="38.154335" lon="15.667535"><ele>63.0</ele><time>2026-04-21T17:10:02.321Z</time></trkpt><trkpt lat="38.1546633" lon="15.667435"><ele>64.0</ele><time>2026-04-21T17:10:03.321Z</time></trkpt><trkpt lat="38.1549933" lon="15.6673217"><ele>65.0</ele><time>2026-04-21T17:10:04.321Z</time></trkpt><trkpt lat="38.1553367" lon="15.6672017"><ele>65.0</ele><time>2026-04-21T17:10:05.321Z</time></trkpt><trkpt lat="38.1556917" lon="15.6670883"><ele>65.0</ele><time>2026-04-21T17:10:06.321Z</time></trkpt><trkpt lat="38.1560583" lon="15.6669717"><ele>61.5</ele><time>2026-04-21T17:10:07.321Z</time></trkpt><trkpt lat="38.1564233" lon="15.6668567"><ele>58.0</ele><time>2026-04-21T17:10:08.321Z</time></trkpt><trkpt lat="38.15677" lon="15.6667417"><ele>58.0</ele><time>2026-04-21T17:10:09.321Z</time></trkpt><trkpt lat="38.157105" lon="15.6666233"><ele>58.0</ele><time>2026-04-21T17:10:10.321Z</time></trkpt><trkpt lat="38.15744" lon="15.66648"><ele>58.5</ele><time>2026-04-21T17:10:11.321Z</time></trkpt><trkpt lat="38.1577733" lon="15.6663017"><ele>59.0</ele><time>2026-04-21T17:10:12.321Z</time></trkpt><trkpt lat="38.1581" lon="15.6661067"><ele>57.0</ele><time>2026-04-21T17:10:13.321Z</time></trkpt><trkpt lat="38.1584117" lon="15.66589"><ele>55.0</ele><time>2026-04-21T17:10:14.321Z</time></trkpt><trkpt lat="38.1587017" lon="15.66566"><ele>55.0</ele><time>2026-04-21T17:10:15.321Z</time></trkpt><trkpt lat="38.15898" lon="15.6654167"><ele>55.0</ele><time>2026-04-21T17:10:16.321Z</time></trkpt><trkpt lat="38.1592483" lon="15.665165"><ele>53.5</ele><time>2026-04-21T17:10:17.321Z</time></trkpt><trkpt lat="38.1595067" lon="15.664915"><ele>52.0</ele><time>2026-04-21T17:10:18.321Z</time></trkpt><trkpt lat="38.15975" lon="15.6646733"><ele>53.0</ele><time>2026-04-21T17:10:19.321Z</time></trkpt><trkpt lat="38.1599867" lon="15.6644433"><ele>54.0</ele><time>2026-04-21T17:10:20.32Z</time></trkpt><trkpt lat="38.1602383" lon="15.6642117"><ele>54.0</ele><time>2026-04-21T17:10:21.32Z</time></trkpt><trkpt lat="38.1605033" lon="15.6640133"><ele>54.0</ele><time>2026-04-21T17:10:22.321Z</time></trkpt><trkpt lat="38.160715" lon="15.66378"><ele>52.5</ele><time>2026-04-21T17:10:23.321Z</time></trkpt><trkpt lat="38.160945" lon="15.6635367"><ele>51.0</ele><time>2026-04-21T17:10:24.321Z</time></trkpt><trkpt lat="38.1611967" lon="15.6632817"><ele>51.0</ele><time>2026-04-21T17:10:25.321Z</time></trkpt><trkpt lat="38.161465" lon="15.663025"><ele>51.0</ele><time>2026-04-21T17:10:26.321Z</time></trkpt><trkpt lat="38.1617417" lon="15.66276"><ele>49.5</ele><time>2026-04-21T17:10:27.321Z</time></trkpt><trkpt lat="38.16203" lon="15.6624867"><ele>48.0</ele><time>2026-04-21T17:10:28.321Z</time></trkpt><trkpt lat="38.1623133" lon="15.6622083"><ele>45.5</ele><time>2026-04-21T17:10:29.321Z</time></trkpt><trkpt lat="38.16259" lon="15.6619417"><ele>43.0</ele><time>2026-04-21T17:10:30.321Z</time></trkpt><trkpt lat="38.1628583" lon="15.6616917"><ele>43.0</ele><time>2026-04-21T17:10:31.321Z</time></trkpt><trkpt lat="38.1631067" lon="15.6614583"><ele>43.0</ele><time>2026-04-21T17:10:32.321Z</time></trkpt><trkpt lat="38.16334" lon="15.6612133"><ele>40.5</ele><time>2026-04-21T17:10:33.321Z</time></trkpt><trkpt lat="38.1635667" lon="15.6609933"><ele>38.0</ele><time>2026-04-21T17:10:34.321Z</time></trkpt><trkpt lat="38.16379" lon="15.6607867"><ele>38.0</ele><time>2026-04-21T17:10:35.321Z</time></trkpt><trkpt lat="38.1640167" lon="15.660575"><ele>38.0</ele><time>2026-04-21T17:10:36.321Z</time></trkpt><trkpt lat="38.1642417" lon="15.660355"><ele>34.5</ele><time>2026-04-21T17:10:37.321Z</time></trkpt><trkpt lat="38.1644617" lon="15.660145"><ele>31.0</ele><time>2026-04-21T17:10:38.321Z</time></trkpt><trkpt lat="38.164685" lon="15.65995"><ele>32.0</ele><time>2026-04-21T17:10:39.321Z</time></trkpt><trkpt lat="38.1649083" lon="15.659745"><ele>33.0</ele><time>2026-04-21T17:10:40.321Z</time></trkpt><trkpt lat="38.1651317" lon="15.6595283"><ele>31.0</ele><time>2026-04-21T17:10:41.321Z</time></trkpt><trkpt lat="38.1653617" lon="15.6593083"><ele>29.0</ele><time>2026-04-21T17:10:42.321Z</time></trkpt><trkpt lat="38.1655917" lon="15.6590867"><ele>30.5</ele><time>2026-04-21T17:10:43.32Z</time></trkpt><trkpt lat="38.1658233" lon="15.6588667"><ele>32.0</ele><time>2026-04-21T17:10:44.321Z</time></trkpt><trkpt lat="38.1660517" lon="15.6586417"><ele>30.5</ele><time>2026-04-21T17:10:45.321Z</time></trkpt><trkpt lat="38.1662733" lon="15.6584267"><ele>29.0</ele><time>2026-04-21T17:10:46.321Z</time></trkpt><trkpt lat="38.1664883" lon="15.6582117"><ele>28.5</ele><time>2026-04-21T17:10:47.321Z</time></trkpt><trkpt lat="38.1667083" lon="15.6580033"><ele>28.0</ele><time>2026-04-21T17:10:48.321Z</time></trkpt><trkpt lat="38.166945" lon="15.6577633"><ele>28.0</ele><time>2026-04-21T17:10:49.321Z</time></trkpt><trkpt lat="38.1672017" lon="15.6575217"><ele>28.0</ele><time>2026-04-21T17:10:50.321Z</time></trkpt><trkpt lat="38.167465" lon="15.6572817"><ele>28.0</ele><time>2026-04-21T17:10:51.32Z</time></trkpt><trkpt lat="38.16775" lon="15.65705"><ele>28.0</ele><time>2026-04-21T17:10:52.321Z</time></trkpt><trkpt lat="38.168045" lon="15.65682"><ele>30.0</ele><time>2026-04-21T17:10:53.321Z</time></trkpt><trkpt lat="38.1683417" lon="15.65662"><ele>32.0</ele><time>2026-04-21T17:10:54.321Z</time></trkpt><trkpt lat="38.1686333" lon="15.6564267"><ele>32.0</ele><time>2026-04-21T17:10:55.321Z</time></trkpt><trkpt lat="38.16892" lon="15.6562417"><ele>32.0</ele><time>2026-04-21T17:10:56.321Z</time></trkpt><trkpt lat="38.169205" lon="15.6560733"><ele>31.5</ele><time>2026-04-21T17:10:57.321Z</time></trkpt><trkpt lat="38.1694833" lon="15.6559217"><ele>31.0</ele><time>2026-04-21T17:10:58.321Z</time></trkpt><trkpt lat="38.169745" lon="15.65577"><ele>33.0</ele><time>2026-04-21T17:10:59.321Z</time></trkpt><trkpt lat="38.1700167" lon="15.6556233"><ele>35.0</ele><time>2026-04-21T17:11:00.321Z</time></trkpt><trkpt lat="38.170295" lon="15.655475"><ele>35.0</ele><time>2026-04-21T17:11:01.32Z</time></trkpt><trkpt lat="38.1705867" lon="15.655325"><ele>35.0</ele><time>2026-04-21T17:11:02.32Z</time></trkpt><trkpt lat="38.1708917" lon="15.6551833"><ele>33.5</ele><time>2026-04-21T17:11:03.321Z</time></trkpt><trkpt lat="38.17121" lon="15.6550517"><ele>32.0</ele><time>2026-04-21T17:11:04.32Z</time></trkpt><trkpt lat="38.1715167" lon="15.6549367"><ele>33.0</ele><time>2026-04-21T17:11:05.32Z</time></trkpt><trkpt lat="38.1717717" lon="15.6548383"><ele>34.0</ele><time>2026-04-21T17:11:06.321Z</time></trkpt><trkpt lat="38.171995" lon="15.6547483"><ele>34.0</ele><time>2026-04-21T17:11:07.321Z</time></trkpt><trkpt lat="38.1721817" lon="15.6546783"><ele>34.0</ele><time>2026-04-21T17:11:08.321Z</time></trkpt><trkpt lat="38.1723283" lon="15.6546367"><ele>34.0</ele><time>2026-04-21T17:11:09.321Z</time></trkpt><trkpt lat="38.1724583" lon="15.6546167"><ele>34.2</ele><time>2026-04-21T17:11:10.32Z</time></trkpt><trkpt lat="38.17256" lon="15.6546317"><ele>34.4</ele><time>2026-04-21T17:11:11.321Z</time></trkpt><trkpt lat="38.1726483" lon="15.6546883"><ele>34.6</ele><time>2026-04-21T17:11:12.32Z</time></trkpt><trkpt lat="38.17271" lon="15.6547833"><ele>34.8</ele><time>2026-04-21T17:11:13.321Z</time></trkpt><trkpt lat="38.17276" lon="15.6548917"><ele>35.0</ele><time>2026-04-21T17:11:14.321Z</time></trkpt><trkpt lat="38.1728017" lon="15.655"><ele>35.0</ele><time>2026-04-21T17:11:15.321Z</time></trkpt><trkpt lat="38.172855" lon="15.6550867"><ele>35.0</ele><time>2026-04-21T17:11:16.321Z</time></trkpt><trkpt lat="38.172925" lon="15.655155"><ele>35.0</ele><time>2026-04-21T17:11:17.321Z</time></trkpt><trkpt lat="38.173015" lon="15.6552"><ele>35.0</ele><time>2026-04-21T17:11:18.321Z</time></trkpt><trkpt lat="38.1731217" lon="15.655215"><ele>35.0</ele><time>2026-04-21T17:11:19.321Z</time></trkpt><trkpt lat="38.173235" lon="15.6551917"><ele>34.75</ele><time>2026-04-21T17:11:20.32Z</time></trkpt><trkpt lat="38.1733433" lon="15.6551333"><ele>34.5</ele><time>2026-04-21T17:11:21.321Z</time></trkpt><trkpt lat="38.173465" lon="15.6550633"><ele>34.25</ele><time>2026-04-21T17:11:22.321Z</time></trkpt><trkpt lat="38.1736017" lon="15.6549667"><ele>34.0</ele><time>2026-04-21T17:11:23.321Z</time></trkpt><trkpt lat="38.173755" lon="15.65487"><ele>34.0</ele><time>2026-04-21T17:11:24.321Z</time></trkpt><trkpt lat="38.17391" lon="15.6547983"><ele>34.0</ele><time>2026-04-21T17:11:25.321Z</time></trkpt><trkpt lat="38.1740333" lon="15.6547067"><ele>34.0</ele><time>2026-04-21T17:11:26.321Z</time></trkpt><trkpt lat="38.1741333" lon="15.65461"><ele>34.0</ele><time>2026-04-21T17:11:27.32Z</time></trkpt><trkpt lat="38.1742117" lon="15.654495"><ele>35.0</ele><time>2026-04-21T17:11:28.321Z</time></trkpt><trkpt lat="38.174275" lon="15.6543667"><ele>36.0</ele><time>2026-04-21T17:11:29.321Z</time></trkpt><trkpt lat="38.1743183" lon="15.6542233"><ele>37.0</ele><time>2026-04-21T17:11:30.321Z</time></trkpt><trkpt lat="38.1743367" lon="15.65406"><ele>38.0</ele><time>2026-04-21T17:11:31.321Z</time></trkpt><trkpt lat="38.1743483" lon="15.6538983"><ele>38.0</ele><time>2026-04-21T17:11:32.321Z</time></trkpt><trkpt lat="38.17434" lon="15.6537483"><ele>38.0</ele><time>2026-04-21T17:11:33.321Z</time></trkpt><trkpt lat="38.1743183" lon="15.6535933"><ele>38.0</ele><time>2026-04-21T17:11:34.32Z</time></trkpt><trkpt lat="38.174275" lon="15.6534667"><ele>38.0</ele><time>2026-04-21T17:11:35.321Z</time></trkpt><trkpt lat="38.1742267" lon="15.6533483"><ele>37.25</ele><time>2026-04-21T17:11:36.32Z</time></trkpt><trkpt lat="38.1741383" lon="15.6532383"><ele>36.5</ele><time>2026-04-21T17:11:37.321Z</time></trkpt><trkpt lat="38.1740383" lon="15.6531433"><ele>35.75</ele><time>2026-04-21T17:11:38.321Z</time></trkpt><trkpt lat="38.1739267" lon="15.6530817"><ele>35.0</ele><time>2026-04-21T17:11:39.321Z</time></trkpt><trkpt lat="38.1738067" lon="15.6530483"><ele>33.666666666666664</ele><time>2026-04-21T17:11:40.321Z</time></trkpt><trkpt lat="38.173675" lon="15.65303"><ele>32.333333333333336</ele><time>2026-04-21T17:11:41.321Z</time></trkpt><trkpt lat="38.173505" lon="15.6530483"><ele>31.0</ele><time>2026-04-21T17:11:42.321Z</time></trkpt><trkpt lat="38.1732883" lon="15.6531033"><ele>31.0</ele><time>2026-04-21T17:11:43.321Z</time></trkpt><trkpt lat="38.1730533" lon="15.6531733"><ele>31.0</ele><time>2026-04-21T17:11:44.321Z</time></trkpt><trkpt lat="38.172825" lon="15.6532517"><ele>31.0</ele><time>2026-04-21T17:11:45.321Z</time></trkpt><trkpt lat="38.17261" lon="15.6533083"><ele>31.0</ele><time>2026-04-21T17:11:46.321Z</time></trkpt><trkpt lat="38.1724367" lon="15.6533283"><ele>31.0</ele><time>2026-04-21T17:11:47.321Z</time></trkpt><trkpt lat="38.172275" lon="15.6533017"><ele>30.5</ele><time>2026-04-21T17:11:48.321Z</time></trkpt><trkpt lat="38.1721267" lon="15.65324"><ele>30.0</ele><time>2026-04-21T17:11:49.321Z</time></trkpt><trkpt lat="38.1720017" lon="15.653155"><ele>29.5</ele><time>2026-04-21T17:11:50.321Z</time></trkpt><trkpt lat="38.171905" lon="15.6530533"><ele>29.0</ele><time>2026-04-21T17:11:51.321Z</time></trkpt><trkpt lat="38.1718283" lon="15.6529167"><ele>28.666666666666664</ele><time>2026-04-21T17:11:52.321Z</time></trkpt><trkpt lat="38.1717633" lon="15.65274"><ele>28.333333333333336</ele><time>2026-04-21T17:11:53.321Z</time></trkpt><trkpt lat="38.17171" lon="15.652545"><ele>28.0</ele><time>2026-04-21T17:11:54.321Z</time></trkpt><trkpt lat="38.171645" lon="15.6523817"><ele>28.0</ele><time>2026-04-21T17:11:55.32Z</time></trkpt><trkpt lat="38.1715767" lon="15.6522383"><ele>28.0</ele><time>2026-04-21T17:11:56.321Z</time></trkpt><trkpt lat="38.1715" lon="15.652105"><ele>28.0</ele><time>2026-04-21T17:11:57.321Z</time></trkpt><trkpt lat="38.1714217" lon="15.6519767"><ele>28.0</ele><time>2026-04-21T17:11:58.321Z</time></trkpt><trkpt lat="38.1713417" lon="15.6518617"><ele>27.4</ele><time>2026-04-21T17:11:59.321Z</time></trkpt><trkpt lat="38.17127" lon="15.651755"><ele>26.799999999999997</ele><time>2026-04-21T17:12:00.321Z</time></trkpt><trkpt lat="38.1712117" lon="15.6516667"><ele>26.2</ele><time>2026-04-21T17:12:01.321Z</time></trkpt><trkpt lat="38.17115" lon="15.6515767"><ele>25.6</ele><time>2026-04-21T17:12:02.321Z</time></trkpt><trkpt lat="38.171075" lon="15.6514783"><ele>25.0</ele><time>2026-04-21T17:12:03.321Z</time></trkpt><trkpt lat="38.1709883" lon="15.6513733"><ele>25.0</ele><time>2026-04-21T17:12:04.321Z</time></trkpt><trkpt lat="38.1709" lon="15.6512883"><ele>25.0</ele><time>2026-04-21T17:12:05.321Z</time></trkpt><trkpt lat="38.1708167" lon="15.6512383"><ele>25.0</ele><time>2026-04-21T17:12:06.321Z</time></trkpt><trkpt lat="38.1707383" lon="15.651225"><ele>25.0</ele><time>2026-04-21T17:12:07.321Z</time></trkpt><trkpt lat="38.1706483" lon="15.6512517"><ele>25.0</ele><time>2026-04-21T17:12:08.321Z</time></trkpt><trkpt lat="38.1705567" lon="15.6513367"><ele>24.6</ele><time>2026-04-21T17:12:09.321Z</time></trkpt><trkpt lat="38.1704883" lon="15.6514583"><ele>24.2</ele><time>2026-04-21T17:12:10.32Z</time></trkpt><trkpt lat="38.1704633" lon="15.6515817"><ele>23.799999999999997</ele><time>2026-04-21T17:12:11.321Z</time></trkpt><trkpt lat="38.1704583" lon="15.6516833"><ele>23.4</ele><time>2026-04-21T17:12:12.321Z</time></trkpt><trkpt lat="38.1704867" lon="15.6517933"><ele>23.0</ele><time>2026-04-21T17:12:13.32Z</time></trkpt><trkpt lat="38.1705383" lon="15.65192"><ele>23.666666666666668</ele><time>2026-04-21T17:12:14.321Z</time></trkpt><trkpt lat="38.1706033" lon="15.6520833"><ele>24.333333333333336</ele><time>2026-04-21T17:12:15.321Z</time></trkpt><trkpt lat="38.1706483" lon="15.65228"><ele>25.0</ele><time>2026-04-21T17:12:16.32Z</time></trkpt><trkpt lat="38.1706617" lon="15.6524783"><ele>25.0</ele><time>2026-04-21T17:12:17.321Z</time></trkpt><trkpt lat="38.1706783" lon="15.6526833"><ele>25.0</ele><time>2026-04-21T17:12:18.321Z</time></trkpt><trkpt lat="38.1707067" lon="15.6529133"><ele>25.0</ele><time>2026-04-21T17:12:19.321Z</time></trkpt><trkpt lat="38.17075" lon="15.6531633"><ele>26.0</ele><time>2026-04-21T17:12:20.321Z</time></trkpt><trkpt lat="38.1707933" lon="15.6534233"><ele>27.0</ele><time>2026-04-21T17:12:21.321Z</time></trkpt><trkpt lat="38.17084" lon="15.6536967"><ele>28.0</ele><time>2026-04-21T17:12:22.32Z</time></trkpt><trkpt lat="38.1708917" lon="15.65396"><ele>28.333333333333336</ele><time>2026-04-21T17:12:23.321Z</time></trkpt><trkpt lat="38.1709467" lon="15.6541917"><ele>28.666666666666664</ele><time>2026-04-21T17:12:24.321Z</time></trkpt><trkpt lat="38.1709867" lon="15.6543767"><ele>29.0</ele><time>2026-04-21T17:12:25.32Z</time></trkpt><trkpt lat="38.1710083" lon="15.654535"><ele>29.6</ele><time>2026-04-21T17:12:26.321Z</time></trkpt><trkpt lat="38.171005" lon="15.6546633"><ele>30.2</ele><time>2026-04-21T17:12:27.321Z</time></trkpt><trkpt lat="38.1709683" lon="15.6547617"><ele>30.800000000000004</ele><time>2026-04-21T17:12:28.321Z</time></trkpt><trkpt lat="38.170895" lon="15.6548217"><ele>31.400000000000002</ele><time>2026-04-21T17:12:29.321Z</time></trkpt><trkpt lat="38.1707883" lon="15.6548617"><ele>32.0</ele><time>2026-04-21T17:12:30.321Z</time></trkpt><trkpt lat="38.1706733" lon="15.654895"><ele>32.0</ele><time>2026-04-21T17:12:31.321Z</time></trkpt><trkpt lat="38.17055" lon="15.654905"><ele>32.0</ele><time>2026-04-21T17:12:32.321Z</time></trkpt><trkpt lat="38.1704133" lon="15.654895"><ele>32.0</ele><time>2026-04-21T17:12:33.321Z</time></trkpt><trkpt lat="38.170295" lon="15.6548983"><ele>32.0</ele><time>2026-04-21T17:12:34.321Z</time></trkpt><trkpt lat="38.1701533" lon="15.654945"><ele>32.0</ele><time>2026-04-21T17:12:35.321Z</time></trkpt><trkpt lat="38.170005" lon="15.6549883"><ele>32.0</ele><time>2026-04-21T17:12:36.321Z</time></trkpt><trkpt lat="38.1698517" lon="15.655035"><ele>32.0</ele><time>2026-04-21T17:12:37.32Z</time></trkpt><trkpt lat="38.16973" lon="15.6550867"><ele>32.0</ele><time>2026-04-21T17:12:38.321Z</time></trkpt><trkpt lat="38.169635" lon="15.65513"><ele>31.8</ele><time>2026-04-21T17:12:39.321Z</time></trkpt><trkpt lat="38.1695617" lon="15.6551717"><ele>31.6</ele><time>2026-04-21T17:12:40.321Z</time></trkpt><trkpt lat="38.1694867" lon="15.6552433"><ele>31.400000000000002</ele><time>2026-04-21T17:12:42.321Z</time></trkpt><trkpt lat="38.16951" lon="15.655395"><ele>31.200000000000003</ele><time>2026-04-21T17:12:45.321Z</time></trkpt><trkpt lat="38.1695433" lon="15.6555183"><ele>31.0</ele><time>2026-04-21T17:12:46.321Z</time></trkpt><trkpt lat="38.1695967" lon="15.655655"><ele>31.0</ele><time>2026-04-21T17:12:47.321Z</time></trkpt><trkpt lat="38.1696567" lon="15.6558017"><ele>31.0</ele><time>2026-04-21T17:12:48.32Z</time></trkpt><trkpt lat="38.1697333" lon="15.6559883"><ele>31.0</ele><time>2026-04-21T17:12:49.321Z</time></trkpt><trkpt lat="38.1698083" lon="15.6562083"><ele>33.0</ele><time>2026-04-21T17:12:50.321Z</time></trkpt><trkpt lat="38.169875" lon="15.656445"><ele>35.0</ele><time>2026-04-21T17:12:51.321Z</time></trkpt><trkpt lat="38.16996" lon="15.6566583"><ele>37.0</ele><time>2026-04-21T17:12:52.321Z</time></trkpt><trkpt lat="38.1700333" lon="15.656855"><ele>37.5</ele><time>2026-04-21T17:12:53.32Z</time></trkpt><trkpt lat="38.170095" lon="15.6570117"><ele>38.0</ele><time>2026-04-21T17:12:54.321Z</time></trkpt><trkpt lat="38.1701217" lon="15.657165"><ele>38.5</ele><time>2026-04-21T17:12:55.321Z</time></trkpt><trkpt lat="38.1701133" lon="15.6573367"><ele>39.0</ele><time>2026-04-21T17:12:56.321Z</time></trkpt><trkpt lat="38.170095" lon="15.6575217"><ele>39.0</ele><time>2026-04-21T17:12:57.321Z</time></trkpt><trkpt lat="38.17008" lon="15.6577267"><ele>39.0</ele><time>2026-04-21T17:12:58.321Z</time></trkpt><trkpt lat="38.1700767" lon="15.6579183"><ele>39.0</ele><time>2026-04-21T17:12:59.321Z</time></trkpt><trkpt lat="38.17009" lon="15.6580933"><ele>39.25</ele><time>2026-04-21T17:13:00.321Z</time></trkpt><trkpt lat="38.170125" lon="15.658245"><ele>39.5</ele><time>2026-04-21T17:13:01.321Z</time></trkpt><trkpt lat="38.1702017" lon="15.658405"><ele>39.75</ele><time>2026-04-21T17:13:02.321Z</time></trkpt><trkpt lat="38.1703017" lon="15.658565"><ele>40.0</ele><time>2026-04-21T17:13:03.321Z</time></trkpt><trkpt lat="38.1704033" lon="15.658725"><ele>41.0</ele><time>2026-04-21T17:13:04.321Z</time></trkpt><trkpt lat="38.17049" lon="15.6588767"><ele>42.0</ele><time>2026-04-21T17:13:05.32Z</time></trkpt><trkpt lat="38.1705667" lon="15.6590217"><ele>43.0</ele><time>2026-04-21T17:13:06.321Z</time></trkpt><trkpt lat="38.17063" lon="15.6591783"><ele>44.0</ele><time>2026-04-21T17:13:07.321Z</time></trkpt><trkpt lat="38.1707017" lon="15.6593283"><ele>46.0</ele><time>2026-04-21T17:13:08.321Z</time></trkpt><trkpt lat="38.1707717" lon="15.6594917"><ele>48.0</ele><time>2026-04-21T17:13:09.321Z</time></trkpt><trkpt lat="38.1708383" lon="15.659665"><ele>50.0</ele><time>2026-04-21T17:13:10.321Z</time></trkpt><trkpt lat="38.1708967" lon="15.6598383"><ele>52.0</ele><time>2026-04-21T17:13:11.321Z</time></trkpt><trkpt lat="38.1709517" lon="15.6600083"><ele>52.0</ele><time>2026-04-21T17:13:12.321Z</time></trkpt><trkpt lat="38.171015" lon="15.66019"><ele>52.0</ele><time>2026-04-21T17:13:13.321Z</time></trkpt><trkpt lat="38.1710733" lon="15.66039"><ele>52.0</ele><time>2026-04-21T17:13:14.321Z</time></trkpt><trkpt lat="38.1711433" lon="15.6605833"><ele>53.33333333333333</ele><time>2026-04-21T17:13:15.321Z</time></trkpt><trkpt lat="38.1711883" lon="15.6607817"><ele>54.66666666666667</ele><time>2026-04-21T17:13:16.32Z</time></trkpt><trkpt lat="38.1712383" lon="15.66097"><ele>56.0</ele><time>2026-04-21T17:13:17.321Z</time></trkpt><trkpt lat="38.171285" lon="15.6611483"><ele>56.0</ele><time>2026-04-21T17:13:18.321Z</time></trkpt><trkpt lat="38.1713317" lon="15.6613117"><ele>56.0</ele><time>2026-04-21T17:13:19.321Z</time></trkpt><trkpt lat="38.1713567" lon="15.661475"><ele>56.0</ele><time>2026-04-21T17:13:20.321Z</time></trkpt><trkpt lat="38.1713683" lon="15.6616217"><ele>56.0</ele><time>2026-04-21T17:13:21.321Z</time></trkpt><trkpt lat="38.17138" lon="15.6617783"><ele>56.0</ele><time>2026-04-21T17:13:22.321Z</time></trkpt><trkpt lat="38.1713867" lon="15.66194"><ele>56.0</ele><time>2026-04-21T17:13:23.321Z</time></trkpt><trkpt lat="38.17139" lon="15.6621017"><ele>56.0</ele><time>2026-04-21T17:13:24.32Z</time></trkpt><trkpt lat="38.1713917" lon="15.662265"><ele>56.0</ele><time>2026-04-21T17:13:25.32Z</time></trkpt><trkpt lat="38.1714017" lon="15.6624217"><ele>56.599999999999994</ele><time>2026-04-21T17:13:26.321Z</time></trkpt><trkpt lat="38.1714217" lon="15.6625883"><ele>57.199999999999996</ele><time>2026-04-21T17:13:27.321Z</time></trkpt><trkpt lat="38.17145" lon="15.6627317"><ele>57.800000000000004</ele><time>2026-04-21T17:13:28.321Z</time></trkpt><trkpt lat="38.171465" lon="15.6628517"><ele>58.400000000000006</ele><time>2026-04-21T17:13:29.321Z</time></trkpt><trkpt lat="38.1714867" lon="15.6629717"><ele>59.0</ele><time>2026-04-21T17:13:30.321Z</time></trkpt><trkpt lat="38.171505" lon="15.6630917"><ele>60.2</ele><time>2026-04-21T17:13:31.321Z</time></trkpt><trkpt lat="38.1715283" lon="15.6631983"><ele>61.400000000000006</ele><time>2026-04-21T17:13:32.321Z</time></trkpt><trkpt lat="38.1715867" lon="15.663295"><ele>62.6</ele><time>2026-04-21T17:13:33.321Z</time></trkpt><trkpt lat="38.17165" lon="15.6634033"><ele>63.8</ele><time>2026-04-21T17:13:34.321Z</time></trkpt><trkpt lat="38.171715" lon="15.663525"><ele>65.0</ele><time>2026-04-21T17:13:35.321Z</time></trkpt><trkpt lat="38.1717883" lon="15.66366"><ele>65.75</ele><time>2026-04-21T17:13:36.321Z</time></trkpt><trkpt lat="38.1718833" lon="15.6637983"><ele>66.5</ele><time>2026-04-21T17:13:37.321Z</time></trkpt><trkpt lat="38.1719817" lon="15.66393"><ele>67.25</ele><time>2026-04-21T17:13:38.321Z</time></trkpt><trkpt lat="38.1720717" lon="15.6640333"><ele>68.0</ele><time>2026-04-21T17:13:39.321Z</time></trkpt><trkpt lat="38.172145" lon="15.6641067"><ele>68.0</ele><time>2026-04-21T17:13:40.321Z</time></trkpt><trkpt lat="38.1722083" lon="15.6641767"><ele>68.0</ele><time>2026-04-21T17:13:41.321Z</time></trkpt><trkpt lat="38.1722683" lon="15.66424"><ele>68.0</ele><time>2026-04-21T17:13:42.321Z</time></trkpt><trkpt lat="38.172325" lon="15.6642967"><ele>68.0</ele><time>2026-04-21T17:13:43.321Z</time></trkpt><trkpt lat="38.1723883" lon="15.6643783"><ele>68.0</ele><time>2026-04-21T17:13:45.321Z</time></trkpt><trkpt lat="38.17234" lon="15.66446"><ele>68.0</ele><time>2026-04-21T17:13:47.321Z</time></trkpt><trkpt lat="38.17229" lon="15.66452"><ele>68.5</ele><time>2026-04-21T17:13:49.32Z</time></trkpt><trkpt lat="38.1722917" lon="15.664615"><ele>69.0</ele><time>2026-04-21T17:16:50.321Z</time></trkpt><trkpt lat="38.1723917" lon="15.6647583"><ele>69.5</ele><time>2026-04-21T17:16:52.321Z</time></trkpt><trkpt lat="38.17251" lon="15.6648733"><ele>70.0</ele><time>2026-04-21T17:16:53.321Z</time></trkpt><trkpt lat="38.1727017" lon="15.66503"><ele>70.33333333333333</ele><time>2026-04-21T17:16:54.321Z</time></trkpt><trkpt lat="38.1728767" lon="15.6651933"><ele>70.66666666666667</ele><time>2026-04-21T17:16:55.321Z</time></trkpt><trkpt lat="38.173005" lon="15.6653267"><ele>71.0</ele><time>2026-04-21T17:16:56.32Z</time></trkpt><trkpt lat="38.1730867" lon="15.665415"><ele>71.8</ele><time>2026-04-21T17:16:57.321Z</time></trkpt><trkpt lat="38.17314" lon="15.6654733"><ele>72.6</ele><time>2026-04-21T17:16:58.321Z</time></trkpt><trkpt lat="38.1731517" lon="15.66563"><ele>73.4</ele><time>2026-04-21T17:17:00.321Z</time></trkpt><trkpt lat="38.17309" lon="15.6657283"><ele>74.2</ele><time>2026-04-21T17:17:01.321Z</time></trkpt><trkpt lat="38.1729967" lon="15.6658467"><ele>75.0</ele><time>2026-04-21T17:17:02.321Z</time></trkpt><trkpt lat="38.172895" lon="15.6660083"><ele>76.0</ele><time>2026-04-21T17:17:03.321Z</time></trkpt><trkpt lat="38.1728333" lon="15.666195"><ele>77.0</ele><time>2026-04-21T17:17:04.321Z</time></trkpt><trkpt lat="38.1728033" lon="15.666445"><ele>78.0</ele><time>2026-04-21T17:17:05.321Z</time></trkpt><trkpt lat="38.1727917" lon="15.6667"><ele>78.66666666666667</ele><time>2026-04-21T17:17:06.321Z</time></trkpt><trkpt lat="38.1727867" lon="15.6669717"><ele>79.33333333333334</ele><time>2026-04-21T17:17:07.321Z</time></trkpt><trkpt lat="38.172785" lon="15.667195"><ele>80.0</ele><time>2026-04-21T17:17:08.321Z</time></trkpt><trkpt lat="38.1727817" lon="15.6673783"><ele>80.0</ele><time>2026-04-21T17:17:09.321Z</time></trkpt><trkpt lat="38.172775" lon="15.6675133"><ele>80.0</ele><time>2026-04-21T17:17:10.321Z</time></trkpt><trkpt lat="38.1727933" lon="15.6675933"><ele>80.0</ele><time>2026-04-21T17:17:11.321Z</time></trkpt><trkpt lat="38.17284" lon="15.66766"><ele>80.0</ele><time>2026-04-21T17:17:12.321Z</time></trkpt><trkpt lat="38.1729067" lon="15.6677"><ele>80.0</ele><time>2026-04-21T17:17:13.321Z</time></trkpt><trkpt lat="38.1730117" lon="15.6677267"><ele>80.0</ele><time>2026-04-21T17:17:14.321Z</time></trkpt><trkpt lat="38.1731533" lon="15.667735"><ele>80.66666666666667</ele><time>2026-04-21T17:17:15.321Z</time></trkpt><trkpt lat="38.1733033" lon="15.66775"><ele>81.33333333333333</ele><time>2026-04-21T17:17:16.321Z</time></trkpt><trkpt lat="38.17345" lon="15.6677883"><ele>82.0</ele><time>2026-04-21T17:17:17.321Z</time></trkpt><trkpt lat="38.1735983" lon="15.667835"><ele>82.8</ele><time>2026-04-21T17:17:18.321Z</time></trkpt><trkpt lat="38.17373" lon="15.667885"><ele>83.6</ele><time>2026-04-21T17:17:19.321Z</time></trkpt><trkpt lat="38.1738217" lon="15.6679267"><ele>84.39999999999999</ele><time>2026-04-21T17:17:20.321Z</time></trkpt><trkpt lat="38.1738767" lon="15.6679667"><ele>85.19999999999999</ele><time>2026-04-21T17:17:21.321Z</time></trkpt><trkpt lat="38.1739117" lon="15.66808"><ele>86.0</ele><time>2026-04-21T17:17:23.32Z</time></trkpt><trkpt lat="38.1738983" lon="15.6681683"><ele>86.0</ele><time>2026-04-21T17:17:24.321Z</time></trkpt><trkpt lat="38.1738833" lon="15.6682633"><ele>86.0</ele><time>2026-04-21T17:17:25.321Z</time></trkpt><trkpt lat="38.1738783" lon="15.6683683"><ele>86.0</ele><time>2026-04-21T17:17:26.321Z</time></trkpt><trkpt lat="38.17386" lon="15.6684867"><ele>86.0</ele><time>2026-04-21T17:17:27.321Z</time></trkpt><trkpt lat="38.1738417" lon="15.6685917"><ele>86.0</ele><time>2026-04-21T17:17:28.32Z</time></trkpt><trkpt lat="38.1738217" lon="15.668705"><ele>86.0</ele><time>2026-04-21T17:17:29.321Z</time></trkpt><trkpt lat="38.1738017" lon="15.6688133"><ele>86.83333333333334</ele><time>2026-04-21T17:17:30.321Z</time></trkpt><trkpt lat="38.17379" lon="15.66894"><ele>87.66666666666667</ele><time>2026-04-21T17:17:31.321Z</time></trkpt><trkpt lat="38.1737667" lon="15.6690617"><ele>88.5</ele><time>2026-04-21T17:17:32.32Z</time></trkpt><trkpt lat="38.1737683" lon="15.6691733"><ele>89.33333333333333</ele><time>2026-04-21T17:17:33.321Z</time></trkpt><trkpt lat="38.1737967" lon="15.6692667"><ele>90.16666666666666</ele><time>2026-04-21T17:17:34.321Z</time></trkpt><trkpt lat="38.1738533" lon="15.6693283"><ele>91.0</ele><time>2026-04-21T17:17:35.321Z</time></trkpt><trkpt lat="38.1739233" lon="15.6693833"><ele>91.0</ele><time>2026-04-21T17:17:36.321Z</time></trkpt><trkpt lat="38.17398" lon="15.6694267"><ele>91.0</ele><time>2026-04-21T17:17:37.321Z</time></trkpt><trkpt lat="38.1740633" lon="15.6695033"><ele>91.0</ele><time>2026-04-21T17:17:39.321Z</time></trkpt><trkpt lat="38.1740767" lon="15.6695883"><ele>91.0</ele><time>2026-04-21T17:17:40.321Z</time></trkpt><trkpt lat="38.1740683" lon="15.669675"><ele>91.0</ele><time>2026-04-21T17:17:41.321Z</time></trkpt><trkpt lat="38.1740517" lon="15.6697833"><ele>91.0</ele><time>2026-04-21T17:17:42.321Z</time></trkpt><trkpt lat="38.17403" lon="15.669895"><ele>91.66666666666666</ele><time>2026-04-21T17:17:43.321Z</time></trkpt><trkpt lat="38.1740117" lon="15.6700133"><ele>92.33333333333333</ele><time>2026-04-21T17:17:44.321Z</time></trkpt><trkpt lat="38.1739967" lon="15.6701217"><ele>93.0</ele><time>2026-04-21T17:17:45.321Z</time></trkpt><trkpt lat="38.1739667" lon="15.6701983"><ele>93.66666666666667</ele><time>2026-04-21T17:17:46.321Z</time></trkpt><trkpt lat="38.1739283" lon="15.6702767"><ele>94.33333333333334</ele><time>2026-04-21T17:17:48.321Z</time></trkpt><trkpt lat="38.1738867" lon="15.67037"><ele>95.0</ele><time>2026-04-21T17:17:50.321Z</time></trkpt><trkpt lat="38.1738567" lon="15.6704783"><ele>96.0</ele><time>2026-04-21T17:17:52.321Z</time></trkpt><trkpt lat="38.1738333" lon="15.670595"><ele>97.0</ele><time>2026-04-21T17:17:54.321Z</time></trkpt><trkpt lat="38.17384" lon="15.670695"><ele>98.0</ele><time>2026-04-21T17:17:56.321Z</time></trkpt><trkpt lat="38.1739317" lon="15.67075"><ele>99.0</ele><time>2026-04-21T17:18:22.32Z</time></trkpt><trkpt lat="38.1740267" lon="15.6707567"><ele>99.99999999999999</ele><time>2026-04-21T17:18:24.321Z</time></trkpt><trkpt lat="38.1740967" lon="15.6707767"><ele>101.0</ele><time>2026-04-21T17:18:26.321Z</time></trkpt><trkpt lat="38.1741717" lon="15.67079"><ele>103.0</ele><time>2026-04-21T17:18:29.321Z</time></trkpt><trkpt lat="38.1742817" lon="15.6708433"><ele>103.0</ele><time>2026-04-21T17:19:24.321Z</time></trkpt><trkpt lat="38.17434" lon="15.6708867"><ele>103.0</ele><time>2026-04-21T17:19:29.321Z</time></trkpt><trkpt lat="38.1742767" lon="15.670765"><ele>103.0</ele><time>2026-04-21T17:19:48.321Z</time></trkpt></trkseg></trk></gpx>